<?xml version='1.0' encoding='UTF-8'?><gpx version="1.1" creator="JPX - https://github.com/jenetics/jpx" xmlns="http://www.topografix.com/GPX/1/1"><trk><trkseg><trkpt lat="40.15514797120357" lon="9.194422786022283"><ele>750.0</ele><time>2026-04-30T06:51:58.001Z</time></trkpt><trkpt lat="40.154971972697155" lon="9.194463939981832"><ele>750.0</ele><time>2026-04-30T06:52:01.001Z</time></trkpt><trkpt lat="40.15485912278747" lon="9.194522976112264"><ele>750.0</ele><time>2026-04-30T06:52:03.001Z</time></trkpt><trkpt lat="40.15474390021848" lon="9.19458638989597"><ele>750.0</ele><time>2026-04-30T06:52:05.001Z</time></trkpt><trkpt lat="40.154680946979575" lon="9.194635292004874"><ele>750.4285714285714</ele><time>2026-04-30T06:52:06.001Z</time></trkpt><trkpt lat="40.15462489920054" lon="9.194691253736561"><ele>750.8571428571428</ele><time>2026-04-30T06:52:07.001Z</time></trkpt><trkpt lat="40.15457705762996" lon="9.194759087302124"><ele>751.2857142857142</ele><time>2026-04-30T06:52:08.001Z</time></trkpt><trkpt lat="40.15453633161039" lon="9.194834574326633"><ele>751.7142857142858</ele><time>2026-04-30T06:52:09.001Z</time></trkpt><trkpt lat="40.15450211138289" lon="9.194914481845235"><ele>752.1428571428571</ele><time>2026-04-30T06:52:10.001Z</time></trkpt><trkpt lat="40.15446398230088" lon="9.194999893239425"><ele>752.5714285714286</ele><time>2026-04-30T06:52:11.001Z</time></trkpt><trkpt lat="40.15443543182155" lon="9.195086483814318"><ele>753.0</ele><time>2026-04-30T06:52:12.001Z</time></trkpt><trkpt lat="40.154409014024495" lon="9.19517984192713"><ele>751.2857142857143</ele><time>2026-04-30T06:52:13.001Z</time></trkpt><trkpt lat="40.15438927132463" lon="9.19527245491551"><ele>749.5714285714287</ele><time>2026-04-30T06:52:14.001Z</time></trkpt><trkpt lat="40.154374150515096" lon="9.195358757809796"><ele>747.8571428571429</ele><time>2026-04-30T06:52:15.001Z</time></trkpt><trkpt lat="40.15434774891015" lon="9.195437603382175"><ele>746.1428571428571</ele><time>2026-04-30T06:52:16.001Z</time></trkpt><trkpt lat="40.15430293593081" lon="9.195510611696102"><ele>744.4285714285714</ele><time>2026-04-30T06:52:17.001Z</time></trkpt><trkpt lat="40.15424811952795" lon="9.195573081449897"><ele>742.7142857142857</ele><time>2026-04-30T06:52:18.001Z</time></trkpt><trkpt lat="40.154183581179716" lon="9.19561130743889"><ele>741.0</ele><time>2026-04-30T06:52:19.001Z</time></trkpt><trkpt lat="40.154090449899975" lon="9.19563698382426"><ele>740.3333333333334</ele><time>2026-04-30T06:52:20.001Z</time></trkpt><trkpt lat="40.15400714414354" lon="9.195661734230313"><ele>739.6666666666666</ele><time>2026-04-30T06:52:21.001Z</time></trkpt><trkpt lat="40.15392715740421" lon="9.195692352410076"><ele>739.0</ele><time>2026-04-30T06:52:22.001Z</time></trkpt><trkpt lat="40.15384963348274" lon="9.195730113888265"><ele>738.3333333333333</ele><time>2026-04-30T06:52:23.001Z</time></trkpt><trkpt lat="40.15377912333643" lon="9.195772552568421"><ele>737.6666666666666</ele><time>2026-04-30T06:52:24.001Z</time></trkpt><trkpt lat="40.15370723865674" lon="9.195830112285439"><ele>737.0</ele><time>2026-04-30T06:52:25.001Z</time></trkpt><trkpt lat="40.153640799823236" lon="9.195906153479358"><ele>737.0</ele><time>2026-04-30T06:52:26.001Z</time></trkpt><trkpt lat="40.153572222626906" lon="9.195971330839717"><ele>737.0</ele><time>2026-04-30T06:52:27.001Z</time></trkpt><trkpt lat="40.15350288587188" lon="9.196039729284061"><ele>737.0</ele><time>2026-04-30T06:52:28.001Z</time></trkpt><trkpt lat="40.15342988885888" lon="9.196107489875555"><ele>737.0</ele><time>2026-04-30T06:52:29.001Z</time></trkpt><trkpt lat="40.15335393810269" lon="9.19614841973286"><ele>737.0</ele><time>2026-04-30T06:52:30.001Z</time></trkpt><trkpt lat="40.15328714186633" lon="9.196185382576067"><ele>737.0</ele><time>2026-04-30T06:52:31.001Z</time></trkpt><trkpt lat="40.153211753783516" lon="9.196213755457373"><ele>736.6666666666666</ele><time>2026-04-30T06:52:32.001Z</time></trkpt><trkpt lat="40.15314281098567" lon="9.196279437709947"><ele>736.3333333333333</ele><time>2026-04-30T06:52:33.001Z</time></trkpt><trkpt lat="40.15307742366919" lon="9.196340925523474"><ele>736.0</ele><time>2026-04-30T06:52:34.001Z</time></trkpt><trkpt lat="40.15301990272198" lon="9.196424960743222"><ele>735.6666666666666</ele><time>2026-04-30T06:52:35.001Z</time></trkpt><trkpt lat="40.152953831337925" lon="9.196512207351097"><ele>735.3333333333334</ele><time>2026-04-30T06:52:36.001Z</time></trkpt><trkpt lat="40.15289722217734" lon="9.196589549280336"><ele>735.0</ele><time>2026-04-30T06:52:37.001Z</time></trkpt><trkpt lat="40.15283455297249" lon="9.196661934711218"><ele>732.3333333333334</ele><time>2026-04-30T06:52:38.001Z</time></trkpt><trkpt lat="40.15276730703716" lon="9.196721908469495"><ele>729.6666666666666</ele><time>2026-04-30T06:52:39.001Z</time></trkpt><trkpt lat="40.15268954644088" lon="9.19677407592147"><ele>727.0</ele><time>2026-04-30T06:52:40.002Z</time></trkpt><trkpt lat="40.15260964903601" lon="9.196818007884794"><ele>724.3333333333333</ele><time>2026-04-30T06:52:41.002Z</time></trkpt><trkpt lat="40.15253277501996" lon="9.196856001065846"><ele>721.6666666666666</ele><time>2026-04-30T06:52:42.002Z</time></trkpt><trkpt lat="40.15245393920402" lon="9.196887657279255"><ele>719.0</ele><time>2026-04-30T06:52:43.002Z</time></trkpt><trkpt lat="40.15237141488823" lon="9.196896987186667"><ele>716.3333333333333</ele><time>2026-04-30T06:52:44.002Z</time></trkpt><trkpt lat="40.15228664744274" lon="9.196909934512188"><ele>713.6666666666666</ele><time>2026-04-30T06:52:45.002Z</time></trkpt><trkpt lat="40.15220336620509" lon="9.19688347949529"><ele>711.0</ele><time>2026-04-30T06:52:46.002Z</time></trkpt><trkpt lat="40.152122513723306" lon="9.19683894686061"><ele>708.3333333333334</ele><time>2026-04-30T06:52:47.002Z</time></trkpt><trkpt lat="40.15204877878433" lon="9.196787874148528"><ele>705.6666666666667</ele><time>2026-04-30T06:52:48.002Z</time></trkpt><trkpt lat="40.151977795650026" lon="9.196736815352164"><ele>703.0</ele><time>2026-04-30T06:52:49.002Z</time></trkpt><trkpt lat="40.151911939602954" lon="9.196677012584484"><ele>703.0</ele><time>2026-04-30T06:52:50.002Z</time></trkpt><trkpt lat="40.15185769309198" lon="9.196590644114075"><ele>703.0</ele><time>2026-04-30T06:52:51.002Z</time></trkpt><trkpt lat="40.15181967694319" lon="9.196487622787405"><ele>703.0</ele><time>2026-04-30T06:52:52.002Z</time></trkpt><trkpt lat="40.15180688668349" lon="9.196372896942076"><ele>703.0</ele><time>2026-04-30T06:52:53.002Z</time></trkpt><trkpt lat="40.15179712463999" lon="9.19625205635006"><ele>703.0</ele><time>2026-04-30T06:52:54.002Z</time></trkpt><trkpt lat="40.15178632248363" lon="9.196117377086455"><ele>703.8333333333334</ele><time>2026-04-30T06:52:55.002Z</time></trkpt><trkpt lat="40.15176293746433" lon="9.195990512293374"><ele>704.6666666666667</ele><time>2026-04-30T06:52:56.002Z</time></trkpt><trkpt lat="40.151742891709915" lon="9.19587423590415"><ele>705.5</ele><time>2026-04-30T06:52:57.002Z</time></trkpt><trkpt lat="40.151726507824755" lon="9.195764040766155"><ele>706.3333333333334</ele><time>2026-04-30T06:52:58.002Z</time></trkpt><trkpt lat="40.15171182916271" lon="9.195660680576689"><ele>707.1666666666666</ele><time>2026-04-30T06:52:59.002Z</time></trkpt><trkpt lat="40.15168741854225" lon="9.195570918489084"><ele>708.0</ele><time>2026-04-30T06:53:00.002Z</time></trkpt><trkpt lat="40.15165377762336" lon="9.195487842230381"><ele>709.5</ele><time>2026-04-30T06:53:01.002Z</time></trkpt><trkpt lat="40.1516049636127" lon="9.19541785733068"><ele>711.0</ele><time>2026-04-30T06:53:02.002Z</time></trkpt><trkpt lat="40.15154177907597" lon="9.195382924018753"><ele>712.5</ele><time>2026-04-30T06:53:03.002Z</time></trkpt><trkpt lat="40.15146624289726" lon="9.195362751127318"><ele>714.0</ele><time>2026-04-30T06:53:04.002Z</time></trkpt><trkpt lat="40.151379113622745" lon="9.195377110134064"><ele>715.5</ele><time>2026-04-30T06:53:05.002Z</time></trkpt><trkpt lat="40.151297806122955" lon="9.195427975219108"><ele>717.0</ele><time>2026-04-30T06:53:06.002Z</time></trkpt><trkpt lat="40.15122767197495" lon="9.195505695698346"><ele>717.1666666666666</ele><time>2026-04-30T06:53:07.002Z</time></trkpt><trkpt lat="40.151170589892814" lon="9.195590226309314"><ele>717.3333333333334</ele><time>2026-04-30T06:53:08.002Z</time></trkpt><trkpt lat="40.15111174084407" lon="9.195668549583262"><ele>717.5</ele><time>2026-04-30T06:53:09.002Z</time></trkpt><trkpt lat="40.15102936188271" lon="9.195704393726302"><ele>717.6666666666667</ele><time>2026-04-30T06:53:10.002Z</time></trkpt><trkpt lat="40.15093732804998" lon="9.195710664507082"><ele>717.8333333333334</ele><time>2026-04-30T06:53:11.002Z</time></trkpt><trkpt lat="40.15084323424038" lon="9.195732478376803"><ele>718.0</ele><time>2026-04-30T06:53:12.002Z</time></trkpt><trkpt lat="40.150754180907754" lon="9.195788482329656"><ele>713.8</ele><time>2026-04-30T06:53:13.002Z</time></trkpt><trkpt lat="40.150679889831814" lon="9.195865435218774"><ele>709.5999999999999</ele><time>2026-04-30T06:53:14.002Z</time></trkpt><trkpt lat="40.15059581092148" lon="9.19592968224103"><ele>705.4000000000001</ele><time>2026-04-30T06:53:15.002Z</time></trkpt><trkpt lat="40.150491342867795" lon="9.19597060930905"><ele>701.2</ele><time>2026-04-30T06:53:16.002Z</time></trkpt><trkpt lat="40.15037325719062" lon="9.19597225048398"><ele>697.0</ele><time>2026-04-30T06:53:17.002Z</time></trkpt><trkpt lat="40.15026320720994" lon="9.195944274366685"><ele>697.0</ele><time>2026-04-30T06:53:18.002Z</time></trkpt><trkpt lat="40.15015196014122" lon="9.19588553122479"><ele>697.0</ele><time>2026-04-30T06:53:19.002Z</time></trkpt><trkpt lat="40.15005085221259" lon="9.195818448496329"><ele>697.0</ele><time>2026-04-30T06:53:20.002Z</time></trkpt><trkpt lat="40.14994571334462" lon="9.195788266480065"><ele>697.0</ele><time>2026-04-30T06:53:21.002Z</time></trkpt><trkpt lat="40.14984348535152" lon="9.19578946698693"><ele>697.0</ele><time>2026-04-30T06:53:22.002Z</time></trkpt><trkpt lat="40.14974726598249" lon="9.19583328866447"><ele>698.8</ele><time>2026-04-30T06:53:23.002Z</time></trkpt><trkpt lat="40.14964092005752" lon="9.19588760906279"><ele>700.6</ele><time>2026-04-30T06:53:24.002Z</time></trkpt><trkpt lat="40.14954886899415" lon="9.195961664615137"><ele>702.4</ele><time>2026-04-30T06:53:25.002Z</time></trkpt><trkpt lat="40.149474331931145" lon="9.196063662395641"><ele>704.1999999999999</ele><time>2026-04-30T06:53:26.002Z</time></trkpt><trkpt lat="40.14942086302792" lon="9.196195885571223"><ele>706.0</ele><time>2026-04-30T06:53:27.002Z</time></trkpt><trkpt lat="40.149395734614686" lon="9.19632838460971"><ele>706.0</ele><time>2026-04-30T06:53:28.002Z</time></trkpt><trkpt lat="40.149392404704486" lon="9.1964768332643"><ele>706.0</ele><time>2026-04-30T06:53:29.002Z</time></trkpt><trkpt lat="40.14940683806216" lon="9.1966270940923"><ele>706.0</ele><time>2026-04-30T06:53:30.002Z</time></trkpt><trkpt lat="40.14942390566205" lon="9.19677954881966"><ele>706.0</ele><time>2026-04-30T06:53:31.002Z</time></trkpt><trkpt lat="40.14943397333795" lon="9.196930747864187"><ele>704.0</ele><time>2026-04-30T06:53:32.002Z</time></trkpt><trkpt lat="40.149424217840256" lon="9.197075319220145"><ele>702.0</ele><time>2026-04-30T06:53:33.002Z</time></trkpt><trkpt lat="40.14935548503532" lon="9.197198303417485"><ele>700.0</ele><time>2026-04-30T06:53:34.002Z</time></trkpt><trkpt lat="40.14925415145715" lon="9.197275750142865"><ele>698.0</ele><time>2026-04-30T06:53:35.002Z</time></trkpt><trkpt lat="40.149140863004476" lon="9.197332178681405"><ele>694.5</ele><time>2026-04-30T06:53:36.002Z</time></trkpt><trkpt lat="40.14902570657867" lon="9.197390459052059"><ele>691.0</ele><time>2026-04-30T06:53:37.002Z</time></trkpt><trkpt lat="40.1488993502495" lon="9.197432392773761"><ele>687.5</ele><time>2026-04-30T06:53:38.002Z</time></trkpt><trkpt lat="40.14877251206162" lon="9.197459038012454"><ele>684.0</ele><time>2026-04-30T06:53:39.002Z</time></trkpt><trkpt lat="40.14864403260775" lon="9.197476319789594"><ele>684.0</ele><time>2026-04-30T06:53:40.002Z</time></trkpt><trkpt lat="40.14850777965504" lon="9.197484388442867"><ele>684.0</ele><time>2026-04-30T06:53:41.002Z</time></trkpt><trkpt lat="40.14837075145788" lon="9.197461172820528"><ele>684.0</ele><time>2026-04-30T06:53:42.002Z</time></trkpt><trkpt lat="40.14823501740442" lon="9.197437267098126"><ele>684.0</ele><time>2026-04-30T06:53:43.002Z</time></trkpt><trkpt lat="40.148102757093724" lon="9.197435959062995"><ele>685.0</ele><time>2026-04-30T06:53:44.002Z</time></trkpt><trkpt lat="40.14797819685081" lon="9.197496742095465"><ele>686.0</ele><time>2026-04-30T06:53:45.002Z</time></trkpt><trkpt lat="40.147859703302025" lon="9.197573482960957"><ele>687.0</ele><time>2026-04-30T06:53:46.002Z</time></trkpt><trkpt lat="40.1477269200526" lon="9.19759420675691"><ele>688.0</ele><time>2026-04-30T06:53:47.002Z</time></trkpt><trkpt lat="40.147602463112975" lon="9.19760055193823"><ele>688.0</ele><time>2026-04-30T06:53:48.002Z</time></trkpt><trkpt lat="40.14749653833166" lon="9.197637885548449"><ele>688.0</ele><time>2026-04-30T06:53:49.002Z</time></trkpt><trkpt lat="40.14742698568384" lon="9.197730444596845"><ele>688.0</ele><time>2026-04-30T06:53:50.002Z</time></trkpt><trkpt lat="40.1474168345767" lon="9.197867219158976"><ele>688.0</ele><time>2026-04-30T06:53:51.002Z</time></trkpt><trkpt lat="40.14744874978088" lon="9.198008394299132"><ele>688.0</ele><time>2026-04-30T06:53:52.002Z</time></trkpt><trkpt lat="40.14745795981912" lon="9.198155923422949"><ele>686.0</ele><time>2026-04-30T06:53:53.002Z</time></trkpt><trkpt lat="40.1473976450017" lon="9.198272469716732"><ele>684.0</ele><time>2026-04-30T06:53:54.002Z</time></trkpt><trkpt lat="40.14730458884281" lon="9.198391652977284"><ele>682.0</ele><time>2026-04-30T06:53:55.002Z</time></trkpt><trkpt lat="40.1472631935408" lon="9.198532999356914"><ele>680.0</ele><time>2026-04-30T06:53:56.002Z</time></trkpt><trkpt lat="40.147278042433626" lon="9.198690019228252"><ele>680.0</ele><time>2026-04-30T06:53:57.002Z</time></trkpt><trkpt lat="40.14732837076988" lon="9.19883245596586"><ele>680.0</ele><time>2026-04-30T06:53:58.002Z</time></trkpt><trkpt lat="40.14737487683683" lon="9.19897987454145"><ele>680.0</ele><time>2026-04-30T06:53:59.002Z</time></trkpt><trkpt lat="40.147403546957435" lon="9.199130178417933"><ele>680.0</ele><time>2026-04-30T06:54:00.002Z</time></trkpt><trkpt lat="40.14736755536901" lon="9.199266662753852"><ele>676.0</ele><time>2026-04-30T06:54:01.002Z</time></trkpt><trkpt lat="40.14727875459331" lon="9.199363938647531"><ele>672.0</ele><time>2026-04-30T06:54:02.002Z</time></trkpt><trkpt lat="40.14716279224885" lon="9.199415657945027"><ele>668.0</ele><time>2026-04-30T06:54:03.002Z</time></trkpt><trkpt lat="40.147036382699405" lon="9.199441544002243"><ele>664.0</ele><time>2026-04-30T06:54:04.002Z</time></trkpt><trkpt lat="40.1469043477608" lon="9.199469604495206"><ele>664.0</ele><time>2026-04-30T06:54:05.002Z</time></trkpt><trkpt lat="40.1467676747064" lon="9.19949246883645"><ele>664.0</ele><time>2026-04-30T06:54:06.002Z</time></trkpt><trkpt lat="40.146617764726976" lon="9.199477151374913"><ele>664.0</ele><time>2026-04-30T06:54:07.002Z</time></trkpt><trkpt lat="40.14646123961334" lon="9.19944339482845"><ele>664.0</ele><time>2026-04-30T06:54:08.002Z</time></trkpt><trkpt lat="40.1463083125224" lon="9.199411702478447"><ele>663.25</ele><time>2026-04-30T06:54:09.002Z</time></trkpt><trkpt lat="40.146167101937195" lon="9.19941428163559"><ele>662.5</ele><time>2026-04-30T06:54:10.002Z</time></trkpt><trkpt lat="40.14602162126266" lon="9.199442797400408"><ele>661.75</ele><time>2026-04-30T06:54:11.002Z</time></trkpt><trkpt lat="40.145869066060726" lon="9.199479155338496"><ele>661.0</ele><time>2026-04-30T06:54:12.002Z</time></trkpt><trkpt lat="40.14573081044081" lon="9.199508478780565"><ele>658.75</ele><time>2026-04-30T06:54:13.002Z</time></trkpt><trkpt lat="40.14559831093502" lon="9.199538736975798"><ele>656.5</ele><time>2026-04-30T06:54:14.002Z</time></trkpt><trkpt lat="40.14547568149403" lon="9.199585845873399"><ele>654.25</ele><time>2026-04-30T06:54:15.002Z</time></trkpt><trkpt lat="40.145385255489174" lon="9.19968115379866"><ele>652.0</ele><time>2026-04-30T06:54:16.002Z</time></trkpt><trkpt lat="40.14533129539765" lon="9.19984006803273"><ele>650.3333333333334</ele><time>2026-04-30T06:54:17.002Z</time></trkpt><trkpt lat="40.14531972714423" lon="9.200048324955487"><ele>648.6666666666666</ele><time>2026-04-30T06:54:18.002Z</time></trkpt><trkpt lat="40.145282108190315" lon="9.200233009763892"><ele>647.0</ele><time>2026-04-30T06:54:19.002Z</time></trkpt><trkpt lat="40.14525329327945" lon="9.20044626162025"><ele>647.0</ele><time>2026-04-30T06:54:20.002Z</time></trkpt><trkpt lat="40.14521517191354" lon="9.200626917560937"><ele>647.0</ele><time>2026-04-30T06:54:21.002Z</time></trkpt><trkpt lat="40.145181536191735" lon="9.200799178389023"><ele>647.0</ele><time>2026-04-30T06:54:22.002Z</time></trkpt><trkpt lat="40.14514591248032" lon="9.200961942370219"><ele>647.0</ele><time>2026-04-30T06:54:23.002Z</time></trkpt><trkpt lat="40.14510766322121" lon="9.201113835426984"><ele>647.2</ele><time>2026-04-30T06:54:24.002Z</time></trkpt><trkpt lat="40.145043785506246" lon="9.201214359133475"><ele>647.4000000000001</ele><time>2026-04-30T06:54:25.002Z</time></trkpt><trkpt lat="40.14495280116485" lon="9.20124857077128"><ele>647.5999999999999</ele><time>2026-04-30T06:54:26.002Z</time></trkpt><trkpt lat="40.14484675309621" lon="9.201236408021538"><ele>647.8</ele><time>2026-04-30T06:54:27.002Z</time></trkpt><trkpt lat="40.1447367982522" lon="9.201200410754936"><ele>648.0</ele><time>2026-04-30T06:54:28.002Z</time></trkpt><trkpt lat="40.14463167853732" lon="9.201158926213731"><ele>649.0</ele><time>2026-04-30T06:54:29.002Z</time></trkpt><trkpt lat="40.144519542533146" lon="9.201111175055852"><ele>650.0</ele><time>2026-04-30T06:54:30.002Z</time></trkpt><trkpt lat="40.14440176722661" lon="9.201060944512859"><ele>651.0</ele><time>2026-04-30T06:54:31.002Z</time></trkpt><trkpt lat="40.14428203269272" lon="9.201012369985653"><ele>652.0</ele><time>2026-04-30T06:54:32.002Z</time></trkpt><trkpt lat="40.14415684754653" lon="9.200964263589528"><ele>651.5</ele><time>2026-04-30T06:54:33.002Z</time></trkpt><trkpt lat="40.144015529409934" lon="9.200952003771038"><ele>651.0</ele><time>2026-04-30T06:54:34.002Z</time></trkpt><trkpt lat="40.14387341801138" lon="9.200981663468252"><ele>650.5</ele><time>2026-04-30T06:54:35.002Z</time></trkpt><trkpt lat="40.143737688244336" lon="9.201047787768623"><ele>650.0</ele><time>2026-04-30T06:54:36.002Z</time></trkpt><trkpt lat="40.143616552637965" lon="9.201138215608603"><ele>650.0</ele><time>2026-04-30T06:54:37.002Z</time></trkpt><trkpt lat="40.14351805632931" lon="9.20126185671125"><ele>650.0</ele><time>2026-04-30T06:54:38.002Z</time></trkpt><trkpt lat="40.1434560674447" lon="9.201426768481344"><ele>650.0</ele><time>2026-04-30T06:54:39.002Z</time></trkpt><trkpt lat="40.143415169422966" lon="9.201617384354723"><ele>650.0</ele><time>2026-04-30T06:54:40.002Z</time></trkpt><trkpt lat="40.14338124329285" lon="9.201809899976201"><ele>650.3333333333333</ele><time>2026-04-30T06:54:41.002Z</time></trkpt><trkpt lat="40.14333907673115" lon="9.202006948983621"><ele>650.6666666666666</ele><time>2026-04-30T06:54:42.002Z</time></trkpt><trkpt lat="40.143262347578734" lon="9.202175890817726"><ele>651.0</ele><time>2026-04-30T06:54:43.002Z</time></trkpt><trkpt lat="40.143161323529725" lon="9.202309390370436"><ele>650.6666666666666</ele><time>2026-04-30T06:54:44.002Z</time></trkpt><trkpt lat="40.14305256876326" lon="9.202439634269014"><ele>650.3333333333333</ele><time>2026-04-30T06:54:45.003Z</time></trkpt><trkpt lat="40.142938341237226" lon="9.202574502442888"><ele>650.0</ele><time>2026-04-30T06:54:46.003Z</time></trkpt><trkpt lat="40.1428104980005" lon="9.2027096573762"><ele>650.0</ele><time>2026-04-30T06:54:47.003Z</time></trkpt><trkpt lat="40.14268717579148" lon="9.202836400826603"><ele>650.0</ele><time>2026-04-30T06:54:48.003Z</time></trkpt><trkpt lat="40.14257698460226" lon="9.202912595007627"><ele>650.0</ele><time>2026-04-30T06:54:49.003Z</time></trkpt><trkpt lat="40.14247313978045" lon="9.202946425930913"><ele>650.0</ele><time>2026-04-30T06:54:50.003Z</time></trkpt><trkpt lat="40.14234713725832" lon="9.202928685546578"><ele>649.0</ele><time>2026-04-30T06:54:51.003Z</time></trkpt><trkpt lat="40.142202164841585" lon="9.202889169200029"><ele>648.0</ele><time>2026-04-30T06:54:52.003Z</time></trkpt><trkpt lat="40.14204491181778" lon="9.202870049741211"><ele>647.0</ele><time>2026-04-30T06:54:53.003Z</time></trkpt><trkpt lat="40.141879480848964" lon="9.202864832036546"><ele>647.0</ele><time>2026-04-30T06:54:54.003Z</time></trkpt><trkpt lat="40.141704396903485" lon="9.202862710862261"><ele>647.0</ele><time>2026-04-30T06:54:55.003Z</time></trkpt><trkpt lat="40.141523853956876" lon="9.202865803746352"><ele>647.0</ele><time>2026-04-30T06:54:56.003Z</time></trkpt><trkpt lat="40.14133634156565" lon="9.202878466787269"><ele>646.3333333333333</ele><time>2026-04-30T06:54:57.003Z</time></trkpt><trkpt lat="40.141141437229045" lon="9.202891895084832"><ele>645.6666666666666</ele><time>2026-04-30T06:54:58.003Z</time></trkpt><trkpt lat="40.1409531003907" lon="9.20290683126231"><ele>645.0</ele><time>2026-04-30T06:54:59.003Z</time></trkpt><trkpt lat="40.140762018098904" lon="9.202918215780988"><ele>647.0</ele><time>2026-04-30T06:55:00.003Z</time></trkpt><trkpt lat="40.1405760987001" lon="9.202917482040867"><ele>649.0</ele><time>2026-04-30T06:55:01.003Z</time></trkpt><trkpt lat="40.140388621129105" lon="9.202912087688013"><ele>651.0</ele><time>2026-04-30T06:55:02.003Z</time></trkpt><trkpt lat="40.140203962761454" lon="9.202917275487508"><ele>651.0</ele><time>2026-04-30T06:55:03.003Z</time></trkpt><trkpt lat="40.14001302205914" lon="9.202923967805884"><ele>651.0</ele><time>2026-04-30T06:55:04.003Z</time></trkpt><trkpt lat="40.139825915872436" lon="9.202928623547814"><ele>651.0</ele><time>2026-04-30T06:55:05.003Z</time></trkpt><trkpt lat="40.139643572445834" lon="9.202971419236734"><ele>651.0</ele><time>2026-04-30T06:55:06.003Z</time></trkpt><trkpt lat="40.139467343988144" lon="9.203060838435741"><ele>651.0</ele><time>2026-04-30T06:55:07.003Z</time></trkpt><trkpt lat="40.13930028103767" lon="9.203169929132276"><ele>651.0</ele><time>2026-04-30T06:55:08.003Z</time></trkpt><trkpt lat="40.13913311498272" lon="9.203288733806557"><ele>650.0</ele><time>2026-04-30T06:55:09.003Z</time></trkpt><trkpt lat="40.13896779628461" lon="9.20340674644879"><ele>649.0</ele><time>2026-04-30T06:55:10.003Z</time></trkpt><trkpt lat="40.138799010231395" lon="9.203529861999666"><ele>648.0</ele><time>2026-04-30T06:55:11.003Z</time></trkpt><trkpt lat="40.138629335143364" lon="9.203652011812439"><ele>648.0</ele><time>2026-04-30T06:55:12.003Z</time></trkpt><trkpt lat="40.138448931920834" lon="9.203759937943527"><ele>648.0</ele><time>2026-04-30T06:55:13.003Z</time></trkpt><trkpt lat="40.13827489262204" lon="9.203866682035711"><ele>648.0</ele><time>2026-04-30T06:55:14.003Z</time></trkpt><trkpt lat="40.138096035899515" lon="9.203980553894388"><ele>649.3333333333334</ele><time>2026-04-30T06:55:15.003Z</time></trkpt><trkpt lat="40.13791338419276" lon="9.204086992394847"><ele>650.6666666666667</ele><time>2026-04-30T06:55:16.003Z</time></trkpt><trkpt lat="40.137729135164186" lon="9.204187694489736"><ele>652.0</ele><time>2026-04-30T06:55:17.003Z</time></trkpt><trkpt lat="40.13754036272247" lon="9.204284851609719"><ele>649.0</ele><time>2026-04-30T06:55:18.003Z</time></trkpt><trkpt lat="40.13735071140975" lon="9.204391821447116"><ele>646.0</ele><time>2026-04-30T06:55:19.003Z</time></trkpt><trkpt lat="40.13716595888942" lon="9.204502072528154"><ele>643.0</ele><time>2026-04-30T06:55:20.003Z</time></trkpt><trkpt lat="40.13698245838283" lon="9.204615437962383"><ele>643.0</ele><time>2026-04-30T06:55:21.003Z</time></trkpt><trkpt lat="40.136807085127074" lon="9.20473536256872"><ele>643.0</ele><time>2026-04-30T06:55:22.003Z</time></trkpt><trkpt lat="40.1366545300578" lon="9.20486316564723"><ele>643.0</ele><time>2026-04-30T06:55:23.003Z</time></trkpt><trkpt lat="40.13653142268752" lon="9.205040711620716"><ele>643.0</ele><time>2026-04-30T06:55:24.003Z</time></trkpt><trkpt lat="40.136442350174164" lon="9.205272502030933"><ele>643.0</ele><time>2026-04-30T06:55:25.003Z</time></trkpt><trkpt lat="40.136387461307024" lon="9.205539933253293"><ele>643.0</ele><time>2026-04-30T06:55:26.003Z</time></trkpt><trkpt lat="40.136374185143154" lon="9.205813907822"><ele>643.0</ele><time>2026-04-30T06:55:27.003Z</time></trkpt><trkpt lat="40.13637990333832" lon="9.206077554531536"><ele>643.0</ele><time>2026-04-30T06:55:28.003Z</time></trkpt><trkpt lat="40.13634506967869" lon="9.206264247892486"><ele>643.0</ele><time>2026-04-30T06:55:29.003Z</time></trkpt><trkpt lat="40.136264390883426" lon="9.206412072236503"><ele>646.0</ele><time>2026-04-30T06:55:30.003Z</time></trkpt><trkpt lat="40.136151359676234" lon="9.20658251866777"><ele>649.0</ele><time>2026-04-30T06:55:31.003Z</time></trkpt><trkpt lat="40.13602665302586" lon="9.206771533957534"><ele>652.0</ele><time>2026-04-30T06:55:32.003Z</time></trkpt><trkpt lat="40.13589396979621" lon="9.206969735637884"><ele>652.0</ele><time>2026-04-30T06:55:33.003Z</time></trkpt><trkpt lat="40.13575802352775" lon="9.20716692023152"><ele>652.0</ele><time>2026-04-30T06:55:34.003Z</time></trkpt><trkpt lat="40.1355998691445" lon="9.20732045626629"><ele>652.0</ele><time>2026-04-30T06:55:35.003Z</time></trkpt><trkpt lat="40.135426831688925" lon="9.207453172080445"><ele>652.0</ele><time>2026-04-30T06:55:36.003Z</time></trkpt><trkpt lat="40.13524599642224" lon="9.207568498998604"><ele>652.0</ele><time>2026-04-30T06:55:37.003Z</time></trkpt><trkpt lat="40.13506157682654" lon="9.207684423847041"><ele>652.0</ele><time>2026-04-30T06:55:38.003Z</time></trkpt><trkpt lat="40.134876555340476" lon="9.207795153346995"><ele>648.0</ele><time>2026-04-30T06:55:39.003Z</time></trkpt><trkpt lat="40.13469707814195" lon="9.207898079509427"><ele>644.0</ele><time>2026-04-30T06:55:40.003Z</time></trkpt><trkpt lat="40.13453199178269" lon="9.207995984065345"><ele>640.0</ele><time>2026-04-30T06:55:41.003Z</time></trkpt><trkpt lat="40.13438154318812" lon="9.208090148817108"><ele>644.3333333333334</ele><time>2026-04-30T06:55:42.003Z</time></trkpt><trkpt lat="40.13426447045521" lon="9.208233078344374"><ele>648.6666666666666</ele><time>2026-04-30T06:55:43.003Z</time></trkpt><trkpt lat="40.134195550166076" lon="9.208419617429877"><ele>653.0</ele><time>2026-04-30T06:55:44.003Z</time></trkpt><trkpt lat="40.13417366046501" lon="9.208626423689742"><ele>653.0</ele><time>2026-04-30T06:55:45.003Z</time></trkpt><trkpt lat="40.134213198334436" lon="9.208840434817343"><ele>653.0</ele><time>2026-04-30T06:55:46.003Z</time></trkpt><trkpt lat="40.13428159086214" lon="9.20905543206486"><ele>653.0</ele><time>2026-04-30T06:55:47.003Z</time></trkpt><trkpt lat="40.13435653567255" lon="9.209265846481445"><ele>653.6666666666666</ele><time>2026-04-30T06:55:48.003Z</time></trkpt><trkpt lat="40.13443042754697" lon="9.20947938181546"><ele>654.3333333333334</ele><time>2026-04-30T06:55:49.003Z</time></trkpt><trkpt lat="40.13449628852058" lon="9.209655192972974"><ele>655.0</ele><time>2026-04-30T06:55:50.003Z</time></trkpt><trkpt lat="40.13456190182564" lon="9.209793551782962"><ele>653.25</ele><time>2026-04-30T06:55:51.003Z</time></trkpt><trkpt lat="40.13462887022013" lon="9.209912784672193"><ele>651.5</ele><time>2026-04-30T06:55:52.003Z</time></trkpt><trkpt lat="40.13470583761821" lon="9.210025296799907"><ele>649.75</ele><time>2026-04-30T06:55:53.003Z</time></trkpt><trkpt lat="40.13478849276492" lon="9.210163036143086"><ele>648.0</ele><time>2026-04-30T06:55:54.003Z</time></trkpt><trkpt lat="40.13486421435458" lon="9.210290195070323"><ele>648.0</ele><time>2026-04-30T06:55:55.003Z</time></trkpt><trkpt lat="40.134877939882685" lon="9.210458321349781"><ele>648.0</ele><time>2026-04-30T06:55:56.003Z</time></trkpt><trkpt lat="40.13493544724134" lon="9.21115632252516"><ele>648.0</ele><time>2026-04-30T06:55:57.003Z</time></trkpt><trkpt lat="40.13488596138541" lon="9.211408411731353"><ele>648.0</ele><time>2026-04-30T06:55:58.003Z</time></trkpt><trkpt lat="40.1347786333282" lon="9.211628628771734"><ele>648.0</ele><time>2026-04-30T06:55:59.003Z</time></trkpt><trkpt lat="40.134625002070855" lon="9.211826324193337"><ele>648.0</ele><time>2026-04-30T06:56:00.003Z</time></trkpt><trkpt lat="40.13447052804366" lon="9.21203428528074"><ele>648.0</ele><time>2026-04-30T06:56:01.003Z</time></trkpt><trkpt lat="40.13431116745111" lon="9.212262069400042"><ele>651.0</ele><time>2026-04-30T06:56:02.003Z</time></trkpt><trkpt lat="40.13418897594202" lon="9.212513685954999"><ele>654.0</ele><time>2026-04-30T06:56:03.003Z</time></trkpt><trkpt lat="40.13410729619033" lon="9.212779245585613"><ele>657.0</ele><time>2026-04-30T06:56:04.003Z</time></trkpt><trkpt lat="40.13403175109271" lon="9.21302627640603"><ele>651.0</ele><time>2026-04-30T06:56:05.003Z</time></trkpt><trkpt lat="40.133946506636946" lon="9.21324750093197"><ele>645.0</ele><time>2026-04-30T06:56:06.003Z</time></trkpt><trkpt lat="40.133819396428294" lon="9.213410091730665"><ele>639.0</ele><time>2026-04-30T06:56:07.003Z</time></trkpt><trkpt lat="40.13366640643952" lon="9.213482982801285"><ele>639.0</ele><time>2026-04-30T06:56:08.003Z</time></trkpt><trkpt lat="40.133481547161985" lon="9.213478911594637"><ele>639.0</ele><time>2026-04-30T06:56:09.003Z</time></trkpt><trkpt lat="40.13325691302968" lon="9.213411294965029"><ele>639.0</ele><time>2026-04-30T06:56:10.003Z</time></trkpt><trkpt lat="40.13303733083444" lon="9.213353377807511"><ele>639.5</ele><time>2026-04-30T06:56:11.003Z</time></trkpt><trkpt lat="40.13280273539161" lon="9.213306620364579"><ele>640.0</ele><time>2026-04-30T06:56:12.003Z</time></trkpt><trkpt lat="40.1325598536579" lon="9.2132667844844"><ele>651.5</ele><time>2026-04-30T06:56:13.003Z</time></trkpt><trkpt lat="40.132311348603686" lon="9.213239866075204"><ele>663.0</ele><time>2026-04-30T06:56:14.003Z</time></trkpt><trkpt lat="40.132094531589345" lon="9.213212911510427"><ele>663.0</ele><time>2026-04-30T06:56:15.003Z</time></trkpt><trkpt lat="40.13191374583004" lon="9.213178051626617"><ele>663.0</ele><time>2026-04-30T06:56:16.003Z</time></trkpt><trkpt lat="40.1317708633356" lon="9.213086845542291"><ele>663.0</ele><time>2026-04-30T06:56:17.003Z</time></trkpt><trkpt lat="40.13163222348013" lon="9.212913167258243"><ele>666.3333333333334</ele><time>2026-04-30T06:56:18.003Z</time></trkpt><trkpt lat="40.131508412528675" lon="9.212690480480484"><ele>669.6666666666667</ele><time>2026-04-30T06:56:19.003Z</time></trkpt><trkpt lat="40.13137469558823" lon="9.212466948781971"><ele>673.0</ele><time>2026-04-30T06:56:20.003Z</time></trkpt><trkpt lat="40.13122598601605" lon="9.212249488245753"><ele>666.6666666666667</ele><time>2026-04-30T06:56:21.003Z</time></trkpt><trkpt lat="40.131052274421855" lon="9.212069485615727"><ele>660.3333333333334</ele><time>2026-04-30T06:56:22.003Z</time></trkpt><trkpt lat="40.13087109628904" lon="9.21195011843611"><ele>654.0</ele><time>2026-04-30T06:56:23.003Z</time></trkpt><trkpt lat="40.130679669873004" lon="9.211888892497413"><ele>654.0</ele><time>2026-04-30T06:56:24.003Z</time></trkpt><trkpt lat="40.13047146824999" lon="9.211884409256056"><ele>654.0</ele><time>2026-04-30T06:56:25.003Z</time></trkpt><trkpt lat="40.13025430389069" lon="9.211933088997409"><ele>654.0</ele><time>2026-04-30T06:56:26.003Z</time></trkpt><trkpt lat="40.13005737704622" lon="9.21197865974483"><ele>654.0</ele><time>2026-04-30T06:56:27.003Z</time></trkpt><trkpt lat="40.12989224227155" lon="9.212011398946641"><ele>654.0</ele><time>2026-04-30T06:56:28.003Z</time></trkpt><trkpt lat="40.12977172943643" lon="9.212006909569999"><ele>654.0</ele><time>2026-04-30T06:56:29.003Z</time></trkpt><trkpt lat="40.12966281832435" lon="9.211974350071358"><ele>654.0</ele><time>2026-04-30T06:56:30.003Z</time></trkpt><trkpt lat="40.129578621174325" lon="9.211878223126932"><ele>657.0</ele><time>2026-04-30T06:56:31.003Z</time></trkpt><trkpt lat="40.12949710556843" lon="9.211753314471814"><ele>660.0</ele><time>2026-04-30T06:56:32.003Z</time></trkpt><trkpt lat="40.129409508394865" lon="9.211609171458216"><ele>663.0</ele><time>2026-04-30T06:56:33.003Z</time></trkpt><trkpt lat="40.12933113921798" lon="9.211490306993037"><ele>666.0</ele><time>2026-04-30T06:56:34.003Z</time></trkpt><trkpt lat="40.129271918864724" lon="9.211385926951682"><ele>666.0</ele><time>2026-04-30T06:56:35.003Z</time></trkpt><trkpt lat="40.12921503104088" lon="9.211275093539093"><ele>666.0</ele><time>2026-04-30T06:56:36.003Z</time></trkpt><trkpt lat="40.12917041018841" lon="9.211134415655845"><ele>666.0</ele><time>2026-04-30T06:56:37.003Z</time></trkpt><trkpt lat="40.12915402160323" lon="9.210967880456675"><ele>666.0</ele><time>2026-04-30T06:56:38.003Z</time></trkpt><trkpt lat="40.129155710609496" lon="9.210788229692605"><ele>664.25</ele><time>2026-04-30T06:56:39.003Z</time></trkpt><trkpt lat="40.129174430416995" lon="9.210611144163945"><ele>662.5</ele><time>2026-04-30T06:56:40.003Z</time></trkpt><trkpt lat="40.12919871457058" lon="9.210437901183903"><ele>660.75</ele><time>2026-04-30T06:56:41.003Z</time></trkpt><trkpt lat="40.129200898487035" lon="9.210275288119501"><ele>659.0</ele><time>2026-04-30T06:56:42.003Z</time></trkpt><trkpt lat="40.12923711515085" lon="9.210113440393126"><ele>659.0</ele><time>2026-04-30T06:56:43.003Z</time></trkpt><trkpt lat="40.12920060685459" lon="9.209967072608528"><ele>659.0</ele><time>2026-04-30T06:56:44.003Z</time></trkpt><trkpt lat="40.12914039050822" lon="9.209825960582958"><ele>659.0</ele><time>2026-04-30T06:56:45.003Z</time></trkpt><trkpt lat="40.12905637355954" lon="9.209702274861336"><ele>659.0</ele><time>2026-04-30T06:56:46.003Z</time></trkpt><trkpt lat="40.12894450373821" lon="9.209590080804258"><ele>659.0</ele><time>2026-04-30T06:56:47.003Z</time></trkpt><trkpt lat="40.12880226372716" lon="9.209488216222024"><ele>659.0</ele><time>2026-04-30T06:56:48.003Z</time></trkpt><trkpt lat="40.12862691924317" lon="9.209402239575674"><ele>659.0</ele><time>2026-04-30T06:56:49.003Z</time></trkpt><trkpt lat="40.12843721512773" lon="9.209318217196127"><ele>659.0</ele><time>2026-04-30T06:56:50.004Z</time></trkpt><trkpt lat="40.12824347285989" lon="9.209200861164286"><ele>659.0</ele><time>2026-04-30T06:56:51.004Z</time></trkpt><trkpt lat="40.12805145030209" lon="9.209077244134535"><ele>659.0</ele><time>2026-04-30T06:56:52.004Z</time></trkpt><trkpt lat="40.12786207038433" lon="9.208965924061527"><ele>655.3333333333333</ele><time>2026-04-30T06:56:53.004Z</time></trkpt><trkpt lat="40.12768303773023" lon="9.208881224490515"><ele>651.6666666666666</ele><time>2026-04-30T06:56:54.004Z</time></trkpt><trkpt lat="40.12749522283108" lon="9.208830252893888"><ele>648.0</ele><time>2026-04-30T06:56:55.004Z</time></trkpt><trkpt lat="40.12729861407392" lon="9.208850683138705"><ele>646.0</ele><time>2026-04-30T06:56:56.004Z</time></trkpt><trkpt lat="40.127089407051514" lon="9.208916255294527"><ele>644.0</ele><time>2026-04-30T06:56:57.004Z</time></trkpt><trkpt lat="40.126862997477325" lon="9.20898867171922"><ele>642.0</ele><time>2026-04-30T06:56:58.004Z</time></trkpt><trkpt lat="40.126636980274384" lon="9.209057732002627"><ele>648.0</ele><time>2026-04-30T06:56:59.004Z</time></trkpt><trkpt lat="40.12640222365132" lon="9.209130377241753"><ele>654.0</ele><time>2026-04-30T06:57:00.004Z</time></trkpt><trkpt lat="40.126164386632425" lon="9.209203969241612"><ele>654.0</ele><time>2026-04-30T06:57:01.004Z</time></trkpt><trkpt lat="40.125916150280155" lon="9.209321851715668"><ele>654.0</ele><time>2026-04-30T06:57:02.004Z</time></trkpt><trkpt lat="40.12563934419105" lon="9.209481175278786"><ele>649.5</ele><time>2026-04-30T06:57:03.004Z</time></trkpt><trkpt lat="40.125348072995244" lon="9.209680704123022"><ele>645.0</ele><time>2026-04-30T06:57:04.004Z</time></trkpt><trkpt lat="40.12504466627404" lon="9.209849102752655"><ele>650.5</ele><time>2026-04-30T06:57:05.004Z</time></trkpt><trkpt lat="40.12474069242135" lon="9.20996216569499"><ele>656.0</ele><time>2026-04-30T06:57:06.004Z</time></trkpt><trkpt lat="40.12444114390348" lon="9.209994624573426"><ele>656.0</ele><time>2026-04-30T06:57:07.004Z</time></trkpt><trkpt lat="40.124182005292695" lon="9.210031765476538"><ele>656.0</ele><time>2026-04-30T06:57:08.004Z</time></trkpt><trkpt lat="40.12395340436101" lon="9.21015240645148"><ele>653.5</ele><time>2026-04-30T06:57:09.004Z</time></trkpt><trkpt lat="40.123718553105654" lon="9.210348178785528"><ele>651.0</ele><time>2026-04-30T06:57:10.004Z</time></trkpt><trkpt lat="40.12348286273715" lon="9.210615036887408"><ele>657.5</ele><time>2026-04-30T06:57:11.004Z</time></trkpt><trkpt lat="40.123283357396446" lon="9.210876661829937"><ele>664.0</ele><time>2026-04-30T06:57:12.004Z</time></trkpt><trkpt lat="40.12311256531623" lon="9.211047137784623"><ele>665.6666666666667</ele><time>2026-04-30T06:57:13.004Z</time></trkpt><trkpt lat="40.12295697067824" lon="9.211159517186578"><ele>667.3333333333334</ele><time>2026-04-30T06:57:14.004Z</time></trkpt><trkpt lat="40.12278530277205" lon="9.211177107377384"><ele>669.0</ele><time>2026-04-30T06:57:15.004Z</time></trkpt><trkpt lat="40.122609897711605" lon="9.2111118738208"><ele>669.0</ele><time>2026-04-30T06:57:16.004Z</time></trkpt><trkpt lat="40.122455300539606" lon="9.210953946238742"><ele>669.0</ele><time>2026-04-30T06:57:17.004Z</time></trkpt><trkpt lat="40.12235919164042" lon="9.21073017012361"><ele>669.0</ele><time>2026-04-30T06:57:18.004Z</time></trkpt><trkpt lat="40.12231804210575" lon="9.210438198473282"><ele>664.5</ele><time>2026-04-30T06:57:19.004Z</time></trkpt><trkpt lat="40.122323062537845" lon="9.210088219289494"><ele>660.0</ele><time>2026-04-30T06:57:20.004Z</time></trkpt><trkpt lat="40.12230759202955" lon="9.209802517833552"><ele>660.0</ele><time>2026-04-30T06:57:21.004Z</time></trkpt><trkpt lat="40.12224294274902" lon="9.209578446085057"><ele>660.0</ele><time>2026-04-30T06:57:22.004Z</time></trkpt><trkpt lat="40.12209714533058" lon="9.209396345998147"><ele>660.0</ele><time>2026-04-30T06:57:23.004Z</time></trkpt><trkpt lat="40.12185754795112" lon="9.209260128687411"><ele>664.5</ele><time>2026-04-30T06:57:24.004Z</time></trkpt><trkpt lat="40.1215551067721" lon="9.209164377678528"><ele>669.0</ele><time>2026-04-30T06:57:25.004Z</time></trkpt><trkpt lat="40.12122879180608" lon="9.20903019798315"><ele>665.0</ele><time>2026-04-30T06:57:26.004Z</time></trkpt><trkpt lat="40.12088095419021" lon="9.20886475235469"><ele>661.0</ele><time>2026-04-30T06:57:27.004Z</time></trkpt><trkpt lat="40.12052896654685" lon="9.208679342511294"><ele>661.0</ele><time>2026-04-30T06:57:28.004Z</time></trkpt><trkpt lat="40.12024025911906" lon="9.208516765418116"><ele>661.0</ele><time>2026-04-30T06:57:29.004Z</time></trkpt><trkpt lat="40.119988421391575" lon="9.208403382353332"><ele>660.6666666666667</ele><time>2026-04-30T06:57:30.004Z</time></trkpt><trkpt lat="40.119764732251106" lon="9.20834221659303"><ele>660.3333333333334</ele><time>2026-04-30T06:57:31.004Z</time></trkpt><trkpt lat="40.11955673188298" lon="9.208307691477044"><ele>660.0</ele><time>2026-04-30T06:57:32.004Z</time></trkpt><trkpt lat="40.11941577527921" lon="9.208284334238629"><ele>660.0</ele><time>2026-04-30T06:57:33.004Z</time></trkpt><trkpt lat="40.11934811459288" lon="9.208287263320573"><ele>660.0</ele><time>2026-04-30T06:57:34.004Z</time></trkpt><trkpt lat="40.11922928497928" lon="9.20825529007754"><ele>660.0</ele><time>2026-04-30T06:57:36.004Z</time></trkpt><trkpt lat="40.11912131568593" lon="9.208293195236772"><ele>660.0</ele><time>2026-04-30T06:57:38.004Z</time></trkpt><trkpt lat="40.11908202648641" lon="9.20839825446174"><ele>660.0</ele><time>2026-04-30T06:57:40.004Z</time></trkpt><trkpt lat="40.1190277447325" lon="9.208540058525253"><ele>658.25</ele><time>2026-04-30T06:57:42.004Z</time></trkpt><trkpt lat="40.1189591568198" lon="9.208659406148943"><ele>656.5</ele><time>2026-04-30T06:57:43.004Z</time></trkpt><trkpt lat="40.118878936628036" lon="9.208799807037215"><ele>654.75</ele><time>2026-04-30T06:57:44.004Z</time></trkpt><trkpt lat="40.1187998799018" lon="9.208951778467242"><ele>653.0</ele><time>2026-04-30T06:57:45.004Z</time></trkpt><trkpt lat="40.11870872739297" lon="9.209126032439743"><ele>653.0</ele><time>2026-04-30T06:57:46.004Z</time></trkpt><trkpt lat="40.11861329444631" lon="9.209299468182289"><ele>653.0</ele><time>2026-04-30T06:57:47.004Z</time></trkpt><trkpt lat="40.11851474223833" lon="9.209479424013443"><ele>653.0</ele><time>2026-04-30T06:57:48.004Z</time></trkpt><trkpt lat="40.11842754872901" lon="9.209662289784704"><ele>653.0</ele><time>2026-04-30T06:57:49.004Z</time></trkpt><trkpt lat="40.118335233650434" lon="9.209823780534961"><ele>653.0</ele><time>2026-04-30T06:57:50.004Z</time></trkpt><trkpt lat="40.118240332670695" lon="9.209983881266563"><ele>653.0</ele><time>2026-04-30T06:57:51.004Z</time></trkpt><trkpt lat="40.11813671308735" lon="9.210137706370547"><ele>653.3333333333333</ele><time>2026-04-30T06:57:52.004Z</time></trkpt><trkpt lat="40.118020235119594" lon="9.21029393348151"><ele>653.6666666666666</ele><time>2026-04-30T06:57:53.004Z</time></trkpt><trkpt lat="40.117899734221105" lon="9.21044929209451"><ele>654.0</ele><time>2026-04-30T06:57:54.004Z</time></trkpt><trkpt lat="40.11777260985803" lon="9.210620952767348"><ele>657.6666666666666</ele><time>2026-04-30T06:57:55.004Z</time></trkpt><trkpt lat="40.11766232397134" lon="9.210805429677178"><ele>661.3333333333333</ele><time>2026-04-30T06:57:56.004Z</time></trkpt><trkpt lat="40.11757650068035" lon="9.211018284871345"><ele>665.0</ele><time>2026-04-30T06:57:57.004Z</time></trkpt><trkpt lat="40.117552203310574" lon="9.211254142355457"><ele>665.6666666666666</ele><time>2026-04-30T06:57:58.004Z</time></trkpt><trkpt lat="40.117589537907726" lon="9.211499295832413"><ele>666.3333333333334</ele><time>2026-04-30T06:57:59.004Z</time></trkpt><trkpt lat="40.1176832464008" lon="9.211748510395289"><ele>667.0</ele><time>2026-04-30T06:58:00.004Z</time></trkpt><trkpt lat="40.11782335982986" lon="9.211992776650666"><ele>667.0</ele><time>2026-04-30T06:58:01.004Z</time></trkpt><trkpt lat="40.1179598299677" lon="9.212204686557598"><ele>667.0</ele><time>2026-04-30T06:58:02.004Z</time></trkpt><trkpt lat="40.118069810264494" lon="9.212404893141864"><ele>667.0</ele><time>2026-04-30T06:58:03.004Z</time></trkpt><trkpt lat="40.11816034957175" lon="9.21258719067637"><ele>666.0</ele><time>2026-04-30T06:58:04.004Z</time></trkpt><trkpt lat="40.11822688271327" lon="9.212787224163948"><ele>665.0</ele><time>2026-04-30T06:58:05.004Z</time></trkpt><trkpt lat="40.11826353877144" lon="9.213018816092085"><ele>664.0</ele><time>2026-04-30T06:58:06.004Z</time></trkpt><trkpt lat="40.11823151770274" lon="9.21324056415851"><ele>666.0</ele><time>2026-04-30T06:58:07.004Z</time></trkpt><trkpt lat="40.11816829050657" lon="9.213437496702818"><ele>668.0</ele><time>2026-04-30T06:58:08.004Z</time></trkpt><trkpt lat="40.11805372744546" lon="9.213589025804868"><ele>670.0</ele><time>2026-04-30T06:58:09.004Z</time></trkpt><trkpt lat="40.11791803577521" lon="9.213721742557874"><ele>670.0</ele><time>2026-04-30T06:58:10.004Z</time></trkpt><trkpt lat="40.11776311413041" lon="9.213863754872012"><ele>670.0</ele><time>2026-04-30T06:58:11.004Z</time></trkpt><trkpt lat="40.11760668158156" lon="9.214019981321856"><ele>670.0</ele><time>2026-04-30T06:58:12.004Z</time></trkpt><trkpt lat="40.11744602381155" lon="9.214178708899519"><ele>674.0</ele><time>2026-04-30T06:58:13.004Z</time></trkpt><trkpt lat="40.11729436555984" lon="9.21432992133818"><ele>678.0</ele><time>2026-04-30T06:58:14.004Z</time></trkpt><trkpt lat="40.11713829061309" lon="9.214487814379604"><ele>682.0</ele><time>2026-04-30T06:58:15.004Z</time></trkpt><trkpt lat="40.11697416525038" lon="9.214644878790034"><ele>682.0</ele><time>2026-04-30T06:58:16.004Z</time></trkpt><trkpt lat="40.11680210824997" lon="9.214781282135789"><ele>682.0</ele><time>2026-04-30T06:58:17.004Z</time></trkpt><trkpt lat="40.11663548987349" lon="9.214903525676991"><ele>682.0</ele><time>2026-04-30T06:58:18.004Z</time></trkpt><trkpt lat="40.1164698649164" lon="9.215001228099549"><ele>687.6666666666667</ele><time>2026-04-30T06:58:19.004Z</time></trkpt><trkpt lat="40.11630946616343" lon="9.215109390979212"><ele>693.3333333333334</ele><time>2026-04-30T06:58:20.004Z</time></trkpt><trkpt lat="40.116152489375565" lon="9.215220995303435"><ele>699.0</ele><time>2026-04-30T06:58:21.004Z</time></trkpt><trkpt lat="40.11598734732369" lon="9.215334042266207"><ele>699.0</ele><time>2026-04-30T06:58:22.004Z</time></trkpt><trkpt lat="40.11582793873444" lon="9.215445931572779"><ele>699.0</ele><time>2026-04-30T06:58:23.004Z</time></trkpt><trkpt lat="40.115693744433685" lon="9.215562658022236"><ele>699.0</ele><time>2026-04-30T06:58:24.004Z</time></trkpt><trkpt lat="40.11559183342058" lon="9.215721462514331"><ele>702.6666666666666</ele><time>2026-04-30T06:58:25.004Z</time></trkpt><trkpt lat="40.11553192711481" lon="9.215925944271513"><ele>706.3333333333333</ele><time>2026-04-30T06:58:26.004Z</time></trkpt><trkpt lat="40.115511297835575" lon="9.216154163254336"><ele>710.0</ele><time>2026-04-30T06:58:27.004Z</time></trkpt><trkpt lat="40.115537442962996" lon="9.216390546444707"><ele>711.0</ele><time>2026-04-30T06:58:28.004Z</time></trkpt><trkpt lat="40.11558350272442" lon="9.216637274715326"><ele>712.0</ele><time>2026-04-30T06:58:29.004Z</time></trkpt><trkpt lat="40.11562033952156" lon="9.21689456964389"><ele>713.0</ele><time>2026-04-30T06:58:30.004Z</time></trkpt><trkpt lat="40.11566234221498" lon="9.217158742742974"><ele>714.3333333333333</ele><time>2026-04-30T06:58:31.004Z</time></trkpt><trkpt lat="40.1156936189675" lon="9.217428940862598"><ele>715.6666666666666</ele><time>2026-04-30T06:58:32.004Z</time></trkpt><trkpt lat="40.1157227302789" lon="9.217710957051489"><ele>717.0</ele><time>2026-04-30T06:58:33.004Z</time></trkpt><trkpt lat="40.115751712138234" lon="9.217996135770292"><ele>716.6666666666666</ele><time>2026-04-30T06:58:34.004Z</time></trkpt><trkpt lat="40.11578033965688" lon="9.218283815072265"><ele>716.3333333333333</ele><time>2026-04-30T06:58:35.004Z</time></trkpt><trkpt lat="40.115807502661774" lon="9.218572951728806"><ele>716.0</ele><time>2026-04-30T06:58:36.004Z</time></trkpt><trkpt lat="40.115851406386426" lon="9.218851600669671"><ele>715.5</ele><time>2026-04-30T06:58:37.004Z</time></trkpt><trkpt lat="40.11592130544894" lon="9.219135190473846"><ele>715.0</ele><time>2026-04-30T06:58:38.004Z</time></trkpt><trkpt lat="40.11600954272225" lon="9.219413685556301"><ele>715.0</ele><time>2026-04-30T06:58:39.004Z</time></trkpt><trkpt lat="40.11612159160871" lon="9.219675035944249"><ele>715.0</ele><time>2026-04-30T06:58:40.004Z</time></trkpt><trkpt lat="40.11623612160835" lon="9.219935965501291"><ele>716.0</ele><time>2026-04-30T06:58:41.004Z</time></trkpt><trkpt lat="40.11636492914982" lon="9.220184042399893"><ele>717.0</ele><time>2026-04-30T06:58:42.004Z</time></trkpt><trkpt lat="40.116495551762604" lon="9.220424297463591"><ele>719.3333333333334</ele><time>2026-04-30T06:58:43.004Z</time></trkpt><trkpt lat="40.11662718600685" lon="9.220662359415874"><ele>721.6666666666667</ele><time>2026-04-30T06:58:44.004Z</time></trkpt><trkpt lat="40.11674158437716" lon="9.220881976999143"><ele>724.0</ele><time>2026-04-30T06:58:45.004Z</time></trkpt><trkpt lat="40.116846560689865" lon="9.221076675240333"><ele>724.0</ele><time>2026-04-30T06:58:46.004Z</time></trkpt><trkpt lat="40.11697416901888" lon="9.221266176158869"><ele>724.0</ele><time>2026-04-30T06:58:47.004Z</time></trkpt><trkpt lat="40.117115405042746" lon="9.221448507821728"><ele>724.0</ele><time>2026-04-30T06:58:48.004Z</time></trkpt><trkpt lat="40.117259353072185" lon="9.221640924732522"><ele>728.3333333333334</ele><time>2026-04-30T06:58:49.004Z</time></trkpt><trkpt lat="40.11740895610088" lon="9.221835452799521"><ele>732.6666666666666</ele><time>2026-04-30T06:58:50.004Z</time></trkpt><trkpt lat="40.117558341533325" lon="9.222038462746708"><ele>737.0</ele><time>2026-04-30T06:58:51.004Z</time></trkpt><trkpt lat="40.11769362490338" lon="9.22226537636016"><ele>737.5</ele><time>2026-04-30T06:58:52.004Z</time></trkpt><trkpt lat="40.117826578356045" lon="9.222506925486524"><ele>738.0</ele><time>2026-04-30T06:58:53.004Z</time></trkpt><trkpt lat="40.11796546309336" lon="9.222759101108908"><ele>738.0</ele><time>2026-04-30T06:58:54.005Z</time></trkpt><trkpt lat="40.11810111869048" lon="9.223003727120807"><ele>738.0</ele><time>2026-04-30T06:58:55.005Z</time></trkpt><trkpt lat="40.118232988644515" lon="9.2232521663671"><ele>742.0</ele><time>2026-04-30T06:58:56.005Z</time></trkpt><trkpt lat="40.118368260973924" lon="9.223508332632777"><ele>746.0</ele><time>2026-04-30T06:58:57.005Z</time></trkpt><trkpt lat="40.11851386405526" lon="9.223766105231086"><ele>745.0</ele><time>2026-04-30T06:58:58.005Z</time></trkpt><trkpt lat="40.11865402554747" lon="9.22402304748453"><ele>744.0</ele><time>2026-04-30T06:58:59.005Z</time></trkpt><trkpt lat="40.11879818801186" lon="9.224280481066536"><ele>744.0</ele><time>2026-04-30T06:59:00.005Z</time></trkpt><trkpt lat="40.11893806987666" lon="9.224550979857618"><ele>744.0</ele><time>2026-04-30T06:59:01.005Z</time></trkpt><trkpt lat="40.11907883753264" lon="9.224820846622617"><ele>748.0</ele><time>2026-04-30T06:59:02.005Z</time></trkpt><trkpt lat="40.11922190211918" lon="9.225092341855532"><ele>752.0</ele><time>2026-04-30T06:59:03.005Z</time></trkpt><trkpt lat="40.119373177635794" lon="9.225357777277663"><ele>752.0</ele><time>2026-04-30T06:59:04.005Z</time></trkpt><trkpt lat="40.11952336267768" lon="9.225628922076455"><ele>752.0</ele><time>2026-04-30T06:59:05.005Z</time></trkpt><trkpt lat="40.119671076841435" lon="9.225886140373813"><ele>752.5</ele><time>2026-04-30T06:59:06.005Z</time></trkpt><trkpt lat="40.11980205727999" lon="9.226145694865915"><ele>753.0</ele><time>2026-04-30T06:59:07.005Z</time></trkpt><trkpt lat="40.11992070050578" lon="9.22641213479262"><ele>757.5</ele><time>2026-04-30T06:59:08.005Z</time></trkpt><trkpt lat="40.12002904949126" lon="9.22668589499957"><ele>762.0</ele><time>2026-04-30T06:59:09.005Z</time></trkpt><trkpt lat="40.12013881749064" lon="9.226953753817128"><ele>762.0</ele><time>2026-04-30T06:59:10.005Z</time></trkpt><trkpt lat="40.12025207111061" lon="9.227216661423796"><ele>762.0</ele><time>2026-04-30T06:59:11.005Z</time></trkpt><trkpt lat="40.1203572942109" lon="9.227470846311157"><ele>762.3333333333334</ele><time>2026-04-30T06:59:12.005Z</time></trkpt><trkpt lat="40.12045787457942" lon="9.227710959136136"><ele>762.6666666666667</ele><time>2026-04-30T06:59:13.005Z</time></trkpt><trkpt lat="40.1205440021358" lon="9.227950133510161"><ele>763.0</ele><time>2026-04-30T06:59:14.005Z</time></trkpt><trkpt lat="40.120600783745104" lon="9.228184322510684"><ele>764.3333333333334</ele><time>2026-04-30T06:59:15.005Z</time></trkpt><trkpt lat="40.120617808665656" lon="9.228431755763568"><ele>765.6666666666666</ele><time>2026-04-30T06:59:16.005Z</time></trkpt><trkpt lat="40.120600179754035" lon="9.228694181157689"><ele>767.0</ele><time>2026-04-30T06:59:17.005Z</time></trkpt><trkpt lat="40.120571794187555" lon="9.228956193302357"><ele>768.6666666666666</ele><time>2026-04-30T06:59:18.005Z</time></trkpt><trkpt lat="40.120542693979296" lon="9.229226421212408"><ele>770.3333333333333</ele><time>2026-04-30T06:59:19.005Z</time></trkpt><trkpt lat="40.120539367180186" lon="9.229496082600088"><ele>772.0</ele><time>2026-04-30T06:59:20.005Z</time></trkpt><trkpt lat="40.12057148488227" lon="9.229762858534528"><ele>772.6666666666666</ele><time>2026-04-30T06:59:21.005Z</time></trkpt><trkpt lat="40.12062201488862" lon="9.230000205432015"><ele>773.3333333333333</ele><time>2026-04-30T06:59:22.005Z</time></trkpt><trkpt lat="40.12066520093892" lon="9.230224762214226"><ele>774.0</ele><time>2026-04-30T06:59:23.005Z</time></trkpt><trkpt lat="40.12070884940626" lon="9.230430662052386"><ele>774.0</ele><time>2026-04-30T06:59:24.005Z</time></trkpt><trkpt lat="40.12072478293178" lon="9.230620730304313"><ele>774.0</ele><time>2026-04-30T06:59:25.005Z</time></trkpt><trkpt lat="40.12068945585489" lon="9.230783004205815"><ele>774.0</ele><time>2026-04-30T06:59:26.005Z</time></trkpt><trkpt lat="40.12059062501737" lon="9.230900631190257"><ele>774.0</ele><time>2026-04-30T06:59:27.005Z</time></trkpt><trkpt lat="40.12046697504414" lon="9.230972741210735"><ele>775.5</ele><time>2026-04-30T06:59:28.005Z</time></trkpt><trkpt lat="40.12036948310239" lon="9.231090476438567"><ele>777.0</ele><time>2026-04-30T06:59:29.005Z</time></trkpt><trkpt lat="40.12032205515549" lon="9.231263682603908"><ele>778.5</ele><time>2026-04-30T06:59:30.005Z</time></trkpt><trkpt lat="40.1203222182323" lon="9.231449030570477"><ele>780.0</ele><time>2026-04-30T06:59:31.005Z</time></trkpt><trkpt lat="40.12038052583188" lon="9.23163357624109"><ele>782.6666666666667</ele><time>2026-04-30T06:59:32.005Z</time></trkpt><trkpt lat="40.120460199553975" lon="9.231813068181909"><ele>785.3333333333334</ele><time>2026-04-30T06:59:33.005Z</time></trkpt><trkpt lat="40.120541348309985" lon="9.232002157169566"><ele>788.0</ele><time>2026-04-30T06:59:34.005Z</time></trkpt><trkpt lat="40.120605615751856" lon="9.232202651352466"><ele>791.0</ele><time>2026-04-30T06:59:35.005Z</time></trkpt><trkpt lat="40.12064289596349" lon="9.232419762939976"><ele>794.0</ele><time>2026-04-30T06:59:36.005Z</time></trkpt><trkpt lat="40.120626815988665" lon="9.232639038533504"><ele>797.0</ele><time>2026-04-30T06:59:37.005Z</time></trkpt><trkpt lat="40.120588698297034" lon="9.232860677874577"><ele>797.0</ele><time>2026-04-30T06:59:38.005Z</time></trkpt><trkpt lat="40.120546451037555" lon="9.233093403031447"><ele>797.0</ele><time>2026-04-30T06:59:39.005Z</time></trkpt><trkpt lat="40.12052605915387" lon="9.233335501590481"><ele>797.0</ele><time>2026-04-30T06:59:40.005Z</time></trkpt><trkpt lat="40.12054124470687" lon="9.233578064080648"><ele>798.6666666666667</ele><time>2026-04-30T06:59:41.005Z</time></trkpt><trkpt lat="40.120598592225036" lon="9.233818486439006"><ele>800.3333333333333</ele><time>2026-04-30T06:59:42.005Z</time></trkpt><trkpt lat="40.12067885122861" lon="9.234041904936864"><ele>802.0</ele><time>2026-04-30T06:59:43.005Z</time></trkpt><trkpt lat="40.12076342073811" lon="9.234275585923319"><ele>802.6666666666666</ele><time>2026-04-30T06:59:44.005Z</time></trkpt><trkpt lat="40.120847672414065" lon="9.234511790384401"><ele>803.3333333333333</ele><time>2026-04-30T06:59:45.005Z</time></trkpt><trkpt lat="40.120922457871615" lon="9.234730387609172"><ele>804.0</ele><time>2026-04-30T06:59:46.005Z</time></trkpt><trkpt lat="40.12098992120817" lon="9.234932800574168"><ele>805.25</ele><time>2026-04-30T06:59:47.005Z</time></trkpt><trkpt lat="40.12105008827557" lon="9.235115572082252"><ele>806.5</ele><time>2026-04-30T06:59:48.005Z</time></trkpt><trkpt lat="40.12109527596928" lon="9.235272957084774"><ele>807.75</ele><time>2026-04-30T06:59:49.005Z</time></trkpt><trkpt lat="40.12111312885461" lon="9.23542424193226"><ele>809.0</ele><time>2026-04-30T06:59:50.005Z</time></trkpt><trkpt lat="40.12106371885778" lon="9.235550048629591"><ele>809.0</ele><time>2026-04-30T06:59:51.005Z</time></trkpt><trkpt lat="40.120970271439425" lon="9.235610296700129"><ele>809.0</ele><time>2026-04-30T06:59:52.005Z</time></trkpt><trkpt lat="40.12086511093919" lon="9.235580466795126"><ele>809.0</ele><time>2026-04-30T06:59:53.005Z</time></trkpt><trkpt lat="40.12078769174777" lon="9.235466955315536"><ele>809.0</ele><time>2026-04-30T06:59:54.005Z</time></trkpt><trkpt lat="40.12074874146688" lon="9.235318465977416"><ele>809.0</ele><time>2026-04-30T06:59:55.005Z</time></trkpt><trkpt lat="40.12070154208119" lon="9.235174127308527"><ele>810.75</ele><time>2026-04-30T06:59:56.005Z</time></trkpt><trkpt lat="40.12063428589491" lon="9.235048096199064"><ele>812.5</ele><time>2026-04-30T06:59:57.005Z</time></trkpt><trkpt lat="40.12054180811976" lon="9.234948350924022"><ele>814.25</ele><time>2026-04-30T06:59:58.005Z</time></trkpt><trkpt lat="40.120426694725005" lon="9.234889598260988"><ele>816.0</ele><time>2026-04-30T06:59:59.005Z</time></trkpt><trkpt lat="40.12030256934838" lon="9.234878925258421"><ele>816.0</ele><time>2026-04-30T07:00:00.005Z</time></trkpt><trkpt lat="40.12017446923769" lon="9.234904142507446"><ele>816.0</ele><time>2026-04-30T07:00:01.005Z</time></trkpt><trkpt lat="40.120048644131536" lon="9.234926029641292"><ele>816.0</ele><time>2026-04-30T07:00:02.005Z</time></trkpt><trkpt lat="40.119919692022904" lon="9.234949292977824"><ele>816.0</ele><time>2026-04-30T07:00:03.005Z</time></trkpt><trkpt lat="40.11978798008884" lon="9.234963506117467"><ele>818.75</ele><time>2026-04-30T07:00:04.005Z</time></trkpt><trkpt lat="40.119654473276036" lon="9.234979571215781"><ele>821.5</ele><time>2026-04-30T07:00:05.005Z</time></trkpt><trkpt lat="40.11952550708183" lon="9.234984808670792"><ele>824.25</ele><time>2026-04-30T07:00:06.005Z</time></trkpt><trkpt lat="40.119392629963016" lon="9.234980265528938"><ele>827.0</ele><time>2026-04-30T07:00:07.005Z</time></trkpt><trkpt lat="40.1192619713521" lon="9.234952144976525"><ele>827.0</ele><time>2026-04-30T07:00:08.005Z</time></trkpt><trkpt lat="40.119130674682005" lon="9.23486889076705"><ele>827.0</ele><time>2026-04-30T07:00:09.005Z</time></trkpt><trkpt lat="40.11901659587705" lon="9.234740116327684"><ele>827.0</ele><time>2026-04-30T07:00:10.005Z</time></trkpt><trkpt lat="40.118915282318994" lon="9.234579782465481"><ele>827.6666666666667</ele><time>2026-04-30T07:00:11.005Z</time></trkpt><trkpt lat="40.11882402299416" lon="9.234401871688952"><ele>828.3333333333333</ele><time>2026-04-30T07:00:12.005Z</time></trkpt><trkpt lat="40.11872747510041" lon="9.234235047857606"><ele>829.0</ele><time>2026-04-30T07:00:13.005Z</time></trkpt><trkpt lat="40.11864645407034" lon="9.234102992434016"><ele>829.0</ele><time>2026-04-30T07:00:14.005Z</time></trkpt><trkpt lat="40.118569188714794" lon="9.234010263945162"><ele>829.0</ele><time>2026-04-30T07:00:15.005Z</time></trkpt><trkpt lat="40.11846793188495" lon="9.233982758057659"><ele>829.0</ele><time>2026-04-30T07:00:16.005Z</time></trkpt><trkpt lat="40.11837002849082" lon="9.234035479157008"><ele>829.0</ele><time>2026-04-30T07:00:17.005Z</time></trkpt><trkpt lat="40.11830563732569" lon="9.234153893623661"><ele>829.0</ele><time>2026-04-30T07:00:18.005Z</time></trkpt><trkpt lat="40.11829778155548" lon="9.23430019133588"><ele>829.0</ele><time>2026-04-30T07:00:19.005Z</time></trkpt><trkpt lat="40.11835338948964" lon="9.234450376538568"><ele>829.0</ele><time>2026-04-30T07:00:20.005Z</time></trkpt><trkpt lat="40.11842711211798" lon="9.234601476281654"><ele>829.0</ele><time>2026-04-30T07:00:21.005Z</time></trkpt><trkpt lat="40.11849640908435" lon="9.234757593974846"><ele>829.0</ele><time>2026-04-30T07:00:22.005Z</time></trkpt><trkpt lat="40.11856286265146" lon="9.234919429124893"><ele>833.0</ele><time>2026-04-30T07:00:23.005Z</time></trkpt><trkpt lat="40.1186307674824" lon="9.235092470930198"><ele>837.0</ele><time>2026-04-30T07:00:24.005Z</time></trkpt><trkpt lat="40.118698761839234" lon="9.235272859473415"><ele>841.0</ele><time>2026-04-30T07:00:25.005Z</time></trkpt><trkpt lat="40.11877788607799" lon="9.235435181790239"><ele>841.0</ele><time>2026-04-30T07:00:26.005Z</time></trkpt><trkpt lat="40.11889984756502" lon="9.235554843189442"><ele>841.0</ele><time>2026-04-30T07:00:27.005Z</time></trkpt><trkpt lat="40.11903206495829" lon="9.235624886228388"><ele>841.0</ele><time>2026-04-30T07:00:28.005Z</time></trkpt><trkpt lat="40.119152094672074" lon="9.235726916984994"><ele>841.0</ele><time>2026-04-30T07:00:29.005Z</time></trkpt><trkpt lat="40.11922527038914" lon="9.235893588118994"><ele>840.25</ele><time>2026-04-30T07:00:30.005Z</time></trkpt><trkpt lat="40.11928344233116" lon="9.236074719504215"><ele>839.5</ele><time>2026-04-30T07:00:31.005Z</time></trkpt><trkpt lat="40.119330109633836" lon="9.23623799758206"><ele>838.75</ele><time>2026-04-30T07:00:32.005Z</time></trkpt><trkpt lat="40.11937075663746" lon="9.236412194713713"><ele>838.0</ele><time>2026-04-30T07:00:33.005Z</time></trkpt><trkpt lat="40.119400473361786" lon="9.236572238417166"><ele>840.0</ele><time>2026-04-30T07:00:34.005Z</time></trkpt><trkpt lat="40.119368162041326" lon="9.236741835618865"><ele>842.0</ele><time>2026-04-30T07:00:35.005Z</time></trkpt><trkpt lat="40.11928347939591" lon="9.236854305575024"><ele>844.0</ele><time>2026-04-30T07:00:36.005Z</time></trkpt><trkpt lat="40.119167479549255" lon="9.236950942988656"><ele>846.0</ele><time>2026-04-30T07:00:37.005Z</time></trkpt><trkpt lat="40.11903183475078" lon="9.23703513123078"><ele>849.5</ele><time>2026-04-30T07:00:38.005Z</time></trkpt><trkpt lat="40.11889946213005" lon="9.237121156718556"><ele>853.0</ele><time>2026-04-30T07:00:39.005Z</time></trkpt><trkpt lat="40.118793385513335" lon="9.237205099457729"><ele>856.5</ele><time>2026-04-30T07:00:40.005Z</time></trkpt><trkpt lat="40.11871902028734" lon="9.237314821118908"><ele>860.0</ele><time>2026-04-30T07:00:41.005Z</time></trkpt><trkpt lat="40.1187030732891" lon="9.237458241796572"><ele>860.75</ele><time>2026-04-30T07:00:42.005Z</time></trkpt><trkpt lat="40.118750851476015" lon="9.237601702857296"><ele>861.5</ele><time>2026-04-30T07:00:43.005Z</time></trkpt><trkpt lat="40.118856012582846" lon="9.237702539629192"><ele>862.25</ele><time>2026-04-30T07:00:44.005Z</time></trkpt><trkpt lat="40.11898499777722" lon="9.237730736810217"><ele>863.0</ele><time>2026-04-30T07:00:45.005Z</time></trkpt><trkpt lat="40.119123186366224" lon="9.237728822361447"><ele>859.5</ele><time>2026-04-30T07:00:46.005Z</time></trkpt><trkpt lat="40.11926028762713" lon="9.237740748898986"><ele>856.0</ele><time>2026-04-30T07:00:47.005Z</time></trkpt><trkpt lat="40.11939431306182" lon="9.237770268970712"><ele>852.5</ele><time>2026-04-30T07:00:48.005Z</time></trkpt><trkpt lat="40.11952715628455" lon="9.237807703649873"><ele>849.0</ele><time>2026-04-30T07:00:49.005Z</time></trkpt><trkpt lat="40.11965650932959" lon="9.237870289289456"><ele>849.0</ele><time>2026-04-30T07:00:50.005Z</time></trkpt><trkpt lat="40.11978281161956" lon="9.237951053347745"><ele>849.0</ele><time>2026-04-30T07:00:51.005Z</time></trkpt><trkpt lat="40.11991356475388" lon="9.238042578120293"><ele>849.0</ele><time>2026-04-30T07:00:52.005Z</time></trkpt><trkpt lat="40.12005845207511" lon="9.238156146669313"><ele>853.6666666666667</ele><time>2026-04-30T07:00:53.005Z</time></trkpt><trkpt lat="40.120205835851905" lon="9.238293645558567"><ele>858.3333333333334</ele><time>2026-04-30T07:00:54.005Z</time></trkpt><trkpt lat="40.12035891387649" lon="9.238443424573365"><ele>863.0</ele><time>2026-04-30T07:00:55.005Z</time></trkpt><trkpt lat="40.12051925535148" lon="9.238598128803341"><ele>863.0</ele><time>2026-04-30T07:00:56.005Z</time></trkpt><trkpt lat="40.12067039506786" lon="9.238754030840816"><ele>863.0</ele><time>2026-04-30T07:00:57.005Z</time></trkpt><trkpt lat="40.12081716502872" lon="9.238897748265197"><ele>863.0</ele><time>2026-04-30T07:00:58.005Z</time></trkpt><trkpt lat="40.12096231930561" lon="9.239037039839296"><ele>867.0</ele><time>2026-04-30T07:00:59.006Z</time></trkpt><trkpt lat="40.121094373003096" lon="9.239168244142943"><ele>871.0</ele><time>2026-04-30T07:01:00.006Z</time></trkpt><trkpt lat="40.121224005683395" lon="9.239285879213883"><ele>875.0</ele><time>2026-04-30T07:01:01.006Z</time></trkpt><trkpt lat="40.121337185567114" lon="9.23941088850069"><ele>875.0</ele><time>2026-04-30T07:01:02.006Z</time></trkpt><trkpt lat="40.12145248567094" lon="9.239523125969331"><ele>875.0</ele><time>2026-04-30T07:01:03.006Z</time></trkpt><trkpt lat="40.121580923691596" lon="9.23961781910984"><ele>875.0</ele><time>2026-04-30T07:01:04.006Z</time></trkpt><trkpt lat="40.12169644556082" lon="9.23969897663378"><ele>875.0</ele><time>2026-04-30T07:01:05.006Z</time></trkpt><trkpt lat="40.121820734340865" lon="9.23980122328352"><ele>877.0</ele><time>2026-04-30T07:01:06.006Z</time></trkpt><trkpt lat="40.12194853357736" lon="9.239915885043708"><ele>879.0</ele><time>2026-04-30T07:01:07.006Z</time></trkpt><trkpt lat="40.12210220375565" lon="9.240028995543325"><ele>881.0</ele><time>2026-04-30T07:01:08.006Z</time></trkpt><trkpt lat="40.12224374808854" lon="9.240143326044366"><ele>881.0</ele><time>2026-04-30T07:01:09.006Z</time></trkpt><trkpt lat="40.12237047446388" lon="9.240242306978843"><ele>881.0</ele><time>2026-04-30T07:01:10.006Z</time></trkpt><trkpt lat="40.12247634430708" lon="9.24034352793214"><ele>881.0</ele><time>2026-04-30T07:01:11.006Z</time></trkpt><trkpt lat="40.12255318369104" lon="9.240469136956495"><ele>881.0</ele><time>2026-04-30T07:01:12.006Z</time></trkpt><trkpt lat="40.12260046709193" lon="9.240622989673247"><ele>881.5</ele><time>2026-04-30T07:01:13.006Z</time></trkpt><trkpt lat="40.12262789776378" lon="9.240788805872807"><ele>882.0</ele><time>2026-04-30T07:01:14.006Z</time></trkpt><trkpt lat="40.12264532350645" lon="9.240961120583364"><ele>882.5</ele><time>2026-04-30T07:01:15.006Z</time></trkpt><trkpt lat="40.12269480595368" lon="9.241117780899753"><ele>883.0</ele><time>2026-04-30T07:01:16.006Z</time></trkpt><trkpt lat="40.12279712310624" lon="9.241232877895994"><ele>883.0</ele><time>2026-04-30T07:01:17.006Z</time></trkpt><trkpt lat="40.12291991542749" lon="9.241277017043547"><ele>883.0</ele><time>2026-04-30T07:01:18.006Z</time></trkpt><trkpt lat="40.12305500114799" lon="9.241291398625085"><ele>883.0</ele><time>2026-04-30T07:01:19.006Z</time></trkpt><trkpt lat="40.1231935580927" lon="9.24131306664506"><ele>883.0</ele><time>2026-04-30T07:01:20.006Z</time></trkpt><trkpt lat="40.12333394845297" lon="9.241341769099341"><ele>881.0</ele><time>2026-04-30T07:01:21.006Z</time></trkpt><trkpt lat="40.123472509730504" lon="9.24137521546641"><ele>879.0</ele><time>2026-04-30T07:01:22.006Z</time></trkpt><trkpt lat="40.12362033341396" lon="9.241415557467645"><ele>877.0</ele><time>2026-04-30T07:01:23.006Z</time></trkpt><trkpt lat="40.123769788227804" lon="9.241462333768181"><ele>875.0</ele><time>2026-04-30T07:01:24.006Z</time></trkpt><trkpt lat="40.12392714751178" lon="9.24149137415058"><ele>877.3333333333334</ele><time>2026-04-30T07:01:25.006Z</time></trkpt><trkpt lat="40.12408370369883" lon="9.241494045020387"><ele>879.6666666666667</ele><time>2026-04-30T07:01:26.006Z</time></trkpt><trkpt lat="40.12424173992515" lon="9.241463618584499"><ele>882.0</ele><time>2026-04-30T07:01:27.006Z</time></trkpt><trkpt lat="40.12439666215693" lon="9.24140118686021"><ele>882.0</ele><time>2026-04-30T07:01:28.006Z</time></trkpt><trkpt lat="40.12454766473006" lon="9.241345662189946"><ele>882.0</ele><time>2026-04-30T07:01:29.006Z</time></trkpt><trkpt lat="40.12468189292628" lon="9.241293082733032"><ele>882.0</ele><time>2026-04-30T07:01:30.006Z</time></trkpt><trkpt lat="40.12480377637768" lon="9.24122518436942"><ele>882.0</ele><time>2026-04-30T07:01:31.006Z</time></trkpt><trkpt lat="40.12489131641004" lon="9.241095269781459"><ele>880.75</ele><time>2026-04-30T07:01:32.006Z</time></trkpt><trkpt lat="40.12495869930972" lon="9.240921378179864"><ele>879.5</ele><time>2026-04-30T07:01:33.006Z</time></trkpt><trkpt lat="40.12502590014104" lon="9.240748063555529"><ele>878.25</ele><time>2026-04-30T07:01:34.006Z</time></trkpt><trkpt lat="40.125114638944666" lon="9.240611453099634"><ele>877.0</ele><time>2026-04-30T07:01:35.006Z</time></trkpt><trkpt lat="40.125240708669295" lon="9.240565967664763"><ele>877.0</ele><time>2026-04-30T07:01:36.006Z</time></trkpt><trkpt lat="40.12538400369766" lon="9.240574361766468"><ele>877.0</ele><time>2026-04-30T07:01:37.006Z</time></trkpt><trkpt lat="40.125534725243355" lon="9.24060171753986"><ele>877.0</ele><time>2026-04-30T07:01:38.006Z</time></trkpt><trkpt lat="40.12566828370457" lon="9.24065502837824"><ele>877.0</ele><time>2026-04-30T07:01:39.006Z</time></trkpt><trkpt lat="40.12575768270473" lon="9.24076399049318"><ele>881.25</ele><time>2026-04-30T07:01:40.006Z</time></trkpt><trkpt lat="40.12578838026861" lon="9.240912763737214"><ele>885.5</ele><time>2026-04-30T07:01:41.006Z</time></trkpt><trkpt lat="40.12573390601781" lon="9.241054346969138"><ele>889.75</ele><time>2026-04-30T07:01:42.006Z</time></trkpt><trkpt lat="40.125626518091714" lon="9.241138611581071"><ele>894.0</ele><time>2026-04-30T07:01:43.006Z</time></trkpt><trkpt lat="40.12548182757716" lon="9.241138108205586"><ele>894.0</ele><time>2026-04-30T07:01:44.006Z</time></trkpt><trkpt lat="40.125342762363395" lon="9.241114241282297"><ele>894.0</ele><time>2026-04-30T07:01:45.006Z</time></trkpt><trkpt lat="40.12520967819029" lon="9.241105703137388"><ele>894.0</ele><time>2026-04-30T07:01:46.006Z</time></trkpt><trkpt lat="40.12509070443146" lon="9.24117403212616"><ele>894.0</ele><time>2026-04-30T07:01:47.006Z</time></trkpt><trkpt lat="40.12499997432737" lon="9.24130649984173"><ele>894.0</ele><time>2026-04-30T07:01:48.006Z</time></trkpt><trkpt lat="40.12491269006823" lon="9.241459154469833"><ele>894.0</ele><time>2026-04-30T07:01:49.006Z</time></trkpt><trkpt lat="40.124803329835785" lon="9.241595264414395"><ele>894.0</ele><time>2026-04-30T07:01:50.006Z</time></trkpt><trkpt lat="40.12467711602644" lon="9.241706172220145"><ele>894.0</ele><time>2026-04-30T07:01:51.006Z</time></trkpt><trkpt lat="40.12454057964193" lon="9.24180743308195"><ele>895.0</ele><time>2026-04-30T07:01:52.006Z</time></trkpt><trkpt lat="40.124392917461094" lon="9.241902925530763"><ele>896.0</ele><time>2026-04-30T07:01:53.006Z</time></trkpt><trkpt lat="40.124242419957845" lon="9.242000552415233"><ele>897.0</ele><time>2026-04-30T07:01:54.006Z</time></trkpt><trkpt lat="40.124084833914004" lon="9.242089796445768"><ele>895.6666666666667</ele><time>2026-04-30T07:01:55.006Z</time></trkpt><trkpt lat="40.12392788572497" lon="9.242181170063033"><ele>894.3333333333334</ele><time>2026-04-30T07:01:56.006Z</time></trkpt><trkpt lat="40.123765658726064" lon="9.24227339266854"><ele>893.0</ele><time>2026-04-30T07:01:57.006Z</time></trkpt><trkpt lat="40.12360483915106" lon="9.242403259452008"><ele>898.6666666666667</ele><time>2026-04-30T07:01:58.006Z</time></trkpt><trkpt lat="40.12344263012971" lon="9.242536759930594"><ele>904.3333333333333</ele><time>2026-04-30T07:01:59.006Z</time></trkpt><trkpt lat="40.12327983470913" lon="9.242620501287954"><ele>910.0</ele><time>2026-04-30T07:02:00.006Z</time></trkpt><trkpt lat="40.123116327142384" lon="9.242636625380618"><ele>910.6666666666666</ele><time>2026-04-30T07:02:01.006Z</time></trkpt><trkpt lat="40.122960309100144" lon="9.242597601187956"><ele>911.3333333333333</ele><time>2026-04-30T07:02:02.006Z</time></trkpt><trkpt lat="40.12278910746391" lon="9.242576111096858"><ele>912.0</ele><time>2026-04-30T07:02:03.006Z</time></trkpt><trkpt lat="40.12261878802454" lon="9.24255913379485"><ele>912.0</ele><time>2026-04-30T07:02:04.006Z</time></trkpt><trkpt lat="40.12244484793537" lon="9.242541217859857"><ele>912.0</ele><time>2026-04-30T07:02:05.006Z</time></trkpt><trkpt lat="40.12227907535871" lon="9.242513402735396"><ele>912.0</ele><time>2026-04-30T07:02:06.006Z</time></trkpt><trkpt lat="40.122113459629425" lon="9.242462117157473"><ele>910.6666666666667</ele><time>2026-04-30T07:02:07.006Z</time></trkpt><trkpt lat="40.12195998778699" lon="9.242410135784256"><ele>909.3333333333334</ele><time>2026-04-30T07:02:08.006Z</time></trkpt><trkpt lat="40.12180414987439" lon="9.24234708045727"><ele>908.0</ele><time>2026-04-30T07:02:09.006Z</time></trkpt><trkpt lat="40.12164992739092" lon="9.242272453135234"><ele>914.0</ele><time>2026-04-30T07:02:10.006Z</time></trkpt><trkpt lat="40.12150186285828" lon="9.242175688029292"><ele>920.0</ele><time>2026-04-30T07:02:11.006Z</time></trkpt><trkpt lat="40.12134751046794" lon="9.24207363770619"><ele>926.0</ele><time>2026-04-30T07:02:12.006Z</time></trkpt><trkpt lat="40.12118787315363" lon="9.241978517163414"><ele>926.0</ele><time>2026-04-30T07:02:13.006Z</time></trkpt><trkpt lat="40.121038777385714" lon="9.241877952921843"><ele>926.0</ele><time>2026-04-30T07:02:14.006Z</time></trkpt><trkpt lat="40.120928259943895" lon="9.24175896337519"><ele>926.0</ele><time>2026-04-30T07:02:15.006Z</time></trkpt><trkpt lat="40.120845043799385" lon="9.241631415651968"><ele>926.0</ele><time>2026-04-30T07:02:16.006Z</time></trkpt><trkpt lat="40.12076982366213" lon="9.241502561292792"><ele>928.5999999999999</ele><time>2026-04-30T07:02:17.006Z</time></trkpt><trkpt lat="40.120688194864435" lon="9.241422992796505"><ele>931.1999999999999</ele><time>2026-04-30T07:02:18.006Z</time></trkpt><trkpt lat="40.12059497215422" lon="9.241421653319373"><ele>933.8000000000001</ele><time>2026-04-30T07:02:19.006Z</time></trkpt><trkpt lat="40.12052781053695" lon="9.241501482538801"><ele>936.4000000000001</ele><time>2026-04-30T07:02:20.006Z</time></trkpt><trkpt lat="40.12051609798807" lon="9.24161822839324"><ele>939.0</ele><time>2026-04-30T07:02:21.006Z</time></trkpt><trkpt lat="40.12055090922104" lon="9.241725658528614"><ele>941.0</ele><time>2026-04-30T07:02:22.006Z</time></trkpt><trkpt lat="40.120600132543075" lon="9.241814150359728"><ele>943.0000000000001</ele><time>2026-04-30T07:02:23.006Z</time></trkpt><trkpt lat="40.120665504231155" lon="9.2419150352931"><ele>945.0000000000001</ele><time>2026-04-30T07:02:24.006Z</time></trkpt><trkpt lat="40.120726499597694" lon="9.2420229019291"><ele>947.0</ele><time>2026-04-30T07:02:25.006Z</time></trkpt><trkpt lat="40.12078232709184" lon="9.24214926390816"><ele>949.0</ele><time>2026-04-30T07:02:26.006Z</time></trkpt><trkpt lat="40.120856661303904" lon="9.242288239714503"><ele>946.0</ele><time>2026-04-30T07:02:27.006Z</time></trkpt><trkpt lat="40.12093188050171" lon="9.242440191152857"><ele>943.0</ele><time>2026-04-30T07:02:28.006Z</time></trkpt><trkpt lat="40.121010308662676" lon="9.242605371055005"><ele>940.0</ele><time>2026-04-30T07:02:29.006Z</time></trkpt><trkpt lat="40.12109599726289" lon="9.242777936758682"><ele>937.0</ele><time>2026-04-30T07:02:30.006Z</time></trkpt><trkpt lat="40.12118317035165" lon="9.242949307817605"><ele>937.0</ele><time>2026-04-30T07:02:31.006Z</time></trkpt><trkpt lat="40.12125721817691" lon="9.243106086952148"><ele>937.0</ele><time>2026-04-30T07:02:32.006Z</time></trkpt><trkpt lat="40.121313121020066" lon="9.243251716543206"><ele>937.0</ele><time>2026-04-30T07:02:33.006Z</time></trkpt><trkpt lat="40.12131501029656" lon="9.24339650741558"><ele>937.0</ele><time>2026-04-30T07:02:34.006Z</time></trkpt><trkpt lat="40.12125044615727" lon="9.243542927451612"><ele>939.0</ele><time>2026-04-30T07:02:35.006Z</time></trkpt><trkpt lat="40.12115232577176" lon="9.243671799195715"><ele>941.0</ele><time>2026-04-30T07:02:36.006Z</time></trkpt><trkpt lat="40.12105517058387" lon="9.243821260928218"><ele>943.0</ele><time>2026-04-30T07:02:37.006Z</time></trkpt><trkpt lat="40.12096091712373" lon="9.243973747592086"><ele>945.0</ele><time>2026-04-30T07:02:38.006Z</time></trkpt><trkpt lat="40.12087005413512" lon="9.244132392755214"><ele>945.5</ele><time>2026-04-30T07:02:39.006Z</time></trkpt><trkpt lat="40.120775449322785" lon="9.244279806006958"><ele>946.0</ele><time>2026-04-30T07:02:40.006Z</time></trkpt><trkpt lat="40.12073673924726" lon="9.244449697859512"><ele>946.5</ele><time>2026-04-30T07:02:41.006Z</time></trkpt><trkpt lat="40.12074892090248" lon="9.244635848515696"><ele>947.0</ele><time>2026-04-30T07:02:42.006Z</time></trkpt><trkpt lat="40.12078964611063" lon="9.244829749085612"><ele>948.75</ele><time>2026-04-30T07:02:43.006Z</time></trkpt><trkpt lat="40.12082820832791" lon="9.245020724453898"><ele>950.5</ele><time>2026-04-30T07:02:44.006Z</time></trkpt><trkpt lat="40.12086044384939" lon="9.245210762761939"><ele>952.25</ele><time>2026-04-30T07:02:45.006Z</time></trkpt><trkpt lat="40.120895579068836" lon="9.245396520354568"><ele>954.0</ele><time>2026-04-30T07:02:46.006Z</time></trkpt><trkpt lat="40.120926137142774" lon="9.245563124297814"><ele>954.6</ele><time>2026-04-30T07:02:47.006Z</time></trkpt><trkpt lat="40.12094954946589" lon="9.245712825401698"><ele>955.2</ele><time>2026-04-30T07:02:48.006Z</time></trkpt><trkpt lat="40.120949511062356" lon="9.245849749339522"><ele>955.8000000000001</ele><time>2026-04-30T07:02:49.006Z</time></trkpt><trkpt lat="40.120912115841016" lon="9.245973846614332"><ele>956.4000000000001</ele><time>2026-04-30T07:02:50.006Z</time></trkpt><trkpt lat="40.120854771974756" lon="9.246086055187869"><ele>957.0</ele><time>2026-04-30T07:02:51.006Z</time></trkpt><trkpt lat="40.120776711774624" lon="9.246187042361418"><ele>958.5</ele><time>2026-04-30T07:02:52.006Z</time></trkpt><trkpt lat="40.120682613524465" lon="9.246283447759374"><ele>960.0</ele><time>2026-04-30T07:02:53.006Z</time></trkpt><trkpt lat="40.12058808409508" lon="9.246369434205127"><ele>961.5</ele><time>2026-04-30T07:02:54.006Z</time></trkpt><trkpt lat="40.12048559171713" lon="9.24645481453197"><ele>963.0</ele><time>2026-04-30T07:02:55.006Z</time></trkpt><trkpt lat="40.12038057274693" lon="9.246543677545661"><ele>963.0</ele><time>2026-04-30T07:02:56.006Z</time></trkpt><trkpt lat="40.12027143247535" lon="9.2466317940936"><ele>963.0</ele><time>2026-04-30T07:02:57.006Z</time></trkpt><trkpt lat="40.12016042045786" lon="9.246715798469062"><ele>963.0</ele><time>2026-04-30T07:02:58.006Z</time></trkpt><trkpt lat="40.12004719211968" lon="9.246807194757961"><ele>963.0</ele><time>2026-04-30T07:02:59.006Z</time></trkpt><trkpt lat="40.11993382859119" lon="9.246898760763216"><ele>967.25</ele><time>2026-04-30T07:03:00.006Z</time></trkpt><trkpt lat="40.119821587733256" lon="9.246986092283572"><ele>971.5</ele><time>2026-04-30T07:03:01.006Z</time></trkpt><trkpt lat="40.11970311856315" lon="9.247072047403794"><ele>975.75</ele><time>2026-04-30T07:03:02.006Z</time></trkpt><trkpt lat="40.11958187835613" lon="9.247141288257097"><ele>980.0</ele><time>2026-04-30T07:03:03.007Z</time></trkpt><trkpt lat="40.11945256509169" lon="9.247176589695691"><ele>980.0</ele><time>2026-04-30T07:03:04.007Z</time></trkpt><trkpt lat="40.11932592425908" lon="9.247197677900404"><ele>980.0</ele><time>2026-04-30T07:03:05.007Z</time></trkpt><trkpt lat="40.119200379033316" lon="9.247220856917341"><ele>980.0</ele><time>2026-04-30T07:03:06.007Z</time></trkpt><trkpt lat="40.11907579126882" lon="9.2472413737185"><ele>980.0</ele><time>2026-04-30T07:03:07.007Z</time></trkpt><trkpt lat="40.118964483541106" lon="9.247269525613364"><ele>981.8</ele><time>2026-04-30T07:03:08.007Z</time></trkpt><trkpt lat="40.11887657125148" lon="9.247343995818925"><ele>983.6</ele><time>2026-04-30T07:03:09.007Z</time></trkpt><trkpt lat="40.118814187185194" lon="9.247456412752593"><ele>985.4000000000001</ele><time>2026-04-30T07:03:10.007Z</time></trkpt><trkpt lat="40.11877606773116" lon="9.247593232070633"><ele>987.2</ele><time>2026-04-30T07:03:11.007Z</time></trkpt><trkpt lat="40.118757356951185" lon="9.247749499531738"><ele>989.0</ele><time>2026-04-30T07:03:12.007Z</time></trkpt><trkpt lat="40.11874084143418" lon="9.247911107206729"><ele>989.0</ele><time>2026-04-30T07:03:13.007Z</time></trkpt><trkpt lat="40.118736659015376" lon="9.248083255416796"><ele>989.0</ele><time>2026-04-30T07:03:14.007Z</time></trkpt><trkpt lat="40.11872315626936" lon="9.248252191803097"><ele>989.0</ele><time>2026-04-30T07:03:15.007Z</time></trkpt><trkpt lat="40.11871096666996" lon="9.248416719842952"><ele>989.0</ele><time>2026-04-30T07:03:16.007Z</time></trkpt><trkpt lat="40.1187037146894" lon="9.248564763614025"><ele>988.2</ele><time>2026-04-30T07:03:17.007Z</time></trkpt><trkpt lat="40.11869108151272" lon="9.248699729288228"><ele>987.4000000000001</ele><time>2026-04-30T07:03:18.007Z</time></trkpt><trkpt lat="40.11868493414604" lon="9.248817108558914"><ele>986.6</ele><time>2026-04-30T07:03:19.007Z</time></trkpt><trkpt lat="40.11867936785356" lon="9.248919132781241"><ele>985.8</ele><time>2026-04-30T07:03:20.007Z</time></trkpt><trkpt lat="40.11868165466519" lon="9.24904473447121"><ele>985.0</ele><time>2026-04-30T07:03:21.007Z</time></trkpt><trkpt lat="40.11867426059503" lon="9.249169942729026"><ele>984.6</ele><time>2026-04-30T07:03:22.007Z</time></trkpt><trkpt lat="40.118650135000635" lon="9.249300574173246"><ele>984.2</ele><time>2026-04-30T07:03:23.007Z</time></trkpt><trkpt lat="40.11861233170454" lon="9.24942727141425"><ele>983.8</ele><time>2026-04-30T07:03:24.007Z</time></trkpt><trkpt lat="40.118563830402046" lon="9.249544161722422"><ele>983.4</ele><time>2026-04-30T07:03:25.007Z</time></trkpt><trkpt lat="40.11852232237749" lon="9.2496564803216"><ele>983.0</ele><time>2026-04-30T07:03:26.007Z</time></trkpt><trkpt lat="40.11848010045375" lon="9.249761551461324"><ele>983.4</ele><time>2026-04-30T07:03:27.007Z</time></trkpt><trkpt lat="40.118434099119106" lon="9.249862138565428"><ele>983.8</ele><time>2026-04-30T07:03:28.007Z</time></trkpt><trkpt lat="40.11840145907828" lon="9.249966254810374"><ele>984.2</ele><time>2026-04-30T07:03:29.007Z</time></trkpt><trkpt lat="40.11837891953118" lon="9.250075870119927"><ele>984.6</ele><time>2026-04-30T07:03:30.007Z</time></trkpt><trkpt lat="40.11839089985449" lon="9.25027499502941"><ele>985.0</ele><time>2026-04-30T07:03:32.007Z</time></trkpt><trkpt lat="40.118430222519414" lon="9.250339880178696"><ele>984.9999999999999</ele><time>2026-04-30T07:03:33.007Z</time></trkpt><trkpt lat="40.11852103976793" lon="9.250344227131398"><ele>985.0</ele><time>2026-04-30T07:03:35.007Z</time></trkpt><trkpt lat="40.11864367409515" lon="9.25036415513607"><ele>985.0</ele><time>2026-04-30T07:03:37.007Z</time></trkpt><trkpt lat="40.11871444614754" lon="9.2503746515536"><ele>985.0</ele><time>2026-04-30T07:03:38.007Z</time></trkpt><trkpt lat="40.11878926118898" lon="9.250392454367622"><ele>984.9999999999999</ele><time>2026-04-30T07:03:39.007Z</time></trkpt><trkpt lat="40.11886748160888" lon="9.250422011282668"><ele>985.0</ele><time>2026-04-30T07:03:40.007Z</time></trkpt><trkpt lat="40.11893916287365" lon="9.250471746171204"><ele>984.9999999999999</ele><time>2026-04-30T07:03:41.007Z</time></trkpt><trkpt lat="40.11901165648226" lon="9.250520029749188"><ele>985.0</ele><time>2026-04-30T07:03:42.007Z</time></trkpt><trkpt lat="40.119089588114626" lon="9.250565228590757"><ele>985.0</ele><time>2026-04-30T07:03:43.007Z</time></trkpt><trkpt lat="40.11917041347847" lon="9.250610800408804"><ele>985.0</ele><time>2026-04-30T07:03:44.007Z</time></trkpt><trkpt lat="40.1192511443172" lon="9.250662631161163"><ele>984.9999999999999</ele><time>2026-04-30T07:03:45.007Z</time></trkpt><trkpt lat="40.119335881200996" lon="9.2507177262372"><ele>985.0</ele><time>2026-04-30T07:03:46.007Z</time></trkpt><trkpt lat="40.11942124310097" lon="9.250781787396106"><ele>984.1666666666666</ele><time>2026-04-30T07:03:47.007Z</time></trkpt><trkpt lat="40.119502165689184" lon="9.250848864514328"><ele>983.3333333333333</ele><time>2026-04-30T07:03:48.007Z</time></trkpt><trkpt lat="40.11957646468031" lon="9.250910608970555"><ele>982.5</ele><time>2026-04-30T07:03:49.007Z</time></trkpt><trkpt lat="40.119649884446034" lon="9.250965283388291"><ele>981.6666666666667</ele><time>2026-04-30T07:03:50.007Z</time></trkpt><trkpt lat="40.11971763555997" lon="9.251018740721912"><ele>980.8333333333334</ele><time>2026-04-30T07:03:51.007Z</time></trkpt><trkpt lat="40.119785439704245" lon="9.251075997110117"><ele>980.0</ele><time>2026-04-30T07:03:52.007Z</time></trkpt><trkpt lat="40.11984734762797" lon="9.251129334581545"><ele>978.5000000000001</ele><time>2026-04-30T07:03:53.007Z</time></trkpt><trkpt lat="40.11990665471398" lon="9.251175636914292"><ele>977.0</ele><time>2026-04-30T07:03:54.007Z</time></trkpt><trkpt lat="40.119963983061794" lon="9.25122178942207"><ele>975.5</ele><time>2026-04-30T07:03:55.007Z</time></trkpt><trkpt lat="40.12002866150437" lon="9.2512714395887"><ele>974.0</ele><time>2026-04-30T07:03:56.007Z</time></trkpt><trkpt lat="40.12010308457408" lon="9.251327429507413"><ele>972.5000000000001</ele><time>2026-04-30T07:03:57.007Z</time></trkpt><trkpt lat="40.1201755467903" lon="9.251394927385132"><ele>971.0</ele><time>2026-04-30T07:03:58.007Z</time></trkpt><trkpt lat="40.12025658578921" lon="9.251449570449"><ele>972.0000000000001</ele><time>2026-04-30T07:03:59.007Z</time></trkpt><trkpt lat="40.120340528671086" lon="9.251498482818896"><ele>973.0</ele><time>2026-04-30T07:04:00.007Z</time></trkpt><trkpt lat="40.12042136530014" lon="9.251546493210236"><ele>974.0</ele><time>2026-04-30T07:04:01.007Z</time></trkpt><trkpt lat="40.12050205077062" lon="9.251588388948504"><ele>975.0</ele><time>2026-04-30T07:04:02.007Z</time></trkpt><trkpt lat="40.1205821460573" lon="9.251635318493548"><ele>976.0000000000001</ele><time>2026-04-30T07:04:03.007Z</time></trkpt><trkpt lat="40.1206644634074" lon="9.251669314587044"><ele>977.0</ele><time>2026-04-30T07:04:04.007Z</time></trkpt><trkpt lat="40.120731195130645" lon="9.251718650828721"><ele>975.1666666666667</ele><time>2026-04-30T07:04:05.007Z</time></trkpt><trkpt lat="40.1208168624768" lon="9.251751048431226"><ele>973.3333333333334</ele><time>2026-04-30T07:04:06.007Z</time></trkpt><trkpt lat="40.1208989836901" lon="9.251776551216233"><ele>971.5</ele><time>2026-04-30T07:04:07.007Z</time></trkpt><trkpt lat="40.12099287395614" lon="9.251804866910767"><ele>969.6666666666667</ele><time>2026-04-30T07:04:08.007Z</time></trkpt><trkpt lat="40.1210745288819" lon="9.25183215208125"><ele>967.8333333333334</ele><time>2026-04-30T07:04:09.007Z</time></trkpt><trkpt lat="40.121160953792014" lon="9.251844742180642"><ele>966.0</ele><time>2026-04-30T07:04:10.007Z</time></trkpt><trkpt lat="40.12124560741281" lon="9.251882366152161"><ele>966.0</ele><time>2026-04-30T07:04:11.007Z</time></trkpt><trkpt lat="40.12134213714206" lon="9.251905104974734"><ele>965.9999999999999</ele><time>2026-04-30T07:04:12.007Z</time></trkpt><trkpt lat="40.121434828682865" lon="9.251924613139312"><ele>965.9999999999999</ele><time>2026-04-30T07:04:13.007Z</time></trkpt><trkpt lat="40.12153163304146" lon="9.251940114863956"><ele>966.0</ele><time>2026-04-30T07:04:14.007Z</time></trkpt><trkpt lat="40.12162606940275" lon="9.25196415374612"><ele>966.0</ele><time>2026-04-30T07:04:15.007Z</time></trkpt><trkpt lat="40.12171660760616" lon="9.251983009131996"><ele>965.0</ele><time>2026-04-30T07:04:16.007Z</time></trkpt><trkpt lat="40.121812440179546" lon="9.252020711438279"><ele>963.9999999999999</ele><time>2026-04-30T07:04:17.007Z</time></trkpt><trkpt lat="40.121914090006264" lon="9.252042114289909"><ele>962.9999999999999</ele><time>2026-04-30T07:04:18.007Z</time></trkpt><trkpt lat="40.12200917264799" lon="9.25207409667781"><ele>962.0</ele><time>2026-04-30T07:04:19.007Z</time></trkpt><trkpt lat="40.1221042044659" lon="9.252093844474782"><ele>961.0</ele><time>2026-04-30T07:04:20.007Z</time></trkpt><trkpt lat="40.122202558888546" lon="9.252126588166064"><ele>961.0</ele><time>2026-04-30T07:04:21.007Z</time></trkpt><trkpt lat="40.1223072887335" lon="9.252153213978598"><ele>960.9999999999999</ele><time>2026-04-30T07:04:22.007Z</time></trkpt><trkpt lat="40.12240643477912" lon="9.25217074075848"><ele>960.9999999999999</ele><time>2026-04-30T07:04:23.007Z</time></trkpt><trkpt lat="40.12249762221746" lon="9.252193482420955"><ele>961.0</ele><time>2026-04-30T07:04:24.007Z</time></trkpt><trkpt lat="40.12258396836666" lon="9.252234538871827"><ele>961.0</ele><time>2026-04-30T07:04:25.007Z</time></trkpt><trkpt lat="40.122645355397836" lon="9.252312545899517"><ele>962.0</ele><time>2026-04-30T07:04:26.007Z</time></trkpt><trkpt lat="40.12266431869289" lon="9.252416879349694"><ele>962.9999999999999</ele><time>2026-04-30T07:04:27.007Z</time></trkpt><trkpt lat="40.12264862801507" lon="9.252549470783356"><ele>963.9999999999999</ele><time>2026-04-30T07:04:28.007Z</time></trkpt><trkpt lat="40.12264522495179" lon="9.252684658415173"><ele>965.0</ele><time>2026-04-30T07:04:29.007Z</time></trkpt><trkpt lat="40.12264344414466" lon="9.2528289744429"><ele>966.0</ele><time>2026-04-30T07:04:30.007Z</time></trkpt><trkpt lat="40.12264569050776" lon="9.25297367076699"><ele>966.0</ele><time>2026-04-30T07:04:31.007Z</time></trkpt><trkpt lat="40.12264148943605" lon="9.253118373499706"><ele>966.0</ele><time>2026-04-30T07:04:32.007Z</time></trkpt><trkpt lat="40.12264115761476" lon="9.253264678279306"><ele>966.0</ele><time>2026-04-30T07:04:33.007Z</time></trkpt><trkpt lat="40.12264664115565" lon="9.253414297055933"><ele>966.0</ele><time>2026-04-30T07:04:34.007Z</time></trkpt><trkpt lat="40.1226489851941" lon="9.253561526931245"><ele>965.4</ele><time>2026-04-30T07:04:35.007Z</time></trkpt><trkpt lat="40.122639514466904" lon="9.253702113243927"><ele>964.8</ele><time>2026-04-30T07:04:36.007Z</time></trkpt><trkpt lat="40.12261486839193" lon="9.253834441456817"><ele>964.1999999999999</ele><time>2026-04-30T07:04:37.007Z</time></trkpt><trkpt lat="40.12257297501204" lon="9.253949653448105"><ele>963.5999999999999</ele><time>2026-04-30T07:04:38.007Z</time></trkpt><trkpt lat="40.12251817470523" lon="9.254057615125548"><ele>963.0</ele><time>2026-04-30T07:04:39.007Z</time></trkpt><trkpt lat="40.12245448677798" lon="9.254141282144593"><ele>962.2</ele><time>2026-04-30T07:04:40.007Z</time></trkpt><trkpt lat="40.12237882835564" lon="9.254175360872303"><ele>961.4</ele><time>2026-04-30T07:04:41.007Z</time></trkpt><trkpt lat="40.12228356003703" lon="9.254191325282026"><ele>960.6000000000001</ele><time>2026-04-30T07:04:42.007Z</time></trkpt><trkpt lat="40.12218865411708" lon="9.254210967859372"><ele>959.8000000000001</ele><time>2026-04-30T07:04:43.007Z</time></trkpt><trkpt lat="40.12209369160145" lon="9.254223174695705"><ele>959.0</ele><time>2026-04-30T07:04:44.007Z</time></trkpt><trkpt lat="40.12199287608633" lon="9.254222017650177"><ele>959.0</ele><time>2026-04-30T07:04:45.007Z</time></trkpt><trkpt lat="40.121894108281886" lon="9.254227556719165"><ele>959.0000000000001</ele><time>2026-04-30T07:04:46.007Z</time></trkpt><trkpt lat="40.121791273582836" lon="9.254219102726937"><ele>959.0000000000001</ele><time>2026-04-30T07:04:47.007Z</time></trkpt><trkpt lat="40.12168953232775" lon="9.25419091366774"><ele>959.0</ele><time>2026-04-30T07:04:48.007Z</time></trkpt><trkpt lat="40.1215890253639" lon="9.254168871186351"><ele>959.0</ele><time>2026-04-30T07:04:49.007Z</time></trkpt><trkpt lat="40.12149161858251" lon="9.25414874679518"><ele>959.1666666666667</ele><time>2026-04-30T07:04:50.007Z</time></trkpt><trkpt lat="40.12139434505721" lon="9.254142668737362"><ele>959.3333333333334</ele><time>2026-04-30T07:04:51.007Z</time></trkpt><trkpt lat="40.12130180246566" lon="9.254131803199929"><ele>959.5</ele><time>2026-04-30T07:04:52.007Z</time></trkpt><trkpt lat="40.121213985068046" lon="9.254122776613688"><ele>959.6666666666667</ele><time>2026-04-30T07:04:53.007Z</time></trkpt><trkpt lat="40.12112954073158" lon="9.254122297381846"><ele>959.8333333333334</ele><time>2026-04-30T07:04:54.007Z</time></trkpt><trkpt lat="40.121053436125216" lon="9.254113669524084"><ele>960.0</ele><time>2026-04-30T07:04:55.007Z</time></trkpt><trkpt lat="40.12098561426318" lon="9.254102966749928"><ele>960.0</ele><time>2026-04-30T07:04:56.007Z</time></trkpt><trkpt lat="40.12091411305894" lon="9.254085291714915"><ele>960.0</ele><time>2026-04-30T07:04:57.007Z</time></trkpt><trkpt lat="40.120837971970374" lon="9.25405948563578"><ele>960.0</ele><time>2026-04-30T07:04:58.007Z</time></trkpt><trkpt lat="40.12075655832966" lon="9.254034771574162"><ele>960.0</ele><time>2026-04-30T07:04:59.007Z</time></trkpt><trkpt lat="40.12066969459354" lon="9.254016464650615"><ele>960.0</ele><time>2026-04-30T07:05:00.007Z</time></trkpt><trkpt lat="40.1205760863492" lon="9.254007139950852"><ele>960.0</ele><time>2026-04-30T07:05:01.007Z</time></trkpt><trkpt lat="40.1204815152784" lon="9.25398237822683"><ele>963.2</ele><time>2026-04-30T07:05:02.007Z</time></trkpt><trkpt lat="40.120377819524336" lon="9.25395415758543"><ele>966.4</ele><time>2026-04-30T07:05:03.007Z</time></trkpt><trkpt lat="40.120271163280954" lon="9.253937315924698"><ele>969.5999999999999</ele><time>2026-04-30T07:05:04.007Z</time></trkpt><trkpt lat="40.120164163222036" lon="9.253927857389288"><ele>972.8</ele><time>2026-04-30T07:05:05.007Z</time></trkpt><trkpt lat="40.12004959587128" lon="9.253929378562058"><ele>976.0</ele><time>2026-04-30T07:05:06.007Z</time></trkpt><trkpt lat="40.11993902874252" lon="9.25394368258868"><ele>976.5999999999999</ele><time>2026-04-30T07:05:07.007Z</time></trkpt><trkpt lat="40.119834275499464" lon="9.253953816120536"><ele>977.1999999999999</ele><time>2026-04-30T07:05:08.008Z</time></trkpt><trkpt lat="40.119722985122735" lon="9.253949315553799"><ele>977.8000000000001</ele><time>2026-04-30T07:05:09.008Z</time></trkpt><trkpt lat="40.11961104697572" lon="9.253963423358293"><ele>978.4000000000001</ele><time>2026-04-30T07:05:10.008Z</time></trkpt><trkpt lat="40.11950737408281" lon="9.25396406593974"><ele>979.0</ele><time>2026-04-30T07:05:11.008Z</time></trkpt><trkpt lat="40.11939933048847" lon="9.253972338743173"><ele>978.4000000000001</ele><time>2026-04-30T07:05:12.008Z</time></trkpt><trkpt lat="40.119296660958845" lon="9.253987134535732"><ele>977.8000000000001</ele><time>2026-04-30T07:05:13.008Z</time></trkpt><trkpt lat="40.11920097869306" lon="9.253992366511518"><ele>977.1999999999999</ele><time>2026-04-30T07:05:14.008Z</time></trkpt><trkpt lat="40.119108274067926" lon="9.254003703543523"><ele>976.5999999999999</ele><time>2026-04-30T07:05:15.008Z</time></trkpt><trkpt lat="40.11901538364629" lon="9.254014280310148"><ele>976.0</ele><time>2026-04-30T07:05:16.008Z</time></trkpt><trkpt lat="40.11891664393674" lon="9.254029440826832"><ele>975.9999999999999</ele><time>2026-04-30T07:05:17.008Z</time></trkpt><trkpt lat="40.118815041227506" lon="9.254039813857448"><ele>976.0</ele><time>2026-04-30T07:05:18.008Z</time></trkpt><trkpt lat="40.118712808670466" lon="9.254044317049448"><ele>976.0</ele><time>2026-04-30T07:05:19.008Z</time></trkpt><trkpt lat="40.11862692591967" lon="9.25405832489702"><ele>976.0</ele><time>2026-04-30T07:05:20.008Z</time></trkpt><trkpt lat="40.11855560193776" lon="9.254059399542731"><ele>975.9999999999999</ele><time>2026-04-30T07:05:21.008Z</time></trkpt><trkpt lat="40.11848680949913" lon="9.254059728354845"><ele>976.0</ele><time>2026-04-30T07:05:22.008Z</time></trkpt><trkpt lat="40.11838084791696" lon="9.254048539609336"><ele>976.0</ele><time>2026-04-30T07:05:24.008Z</time></trkpt><trkpt lat="40.118294472162674" lon="9.254037254421037"><ele>975.9999999999999</ele><time>2026-04-30T07:05:26.008Z</time></trkpt><trkpt lat="40.11822460986693" lon="9.254060820806352"><ele>975.9999999999999</ele><time>2026-04-30T07:05:28.008Z</time></trkpt><trkpt lat="40.118165712108656" lon="9.254153764578191"><ele>976.0</ele><time>2026-04-30T07:05:30.008Z</time></trkpt><trkpt lat="40.118105507987295" lon="9.25426719838996"><ele>976.0</ele><time>2026-04-30T07:05:32.008Z</time></trkpt><trkpt lat="40.11803843757527" lon="9.254389539970196"><ele>977.6666666666666</ele><time>2026-04-30T07:05:34.008Z</time></trkpt><trkpt lat="40.11797001211254" lon="9.25451899875447"><ele>979.3333333333333</ele><time>2026-04-30T07:05:36.008Z</time></trkpt><trkpt lat="40.117933501134154" lon="9.254589188461937"><ele>981.0</ele><time>2026-04-30T07:05:37.008Z</time></trkpt><trkpt lat="40.11788979046274" lon="9.254651952553713"><ele>982.6666666666667</ele><time>2026-04-30T07:05:38.008Z</time></trkpt><trkpt lat="40.1178570740973" lon="9.254722541729008"><ele>984.3333333333334</ele><time>2026-04-30T07:05:39.008Z</time></trkpt><trkpt lat="40.11782452027122" lon="9.254801627730721"><ele>986.0</ele><time>2026-04-30T07:05:40.008Z</time></trkpt><trkpt lat="40.11778434444075" lon="9.254873787849256"><ele>986.0000000000001</ele><time>2026-04-30T07:05:41.008Z</time></trkpt><trkpt lat="40.11775338295499" lon="9.254960177985634"><ele>986.0</ele><time>2026-04-30T07:05:42.008Z</time></trkpt><trkpt lat="40.11771640755427" lon="9.255033835635997"><ele>986.0</ele><time>2026-04-30T07:05:43.008Z</time></trkpt><trkpt lat="40.1176338585208" lon="9.255164639456952"><ele>986.0</ele><time>2026-04-30T07:05:45.008Z</time></trkpt><trkpt lat="40.117587720545075" lon="9.255229245633572"><ele>986.0000000000001</ele><time>2026-04-30T07:05:46.008Z</time></trkpt><trkpt lat="40.11754144275753" lon="9.255339315582182"><ele>986.0</ele><time>2026-04-30T07:05:48.008Z</time></trkpt><trkpt lat="40.1174767331746" lon="9.255461659197081"><ele>985.6666666666667</ele><time>2026-04-30T07:05:50.008Z</time></trkpt><trkpt lat="40.11739911521316" lon="9.255579595593964"><ele>985.3333333333334</ele><time>2026-04-30T07:05:52.008Z</time></trkpt><trkpt lat="40.11735721673615" lon="9.25565187154742"><ele>985.0</ele><time>2026-04-30T07:05:53.008Z</time></trkpt><trkpt lat="40.11730271357389" lon="9.255730302838305"><ele>984.6666666666667</ele><time>2026-04-30T07:05:54.008Z</time></trkpt><trkpt lat="40.11724656395635" lon="9.255797730488991"><ele>984.3333333333334</ele><time>2026-04-30T07:05:55.008Z</time></trkpt><trkpt lat="40.117175396979825" lon="9.255869045086227"><ele>984.0</ele><time>2026-04-30T07:05:56.008Z</time></trkpt><trkpt lat="40.11709727885686" lon="9.255929785667696"><ele>984.0</ele><time>2026-04-30T07:05:57.008Z</time></trkpt><trkpt lat="40.11701302540367" lon="9.255969445390239"><ele>984.0000000000001</ele><time>2026-04-30T07:05:58.008Z</time></trkpt><trkpt lat="40.11692389358636" lon="9.255992766525504"><ele>984.0000000000001</ele><time>2026-04-30T07:05:59.008Z</time></trkpt><trkpt lat="40.11683453134127" lon="9.25600104586464"><ele>984.0</ele><time>2026-04-30T07:06:00.008Z</time></trkpt><trkpt lat="40.11673748299252" lon="9.256009911517198"><ele>984.0</ele><time>2026-04-30T07:06:01.008Z</time></trkpt><trkpt lat="40.116653946949185" lon="9.256025459842837"><ele>985.1666666666666</ele><time>2026-04-30T07:06:02.008Z</time></trkpt><trkpt lat="40.11656432571143" lon="9.256043665267073"><ele>986.3333333333333</ele><time>2026-04-30T07:06:03.008Z</time></trkpt><trkpt lat="40.11647267000489" lon="9.256047905141989"><ele>987.5</ele><time>2026-04-30T07:06:04.008Z</time></trkpt><trkpt lat="40.116385997533975" lon="9.256059659971108"><ele>988.6666666666666</ele><time>2026-04-30T07:06:05.008Z</time></trkpt><trkpt lat="40.116303224805904" lon="9.25607818931955"><ele>989.8333333333333</ele><time>2026-04-30T07:06:06.008Z</time></trkpt><trkpt lat="40.116226538395075" lon="9.256091585853564"><ele>991.0</ele><time>2026-04-30T07:06:07.008Z</time></trkpt><trkpt lat="40.116149040427786" lon="9.256120131667995"><ele>991.0000000000001</ele><time>2026-04-30T07:06:08.008Z</time></trkpt><trkpt lat="40.116080175577984" lon="9.256144075862263"><ele>991.0</ele><time>2026-04-30T07:06:09.008Z</time></trkpt><trkpt lat="40.11601627092791" lon="9.256186708786176"><ele>991.0000000000001</ele><time>2026-04-30T07:06:10.008Z</time></trkpt><trkpt lat="40.115959668839125" lon="9.256238105290652"><ele>991.0000000000001</ele><time>2026-04-30T07:06:11.008Z</time></trkpt><trkpt lat="40.11590238768348" lon="9.256276946885965"><ele>991.0</ele><time>2026-04-30T07:06:12.008Z</time></trkpt><trkpt lat="40.11583313347935" lon="9.256328671698126"><ele>991.0000000000001</ele><time>2026-04-30T07:06:13.008Z</time></trkpt><trkpt lat="40.11577276017148" lon="9.256387935789197"><ele>991.0000000000001</ele><time>2026-04-30T07:06:14.008Z</time></trkpt><trkpt lat="40.115719081113006" lon="9.25644154015575"><ele>989.8333333333333</ele><time>2026-04-30T07:06:15.008Z</time></trkpt><trkpt lat="40.11562666848849" lon="9.256546087086312"><ele>988.6666666666666</ele><time>2026-04-30T07:06:17.008Z</time></trkpt><trkpt lat="40.11557577051258" lon="9.256601018233987"><ele>987.5</ele><time>2026-04-30T07:06:18.008Z</time></trkpt><trkpt lat="40.11552005860074" lon="9.256655159718594"><ele>986.3333333333333</ele><time>2026-04-30T07:06:19.008Z</time></trkpt><trkpt lat="40.115463229813535" lon="9.256714931131375"><ele>985.1666666666666</ele><time>2026-04-30T07:06:20.008Z</time></trkpt><trkpt lat="40.11539754396458" lon="9.25676879741066"><ele>984.0</ele><time>2026-04-30T07:06:21.008Z</time></trkpt><trkpt lat="40.11533775695651" lon="9.25681715469472"><ele>984.0</ele><time>2026-04-30T07:06:22.008Z</time></trkpt><trkpt lat="40.11527642081746" lon="9.25686137795292"><ele>984.0</ele><time>2026-04-30T07:06:23.008Z</time></trkpt><trkpt lat="40.11521602607465" lon="9.256892646293485"><ele>984.0</ele><time>2026-04-30T07:06:24.008Z</time></trkpt><trkpt lat="40.11510688681635" lon="9.256949523650492"><ele>984.0</ele><time>2026-04-30T07:06:26.008Z</time></trkpt><trkpt lat="40.11504495820557" lon="9.256985576709774"><ele>984.0</ele><time>2026-04-30T07:06:27.008Z</time></trkpt><trkpt lat="40.11497580593215" lon="9.257012453992065"><ele>984.0</ele><time>2026-04-30T07:06:28.008Z</time></trkpt><trkpt lat="40.11490047302149" lon="9.257022906411988"><ele>984.3333333333334</ele><time>2026-04-30T07:06:29.008Z</time></trkpt><trkpt lat="40.1148189212456" lon="9.257022938981086"><ele>984.6666666666667</ele><time>2026-04-30T07:06:30.008Z</time></trkpt><trkpt lat="40.11472570880244" lon="9.257018520173"><ele>985.0</ele><time>2026-04-30T07:06:31.008Z</time></trkpt><trkpt lat="40.11463649149223" lon="9.25701541464504"><ele>985.3333333333334</ele><time>2026-04-30T07:06:32.008Z</time></trkpt><trkpt lat="40.11454573683866" lon="9.257024464829685"><ele>985.6666666666667</ele><time>2026-04-30T07:06:33.008Z</time></trkpt><trkpt lat="40.11445505057663" lon="9.257032939516911"><ele>986.0</ele><time>2026-04-30T07:06:34.008Z</time></trkpt><trkpt lat="40.11436183212253" lon="9.257064643450837"><ele>986.0</ele><time>2026-04-30T07:06:35.008Z</time></trkpt><trkpt lat="40.11426563621159" lon="9.257112610310635"><ele>985.9999999999999</ele><time>2026-04-30T07:06:36.008Z</time></trkpt><trkpt lat="40.11417979368802" lon="9.257175848266993"><ele>985.9999999999999</ele><time>2026-04-30T07:06:37.008Z</time></trkpt><trkpt lat="40.114091447567446" lon="9.257244981482375"><ele>986.0</ele><time>2026-04-30T07:06:38.008Z</time></trkpt><trkpt lat="40.11400839256751" lon="9.25732129121362"><ele>986.0</ele><time>2026-04-30T07:06:39.008Z</time></trkpt><trkpt lat="40.11392249111547" lon="9.257394413673103"><ele>985.1999999999999</ele><time>2026-04-30T07:06:40.008Z</time></trkpt><trkpt lat="40.11383859709311" lon="9.257464042614494"><ele>984.3999999999999</ele><time>2026-04-30T07:06:41.008Z</time></trkpt><trkpt lat="40.11375310239565" lon="9.257527599613912"><ele>983.6</ele><time>2026-04-30T07:06:42.008Z</time></trkpt><trkpt lat="40.11366663363471" lon="9.257578712185083"><ele>982.8</ele><time>2026-04-30T07:06:43.008Z</time></trkpt><trkpt lat="40.1135818256495" lon="9.257625781212967"><ele>982.0</ele><time>2026-04-30T07:06:44.008Z</time></trkpt><trkpt lat="40.113499936451504" lon="9.257668885117575"><ele>982.0</ele><time>2026-04-30T07:06:45.008Z</time></trkpt><trkpt lat="40.113414069695146" lon="9.257703389459646"><ele>982.0</ele><time>2026-04-30T07:06:46.008Z</time></trkpt><trkpt lat="40.11332727648987" lon="9.2577248280533"><ele>982.0</ele><time>2026-04-30T07:06:47.008Z</time></trkpt><trkpt lat="40.113237683979605" lon="9.257749338586775"><ele>982.0</ele><time>2026-04-30T07:06:48.008Z</time></trkpt><trkpt lat="40.11314283587837" lon="9.257770281007081"><ele>982.0</ele><time>2026-04-30T07:06:49.008Z</time></trkpt><trkpt lat="40.11304397718683" lon="9.257790510850118"><ele>984.0</ele><time>2026-04-30T07:06:50.008Z</time></trkpt><trkpt lat="40.11294277964581" lon="9.257809894418637"><ele>986.0</ele><time>2026-04-30T07:06:51.008Z</time></trkpt><trkpt lat="40.11283753862856" lon="9.257831852711982"><ele>988.0</ele><time>2026-04-30T07:06:52.008Z</time></trkpt><trkpt lat="40.11272880493792" lon="9.257855060567739"><ele>990.0</ele><time>2026-04-30T07:06:53.008Z</time></trkpt><trkpt lat="40.112617916129366" lon="9.257869394717456"><ele>992.0</ele><time>2026-04-30T07:06:54.008Z</time></trkpt><trkpt lat="40.112497922251016" lon="9.257880848002712"><ele>995.25</ele><time>2026-04-30T07:06:55.008Z</time></trkpt><trkpt lat="40.11237177577713" lon="9.257888607932294"><ele>998.5</ele><time>2026-04-30T07:06:56.008Z</time></trkpt><trkpt lat="40.11223839717061" lon="9.257875432558325"><ele>1001.75</ele><time>2026-04-30T07:06:57.008Z</time></trkpt><trkpt lat="40.11210196165041" lon="9.25784870987902"><ele>1005.0</ele><time>2026-04-30T07:06:58.008Z</time></trkpt><trkpt lat="40.11195308380809" lon="9.257828424480921"><ele>1005.0</ele><time>2026-04-30T07:06:59.008Z</time></trkpt><trkpt lat="40.11180377714076" lon="9.257799136636192"><ele>1005.0</ele><time>2026-04-30T07:07:00.008Z</time></trkpt><trkpt lat="40.11165076444862" lon="9.257778576238872"><ele>1005.0</ele><time>2026-04-30T07:07:01.008Z</time></trkpt><trkpt lat="40.11149118245589" lon="9.257775653655688"><ele>1006.0</ele><time>2026-04-30T07:07:02.008Z</time></trkpt><trkpt lat="40.111332011435884" lon="9.25778531878851"><ele>1007.0</ele><time>2026-04-30T07:07:03.008Z</time></trkpt><trkpt lat="40.11117318206901" lon="9.25780813924039"><ele>1008.0</ele><time>2026-04-30T07:07:04.008Z</time></trkpt><trkpt lat="40.11101233385711" lon="9.257827337197606"><ele>1008.0</ele><time>2026-04-30T07:07:05.008Z</time></trkpt><trkpt lat="40.11084436086463" lon="9.257836693588866"><ele>1008.0</ele><time>2026-04-30T07:07:06.008Z</time></trkpt><trkpt lat="40.11068041711507" lon="9.257825800171926"><ele>1008.0</ele><time>2026-04-30T07:07:07.008Z</time></trkpt><trkpt lat="40.11053170273617" lon="9.257778847190552"><ele>1004.0</ele><time>2026-04-30T07:07:08.008Z</time></trkpt><trkpt lat="40.11040623418721" lon="9.257680949586405"><ele>1000.0</ele><time>2026-04-30T07:07:09.008Z</time></trkpt><trkpt lat="40.11028407720148" lon="9.257555926192932"><ele>996.0</ele><time>2026-04-30T07:07:10.008Z</time></trkpt><trkpt lat="40.11014722946193" lon="9.257432129656802"><ele>996.6666666666667</ele><time>2026-04-30T07:07:11.008Z</time></trkpt><trkpt lat="40.11001563136435" lon="9.257268223409335"><ele>997.3333333333334</ele><time>2026-04-30T07:07:12.008Z</time></trkpt><trkpt lat="40.1099047461987" lon="9.257076858463263"><ele>998.0</ele><time>2026-04-30T07:07:13.009Z</time></trkpt><trkpt lat="40.10980271689262" lon="9.256870591170523"><ele>998.0</ele><time>2026-04-30T07:07:14.009Z</time></trkpt><trkpt lat="40.10970727311921" lon="9.256670145557662"><ele>998.0</ele><time>2026-04-30T07:07:15.009Z</time></trkpt><trkpt lat="40.10960622664659" lon="9.256507149728755"><ele>998.0</ele><time>2026-04-30T07:07:16.009Z</time></trkpt><trkpt lat="40.10947485160393" lon="9.256401723767576"><ele>1002.6666666666667</ele><time>2026-04-30T07:07:17.009Z</time></trkpt><trkpt lat="40.109324904771114" lon="9.256356813386088"><ele>1007.3333333333333</ele><time>2026-04-30T07:07:18.009Z</time></trkpt><trkpt lat="40.10915742477289" lon="9.256366502512426"><ele>1012.0</ele><time>2026-04-30T07:07:19.009Z</time></trkpt><trkpt lat="40.108987025275546" lon="9.256385321781922"><ele>1012.0</ele><time>2026-04-30T07:07:20.009Z</time></trkpt><trkpt lat="40.108809282816594" lon="9.25637530501989"><ele>1012.0</ele><time>2026-04-30T07:07:21.009Z</time></trkpt><trkpt lat="40.10862982326456" lon="9.256375084016492"><ele>1012.0</ele><time>2026-04-30T07:07:22.009Z</time></trkpt><trkpt lat="40.108471509947435" lon="9.25635338917882"><ele>1012.0</ele><time>2026-04-30T07:07:23.009Z</time></trkpt><trkpt lat="40.108324205693314" lon="9.256287853454955"><ele>1012.0</ele><time>2026-04-30T07:07:24.009Z</time></trkpt><trkpt lat="40.10819804263566" lon="9.256138045585"><ele>1012.0</ele><time>2026-04-30T07:07:25.009Z</time></trkpt><trkpt lat="40.10811668320752" lon="9.255926098257225"><ele>1005.6666666666666</ele><time>2026-04-30T07:07:26.009Z</time></trkpt><trkpt lat="40.10809258242789" lon="9.255687568466302"><ele>999.3333333333333</ele><time>2026-04-30T07:07:27.009Z</time></trkpt><trkpt lat="40.10805469490571" lon="9.25584282884827"><ele>993.0</ele><time>2026-04-30T07:07:28.009Z</time></trkpt><trkpt lat="40.10806239451704" lon="9.255628433495156"><ele>994.3333333333333</ele><time>2026-04-30T07:07:29.009Z</time></trkpt><trkpt lat="40.10806221981361" lon="9.255403068056966"><ele>995.6666666666666</ele><time>2026-04-30T07:07:30.009Z</time></trkpt><trkpt lat="40.10804909056236" lon="9.255168491339932"><ele>997.0</ele><time>2026-04-30T07:07:31.009Z</time></trkpt><trkpt lat="40.10804422502525" lon="9.254939516670012"><ele>998.6666666666666</ele><time>2026-04-30T07:07:32.009Z</time></trkpt><trkpt lat="40.108032155757684" lon="9.254714443363833"><ele>1000.3333333333333</ele><time>2026-04-30T07:07:33.009Z</time></trkpt><trkpt lat="40.10798962564885" lon="9.254497323912627"><ele>1002.0</ele><time>2026-04-30T07:07:34.009Z</time></trkpt><trkpt lat="40.107925203793435" lon="9.254282471277104"><ele>1002.0</ele><time>2026-04-30T07:07:35.009Z</time></trkpt><trkpt lat="40.10783597797081" lon="9.25406149407304"><ele>1002.0</ele><time>2026-04-30T07:07:36.009Z</time></trkpt><trkpt lat="40.10775332294554" lon="9.253837148926754"><ele>1002.0</ele><time>2026-04-30T07:07:37.009Z</time></trkpt><trkpt lat="40.10767689993458" lon="9.253609457418625"><ele>1006.3333333333333</ele><time>2026-04-30T07:07:38.009Z</time></trkpt><trkpt lat="40.10759202721432" lon="9.25339337161515"><ele>1010.6666666666666</ele><time>2026-04-30T07:07:39.009Z</time></trkpt><trkpt lat="40.107480342110186" lon="9.253211697014544"><ele>1015.0</ele><time>2026-04-30T07:07:40.009Z</time></trkpt><trkpt lat="40.107326892067675" lon="9.253091614551778"><ele>1016.0</ele><time>2026-04-30T07:07:41.009Z</time></trkpt><trkpt lat="40.10714323382682" lon="9.25305484631877"><ele>1017.0</ele><time>2026-04-30T07:07:42.009Z</time></trkpt><trkpt lat="40.10694929362467" lon="9.25309209355168"><ele>1018.0</ele><time>2026-04-30T07:07:43.009Z</time></trkpt><trkpt lat="40.106758306878476" lon="9.253123659089885"><ele>1017.3333333333333</ele><time>2026-04-30T07:07:44.009Z</time></trkpt><trkpt lat="40.106561161177545" lon="9.253148487173936"><ele>1016.6666666666667</ele><time>2026-04-30T07:07:45.009Z</time></trkpt><trkpt lat="40.106358070087076" lon="9.253151256033163"><ele>1016.0</ele><time>2026-04-30T07:07:46.009Z</time></trkpt><trkpt lat="40.10615273188353" lon="9.253165299220537"><ele>1016.0</ele><time>2026-04-30T07:07:47.009Z</time></trkpt><trkpt lat="40.1059535582182" lon="9.25317412865831"><ele>1016.0</ele><time>2026-04-30T07:07:48.009Z</time></trkpt><trkpt lat="40.10575619722088" lon="9.253145812143858"><ele>1016.0</ele><time>2026-04-30T07:07:49.009Z</time></trkpt><trkpt lat="40.10557375139083" lon="9.253040418972386"><ele>1020.6666666666667</ele><time>2026-04-30T07:07:50.009Z</time></trkpt><trkpt lat="40.105393236011686" lon="9.25290511650425"><ele>1025.3333333333333</ele><time>2026-04-30T07:07:51.009Z</time></trkpt><trkpt lat="40.10522261795593" lon="9.252781156685609"><ele>1030.0</ele><time>2026-04-30T07:07:52.009Z</time></trkpt><trkpt lat="40.105070201672184" lon="9.252682325548927"><ele>1030.0</ele><time>2026-04-30T07:07:53.009Z</time></trkpt><trkpt lat="40.104906241602414" lon="9.252611840375405"><ele>1030.0</ele><time>2026-04-30T07:07:54.009Z</time></trkpt><trkpt lat="40.104715898338185" lon="9.252607013185923"><ele>1030.0</ele><time>2026-04-30T07:07:55.009Z</time></trkpt><trkpt lat="40.1045090684989" lon="9.252607800726755"><ele>1030.0</ele><time>2026-04-30T07:07:56.009Z</time></trkpt><trkpt lat="40.104297758437696" lon="9.252610809623281"><ele>1030.0</ele><time>2026-04-30T07:07:57.009Z</time></trkpt><trkpt lat="40.10408603856517" lon="9.252579768354998"><ele>1030.0</ele><time>2026-04-30T07:07:58.009Z</time></trkpt><trkpt lat="40.10389288852196" lon="9.252476139506566"><ele>1027.6666666666665</ele><time>2026-04-30T07:07:59.009Z</time></trkpt><trkpt lat="40.1037036988534" lon="9.252335075065597"><ele>1025.3333333333333</ele><time>2026-04-30T07:08:00.009Z</time></trkpt><trkpt lat="40.10352486558973" lon="9.252177162323578"><ele>1023.0</ele><time>2026-04-30T07:08:01.009Z</time></trkpt><trkpt lat="40.10335576598334" lon="9.251987165450615"><ele>1026.3333333333333</ele><time>2026-04-30T07:08:02.009Z</time></trkpt><trkpt lat="40.10319083633521" lon="9.251794412193254"><ele>1029.6666666666665</ele><time>2026-04-30T07:08:03.009Z</time></trkpt><trkpt lat="40.103020619243466" lon="9.251613814827735"><ele>1033.0</ele><time>2026-04-30T07:08:04.009Z</time></trkpt><trkpt lat="40.102847764411045" lon="9.251423613472282"><ele>1033.0</ele><time>2026-04-30T07:08:05.009Z</time></trkpt><trkpt lat="40.10269248535666" lon="9.251269920732435"><ele>1033.0</ele><time>2026-04-30T07:08:06.009Z</time></trkpt><trkpt lat="40.10254267909764" lon="9.251169168150302"><ele>1033.0</ele><time>2026-04-30T07:08:07.009Z</time></trkpt><trkpt lat="40.10238919508706" lon="9.25116308423327"><ele>1036.3333333333333</ele><time>2026-04-30T07:08:08.009Z</time></trkpt><trkpt lat="40.10223801404267" lon="9.251251013159614"><ele>1039.6666666666667</ele><time>2026-04-30T07:08:09.009Z</time></trkpt><trkpt lat="40.1020972709591" lon="9.251428206835616"><ele>1043.0</ele><time>2026-04-30T07:08:10.009Z</time></trkpt><trkpt lat="40.10197863935869" lon="9.251654864079445"><ele>1044.3333333333335</ele><time>2026-04-30T07:08:11.009Z</time></trkpt><trkpt lat="40.10185105276938" lon="9.251875888524122"><ele>1045.6666666666667</ele><time>2026-04-30T07:08:12.009Z</time></trkpt><trkpt lat="40.101712427499635" lon="9.252091681619886"><ele>1047.0</ele><time>2026-04-30T07:08:13.009Z</time></trkpt><trkpt lat="40.101580988043985" lon="9.252290567225241"><ele>1053.0</ele><time>2026-04-30T07:08:14.009Z</time></trkpt><trkpt lat="40.10145759923446" lon="9.252488021549015"><ele>1059.0</ele><time>2026-04-30T07:08:15.009Z</time></trkpt><trkpt lat="40.10133151967142" lon="9.252694955954173"><ele>1065.0</ele><time>2026-04-30T07:08:16.009Z</time></trkpt><trkpt lat="40.101227374551094" lon="9.252932610758872"><ele>1061.3333333333333</ele><time>2026-04-30T07:08:17.009Z</time></trkpt><trkpt lat="40.10113945501677" lon="9.253197417573034"><ele>1057.6666666666665</ele><time>2026-04-30T07:08:18.009Z</time></trkpt><trkpt lat="40.1010178264963" lon="9.2534381658185"><ele>1054.0</ele><time>2026-04-30T07:08:19.009Z</time></trkpt><trkpt lat="40.10086447697171" lon="9.253640270971044"><ele>1055.3333333333333</ele><time>2026-04-30T07:08:20.009Z</time></trkpt><trkpt lat="40.100685643461055" lon="9.253811070064918"><ele>1056.6666666666667</ele><time>2026-04-30T07:08:21.009Z</time></trkpt><trkpt lat="40.10049986319136" lon="9.253968815104598"><ele>1058.0</ele><time>2026-04-30T07:08:22.009Z</time></trkpt><trkpt lat="40.10031387831646" lon="9.254133801236003"><ele>1058.0</ele><time>2026-04-30T07:08:23.009Z</time></trkpt><trkpt lat="40.10012847451725" lon="9.254297965757154"><ele>1058.0</ele><time>2026-04-30T07:08:24.009Z</time></trkpt><trkpt lat="40.09994390998409" lon="9.254457901689953"><ele>1058.0</ele><time>2026-04-30T07:08:25.009Z</time></trkpt><trkpt lat="40.09976044706375" lon="9.254617151944931"><ele>1059.0</ele><time>2026-04-30T07:08:26.009Z</time></trkpt><trkpt lat="40.09959343552834" lon="9.254767916929726"><ele>1060.0</ele><time>2026-04-30T07:08:27.009Z</time></trkpt><trkpt lat="40.09944040062504" lon="9.254907810474782"><ele>1061.0</ele><time>2026-04-30T07:08:28.009Z</time></trkpt><trkpt lat="40.09928562759512" lon="9.255017775277844"><ele>1059.0</ele><time>2026-04-30T07:08:29.009Z</time></trkpt><trkpt lat="40.099099334639526" lon="9.25504805099035"><ele>1057.0</ele><time>2026-04-30T07:08:30.009Z</time></trkpt><trkpt lat="40.09889782627162" lon="9.254994638063"><ele>1055.0</ele><time>2026-04-30T07:08:31.009Z</time></trkpt><trkpt lat="40.09870197130939" lon="9.254878797527718"><ele>1058.0</ele><time>2026-04-30T07:08:32.009Z</time></trkpt><trkpt lat="40.09847594477506" lon="9.254752698018525"><ele>1061.0</ele><time>2026-04-30T07:08:33.009Z</time></trkpt><trkpt lat="40.09821377492029" lon="9.254755629225011"><ele>1061.0</ele><time>2026-04-30T07:08:34.009Z</time></trkpt><trkpt lat="40.09799389381941" lon="9.25481558252186"><ele>1061.0</ele><time>2026-04-30T07:08:35.009Z</time></trkpt><trkpt lat="40.09777230088809" lon="9.254969040424394"><ele>1061.0</ele><time>2026-04-30T07:08:37.009Z</time></trkpt><trkpt lat="40.097571498971185" lon="9.255040716851314"><ele>1061.0</ele><time>2026-04-30T07:08:38.009Z</time></trkpt><trkpt lat="40.09740167373067" lon="9.255135755635145"><ele>1061.0</ele><time>2026-04-30T07:08:39.009Z</time></trkpt><trkpt lat="40.09725421154924" lon="9.255302079025958"><ele>1064.6666666666667</ele><time>2026-04-30T07:08:40.009Z</time></trkpt><trkpt lat="40.097117972779145" lon="9.255509906299766"><ele>1068.3333333333333</ele><time>2026-04-30T07:08:41.009Z</time></trkpt><trkpt lat="40.096982873418185" lon="9.255726862410306"><ele>1072.0</ele><time>2026-04-30T07:08:42.009Z</time></trkpt><trkpt lat="40.09685052675654" lon="9.2559445667407"><ele>1072.0</ele><time>2026-04-30T07:08:43.009Z</time></trkpt><trkpt lat="40.09669687880811" lon="9.25614932352565"><ele>1072.0</ele><time>2026-04-30T07:08:44.009Z</time></trkpt><trkpt lat="40.09652387049772" lon="9.25631567378214"><ele>1072.0</ele><time>2026-04-30T07:08:45.009Z</time></trkpt><trkpt lat="40.09632237480079" lon="9.25642879436592"><ele>1072.3333333333333</ele><time>2026-04-30T07:08:46.009Z</time></trkpt><trkpt lat="40.09612487393939" lon="9.256533907605128"><ele>1072.6666666666667</ele><time>2026-04-30T07:08:47.009Z</time></trkpt><trkpt lat="40.09592571569488" lon="9.256654900846785"><ele>1073.0</ele><time>2026-04-30T07:08:48.009Z</time></trkpt><trkpt lat="40.095748630816345" lon="9.256823179717891"><ele>1074.6666666666667</ele><time>2026-04-30T07:08:49.009Z</time></trkpt><trkpt lat="40.095597330070575" lon="9.257027067377784"><ele>1076.3333333333333</ele><time>2026-04-30T07:08:50.009Z</time></trkpt><trkpt lat="40.09545237122676" lon="9.257236836630238"><ele>1078.0</ele><time>2026-04-30T07:08:51.009Z</time></trkpt><trkpt lat="40.0953032433619" lon="9.25744170407615"><ele>1078.0</ele><time>2026-04-30T07:08:52.009Z</time></trkpt><trkpt lat="40.09516509462425" lon="9.257624337867675"><ele>1078.0</ele><time>2026-04-30T07:08:53.009Z</time></trkpt><trkpt lat="40.095028192475866" lon="9.257746224082867"><ele>1078.0</ele><time>2026-04-30T07:08:54.009Z</time></trkpt><trkpt lat="40.09488175879575" lon="9.257776394527584"><ele>1080.3333333333333</ele><time>2026-04-30T07:08:55.009Z</time></trkpt><trkpt lat="40.09471568001642" lon="9.25772315421867"><ele>1082.6666666666667</ele><time>2026-04-30T07:08:56.009Z</time></trkpt><trkpt lat="40.094536103602906" lon="9.257693058645913"><ele>1085.0</ele><time>2026-04-30T07:08:57.009Z</time></trkpt><trkpt lat="40.0943474858888" lon="9.257676702011288"><ele>1085.0</ele><time>2026-04-30T07:08:58.009Z</time></trkpt><trkpt lat="40.09416040436444" lon="9.25762019196744"><ele>1085.0</ele><time>2026-04-30T07:08:59.009Z</time></trkpt><trkpt lat="40.09403463180913" lon="9.257670173499228"><ele>1085.0</ele><time>2026-04-30T07:09:00.009Z</time></trkpt><trkpt lat="40.093966588224696" lon="9.257813100522617"><ele>1087.5</ele><time>2026-04-30T07:09:01.009Z</time></trkpt><trkpt lat="40.09394858639207" lon="9.258005574931822"><ele>1090.0</ele><time>2026-04-30T07:09:02.009Z</time></trkpt><trkpt lat="40.09398796892374" lon="9.258210806216704"><ele>1092.5</ele><time>2026-04-30T07:09:03.009Z</time></trkpt><trkpt lat="40.094001338425834" lon="9.258388951045712"><ele>1095.0</ele><time>2026-04-30T07:09:04.009Z</time></trkpt><trkpt lat="40.09393880048033" lon="9.258531023969944"><ele>1095.0</ele><time>2026-04-30T07:09:05.009Z</time></trkpt><trkpt lat="40.093809702342476" lon="9.258627586914324"><ele>1095.0</ele><time>2026-04-30T07:09:06.009Z</time></trkpt><trkpt lat="40.09366487014433" lon="9.258715660365043"><ele>1095.0</ele><time>2026-04-30T07:09:07.009Z</time></trkpt><trkpt lat="40.09351670384355" lon="9.258813184705177"><ele>1095.0</ele><time>2026-04-30T07:09:08.009Z</time></trkpt><trkpt lat="40.09336066098968" lon="9.258927538286686"><ele>1095.0</ele><time>2026-04-30T07:09:09.009Z</time></trkpt><trkpt lat="40.0931800184422" lon="9.25901401260614"><ele>1095.0</ele><time>2026-04-30T07:09:10.009Z</time></trkpt><trkpt lat="40.09298676586211" lon="9.259052414988147"><ele>1091.6666666666667</ele><time>2026-04-30T07:09:11.009Z</time></trkpt><trkpt lat="40.09278762317692" lon="9.259078742148851"><ele>1088.3333333333335</ele><time>2026-04-30T07:09:12.009Z</time></trkpt><trkpt lat="40.09258105090723" lon="9.259104168663415"><ele>1085.0</ele><time>2026-04-30T07:09:13.009Z</time></trkpt><trkpt lat="40.092368831898895" lon="9.259105499462642"><ele>1085.0</ele><time>2026-04-30T07:09:14.009Z</time></trkpt><trkpt lat="40.09215967121341" lon="9.259082532284635"><ele>1085.0</ele><time>2026-04-30T07:09:15.009Z</time></trkpt><trkpt lat="40.09195191769714" lon="9.259051732686252"><ele>1085.0</ele><time>2026-04-30T07:09:16.009Z</time></trkpt><trkpt lat="40.091750819297296" lon="9.258980878689897"><ele>1084.3333333333335</ele><time>2026-04-30T07:09:17.01Z</time></trkpt><trkpt lat="40.091558584139754" lon="9.258880583874387"><ele>1083.6666666666667</ele><time>2026-04-30T07:09:18.026Z</time></trkpt><trkpt lat="40.09140877805759" lon="9.258752779285004"><ele>1083.0</ele><time>2026-04-30T07:09:19.026Z</time></trkpt><trkpt lat="40.09130631906771" lon="9.258588533229018"><ele>1083.0</ele><time>2026-04-30T07:09:20.026Z</time></trkpt><trkpt lat="40.091247695183064" lon="9.258360547159546"><ele>1083.0</ele><time>2026-04-30T07:09:21.026Z</time></trkpt><trkpt lat="40.091208001894515" lon="9.258115902783134"><ele>1083.0</ele><time>2026-04-30T07:09:22.026Z</time></trkpt><trkpt lat="40.091166191996564" lon="9.257874557079123"><ele>1089.3333333333333</ele><time>2026-04-30T07:09:23.026Z</time></trkpt><trkpt lat="40.09112126166531" lon="9.25765721630733"><ele>1095.6666666666665</ele><time>2026-04-30T07:09:24.026Z</time></trkpt><trkpt lat="40.09104895731875" lon="9.257486352880749"><ele>1102.0</ele><time>2026-04-30T07:09:25.026Z</time></trkpt><trkpt lat="40.090930417096814" lon="9.257349503563526"><ele>1102.6666666666665</ele><time>2026-04-30T07:09:26.026Z</time></trkpt><trkpt lat="40.09076358586301" lon="9.257282925167742"><ele>1103.3333333333333</ele><time>2026-04-30T07:09:27.026Z</time></trkpt><trkpt lat="40.09057736853207" lon="9.257279134536189"><ele>1104.0</ele><time>2026-04-30T07:09:28.026Z</time></trkpt><trkpt lat="40.09037790146354" lon="9.257293906905847"><ele>1104.0</ele><time>2026-04-30T07:09:29.026Z</time></trkpt><trkpt lat="40.09017731013229" lon="9.257298635085407"><ele>1104.0</ele><time>2026-04-30T07:09:30.026Z</time></trkpt><trkpt lat="40.08997176116604" lon="9.257324537827788"><ele>1104.0</ele><time>2026-04-30T07:09:31.026Z</time></trkpt><trkpt lat="40.08975827942227" lon="9.257390223868082"><ele>1108.0</ele><time>2026-04-30T07:09:32.026Z</time></trkpt><trkpt lat="40.08954577665525" lon="9.257461478912385"><ele>1112.0</ele><time>2026-04-30T07:09:33.026Z</time></trkpt><trkpt lat="40.08934263640452" lon="9.257526379021032"><ele>1116.0</ele><time>2026-04-30T07:09:34.026Z</time></trkpt><trkpt lat="40.08916692079452" lon="9.257607773509598"><ele>1117.6666666666667</ele><time>2026-04-30T07:09:35.026Z</time></trkpt><trkpt lat="40.08901386787896" lon="9.257718697033921"><ele>1119.3333333333335</ele><time>2026-04-30T07:09:36.026Z</time></trkpt><trkpt lat="40.08891040266" lon="9.257906613717946"><ele>1121.0</ele><time>2026-04-30T07:09:37.026Z</time></trkpt><trkpt lat="40.08881606260084" lon="9.258127487716177"><ele>1121.0</ele><time>2026-04-30T07:09:38.026Z</time></trkpt><trkpt lat="40.08869804099985" lon="9.258336790992688"><ele>1121.0</ele><time>2026-04-30T07:09:39.026Z</time></trkpt><trkpt lat="40.08856845215514" lon="9.258539104453316"><ele>1121.0</ele><time>2026-04-30T07:09:40.026Z</time></trkpt><trkpt lat="40.08845419332385" lon="9.25872308771643"><ele>1121.0</ele><time>2026-04-30T07:09:41.026Z</time></trkpt><trkpt lat="40.08833269601777" lon="9.25888185925413"><ele>1121.0</ele><time>2026-04-30T07:09:42.026Z</time></trkpt><trkpt lat="40.088181685608546" lon="9.258972983976205"><ele>1121.0</ele><time>2026-04-30T07:09:43.026Z</time></trkpt><trkpt lat="40.087983724106095" lon="9.259008609824207"><ele>1120.3333333333335</ele><time>2026-04-30T07:09:44.026Z</time></trkpt><trkpt lat="40.08778615989283" lon="9.259032173113656"><ele>1119.6666666666667</ele><time>2026-04-30T07:09:45.026Z</time></trkpt><trkpt lat="40.08758939248659" lon="9.25906605552577"><ele>1119.0</ele><time>2026-04-30T07:09:46.026Z</time></trkpt><trkpt lat="40.08737943669854" lon="9.259119983434381"><ele>1119.0</ele><time>2026-04-30T07:09:47.026Z</time></trkpt><trkpt lat="40.087180232120055" lon="9.259173072599378"><ele>1119.0</ele><time>2026-04-30T07:09:48.026Z</time></trkpt><trkpt lat="40.086976795368116" lon="9.259226888765939"><ele>1119.0</ele><time>2026-04-30T07:09:49.026Z</time></trkpt><trkpt lat="40.08678110693025" lon="9.259272649788388"><ele>1117.6666666666667</ele><time>2026-04-30T07:09:50.026Z</time></trkpt><trkpt lat="40.086585201783656" lon="9.259282180298916"><ele>1116.3333333333335</ele><time>2026-04-30T07:09:51.026Z</time></trkpt><trkpt lat="40.08638468869104" lon="9.25923693385154"><ele>1115.0</ele><time>2026-04-30T07:09:52.026Z</time></trkpt><trkpt lat="40.08620097833054" lon="9.259135140707626"><ele>1115.0</ele><time>2026-04-30T07:09:53.026Z</time></trkpt><trkpt lat="40.086018529114064" lon="9.25906933653087"><ele>1115.0</ele><time>2026-04-30T07:09:54.026Z</time></trkpt><trkpt lat="40.0858301475085" lon="9.25907309635627"><ele>1115.0</ele><time>2026-04-30T07:09:55.026Z</time></trkpt><trkpt lat="40.085622161194195" lon="9.25914333024576"><ele>1117.0</ele><time>2026-04-30T07:09:56.026Z</time></trkpt><trkpt lat="40.085412637570876" lon="9.259216571368713"><ele>1119.0</ele><time>2026-04-30T07:09:57.026Z</time></trkpt><trkpt lat="40.085206655322864" lon="9.259257505172984"><ele>1121.0</ele><time>2026-04-30T07:09:58.026Z</time></trkpt><trkpt lat="40.08500168540731" lon="9.259292029210343"><ele>1123.0</ele><time>2026-04-30T07:09:59.026Z</time></trkpt><trkpt lat="40.08480379187884" lon="9.259319359672698"><ele>1125.0</ele><time>2026-04-30T07:10:00.026Z</time></trkpt><trkpt lat="40.084597625900976" lon="9.259341975438524"><ele>1127.0</ele><time>2026-04-30T07:10:01.026Z</time></trkpt><trkpt lat="40.08439773943434" lon="9.25937711572042"><ele>1127.0</ele><time>2026-04-30T07:10:02.026Z</time></trkpt><trkpt lat="40.08420334872597" lon="9.259434716417239"><ele>1127.0</ele><time>2026-04-30T07:10:03.026Z</time></trkpt><trkpt lat="40.08401030213294" lon="9.259517864090679"><ele>1127.0</ele><time>2026-04-30T07:10:04.029Z</time></trkpt><trkpt lat="40.08382248132649" lon="9.259620915044422"><ele>1128.3333333333335</ele><time>2026-04-30T07:10:05.029Z</time></trkpt><trkpt lat="40.08363721096348" lon="9.259725056587781"><ele>1129.6666666666667</ele><time>2026-04-30T07:10:06.029Z</time></trkpt><trkpt lat="40.08346697295929" lon="9.259808619258251"><ele>1131.0</ele><time>2026-04-30T07:10:07.029Z</time></trkpt><trkpt lat="40.08332487889378" lon="9.259911509301158"><ele>1131.6666666666667</ele><time>2026-04-30T07:10:08.029Z</time></trkpt><trkpt lat="40.08321980935481" lon="9.260075689454123"><ele>1132.3333333333335</ele><time>2026-04-30T07:10:09.029Z</time></trkpt><trkpt lat="40.083145947666075" lon="9.260294663482842"><ele>1133.0</ele><time>2026-04-30T07:10:10.029Z</time></trkpt><trkpt lat="40.0830963707729" lon="9.260535925665776"><ele>1130.6666666666667</ele><time>2026-04-30T07:10:11.029Z</time></trkpt><trkpt lat="40.08301050318484" lon="9.260742931444048"><ele>1128.3333333333333</ele><time>2026-04-30T07:10:12.029Z</time></trkpt><trkpt lat="40.08288749621211" lon="9.26089036084802"><ele>1126.0</ele><time>2026-04-30T07:10:13.029Z</time></trkpt><trkpt lat="40.082710883569895" lon="9.260976757943752"><ele>1126.0</ele><time>2026-04-30T07:10:14.029Z</time></trkpt><trkpt lat="40.08250019455834" lon="9.261000880337454"><ele>1126.0</ele><time>2026-04-30T07:10:15.029Z</time></trkpt><trkpt lat="40.08228579646956" lon="9.260964976122773"><ele>1126.0</ele><time>2026-04-30T07:10:16.029Z</time></trkpt><trkpt lat="40.08208046779917" lon="9.26087507506764"><ele>1126.6666666666665</ele><time>2026-04-30T07:10:17.029Z</time></trkpt><trkpt lat="40.08187571860384" lon="9.260749134712757"><ele>1127.3333333333333</ele><time>2026-04-30T07:10:18.029Z</time></trkpt><trkpt lat="40.08167684710334" lon="9.260622806323006"><ele>1128.0</ele><time>2026-04-30T07:10:19.029Z</time></trkpt><trkpt lat="40.081475192798415" lon="9.26047462830966"><ele>1128.0</ele><time>2026-04-30T07:10:20.029Z</time></trkpt><trkpt lat="40.08128090683207" lon="9.260339799858786"><ele>1128.0</ele><time>2026-04-30T07:10:21.029Z</time></trkpt><trkpt lat="40.08109511494489" lon="9.26021595030392"><ele>1128.0</ele><time>2026-04-30T07:10:22.029Z</time></trkpt><trkpt lat="40.08089653046716" lon="9.26014987477836"><ele>1129.0</ele><time>2026-04-30T07:10:23.029Z</time></trkpt><trkpt lat="40.08068040359071" lon="9.26015980222054"><ele>1130.0</ele><time>2026-04-30T07:10:24.029Z</time></trkpt><trkpt lat="40.08046025037457" lon="9.260256044520244"><ele>1131.0</ele><time>2026-04-30T07:10:25.029Z</time></trkpt><trkpt lat="40.08024111107847" lon="9.260358316436125"><ele>1131.0</ele><time>2026-04-30T07:10:26.029Z</time></trkpt><trkpt lat="40.08002154439439" lon="9.260443012692884"><ele>1131.0</ele><time>2026-04-30T07:10:27.029Z</time></trkpt><trkpt lat="40.07979776948974" lon="9.260513408728517"><ele>1129.3333333333333</ele><time>2026-04-30T07:10:28.029Z</time></trkpt><trkpt lat="40.07958838331044" lon="9.260584158534186"><ele>1127.6666666666665</ele><time>2026-04-30T07:10:29.029Z</time></trkpt><trkpt lat="40.07940178466897" lon="9.260643452107185"><ele>1126.0</ele><time>2026-04-30T07:10:30.029Z</time></trkpt><trkpt lat="40.07922849712186" lon="9.260652054692146"><ele>1129.6666666666665</ele><time>2026-04-30T07:10:31.029Z</time></trkpt><trkpt lat="40.07906500001849" lon="9.260563754531583"><ele>1133.3333333333333</ele><time>2026-04-30T07:10:32.029Z</time></trkpt><trkpt lat="40.078909084633736" lon="9.260394855259337"><ele>1137.0</ele><time>2026-04-30T07:10:33.029Z</time></trkpt><trkpt lat="40.07874919289998" lon="9.260220971441846"><ele>1137.0</ele><time>2026-04-30T07:10:34.029Z</time></trkpt><trkpt lat="40.0785550417439" lon="9.260128903763398"><ele>1137.0</ele><time>2026-04-30T07:10:35.029Z</time></trkpt><trkpt lat="40.07834219548452" lon="9.260111838280945"><ele>1137.0</ele><time>2026-04-30T07:10:36.029Z</time></trkpt><trkpt lat="40.078118933680294" lon="9.260119171958658"><ele>1135.6666666666667</ele><time>2026-04-30T07:10:37.029Z</time></trkpt><trkpt lat="40.07789685625418" lon="9.260101582199834"><ele>1134.3333333333335</ele><time>2026-04-30T07:10:38.029Z</time></trkpt><trkpt lat="40.07767170238584" lon="9.260073453546859"><ele>1133.0</ele><time>2026-04-30T07:10:39.029Z</time></trkpt><trkpt lat="40.07744670241901" lon="9.260047136906389"><ele>1133.3333333333335</ele><time>2026-04-30T07:10:40.029Z</time></trkpt><trkpt lat="40.07722445464736" lon="9.260019846923935"><ele>1133.6666666666667</ele><time>2026-04-30T07:10:41.029Z</time></trkpt><trkpt lat="40.07700075218675" lon="9.259999520362479"><ele>1134.0</ele><time>2026-04-30T07:10:42.029Z</time></trkpt><trkpt lat="40.076773701917766" lon="9.259982214105301"><ele>1135.3333333333333</ele><time>2026-04-30T07:10:43.029Z</time></trkpt><trkpt lat="40.07654674327646" lon="9.259956609092274"><ele>1136.6666666666665</ele><time>2026-04-30T07:10:44.029Z</time></trkpt><trkpt lat="40.07633063321916" lon="9.259937774045378"><ele>1138.0</ele><time>2026-04-30T07:10:45.029Z</time></trkpt><trkpt lat="40.076124409688745" lon="9.25997865621371"><ele>1138.0</ele><time>2026-04-30T07:10:46.029Z</time></trkpt><trkpt lat="40.075917266115965" lon="9.260096795382562"><ele>1138.0</ele><time>2026-04-30T07:10:47.029Z</time></trkpt><trkpt lat="40.07573950595797" lon="9.260271765876718"><ele>1138.0</ele><time>2026-04-30T07:10:48.029Z</time></trkpt><trkpt lat="40.07555836865041" lon="9.260419622028904"><ele>1139.0</ele><time>2026-04-30T07:10:49.029Z</time></trkpt><trkpt lat="40.075372433734245" lon="9.260556450802735"><ele>1140.0</ele><time>2026-04-30T07:10:50.029Z</time></trkpt><trkpt lat="40.075188124546976" lon="9.260688346894256"><ele>1141.0</ele><time>2026-04-30T07:10:51.029Z</time></trkpt><trkpt lat="40.07499809484885" lon="9.260796199211805"><ele>1140.0</ele><time>2026-04-30T07:10:52.029Z</time></trkpt><trkpt lat="40.074803055936435" lon="9.260854893220452"><ele>1139.0</ele><time>2026-04-30T07:10:53.029Z</time></trkpt><trkpt lat="40.07460609099487" lon="9.260883997083024"><ele>1138.0</ele><time>2026-04-30T07:10:54.029Z</time></trkpt><trkpt lat="40.07442330079525" lon="9.260905217161243"><ele>1138.0</ele><time>2026-04-30T07:10:55.029Z</time></trkpt><trkpt lat="40.07425865217893" lon="9.260939250966631"><ele>1138.0</ele><time>2026-04-30T07:10:56.029Z</time></trkpt><trkpt lat="40.0740891523195" lon="9.260986803547052"><ele>1138.0</ele><time>2026-04-30T07:10:57.029Z</time></trkpt><trkpt lat="40.07390280255877" lon="9.261014999099094"><ele>1137.6666666666665</ele><time>2026-04-30T07:10:58.029Z</time></trkpt><trkpt lat="40.073716849963745" lon="9.261051806801815"><ele>1137.3333333333333</ele><time>2026-04-30T07:10:59.029Z</time></trkpt><trkpt lat="40.07353776045439" lon="9.261052356882606"><ele>1137.0</ele><time>2026-04-30T07:11:00.029Z</time></trkpt><trkpt lat="40.073370634680124" lon="9.260973890336295"><ele>1135.6666666666667</ele><time>2026-04-30T07:11:01.029Z</time></trkpt><trkpt lat="40.07323368027292" lon="9.260785020044032"><ele>1134.3333333333335</ele><time>2026-04-30T07:11:02.029Z</time></trkpt><trkpt lat="40.073103682907764" lon="9.260578090412151"><ele>1133.0</ele><time>2026-04-30T07:11:03.029Z</time></trkpt><trkpt lat="40.07294756468364" lon="9.260392565272129"><ele>1133.0</ele><time>2026-04-30T07:11:04.029Z</time></trkpt><trkpt lat="40.072787386663684" lon="9.260214200852527"><ele>1133.0</ele><time>2026-04-30T07:11:05.029Z</time></trkpt><trkpt lat="40.07261346157244" lon="9.260043032495302"><ele>1133.0</ele><time>2026-04-30T07:11:06.029Z</time></trkpt><trkpt lat="40.07242137018169" lon="9.259901250485772"><ele>1136.5</ele><time>2026-04-30T07:11:07.029Z</time></trkpt><trkpt lat="40.072207648467305" lon="9.259794672916705"><ele>1140.0</ele><time>2026-04-30T07:11:08.029Z</time></trkpt><trkpt lat="40.07198837558964" lon="9.259699684799786"><ele>1135.6666666666667</ele><time>2026-04-30T07:11:09.029Z</time></trkpt><trkpt lat="40.071785351138644" lon="9.259632932793837"><ele>1131.3333333333335</ele><time>2026-04-30T07:11:10.029Z</time></trkpt><trkpt lat="40.07156901476411" lon="9.25957378781583"><ele>1127.0</ele><time>2026-04-30T07:11:11.029Z</time></trkpt><trkpt lat="40.07137930911398" lon="9.259470153955933"><ele>1127.0</ele><time>2026-04-30T07:11:12.029Z</time></trkpt><trkpt lat="40.07121231157792" lon="9.259302127603041"><ele>1127.0</ele><time>2026-04-30T07:11:13.029Z</time></trkpt><trkpt lat="40.071066000749965" lon="9.259103829754359"><ele>1127.0</ele><time>2026-04-30T07:11:14.029Z</time></trkpt><trkpt lat="40.070924314112034" lon="9.258935221791639"><ele>1117.0</ele><time>2026-04-30T07:11:15.029Z</time></trkpt><trkpt lat="40.07075784442058" lon="9.258822121332026"><ele>1107.0</ele><time>2026-04-30T07:11:16.029Z</time></trkpt><trkpt lat="40.07058075257553" lon="9.258769379358588"><ele>1097.0</ele><time>2026-04-30T07:11:17.029Z</time></trkpt><trkpt lat="40.07040239417196" lon="9.258804166822138"><ele>1097.0</ele><time>2026-04-30T07:11:18.029Z</time></trkpt><trkpt lat="40.07021612082025" lon="9.258891876877618"><ele>1097.0</ele><time>2026-04-30T07:11:19.029Z</time></trkpt><trkpt lat="40.070020733707494" lon="9.259012736253869"><ele>1097.0</ele><time>2026-04-30T07:11:20.029Z</time></trkpt><trkpt lat="40.06983482246672" lon="9.259033685366266"><ele>1100.5</ele><time>2026-04-30T07:11:21.029Z</time></trkpt><trkpt lat="40.069621234246156" lon="9.259146344844092"><ele>1104.0</ele><time>2026-04-30T07:11:22.029Z</time></trkpt><trkpt lat="40.06941182116998" lon="9.259252022349534"><ele>1104.0</ele><time>2026-04-30T07:11:23.029Z</time></trkpt><trkpt lat="40.069202504602515" lon="9.25931785761244"><ele>1104.0</ele><time>2026-04-30T07:11:24.03Z</time></trkpt><trkpt lat="40.06899158449325" lon="9.259373319178277"><ele>1104.0</ele><time>2026-04-30T07:11:25.03Z</time></trkpt><trkpt lat="40.06883975932696" lon="9.259462465636004"><ele>1099.0</ele><time>2026-04-30T07:11:26.03Z</time></trkpt><trkpt lat="40.068708835126415" lon="9.259632816972347"><ele>1094.0</ele><time>2026-04-30T07:11:27.03Z</time></trkpt><trkpt lat="40.068609725367914" lon="9.259877696817858"><ele>1089.0</ele><time>2026-04-30T07:11:28.03Z</time></trkpt><trkpt lat="40.06850996982433" lon="9.260122047957214"><ele>1089.0</ele><time>2026-04-30T07:11:29.03Z</time></trkpt><trkpt lat="40.068438768874806" lon="9.260365468791397"><ele>1089.0</ele><time>2026-04-30T07:11:30.03Z</time></trkpt><trkpt lat="40.06836835407489" lon="9.26052937677838"><ele>1089.0</ele><time>2026-04-30T07:11:31.03Z</time></trkpt><trkpt lat="40.06822848265104" lon="9.26059806503951"><ele>1084.0</ele><time>2026-04-30T07:11:32.03Z</time></trkpt><trkpt lat="40.06811144732605" lon="9.260649448838288"><ele>1079.0</ele><time>2026-04-30T07:11:33.03Z</time></trkpt><trkpt lat="40.06800317038628" lon="9.260755241150536"><ele>1074.0</ele><time>2026-04-30T07:11:34.03Z</time></trkpt><trkpt lat="40.06795680344397" lon="9.260971332523477"><ele>1069.0</ele><time>2026-04-30T07:11:35.03Z</time></trkpt><trkpt lat="40.067887264405186" lon="9.261203816484521"><ele>1069.0</ele><time>2026-04-30T07:11:36.03Z</time></trkpt><trkpt lat="40.06775055202451" lon="9.261413794809789"><ele>1069.0</ele><time>2026-04-30T07:11:37.03Z</time></trkpt><trkpt lat="40.06759257828402" lon="9.261612395390998"><ele>1069.0</ele><time>2026-04-30T07:11:38.03Z</time></trkpt><trkpt lat="40.06743689751499" lon="9.261822280565355"><ele>1068.3333333333333</ele><time>2026-04-30T07:11:39.03Z</time></trkpt><trkpt lat="40.06725524433704" lon="9.261986591973331"><ele>1067.6666666666667</ele><time>2026-04-30T07:11:40.03Z</time></trkpt><trkpt lat="40.067070935742734" lon="9.262112285417391"><ele>1067.0</ele><time>2026-04-30T07:11:41.03Z</time></trkpt><trkpt lat="40.06692177260571" lon="9.262269748414347"><ele>1071.0</ele><time>2026-04-30T07:11:42.03Z</time></trkpt><trkpt lat="40.06680747085453" lon="9.262434984176"><ele>1075.0</ele><time>2026-04-30T07:11:43.03Z</time></trkpt><trkpt lat="40.066676416406295" lon="9.26251460048399"><ele>1079.0</ele><time>2026-04-30T07:11:44.03Z</time></trkpt><trkpt lat="40.06649600001471" lon="9.262518682421634"><ele>1079.0</ele><time>2026-04-30T07:11:45.03Z</time></trkpt><trkpt lat="40.06632654464353" lon="9.262459607615398"><ele>1079.0</ele><time>2026-04-30T07:11:46.03Z</time></trkpt><trkpt lat="40.066182122352345" lon="9.262381989489299"><ele>1079.0</ele><time>2026-04-30T07:11:47.03Z</time></trkpt><trkpt lat="40.06602113729933" lon="9.262392132887644"><ele>1079.0</ele><time>2026-04-30T07:11:48.03Z</time></trkpt><trkpt lat="40.06585793320042" lon="9.262553168487413"><ele>1079.0</ele><time>2026-04-30T07:11:49.03Z</time></trkpt><trkpt lat="40.06567839059242" lon="9.262691567539058"><ele>1079.0</ele><time>2026-04-30T07:11:50.03Z</time></trkpt><trkpt lat="40.0654959972771" lon="9.262799365680163"><ele>1071.6666666666667</ele><time>2026-04-30T07:11:51.03Z</time></trkpt><trkpt lat="40.065281372274576" lon="9.262860524067161"><ele>1064.3333333333333</ele><time>2026-04-30T07:11:52.03Z</time></trkpt><trkpt lat="40.06506593449549" lon="9.262924410795614"><ele>1057.0</ele><time>2026-04-30T07:11:53.03Z</time></trkpt><trkpt lat="40.06486527222146" lon="9.263000651786474"><ele>1055.6666666666665</ele><time>2026-04-30T07:11:54.03Z</time></trkpt><trkpt lat="40.064673366397045" lon="9.263065266284078"><ele>1054.3333333333333</ele><time>2026-04-30T07:11:55.03Z</time></trkpt><trkpt lat="40.064486354410285" lon="9.263080028200033"><ele>1053.0</ele><time>2026-04-30T07:11:56.03Z</time></trkpt><trkpt lat="40.06429668433608" lon="9.263018505216479"><ele>1053.0</ele><time>2026-04-30T07:11:57.03Z</time></trkpt><trkpt lat="40.06412783896962" lon="9.262972393627274"><ele>1053.0</ele><time>2026-04-30T07:11:58.03Z</time></trkpt><trkpt lat="40.0639683097653" lon="9.263022785264523"><ele>1053.0</ele><time>2026-04-30T07:11:59.03Z</time></trkpt><trkpt lat="40.063812019188084" lon="9.263120370576402"><ele>1057.25</ele><time>2026-04-30T07:12:00.03Z</time></trkpt><trkpt lat="40.06367045594065" lon="9.263171766752798"><ele>1061.5</ele><time>2026-04-30T07:12:01.03Z</time></trkpt><trkpt lat="40.063572948635624" lon="9.263169347854596"><ele>1065.75</ele><time>2026-04-30T07:12:02.03Z</time></trkpt><trkpt lat="40.06347850322932" lon="9.263039807138352"><ele>1070.0</ele><time>2026-04-30T07:12:03.03Z</time></trkpt><trkpt lat="40.06344579276199" lon="9.26282310103341"><ele>1070.0</ele><time>2026-04-30T07:12:04.03Z</time></trkpt><trkpt lat="40.06343777730976" lon="9.262590780565471"><ele>1070.0</ele><time>2026-04-30T07:12:05.03Z</time></trkpt><trkpt lat="40.06340128159672" lon="9.262361916619595"><ele>1070.0</ele><time>2026-04-30T07:12:06.03Z</time></trkpt><trkpt lat="40.06337910084079" lon="9.262141466756933"><ele>1074.6666666666667</ele><time>2026-04-30T07:12:07.03Z</time></trkpt><trkpt lat="40.06341357105473" lon="9.261916937007898"><ele>1079.3333333333333</ele><time>2026-04-30T07:12:08.03Z</time></trkpt><trkpt lat="40.06350147198788" lon="9.261704279444947"><ele>1084.0</ele><time>2026-04-30T07:12:09.032Z</time></trkpt><trkpt lat="40.06358376922609" lon="9.26149489046921"><ele>1082.6666666666665</ele><time>2026-04-30T07:12:10.031Z</time></trkpt><trkpt lat="40.06360067245841" lon="9.261247030854845"><ele>1081.3333333333333</ele><time>2026-04-30T07:12:11.031Z</time></trkpt><trkpt lat="40.063562960127584" lon="9.261004747679412"><ele>1080.0</ele><time>2026-04-30T07:12:12.032Z</time></trkpt><trkpt lat="40.06348409384183" lon="9.260781088294356"><ele>1074.6666666666667</ele><time>2026-04-30T07:12:13.031Z</time></trkpt><trkpt lat="40.0633664284621" lon="9.260586815126455"><ele>1069.3333333333335</ele><time>2026-04-30T07:12:14.031Z</time></trkpt><trkpt lat="40.063199204131394" lon="9.260404451194866"><ele>1064.0</ele><time>2026-04-30T07:12:15.032Z</time></trkpt><trkpt lat="40.06303706248266" lon="9.2602187013433"><ele>1070.3333333333335</ele><time>2026-04-30T07:12:16.032Z</time></trkpt><trkpt lat="40.062910414025225" lon="9.260009521544648"><ele>1076.6666666666667</ele><time>2026-04-30T07:12:17.032Z</time></trkpt><trkpt lat="40.062801426279776" lon="9.259803758023109"><ele>1083.0</ele><time>2026-04-30T07:12:18.031Z</time></trkpt><trkpt lat="40.062689141988315" lon="9.259636993739987"><ele>1083.0</ele><time>2026-04-30T07:12:19.032Z</time></trkpt><trkpt lat="40.06257884341218" lon="9.259493039469627"><ele>1083.0</ele><time>2026-04-30T07:12:20.032Z</time></trkpt><trkpt lat="40.0625318709843" lon="9.259310835009734"><ele>1083.0</ele><time>2026-04-30T07:12:21.031Z</time></trkpt><trkpt lat="40.062516325974045" lon="9.259072369519885"><ele>1085.3333333333333</ele><time>2026-04-30T07:12:22.032Z</time></trkpt><trkpt lat="40.06246196636246" lon="9.258855810452054"><ele>1087.6666666666665</ele><time>2026-04-30T07:12:23.032Z</time></trkpt><trkpt lat="40.06234285974542" lon="9.258672763948937"><ele>1090.0</ele><time>2026-04-30T07:12:24.032Z</time></trkpt><trkpt lat="40.062166591680246" lon="9.258529277119509"><ele>1090.0</ele><time>2026-04-30T07:12:25.032Z</time></trkpt><trkpt lat="40.06196339254635" lon="9.258437330401435"><ele>1090.0</ele><time>2026-04-30T07:12:26.032Z</time></trkpt><trkpt lat="40.0617607831741" lon="9.258352728372813"><ele>1090.0</ele><time>2026-04-30T07:12:27.032Z</time></trkpt><trkpt lat="40.061558245663804" lon="9.258264889405012"><ele>1094.0</ele><time>2026-04-30T07:12:28.032Z</time></trkpt><trkpt lat="40.061372960975326" lon="9.258209651681819"><ele>1098.0</ele><time>2026-04-30T07:12:29.032Z</time></trkpt><trkpt lat="40.06117655670926" lon="9.258179572228238"><ele>1102.0</ele><time>2026-04-30T07:12:30.032Z</time></trkpt><trkpt lat="40.060973937808946" lon="9.258156940423891"><ele>1102.0</ele><time>2026-04-30T07:12:31.032Z</time></trkpt><trkpt lat="40.060786356925846" lon="9.258150123119986"><ele>1102.0</ele><time>2026-04-30T07:12:32.032Z</time></trkpt><trkpt lat="40.06062326136335" lon="9.258198171799087"><ele>1102.0</ele><time>2026-04-30T07:12:33.032Z</time></trkpt><trkpt lat="40.06049820354003" lon="9.258284082612455"><ele>1103.75</ele><time>2026-04-30T07:12:34.032Z</time></trkpt><trkpt lat="40.06038074041969" lon="9.25830520305476"><ele>1105.5</ele><time>2026-04-30T07:12:35.032Z</time></trkpt><trkpt lat="40.060257978154056" lon="9.258222832747116"><ele>1107.25</ele><time>2026-04-30T07:12:36.032Z</time></trkpt><trkpt lat="40.06013382300605" lon="9.258049262638519"><ele>1109.0</ele><time>2026-04-30T07:12:37.032Z</time></trkpt><trkpt lat="40.06000456722096" lon="9.257949243418803"><ele>1109.3333333333335</ele><time>2026-04-30T07:12:38.032Z</time></trkpt><trkpt lat="40.05984438677841" lon="9.25796053547721"><ele>1109.6666666666667</ele><time>2026-04-30T07:12:39.032Z</time></trkpt><trkpt lat="40.059674343440065" lon="9.25808243764628"><ele>1110.0</ele><time>2026-04-30T07:12:40.032Z</time></trkpt><trkpt lat="40.059503483211465" lon="9.258244184777928"><ele>1110.0</ele><time>2026-04-30T07:12:41.032Z</time></trkpt><trkpt lat="40.05933334178491" lon="9.258365025338954"><ele>1110.0</ele><time>2026-04-30T07:12:42.032Z</time></trkpt><trkpt lat="40.05914120023152" lon="9.258432477499593"><ele>1110.0</ele><time>2026-04-30T07:12:43.032Z</time></trkpt><trkpt lat="40.05893916148129" lon="9.258458796562303"><ele>1113.3333333333333</ele><time>2026-04-30T07:12:44.032Z</time></trkpt><trkpt lat="40.058752961130565" lon="9.258458955563816"><ele>1116.6666666666665</ele><time>2026-04-30T07:12:45.032Z</time></trkpt><trkpt lat="40.05859717217795" lon="9.258421608659472"><ele>1120.0</ele><time>2026-04-30T07:12:46.032Z</time></trkpt><trkpt lat="40.05848945646309" lon="9.258335606014066"><ele>1120.0</ele><time>2026-04-30T07:12:47.032Z</time></trkpt><trkpt lat="40.05843323200395" lon="9.258150028807693"><ele>1120.0</ele><time>2026-04-30T07:12:48.032Z</time></trkpt><trkpt lat="40.058425360447174" lon="9.257903040530495"><ele>1120.0</ele><time>2026-04-30T07:12:49.032Z</time></trkpt><trkpt lat="40.058406834232024" lon="9.257655876840754"><ele>1121.6666666666665</ele><time>2026-04-30T07:12:50.032Z</time></trkpt><trkpt lat="40.05832782296279" lon="9.25743569922518"><ele>1123.3333333333333</ele><time>2026-04-30T07:12:51.032Z</time></trkpt><trkpt lat="40.05819962270674" lon="9.257289058768196"><ele>1125.0</ele><time>2026-04-30T07:12:52.032Z</time></trkpt><trkpt lat="40.05806209130024" lon="9.257180092629826"><ele>1125.0</ele><time>2026-04-30T07:12:53.032Z</time></trkpt><trkpt lat="40.057941903530114" lon="9.25708839135108"><ele>1125.0</ele><time>2026-04-30T07:12:54.032Z</time></trkpt><trkpt lat="40.05788774836645" lon="9.256959926410152"><ele>1125.0</ele><time>2026-04-30T07:12:55.032Z</time></trkpt><trkpt lat="40.057882255425234" lon="9.256816582047298"><ele>1125.0</ele><time>2026-04-30T07:12:56.032Z</time></trkpt><trkpt lat="40.05794036846415" lon="9.256628243431368"><ele>1125.0</ele><time>2026-04-30T07:12:57.032Z</time></trkpt><trkpt lat="40.058033216233426" lon="9.256461279210699"><ele>1125.0</ele><time>2026-04-30T07:12:58.032Z</time></trkpt><trkpt lat="40.058072441948134" lon="9.256262574351812"><ele>1125.0</ele><time>2026-04-30T07:12:59.032Z</time></trkpt><trkpt lat="40.05804104391256" lon="9.256045210368045"><ele>1123.3333333333333</ele><time>2026-04-30T07:13:00.032Z</time></trkpt><trkpt lat="40.05796382389353" lon="9.255833375098746"><ele>1121.6666666666665</ele><time>2026-04-30T07:13:01.032Z</time></trkpt><trkpt lat="40.05789757258014" lon="9.255614154397833"><ele>1120.0</ele><time>2026-04-30T07:13:02.032Z</time></trkpt><trkpt lat="40.05790166347218" lon="9.255415400283107"><ele>1115.0</ele><time>2026-04-30T07:13:03.032Z</time></trkpt><trkpt lat="40.05794546636905" lon="9.25519495273369"><ele>1110.0</ele><time>2026-04-30T07:13:04.032Z</time></trkpt><trkpt lat="40.05793715527788" lon="9.25499616778733"><ele>1105.0</ele><time>2026-04-30T07:13:05.032Z</time></trkpt><trkpt lat="40.05782840623464" lon="9.25479957332033"><ele>1105.0</ele><time>2026-04-30T07:13:06.032Z</time></trkpt><trkpt lat="40.05766268238951" lon="9.254630846251112"><ele>1105.0</ele><time>2026-04-30T07:13:07.032Z</time></trkpt><trkpt lat="40.05746298531603" lon="9.254522535232363"><ele>1105.0</ele><time>2026-04-30T07:13:08.032Z</time></trkpt><trkpt lat="40.05725750628646" lon="9.254441790986956"><ele>1105.0</ele><time>2026-04-30T07:13:09.032Z</time></trkpt><trkpt lat="40.05709549275584" lon="9.25430003759676"><ele>1105.0</ele><time>2026-04-30T07:13:10.032Z</time></trkpt><trkpt lat="40.05700522467494" lon="9.254085322644352"><ele>1105.0</ele><time>2026-04-30T07:13:11.032Z</time></trkpt><trkpt lat="40.0569704400792" lon="9.25382480117676"><ele>1097.3333333333333</ele><time>2026-04-30T07:13:12.032Z</time></trkpt><trkpt lat="40.056923561499296" lon="9.253577446070505"><ele>1089.6666666666667</ele><time>2026-04-30T07:13:13.032Z</time></trkpt><trkpt lat="40.05681686009733" lon="9.253364245157108"><ele>1082.0</ele><time>2026-04-30T07:13:14.032Z</time></trkpt><trkpt lat="40.05667961726008" lon="9.253186500562695"><ele>1074.6666666666667</ele><time>2026-04-30T07:13:15.032Z</time></trkpt><trkpt lat="40.05655784367696" lon="9.253046357209783"><ele>1067.3333333333333</ele><time>2026-04-30T07:13:16.032Z</time></trkpt><trkpt lat="40.05642860504567" lon="9.252950641384787"><ele>1060.0</ele><time>2026-04-30T07:13:17.032Z</time></trkpt><trkpt lat="40.05627327064905" lon="9.252963861246558"><ele>1060.0</ele><time>2026-04-30T07:13:18.032Z</time></trkpt><trkpt lat="40.0560912160004" lon="9.253100826885623"><ele>1060.0</ele><time>2026-04-30T07:13:19.032Z</time></trkpt><trkpt lat="40.05592026543664" lon="9.253224853800775"><ele>1060.0</ele><time>2026-04-30T07:13:20.032Z</time></trkpt><trkpt lat="40.05575400851489" lon="9.253303964689534"><ele>1065.0</ele><time>2026-04-30T07:13:21.032Z</time></trkpt><trkpt lat="40.055594458478325" lon="9.2533064468317"><ele>1070.0</ele><time>2026-04-30T07:13:22.032Z</time></trkpt><trkpt lat="40.055447928759826" lon="9.253245488204236"><ele>1075.0</ele><time>2026-04-30T07:13:23.032Z</time></trkpt><trkpt lat="40.0553422736256" lon="9.253113009592655"><ele>1075.0</ele><time>2026-04-30T07:13:24.032Z</time></trkpt><trkpt lat="40.055298477554466" lon="9.25292570700682"><ele>1075.0</ele><time>2026-04-30T07:13:25.032Z</time></trkpt><trkpt lat="40.05529811973716" lon="9.252701552433733"><ele>1075.0</ele><time>2026-04-30T07:13:26.032Z</time></trkpt><trkpt lat="40.055311922815115" lon="9.25246483841052"><ele>1070.0</ele><time>2026-04-30T07:13:27.032Z</time></trkpt><trkpt lat="40.055309728507716" lon="9.252258466636023"><ele>1065.0</ele><time>2026-04-30T07:13:28.032Z</time></trkpt><trkpt lat="40.05525628189747" lon="9.252114128202038"><ele>1060.0</ele><time>2026-04-30T07:13:29.032Z</time></trkpt><trkpt lat="40.05512520945033" lon="9.252030439142896"><ele>1055.0</ele><time>2026-04-30T07:13:30.032Z</time></trkpt><trkpt lat="40.05492471080592" lon="9.25204479358586"><ele>1050.6666666666667</ele><time>2026-04-30T07:13:31.032Z</time></trkpt><trkpt lat="40.05470586934753" lon="9.252087769484618"><ele>1046.3333333333333</ele><time>2026-04-30T07:13:32.032Z</time></trkpt><trkpt lat="40.05449316066038" lon="9.252125319471677"><ele>1042.0</ele><time>2026-04-30T07:13:33.032Z</time></trkpt><trkpt lat="40.05430264728364" lon="9.252134546184061"><ele>1042.0</ele><time>2026-04-30T07:13:34.032Z</time></trkpt><trkpt lat="40.05414316735382" lon="9.25217555931066"><ele>1042.0</ele><time>2026-04-30T07:13:35.032Z</time></trkpt><trkpt lat="40.05401682335301" lon="9.252349248311138"><ele>1042.0</ele><time>2026-04-30T07:13:36.032Z</time></trkpt><trkpt lat="40.05390967827551" lon="9.252537662519439"><ele>1047.25</ele><time>2026-04-30T07:13:37.032Z</time></trkpt><trkpt lat="40.05382165524761" lon="9.252701586941994"><ele>1052.5</ele><time>2026-04-30T07:13:38.032Z</time></trkpt><trkpt lat="40.05371538667565" lon="9.252786600979944"><ele>1057.75</ele><time>2026-04-30T07:13:39.032Z</time></trkpt><trkpt lat="40.05359062111651" lon="9.252782011655512"><ele>1063.0</ele><time>2026-04-30T07:13:40.032Z</time></trkpt><trkpt lat="40.05346614055561" lon="9.252679997942824"><ele>1063.0</ele><time>2026-04-30T07:13:41.032Z</time></trkpt><trkpt lat="40.053348432450115" lon="9.252494907884396"><ele>1063.0</ele><time>2026-04-30T07:13:42.032Z</time></trkpt><trkpt lat="40.053242252141665" lon="9.252299410719914"><ele>1063.0</ele><time>2026-04-30T07:13:43.032Z</time></trkpt><trkpt lat="40.05309471172476" lon="9.252123723317583"><ele>1057.3333333333333</ele><time>2026-04-30T07:13:44.032Z</time></trkpt><trkpt lat="40.0529032196831" lon="9.251986372976697"><ele>1051.6666666666667</ele><time>2026-04-30T07:13:45.032Z</time></trkpt><trkpt lat="40.05268842385411" lon="9.2518962562854"><ele>1046.0</ele><time>2026-04-30T07:13:46.032Z</time></trkpt><trkpt lat="40.05246834354878" lon="9.251826831386301"><ele>1050.6666666666667</ele><time>2026-04-30T07:13:47.032Z</time></trkpt><trkpt lat="40.052274866181676" lon="9.251780740189657"><ele>1055.3333333333333</ele><time>2026-04-30T07:13:48.032Z</time></trkpt><trkpt lat="40.05212041293432" lon="9.25168160484877"><ele>1060.0</ele><time>2026-04-30T07:13:49.032Z</time></trkpt><trkpt lat="40.05195826030376" lon="9.251488652434986"><ele>1051.3333333333333</ele><time>2026-04-30T07:13:50.032Z</time></trkpt><trkpt lat="40.051817400216336" lon="9.251265173058025"><ele>1042.6666666666667</ele><time>2026-04-30T07:13:51.032Z</time></trkpt><trkpt lat="40.05168987417698" lon="9.251072649932828"><ele>1034.0</ele><time>2026-04-30T07:13:52.032Z</time></trkpt><trkpt lat="40.05157910366233" lon="9.250932755683733"><ele>1032.0</ele><time>2026-04-30T07:13:53.032Z</time></trkpt><trkpt lat="40.05143376366486" lon="9.250882995872102"><ele>1030.0</ele><time>2026-04-30T07:13:54.032Z</time></trkpt><trkpt lat="40.0512327552344" lon="9.250949062069218"><ele>1028.0</ele><time>2026-04-30T07:13:55.032Z</time></trkpt><trkpt lat="40.05102951621327" lon="9.251044067610907"><ele>1028.0</ele><time>2026-04-30T07:13:56.032Z</time></trkpt><trkpt lat="40.050836248141" lon="9.25114585602913"><ele>1028.0</ele><time>2026-04-30T07:13:57.032Z</time></trkpt><trkpt lat="40.05067487761917" lon="9.251205117477763"><ele>1028.0</ele><time>2026-04-30T07:13:58.032Z</time></trkpt><trkpt lat="40.050530765708686" lon="9.25123470687154"><ele>1027.75</ele><time>2026-04-30T07:13:59.032Z</time></trkpt><trkpt lat="40.050402634674086" lon="9.25121121897214"><ele>1027.5</ele><time>2026-04-30T07:14:00.032Z</time></trkpt><trkpt lat="40.05032842698989" lon="9.251104686805188"><ele>1027.25</ele><time>2026-04-30T07:14:01.032Z</time></trkpt><trkpt lat="40.050279923048365" lon="9.250937233005127"><ele>1027.0</ele><time>2026-04-30T07:14:02.032Z</time></trkpt><trkpt lat="40.05018720255256" lon="9.250774532333907"><ele>1027.0</ele><time>2026-04-30T07:14:03.032Z</time></trkpt><trkpt lat="40.05004990013082" lon="9.250674926038874"><ele>1027.0</ele><time>2026-04-30T07:14:04.032Z</time></trkpt><trkpt lat="40.049893433648094" lon="9.250627248177075"><ele>1027.0</ele><time>2026-04-30T07:14:05.032Z</time></trkpt><trkpt lat="40.04973453666565" lon="9.250608043609308"><ele>1022.3333333333333</ele><time>2026-04-30T07:14:06.032Z</time></trkpt><trkpt lat="40.04958451558204" lon="9.250649978625258"><ele>1017.6666666666667</ele><time>2026-04-30T07:14:07.032Z</time></trkpt><trkpt lat="40.04945639326304" lon="9.250762879701666"><ele>1013.0</ele><time>2026-04-30T07:14:08.032Z</time></trkpt><trkpt lat="40.04938243992501" lon="9.250962823148074"><ele>1013.0</ele><time>2026-04-30T07:14:09.032Z</time></trkpt><trkpt lat="40.049368466176745" lon="9.251187847826369"><ele>1013.0</ele><time>2026-04-30T07:14:10.033Z</time></trkpt><trkpt lat="40.04935833734299" lon="9.25136855573"><ele>1013.0</ele><time>2026-04-30T07:14:11.033Z</time></trkpt><trkpt lat="40.049295800421156" lon="9.251500902409632"><ele>1013.0</ele><time>2026-04-30T07:14:12.033Z</time></trkpt><trkpt lat="40.04919111696659" lon="9.251557709160643"><ele>1010.3333333333334</ele><time>2026-04-30T07:14:13.033Z</time></trkpt><trkpt lat="40.049039130443646" lon="9.251551680724962"><ele>1007.6666666666667</ele><time>2026-04-30T07:14:14.033Z</time></trkpt><trkpt lat="40.048879723547444" lon="9.251490128454625"><ele>1005.0</ele><time>2026-04-30T07:14:15.034Z</time></trkpt><trkpt lat="40.0487091836055" lon="9.251411680768035"><ele>1005.0</ele><time>2026-04-30T07:14:16.034Z</time></trkpt><trkpt lat="40.04853323316575" lon="9.2513444690053"><ele>1005.0</ele><time>2026-04-30T07:14:17.034Z</time></trkpt><trkpt lat="40.048344239852156" lon="9.25132155229337"><ele>1005.0</ele><time>2026-04-30T07:14:18.034Z</time></trkpt><trkpt lat="40.048148011099606" lon="9.251362818720413"><ele>1002.6666666666667</ele><time>2026-04-30T07:14:19.034Z</time></trkpt><trkpt lat="40.0479508260332" lon="9.251454055678893"><ele>1000.3333333333334</ele><time>2026-04-30T07:14:20.034Z</time></trkpt><trkpt lat="40.04774953186568" lon="9.251573889584328"><ele>998.0</ele><time>2026-04-30T07:14:21.035Z</time></trkpt><trkpt lat="40.04754478875365" lon="9.251666702609153"><ele>1000.0</ele><time>2026-04-30T07:14:22.034Z</time></trkpt><trkpt lat="40.047331947488345" lon="9.251725667249714"><ele>1002.0</ele><time>2026-04-30T07:14:23.035Z</time></trkpt><trkpt lat="40.04710883802978" lon="9.25176354084176"><ele>1004.0</ele><time>2026-04-30T07:14:24.034Z</time></trkpt><trkpt lat="40.0469017445488" lon="9.2517852669762"><ele>1004.0</ele><time>2026-04-30T07:14:25.034Z</time></trkpt><trkpt lat="40.046717015298846" lon="9.25180260323277"><ele>1004.0</ele><time>2026-04-30T07:14:26.034Z</time></trkpt><trkpt lat="40.04654703731988" lon="9.251848166794499"><ele>1004.0</ele><time>2026-04-30T07:14:27.034Z</time></trkpt><trkpt lat="40.046397802386956" lon="9.251979104955057"><ele>1000.0</ele><time>2026-04-30T07:14:28.035Z</time></trkpt><trkpt lat="40.04626857743542" lon="9.2521711225082"><ele>996.0</ele><time>2026-04-30T07:14:29.035Z</time></trkpt><trkpt lat="40.04617946353982" lon="9.25240437208728"><ele>992.0</ele><time>2026-04-30T07:14:30.035Z</time></trkpt><trkpt lat="40.04610829736633" lon="9.252627515340231"><ele>992.0</ele><time>2026-04-30T07:14:31.035Z</time></trkpt><trkpt lat="40.04601115725521" lon="9.25282414338074"><ele>992.0</ele><time>2026-04-30T07:14:32.035Z</time></trkpt><trkpt lat="40.04585810680316" lon="9.252987790354899"><ele>992.0</ele><time>2026-04-30T07:14:33.035Z</time></trkpt><trkpt lat="40.04567279466745" lon="9.253142105923391"><ele>990.3333333333334</ele><time>2026-04-30T07:14:34.035Z</time></trkpt><trkpt lat="40.045476500622016" lon="9.253278510941982"><ele>988.6666666666667</ele><time>2026-04-30T07:14:35.035Z</time></trkpt><trkpt lat="40.045286533279594" lon="9.253362469036649"><ele>987.0</ele><time>2026-04-30T07:14:36.035Z</time></trkpt><trkpt lat="40.04511977381183" lon="9.253465718121578"><ele>987.0</ele><time>2026-04-30T07:14:37.035Z</time></trkpt><trkpt lat="40.044968132715475" lon="9.253601283316694"><ele>987.0</ele><time>2026-04-30T07:14:38.035Z</time></trkpt><trkpt lat="40.04484662643298" lon="9.253760769684215"><ele>987.0</ele><time>2026-04-30T07:14:39.035Z</time></trkpt><trkpt lat="40.04479003883452" lon="9.253963631532708"><ele>981.0</ele><time>2026-04-30T07:14:40.035Z</time></trkpt><trkpt lat="40.044792637120445" lon="9.25421702621386"><ele>975.0</ele><time>2026-04-30T07:14:41.035Z</time></trkpt><trkpt lat="40.04480362937858" lon="9.254486171048672"><ele>969.0</ele><time>2026-04-30T07:14:42.035Z</time></trkpt><trkpt lat="40.04483175670116" lon="9.25476000986581"><ele>968.6666666666667</ele><time>2026-04-30T07:14:43.035Z</time></trkpt><trkpt lat="40.04488588681278" lon="9.255007370741794"><ele>968.3333333333334</ele><time>2026-04-30T07:14:44.035Z</time></trkpt><trkpt lat="40.044936102887156" lon="9.255237816848659"><ele>968.0</ele><time>2026-04-30T07:14:45.035Z</time></trkpt><trkpt lat="40.0449367669808" lon="9.25544859470757"><ele>972.5</ele><time>2026-04-30T07:14:46.035Z</time></trkpt><trkpt lat="40.04490041938171" lon="9.255634852756527"><ele>977.0</ele><time>2026-04-30T07:14:47.035Z</time></trkpt><trkpt lat="40.04485024814318" lon="9.25580423319416"><ele>981.5</ele><time>2026-04-30T07:14:48.035Z</time></trkpt><trkpt lat="40.044776034968734" lon="9.255941832675608"><ele>986.0</ele><time>2026-04-30T07:14:49.035Z</time></trkpt><trkpt lat="40.04469316444978" lon="9.256084373606738"><ele>986.0</ele><time>2026-04-30T07:14:50.035Z</time></trkpt><trkpt lat="40.04459175595401" lon="9.256208910942663"><ele>986.0</ele><time>2026-04-30T07:14:51.035Z</time></trkpt><trkpt lat="40.04447314602839" lon="9.256269038281706"><ele>986.0</ele><time>2026-04-30T07:14:52.035Z</time></trkpt><trkpt lat="40.04435523206493" lon="9.256232851491761"><ele>986.0</ele><time>2026-04-30T07:14:53.035Z</time></trkpt><trkpt lat="40.04424931778946" lon="9.256112911371641"><ele>986.0</ele><time>2026-04-30T07:14:54.035Z</time></trkpt><trkpt lat="40.044197007835166" lon="9.255918840800682"><ele>986.0</ele><time>2026-04-30T07:14:55.035Z</time></trkpt><trkpt lat="40.04413791800811" lon="9.255711657428945"><ele>986.0</ele><time>2026-04-30T07:14:56.035Z</time></trkpt><trkpt lat="40.044001887879695" lon="9.255538697347369"><ele>980.0</ele><time>2026-04-30T07:14:57.035Z</time></trkpt><trkpt lat="40.043824510331035" lon="9.255426122915978"><ele>974.0</ele><time>2026-04-30T07:14:58.035Z</time></trkpt><trkpt lat="40.043596985039095" lon="9.255363068417147"><ele>968.0</ele><time>2026-04-30T07:14:59.035Z</time></trkpt><trkpt lat="40.04332929176846" lon="9.255323060390587"><ele>967.0</ele><time>2026-04-30T07:15:00.035Z</time></trkpt><trkpt lat="40.04304957797499" lon="9.255274646880864"><ele>966.0</ele><time>2026-04-30T07:15:01.035Z</time></trkpt><trkpt lat="40.04278519182254" lon="9.255241693935043"><ele>966.0</ele><time>2026-04-30T07:15:02.035Z</time></trkpt><trkpt lat="40.042539276082444" lon="9.25521445094925"><ele>966.0</ele><time>2026-04-30T07:15:03.035Z</time></trkpt><trkpt lat="40.042307132521515" lon="9.255221035248105"><ele>959.5</ele><time>2026-04-30T07:15:04.035Z</time></trkpt><trkpt lat="40.04207648465609" lon="9.255300805745792"><ele>953.0</ele><time>2026-04-30T07:15:05.035Z</time></trkpt><trkpt lat="40.04185257768236" lon="9.255400194359614"><ele>953.0</ele><time>2026-04-30T07:15:06.035Z</time></trkpt><trkpt lat="40.04163615596159" lon="9.255438718589955"><ele>953.0</ele><time>2026-04-30T07:15:07.035Z</time></trkpt><trkpt lat="40.041423841265036" lon="9.255396293125488"><ele>953.0</ele><time>2026-04-30T07:15:08.035Z</time></trkpt><trkpt lat="40.04119546560966" lon="9.25536239352172"><ele>953.0</ele><time>2026-04-30T07:15:09.035Z</time></trkpt><trkpt lat="40.04098784876918" lon="9.255375206874742"><ele>953.0</ele><time>2026-04-30T07:15:10.035Z</time></trkpt><trkpt lat="40.04081703440694" lon="9.255426407406963"><ele>953.0</ele><time>2026-04-30T07:15:11.035Z</time></trkpt><trkpt lat="40.04066685414309" lon="9.255431218374556"><ele>950.0</ele><time>2026-04-30T07:15:12.035Z</time></trkpt><trkpt lat="40.04052479346289" lon="9.25533858896616"><ele>947.0</ele><time>2026-04-30T07:15:13.035Z</time></trkpt><trkpt lat="40.04035974635147" lon="9.255248322923324"><ele>944.0</ele><time>2026-04-30T07:15:14.035Z</time></trkpt><trkpt lat="40.04018140676243" lon="9.25526485407482"><ele>944.0</ele><time>2026-04-30T07:15:15.035Z</time></trkpt><trkpt lat="40.03998654002022" lon="9.255344808457005"><ele>944.0</ele><time>2026-04-30T07:15:16.035Z</time></trkpt><trkpt lat="40.03977849712372" lon="9.255465596582482"><ele>944.0</ele><time>2026-04-30T07:15:17.035Z</time></trkpt><trkpt lat="40.03957763370811" lon="9.255613657147437"><ele>948.0</ele><time>2026-04-30T07:15:18.035Z</time></trkpt><trkpt lat="40.03938708424955" lon="9.255785583382622"><ele>952.0</ele><time>2026-04-30T07:15:19.035Z</time></trkpt><trkpt lat="40.03921218292215" lon="9.255972693205646"><ele>949.0</ele><time>2026-04-30T07:15:20.035Z</time></trkpt><trkpt lat="40.03902855351939" lon="9.256132319365978"><ele>946.0</ele><time>2026-04-30T07:15:21.035Z</time></trkpt><trkpt lat="40.038831678416265" lon="9.256259346200823"><ele>943.0</ele><time>2026-04-30T07:15:22.035Z</time></trkpt><trkpt lat="40.0386224816339" lon="9.256337142359161"><ele>943.0</ele><time>2026-04-30T07:15:23.035Z</time></trkpt><trkpt lat="40.03843472183171" lon="9.25639392769171"><ele>943.0</ele><time>2026-04-30T07:15:24.035Z</time></trkpt><trkpt lat="40.03828056300487" lon="9.25645029073064"><ele>943.0</ele><time>2026-04-30T07:15:25.035Z</time></trkpt><trkpt lat="40.03815549283597" lon="9.256601518259366"><ele>945.6666666666666</ele><time>2026-04-30T07:15:26.035Z</time></trkpt><trkpt lat="40.03807265808829" lon="9.256773805756604"><ele>948.3333333333333</ele><time>2026-04-30T07:15:27.035Z</time></trkpt><trkpt lat="40.03797375538897" lon="9.256907843150506"><ele>951.0</ele><time>2026-04-30T07:15:28.035Z</time></trkpt><trkpt lat="40.0378210950704" lon="9.256969138366676"><ele>951.0</ele><time>2026-04-30T07:15:29.035Z</time></trkpt><trkpt lat="40.037649400203975" lon="9.256999723606576"><ele>951.0</ele><time>2026-04-30T07:15:30.035Z</time></trkpt><trkpt lat="40.03746590855213" lon="9.256989977609331"><ele>951.0</ele><time>2026-04-30T07:15:31.035Z</time></trkpt><trkpt lat="40.03728341053535" lon="9.256947362868146"><ele>956.75</ele><time>2026-04-30T07:15:32.035Z</time></trkpt><trkpt lat="40.037123538640536" lon="9.256905044583918"><ele>962.5</ele><time>2026-04-30T07:15:33.035Z</time></trkpt><trkpt lat="40.03700175940964" lon="9.25684608380947"><ele>968.25</ele><time>2026-04-30T07:15:34.035Z</time></trkpt><trkpt lat="40.03694417016777" lon="9.256713361929625"><ele>974.0</ele><time>2026-04-30T07:15:35.035Z</time></trkpt><trkpt lat="40.036942995770836" lon="9.256534549766926"><ele>981.25</ele><time>2026-04-30T07:15:36.035Z</time></trkpt><trkpt lat="40.03695610075169" lon="9.256342876853823"><ele>988.5</ele><time>2026-04-30T07:15:37.035Z</time></trkpt><trkpt lat="40.03701840178965" lon="9.256183719588071"><ele>995.75</ele><time>2026-04-30T07:15:38.035Z</time></trkpt><trkpt lat="40.037139933253975" lon="9.256109172032177"><ele>1003.0</ele><time>2026-04-30T07:15:39.035Z</time></trkpt><trkpt lat="40.037311698223064" lon="9.256098296875845"><ele>990.6666666666666</ele><time>2026-04-30T07:15:40.035Z</time></trkpt><trkpt lat="40.037470600400816" lon="9.256084564689514"><ele>978.3333333333333</ele><time>2026-04-30T07:15:41.035Z</time></trkpt><trkpt lat="40.03760817502772" lon="9.255949644866169"><ele>966.0</ele><time>2026-04-30T07:15:42.035Z</time></trkpt><trkpt lat="40.03772931217822" lon="9.255774812330923"><ele>977.6666666666667</ele><time>2026-04-30T07:15:43.035Z</time></trkpt><trkpt lat="40.03787476330091" lon="9.255580127188763"><ele>989.3333333333334</ele><time>2026-04-30T07:15:44.035Z</time></trkpt><trkpt lat="40.03802554976147" lon="9.255406032440556"><ele>1001.0</ele><time>2026-04-30T07:15:45.036Z</time></trkpt><trkpt lat="40.0381877719018" lon="9.255232000455134"><ele>995.6666666666667</ele><time>2026-04-30T07:15:46.036Z</time></trkpt><trkpt lat="40.03832840288097" lon="9.25502903730862"><ele>990.3333333333333</ele><time>2026-04-30T07:15:47.036Z</time></trkpt><trkpt lat="40.03845898744902" lon="9.254785476821393"><ele>985.0</ele><time>2026-04-30T07:15:48.036Z</time></trkpt><trkpt lat="40.03857221421899" lon="9.254523946146827"><ele>985.0</ele><time>2026-04-30T07:15:49.036Z</time></trkpt><trkpt lat="40.038666617789076" lon="9.25429625100396"><ele>985.0</ele><time>2026-04-30T07:15:50.036Z</time></trkpt><trkpt lat="40.0387169090426" lon="9.254076306736946"><ele>985.0</ele><time>2026-04-30T07:15:51.036Z</time></trkpt><trkpt lat="40.03869429452884" lon="9.253873359911506"><ele>988.0</ele><time>2026-04-30T07:15:52.036Z</time></trkpt><trkpt lat="40.038605356159195" lon="9.253677518723531"><ele>991.0</ele><time>2026-04-30T07:15:53.036Z</time></trkpt><trkpt lat="40.03852045918974" lon="9.253532460790058"><ele>994.0</ele><time>2026-04-30T07:15:54.036Z</time></trkpt><trkpt lat="40.03848498496322" lon="9.253403371658969"><ele>997.0</ele><time>2026-04-30T07:15:55.036Z</time></trkpt><trkpt lat="40.03852020789992" lon="9.253278616791109"><ele>997.0</ele><time>2026-04-30T07:15:56.036Z</time></trkpt><trkpt lat="40.038624251974106" lon="9.253230705696913"><ele>997.0</ele><time>2026-04-30T07:15:57.036Z</time></trkpt><trkpt lat="40.03876861121507" lon="9.253250548480121"><ele>997.0</ele><time>2026-04-30T07:15:58.036Z</time></trkpt><trkpt lat="40.03893248120538" lon="9.253284880400305"><ele>997.0</ele><time>2026-04-30T07:15:59.036Z</time></trkpt><trkpt lat="40.0391102553927" lon="9.253311953938656"><ele>1000.0</ele><time>2026-04-30T07:16:00.036Z</time></trkpt><trkpt lat="40.03927697937787" lon="9.25330923840821"><ele>1003.0</ele><time>2026-04-30T07:16:01.036Z</time></trkpt><trkpt lat="40.039422309250476" lon="9.253236701042809"><ele>1006.0</ele><time>2026-04-30T07:16:02.036Z</time></trkpt><trkpt lat="40.03957240025791" lon="9.25309843439841"><ele>1006.0</ele><time>2026-04-30T07:16:03.036Z</time></trkpt><trkpt lat="40.03972491736931" lon="9.252937209436093"><ele>1006.0</ele><time>2026-04-30T07:16:04.036Z</time></trkpt><trkpt lat="40.039875297836275" lon="9.252782978181834"><ele>1006.0</ele><time>2026-04-30T07:16:05.036Z</time></trkpt><trkpt lat="40.04001712727614" lon="9.252653130395746"><ele>1006.0</ele><time>2026-04-30T07:16:06.036Z</time></trkpt><trkpt lat="40.040136572692525" lon="9.252541433575434"><ele>1006.0</ele><time>2026-04-30T07:16:07.036Z</time></trkpt><trkpt lat="40.0402355113501" lon="9.252423612650523"><ele>1006.0</ele><time>2026-04-30T07:16:08.036Z</time></trkpt><trkpt lat="40.04029647376099" lon="9.252268405913787"><ele>1006.0</ele><time>2026-04-30T07:16:09.036Z</time></trkpt><trkpt lat="40.04032804431397" lon="9.252095394491311"><ele>1006.0</ele><time>2026-04-30T07:16:10.036Z</time></trkpt><trkpt lat="40.04036479601821" lon="9.251920908664015"><ele>1006.0</ele><time>2026-04-30T07:16:11.036Z</time></trkpt><trkpt lat="40.040408658396444" lon="9.251750532374912"><ele>1006.0</ele><time>2026-04-30T07:16:12.036Z</time></trkpt><trkpt lat="40.04044853579045" lon="9.251581344310436"><ele>1006.0</ele><time>2026-04-30T07:16:13.036Z</time></trkpt><trkpt lat="40.0404884693521" lon="9.251412334039578"><ele>1010.25</ele><time>2026-04-30T07:16:14.036Z</time></trkpt><trkpt lat="40.04053166354316" lon="9.251254306931303"><ele>1014.5</ele><time>2026-04-30T07:16:15.036Z</time></trkpt><trkpt lat="40.04057622356671" lon="9.251096429923974"><ele>1018.75</ele><time>2026-04-30T07:16:16.036Z</time></trkpt><trkpt lat="40.04061527988379" lon="9.250937405105386"><ele>1023.0</ele><time>2026-04-30T07:16:17.036Z</time></trkpt><trkpt lat="40.040641670323566" lon="9.250772494774479"><ele>1024.75</ele><time>2026-04-30T07:16:18.036Z</time></trkpt><trkpt lat="40.04064537996607" lon="9.250612665803558"><ele>1026.5</ele><time>2026-04-30T07:16:19.036Z</time></trkpt><trkpt lat="40.04063012695425" lon="9.250446696277283"><ele>1028.25</ele><time>2026-04-30T07:16:20.036Z</time></trkpt><trkpt lat="40.04060206161422" lon="9.250284954986697"><ele>1030.0</ele><time>2026-04-30T07:16:21.037Z</time></trkpt><trkpt lat="40.040563897282816" lon="9.250122482732472"><ele>1030.0</ele><time>2026-04-30T07:16:22.037Z</time></trkpt><trkpt lat="40.04051509364647" lon="9.249970853594256"><ele>1030.0</ele><time>2026-04-30T07:16:23.037Z</time></trkpt><trkpt lat="40.04045740911762" lon="9.24983747139256"><ele>1030.0</ele><time>2026-04-30T07:16:24.038Z</time></trkpt><trkpt lat="40.04039552773293" lon="9.249711966647025"><ele>1030.0</ele><time>2026-04-30T07:16:25.037Z</time></trkpt><trkpt lat="40.04033707773604" lon="9.249587801850891"><ele>1030.2</ele><time>2026-04-30T07:16:26.037Z</time></trkpt><trkpt lat="40.04031099076361" lon="9.249462319459992"><ele>1030.4</ele><time>2026-04-30T07:16:27.038Z</time></trkpt><trkpt lat="40.04033398669044" lon="9.249340813370969"><ele>1030.6</ele><time>2026-04-30T07:16:28.038Z</time></trkpt><trkpt lat="40.0404037609392" lon="9.24925836131452"><ele>1030.8</ele><time>2026-04-30T07:16:29.038Z</time></trkpt><trkpt lat="40.04050478967117" lon="9.24922704424004"><ele>1031.0</ele><time>2026-04-30T07:16:30.037Z</time></trkpt><trkpt lat="40.040607234108975" lon="9.249238291444112"><ele>1031.0</ele><time>2026-04-30T07:16:31.037Z</time></trkpt><trkpt lat="40.04072149158277" lon="9.249267587186795"><ele>1031.0</ele><time>2026-04-30T07:16:32.037Z</time></trkpt><trkpt lat="40.040840452428554" lon="9.249312212279683"><ele>1031.0</ele><time>2026-04-30T07:16:33.038Z</time></trkpt><trkpt lat="40.040946024583576" lon="9.24934562278389"><ele>1031.0</ele><time>2026-04-30T07:16:34.037Z</time></trkpt><trkpt lat="40.04104112728116" lon="9.249370850725068"><ele>1031.0</ele><time>2026-04-30T07:16:35.037Z</time></trkpt><trkpt lat="40.04112698749261" lon="9.249397973322107"><ele>1027.2</ele><time>2026-04-30T07:16:36.037Z</time></trkpt><trkpt lat="40.04121379038742" lon="9.249432140715589"><ele>1023.3999999999999</ele><time>2026-04-30T07:16:37.037Z</time></trkpt><trkpt lat="40.041308162289916" lon="9.249462117608402"><ele>1019.6</ele><time>2026-04-30T07:16:38.037Z</time></trkpt><trkpt lat="40.041401918553746" lon="9.249462516622312"><ele>1015.8</ele><time>2026-04-30T07:16:39.037Z</time></trkpt><trkpt lat="40.04149161057002" lon="9.249417620643921"><ele>1012.0</ele><time>2026-04-30T07:16:40.037Z</time></trkpt><trkpt lat="40.041552261912535" lon="9.249311499847867"><ele>1012.0</ele><time>2026-04-30T07:16:41.037Z</time></trkpt><trkpt lat="40.041567901560306" lon="9.249170980336727"><ele>1012.0</ele><time>2026-04-30T07:16:42.037Z</time></trkpt><trkpt lat="40.041550564249796" lon="9.249011833516985"><ele>1012.0</ele><time>2026-04-30T07:16:43.037Z</time></trkpt><trkpt lat="40.04153593760302" lon="9.248855375774914"><ele>1012.0</ele><time>2026-04-30T07:16:44.037Z</time></trkpt><trkpt lat="40.04152414152517" lon="9.248690363239225"><ele>1011.25</ele><time>2026-04-30T07:16:45.037Z</time></trkpt><trkpt lat="40.04153305290573" lon="9.248533546376878"><ele>1010.5</ele><time>2026-04-30T07:16:46.037Z</time></trkpt><trkpt lat="40.04158642479861" lon="9.248388063558291"><ele>1009.75</ele><time>2026-04-30T07:16:47.037Z</time></trkpt><trkpt lat="40.04167755147271" lon="9.248265118377613"><ele>1009.0</ele><time>2026-04-30T07:16:48.037Z</time></trkpt><trkpt lat="40.04177014218189" lon="9.248146320479576"><ele>1012.75</ele><time>2026-04-30T07:16:49.037Z</time></trkpt><trkpt lat="40.04185538634789" lon="9.248017378608562"><ele>1016.5</ele><time>2026-04-30T07:16:50.037Z</time></trkpt><trkpt lat="40.041908384522884" lon="9.247874433411464"><ele>1020.25</ele><time>2026-04-30T07:16:51.037Z</time></trkpt><trkpt lat="40.04195426174366" lon="9.247730608461803"><ele>1024.0</ele><time>2026-04-30T07:16:52.037Z</time></trkpt><trkpt lat="40.041997660775195" lon="9.247590040743901"><ele>1024.0</ele><time>2026-04-30T07:16:53.037Z</time></trkpt><trkpt lat="40.04202820180327" lon="9.247441161454582"><ele>1024.0</ele><time>2026-04-30T07:16:54.037Z</time></trkpt><trkpt lat="40.04202620773729" lon="9.247285042690814"><ele>1024.0</ele><time>2026-04-30T07:16:55.037Z</time></trkpt><trkpt lat="40.04199154022966" lon="9.24714319814759"><ele>1024.0</ele><time>2026-04-30T07:16:56.037Z</time></trkpt><trkpt lat="40.04195014602693" lon="9.247000252677811"><ele>1025.6000000000001</ele><time>2026-04-30T07:16:57.037Z</time></trkpt><trkpt lat="40.04190237906479" lon="9.246862358343055"><ele>1027.2</ele><time>2026-04-30T07:16:58.037Z</time></trkpt><trkpt lat="40.04185958241643" lon="9.24672936671261"><ele>1028.8000000000002</ele><time>2026-04-30T07:16:59.037Z</time></trkpt><trkpt lat="40.04183650443832" lon="9.246597384858049"><ele>1030.4</ele><time>2026-04-30T07:17:00.037Z</time></trkpt><trkpt lat="40.041861180727" lon="9.246474570953849"><ele>1032.0</ele><time>2026-04-30T07:17:01.037Z</time></trkpt><trkpt lat="40.04192546141959" lon="9.246384461486686"><ele>1033.75</ele><time>2026-04-30T07:17:02.037Z</time></trkpt><trkpt lat="40.042024051306356" lon="9.246351188754586"><ele>1035.5</ele><time>2026-04-30T07:17:03.037Z</time></trkpt><trkpt lat="40.04214272350169" lon="9.246349640141744"><ele>1037.25</ele><time>2026-04-30T07:17:04.037Z</time></trkpt><trkpt lat="40.04226472958305" lon="9.246367248766365"><ele>1039.0</ele><time>2026-04-30T07:17:05.037Z</time></trkpt><trkpt lat="40.042389010052844" lon="9.246393919740234"><ele>1036.25</ele><time>2026-04-30T07:17:06.037Z</time></trkpt><trkpt lat="40.04251009643656" lon="9.246399161362746"><ele>1033.5</ele><time>2026-04-30T07:17:07.037Z</time></trkpt><trkpt lat="40.04262911048505" lon="9.246364561093149"><ele>1030.75</ele><time>2026-04-30T07:17:08.037Z</time></trkpt><trkpt lat="40.04272239630966" lon="9.24627888128569"><ele>1028.0</ele><time>2026-04-30T07:17:09.037Z</time></trkpt><trkpt lat="40.042786664813825" lon="9.2461471415866"><ele>1028.0</ele><time>2026-04-30T07:17:10.037Z</time></trkpt><trkpt lat="40.042796406639454" lon="9.24597747218627"><ele>1028.0</ele><time>2026-04-30T07:17:11.037Z</time></trkpt><trkpt lat="40.04277263443337" lon="9.24580601277479"><ele>1028.0</ele><time>2026-04-30T07:17:12.037Z</time></trkpt><trkpt lat="40.04274725950104" lon="9.24563268746854"><ele>1028.0</ele><time>2026-04-30T07:17:13.037Z</time></trkpt><trkpt lat="40.04272622255533" lon="9.245456456331896"><ele>1031.75</ele><time>2026-04-30T07:17:14.037Z</time></trkpt><trkpt lat="40.042718291602895" lon="9.245287280346659"><ele>1035.5</ele><time>2026-04-30T07:17:15.037Z</time></trkpt><trkpt lat="40.042728871572976" lon="9.245123559566311"><ele>1039.25</ele><time>2026-04-30T07:17:16.037Z</time></trkpt><trkpt lat="40.04276188684745" lon="9.244967918712744"><ele>1043.0</ele><time>2026-04-30T07:17:17.037Z</time></trkpt><trkpt lat="40.04280776546564" lon="9.244817933947427"><ele>1047.0</ele><time>2026-04-30T07:17:18.037Z</time></trkpt><trkpt lat="40.04284825718391" lon="9.244669721931121"><ele>1051.0</ele><time>2026-04-30T07:17:19.037Z</time></trkpt><trkpt lat="40.042887077063774" lon="9.244526398977657"><ele>1055.0</ele><time>2026-04-30T07:17:20.037Z</time></trkpt><trkpt lat="40.04292738902759" lon="9.244389598177595"><ele>1059.0</ele><time>2026-04-30T07:17:21.037Z</time></trkpt><trkpt lat="40.04296588044904" lon="9.244256118308646"><ele>1059.0</ele><time>2026-04-30T07:17:22.037Z</time></trkpt><trkpt lat="40.0430029209874" lon="9.244130120108483"><ele>1059.0</ele><time>2026-04-30T07:17:23.037Z</time></trkpt><trkpt lat="40.043039680097124" lon="9.244007660922824"><ele>1059.0</ele><time>2026-04-30T07:17:24.037Z</time></trkpt><trkpt lat="40.043080849551714" lon="9.243891966065993"><ele>1059.0</ele><time>2026-04-30T07:17:25.037Z</time></trkpt><trkpt lat="40.043130361454196" lon="9.24377677091382"><ele>1059.0</ele><time>2026-04-30T07:17:26.037Z</time></trkpt><trkpt lat="40.04319256340265" lon="9.243676251009205"><ele>1061.0</ele><time>2026-04-30T07:17:27.037Z</time></trkpt><trkpt lat="40.04326396062142" lon="9.243578282474736"><ele>1063.0</ele><time>2026-04-30T07:17:28.038Z</time></trkpt><trkpt lat="40.04333299235526" lon="9.243478499508686"><ele>1065.0</ele><time>2026-04-30T07:17:29.038Z</time></trkpt><trkpt lat="40.043395346447056" lon="9.243370450584958"><ele>1067.0</ele><time>2026-04-30T07:17:30.038Z</time></trkpt><trkpt lat="40.043447162388816" lon="9.243258116552019"><ele>1069.0</ele><time>2026-04-30T07:17:31.038Z</time></trkpt><trkpt lat="40.04348139885408" lon="9.243132631212834"><ele>1066.8333333333333</ele><time>2026-04-30T07:17:32.038Z</time></trkpt><trkpt lat="40.04348785232851" lon="9.242990725737858"><ele>1064.6666666666665</ele><time>2026-04-30T07:17:33.038Z</time></trkpt><trkpt lat="40.04347076978342" lon="9.242856974815695"><ele>1062.5</ele><time>2026-04-30T07:17:34.038Z</time></trkpt><trkpt lat="40.043437033603624" lon="9.242744517293138"><ele>1060.3333333333333</ele><time>2026-04-30T07:17:35.038Z</time></trkpt><trkpt lat="40.043416531863265" lon="9.242653091342376"><ele>1058.1666666666667</ele><time>2026-04-30T07:17:36.038Z</time></trkpt><trkpt lat="40.04342413296213" lon="9.242566811234727"><ele>1056.0</ele><time>2026-04-30T07:17:37.038Z</time></trkpt><trkpt lat="40.043455996995306" lon="9.24249082007075"><ele>1056.0</ele><time>2026-04-30T07:17:38.038Z</time></trkpt><trkpt lat="40.04350558573505" lon="9.242413460213148"><ele>1056.0</ele><time>2026-04-30T07:17:39.038Z</time></trkpt><trkpt lat="40.04357266256976" lon="9.242359773742706"><ele>1056.0</ele><time>2026-04-30T07:17:40.038Z</time></trkpt><trkpt lat="40.043650903750475" lon="9.242333223855905"><ele>1056.0</ele><time>2026-04-30T07:17:41.038Z</time></trkpt><trkpt lat="40.0437357580052" lon="9.242314779093393"><ele>1056.0</ele><time>2026-04-30T07:17:42.038Z</time></trkpt><trkpt lat="40.04381839292364" lon="9.242291388306395"><ele>1056.0</ele><time>2026-04-30T07:17:43.038Z</time></trkpt><trkpt lat="40.043906754243054" lon="9.242258940289812"><ele>1056.75</ele><time>2026-04-30T07:17:44.038Z</time></trkpt><trkpt lat="40.043997054605775" lon="9.24220721106401"><ele>1057.5</ele><time>2026-04-30T07:17:45.038Z</time></trkpt><trkpt lat="40.044090433858855" lon="9.242124602297357"><ele>1058.25</ele><time>2026-04-30T07:17:46.038Z</time></trkpt><trkpt lat="40.044171405853845" lon="9.242003027651728"><ele>1059.0</ele><time>2026-04-30T07:17:47.038Z</time></trkpt><trkpt lat="40.044248278532464" lon="9.241864231851672"><ele>1059.0</ele><time>2026-04-30T07:17:48.038Z</time></trkpt><trkpt lat="40.044329593425005" lon="9.241733644609491"><ele>1059.0</ele><time>2026-04-30T07:17:49.038Z</time></trkpt><trkpt lat="40.04441161235806" lon="9.2416148863796"><ele>1059.0</ele><time>2026-04-30T07:17:50.038Z</time></trkpt><trkpt lat="40.044490665103815" lon="9.241494608868255"><ele>1059.0</ele><time>2026-04-30T07:17:51.038Z</time></trkpt><trkpt lat="40.044567406298306" lon="9.24137626185989"><ele>1063.2</ele><time>2026-04-30T07:17:52.038Z</time></trkpt><trkpt lat="40.04463705089649" lon="9.241263945692236"><ele>1067.4</ele><time>2026-04-30T07:17:53.038Z</time></trkpt><trkpt lat="40.04468960116191" lon="9.241154059168833"><ele>1071.6</ele><time>2026-04-30T07:17:54.038Z</time></trkpt><trkpt lat="40.04471787866431" lon="9.241046245883016"><ele>1075.8</ele><time>2026-04-30T07:17:55.038Z</time></trkpt><trkpt lat="40.044720444097436" lon="9.240942710621761"><ele>1080.0</ele><time>2026-04-30T07:17:56.038Z</time></trkpt><trkpt lat="40.04471499648361" lon="9.240844707834336"><ele>1080.0</ele><time>2026-04-30T07:17:57.038Z</time></trkpt><trkpt lat="40.04470031973161" lon="9.24074783050906"><ele>1080.0</ele><time>2026-04-30T07:17:58.038Z</time></trkpt><trkpt lat="40.04468371549755" lon="9.240648292274843"><ele>1080.0</ele><time>2026-04-30T07:17:59.038Z</time></trkpt><trkpt lat="40.044674973103106" lon="9.24054570375297"><ele>1080.0</ele><time>2026-04-30T07:18:00.038Z</time></trkpt><trkpt lat="40.044667295587075" lon="9.240453576258876"><ele>1080.0</ele><time>2026-04-30T07:18:01.038Z</time></trkpt><trkpt lat="40.04466825120624" lon="9.240362687043753"><ele>1080.0</ele><time>2026-04-30T07:18:02.038Z</time></trkpt><trkpt lat="40.044675894781626" lon="9.240272779184425"><ele>1080.0</ele><time>2026-04-30T07:18:03.038Z</time></trkpt><trkpt lat="40.04469662746948" lon="9.240188933019548"><ele>1080.0</ele><time>2026-04-30T07:18:04.038Z</time></trkpt><trkpt lat="40.0447442549695" lon="9.240033023110211"><ele>1080.0</ele><time>2026-04-30T07:18:06.038Z</time></trkpt><trkpt lat="40.044793265132775" lon="9.239955479515555"><ele>1080.0</ele><time>2026-04-30T07:18:07.038Z</time></trkpt><trkpt lat="40.04486928232168" lon="9.239881282987566"><ele>1080.0</ele><time>2026-04-30T07:18:08.038Z</time></trkpt><trkpt lat="40.044957456293425" lon="9.2398242315317"><ele>1080.0</ele><time>2026-04-30T07:18:09.038Z</time></trkpt><trkpt lat="40.04504640303661" lon="9.23976356172114"><ele>1080.0</ele><time>2026-04-30T07:18:10.038Z</time></trkpt><trkpt lat="40.04513152462814" lon="9.239682808752661"><ele>1080.0</ele><time>2026-04-30T07:18:11.038Z</time></trkpt><trkpt lat="40.04520153466214" lon="9.239577250371322"><ele>1080.0</ele><time>2026-04-30T07:18:12.038Z</time></trkpt><trkpt lat="40.045261278571374" lon="9.239453103747987"><ele>1080.0</ele><time>2026-04-30T07:18:13.038Z</time></trkpt><trkpt lat="40.04531093208111" lon="9.23933187385029"><ele>1080.0</ele><time>2026-04-30T07:18:14.038Z</time></trkpt><trkpt lat="40.045345512906316" lon="9.239212881639126"><ele>1080.0</ele><time>2026-04-30T07:18:15.038Z</time></trkpt><trkpt lat="40.045380678072625" lon="9.239133015728163"><ele>1080.0</ele><time>2026-04-30T07:18:16.038Z</time></trkpt><trkpt lat="40.04544441429514" lon="9.239003543891052"><ele>1080.0</ele><time>2026-04-30T07:18:18.038Z</time></trkpt><trkpt lat="40.04555746875736" lon="9.238954139697777"><ele>1080.0</ele><time>2026-04-30T07:18:20.038Z</time></trkpt><trkpt lat="40.04562568725251" lon="9.238964160350399"><ele>1080.0</ele><time>2026-04-30T07:18:21.038Z</time></trkpt><trkpt lat="40.04569989483717" lon="9.238971305932036"><ele>1080.0</ele><time>2026-04-30T07:18:22.038Z</time></trkpt><trkpt lat="40.04578403562631" lon="9.238985318337392"><ele>1080.0</ele><time>2026-04-30T07:18:23.038Z</time></trkpt><trkpt lat="40.04588442117104" lon="9.238985850924555"><ele>1080.0</ele><time>2026-04-30T07:18:24.038Z</time></trkpt><trkpt lat="40.04600353494103" lon="9.238956551768409"><ele>1080.0</ele><time>2026-04-30T07:18:25.038Z</time></trkpt><trkpt lat="40.046147133934944" lon="9.238868585567698"><ele>1079.3333333333333</ele><time>2026-04-30T07:18:26.038Z</time></trkpt><trkpt lat="40.04631450174153" lon="9.23873780850062"><ele>1078.6666666666665</ele><time>2026-04-30T07:18:27.041Z</time></trkpt><trkpt lat="40.04652237053897" lon="9.238609902421356"><ele>1078.0</ele><time>2026-04-30T07:18:28.04Z</time></trkpt><trkpt lat="40.046753384744314" lon="9.23848974906843"><ele>1078.0</ele><time>2026-04-30T07:18:29.04Z</time></trkpt><trkpt lat="40.04696241645825" lon="9.238410376373485"><ele>1078.0</ele><time>2026-04-30T07:18:30.04Z</time></trkpt><trkpt lat="40.04712972751853" lon="9.238313655226909"><ele>1078.0</ele><time>2026-04-30T07:18:31.04Z</time></trkpt><trkpt lat="40.047262178540315" lon="9.238161616583808"><ele>1077.6666666666665</ele><time>2026-04-30T07:18:32.04Z</time></trkpt><trkpt lat="40.04736563507301" lon="9.23796949948443"><ele>1077.3333333333333</ele><time>2026-04-30T07:18:33.04Z</time></trkpt><trkpt lat="40.04744240542751" lon="9.237744591115817"><ele>1077.0</ele><time>2026-04-30T07:18:34.04Z</time></trkpt><trkpt lat="40.04753095305642" lon="9.237515474014526"><ele>1077.0</ele><time>2026-04-30T07:18:35.04Z</time></trkpt><trkpt lat="40.04769632210418" lon="9.237341140514806"><ele>1077.0</ele><time>2026-04-30T07:18:36.04Z</time></trkpt><trkpt lat="40.047864156399854" lon="9.23718345462712"><ele>1077.0</ele><time>2026-04-30T07:18:37.04Z</time></trkpt><trkpt lat="40.04804495230687" lon="9.237027528794444"><ele>1083.5</ele><time>2026-04-30T07:18:38.04Z</time></trkpt><trkpt lat="40.048233873756075" lon="9.236852501743238"><ele>1090.0</ele><time>2026-04-30T07:18:39.04Z</time></trkpt><trkpt lat="40.04843853736365" lon="9.236733776246323"><ele>1090.0</ele><time>2026-04-30T07:18:40.04Z</time></trkpt><trkpt lat="40.048618817011025" lon="9.236647487653197"><ele>1090.0</ele><time>2026-04-30T07:18:41.041Z</time></trkpt><trkpt lat="40.04878385014918" lon="9.236563513086285"><ele>1090.0</ele><time>2026-04-30T07:18:42.041Z</time></trkpt><trkpt lat="40.0489212835622" lon="9.23640667310176"><ele>1091.0</ele><time>2026-04-30T07:18:43.041Z</time></trkpt><trkpt lat="40.04905485334295" lon="9.236202092215306"><ele>1092.0</ele><time>2026-04-30T07:18:44.041Z</time></trkpt><trkpt lat="40.049175193627946" lon="9.23596445181158"><ele>1093.0</ele><time>2026-04-30T07:18:45.041Z</time></trkpt><trkpt lat="40.049357279311124" lon="9.235802409117738"><ele>1093.0</ele><time>2026-04-30T07:18:46.041Z</time></trkpt><trkpt lat="40.04959059744629" lon="9.235693837388393"><ele>1093.0</ele><time>2026-04-30T07:18:47.041Z</time></trkpt><trkpt lat="40.04982012974158" lon="9.235616517176009"><ele>1100.5</ele><time>2026-04-30T07:18:48.041Z</time></trkpt><trkpt lat="40.050050252975865" lon="9.235523925151968"><ele>1108.0</ele><time>2026-04-30T07:18:49.041Z</time></trkpt><trkpt lat="40.050280156220715" lon="9.235415672490507"><ele>1108.0</ele><time>2026-04-30T07:18:50.041Z</time></trkpt><trkpt lat="40.050494131368076" lon="9.235341178353847"><ele>1108.0</ele><time>2026-04-30T07:18:51.041Z</time></trkpt><trkpt lat="40.05070974171128" lon="9.235300391871974"><ele>1108.0</ele><time>2026-04-30T07:18:52.041Z</time></trkpt><trkpt lat="40.0509246979514" lon="9.235258213122"><ele>1107.5</ele><time>2026-04-30T07:18:53.041Z</time></trkpt><trkpt lat="40.05113792789784" lon="9.235178405990728"><ele>1107.0</ele><time>2026-04-30T07:18:54.041Z</time></trkpt><trkpt lat="40.05134948977202" lon="9.235067197831464"><ele>1107.0</ele><time>2026-04-30T07:18:55.041Z</time></trkpt><trkpt lat="40.05155784781696" lon="9.234938054524958"><ele>1107.0</ele><time>2026-04-30T07:18:56.041Z</time></trkpt><trkpt lat="40.05176012540746" lon="9.234807827162667"><ele>1118.5</ele><time>2026-04-30T07:18:57.041Z</time></trkpt><trkpt lat="40.051972194637095" lon="9.234674340583922"><ele>1130.0</ele><time>2026-04-30T07:18:58.041Z</time></trkpt><trkpt lat="40.052189030280005" lon="9.234545437814345"><ele>1130.0</ele><time>2026-04-30T07:18:59.041Z</time></trkpt><trkpt lat="40.05240057168734" lon="9.234405979215637"><ele>1130.0</ele><time>2026-04-30T07:19:00.041Z</time></trkpt><trkpt lat="40.05261642282109" lon="9.234263526502183"><ele>1124.5</ele><time>2026-04-30T07:19:01.041Z</time></trkpt><trkpt lat="40.052829827190656" lon="9.234127286085418"><ele>1119.0</ele><time>2026-04-30T07:19:02.041Z</time></trkpt><trkpt lat="40.05303685289046" lon="9.234000304271964"><ele>1123.3333333333333</ele><time>2026-04-30T07:19:03.041Z</time></trkpt><trkpt lat="40.053224973221965" lon="9.233879161663875"><ele>1127.6666666666665</ele><time>2026-04-30T07:19:04.041Z</time></trkpt><trkpt lat="40.05339947878169" lon="9.233789341166002"><ele>1132.0</ele><time>2026-04-30T07:19:05.041Z</time></trkpt><trkpt lat="40.053580809553715" lon="9.233788726278084"><ele>1132.0</ele><time>2026-04-30T07:19:06.041Z</time></trkpt><trkpt lat="40.05377701861706" lon="9.233843590211563"><ele>1132.0</ele><time>2026-04-30T07:19:07.041Z</time></trkpt><trkpt lat="40.0539678068555" lon="9.23385168485781"><ele>1132.0</ele><time>2026-04-30T07:19:08.041Z</time></trkpt><trkpt lat="40.05414013907633" lon="9.233770533695951"><ele>1133.0</ele><time>2026-04-30T07:19:09.041Z</time></trkpt><trkpt lat="40.054297755926456" lon="9.233586619371527"><ele>1134.0</ele><time>2026-04-30T07:19:10.041Z</time></trkpt><trkpt lat="40.0544166259606" lon="9.233352903042308"><ele>1135.0</ele><time>2026-04-30T07:19:11.041Z</time></trkpt><trkpt lat="40.05450579320652" lon="9.233129350161905"><ele>1135.0</ele><time>2026-04-30T07:19:12.041Z</time></trkpt><trkpt lat="40.054619953301746" lon="9.232897838652605"><ele>1135.0</ele><time>2026-04-30T07:19:13.041Z</time></trkpt><trkpt lat="40.05469424335409" lon="9.232722427049096"><ele>1135.0</ele><time>2026-04-30T07:19:14.041Z</time></trkpt><trkpt lat="40.05477251277918" lon="9.232525101492582"><ele>1135.0</ele><time>2026-04-30T07:19:15.041Z</time></trkpt><trkpt lat="40.05478486563103" lon="9.232310902725866"><ele>1135.0</ele><time>2026-04-30T07:19:16.041Z</time></trkpt><trkpt lat="40.054745215818954" lon="9.232089711560644"><ele>1135.0</ele><time>2026-04-30T07:19:17.041Z</time></trkpt><trkpt lat="40.05469850030771" lon="9.231877476883907"><ele>1137.0</ele><time>2026-04-30T07:19:18.041Z</time></trkpt><trkpt lat="40.054725701590954" lon="9.231701783131644"><ele>1139.0</ele><time>2026-04-30T07:19:19.041Z</time></trkpt><trkpt lat="40.054844065566975" lon="9.231555728233253"><ele>1141.0</ele><time>2026-04-30T07:19:20.041Z</time></trkpt><trkpt lat="40.0550045011835" lon="9.23141621942374"><ele>1141.0</ele><time>2026-04-30T07:19:21.041Z</time></trkpt><trkpt lat="40.05514700435118" lon="9.231234930815173"><ele>1141.0</ele><time>2026-04-30T07:19:22.041Z</time></trkpt><trkpt lat="40.0552598875012" lon="9.231025346894977"><ele>1141.0</ele><time>2026-04-30T07:19:23.041Z</time></trkpt><trkpt lat="40.055340303742156" lon="9.230790957635326"><ele>1147.0</ele><time>2026-04-30T07:19:24.041Z</time></trkpt><trkpt lat="40.055402970852555" lon="9.230512163230971"><ele>1153.0</ele><time>2026-04-30T07:19:25.041Z</time></trkpt><trkpt lat="40.05547760559968" lon="9.2302699956618"><ele>1159.0</ele><time>2026-04-30T07:19:26.041Z</time></trkpt><trkpt lat="40.055586405208835" lon="9.230091504709286"><ele>1159.0</ele><time>2026-04-30T07:19:27.041Z</time></trkpt><trkpt lat="40.05576720287833" lon="9.229971552671964"><ele>1159.0</ele><time>2026-04-30T07:19:28.041Z</time></trkpt><trkpt lat="40.05597443306498" lon="9.229910403067688"><ele>1159.0</ele><time>2026-04-30T07:19:29.041Z</time></trkpt><trkpt lat="40.05617675320163" lon="9.229829892342218"><ele>1160.6666666666665</ele><time>2026-04-30T07:19:30.041Z</time></trkpt><trkpt lat="40.05635510582726" lon="9.229680819661743"><ele>1162.3333333333333</ele><time>2026-04-30T07:19:31.041Z</time></trkpt><trkpt lat="40.05651505594899" lon="9.229494758319683"><ele>1164.0</ele><time>2026-04-30T07:19:32.041Z</time></trkpt><trkpt lat="40.05669063043067" lon="9.2293058932372"><ele>1160.3333333333333</ele><time>2026-04-30T07:19:33.041Z</time></trkpt><trkpt lat="40.05689259709629" lon="9.229223867521256"><ele>1156.6666666666665</ele><time>2026-04-30T07:19:34.041Z</time></trkpt><trkpt lat="40.057065426614244" lon="9.229169986460592"><ele>1153.0</ele><time>2026-04-30T07:19:35.041Z</time></trkpt><trkpt lat="40.05721925961158" lon="9.229069542816964"><ele>1152.3333333333333</ele><time>2026-04-30T07:19:36.041Z</time></trkpt><trkpt lat="40.057337186619606" lon="9.228893542304991"><ele>1151.6666666666667</ele><time>2026-04-30T07:19:37.041Z</time></trkpt><trkpt lat="40.05741738384388" lon="9.228656582908513"><ele>1151.0</ele><time>2026-04-30T07:19:38.041Z</time></trkpt><trkpt lat="40.057483882732036" lon="9.228402495532075"><ele>1151.0</ele><time>2026-04-30T07:19:39.041Z</time></trkpt><trkpt lat="40.0575122543444" lon="9.22816396599228"><ele>1151.0</ele><time>2026-04-30T07:19:40.041Z</time></trkpt><trkpt lat="40.057440105995965" lon="9.227933020635716"><ele>1151.0</ele><time>2026-04-30T07:19:41.041Z</time></trkpt><trkpt lat="40.05727848861838" lon="9.227728846187452"><ele>1152.0</ele><time>2026-04-30T07:19:42.041Z</time></trkpt><trkpt lat="40.0570485957413" lon="9.227541517303257"><ele>1153.0</ele><time>2026-04-30T07:19:43.041Z</time></trkpt><trkpt lat="40.056809286130566" lon="9.22736147102194"><ele>1154.5</ele><time>2026-04-30T07:19:44.041Z</time></trkpt><trkpt lat="40.05656636397897" lon="9.227356488730493"><ele>1156.0</ele><time>2026-04-30T07:19:46.041Z</time></trkpt><trkpt lat="40.056319833007834" lon="9.227316360794006"><ele>1156.0</ele><time>2026-04-30T07:19:47.041Z</time></trkpt><trkpt lat="40.05607133401172" lon="9.227304837732584"><ele>1156.0</ele><time>2026-04-30T07:19:48.041Z</time></trkpt><trkpt lat="40.055831189996475" lon="9.227331187410536"><ele>1156.0</ele><time>2026-04-30T07:19:49.041Z</time></trkpt><trkpt lat="40.05563849012946" lon="9.227339297861993"><ele>1156.0</ele><time>2026-04-30T07:19:50.041Z</time></trkpt><trkpt lat="40.0554319876675" lon="9.227362176024572"><ele>1156.0</ele><time>2026-04-30T07:19:51.041Z</time></trkpt><trkpt lat="40.05524259871066" lon="9.22738226695197"><ele>1156.0</ele><time>2026-04-30T07:19:52.041Z</time></trkpt><trkpt lat="40.055064768893175" lon="9.227396817543395"><ele>1156.0</ele><time>2026-04-30T07:19:53.041Z</time></trkpt><trkpt lat="40.05492427682208" lon="9.227401882000741"><ele>1156.0</ele><time>2026-04-30T07:19:54.041Z</time></trkpt><trkpt lat="40.05476306905207" lon="9.227404644491997"><ele>1158.3333333333333</ele><time>2026-04-30T07:19:55.041Z</time></trkpt><trkpt lat="40.054606764849694" lon="9.22741815196864"><ele>1160.6666666666667</ele><time>2026-04-30T07:19:56.041Z</time></trkpt><trkpt lat="40.054447643301636" lon="9.22742574674966"><ele>1163.0</ele><time>2026-04-30T07:19:57.041Z</time></trkpt><trkpt lat="40.054282464632536" lon="9.227437792270608"><ele>1166.6666666666667</ele><time>2026-04-30T07:19:58.041Z</time></trkpt><trkpt lat="40.0541175625478" lon="9.227449781755523"><ele>1170.3333333333333</ele><time>2026-04-30T07:19:59.041Z</time></trkpt><trkpt lat="40.05395188062573" lon="9.227460521578507"><ele>1174.0</ele><time>2026-04-30T07:20:00.041Z</time></trkpt><trkpt lat="40.05378244359807" lon="9.227444146295351"><ele>1174.0</ele><time>2026-04-30T07:20:01.041Z</time></trkpt><trkpt lat="40.053609970183864" lon="9.227386796711107"><ele>1174.0</ele><time>2026-04-30T07:20:02.041Z</time></trkpt><trkpt lat="40.05344624848324" lon="9.227293534788434"><ele>1174.0</ele><time>2026-04-30T07:20:03.041Z</time></trkpt><trkpt lat="40.053279525928374" lon="9.227181745891324"><ele>1172.0</ele><time>2026-04-30T07:20:04.041Z</time></trkpt><trkpt lat="40.05312176193922" lon="9.227040934153532"><ele>1170.0</ele><time>2026-04-30T07:20:05.041Z</time></trkpt><trkpt lat="40.05298180235808" lon="9.226857260260925"><ele>1168.0</ele><time>2026-04-30T07:20:06.041Z</time></trkpt><trkpt lat="40.05285641018298" lon="9.226654578352845"><ele>1168.0</ele><time>2026-04-30T07:20:07.041Z</time></trkpt><trkpt lat="40.05270414331371" lon="9.226493870400493"><ele>1168.0</ele><time>2026-04-30T07:20:08.041Z</time></trkpt><trkpt lat="40.05252907297959" lon="9.226365785324807"><ele>1168.0</ele><time>2026-04-30T07:20:09.041Z</time></trkpt><trkpt lat="40.05231982717983" lon="9.226338420541795"><ele>1161.6666666666665</ele><time>2026-04-30T07:20:10.041Z</time></trkpt><trkpt lat="40.05211196887583" lon="9.226316862394672"><ele>1155.3333333333333</ele><time>2026-04-30T07:20:11.041Z</time></trkpt><trkpt lat="40.05192418627208" lon="9.226280193569139"><ele>1149.0</ele><time>2026-04-30T07:20:12.041Z</time></trkpt><trkpt lat="40.05174213527084" lon="9.226312566490831"><ele>1150.3333333333333</ele><time>2026-04-30T07:20:13.041Z</time></trkpt><trkpt lat="40.05157254392721" lon="9.22644894785607"><ele>1151.6666666666665</ele><time>2026-04-30T07:20:14.041Z</time></trkpt><trkpt lat="40.05142931083427" lon="9.226647575459861"><ele>1153.0</ele><time>2026-04-30T07:20:15.041Z</time></trkpt><trkpt lat="40.05128416661449" lon="9.226863771917602"><ele>1153.0</ele><time>2026-04-30T07:20:16.041Z</time></trkpt><trkpt lat="40.05113308386147" lon="9.22708363011885"><ele>1153.0</ele><time>2026-04-30T07:20:17.041Z</time></trkpt><trkpt lat="40.05097216737474" lon="9.227291725295949"><ele>1152.5</ele><time>2026-04-30T07:20:18.041Z</time></trkpt><trkpt lat="40.050795341991694" lon="9.22751321861919"><ele>1152.0</ele><time>2026-04-30T07:20:19.041Z</time></trkpt><trkpt lat="40.05062116144984" lon="9.227736586310591"><ele>1152.0</ele><time>2026-04-30T07:20:20.041Z</time></trkpt><trkpt lat="40.05045193058165" lon="9.227966675264053"><ele>1152.0</ele><time>2026-04-30T07:20:21.041Z</time></trkpt><trkpt lat="40.05028090301395" lon="9.228200660191973"><ele>1155.0</ele><time>2026-04-30T07:20:22.041Z</time></trkpt><trkpt lat="40.050100913608006" lon="9.228427103407991"><ele>1158.0</ele><time>2026-04-30T07:20:23.041Z</time></trkpt><trkpt lat="40.04992310027566" lon="9.228655899588638"><ele>1158.0</ele><time>2026-04-30T07:20:24.041Z</time></trkpt><trkpt lat="40.0497469014584" lon="9.228886857582674"><ele>1158.0</ele><time>2026-04-30T07:20:25.041Z</time></trkpt><trkpt lat="40.0495576358975" lon="9.229106625163896"><ele>1167.0</ele><time>2026-04-30T07:20:26.041Z</time></trkpt><trkpt lat="40.04935902196371" lon="9.229314876442416"><ele>1176.0</ele><time>2026-04-30T07:20:27.041Z</time></trkpt><trkpt lat="40.04915536406103" lon="9.229511738146822"><ele>1178.0</ele><time>2026-04-30T07:20:28.041Z</time></trkpt><trkpt lat="40.0489406045949" lon="9.229683151574967"><ele>1180.0</ele><time>2026-04-30T07:20:29.041Z</time></trkpt><trkpt lat="40.04871835578024" lon="9.229852660242127"><ele>1180.0</ele><time>2026-04-30T07:20:30.041Z</time></trkpt><trkpt lat="40.048491536042945" lon="9.230029324348195"><ele>1180.0</ele><time>2026-04-30T07:20:31.041Z</time></trkpt><trkpt lat="40.04827994724729" lon="9.230203702556324"><ele>1174.0</ele><time>2026-04-30T07:20:32.041Z</time></trkpt><trkpt lat="40.04805881445467" lon="9.230387263144186"><ele>1168.0</ele><time>2026-04-30T07:20:33.043Z</time></trkpt><trkpt lat="40.047842945945064" lon="9.230564364745591"><ele>1173.5</ele><time>2026-04-30T07:20:34.042Z</time></trkpt><trkpt lat="40.04761989213343" lon="9.2307336549919"><ele>1179.0</ele><time>2026-04-30T07:20:35.042Z</time></trkpt><trkpt lat="40.0473933933541" lon="9.230902833426521"><ele>1179.0</ele><time>2026-04-30T07:20:36.043Z</time></trkpt><trkpt lat="40.04716742677401" lon="9.231070448101251"><ele>1179.0</ele><time>2026-04-30T07:20:37.043Z</time></trkpt><trkpt lat="40.04693832700473" lon="9.231231170754825"><ele>1179.0</ele><time>2026-04-30T07:20:38.043Z</time></trkpt><trkpt lat="40.0467057144374" lon="9.23138709720127"><ele>1179.0</ele><time>2026-04-30T07:20:39.044Z</time></trkpt><trkpt lat="40.046473589307176" lon="9.231531731807749"><ele>1185.0</ele><time>2026-04-30T07:20:40.043Z</time></trkpt><trkpt lat="40.04624597597809" lon="9.231675690801705"><ele>1191.0</ele><time>2026-04-30T07:20:41.043Z</time></trkpt><trkpt lat="40.04602294128088" lon="9.231817321571642"><ele>1191.0</ele><time>2026-04-30T07:20:42.043Z</time></trkpt><trkpt lat="40.045811572799835" lon="9.231947753264516"><ele>1191.0</ele><time>2026-04-30T07:20:43.043Z</time></trkpt><trkpt lat="40.04561350464798" lon="9.232071192535795"><ele>1189.3333333333333</ele><time>2026-04-30T07:20:44.043Z</time></trkpt><trkpt lat="40.045419921525394" lon="9.232165809761689"><ele>1187.6666666666665</ele><time>2026-04-30T07:20:45.043Z</time></trkpt><trkpt lat="40.04522663608674" lon="9.232226917552735"><ele>1186.0</ele><time>2026-04-30T07:20:46.043Z</time></trkpt><trkpt lat="40.045041842740574" lon="9.232252254260024"><ele>1186.0</ele><time>2026-04-30T07:20:47.043Z</time></trkpt><trkpt lat="40.04486249181071" lon="9.232271456600824"><ele>1186.0</ele><time>2026-04-30T07:20:48.043Z</time></trkpt><trkpt lat="40.04470238712499" lon="9.232297376712122"><ele>1186.0</ele><time>2026-04-30T07:20:49.043Z</time></trkpt><trkpt lat="40.04454816778079" lon="9.232323838989373"><ele>1191.0</ele><time>2026-04-30T07:20:50.043Z</time></trkpt><trkpt lat="40.044408553045045" lon="9.232348348090133"><ele>1196.0</ele><time>2026-04-30T07:20:51.043Z</time></trkpt><trkpt lat="40.044268102908376" lon="9.232376061242034"><ele>1201.0</ele><time>2026-04-30T07:20:52.043Z</time></trkpt><trkpt lat="40.04412902302095" lon="9.232402566166805"><ele>1206.0</ele><time>2026-04-30T07:20:53.043Z</time></trkpt><trkpt lat="40.04398526517556" lon="9.23243219124766"><ele>1206.0</ele><time>2026-04-30T07:20:54.043Z</time></trkpt><trkpt lat="40.043840293089914" lon="9.23246008012781"><ele>1206.0</ele><time>2026-04-30T07:20:55.043Z</time></trkpt><trkpt lat="40.043699496465926" lon="9.232483267710474"><ele>1206.0</ele><time>2026-04-30T07:20:56.043Z</time></trkpt><trkpt lat="40.043566366165585" lon="9.232514605564567"><ele>1206.0</ele><time>2026-04-30T07:20:57.043Z</time></trkpt><trkpt lat="40.04344089072265" lon="9.232534887521338"><ele>1206.0</ele><time>2026-04-30T07:20:58.043Z</time></trkpt><trkpt lat="40.04331388065294" lon="9.232555341752652"><ele>1206.0</ele><time>2026-04-30T07:20:59.043Z</time></trkpt><trkpt lat="40.04318275748613" lon="9.232577470483635"><ele>1206.0</ele><time>2026-04-30T07:21:00.043Z</time></trkpt><trkpt lat="40.04305152497063" lon="9.232596436069295"><ele>1206.0</ele><time>2026-04-30T07:21:01.043Z</time></trkpt><trkpt lat="40.04292099561341" lon="9.232620654623236"><ele>1205.5</ele><time>2026-04-30T07:21:02.043Z</time></trkpt><trkpt lat="40.04279169672556" lon="9.232648973958069"><ele>1205.0</ele><time>2026-04-30T07:21:03.043Z</time></trkpt><trkpt lat="40.04265883877158" lon="9.232693645795855"><ele>1204.5</ele><time>2026-04-30T07:21:04.043Z</time></trkpt><trkpt lat="40.04251999144353" lon="9.23274490514029"><ele>1204.0</ele><time>2026-04-30T07:21:05.043Z</time></trkpt><trkpt lat="40.04239052927001" lon="9.232816923705423"><ele>1201.75</ele><time>2026-04-30T07:21:06.043Z</time></trkpt><trkpt lat="40.04227139490167" lon="9.232894814650262"><ele>1199.5</ele><time>2026-04-30T07:21:07.043Z</time></trkpt><trkpt lat="40.0421543018231" lon="9.232955713784293"><ele>1197.25</ele><time>2026-04-30T07:21:08.043Z</time></trkpt><trkpt lat="40.04204373904332" lon="9.23301552181752"><ele>1195.0</ele><time>2026-04-30T07:21:09.043Z</time></trkpt><trkpt lat="40.04193726879472" lon="9.233074233048338"><ele>1195.0</ele><time>2026-04-30T07:21:10.043Z</time></trkpt><trkpt lat="40.041825818406664" lon="9.233130531546932"><ele>1195.0</ele><time>2026-04-30T07:21:11.043Z</time></trkpt><trkpt lat="40.04171466722269" lon="9.233192285911182"><ele>1195.0</ele><time>2026-04-30T07:21:12.043Z</time></trkpt><trkpt lat="40.0415984741154" lon="9.233249809214822"><ele>1195.0</ele><time>2026-04-30T07:21:13.043Z</time></trkpt><trkpt lat="40.04148818271439" lon="9.233310462988555"><ele>1198.25</ele><time>2026-04-30T07:21:14.043Z</time></trkpt><trkpt lat="40.04137221391911" lon="9.233360015351876"><ele>1201.5</ele><time>2026-04-30T07:21:15.043Z</time></trkpt><trkpt lat="40.04124739408952" lon="9.233398167167348"><ele>1204.75</ele><time>2026-04-30T07:21:16.043Z</time></trkpt><trkpt lat="40.04111656322598" lon="9.233431791116725"><ele>1208.0</ele><time>2026-04-30T07:21:17.043Z</time></trkpt><trkpt lat="40.04098127483436" lon="9.233461216173978"><ele>1208.0</ele><time>2026-04-30T07:21:18.043Z</time></trkpt><trkpt lat="40.0408426943791" lon="9.233510857076634"><ele>1208.0</ele><time>2026-04-30T07:21:19.043Z</time></trkpt><trkpt lat="40.04069915930275" lon="9.233579088248085"><ele>1208.0</ele><time>2026-04-30T07:21:20.043Z</time></trkpt><trkpt lat="40.04053896094885" lon="9.233656278118957"><ele>1206.3333333333335</ele><time>2026-04-30T07:21:21.044Z</time></trkpt><trkpt lat="40.04037208667047" lon="9.2337439981384"><ele>1204.6666666666667</ele><time>2026-04-30T07:21:22.044Z</time></trkpt><trkpt lat="40.04019370091559" lon="9.233842576004369"><ele>1203.0</ele><time>2026-04-30T07:21:23.044Z</time></trkpt><trkpt lat="40.04000152732419" lon="9.23393927838685"><ele>1207.6666666666667</ele><time>2026-04-30T07:21:24.044Z</time></trkpt><trkpt lat="40.03980586981049" lon="9.234030150569557"><ele>1212.3333333333335</ele><time>2026-04-30T07:21:25.044Z</time></trkpt><trkpt lat="40.039596706968815" lon="9.234119549443818"><ele>1217.0</ele><time>2026-04-30T07:21:26.044Z</time></trkpt><trkpt lat="40.03938129854232" lon="9.234208362129614"><ele>1217.0</ele><time>2026-04-30T07:21:27.044Z</time></trkpt><trkpt lat="40.03916584294696" lon="9.234295350270488"><ele>1217.0</ele><time>2026-04-30T07:21:28.044Z</time></trkpt><trkpt lat="40.03894290778769" lon="9.2343933514578"><ele>1216.0</ele><time>2026-04-30T07:21:29.044Z</time></trkpt><trkpt lat="40.038721602862346" lon="9.234485358093231"><ele>1215.0</ele><time>2026-04-30T07:21:30.044Z</time></trkpt><trkpt lat="40.03849636329709" lon="9.234573529120755"><ele>1216.5</ele><time>2026-04-30T07:21:31.044Z</time></trkpt><trkpt lat="40.0382754297732" lon="9.234637683539301"><ele>1218.0</ele><time>2026-04-30T07:21:32.044Z</time></trkpt><trkpt lat="40.03804530988707" lon="9.234675742988555"><ele>1218.0</ele><time>2026-04-30T07:21:33.044Z</time></trkpt><trkpt lat="40.03781760870004" lon="9.234701344414363"><ele>1218.0</ele><time>2026-04-30T07:21:34.044Z</time></trkpt><trkpt lat="40.03758912592641" lon="9.234718452409606"><ele>1221.0</ele><time>2026-04-30T07:21:35.044Z</time></trkpt><trkpt lat="40.037359991758755" lon="9.234742957670022"><ele>1224.0</ele><time>2026-04-30T07:21:36.044Z</time></trkpt><trkpt lat="40.037131034453935" lon="9.234728265097136"><ele>1224.0</ele><time>2026-04-30T07:21:37.044Z</time></trkpt><trkpt lat="40.03690609116081" lon="9.234675694918192"><ele>1224.0</ele><time>2026-04-30T07:21:38.044Z</time></trkpt><trkpt lat="40.03668330070572" lon="9.234607356109528"><ele>1229.0</ele><time>2026-04-30T07:21:39.044Z</time></trkpt><trkpt lat="40.036455708176646" lon="9.234555407844454"><ele>1234.0</ele><time>2026-04-30T07:21:40.044Z</time></trkpt><trkpt lat="40.036226716698835" lon="9.234507616130117"><ele>1234.0</ele><time>2026-04-30T07:21:41.044Z</time></trkpt><trkpt lat="40.03599617512223" lon="9.23443921861942"><ele>1234.0</ele><time>2026-04-30T07:21:42.044Z</time></trkpt><trkpt lat="40.03577083200585" lon="9.234322343762676"><ele>1242.0</ele><time>2026-04-30T07:21:43.044Z</time></trkpt><trkpt lat="40.03557634107998" lon="9.23415461302815"><ele>1250.0</ele><time>2026-04-30T07:21:44.044Z</time></trkpt><trkpt lat="40.03538084132065" lon="9.233992927207156"><ele>1247.0</ele><time>2026-04-30T07:21:45.044Z</time></trkpt><trkpt lat="40.035173115986794" lon="9.233868004514342"><ele>1244.0</ele><time>2026-04-30T07:21:46.044Z</time></trkpt><trkpt lat="40.03496177651874" lon="9.233797388696841"><ele>1241.0</ele><time>2026-04-30T07:21:47.044Z</time></trkpt><trkpt lat="40.034755240862225" lon="9.233784816006088"><ele>1241.0</ele><time>2026-04-30T07:21:48.044Z</time></trkpt><trkpt lat="40.03456569834181" lon="9.233822136514602"><ele>1241.0</ele><time>2026-04-30T07:21:49.044Z</time></trkpt><trkpt lat="40.03440779465103" lon="9.23379285126483"><ele>1241.0</ele><time>2026-04-30T07:21:50.044Z</time></trkpt><trkpt lat="40.03427196426333" lon="9.233699747877834"><ele>1241.0</ele><time>2026-04-30T07:21:51.044Z</time></trkpt><trkpt lat="40.03416715822321" lon="9.233514064643254"><ele>1241.0</ele><time>2026-04-30T07:21:52.044Z</time></trkpt><trkpt lat="40.03409644763086" lon="9.233273795182141"><ele>1241.0</ele><time>2026-04-30T07:21:53.044Z</time></trkpt><trkpt lat="40.03403542212589" lon="9.233012795673282"><ele>1245.3333333333335</ele><time>2026-04-30T07:21:54.044Z</time></trkpt><trkpt lat="40.03394010885219" lon="9.232782456867772"><ele>1249.6666666666667</ele><time>2026-04-30T07:21:55.044Z</time></trkpt><trkpt lat="40.033805662525616" lon="9.232589722232532"><ele>1254.0</ele><time>2026-04-30T07:21:56.044Z</time></trkpt><trkpt lat="40.03363419788901" lon="9.232429199752419"><ele>1254.0</ele><time>2026-04-30T07:21:57.044Z</time></trkpt><trkpt lat="40.0334363206673" lon="9.232307319155426"><ele>1254.0</ele><time>2026-04-30T07:21:58.044Z</time></trkpt><trkpt lat="40.033247084942516" lon="9.232170695649307"><ele>1254.0</ele><time>2026-04-30T07:21:59.044Z</time></trkpt><trkpt lat="40.033064571934446" lon="9.231999362100787"><ele>1251.5</ele><time>2026-04-30T07:22:00.044Z</time></trkpt><trkpt lat="40.032875939041006" lon="9.231838557042094"><ele>1249.0</ele><time>2026-04-30T07:22:01.044Z</time></trkpt><trkpt lat="40.032693727908004" lon="9.231667354791467"><ele>1249.0</ele><time>2026-04-30T07:22:02.044Z</time></trkpt><trkpt lat="40.03250443659732" lon="9.231508762932965"><ele>1249.0</ele><time>2026-04-30T07:22:03.044Z</time></trkpt><trkpt lat="40.03231447342114" lon="9.231343099713998"><ele>1248.6666666666665</ele><time>2026-04-30T07:22:04.044Z</time></trkpt><trkpt lat="40.032130623135934" lon="9.231173713327891"><ele>1248.3333333333333</ele><time>2026-04-30T07:22:05.044Z</time></trkpt><trkpt lat="40.03194894241515" lon="9.231015774694864"><ele>1248.0</ele><time>2026-04-30T07:22:06.044Z</time></trkpt><trkpt lat="40.03177579125005" lon="9.230861726331623"><ele>1242.0</ele><time>2026-04-30T07:22:07.044Z</time></trkpt><trkpt lat="40.031616122446216" lon="9.230706157275879"><ele>1236.0</ele><time>2026-04-30T07:22:08.044Z</time></trkpt><trkpt lat="40.031482617296135" lon="9.230516947017538"><ele>1230.0</ele><time>2026-04-30T07:22:09.044Z</time></trkpt><trkpt lat="40.03138923182984" lon="9.230298986320479"><ele>1230.0</ele><time>2026-04-30T07:22:10.044Z</time></trkpt><trkpt lat="40.03133147402703" lon="9.230049621270064"><ele>1230.0</ele><time>2026-04-30T07:22:11.044Z</time></trkpt><trkpt lat="40.031253092400206" lon="9.229800893635602"><ele>1230.0</ele><time>2026-04-30T07:22:12.044Z</time></trkpt><trkpt lat="40.03111350688143" lon="9.2296067897228"><ele>1228.6666666666667</ele><time>2026-04-30T07:22:13.044Z</time></trkpt><trkpt lat="40.03093851416865" lon="9.229447433092952"><ele>1227.3333333333335</ele><time>2026-04-30T07:22:14.044Z</time></trkpt><trkpt lat="40.030762744430305" lon="9.229274810071699"><ele>1226.0</ele><time>2026-04-30T07:22:15.044Z</time></trkpt><trkpt lat="40.030578588724445" lon="9.229125309921"><ele>1226.0</ele><time>2026-04-30T07:22:16.044Z</time></trkpt><trkpt lat="40.03038433097259" lon="9.229015347075245"><ele>1226.0</ele><time>2026-04-30T07:22:17.044Z</time></trkpt><trkpt lat="40.03018960016498" lon="9.228979188259116"><ele>1226.0</ele><time>2026-04-30T07:22:18.044Z</time></trkpt><trkpt lat="40.03002323938372" lon="9.228916724340358"><ele>1222.0</ele><time>2026-04-30T07:22:19.044Z</time></trkpt><trkpt lat="40.029910648688386" lon="9.228761168795842"><ele>1218.0</ele><time>2026-04-30T07:22:20.044Z</time></trkpt><trkpt lat="40.029841135950264" lon="9.228539327430006"><ele>1214.0</ele><time>2026-04-30T07:22:21.044Z</time></trkpt><trkpt lat="40.02977466925882" lon="9.22829302987768"><ele>1222.5</ele><time>2026-04-30T07:22:22.044Z</time></trkpt><trkpt lat="40.02967406092945" lon="9.228027740393241"><ele>1231.0</ele><time>2026-04-30T07:22:23.044Z</time></trkpt><trkpt lat="40.02950878155023" lon="9.227810425770642"><ele>1231.0</ele><time>2026-04-30T07:22:24.044Z</time></trkpt><trkpt lat="40.029331314994465" lon="9.227607688408797"><ele>1231.0</ele><time>2026-04-30T07:22:25.044Z</time></trkpt><trkpt lat="40.029134620382976" lon="9.227448512786017"><ele>1228.0</ele><time>2026-04-30T07:22:26.044Z</time></trkpt><trkpt lat="40.028930418275436" lon="9.227336851156632"><ele>1225.0</ele><time>2026-04-30T07:22:27.044Z</time></trkpt><trkpt lat="40.028747645264204" lon="9.227240774722818"><ele>1222.0</ele><time>2026-04-30T07:22:28.044Z</time></trkpt><trkpt lat="40.028601999225394" lon="9.227095812261402"><ele>1222.0</ele><time>2026-04-30T07:22:29.044Z</time></trkpt><trkpt lat="40.02849959742185" lon="9.226871882390318"><ele>1222.0</ele><time>2026-04-30T07:22:30.044Z</time></trkpt><trkpt lat="40.02839303015322" lon="9.226599551124774"><ele>1222.0</ele><time>2026-04-30T07:22:31.044Z</time></trkpt><trkpt lat="40.028250830032036" lon="9.226337464229724"><ele>1218.5</ele><time>2026-04-30T07:22:32.044Z</time></trkpt><trkpt lat="40.028088803333596" lon="9.226106941555816"><ele>1215.0</ele><time>2026-04-30T07:22:33.044Z</time></trkpt><trkpt lat="40.027917366900034" lon="9.225918335854546"><ele>1215.0</ele><time>2026-04-30T07:22:34.044Z</time></trkpt><trkpt lat="40.02772583994546" lon="9.225795356253744"><ele>1215.0</ele><time>2026-04-30T07:22:35.044Z</time></trkpt><trkpt lat="40.02751190149469" lon="9.22573301359206"><ele>1215.0</ele><time>2026-04-30T07:22:36.044Z</time></trkpt><trkpt lat="40.02730069688598" lon="9.225670338254055"><ele>1210.6666666666667</ele><time>2026-04-30T07:22:37.044Z</time></trkpt><trkpt lat="40.0271443118521" lon="9.225511448375805"><ele>1206.3333333333335</ele><time>2026-04-30T07:22:38.044Z</time></trkpt><trkpt lat="40.027022454758956" lon="9.225261400858981"><ele>1202.0</ele><time>2026-04-30T07:22:39.045Z</time></trkpt><trkpt lat="40.02689997355413" lon="9.224991915992282"><ele>1203.6666666666667</ele><time>2026-04-30T07:22:40.045Z</time></trkpt><trkpt lat="40.026776840377494" lon="9.22473436600504"><ele>1205.3333333333333</ele><time>2026-04-30T07:22:41.045Z</time></trkpt><trkpt lat="40.02667421463892" lon="9.224491547229025"><ele>1207.0</ele><time>2026-04-30T07:22:42.046Z</time></trkpt><trkpt lat="40.02662547197394" lon="9.22424662108174"><ele>1207.0</ele><time>2026-04-30T07:22:43.046Z</time></trkpt><trkpt lat="40.02658790791243" lon="9.22403647976408"><ele>1207.0</ele><time>2026-04-30T07:22:44.046Z</time></trkpt><trkpt lat="40.02649823125067" lon="9.223885526550207"><ele>1207.0</ele><time>2026-04-30T07:22:45.046Z</time></trkpt><trkpt lat="40.02636737444909" lon="9.223815701292576"><ele>1207.0</ele><time>2026-04-30T07:22:46.045Z</time></trkpt><trkpt lat="40.02620635970944" lon="9.22383235858409"><ele>1207.0</ele><time>2026-04-30T07:22:47.045Z</time></trkpt><trkpt lat="40.02606533721605" lon="9.223959673083726"><ele>1207.0</ele><time>2026-04-30T07:22:48.045Z</time></trkpt><trkpt lat="40.025918677965606" lon="9.224155225835705"><ele>1207.0</ele><time>2026-04-30T07:22:49.046Z</time></trkpt><trkpt lat="40.02576902434417" lon="9.224305979914773"><ele>1207.0</ele><time>2026-04-30T07:22:50.046Z</time></trkpt><trkpt lat="40.02561532852622" lon="9.224347754622478"><ele>1207.0</ele><time>2026-04-30T07:22:51.046Z</time></trkpt><trkpt lat="40.02543965419237" lon="9.22427311885468"><ele>1207.0</ele><time>2026-04-30T07:22:52.046Z</time></trkpt><trkpt lat="40.02524954009923" lon="9.224166836693017"><ele>1207.0</ele><time>2026-04-30T07:22:53.046Z</time></trkpt><trkpt lat="40.025103741890575" lon="9.22417400109663"><ele>1207.0</ele><time>2026-04-30T07:22:54.046Z</time></trkpt><trkpt lat="40.024978761730324" lon="9.224282804399879"><ele>1216.0</ele><time>2026-04-30T07:22:55.046Z</time></trkpt><trkpt lat="40.02490569330417" lon="9.224493452675262"><ele>1225.0</ele><time>2026-04-30T07:22:56.046Z</time></trkpt><trkpt lat="40.02489134254466" lon="9.224745467332411"><ele>1234.0</ele><time>2026-04-30T07:22:57.046Z</time></trkpt><trkpt lat="40.02488624502617" lon="9.225026818774076"><ele>1234.0</ele><time>2026-04-30T07:22:58.046Z</time></trkpt><trkpt lat="40.024864276448135" lon="9.225314586110493"><ele>1234.0</ele><time>2026-04-30T07:22:59.046Z</time></trkpt><trkpt lat="40.024801520391904" lon="9.225612038402266"><ele>1223.0</ele><time>2026-04-30T07:23:00.046Z</time></trkpt><trkpt lat="40.02469079975121" lon="9.225902051025194"><ele>1212.0</ele><time>2026-04-30T07:23:01.046Z</time></trkpt><trkpt lat="40.02455181821388" lon="9.226165936937907"><ele>1212.0</ele><time>2026-04-30T07:23:02.046Z</time></trkpt><trkpt lat="40.02438369575051" lon="9.226408855635885"><ele>1212.0</ele><time>2026-04-30T07:23:03.046Z</time></trkpt><trkpt lat="40.02419564781294" lon="9.226630359803398"><ele>1205.5</ele><time>2026-04-30T07:23:04.046Z</time></trkpt><trkpt lat="40.02399016281727" lon="9.226833586180106"><ele>1199.0</ele><time>2026-04-30T07:23:05.046Z</time></trkpt><trkpt lat="40.02379013613269" lon="9.227009939934144"><ele>1199.0</ele><time>2026-04-30T07:23:06.046Z</time></trkpt><trkpt lat="40.02358619058481" lon="9.227156320387577"><ele>1199.0</ele><time>2026-04-30T07:23:07.046Z</time></trkpt><trkpt lat="40.02337096818403" lon="9.227216686664857"><ele>1198.6666666666667</ele><time>2026-04-30T07:23:08.046Z</time></trkpt><trkpt lat="40.02315118582859" lon="9.227221154292423"><ele>1198.3333333333333</ele><time>2026-04-30T07:23:09.046Z</time></trkpt><trkpt lat="40.022945911510696" lon="9.227176591984053"><ele>1198.0</ele><time>2026-04-30T07:23:10.046Z</time></trkpt><trkpt lat="40.02274643710022" lon="9.227136248106094"><ele>1198.0</ele><time>2026-04-30T07:23:11.046Z</time></trkpt><trkpt lat="40.02256108667118" lon="9.22716847562227"><ele>1198.0</ele><time>2026-04-30T07:23:12.046Z</time></trkpt><trkpt lat="40.02238997764688" lon="9.227294237334576"><ele>1198.0</ele><time>2026-04-30T07:23:13.046Z</time></trkpt><trkpt lat="40.02223365973096" lon="9.227447624190985"><ele>1189.3333333333333</ele><time>2026-04-30T07:23:14.046Z</time></trkpt><trkpt lat="40.02204922598784" lon="9.227581875530202"><ele>1180.6666666666667</ele><time>2026-04-30T07:23:15.046Z</time></trkpt><trkpt lat="40.02184551901711" lon="9.22766590298159"><ele>1172.0</ele><time>2026-04-30T07:23:16.046Z</time></trkpt><trkpt lat="40.02163438886393" lon="9.2277158664329"><ele>1167.3333333333335</ele><time>2026-04-30T07:23:17.046Z</time></trkpt><trkpt lat="40.02143712073232" lon="9.227767277470123"><ele>1162.6666666666667</ele><time>2026-04-30T07:23:18.046Z</time></trkpt><trkpt lat="40.021252113179635" lon="9.227810164218553"><ele>1158.0</ele><time>2026-04-30T07:23:19.046Z</time></trkpt><trkpt lat="40.021090348745574" lon="9.227762918782794"><ele>1158.0</ele><time>2026-04-30T07:23:20.046Z</time></trkpt><trkpt lat="40.020957117638176" lon="9.227612590315687"><ele>1158.0</ele><time>2026-04-30T07:23:21.046Z</time></trkpt><trkpt lat="40.020871128882156" lon="9.227400786240826"><ele>1158.0</ele><time>2026-04-30T07:23:22.046Z</time></trkpt><trkpt lat="40.02081940997425" lon="9.227146182097146"><ele>1159.6666666666667</ele><time>2026-04-30T07:23:23.046Z</time></trkpt><trkpt lat="40.02075676321178" lon="9.226874420074505"><ele>1161.3333333333335</ele><time>2026-04-30T07:23:24.046Z</time></trkpt><trkpt lat="40.02066107701357" lon="9.226624938145692"><ele>1163.0</ele><time>2026-04-30T07:23:25.046Z</time></trkpt><trkpt lat="40.02052902544122" lon="9.226420708987902"><ele>1163.0</ele><time>2026-04-30T07:23:26.046Z</time></trkpt><trkpt lat="40.020382578610715" lon="9.22627926080681"><ele>1163.0</ele><time>2026-04-30T07:23:27.046Z</time></trkpt><trkpt lat="40.02020967194091" lon="9.226232983997576"><ele>1163.0</ele><time>2026-04-30T07:23:28.046Z</time></trkpt><trkpt lat="40.020016502663715" lon="9.226270023347835"><ele>1157.3333333333335</ele><time>2026-04-30T07:23:29.046Z</time></trkpt><trkpt lat="40.01982297393347" lon="9.22629934489989"><ele>1151.6666666666667</ele><time>2026-04-30T07:23:30.046Z</time></trkpt><trkpt lat="40.01961960699101" lon="9.226283593646276"><ele>1146.0</ele><time>2026-04-30T07:23:31.046Z</time></trkpt><trkpt lat="40.01945149526323" lon="9.226211262915035"><ele>1146.0</ele><time>2026-04-30T07:23:32.046Z</time></trkpt><trkpt lat="40.01933951675841" lon="9.226098637763615"><ele>1146.0</ele><time>2026-04-30T07:23:33.046Z</time></trkpt><trkpt lat="40.0192939581365" lon="9.22594752580334"><ele>1146.0</ele><time>2026-04-30T07:23:34.046Z</time></trkpt><trkpt lat="40.019319164789714" lon="9.22577137596602"><ele>1146.0</ele><time>2026-04-30T07:23:35.046Z</time></trkpt><trkpt lat="40.019315017391975" lon="9.22553958802015"><ele>1144.5</ele><time>2026-04-30T07:23:36.046Z</time></trkpt><trkpt lat="40.01924888049134" lon="9.225371153878717"><ele>1143.0</ele><time>2026-04-30T07:23:37.046Z</time></trkpt><trkpt lat="40.01913052138528" lon="9.225282213403633"><ele>1141.5</ele><time>2026-04-30T07:23:38.046Z</time></trkpt><trkpt lat="40.01898239188338" lon="9.225280176879512"><ele>1140.0</ele><time>2026-04-30T07:23:39.046Z</time></trkpt><trkpt lat="40.01884002993573" lon="9.225357184322494"><ele>1140.0</ele><time>2026-04-30T07:23:40.046Z</time></trkpt><trkpt lat="40.018699789384414" lon="9.225432261178446"><ele>1140.0</ele><time>2026-04-30T07:23:41.046Z</time></trkpt><trkpt lat="40.01857536627191" lon="9.22542673560148"><ele>1140.0</ele><time>2026-04-30T07:23:42.046Z</time></trkpt><trkpt lat="40.018460369788144" lon="9.22530552778568"><ele>1140.0</ele><time>2026-04-30T07:23:43.046Z</time></trkpt><trkpt lat="40.01839871899926" lon="9.22510181020286"><ele>1140.0</ele><time>2026-04-30T07:23:44.046Z</time></trkpt><trkpt lat="40.01835984858009" lon="9.224890291374756"><ele>1140.0</ele><time>2026-04-30T07:23:45.046Z</time></trkpt><trkpt lat="40.01824331063516" lon="9.224772883360389"><ele>1140.0</ele><time>2026-04-30T07:23:46.046Z</time></trkpt><trkpt lat="40.01809550020382" lon="9.224751533178724"><ele>1140.0</ele><time>2026-04-30T07:23:47.046Z</time></trkpt><trkpt lat="40.017921936359265" lon="9.22478961271187"><ele>1140.0</ele><time>2026-04-30T07:23:48.046Z</time></trkpt><trkpt lat="40.017754294202085" lon="9.224725609859519"><ele>1140.0</ele><time>2026-04-30T07:23:49.046Z</time></trkpt><trkpt lat="40.01759744810495" lon="9.224569019769016"><ele>1128.0</ele><time>2026-04-30T07:23:50.046Z</time></trkpt><trkpt lat="40.017422665300096" lon="9.224402696960539"><ele>1116.0</ele><time>2026-04-30T07:23:51.046Z</time></trkpt><trkpt lat="40.01722603003181" lon="9.224237203664376"><ele>1116.0</ele><time>2026-04-30T07:23:52.046Z</time></trkpt><trkpt lat="40.017006605594425" lon="9.224079486619493"><ele>1116.0</ele><time>2026-04-30T07:23:53.046Z</time></trkpt><trkpt lat="40.01677288213467" lon="9.223923951315752"><ele>1119.0</ele><time>2026-04-30T07:23:54.046Z</time></trkpt><trkpt lat="40.01653837846891" lon="9.223772814252763"><ele>1122.0</ele><time>2026-04-30T07:23:55.046Z</time></trkpt><trkpt lat="40.01630131774467" lon="9.22362357784468"><ele>1122.0</ele><time>2026-04-30T07:23:56.046Z</time></trkpt><trkpt lat="40.0160629030356" lon="9.22349789469463"><ele>1122.0</ele><time>2026-04-30T07:23:57.046Z</time></trkpt><trkpt lat="40.0158285652124" lon="9.223399927729664"><ele>1117.0</ele><time>2026-04-30T07:23:58.046Z</time></trkpt><trkpt lat="40.015594089765216" lon="9.223314329880889"><ele>1112.0</ele><time>2026-04-30T07:23:59.046Z</time></trkpt><trkpt lat="40.01537012756247" lon="9.223231591919564"><ele>1112.0</ele><time>2026-04-30T07:24:00.046Z</time></trkpt><trkpt lat="40.01515862788214" lon="9.223156236102495"><ele>1112.0</ele><time>2026-04-30T07:24:01.046Z</time></trkpt><trkpt lat="40.01494604754728" lon="9.2231509638737"><ele>1112.0</ele><time>2026-04-30T07:24:02.046Z</time></trkpt><trkpt lat="40.01473559259779" lon="9.223211247738126"><ele>1111.3333333333335</ele><time>2026-04-30T07:24:03.046Z</time></trkpt><trkpt lat="40.01452782156793" lon="9.223286871801264"><ele>1110.6666666666667</ele><time>2026-04-30T07:24:04.046Z</time></trkpt><trkpt lat="40.014314549320034" lon="9.223337773735105"><ele>1110.0</ele><time>2026-04-30T07:24:05.046Z</time></trkpt><trkpt lat="40.01409198348219" lon="9.223383472507802"><ele>1109.0</ele><time>2026-04-30T07:24:06.046Z</time></trkpt><trkpt lat="40.01387265118439" lon="9.223429586701034"><ele>1108.0</ele><time>2026-04-30T07:24:07.046Z</time></trkpt><trkpt lat="40.01365168776414" lon="9.223485601228909"><ele>1107.0</ele><time>2026-04-30T07:24:08.046Z</time></trkpt><trkpt lat="40.013439297384956" lon="9.223536702807175"><ele>1101.6666666666667</ele><time>2026-04-30T07:24:09.046Z</time></trkpt><trkpt lat="40.01324002151218" lon="9.223584862329435"><ele>1096.3333333333335</ele><time>2026-04-30T07:24:10.046Z</time></trkpt><trkpt lat="40.01304831511155" lon="9.223635582129997"><ele>1091.0</ele><time>2026-04-30T07:24:11.046Z</time></trkpt><trkpt lat="40.01285786697755" lon="9.22366267033337"><ele>1091.0</ele><time>2026-04-30T07:24:12.046Z</time></trkpt><trkpt lat="40.01268266008377" lon="9.223614779016936"><ele>1091.0</ele><time>2026-04-30T07:24:13.046Z</time></trkpt><trkpt lat="40.012527619985136" lon="9.223501623041768"><ele>1091.0</ele><time>2026-04-30T07:24:14.046Z</time></trkpt><trkpt lat="40.01237649296169" lon="9.223337030705341"><ele>1088.0</ele><time>2026-04-30T07:24:15.046Z</time></trkpt><trkpt lat="40.01222366676329" lon="9.22316423973372"><ele>1085.0</ele><time>2026-04-30T07:24:16.046Z</time></trkpt><trkpt lat="40.01205839635733" lon="9.223021151977997"><ele>1082.0</ele><time>2026-04-30T07:24:17.046Z</time></trkpt><trkpt lat="40.011891484429384" lon="9.222906192142418"><ele>1082.0</ele><time>2026-04-30T07:24:18.046Z</time></trkpt><trkpt lat="40.01177474872892" lon="9.22273336126756"><ele>1082.0</ele><time>2026-04-30T07:24:19.046Z</time></trkpt><trkpt lat="40.011711490601144" lon="9.222499154746162"><ele>1082.0</ele><time>2026-04-30T07:24:20.046Z</time></trkpt><trkpt lat="40.01165835322848" lon="9.222257974289548"><ele>1075.6666666666667</ele><time>2026-04-30T07:24:21.046Z</time></trkpt><trkpt lat="40.01152715753815" lon="9.222067956498021"><ele>1069.3333333333333</ele><time>2026-04-30T07:24:22.046Z</time></trkpt><trkpt lat="40.01135496729643" lon="9.221917248656627"><ele>1063.0</ele><time>2026-04-30T07:24:23.046Z</time></trkpt><trkpt lat="40.01118150482355" lon="9.221743756393716"><ele>1063.0</ele><time>2026-04-30T07:24:24.046Z</time></trkpt><trkpt lat="40.011040567445534" lon="9.221513083400565"><ele>1063.0</ele><time>2026-04-30T07:24:25.046Z</time></trkpt><trkpt lat="40.01092149760314" lon="9.221247900197131"><ele>1068.5</ele><time>2026-04-30T07:24:26.046Z</time></trkpt><trkpt lat="40.01082728237419" lon="9.220964906041637"><ele>1074.0</ele><time>2026-04-30T07:24:27.046Z</time></trkpt><trkpt lat="40.01072895870023" lon="9.220680332640676"><ele>1068.3333333333333</ele><time>2026-04-30T07:24:28.046Z</time></trkpt><trkpt lat="40.01063011109655" lon="9.220407773973651"><ele>1062.6666666666665</ele><time>2026-04-30T07:24:29.046Z</time></trkpt><trkpt lat="40.01053564257457" lon="9.2201563752836"><ele>1057.0</ele><time>2026-04-30T07:24:30.046Z</time></trkpt><trkpt lat="40.010436730820345" lon="9.21994398777677"><ele>1062.3333333333333</ele><time>2026-04-30T07:24:31.047Z</time></trkpt><trkpt lat="40.0102834889753" lon="9.21980103024849"><ele>1067.6666666666667</ele><time>2026-04-30T07:24:32.047Z</time></trkpt><trkpt lat="40.010094069537914" lon="9.219716026147257"><ele>1073.0</ele><time>2026-04-30T07:24:33.047Z</time></trkpt><trkpt lat="40.00989576746935" lon="9.219685882125834"><ele>1062.3333333333335</ele><time>2026-04-30T07:24:34.047Z</time></trkpt><trkpt lat="40.0097414505157" lon="9.219610986401733"><ele>1051.6666666666667</ele><time>2026-04-30T07:24:35.047Z</time></trkpt><trkpt lat="40.009629385050516" lon="9.219451768660493"><ele>1041.0</ele><time>2026-04-30T07:24:36.047Z</time></trkpt><trkpt lat="40.00953485732715" lon="9.21893629098165"><ele>1041.0</ele><time>2026-04-30T07:24:38.047Z</time></trkpt><trkpt lat="40.00952604500329" lon="9.218618503851348"><ele>1041.0</ele><time>2026-04-30T07:24:39.047Z</time></trkpt><trkpt lat="40.00948714119918" lon="9.218295301292258"><ele>1043.0</ele><time>2026-04-30T07:24:40.047Z</time></trkpt><trkpt lat="40.00940654730546" lon="9.217977855621392"><ele>1045.0</ele><time>2026-04-30T07:24:41.047Z</time></trkpt><trkpt lat="40.009301485875014" lon="9.217662137899557"><ele>1045.0</ele><time>2026-04-30T07:24:42.047Z</time></trkpt><trkpt lat="40.009181411405216" lon="9.217347567720726"><ele>1045.0</ele><time>2026-04-30T07:24:43.047Z</time></trkpt><trkpt lat="40.00906359914426" lon="9.217049888606184"><ele>1045.6666666666665</ele><time>2026-04-30T07:24:44.047Z</time></trkpt><trkpt lat="40.008949179372685" lon="9.216775178270575"><ele>1046.3333333333333</ele><time>2026-04-30T07:24:45.049Z</time></trkpt><trkpt lat="40.00883752422079" lon="9.216554368212757"><ele>1047.0</ele><time>2026-04-30T07:24:46.048Z</time></trkpt><trkpt lat="40.00866684675562" lon="9.216370311088289"><ele>1047.0</ele><time>2026-04-30T07:24:47.048Z</time></trkpt><trkpt lat="40.00846076967836" lon="9.21621976656696"><ele>1047.0</ele><time>2026-04-30T07:24:48.049Z</time></trkpt><trkpt lat="40.008260367160624" lon="9.216008188703906"><ele>1050.6666666666667</ele><time>2026-04-30T07:24:49.049Z</time></trkpt><trkpt lat="40.00810387694044" lon="9.215781760228095"><ele>1054.3333333333335</ele><time>2026-04-30T07:24:50.049Z</time></trkpt><trkpt lat="40.007946099354236" lon="9.215596129385728"><ele>1058.0</ele><time>2026-04-30T07:24:51.049Z</time></trkpt><trkpt lat="40.00774015963654" lon="9.215479534855541"><ele>1058.0</ele><time>2026-04-30T07:24:52.049Z</time></trkpt><trkpt lat="40.0075042851157" lon="9.215416462740098"><ele>1058.0</ele><time>2026-04-30T07:24:53.049Z</time></trkpt><trkpt lat="40.00725876404893" lon="9.215373338471734"><ele>1057.3333333333335</ele><time>2026-04-30T07:24:54.049Z</time></trkpt><trkpt lat="40.00701981130382" lon="9.21532954614073"><ele>1056.6666666666667</ele><time>2026-04-30T07:24:55.049Z</time></trkpt><trkpt lat="40.00682331876338" lon="9.215300732272917"><ele>1056.0</ele><time>2026-04-30T07:24:56.049Z</time></trkpt><trkpt lat="40.006654820361405" lon="9.215286186616023"><ele>1056.0</ele><time>2026-04-30T07:24:57.049Z</time></trkpt><trkpt lat="40.00650381636878" lon="9.215288516255237"><ele>1056.0</ele><time>2026-04-30T07:24:58.049Z</time></trkpt><trkpt lat="40.00638482463408" lon="9.215294240058189"><ele>1056.0</ele><time>2026-04-30T07:24:59.049Z</time></trkpt><trkpt lat="40.00628724956294" lon="9.215336620933048"><ele>1056.0</ele><time>2026-04-30T07:25:00.049Z</time></trkpt><trkpt lat="40.006237685311596" lon="9.2154502999286"><ele>1056.0</ele><time>2026-04-30T07:25:01.049Z</time></trkpt><trkpt lat="40.006263554604" lon="9.215587184256787"><ele>1056.0</ele><time>2026-04-30T07:25:02.049Z</time></trkpt><trkpt lat="40.006365682297904" lon="9.215672996804733"><ele>1056.0</ele><time>2026-04-30T07:25:03.049Z</time></trkpt><trkpt lat="40.006513566905845" lon="9.215678978688143"><ele>1056.0</ele><time>2026-04-30T07:25:04.049Z</time></trkpt><trkpt lat="40.0066909825987" lon="9.215604827921105"><ele>1054.3333333333333</ele><time>2026-04-30T07:25:05.049Z</time></trkpt><trkpt lat="40.006896093204944" lon="9.215583220324406"><ele>1052.6666666666665</ele><time>2026-04-30T07:25:06.049Z</time></trkpt><trkpt lat="40.0071058076253" lon="9.215620068836987"><ele>1051.0</ele><time>2026-04-30T07:25:07.049Z</time></trkpt><trkpt lat="40.007294707947985" lon="9.215675709683532"><ele>1041.6666666666665</ele><time>2026-04-30T07:25:08.049Z</time></trkpt><trkpt lat="40.00747371814988" lon="9.215739625132127"><ele>1032.3333333333333</ele><time>2026-04-30T07:25:09.049Z</time></trkpt><trkpt lat="40.007640904665614" lon="9.215824839129368"><ele>1023.0</ele><time>2026-04-30T07:25:10.049Z</time></trkpt><trkpt lat="40.00777691259706" lon="9.215985717009028"><ele>1023.0</ele><time>2026-04-30T07:25:11.049Z</time></trkpt><trkpt lat="40.007889120752736" lon="9.216193908955677"><ele>1023.0</ele><time>2026-04-30T07:25:12.049Z</time></trkpt><trkpt lat="40.007974796535635" lon="9.216428179515018"><ele>1023.0</ele><time>2026-04-30T07:25:13.049Z</time></trkpt><trkpt lat="40.008015314857694" lon="9.21666810206729"><ele>1014.0</ele><time>2026-04-30T07:25:14.049Z</time></trkpt><trkpt lat="40.008024110371856" lon="9.216908467135081"><ele>1005.0</ele><time>2026-04-30T07:25:15.049Z</time></trkpt><trkpt lat="40.008054695898366" lon="9.217140094182083"><ele>996.0</ele><time>2026-04-30T07:25:16.049Z</time></trkpt><trkpt lat="40.00814027373231" lon="9.217344792398142"><ele>990.6666666666667</ele><time>2026-04-30T07:25:17.049Z</time></trkpt><trkpt lat="40.00826174826192" lon="9.217533396140269"><ele>985.3333333333334</ele><time>2026-04-30T07:25:18.049Z</time></trkpt><trkpt lat="40.00836818163909" lon="9.217734144381131"><ele>980.0</ele><time>2026-04-30T07:25:19.049Z</time></trkpt><trkpt lat="40.008415766964426" lon="9.217965652775852"><ele>976.6666666666667</ele><time>2026-04-30T07:25:20.049Z</time></trkpt><trkpt lat="40.00842819333172" lon="9.218207903864421"><ele>973.3333333333333</ele><time>2026-04-30T07:25:21.049Z</time></trkpt><trkpt lat="40.00839347412921" lon="9.21845694941928"><ele>970.0</ele><time>2026-04-30T07:25:22.049Z</time></trkpt><trkpt lat="40.00831858134342" lon="9.218698888332813"><ele>970.0</ele><time>2026-04-30T07:25:23.049Z</time></trkpt><trkpt lat="40.008229453952374" lon="9.218943276617027"><ele>970.0</ele><time>2026-04-30T07:25:24.049Z</time></trkpt><trkpt lat="40.00815195458126" lon="9.219188550473328"><ele>970.0</ele><time>2026-04-30T07:25:25.049Z</time></trkpt><trkpt lat="40.00808948991263" lon="9.21944177675241"><ele>968.6666666666666</ele><time>2026-04-30T07:25:26.049Z</time></trkpt><trkpt lat="40.00808263410802" lon="9.219711275866626"><ele>967.3333333333333</ele><time>2026-04-30T07:25:27.049Z</time></trkpt><trkpt lat="40.00810961549894" lon="9.219983093469743"><ele>966.0</ele><time>2026-04-30T07:25:28.049Z</time></trkpt><trkpt lat="40.00813690808366" lon="9.220251311089376"><ele>963.3333333333333</ele><time>2026-04-30T07:25:29.049Z</time></trkpt><trkpt lat="40.00815716091426" lon="9.220491827594484"><ele>960.6666666666666</ele><time>2026-04-30T07:25:30.049Z</time></trkpt><trkpt lat="40.00819380404383" lon="9.220703337923855"><ele>958.0</ele><time>2026-04-30T07:25:31.049Z</time></trkpt><trkpt lat="40.00828517014083" lon="9.220864730007321"><ele>967.0</ele><time>2026-04-30T07:25:32.049Z</time></trkpt><trkpt lat="40.008428982946924" lon="9.220958902143986"><ele>976.0</ele><time>2026-04-30T07:25:33.049Z</time></trkpt><trkpt lat="40.008599262512746" lon="9.221017984381911"><ele>985.0</ele><time>2026-04-30T07:25:34.049Z</time></trkpt><trkpt lat="40.00876627053816" lon="9.221067460352376"><ele>985.0</ele><time>2026-04-30T07:25:35.049Z</time></trkpt><trkpt lat="40.00890028308442" lon="9.221140762626703"><ele>985.0</ele><time>2026-04-30T07:25:36.049Z</time></trkpt><trkpt lat="40.00899738825311" lon="9.221261422018872"><ele>985.0</ele><time>2026-04-30T07:25:37.049Z</time></trkpt><trkpt lat="40.00904369422753" lon="9.221425730775545"><ele>985.0</ele><time>2026-04-30T07:25:38.049Z</time></trkpt><trkpt lat="40.009067084777016" lon="9.22160780071478"><ele>974.6666666666666</ele><time>2026-04-30T07:25:39.049Z</time></trkpt><trkpt lat="40.009098136543074" lon="9.221790917567061"><ele>964.3333333333333</ele><time>2026-04-30T07:25:40.049Z</time></trkpt><trkpt lat="40.00912863369846" lon="9.221985693937063"><ele>954.0</ele><time>2026-04-30T07:25:41.049Z</time></trkpt><trkpt lat="40.00913378828184" lon="9.222193194608131"><ele>948.6666666666667</ele><time>2026-04-30T07:25:42.049Z</time></trkpt><trkpt lat="40.00912358305428" lon="9.22240392356986"><ele>943.3333333333334</ele><time>2026-04-30T07:25:43.049Z</time></trkpt><trkpt lat="40.00912525384695" lon="9.222627490169048"><ele>938.0</ele><time>2026-04-30T07:25:44.049Z</time></trkpt><trkpt lat="40.009143874466815" lon="9.222834431611926"><ele>948.6666666666667</ele><time>2026-04-30T07:25:45.049Z</time></trkpt><trkpt lat="40.00918944730295" lon="9.223039552398768"><ele>959.3333333333333</ele><time>2026-04-30T07:25:46.049Z</time></trkpt><trkpt lat="40.0092348718083" lon="9.223235799833663"><ele>970.0</ele><time>2026-04-30T07:25:47.049Z</time></trkpt><trkpt lat="40.00928664570969" lon="9.223421047411092"><ele>970.0</ele><time>2026-04-30T07:25:48.049Z</time></trkpt><trkpt lat="40.00933052502612" lon="9.223598367137589"><ele>970.0</ele><time>2026-04-30T07:25:49.049Z</time></trkpt><trkpt lat="40.00936074469292" lon="9.223757686755173"><ele>970.0</ele><time>2026-04-30T07:25:50.049Z</time></trkpt><trkpt lat="40.009379066565955" lon="9.223912307994567"><ele>970.0</ele><time>2026-04-30T07:25:51.049Z</time></trkpt><trkpt lat="40.009389264313214" lon="9.224058877041196"><ele>968.2</ele><time>2026-04-30T07:25:52.049Z</time></trkpt><trkpt lat="40.00940300907834" lon="9.224202020522213"><ele>966.4</ele><time>2026-04-30T07:25:53.049Z</time></trkpt><trkpt lat="40.009412757328505" lon="9.22434013747384"><ele>964.5999999999999</ele><time>2026-04-30T07:25:54.049Z</time></trkpt><trkpt lat="40.00942221513547" lon="9.224480689510585"><ele>962.8</ele><time>2026-04-30T07:25:55.049Z</time></trkpt><trkpt lat="40.0094329435071" lon="9.224616551242434"><ele>961.0</ele><time>2026-04-30T07:25:56.049Z</time></trkpt><trkpt lat="40.009444781808135" lon="9.224754320312815"><ele>959.1999999999999</ele><time>2026-04-30T07:25:57.049Z</time></trkpt><trkpt lat="40.009464225690486" lon="9.224888960088396"><ele>957.3999999999999</ele><time>2026-04-30T07:25:58.049Z</time></trkpt><trkpt lat="40.009487732000935" lon="9.225013038603858"><ele>955.6</ele><time>2026-04-30T07:25:59.049Z</time></trkpt><trkpt lat="40.00953045592654" lon="9.225128505160434"><ele>953.8</ele><time>2026-04-30T07:26:00.049Z</time></trkpt><trkpt lat="40.00959853167663" lon="9.225229420562098"><ele>952.0</ele><time>2026-04-30T07:26:01.049Z</time></trkpt><trkpt lat="40.00968754700094" lon="9.225322173508525"><ele>952.0</ele><time>2026-04-30T07:26:02.049Z</time></trkpt><trkpt lat="40.00978762383709" lon="9.225409135091372"><ele>952.0</ele><time>2026-04-30T07:26:03.049Z</time></trkpt><trkpt lat="40.00989184845354" lon="9.225496994751813"><ele>952.0</ele><time>2026-04-30T07:26:04.049Z</time></trkpt><trkpt lat="40.01000218268251" lon="9.225590839224454"><ele>952.0</ele><time>2026-04-30T07:26:05.049Z</time></trkpt><trkpt lat="40.01011623882146" lon="9.225689978779455"><ele>953.25</ele><time>2026-04-30T07:26:06.049Z</time></trkpt><trkpt lat="40.0102329756615" lon="9.225799653813793"><ele>954.5</ele><time>2026-04-30T07:26:07.049Z</time></trkpt><trkpt lat="40.01035166961029" lon="9.225900479397586"><ele>955.75</ele><time>2026-04-30T07:26:08.049Z</time></trkpt><trkpt lat="40.01046649890052" lon="9.226002213690306"><ele>957.0</ele><time>2026-04-30T07:26:09.049Z</time></trkpt><trkpt lat="40.01058396031999" lon="9.226109441494806"><ele>957.0</ele><time>2026-04-30T07:26:10.049Z</time></trkpt><trkpt lat="40.01069972002311" lon="9.226219128396297"><ele>957.0</ele><time>2026-04-30T07:26:11.049Z</time></trkpt><trkpt lat="40.010811464848146" lon="9.226334908975323"><ele>957.0</ele><time>2026-04-30T07:26:12.049Z</time></trkpt><trkpt lat="40.01090742734549" lon="9.226459909896272"><ele>957.0</ele><time>2026-04-30T07:26:13.049Z</time></trkpt><trkpt lat="40.010978769472146" lon="9.226605651319645"><ele>956.75</ele><time>2026-04-30T07:26:14.049Z</time></trkpt><trkpt lat="40.01103427244125" lon="9.226756545489055"><ele>956.5</ele><time>2026-04-30T07:26:15.049Z</time></trkpt><trkpt lat="40.011085705354375" lon="9.226892076406935"><ele>956.25</ele><time>2026-04-30T07:26:16.049Z</time></trkpt><trkpt lat="40.01114335722602" lon="9.227014060599569"><ele>956.0</ele><time>2026-04-30T07:26:17.049Z</time></trkpt><trkpt lat="40.01119729431157" lon="9.227136400793567"><ele>956.0</ele><time>2026-04-30T07:26:18.049Z</time></trkpt><trkpt lat="40.01125122384286" lon="9.227250448521932"><ele>955.9999999999999</ele><time>2026-04-30T07:26:19.049Z</time></trkpt><trkpt lat="40.01131974514135" lon="9.227346754705202"><ele>955.9999999999999</ele><time>2026-04-30T07:26:20.049Z</time></trkpt><trkpt lat="40.01140397675215" lon="9.227415365717139"><ele>956.0</ele><time>2026-04-30T07:26:21.049Z</time></trkpt><trkpt lat="40.011505024086546" lon="9.227458700766206"><ele>956.0</ele><time>2026-04-30T07:26:22.049Z</time></trkpt><trkpt lat="40.01160531047128" lon="9.227505764910992"><ele>955.5</ele><time>2026-04-30T07:26:23.049Z</time></trkpt><trkpt lat="40.01170663982701" lon="9.227548972659712"><ele>955.0</ele><time>2026-04-30T07:26:24.049Z</time></trkpt><trkpt lat="40.01181063834731" lon="9.227604915350138"><ele>954.5</ele><time>2026-04-30T07:26:25.049Z</time></trkpt><trkpt lat="40.01192643335077" lon="9.227659372383178"><ele>954.0</ele><time>2026-04-30T07:26:26.049Z</time></trkpt><trkpt lat="40.01204652202146" lon="9.227710504556171"><ele>954.0</ele><time>2026-04-30T07:26:27.049Z</time></trkpt><trkpt lat="40.01217094022522" lon="9.227761853110136"><ele>954.0</ele><time>2026-04-30T07:26:28.049Z</time></trkpt><trkpt lat="40.01230308482" lon="9.22782471247101"><ele>954.0</ele><time>2026-04-30T07:26:29.049Z</time></trkpt><trkpt lat="40.012437981144" lon="9.227882970067782"><ele>954.0</ele><time>2026-04-30T07:26:30.049Z</time></trkpt><trkpt lat="40.012570014074626" lon="9.227946808231664"><ele>958.25</ele><time>2026-04-30T07:26:31.049Z</time></trkpt><trkpt lat="40.01269873508464" lon="9.228004196500866"><ele>962.5</ele><time>2026-04-30T07:26:32.049Z</time></trkpt><trkpt lat="40.01282048014971" lon="9.228064035270943"><ele>966.75</ele><time>2026-04-30T07:26:33.049Z</time></trkpt><trkpt lat="40.012932856621696" lon="9.228144978416722"><ele>971.0</ele><time>2026-04-30T07:26:34.049Z</time></trkpt><trkpt lat="40.01303981311673" lon="9.228239797669842"><ele>965.5</ele><time>2026-04-30T07:26:35.049Z</time></trkpt><trkpt lat="40.013150987231455" lon="9.228333362729348"><ele>960.0</ele><time>2026-04-30T07:26:36.049Z</time></trkpt><trkpt lat="40.013256616283876" lon="9.228423481513415"><ele>954.5</ele><time>2026-04-30T07:26:37.049Z</time></trkpt><trkpt lat="40.013360131466655" lon="9.228502175547804"><ele>949.0</ele><time>2026-04-30T07:26:38.05Z</time></trkpt><trkpt lat="40.01346001573328" lon="9.2285810033002"><ele>949.0</ele><time>2026-04-30T07:26:39.05Z</time></trkpt><trkpt lat="40.01355980677574" lon="9.228645423892411"><ele>949.0000000000001</ele><time>2026-04-30T07:26:40.05Z</time></trkpt><trkpt lat="40.01366147379853" lon="9.228710866449068"><ele>949.0000000000001</ele><time>2026-04-30T07:26:41.05Z</time></trkpt><trkpt lat="40.01375909455203" lon="9.228775487678979"><ele>949.0</ele><time>2026-04-30T07:26:42.05Z</time></trkpt><trkpt lat="40.01385626207662" lon="9.22883757055864"><ele>949.0</ele><time>2026-04-30T07:26:43.05Z</time></trkpt><trkpt lat="40.01394756077627" lon="9.228904046142715"><ele>946.8000000000001</ele><time>2026-04-30T07:26:44.05Z</time></trkpt><trkpt lat="40.01403021858463" lon="9.228987075976859"><ele>944.6000000000001</ele><time>2026-04-30T07:26:45.05Z</time></trkpt><trkpt lat="40.01411376642183" lon="9.229072740715864"><ele>942.4</ele><time>2026-04-30T07:26:46.05Z</time></trkpt><trkpt lat="40.014190801092" lon="9.229172182558079"><ele>940.2</ele><time>2026-04-30T07:26:47.05Z</time></trkpt><trkpt lat="40.014275053234755" lon="9.229274838441446"><ele>938.0</ele><time>2026-04-30T07:26:48.05Z</time></trkpt><trkpt lat="40.014365282407" lon="9.22937152921082"><ele>938.0</ele><time>2026-04-30T07:26:49.05Z</time></trkpt><trkpt lat="40.014457638447574" lon="9.2294658204545"><ele>938.0</ele><time>2026-04-30T07:26:50.05Z</time></trkpt><trkpt lat="40.0145545472808" lon="9.229554570909361"><ele>938.0</ele><time>2026-04-30T07:26:51.051Z</time></trkpt><trkpt lat="40.0146542612314" lon="9.229635376508888"><ele>938.0</ele><time>2026-04-30T07:26:52.051Z</time></trkpt><trkpt lat="40.01476340846827" lon="9.229698055637083"><ele>938.0</ele><time>2026-04-30T07:26:53.051Z</time></trkpt><trkpt lat="40.0148715073389" lon="9.22977177594813"><ele>938.0</ele><time>2026-04-30T07:26:54.052Z</time></trkpt><trkpt lat="40.014961547716545" lon="9.229873745905993"><ele>938.0</ele><time>2026-04-30T07:26:55.051Z</time></trkpt><trkpt lat="40.01502074547853" lon="9.230015875639271"><ele>938.0</ele><time>2026-04-30T07:26:56.051Z</time></trkpt><trkpt lat="40.01504422956974" lon="9.230173589907256"><ele>937.25</ele><time>2026-04-30T07:26:57.052Z</time></trkpt><trkpt lat="40.01507142827749" lon="9.23032292909422"><ele>936.5</ele><time>2026-04-30T07:26:58.051Z</time></trkpt><trkpt lat="40.01514946041234" lon="9.230448489868449"><ele>935.75</ele><time>2026-04-30T07:26:59.051Z</time></trkpt><trkpt lat="40.015248648186336" lon="9.230555386113759"><ele>935.0</ele><time>2026-04-30T07:27:00.052Z</time></trkpt><trkpt lat="40.01534614444921" lon="9.230650644424907"><ele>929.75</ele><time>2026-04-30T07:27:01.052Z</time></trkpt><trkpt lat="40.015421077650494" lon="9.230791653756045"><ele>924.5</ele><time>2026-04-30T07:27:02.052Z</time></trkpt><trkpt lat="40.015472292675426" lon="9.230945558829466"><ele>919.25</ele><time>2026-04-30T07:27:03.051Z</time></trkpt><trkpt lat="40.01552101030903" lon="9.23110950450916"><ele>914.0</ele><time>2026-04-30T07:27:04.051Z</time></trkpt><trkpt lat="40.01558405988897" lon="9.231263915266545"><ele>914.0</ele><time>2026-04-30T07:27:05.051Z</time></trkpt><trkpt lat="40.01565831281049" lon="9.231411472191226"><ele>914.0</ele><time>2026-04-30T07:27:06.051Z</time></trkpt><trkpt lat="40.015733639746585" lon="9.23157255184952"><ele>914.0</ele><time>2026-04-30T07:27:07.051Z</time></trkpt><trkpt lat="40.01580715430542" lon="9.231723972119296"><ele>914.0</ele><time>2026-04-30T07:27:08.051Z</time></trkpt><trkpt lat="40.015880340426605" lon="9.231873854302393"><ele>913.0</ele><time>2026-04-30T07:27:09.051Z</time></trkpt><trkpt lat="40.01595390375387" lon="9.232017782927187"><ele>912.0</ele><time>2026-04-30T07:27:10.051Z</time></trkpt><trkpt lat="40.01602241632384" lon="9.232161431252681"><ele>911.0</ele><time>2026-04-30T07:27:11.051Z</time></trkpt><trkpt lat="40.01609024159196" lon="9.23230121371582"><ele>910.0</ele><time>2026-04-30T07:27:12.051Z</time></trkpt><trkpt lat="40.01615344013343" lon="9.2324334283374"><ele>910.0</ele><time>2026-04-30T07:27:13.051Z</time></trkpt><trkpt lat="40.01622012869582" lon="9.232564956951192"><ele>910.0</ele><time>2026-04-30T07:27:14.051Z</time></trkpt><trkpt lat="40.016275082545015" lon="9.232696084870135"><ele>910.0</ele><time>2026-04-30T07:27:15.051Z</time></trkpt><trkpt lat="40.01631865502509" lon="9.232837577246507"><ele>910.0</ele><time>2026-04-30T07:27:16.051Z</time></trkpt><trkpt lat="40.01632581163556" lon="9.232982653919544"><ele>910.0</ele><time>2026-04-30T07:27:17.051Z</time></trkpt><trkpt lat="40.016311013611656" lon="9.233117896243607"><ele>910.0</ele><time>2026-04-30T07:27:18.051Z</time></trkpt><trkpt lat="40.016283471452645" lon="9.233245796933977"><ele>910.0</ele><time>2026-04-30T07:27:19.051Z</time></trkpt><trkpt lat="40.01624362161701" lon="9.233361040233069"><ele>910.0</ele><time>2026-04-30T07:27:20.051Z</time></trkpt><trkpt lat="40.01618267705696" lon="9.233443563679602"><ele>910.0</ele><time>2026-04-30T07:27:21.051Z</time></trkpt><trkpt lat="40.016096278005996" lon="9.233470871474754"><ele>910.0</ele><time>2026-04-30T07:27:22.051Z</time></trkpt><trkpt lat="40.01601667413957" lon="9.233430117119486"><ele>910.0</ele><time>2026-04-30T07:27:23.051Z</time></trkpt><trkpt lat="40.015952160886194" lon="9.233334053660593"><ele>910.0</ele><time>2026-04-30T07:27:24.051Z</time></trkpt><trkpt lat="40.01595071334165" lon="9.233226990432101"><ele>910.0</ele><time>2026-04-30T07:27:25.051Z</time></trkpt><trkpt lat="40.01599783780995" lon="9.233117865099809"><ele>910.0</ele><time>2026-04-30T07:27:26.051Z</time></trkpt><trkpt lat="40.0160587204668" lon="9.233018891808406"><ele>910.0</ele><time>2026-04-30T07:27:27.051Z</time></trkpt><trkpt lat="40.016091332397444" lon="9.23291149836444"><ele>910.0</ele><time>2026-04-30T07:27:28.051Z</time></trkpt><trkpt lat="40.01610281285598" lon="9.232793491685827"><ele>910.0</ele><time>2026-04-30T07:27:29.051Z</time></trkpt><trkpt lat="40.01607144301336" lon="9.232677918615826"><ele>910.0</ele><time>2026-04-30T07:27:30.051Z</time></trkpt><trkpt lat="40.016005149819996" lon="9.23257808286165"><ele>910.0</ele><time>2026-04-30T07:27:31.051Z</time></trkpt><trkpt lat="40.01593896245014" lon="9.23249231156315"><ele>910.0</ele><time>2026-04-30T07:27:32.051Z</time></trkpt><trkpt lat="40.01587619028904" lon="9.23236244986281"><ele>910.0</ele><time>2026-04-30T07:27:33.052Z</time></trkpt><trkpt lat="40.015812586792244" lon="9.23225151523831"><ele>910.0</ele><time>2026-04-30T07:27:34.052Z</time></trkpt><trkpt lat="40.015749776974566" lon="9.232149404592658"><ele>910.0</ele><time>2026-04-30T07:27:35.052Z</time></trkpt><trkpt lat="40.015694249513494" lon="9.23204579627445"><ele>910.0</ele><time>2026-04-30T07:27:36.052Z</time></trkpt><trkpt lat="40.01563558235459" lon="9.231954116653895"><ele>910.6666666666666</ele><time>2026-04-30T07:27:37.052Z</time></trkpt><trkpt lat="40.0155873701283" lon="9.23186698880938"><ele>911.3333333333333</ele><time>2026-04-30T07:27:38.052Z</time></trkpt><trkpt lat="40.01554536209728" lon="9.231778775477311"><ele>912.0</ele><time>2026-04-30T07:27:39.052Z</time></trkpt><trkpt lat="40.0154989449217" lon="9.231695865314837"><ele>912.6666666666667</ele><time>2026-04-30T07:27:40.052Z</time></trkpt><trkpt lat="40.01545368332089" lon="9.231609983263812"><ele>913.3333333333334</ele><time>2026-04-30T07:27:41.052Z</time></trkpt><trkpt lat="40.01541318691733" lon="9.231514050269684"><ele>914.0</ele><time>2026-04-30T07:27:42.052Z</time></trkpt><trkpt lat="40.01536679289516" lon="9.231423906661602"><ele>914.0</ele><time>2026-04-30T07:27:43.052Z</time></trkpt><trkpt lat="40.01532076234705" lon="9.231325237014051"><ele>914.0000000000001</ele><time>2026-04-30T07:27:44.052Z</time></trkpt><trkpt lat="40.01527789485256" lon="9.231221991247295"><ele>914.0000000000001</ele><time>2026-04-30T07:27:45.052Z</time></trkpt><trkpt lat="40.01521463071503" lon="9.231125005949755"><ele>914.0</ele><time>2026-04-30T07:27:46.052Z</time></trkpt><trkpt lat="40.0151305558351" lon="9.231054916222877"><ele>914.0</ele><time>2026-04-30T07:27:47.052Z</time></trkpt><trkpt lat="40.01503594549484" lon="9.231009378390684"><ele>910.4000000000001</ele><time>2026-04-30T07:27:48.052Z</time></trkpt><trkpt lat="40.01493441831357" lon="9.230991603562627"><ele>906.8000000000001</ele><time>2026-04-30T07:27:49.052Z</time></trkpt><trkpt lat="40.01483530438755" lon="9.230974291748556"><ele>903.1999999999999</ele><time>2026-04-30T07:27:50.052Z</time></trkpt><trkpt lat="40.01474140126654" lon="9.23094126149022"><ele>899.5999999999999</ele><time>2026-04-30T07:27:51.052Z</time></trkpt><trkpt lat="40.014650898180854" lon="9.230893466245028"><ele>896.0</ele><time>2026-04-30T07:27:52.052Z</time></trkpt><trkpt lat="40.01456449208419" lon="9.230836517066"><ele>896.0000000000001</ele><time>2026-04-30T07:27:53.052Z</time></trkpt><trkpt lat="40.01448388067244" lon="9.230780039591005"><ele>896.0</ele><time>2026-04-30T07:27:54.052Z</time></trkpt><trkpt lat="40.014404077808905" lon="9.230723832928255"><ele>896.0</ele><time>2026-04-30T07:27:55.052Z</time></trkpt><trkpt lat="40.01431873505141" lon="9.23069244602151"><ele>896.0</ele><time>2026-04-30T07:27:56.052Z</time></trkpt><trkpt lat="40.01423569635512" lon="9.230680349110331"><ele>896.0000000000001</ele><time>2026-04-30T07:27:57.052Z</time></trkpt><trkpt lat="40.014151755587434" lon="9.23066937387298"><ele>896.0</ele><time>2026-04-30T07:27:58.052Z</time></trkpt><trkpt lat="40.01406425096391" lon="9.230659533244523"><ele>894.4</ele><time>2026-04-30T07:27:59.052Z</time></trkpt><trkpt lat="40.013976036703426" lon="9.230647551694265"><ele>892.8</ele><time>2026-04-30T07:28:00.052Z</time></trkpt><trkpt lat="40.01389022474257" lon="9.2306236814322"><ele>891.1999999999999</ele><time>2026-04-30T07:28:01.052Z</time></trkpt><trkpt lat="40.01379927333897" lon="9.230605203412415"><ele>889.5999999999999</ele><time>2026-04-30T07:28:02.052Z</time></trkpt><trkpt lat="40.01370383817826" lon="9.230584159010908"><ele>888.0</ele><time>2026-04-30T07:28:03.052Z</time></trkpt><trkpt lat="40.013613314603845" lon="9.230547642629697"><ele>886.6666666666666</ele><time>2026-04-30T07:28:04.052Z</time></trkpt><trkpt lat="40.01353268021719" lon="9.230481408507877"><ele>885.3333333333333</ele><time>2026-04-30T07:28:05.052Z</time></trkpt><trkpt lat="40.01346569056867" lon="9.230416277807382"><ele>884.0</ele><time>2026-04-30T07:28:06.052Z</time></trkpt><trkpt lat="40.01339465345964" lon="9.230359669663162"><ele>882.6666666666666</ele><time>2026-04-30T07:28:07.052Z</time></trkpt><trkpt lat="40.01331648794898" lon="9.23031815855047"><ele>881.3333333333333</ele><time>2026-04-30T07:28:08.052Z</time></trkpt><trkpt lat="40.01323473154394" lon="9.230272225462993"><ele>880.0</ele><time>2026-04-30T07:28:09.052Z</time></trkpt><trkpt lat="40.01315609920078" lon="9.230218411275645"><ele>880.0</ele><time>2026-04-30T07:28:10.052Z</time></trkpt><trkpt lat="40.01307347962229" lon="9.230161074877604"><ele>880.0</ele><time>2026-04-30T07:28:11.052Z</time></trkpt><trkpt lat="40.01298933293285" lon="9.230107745738039"><ele>880.0</ele><time>2026-04-30T07:28:12.052Z</time></trkpt><trkpt lat="40.0129197500105" lon="9.230034709197502"><ele>880.0</ele><time>2026-04-30T07:28:13.052Z</time></trkpt><trkpt lat="40.012851352792204" lon="9.229956261603615"><ele>880.0</ele><time>2026-04-30T07:28:14.052Z</time></trkpt><trkpt lat="40.01279447830058" lon="9.229867917386123"><ele>881.3333333333333</ele><time>2026-04-30T07:28:15.052Z</time></trkpt><trkpt lat="40.012750708651005" lon="9.229766717397899"><ele>882.6666666666666</ele><time>2026-04-30T07:28:16.052Z</time></trkpt><trkpt lat="40.01268960690632" lon="9.229665101530859"><ele>884.0</ele><time>2026-04-30T07:28:17.052Z</time></trkpt><trkpt lat="40.01262816188898" lon="9.229572558031391"><ele>885.3333333333333</ele><time>2026-04-30T07:28:18.052Z</time></trkpt><trkpt lat="40.01257052657085" lon="9.229496223928106"><ele>886.6666666666666</ele><time>2026-04-30T07:28:19.052Z</time></trkpt><trkpt lat="40.012506187125474" lon="9.229430889751859"><ele>888.0</ele><time>2026-04-30T07:28:20.052Z</time></trkpt><trkpt lat="40.01243157427338" lon="9.229383163127554"><ele>888.0</ele><time>2026-04-30T07:28:21.052Z</time></trkpt><trkpt lat="40.01235656455579" lon="9.229334513631155"><ele>888.0</ele><time>2026-04-30T07:28:22.052Z</time></trkpt><trkpt lat="40.012281478482656" lon="9.229297093919373"><ele>888.0</ele><time>2026-04-30T07:28:23.052Z</time></trkpt><trkpt lat="40.01220106299326" lon="9.229246387991362"><ele>888.0</ele><time>2026-04-30T07:28:24.052Z</time></trkpt><trkpt lat="40.01212852810811" lon="9.22920285581603"><ele>888.0</ele><time>2026-04-30T07:28:25.052Z</time></trkpt><trkpt lat="40.01205891718666" lon="9.229158661471876"><ele>888.0</ele><time>2026-04-30T07:28:26.052Z</time></trkpt><trkpt lat="40.011988810470875" lon="9.229122792590125"><ele>888.0</ele><time>2026-04-30T07:28:27.052Z</time></trkpt><trkpt lat="40.01192096084877" lon="9.229084855594493"><ele>888.0</ele><time>2026-04-30T07:28:28.052Z</time></trkpt><trkpt lat="40.01185284170767" lon="9.22904837426974"><ele>888.0</ele><time>2026-04-30T07:28:29.052Z</time></trkpt><trkpt lat="40.011781945367936" lon="9.229029253167534"><ele>888.0</ele><time>2026-04-30T07:28:30.052Z</time></trkpt><trkpt lat="40.0117047022149" lon="9.229006678542008"><ele>888.0</ele><time>2026-04-30T07:28:31.052Z</time></trkpt><trkpt lat="40.01161901290418" lon="9.228980290863465"><ele>888.0</ele><time>2026-04-30T07:28:32.052Z</time></trkpt><trkpt lat="40.011531130622814" lon="9.228967279279074"><ele>890.5999999999999</ele><time>2026-04-30T07:28:33.052Z</time></trkpt><trkpt lat="40.01144029126471" lon="9.2289490386984"><ele>893.1999999999999</ele><time>2026-04-30T07:28:34.052Z</time></trkpt><trkpt lat="40.01134533676934" lon="9.228921083433615"><ele>895.8</ele><time>2026-04-30T07:28:35.052Z</time></trkpt><trkpt lat="40.0112563855452" lon="9.228886890625892"><ele>898.4</ele><time>2026-04-30T07:28:36.052Z</time></trkpt><trkpt lat="40.011165968346894" lon="9.228838657914512"><ele>901.0</ele><time>2026-04-30T07:28:37.052Z</time></trkpt><trkpt lat="40.0110802632136" lon="9.228787775596961"><ele>900.9999999999999</ele><time>2026-04-30T07:28:38.052Z</time></trkpt><trkpt lat="40.01100245235355" lon="9.228734749645302"><ele>901.0</ele><time>2026-04-30T07:28:39.052Z</time></trkpt><trkpt lat="40.010937205473574" lon="9.22867746192075"><ele>901.0</ele><time>2026-04-30T07:28:40.052Z</time></trkpt><trkpt lat="40.01088317185323" lon="9.22862369276585"><ele>901.0</ele><time>2026-04-30T07:28:41.052Z</time></trkpt><trkpt lat="40.01082698791351" lon="9.22858097415084"><ele>900.9999999999999</ele><time>2026-04-30T07:28:42.052Z</time></trkpt><trkpt lat="40.01073419312312" lon="9.2284526436473"><ele>901.0</ele><time>2026-04-30T07:28:44.052Z</time></trkpt><trkpt lat="40.01068300004394" lon="9.228394039758063"><ele>900.3333333333333</ele><time>2026-04-30T07:28:45.052Z</time></trkpt><trkpt lat="40.010616450277986" lon="9.228339829841591"><ele>899.6666666666666</ele><time>2026-04-30T07:28:46.052Z</time></trkpt><trkpt lat="40.01055454080083" lon="9.228256053651156"><ele>899.0</ele><time>2026-04-30T07:28:47.052Z</time></trkpt><trkpt lat="40.01048434371803" lon="9.22818985017943"><ele>898.3333333333333</ele><time>2026-04-30T07:28:48.052Z</time></trkpt><trkpt lat="40.01041443383164" lon="9.228106852534584"><ele>897.6666666666666</ele><time>2026-04-30T07:28:49.052Z</time></trkpt><trkpt lat="40.01032600980307" lon="9.22804546370233"><ele>897.0</ele><time>2026-04-30T07:28:50.052Z</time></trkpt><trkpt lat="40.010244374319996" lon="9.227972002613244"><ele>897.0</ele><time>2026-04-30T07:28:51.052Z</time></trkpt><trkpt lat="40.01017106426325" lon="9.227895533703853"><ele>897.0</ele><time>2026-04-30T07:28:52.052Z</time></trkpt><trkpt lat="40.01009848186042" lon="9.227810561868763"><ele>897.0</ele><time>2026-04-30T07:28:53.052Z</time></trkpt><trkpt lat="40.01004281514694" lon="9.227698138031787"><ele>897.0</ele><time>2026-04-30T07:28:54.052Z</time></trkpt><trkpt lat="40.00998631967374" lon="9.227593142665958"><ele>897.0</ele><time>2026-04-30T07:28:55.052Z</time></trkpt><trkpt lat="40.00991078140574" lon="9.227516233659033"><ele>895.4000000000001</ele><time>2026-04-30T07:28:56.052Z</time></trkpt><trkpt lat="40.0098260864706" lon="9.227441787209662"><ele>893.8000000000001</ele><time>2026-04-30T07:28:57.054Z</time></trkpt><trkpt lat="40.00973818935821" lon="9.227394320771621"><ele>892.2</ele><time>2026-04-30T07:28:58.054Z</time></trkpt><trkpt lat="40.00962753167582" lon="9.227392836906764"><ele>890.6</ele><time>2026-04-30T07:28:59.054Z</time></trkpt><trkpt lat="40.009528108971445" lon="9.227373035151713"><ele>889.0</ele><time>2026-04-30T07:29:00.054Z</time></trkpt><trkpt lat="40.009436878796826" lon="9.227351952824039"><ele>889.0</ele><time>2026-04-30T07:29:01.054Z</time></trkpt><trkpt lat="40.00934514726985" lon="9.227334804408516"><ele>889.0000000000001</ele><time>2026-04-30T07:29:02.054Z</time></trkpt><trkpt lat="40.00925039724533" lon="9.227335565850112"><ele>889.0000000000001</ele><time>2026-04-30T07:29:03.054Z</time></trkpt><trkpt lat="40.009157465548114" lon="9.22734472621918"><ele>889.0</ele><time>2026-04-30T07:29:04.055Z</time></trkpt><trkpt lat="40.009070354321814" lon="9.227348932742697"><ele>889.0</ele><time>2026-04-30T07:29:05.055Z</time></trkpt><trkpt lat="40.008979935862165" lon="9.227368222482177"><ele>887.0</ele><time>2026-04-30T07:29:06.055Z</time></trkpt><trkpt lat="40.00889425404964" lon="9.227373397100443"><ele>885.0000000000001</ele><time>2026-04-30T07:29:07.054Z</time></trkpt><trkpt lat="40.00880863332287" lon="9.22737331944461"><ele>883.0000000000001</ele><time>2026-04-30T07:29:08.054Z</time></trkpt><trkpt lat="40.008721546842956" lon="9.227373751988825"><ele>881.0</ele><time>2026-04-30T07:29:09.054Z</time></trkpt><trkpt lat="40.00863986236669" lon="9.227361145288738"><ele>879.0</ele><time>2026-04-30T07:29:10.055Z</time></trkpt><trkpt lat="40.00847183068189" lon="9.22727073507201"><ele>878.8000000000001</ele><time>2026-04-30T07:29:12.055Z</time></trkpt><trkpt lat="40.008387139362185" lon="9.227224524729733"><ele>878.6000000000001</ele><time>2026-04-30T07:29:13.055Z</time></trkpt><trkpt lat="40.00830706946171" lon="9.227156626873358"><ele>878.4</ele><time>2026-04-30T07:29:14.055Z</time></trkpt><trkpt lat="40.0082246679195" lon="9.227095457455082"><ele>878.2</ele><time>2026-04-30T07:29:15.055Z</time></trkpt><trkpt lat="40.00814492810603" lon="9.227036036902875"><ele>878.0</ele><time>2026-04-30T07:29:16.055Z</time></trkpt><trkpt lat="40.0080736107723" lon="9.226962314849256"><ele>878.0000000000001</ele><time>2026-04-30T07:29:17.055Z</time></trkpt><trkpt lat="40.00799484144831" lon="9.226918559346013"><ele>878.0</ele><time>2026-04-30T07:29:18.055Z</time></trkpt><trkpt lat="40.00791680394426" lon="9.226882523423956"><ele>878.0</ele><time>2026-04-30T07:29:19.055Z</time></trkpt><trkpt lat="40.007840057888465" lon="9.226850274157792"><ele>878.0</ele><time>2026-04-30T07:29:20.055Z</time></trkpt><trkpt lat="40.007777746619745" lon="9.226803710023683"><ele>878.0000000000001</ele><time>2026-04-30T07:29:21.055Z</time></trkpt><trkpt lat="40.00773257224313" lon="9.226733628303267"><ele>878.0</ele><time>2026-04-30T07:29:22.055Z</time></trkpt><trkpt lat="40.00768483145647" lon="9.226571224291389"><ele>878.0000000000001</ele><time>2026-04-30T07:29:24.055Z</time></trkpt><trkpt lat="40.00767105128196" lon="9.22648394527544"><ele>878.0</ele><time>2026-04-30T07:29:25.055Z</time></trkpt><trkpt lat="40.00765829883042" lon="9.226384347226345"><ele>878.0</ele><time>2026-04-30T07:29:26.055Z</time></trkpt><trkpt lat="40.00764119638118" lon="9.22627907852099"><ele>878.0</ele><time>2026-04-30T07:29:27.055Z</time></trkpt><trkpt lat="40.00762653911399" lon="9.22617262746011"><ele>878.0000000000001</ele><time>2026-04-30T07:29:28.055Z</time></trkpt><trkpt lat="40.00761683694603" lon="9.226076053641316"><ele>878.0</ele><time>2026-04-30T07:29:29.055Z</time></trkpt><trkpt lat="40.00760556938283" lon="9.225981253679905"><ele>878.5000000000001</ele><time>2026-04-30T07:29:30.055Z</time></trkpt><trkpt lat="40.007576732452335" lon="9.225885141032567"><ele>879.0</ele><time>2026-04-30T07:29:31.055Z</time></trkpt><trkpt lat="40.00753986027892" lon="9.225794196012556"><ele>879.5</ele><time>2026-04-30T07:29:32.055Z</time></trkpt><trkpt lat="40.0074955286075" lon="9.225710019481422"><ele>880.0</ele><time>2026-04-30T07:29:33.055Z</time></trkpt><trkpt lat="40.00743952894181" lon="9.225633770278833"><ele>880.5000000000001</ele><time>2026-04-30T07:29:34.055Z</time></trkpt><trkpt lat="40.00738829218076" lon="9.22556938118404"><ele>881.0</ele><time>2026-04-30T07:29:35.055Z</time></trkpt><trkpt lat="40.007343319016506" lon="9.225509549534259"><ele>876.6666666666667</ele><time>2026-04-30T07:29:36.055Z</time></trkpt><trkpt lat="40.00730473619532" lon="9.225438619554762"><ele>872.3333333333334</ele><time>2026-04-30T07:29:37.055Z</time></trkpt><trkpt lat="40.007275440259754" lon="9.225359442035144"><ele>868.0</ele><time>2026-04-30T07:29:38.055Z</time></trkpt><trkpt lat="40.00724995437259" lon="9.225283160138856"><ele>863.6666666666667</ele><time>2026-04-30T07:29:39.055Z</time></trkpt><trkpt lat="40.007237231272846" lon="9.225199737288582"><ele>859.3333333333334</ele><time>2026-04-30T07:29:40.055Z</time></trkpt><trkpt lat="40.007236933316634" lon="9.22503344991086"><ele>855.0</ele><time>2026-04-30T07:29:42.055Z</time></trkpt><trkpt lat="40.0072296813862" lon="9.224945049217093"><ele>855.0</ele><time>2026-04-30T07:29:43.055Z</time></trkpt><trkpt lat="40.00723072800097" lon="9.2248460235349"><ele>855.0</ele><time>2026-04-30T07:29:44.055Z</time></trkpt><trkpt lat="40.00721967144561" lon="9.224743379815264"><ele>855.0</ele><time>2026-04-30T07:29:45.055Z</time></trkpt><trkpt lat="40.00718216217636" lon="9.224645620877775"><ele>855.0</ele><time>2026-04-30T07:29:46.055Z</time></trkpt><trkpt lat="40.00712394823526" lon="9.22456072770853"><ele>855.0</ele><time>2026-04-30T07:29:47.055Z</time></trkpt><trkpt lat="40.007045353199835" lon="9.224510881444388"><ele>855.0</ele><time>2026-04-30T07:29:48.055Z</time></trkpt><trkpt lat="40.00695398948241" lon="9.224478630393644"><ele>855.0</ele><time>2026-04-30T07:29:49.055Z</time></trkpt><trkpt lat="40.00686908014024" lon="9.224456586938507"><ele>855.0</ele><time>2026-04-30T07:29:50.055Z</time></trkpt><trkpt lat="40.00678735461808" lon="9.224438230967865"><ele>855.0</ele><time>2026-04-30T07:29:51.055Z</time></trkpt><trkpt lat="40.00670354671286" lon="9.224388503455874"><ele>855.0</ele><time>2026-04-30T07:29:52.055Z</time></trkpt><trkpt lat="40.00662695872346" lon="9.224327822510505"><ele>855.0</ele><time>2026-04-30T07:29:53.055Z</time></trkpt><trkpt lat="40.00655380262469" lon="9.2242615778176"><ele>855.0</ele><time>2026-04-30T07:29:54.055Z</time></trkpt><trkpt lat="40.00648775981221" lon="9.224184549815822"><ele>855.0</ele><time>2026-04-30T07:29:55.055Z</time></trkpt><trkpt lat="40.00642410183912" lon="9.224110565631548"><ele>855.0</ele><time>2026-04-30T07:29:56.055Z</time></trkpt><trkpt lat="40.00636118724614" lon="9.224035499756337"><ele>855.0</ele><time>2026-04-30T07:29:57.055Z</time></trkpt><trkpt lat="40.006303532076146" lon="9.223962531299374"><ele>855.0</ele><time>2026-04-30T07:29:58.055Z</time></trkpt><trkpt lat="40.00624132469305" lon="9.223896578696666"><ele>855.0</ele><time>2026-04-30T07:29:59.055Z</time></trkpt><trkpt lat="40.00618015141007" lon="9.223831507149598"><ele>855.0</ele><time>2026-04-30T07:30:00.055Z</time></trkpt><trkpt lat="40.006122093674165" lon="9.223743310089601"><ele>855.1666666666666</ele><time>2026-04-30T07:30:01.055Z</time></trkpt><trkpt lat="40.006101418928615" lon="9.223621520926708"><ele>855.3333333333333</ele><time>2026-04-30T07:30:02.055Z</time></trkpt><trkpt lat="40.00612719467923" lon="9.223510983666353"><ele>855.5</ele><time>2026-04-30T07:30:03.055Z</time></trkpt><trkpt lat="40.006174749552585" lon="9.223419254630468"><ele>855.6666666666666</ele><time>2026-04-30T07:30:04.055Z</time></trkpt><trkpt lat="40.00621816190181" lon="9.22333224870541"><ele>855.8333333333333</ele><time>2026-04-30T07:30:05.055Z</time></trkpt><trkpt lat="40.0062594096595" lon="9.223236991482267"><ele>856.0</ele><time>2026-04-30T07:30:06.055Z</time></trkpt><trkpt lat="40.00631070644923" lon="9.223142921456084"><ele>854.9999999999999</ele><time>2026-04-30T07:30:07.055Z</time></trkpt><trkpt lat="40.00634538014492" lon="9.223040516291308"><ele>854.0</ele><time>2026-04-30T07:30:08.055Z</time></trkpt><trkpt lat="40.00635784397364" lon="9.222937723641328"><ele>853.0</ele><time>2026-04-30T07:30:09.055Z</time></trkpt><trkpt lat="40.006344347445" lon="9.222824544154939"><ele>852.0</ele><time>2026-04-30T07:30:10.055Z</time></trkpt><trkpt lat="40.00632952898296" lon="9.222705038051354"><ele>850.9999999999999</ele><time>2026-04-30T07:30:11.055Z</time></trkpt><trkpt lat="40.006320097677" lon="9.222582027465029"><ele>850.0</ele><time>2026-04-30T07:30:12.055Z</time></trkpt><trkpt lat="40.006299639220245" lon="9.222463794518259"><ele>850.0</ele><time>2026-04-30T07:30:13.055Z</time></trkpt><trkpt lat="40.00626897745993" lon="9.222352798314608"><ele>850.0</ele><time>2026-04-30T07:30:14.055Z</time></trkpt><trkpt lat="40.006236651903194" lon="9.222261561863503"><ele>850.0</ele><time>2026-04-30T07:30:15.055Z</time></trkpt><trkpt lat="40.006205848179576" lon="9.222178750876902"><ele>850.0</ele><time>2026-04-30T07:30:16.055Z</time></trkpt><trkpt lat="40.00617232224454" lon="9.222104783292261"><ele>850.0</ele><time>2026-04-30T07:30:17.055Z</time></trkpt><trkpt lat="40.00613365829844" lon="9.222033193165679"><ele>850.0</ele><time>2026-04-30T07:30:18.055Z</time></trkpt><trkpt lat="40.00609900876108" lon="9.221957301130415"><ele>850.0</ele><time>2026-04-30T07:30:19.055Z</time></trkpt><trkpt lat="40.00607419086718" lon="9.221881303109248"><ele>849.6</ele><time>2026-04-30T07:30:20.055Z</time></trkpt><trkpt lat="40.005996552451556" lon="9.221750490005787"><ele>849.2</ele><time>2026-04-30T07:30:22.055Z</time></trkpt><trkpt lat="40.005972681213294" lon="9.221673618318244"><ele>848.8</ele><time>2026-04-30T07:30:23.055Z</time></trkpt><trkpt lat="40.00589358987127" lon="9.22155978721214"><ele>848.4</ele><time>2026-04-30T07:30:25.055Z</time></trkpt><trkpt lat="40.00580453965522" lon="9.221448664981692"><ele>848.0</ele><time>2026-04-30T07:30:27.055Z</time></trkpt><trkpt lat="40.00576000805061" lon="9.221383345778351"><ele>848.0000000000001</ele><time>2026-04-30T07:30:28.055Z</time></trkpt><trkpt lat="40.00567455587802" lon="9.221263812768335"><ele>848.0</ele><time>2026-04-30T07:30:30.055Z</time></trkpt><trkpt lat="40.00562660578114" lon="9.221209261824745"><ele>848.0</ele><time>2026-04-30T07:30:31.055Z</time></trkpt><trkpt lat="40.005575788054905" lon="9.22115497258901"><ele>848.0</ele><time>2026-04-30T07:30:32.055Z</time></trkpt><trkpt lat="40.00547048914201" lon="9.221069432053564"><ele>848.0000000000001</ele><time>2026-04-30T07:30:34.055Z</time></trkpt><trkpt lat="40.00541474977498" lon="9.2210198672703"><ele>848.0</ele><time>2026-04-30T07:30:35.055Z</time></trkpt><trkpt lat="40.005358400438965" lon="9.220967624204224"><ele>848.0000000000001</ele><time>2026-04-30T07:30:36.055Z</time></trkpt><trkpt lat="40.00529933830227" lon="9.22092626626786"><ele>848.0</ele><time>2026-04-30T07:30:37.055Z</time></trkpt><trkpt lat="40.00518421129851" lon="9.220854242418106"><ele>848.0</ele><time>2026-04-30T07:30:39.055Z</time></trkpt><trkpt lat="40.005133911330596" lon="9.2207989379798"><ele>848.0</ele><time>2026-04-30T07:30:40.055Z</time></trkpt><trkpt lat="40.00508948017904" lon="9.220739114747394"><ele>848.0000000000001</ele><time>2026-04-30T07:30:41.055Z</time></trkpt><trkpt lat="40.005048403130196" lon="9.220661102839806"><ele>848.0</ele><time>2026-04-30T07:30:42.055Z</time></trkpt><trkpt lat="40.00500559776432" lon="9.220578467094999"><ele>847.5000000000001</ele><time>2026-04-30T07:30:43.055Z</time></trkpt><trkpt lat="40.00496031105421" lon="9.220491332552893"><ele>847.0</ele><time>2026-04-30T07:30:44.055Z</time></trkpt><trkpt lat="40.00491183242638" lon="9.220408903532897"><ele>846.5</ele><time>2026-04-30T07:30:45.055Z</time></trkpt><trkpt lat="40.00486780325824" lon="9.220328398663561"><ele>846.0</ele><time>2026-04-30T07:30:46.055Z</time></trkpt><trkpt lat="40.00481883511792" lon="9.220246586538526"><ele>845.5000000000001</ele><time>2026-04-30T07:30:47.055Z</time></trkpt><trkpt lat="40.004767611820654" lon="9.220157205108517"><ele>845.0</ele><time>2026-04-30T07:30:48.055Z</time></trkpt><trkpt lat="40.00470426356208" lon="9.220080993211793"><ele>845.0</ele><time>2026-04-30T07:30:49.055Z</time></trkpt><trkpt lat="40.00463549247051" lon="9.219996638268798"><ele>845.0</ele><time>2026-04-30T07:30:50.055Z</time></trkpt><trkpt lat="40.00455564163548" lon="9.219932632479667"><ele>845.0</ele><time>2026-04-30T07:30:51.055Z</time></trkpt><trkpt lat="40.00447560613702" lon="9.219881467401066"><ele>845.0</ele><time>2026-04-30T07:30:52.055Z</time></trkpt><trkpt lat="40.004388593976486" lon="9.21985826131322"><ele>845.0</ele><time>2026-04-30T07:30:53.055Z</time></trkpt><trkpt lat="40.004301545463655" lon="9.219849144046396"><ele>845.0000000000001</ele><time>2026-04-30T07:30:54.055Z</time></trkpt><trkpt lat="40.004210280045875" lon="9.219849953142216"><ele>845.0</ele><time>2026-04-30T07:30:56.056Z</time></trkpt><trkpt lat="40.00412731782835" lon="9.219866642496896"><ele>845.0</ele><time>2026-04-30T07:31:04.057Z</time></trkpt><trkpt lat="40.00405757519966" lon="9.219865376574324"><ele>845.0</ele><time>2026-04-30T07:31:11.056Z</time></trkpt><trkpt lat="40.0039911260365" lon="9.219881719482753"><ele>845.0000000000001</ele><time>2026-04-30T07:31:13.057Z</time></trkpt><trkpt lat="40.003890007578164" lon="9.219900143073673"><ele>845.0</ele><time>2026-04-30T07:31:15.056Z</time></trkpt><trkpt lat="40.00378099021864" lon="9.219885748111114"><ele>844.6</ele><time>2026-04-30T07:31:17.057Z</time></trkpt><trkpt lat="40.00369518483165" lon="9.219903701247244"><ele>844.2</ele><time>2026-04-30T07:31:19.057Z</time></trkpt><trkpt lat="40.00361375485871" lon="9.219909675572978"><ele>843.8</ele><time>2026-04-30T07:31:22.057Z</time></trkpt><trkpt lat="40.00349057894824" lon="9.219904755716739"><ele>843.4</ele><time>2026-04-30T07:31:24.057Z</time></trkpt><trkpt lat="40.00341254063247" lon="9.219919925462337"><ele>843.0</ele><time>2026-04-30T07:31:25.057Z</time></trkpt><trkpt lat="40.00333307005625" lon="9.219931886597353"><ele>841.6666666666666</ele><time>2026-04-30T07:31:26.057Z</time></trkpt><trkpt lat="40.00324561197765" lon="9.219950378098249"><ele>840.3333333333333</ele><time>2026-04-30T07:31:27.057Z</time></trkpt><trkpt lat="40.00315831103779" lon="9.219968231779141"><ele>839.0</ele><time>2026-04-30T07:31:28.057Z</time></trkpt><trkpt lat="40.00307197574963" lon="9.219976453551032"><ele>837.6666666666666</ele><time>2026-04-30T07:31:29.057Z</time></trkpt><trkpt lat="40.00298432487259" lon="9.219974498016935"><ele>836.3333333333333</ele><time>2026-04-30T07:31:30.057Z</time></trkpt><trkpt lat="40.00290159407143" lon="9.219930890923331"><ele>835.0</ele><time>2026-04-30T07:31:31.057Z</time></trkpt><trkpt lat="40.00283306463249" lon="9.219864123780674"><ele>838.0</ele><time>2026-04-30T07:31:32.057Z</time></trkpt><trkpt lat="40.00277588799267" lon="9.219764332219826"><ele>841.0</ele><time>2026-04-30T07:31:33.057Z</time></trkpt><trkpt lat="40.00270781717313" lon="9.219665983901386"><ele>844.0</ele><time>2026-04-30T07:31:34.057Z</time></trkpt><trkpt lat="40.00261933476612" lon="9.219600083224893"><ele>847.0</ele><time>2026-04-30T07:31:35.057Z</time></trkpt><trkpt lat="40.002510229424104" lon="9.219579505500873"><ele>850.0</ele><time>2026-04-30T07:31:36.057Z</time></trkpt><trkpt lat="40.002402872975644" lon="9.219589018455496"><ele>850.0</ele><time>2026-04-30T07:31:37.057Z</time></trkpt><trkpt lat="40.00229320444137" lon="9.219583763527371"><ele>850.0</ele><time>2026-04-30T07:31:38.057Z</time></trkpt><trkpt lat="40.00216828614844" lon="9.219579673787127"><ele>850.0</ele><time>2026-04-30T07:31:39.057Z</time></trkpt><trkpt lat="40.00203905399246" lon="9.219581032405053"><ele>850.0</ele><time>2026-04-30T07:31:40.057Z</time></trkpt><trkpt lat="40.001916747477985" lon="9.219556499065499"><ele>850.0</ele><time>2026-04-30T07:31:41.057Z</time></trkpt><trkpt lat="40.001795310635686" lon="9.219510782063896"><ele>850.0</ele><time>2026-04-30T07:31:42.057Z</time></trkpt><trkpt lat="40.00168892031863" lon="9.219450500778452"><ele>850.0</ele><time>2026-04-30T07:31:43.057Z</time></trkpt><trkpt lat="40.00159652883881" lon="9.219367446663277"><ele>850.0</ele><time>2026-04-30T07:31:44.057Z</time></trkpt><trkpt lat="40.00148853016162" lon="9.219290472110933"><ele>843.0</ele><time>2026-04-30T07:31:45.057Z</time></trkpt><trkpt lat="40.00137489922982" lon="9.219229907267477"><ele>836.0</ele><time>2026-04-30T07:31:46.057Z</time></trkpt><trkpt lat="40.001266456658435" lon="9.21918776876217"><ele>829.0</ele><time>2026-04-30T07:31:47.057Z</time></trkpt><trkpt lat="40.00114481724675" lon="9.21916804617303"><ele>822.0</ele><time>2026-04-30T07:31:48.057Z</time></trkpt><trkpt lat="40.00103400702331" lon="9.219107625484428"><ele>822.0</ele><time>2026-04-30T07:31:49.057Z</time></trkpt><trkpt lat="40.00093416369757" lon="9.21901960818118"><ele>822.0</ele><time>2026-04-30T07:31:50.057Z</time></trkpt><trkpt lat="40.00084933782489" lon="9.218905902641913"><ele>822.0</ele><time>2026-04-30T07:31:51.057Z</time></trkpt><trkpt lat="40.00079287671532" lon="9.218759840962441"><ele>822.0</ele><time>2026-04-30T07:31:52.057Z</time></trkpt><trkpt lat="40.00074496860765" lon="9.218619643136979"><ele>824.25</ele><time>2026-04-30T07:31:53.057Z</time></trkpt><trkpt lat="40.000672788371425" lon="9.218504090533711"><ele>826.5</ele><time>2026-04-30T07:31:54.057Z</time></trkpt><trkpt lat="40.000569531213706" lon="9.218446802209616"><ele>828.75</ele><time>2026-04-30T07:31:55.057Z</time></trkpt><trkpt lat="40.000446755656725" lon="9.218440316901578"><ele>831.0</ele><time>2026-04-30T07:31:56.057Z</time></trkpt><trkpt lat="40.00033175931528" lon="9.218476374158275"><ele>831.0</ele><time>2026-04-30T07:31:57.057Z</time></trkpt><trkpt lat="40.000214232682175" lon="9.218533365294144"><ele>831.0</ele><time>2026-04-30T07:31:58.057Z</time></trkpt><trkpt lat="40.00008800714311" lon="9.21856577772835"><ele>831.0</ele><time>2026-04-30T07:31:59.058Z</time></trkpt><trkpt lat="39.99996175328222" lon="9.218577299323945"><ele>831.0</ele><time>2026-04-30T07:32:00.058Z</time></trkpt><trkpt lat="39.99982842543125" lon="9.21857846107056"><ele>831.0</ele><time>2026-04-30T07:32:01.058Z</time></trkpt><trkpt lat="39.99970216301774" lon="9.21856525818792"><ele>831.0</ele><time>2026-04-30T07:32:02.058Z</time></trkpt><trkpt lat="39.999593859684644" lon="9.21852640455964"><ele>831.0</ele><time>2026-04-30T07:32:03.058Z</time></trkpt><trkpt lat="39.99948886972682" lon="9.218435449580301"><ele>831.0</ele><time>2026-04-30T07:32:04.058Z</time></trkpt><trkpt lat="39.99940186225649" lon="9.218306679742003"><ele>831.0</ele><time>2026-04-30T07:32:05.058Z</time></trkpt><trkpt lat="39.999337204300495" lon="9.21815992472106"><ele>831.0</ele><time>2026-04-30T07:32:06.058Z</time></trkpt><trkpt lat="39.99927610993797" lon="9.217999852195446"><ele>831.0</ele><time>2026-04-30T07:32:07.058Z</time></trkpt><trkpt lat="39.999210784574544" lon="9.217840632140478"><ele>831.0</ele><time>2026-04-30T07:32:08.058Z</time></trkpt><trkpt lat="39.999151940018336" lon="9.217679463303158"><ele>828.75</ele><time>2026-04-30T07:32:09.058Z</time></trkpt><trkpt lat="39.999105769477985" lon="9.217508517888795"><ele>826.5</ele><time>2026-04-30T07:32:10.058Z</time></trkpt><trkpt lat="39.99905486365926" lon="9.217334526225322"><ele>824.25</ele><time>2026-04-30T07:32:11.058Z</time></trkpt><trkpt lat="39.99898109702077" lon="9.217167083879696"><ele>822.0</ele><time>2026-04-30T07:32:12.058Z</time></trkpt><trkpt lat="39.99888046597281" lon="9.217020609466232"><ele>828.6666666666667</ele><time>2026-04-30T07:32:13.058Z</time></trkpt><trkpt lat="39.99877124427136" lon="9.216875173103585"><ele>835.3333333333334</ele><time>2026-04-30T07:32:14.058Z</time></trkpt><trkpt lat="39.99865853099287" lon="9.216726126255741"><ele>842.0</ele><time>2026-04-30T07:32:15.058Z</time></trkpt><trkpt lat="39.99856941610617" lon="9.216551956164016"><ele>847.3333333333334</ele><time>2026-04-30T07:32:16.058Z</time></trkpt><trkpt lat="39.99852127499282" lon="9.216358453359486"><ele>852.6666666666667</ele><time>2026-04-30T07:32:17.058Z</time></trkpt><trkpt lat="39.998478244736724" lon="9.216156771918756"><ele>858.0</ele><time>2026-04-30T07:32:18.058Z</time></trkpt><trkpt lat="39.998448911791016" lon="9.215962407029108"><ele>858.0</ele><time>2026-04-30T07:32:19.058Z</time></trkpt><trkpt lat="39.998401845923375" lon="9.215789230686232"><ele>858.0</ele><time>2026-04-30T07:32:20.058Z</time></trkpt><trkpt lat="39.99832397830774" lon="9.215638880247875"><ele>858.0</ele><time>2026-04-30T07:32:21.058Z</time></trkpt><trkpt lat="39.9982046190717" lon="9.215515223805653"><ele>858.0</ele><time>2026-04-30T07:32:22.058Z</time></trkpt><trkpt lat="39.998069971576484" lon="9.215397939807675"><ele>850.6666666666667</ele><time>2026-04-30T07:32:23.058Z</time></trkpt><trkpt lat="39.99793547683504" lon="9.215276083450952"><ele>843.3333333333334</ele><time>2026-04-30T07:32:24.058Z</time></trkpt><trkpt lat="39.99780995398485" lon="9.21514673137532"><ele>836.0</ele><time>2026-04-30T07:32:25.058Z</time></trkpt><trkpt lat="39.9976760730187" lon="9.215049008429583"><ele>836.0</ele><time>2026-04-30T07:32:26.058Z</time></trkpt><trkpt lat="39.9975282852301" lon="9.215013215124829"><ele>836.0</ele><time>2026-04-30T07:32:27.058Z</time></trkpt><trkpt lat="39.9973772605779" lon="9.215018499046176"><ele>836.0</ele><time>2026-04-30T07:32:28.058Z</time></trkpt><trkpt lat="39.99721250643695" lon="9.215005701441111"><ele>829.5</ele><time>2026-04-30T07:32:29.058Z</time></trkpt><trkpt lat="39.99706774141149" lon="9.21496006895032"><ele>823.0</ele><time>2026-04-30T07:32:30.058Z</time></trkpt><trkpt lat="39.99693844635861" lon="9.214973327663293"><ele>816.5</ele><time>2026-04-30T07:32:31.058Z</time></trkpt><trkpt lat="39.996808692716534" lon="9.215060265241554"><ele>810.0</ele><time>2026-04-30T07:32:32.058Z</time></trkpt><trkpt lat="39.996692491288066" lon="9.215178730559368"><ele>807.5</ele><time>2026-04-30T07:32:33.058Z</time></trkpt><trkpt lat="39.99656602846356" lon="9.215245815453363"><ele>805.0</ele><time>2026-04-30T07:32:34.058Z</time></trkpt><trkpt lat="39.99644240081981" lon="9.215239041160093"><ele>802.5</ele><time>2026-04-30T07:32:35.058Z</time></trkpt><trkpt lat="39.99632724358171" lon="9.215151254166338"><ele>800.0</ele><time>2026-04-30T07:32:36.058Z</time></trkpt><trkpt lat="39.996240424739675" lon="9.21502472633823"><ele>800.0</ele><time>2026-04-30T07:32:37.058Z</time></trkpt><trkpt lat="39.996175932975994" lon="9.214862546468984"><ele>800.0</ele><time>2026-04-30T07:32:38.058Z</time></trkpt><trkpt lat="39.996122029567644" lon="9.214673034857618"><ele>800.0</ele><time>2026-04-30T07:32:39.058Z</time></trkpt><trkpt lat="39.99606402094268" lon="9.21448149592249"><ele>798.3333333333334</ele><time>2026-04-30T07:32:40.058Z</time></trkpt><trkpt lat="39.99597921420503" lon="9.214304180910313"><ele>796.6666666666667</ele><time>2026-04-30T07:32:41.058Z</time></trkpt><trkpt lat="39.995863618150146" lon="9.214167410985372"><ele>795.0</ele><time>2026-04-30T07:32:42.058Z</time></trkpt><trkpt lat="39.99574695095388" lon="9.214035748004912"><ele>795.0</ele><time>2026-04-30T07:32:43.058Z</time></trkpt><trkpt lat="39.99563732175317" lon="9.213923019746252"><ele>795.0</ele><time>2026-04-30T07:32:44.058Z</time></trkpt><trkpt lat="39.99551212797053" lon="9.213874574593087"><ele>795.0</ele><time>2026-04-30T07:32:45.058Z</time></trkpt><trkpt lat="39.99537911067158" lon="9.213902713194695"><ele>795.0</ele><time>2026-04-30T07:32:46.058Z</time></trkpt><trkpt lat="39.995250559765125" lon="9.213991658608675"><ele>795.0</ele><time>2026-04-30T07:32:47.058Z</time></trkpt><trkpt lat="39.99514198662259" lon="9.214049268301771"><ele>795.0</ele><time>2026-04-30T07:32:48.058Z</time></trkpt><trkpt lat="39.995014825939975" lon="9.214014841336063"><ele>795.0</ele><time>2026-04-30T07:32:49.058Z</time></trkpt><trkpt lat="39.99490171237481" lon="9.213910398114177"><ele>795.0</ele><time>2026-04-30T07:32:50.058Z</time></trkpt><trkpt lat="39.99481738981959" lon="9.213755139885228"><ele>791.75</ele><time>2026-04-30T07:32:51.058Z</time></trkpt><trkpt lat="39.99478838228573" lon="9.213583799689532"><ele>788.5</ele><time>2026-04-30T07:32:52.058Z</time></trkpt><trkpt lat="39.99481091212743" lon="9.213406768995217"><ele>785.25</ele><time>2026-04-30T07:32:53.058Z</time></trkpt><trkpt lat="39.99486138681558" lon="9.2132336266287"><ele>782.0</ele><time>2026-04-30T07:32:54.058Z</time></trkpt><trkpt lat="39.99490051878649" lon="9.21305655242275"><ele>780.5</ele><time>2026-04-30T07:32:55.058Z</time></trkpt><trkpt lat="39.99493358701985" lon="9.212882791938814"><ele>779.0</ele><time>2026-04-30T07:32:56.058Z</time></trkpt><trkpt lat="39.99496192034627" lon="9.212709019956929"><ele>777.5</ele><time>2026-04-30T07:32:57.058Z</time></trkpt><trkpt lat="39.99500872948179" lon="9.212549241186474"><ele>776.0</ele><time>2026-04-30T07:32:58.058Z</time></trkpt><trkpt lat="39.995064552580594" lon="9.212396168089322"><ele>788.0</ele><time>2026-04-30T07:32:59.058Z</time></trkpt><trkpt lat="39.995120675442394" lon="9.212259915488458"><ele>800.0</ele><time>2026-04-30T07:33:00.058Z</time></trkpt><trkpt lat="39.99514714130279" lon="9.21211158781459"><ele>812.0</ele><time>2026-04-30T07:33:01.058Z</time></trkpt><trkpt lat="39.99513153594124" lon="9.211959202438743"><ele>824.0</ele><time>2026-04-30T07:33:02.058Z</time></trkpt><trkpt lat="39.99505467974167" lon="9.211808876650787"><ele>817.0</ele><time>2026-04-30T07:33:03.058Z</time></trkpt><trkpt lat="39.994943463072566" lon="9.211689580844189"><ele>810.0</ele><time>2026-04-30T07:33:04.058Z</time></trkpt><trkpt lat="39.994806345235176" lon="9.211615017032495"><ele>803.0</ele><time>2026-04-30T07:33:05.058Z</time></trkpt><trkpt lat="39.994693714267285" lon="9.211513323608928"><ele>796.0</ele><time>2026-04-30T07:33:06.058Z</time></trkpt><trkpt lat="39.99460342164495" lon="9.211372735414544"><ele>796.0</ele><time>2026-04-30T07:33:07.058Z</time></trkpt><trkpt lat="39.99455455702661" lon="9.211253250436636"><ele>796.0</ele><time>2026-04-30T07:33:08.058Z</time></trkpt><trkpt lat="39.99451565735916" lon="9.211147353076816"><ele>796.0</ele><time>2026-04-30T07:33:09.059Z</time></trkpt><trkpt lat="39.99446735129449" lon="9.211053918564046"><ele>796.0</ele><time>2026-04-30T07:33:10.059Z</time></trkpt><trkpt lat="39.99441437409567" lon="9.210960768704874"><ele>796.0</ele><time>2026-04-30T07:33:11.059Z</time></trkpt><trkpt lat="39.99436856416919" lon="9.210854569884722"><ele>796.0</ele><time>2026-04-30T07:33:12.06Z</time></trkpt><trkpt lat="39.99432288701103" lon="9.210736743973872"><ele>796.0</ele><time>2026-04-30T07:33:13.06Z</time></trkpt><trkpt lat="39.99427672302348" lon="9.210615366590917"><ele>796.0</ele><time>2026-04-30T07:33:14.06Z</time></trkpt><trkpt lat="39.99422650964259" lon="9.210486669213529"><ele>796.0</ele><time>2026-04-30T07:33:15.06Z</time></trkpt><trkpt lat="39.99418184587313" lon="9.210346315092684"><ele>796.0</ele><time>2026-04-30T07:33:16.06Z</time></trkpt><trkpt lat="39.99415226271929" lon="9.210193089313393"><ele>787.25</ele><time>2026-04-30T07:33:17.06Z</time></trkpt><trkpt lat="39.99413596574936" lon="9.210036054305206"><ele>778.5</ele><time>2026-04-30T07:33:18.06Z</time></trkpt><trkpt lat="39.99416278857619" lon="9.209872565920577"><ele>769.75</ele><time>2026-04-30T07:33:19.06Z</time></trkpt><trkpt lat="39.99422375801613" lon="9.209737896724759"><ele>761.0</ele><time>2026-04-30T07:33:20.06Z</time></trkpt><trkpt lat="39.994315427759915" lon="9.20963975802974"><ele>761.0</ele><time>2026-04-30T07:33:21.059Z</time></trkpt><trkpt lat="39.994431718516914" lon="9.209569856921474"><ele>761.0</ele><time>2026-04-30T07:33:22.06Z</time></trkpt><trkpt lat="39.994553155215705" lon="9.20950483767639"><ele>761.0</ele><time>2026-04-30T07:33:23.06Z</time></trkpt><trkpt lat="39.994655234834184" lon="9.209433734082658"><ele>761.0</ele><time>2026-04-30T07:33:24.06Z</time></trkpt><trkpt lat="39.99474537422357" lon="9.20934151424835"><ele>761.0</ele><time>2026-04-30T07:33:25.06Z</time></trkpt><trkpt lat="39.99482922794573" lon="9.209223007316675"><ele>761.0</ele><time>2026-04-30T07:33:26.06Z</time></trkpt><trkpt lat="39.99489369862048" lon="9.209073321397296"><ele>761.0</ele><time>2026-04-30T07:33:27.06Z</time></trkpt><trkpt lat="39.99494246334379" lon="9.208930895817616"><ele>761.0</ele><time>2026-04-30T07:33:28.06Z</time></trkpt><trkpt lat="39.99495984044022" lon="9.208786322527457"><ele>758.75</ele><time>2026-04-30T07:33:29.06Z</time></trkpt><trkpt lat="39.994928548495395" lon="9.208631449667447"><ele>756.5</ele><time>2026-04-30T07:33:30.06Z</time></trkpt><trkpt lat="39.994879386516146" lon="9.208482582600919"><ele>754.25</ele><time>2026-04-30T07:33:31.06Z</time></trkpt><trkpt lat="39.99485868197265" lon="9.208317417861652"><ele>752.0</ele><time>2026-04-30T07:33:32.06Z</time></trkpt><trkpt lat="39.994884763870324" lon="9.208145331168557"><ele>750.5</ele><time>2026-04-30T07:33:33.06Z</time></trkpt><trkpt lat="39.99493001730259" lon="9.207977782603745"><ele>749.0</ele><time>2026-04-30T07:33:34.06Z</time></trkpt><trkpt lat="39.99499325934872" lon="9.207818295370846"><ele>747.5</ele><time>2026-04-30T07:33:35.06Z</time></trkpt><trkpt lat="39.99505608587966" lon="9.2076741538395"><ele>746.0</ele><time>2026-04-30T07:33:36.06Z</time></trkpt><trkpt lat="39.99512177712422" lon="9.207545367779135"><ele>746.1999999999999</ele><time>2026-04-30T07:33:37.06Z</time></trkpt><trkpt lat="39.995175688886725" lon="9.207411125369898"><ele>746.4</ele><time>2026-04-30T07:33:38.06Z</time></trkpt><trkpt lat="39.995193982192085" lon="9.207268933986875"><ele>746.6</ele><time>2026-04-30T07:33:39.06Z</time></trkpt><trkpt lat="39.995156841743494" lon="9.207149016576107"><ele>746.8</ele><time>2026-04-30T07:33:40.06Z</time></trkpt><trkpt lat="39.995080994724304" lon="9.207072798649216"><ele>747.0</ele><time>2026-04-30T07:33:41.06Z</time></trkpt><trkpt lat="39.994996551502716" lon="9.207047750781744"><ele>746.8</ele><time>2026-04-30T07:33:42.06Z</time></trkpt><trkpt lat="39.99491569799827" lon="9.20709239306055"><ele>746.6</ele><time>2026-04-30T07:33:43.06Z</time></trkpt><trkpt lat="39.994851706122866" lon="9.207191400298878"><ele>746.4</ele><time>2026-04-30T07:33:44.06Z</time></trkpt><trkpt lat="39.994805501735584" lon="9.20731703088096"><ele>746.1999999999999</ele><time>2026-04-30T07:33:45.06Z</time></trkpt><trkpt lat="39.994743072795494" lon="9.207442864603404"><ele>746.0</ele><time>2026-04-30T07:33:46.06Z</time></trkpt><trkpt lat="39.99468182717479" lon="9.207580149768217"><ele>746.0</ele><time>2026-04-30T07:33:47.06Z</time></trkpt><trkpt lat="39.994631095279196" lon="9.207738073123084"><ele>746.0</ele><time>2026-04-30T07:33:48.06Z</time></trkpt><trkpt lat="39.99460043919183" lon="9.207900358150154"><ele>746.0</ele><time>2026-04-30T07:33:49.06Z</time></trkpt><trkpt lat="39.994575301597315" lon="9.2080674285246"><ele>746.0</ele><time>2026-04-30T07:33:50.06Z</time></trkpt><trkpt lat="39.994554704956876" lon="9.208235489235582"><ele>747.5</ele><time>2026-04-30T07:33:51.06Z</time></trkpt><trkpt lat="39.994546524399944" lon="9.208408675433596"><ele>749.0</ele><time>2026-04-30T07:33:52.06Z</time></trkpt><trkpt lat="39.99456243170125" lon="9.208581471726438"><ele>750.5</ele><time>2026-04-30T07:33:53.06Z</time></trkpt><trkpt lat="39.99459171940222" lon="9.208741420719594"><ele>752.0</ele><time>2026-04-30T07:33:54.06Z</time></trkpt><trkpt lat="39.99461759392763" lon="9.208891390219323"><ele>754.25</ele><time>2026-04-30T07:33:55.06Z</time></trkpt><trkpt lat="39.99460473185787" lon="9.209018818643997"><ele>756.5</ele><time>2026-04-30T07:33:56.06Z</time></trkpt><trkpt lat="39.99451339656056" lon="9.209105711485416"><ele>758.75</ele><time>2026-04-30T07:33:57.06Z</time></trkpt><trkpt lat="39.994382302343126" lon="9.209133613921395"><ele>761.0</ele><time>2026-04-30T07:33:58.06Z</time></trkpt><trkpt lat="39.99426013343458" lon="9.209171292647374"><ele>754.25</ele><time>2026-04-30T07:33:59.06Z</time></trkpt><trkpt lat="39.99413891801137" lon="9.209216720964141"><ele>747.5</ele><time>2026-04-30T07:34:00.06Z</time></trkpt><trkpt lat="39.994014929480464" lon="9.209303821575652"><ele>740.75</ele><time>2026-04-30T07:34:01.06Z</time></trkpt><trkpt lat="39.99390697954246" lon="9.209425326016985"><ele>734.0</ele><time>2026-04-30T07:34:02.06Z</time></trkpt><trkpt lat="39.99381839673273" lon="9.209580243246018"><ele>734.0</ele><time>2026-04-30T07:34:03.06Z</time></trkpt><trkpt lat="39.993752688724875" lon="9.209757493473127"><ele>734.0</ele><time>2026-04-30T07:34:04.06Z</time></trkpt><trkpt lat="39.99370019351501" lon="9.20995402130467"><ele>734.0</ele><time>2026-04-30T07:34:05.06Z</time></trkpt><trkpt lat="39.99365932118299" lon="9.210156853397642"><ele>740.6666666666666</ele><time>2026-04-30T07:34:06.06Z</time></trkpt><trkpt lat="39.9936365576694" lon="9.210375097936174"><ele>747.3333333333334</ele><time>2026-04-30T07:34:07.06Z</time></trkpt><trkpt lat="39.993643758743055" lon="9.210605258460724"><ele>754.0</ele><time>2026-04-30T07:34:08.06Z</time></trkpt><trkpt lat="39.9936840372159" lon="9.210824780033583"><ele>754.6666666666667</ele><time>2026-04-30T07:34:09.06Z</time></trkpt><trkpt lat="39.99374427386799" lon="9.211030468008165"><ele>755.3333333333334</ele><time>2026-04-30T07:34:10.06Z</time></trkpt><trkpt lat="39.99381443399169" lon="9.211231643767963"><ele>756.0</ele><time>2026-04-30T07:34:11.06Z</time></trkpt><trkpt lat="39.993877292483475" lon="9.211430127834271"><ele>752.0</ele><time>2026-04-30T07:34:12.06Z</time></trkpt><trkpt lat="39.99391517608412" lon="9.211626321956329"><ele>748.0</ele><time>2026-04-30T07:34:13.06Z</time></trkpt><trkpt lat="39.993929637750846" lon="9.211784416032753"><ele>744.0</ele><time>2026-04-30T07:34:14.06Z</time></trkpt><trkpt lat="39.99392645967277" lon="9.211914965515115"><ele>740.0</ele><time>2026-04-30T07:34:15.06Z</time></trkpt><trkpt lat="39.99388412396568" lon="9.212016767909903"><ele>740.0</ele><time>2026-04-30T07:34:16.06Z</time></trkpt><trkpt lat="39.99380363746038" lon="9.212073613114585"><ele>740.0</ele><time>2026-04-30T07:34:17.06Z</time></trkpt><trkpt lat="39.99371420704972" lon="9.212069207770444"><ele>740.0</ele><time>2026-04-30T07:34:18.06Z</time></trkpt><trkpt lat="39.99363870717529" lon="9.212005615704742"><ele>740.0</ele><time>2026-04-30T07:34:19.06Z</time></trkpt><trkpt lat="39.99360945946381" lon="9.21190506581677"><ele>740.0</ele><time>2026-04-30T07:34:20.06Z</time></trkpt><trkpt lat="39.99363025621242" lon="9.211776054181518"><ele>740.0</ele><time>2026-04-30T07:34:21.06Z</time></trkpt><trkpt lat="39.99367276883436" lon="9.211642143487511"><ele>740.0</ele><time>2026-04-30T07:34:22.06Z</time></trkpt><trkpt lat="39.993690689734066" lon="9.211506130367331"><ele>740.0</ele><time>2026-04-30T07:34:23.06Z</time></trkpt><trkpt lat="39.99367037724427" lon="9.211362226042588"><ele>740.0</ele><time>2026-04-30T07:34:24.06Z</time></trkpt><trkpt lat="39.99363389711342" lon="9.211216586699559"><ele>740.0</ele><time>2026-04-30T07:34:25.06Z</time></trkpt><trkpt lat="39.99357145697743" lon="9.211070418186235"><ele>743.5</ele><time>2026-04-30T07:34:26.06Z</time></trkpt><trkpt lat="39.99349514836303" lon="9.210925951335849"><ele>747.0</ele><time>2026-04-30T07:34:27.06Z</time></trkpt><trkpt lat="39.99342541122226" lon="9.210771205644322"><ele>750.5</ele><time>2026-04-30T07:34:28.06Z</time></trkpt><trkpt lat="39.99337022355043" lon="9.210601213708753"><ele>754.0</ele><time>2026-04-30T07:34:29.06Z</time></trkpt><trkpt lat="39.993345851543225" lon="9.21041631095888"><ele>754.0</ele><time>2026-04-30T07:34:30.06Z</time></trkpt><trkpt lat="39.99334233598628" lon="9.210212746871633"><ele>754.0</ele><time>2026-04-30T07:34:31.06Z</time></trkpt><trkpt lat="39.99335128878947" lon="9.210011634037219"><ele>754.0</ele><time>2026-04-30T07:34:32.06Z</time></trkpt><trkpt lat="39.993380546749485" lon="9.209803831677316"><ele>747.3333333333334</ele><time>2026-04-30T07:34:33.06Z</time></trkpt><trkpt lat="39.99340762583156" lon="9.209594115208006"><ele>740.6666666666666</ele><time>2026-04-30T07:34:34.06Z</time></trkpt><trkpt lat="39.99343999455043" lon="9.209385796229089"><ele>734.0</ele><time>2026-04-30T07:34:35.06Z</time></trkpt><trkpt lat="39.99348447674537" lon="9.20919292136492"><ele>734.0</ele><time>2026-04-30T07:34:36.06Z</time></trkpt><trkpt lat="39.99356388526885" lon="9.209035605003734"><ele>734.0</ele><time>2026-04-30T07:34:37.06Z</time></trkpt><trkpt lat="39.993658860315016" lon="9.208902028942939"><ele>734.0</ele><time>2026-04-30T07:34:38.06Z</time></trkpt><trkpt lat="39.99375192647554" lon="9.208775162667278"><ele>734.0</ele><time>2026-04-30T07:34:39.06Z</time></trkpt><trkpt lat="39.99381420499656" lon="9.208634833075951"><ele>731.5</ele><time>2026-04-30T07:34:40.06Z</time></trkpt><trkpt lat="39.99381079756419" lon="9.208474453334869"><ele>729.0</ele><time>2026-04-30T07:34:41.06Z</time></trkpt><trkpt lat="39.9937473149402" lon="9.208321351537224"><ele>726.5</ele><time>2026-04-30T07:34:42.06Z</time></trkpt><trkpt lat="39.99366539523567" lon="9.208173326314249"><ele>724.0</ele><time>2026-04-30T07:34:43.06Z</time></trkpt><trkpt lat="39.99359283492339" lon="9.208014853809285"><ele>723.6666666666667</ele><time>2026-04-30T07:34:44.06Z</time></trkpt><trkpt lat="39.99356697912738" lon="9.207814907878793"><ele>723.3333333333334</ele><time>2026-04-30T07:34:45.06Z</time></trkpt><trkpt lat="39.993548864939804" lon="9.207605976958293"><ele>723.0</ele><time>2026-04-30T07:34:46.06Z</time></trkpt><trkpt lat="39.99349644908412" lon="9.20740387036858"><ele>718.0</ele><time>2026-04-30T07:34:47.06Z</time></trkpt><trkpt lat="39.99343508884205" lon="9.207212513731516"><ele>713.0</ele><time>2026-04-30T07:34:48.06Z</time></trkpt><trkpt lat="39.993409043058946" lon="9.207025973909719"><ele>708.0</ele><time>2026-04-30T07:34:49.06Z</time></trkpt><trkpt lat="39.99342472324389" lon="9.206830252968988"><ele>708.0</ele><time>2026-04-30T07:34:50.06Z</time></trkpt><trkpt lat="39.99345402311055" lon="9.20663047544024"><ele>708.0</ele><time>2026-04-30T07:34:51.06Z</time></trkpt><trkpt lat="39.993518120697495" lon="9.206439037245943"><ele>708.0</ele><time>2026-04-30T07:34:52.06Z</time></trkpt><trkpt lat="39.99361980215613" lon="9.20627485889304"><ele>702.0</ele><time>2026-04-30T07:34:53.06Z</time></trkpt><trkpt lat="39.9937402427307" lon="9.206133880288862"><ele>696.0</ele><time>2026-04-30T07:34:54.06Z</time></trkpt><trkpt lat="39.993882185189506" lon="9.206024149094784"><ele>690.0</ele><time>2026-04-30T07:34:55.06Z</time></trkpt><trkpt lat="39.9940250903936" lon="9.205934738397188"><ele>690.0</ele><time>2026-04-30T07:34:56.06Z</time></trkpt><trkpt lat="39.994145962854155" lon="9.205820533040505"><ele>690.0</ele><time>2026-04-30T07:34:57.06Z</time></trkpt><trkpt lat="39.994232390233066" lon="9.205649552644138"><ele>690.0</ele><time>2026-04-30T07:34:58.06Z</time></trkpt><trkpt lat="39.99429666133753" lon="9.205464771115494"><ele>686.0</ele><time>2026-04-30T07:34:59.06Z</time></trkpt><trkpt lat="39.994374599634035" lon="9.205304155050268"><ele>682.0</ele><time>2026-04-30T07:35:00.06Z</time></trkpt><trkpt lat="39.994481568788935" lon="9.205185793071028"><ele>678.0</ele><time>2026-04-30T07:35:01.06Z</time></trkpt><trkpt lat="39.994606524815" lon="9.205112545604374"><ele>674.0</ele><time>2026-04-30T07:35:02.06Z</time></trkpt><trkpt lat="39.99475868077598" lon="9.205090792982693"><ele>674.0</ele><time>2026-04-30T07:35:03.06Z</time></trkpt><trkpt lat="39.9949184828206" lon="9.205107789737927"><ele>674.0</ele><time>2026-04-30T07:35:04.06Z</time></trkpt><trkpt lat="39.99507880057658" lon="9.205105359397855"><ele>674.0</ele><time>2026-04-30T07:35:05.06Z</time></trkpt><trkpt lat="39.995239627086725" lon="9.205066900304649"><ele>676.6666666666666</ele><time>2026-04-30T07:35:06.061Z</time></trkpt><trkpt lat="39.99539612557368" lon="9.205022013205793"><ele>679.3333333333334</ele><time>2026-04-30T07:35:07.061Z</time></trkpt><trkpt lat="39.995554212205775" lon="9.204970423325578"><ele>682.0</ele><time>2026-04-30T07:35:08.061Z</time></trkpt><trkpt lat="39.99570925402229" lon="9.204898252256"><ele>684.3333333333334</ele><time>2026-04-30T07:35:09.061Z</time></trkpt><trkpt lat="39.995859010555456" lon="9.20480025650003"><ele>686.6666666666666</ele><time>2026-04-30T07:35:10.061Z</time></trkpt><trkpt lat="39.99600140271307" lon="9.204703912962103"><ele>689.0</ele><time>2026-04-30T07:35:11.061Z</time></trkpt><trkpt lat="39.99613575601482" lon="9.204623353668248"><ele>689.0</ele><time>2026-04-30T07:35:12.061Z</time></trkpt><trkpt lat="39.99625676742584" lon="9.204530289620294"><ele>689.0</ele><time>2026-04-30T07:35:13.061Z</time></trkpt><trkpt lat="39.996338375439194" lon="9.20440519172981"><ele>689.0</ele><time>2026-04-30T07:35:14.061Z</time></trkpt><trkpt lat="39.99636551102951" lon="9.20424871564825"><ele>689.0</ele><time>2026-04-30T07:35:15.062Z</time></trkpt><trkpt lat="39.99634172488892" lon="9.204088824457143"><ele>698.25</ele><time>2026-04-30T07:35:16.062Z</time></trkpt><trkpt lat="39.99624897508201" lon="9.203970397119516"><ele>707.5</ele><time>2026-04-30T07:35:17.062Z</time></trkpt><trkpt lat="39.99613000128012" lon="9.20391532583725"><ele>716.75</ele><time>2026-04-30T07:35:18.063Z</time></trkpt><trkpt lat="39.99600242867277" lon="9.20388954494008"><ele>726.0</ele><time>2026-04-30T07:35:19.063Z</time></trkpt><trkpt lat="39.99585725811825" lon="9.203903437473805"><ele>721.75</ele><time>2026-04-30T07:35:20.063Z</time></trkpt><trkpt lat="39.9957129828671" lon="9.203933864602174"><ele>717.5</ele><time>2026-04-30T07:35:21.063Z</time></trkpt><trkpt lat="39.99557211854705" lon="9.203948588323868"><ele>713.25</ele><time>2026-04-30T07:35:22.063Z</time></trkpt><trkpt lat="39.995438306709076" lon="9.20391639421229"><ele>709.0</ele><time>2026-04-30T07:35:23.063Z</time></trkpt><trkpt lat="39.99530098130198" lon="9.20384398900233"><ele>709.0</ele><time>2026-04-30T07:35:24.063Z</time></trkpt><trkpt lat="39.99516415460252" lon="9.20376454943665"><ele>709.0</ele><time>2026-04-30T07:35:25.062Z</time></trkpt><trkpt lat="39.99502079500703" lon="9.203693755067722"><ele>709.0</ele><time>2026-04-30T07:35:26.062Z</time></trkpt><trkpt lat="39.99487878124794" lon="9.203618139120543"><ele>705.3333333333334</ele><time>2026-04-30T07:35:27.063Z</time></trkpt><trkpt lat="39.99474508034148" lon="9.203526517398904"><ele>701.6666666666666</ele><time>2026-04-30T07:35:28.063Z</time></trkpt><trkpt lat="39.99462322834891" lon="9.203404213834943"><ele>698.0</ele><time>2026-04-30T07:35:29.063Z</time></trkpt><trkpt lat="39.99451218723485" lon="9.203264959442564"><ele>704.3333333333333</ele><time>2026-04-30T07:35:30.063Z</time></trkpt><trkpt lat="39.99442107810547" lon="9.203102594020528"><ele>710.6666666666666</ele><time>2026-04-30T07:35:31.063Z</time></trkpt><trkpt lat="39.99435867144815" lon="9.202916312594366"><ele>717.0</ele><time>2026-04-30T07:35:32.063Z</time></trkpt><trkpt lat="39.994305831001434" lon="9.202712429564725"><ele>717.0</ele><time>2026-04-30T07:35:33.063Z</time></trkpt><trkpt lat="39.99424402495059" lon="9.202500116438364"><ele>717.0</ele><time>2026-04-30T07:35:34.063Z</time></trkpt><trkpt lat="39.99418547478776" lon="9.202283787210705"><ele>717.0</ele><time>2026-04-30T07:35:35.063Z</time></trkpt><trkpt lat="39.99413127831721" lon="9.202059482786323"><ele>707.0</ele><time>2026-04-30T07:35:36.063Z</time></trkpt><trkpt lat="39.994080529699325" lon="9.201829078096194"><ele>697.0</ele><time>2026-04-30T07:35:37.063Z</time></trkpt><trkpt lat="39.9940469166811" lon="9.201607671404547"><ele>687.0</ele><time>2026-04-30T07:35:38.063Z</time></trkpt><trkpt lat="39.99399276864079" lon="9.201397919557374"><ele>687.0</ele><time>2026-04-30T07:35:39.063Z</time></trkpt><trkpt lat="39.99389439447344" lon="9.201197958161933"><ele>687.0</ele><time>2026-04-30T07:35:40.063Z</time></trkpt><trkpt lat="39.993792233860475" lon="9.201005325357151"><ele>687.0</ele><time>2026-04-30T07:35:41.063Z</time></trkpt><trkpt lat="39.99371751633235" lon="9.200795030002423"><ele>687.3333333333334</ele><time>2026-04-30T07:35:42.063Z</time></trkpt><trkpt lat="39.993656602834754" lon="9.200572060660827"><ele>687.6666666666667</ele><time>2026-04-30T07:35:43.063Z</time></trkpt><trkpt lat="39.993600631083886" lon="9.200340741209306"><ele>688.0</ele><time>2026-04-30T07:35:44.063Z</time></trkpt><trkpt lat="39.99354857008349" lon="9.20011164269538"><ele>688.0</ele><time>2026-04-30T07:35:45.063Z</time></trkpt><trkpt lat="39.99352053105713" lon="9.199885453842466"><ele>688.0</ele><time>2026-04-30T07:35:46.063Z</time></trkpt><trkpt lat="39.99349891050529" lon="9.199676132047639"><ele>688.0</ele><time>2026-04-30T07:35:47.063Z</time></trkpt><trkpt lat="39.9934772387633" lon="9.199486850356564"><ele>685.0</ele><time>2026-04-30T07:35:48.063Z</time></trkpt><trkpt lat="39.99346514624932" lon="9.199302521196545"><ele>682.0</ele><time>2026-04-30T07:35:49.063Z</time></trkpt><trkpt lat="39.993419018534766" lon="9.199131226727962"><ele>679.0</ele><time>2026-04-30T07:35:50.063Z</time></trkpt><trkpt lat="39.993304709237925" lon="9.19898382529124"><ele>676.0</ele><time>2026-04-30T07:35:51.063Z</time></trkpt><trkpt lat="39.993176717489014" lon="9.198877398418956"><ele>672.75</ele><time>2026-04-30T07:35:52.063Z</time></trkpt><trkpt lat="39.99312172914421" lon="9.198732424279633"><ele>669.5</ele><time>2026-04-30T07:35:53.063Z</time></trkpt><trkpt lat="39.993161582504364" lon="9.19858402220498"><ele>666.25</ele><time>2026-04-30T07:35:54.063Z</time></trkpt><trkpt lat="39.99326827721299" lon="9.198487328665871"><ele>663.0</ele><time>2026-04-30T07:35:55.063Z</time></trkpt><trkpt lat="39.99343301853402" lon="9.198393080895762"><ele>663.0</ele><time>2026-04-30T07:35:56.063Z</time></trkpt><trkpt lat="39.993585557833306" lon="9.198216255368175"><ele>663.0</ele><time>2026-04-30T07:35:57.063Z</time></trkpt><trkpt lat="39.99382355198956" lon="9.198000927500244"><ele>661.0</ele><time>2026-04-30T07:35:58.063Z</time></trkpt><trkpt lat="39.99405683751639" lon="9.197833559139916"><ele>659.0</ele><time>2026-04-30T07:35:59.063Z</time></trkpt><trkpt lat="39.99432604950546" lon="9.197669448418903"><ele>659.0</ele><time>2026-04-30T07:36:00.063Z</time></trkpt><trkpt lat="39.99452874443846" lon="9.197641019832103"><ele>659.0</ele><time>2026-04-30T07:36:01.063Z</time></trkpt><trkpt lat="39.99469804739662" lon="9.197689172263345"><ele>659.0</ele><time>2026-04-30T07:36:02.063Z</time></trkpt><trkpt lat="39.994845196760465" lon="9.197730805878408"><ele>659.0</ele><time>2026-04-30T07:36:03.063Z</time></trkpt><trkpt lat="39.9949670347096" lon="9.197751303230278"><ele>659.0</ele><time>2026-04-30T07:36:04.063Z</time></trkpt><trkpt lat="39.99507545415275" lon="9.197708369356208"><ele>659.0</ele><time>2026-04-30T07:36:05.063Z</time></trkpt><trkpt lat="39.995148792914506" lon="9.197582083532978"><ele>659.0</ele><time>2026-04-30T07:36:06.063Z</time></trkpt><trkpt lat="39.99514810605089" lon="9.197413830282375"><ele>663.3333333333333</ele><time>2026-04-30T07:36:07.063Z</time></trkpt><trkpt lat="39.99507372991265" lon="9.197257544302289"><ele>667.6666666666666</ele><time>2026-04-30T07:36:08.063Z</time></trkpt><trkpt lat="39.99495653800966" lon="9.197125446114926"><ele>672.0</ele><time>2026-04-30T07:36:09.063Z</time></trkpt><trkpt lat="39.9948254239169" lon="9.196980052588662"><ele>672.0</ele><time>2026-04-30T07:36:10.063Z</time></trkpt><trkpt lat="39.994701200033745" lon="9.19680021489618"><ele>672.0</ele><time>2026-04-30T07:36:11.063Z</time></trkpt><trkpt lat="39.99460978089584" lon="9.196602782395171"><ele>672.0</ele><time>2026-04-30T07:36:12.063Z</time></trkpt><trkpt lat="39.99453012107804" lon="9.196401241638346"><ele>678.6666666666666</ele><time>2026-04-30T07:36:13.063Z</time></trkpt><trkpt lat="39.99443781678505" lon="9.19620961357024"><ele>685.3333333333333</ele><time>2026-04-30T07:36:14.063Z</time></trkpt><trkpt lat="39.99432604539577" lon="9.196033248746115"><ele>692.0</ele><time>2026-04-30T07:36:15.063Z</time></trkpt><trkpt lat="39.99421717341161" lon="9.195877920396"><ele>692.0</ele><time>2026-04-30T07:36:16.063Z</time></trkpt><trkpt lat="39.9941736685628" lon="9.195685713026688"><ele>692.0</ele><time>2026-04-30T07:36:17.063Z</time></trkpt><trkpt lat="39.99417718510877" lon="9.195497963473239"><ele>692.0</ele><time>2026-04-30T07:36:18.063Z</time></trkpt><trkpt lat="39.994204421734615" lon="9.195322937893705"><ele>692.0</ele><time>2026-04-30T07:36:19.063Z</time></trkpt><trkpt lat="39.99421332714957" lon="9.195147286006351"><ele>685.25</ele><time>2026-04-30T07:36:20.063Z</time></trkpt><trkpt lat="39.99415808727998" lon="9.194978663232735"><ele>678.5</ele><time>2026-04-30T07:36:21.063Z</time></trkpt><trkpt lat="39.99408067582841" lon="9.194828101421024"><ele>671.75</ele><time>2026-04-30T07:36:22.063Z</time></trkpt><trkpt lat="39.99401770769993" lon="9.194663512184517"><ele>665.0</ele><time>2026-04-30T07:36:23.063Z</time></trkpt><trkpt lat="39.99393909250943" lon="9.194517408228608"><ele>665.0</ele><time>2026-04-30T07:36:24.063Z</time></trkpt><trkpt lat="39.99384563157056" lon="9.194384326206645"><ele>665.0</ele><time>2026-04-30T07:36:25.063Z</time></trkpt><trkpt lat="39.99373252807068" lon="9.19427582626865"><ele>665.0</ele><time>2026-04-30T07:36:26.063Z</time></trkpt><trkpt lat="39.99361809813626" lon="9.194165107852049"><ele>665.0</ele><time>2026-04-30T07:36:27.063Z</time></trkpt><trkpt lat="39.99352670827415" lon="9.1940230800254"><ele>668.25</ele><time>2026-04-30T07:36:28.063Z</time></trkpt><trkpt lat="39.99347965735837" lon="9.193849844920537"><ele>671.5</ele><time>2026-04-30T07:36:29.063Z</time></trkpt><trkpt lat="39.993462675891536" lon="9.193657711043153"><ele>674.75</ele><time>2026-04-30T07:36:30.063Z</time></trkpt><trkpt lat="39.99344092701144" lon="9.193456762898577"><ele>678.0</ele><time>2026-04-30T07:36:31.063Z</time></trkpt><trkpt lat="39.993399562397734" lon="9.193276576967452"><ele>678.5</ele><time>2026-04-30T07:36:32.063Z</time></trkpt><trkpt lat="39.99331426306246" lon="9.193139895374408"><ele>679.0</ele><time>2026-04-30T07:36:33.063Z</time></trkpt><trkpt lat="39.99319386151633" lon="9.193070207565176"><ele>679.5</ele><time>2026-04-30T07:36:34.063Z</time></trkpt><trkpt lat="39.993055115609856" lon="9.19302456578911"><ele>680.0</ele><time>2026-04-30T07:36:35.063Z</time></trkpt><trkpt lat="39.992915791446215" lon="9.192948417907335"><ele>680.0</ele><time>2026-04-30T07:36:36.063Z</time></trkpt><trkpt lat="39.99278832975198" lon="9.192813490240109"><ele>680.0</ele><time>2026-04-30T07:36:37.063Z</time></trkpt><trkpt lat="39.992684302369526" lon="9.192640979380238"><ele>680.0</ele><time>2026-04-30T07:36:38.063Z</time></trkpt><trkpt lat="39.992594081890914" lon="9.192459623107723"><ele>672.6666666666666</ele><time>2026-04-30T07:36:39.063Z</time></trkpt><trkpt lat="39.992527424812685" lon="9.19227972657997"><ele>665.3333333333334</ele><time>2026-04-30T07:36:40.063Z</time></trkpt><trkpt lat="39.99250174015073" lon="9.192088726194525"><ele>658.0</ele><time>2026-04-30T07:36:41.063Z</time></trkpt><trkpt lat="39.99250287246059" lon="9.19188626652095"><ele>658.0</ele><time>2026-04-30T07:36:42.063Z</time></trkpt><trkpt lat="39.99247975266636" lon="9.191700021746904"><ele>658.0</ele><time>2026-04-30T07:36:43.063Z</time></trkpt><trkpt lat="39.99240915168277" lon="9.191517501823062"><ele>658.0</ele><time>2026-04-30T07:36:44.063Z</time></trkpt><trkpt lat="39.99230918527357" lon="9.191337775913862"><ele>664.6666666666667</ele><time>2026-04-30T07:36:45.063Z</time></trkpt><trkpt lat="39.99218834935696" lon="9.191180028655294"><ele>671.3333333333334</ele><time>2026-04-30T07:36:46.063Z</time></trkpt><trkpt lat="39.99206025225864" lon="9.191052552737398"><ele>678.0</ele><time>2026-04-30T07:36:47.063Z</time></trkpt><trkpt lat="39.99192792614315" lon="9.190943637704589"><ele>678.0</ele><time>2026-04-30T07:36:48.063Z</time></trkpt><trkpt lat="39.99180816444378" lon="9.190838645151585"><ele>678.0</ele><time>2026-04-30T07:36:49.063Z</time></trkpt><trkpt lat="39.991703595635705" lon="9.190745002732092"><ele>678.0</ele><time>2026-04-30T07:36:50.063Z</time></trkpt><trkpt lat="39.99161125123898" lon="9.190686341164685"><ele>678.0</ele><time>2026-04-30T07:36:51.063Z</time></trkpt><trkpt lat="39.991548790710276" lon="9.190643674780882"><ele>678.0</ele><time>2026-04-30T07:36:52.063Z</time></trkpt><trkpt lat="39.991478256207365" lon="9.190586026104068"><ele>676.1666666666666</ele><time>2026-04-30T07:36:54.063Z</time></trkpt><trkpt lat="39.99140577198433" lon="9.190561209520228"><ele>674.3333333333334</ele><time>2026-04-30T07:38:09.066Z</time></trkpt><trkpt lat="39.991298061522315" lon="9.190514183465748"><ele>672.5</ele><time>2026-04-30T07:38:11.066Z</time></trkpt><trkpt lat="39.991231464373946" lon="9.190465331200567"><ele>670.6666666666667</ele><time>2026-04-30T07:38:12.066Z</time></trkpt><trkpt lat="39.99116251034803" lon="9.19040598130351"><ele>668.8333333333334</ele><time>2026-04-30T07:38:13.066Z</time></trkpt><trkpt lat="39.9911018987286" lon="9.19032636152823"><ele>667.0</ele><time>2026-04-30T07:38:14.066Z</time></trkpt><trkpt lat="39.99106253279448" lon="9.190235299275715"><ele>667.0</ele><time>2026-04-30T07:38:15.066Z</time></trkpt><trkpt lat="39.991033724607334" lon="9.190127417650642"><ele>667.0</ele><time>2026-04-30T07:38:16.066Z</time></trkpt><trkpt lat="39.99102791755304" lon="9.190022972125005"><ele>667.0</ele><time>2026-04-30T07:38:17.066Z</time></trkpt><trkpt lat="39.99100808347802" lon="9.189904945263384"><ele>667.0</ele><time>2026-04-30T07:38:18.066Z</time></trkpt><trkpt lat="39.990988038995106" lon="9.189794864116239"><ele>667.0</ele><time>2026-04-30T07:38:19.066Z</time></trkpt><trkpt lat="39.9909458777121" lon="9.18970147007248"><ele>667.0</ele><time>2026-04-30T07:38:20.066Z</time></trkpt><trkpt lat="39.99089492520113" lon="9.18961777966278"><ele>664.2</ele><time>2026-04-30T07:38:21.066Z</time></trkpt><trkpt lat="39.99082743658989" lon="9.189537993229752"><ele>661.4000000000001</ele><time>2026-04-30T07:38:22.066Z</time></trkpt><trkpt lat="39.99075110968931" lon="9.189459122499011"><ele>658.5999999999999</ele><time>2026-04-30T07:38:23.066Z</time></trkpt><trkpt lat="39.99067539484004" lon="9.189375413423841"><ele>655.8</ele><time>2026-04-30T07:38:24.066Z</time></trkpt><trkpt lat="39.99059738910505" lon="9.189295008078153"><ele>653.0</ele><time>2026-04-30T07:38:25.066Z</time></trkpt><trkpt lat="39.99050612869886" lon="9.189208500651738"><ele>653.0</ele><time>2026-04-30T07:38:26.066Z</time></trkpt><trkpt lat="39.99040155961327" lon="9.189135624768854"><ele>653.0</ele><time>2026-04-30T07:38:27.066Z</time></trkpt><trkpt lat="39.990287796424305" lon="9.18907264308773"><ele>653.0</ele><time>2026-04-30T07:38:28.066Z</time></trkpt><trkpt lat="39.990168790364905" lon="9.189005543708312"><ele>653.0</ele><time>2026-04-30T07:38:29.066Z</time></trkpt><trkpt lat="39.99004911547049" lon="9.188929669057396"><ele>652.0</ele><time>2026-04-30T07:38:30.066Z</time></trkpt><trkpt lat="39.98992782166441" lon="9.188840991585836"><ele>651.0</ele><time>2026-04-30T07:38:31.066Z</time></trkpt><trkpt lat="39.989814600134494" lon="9.188727537279565"><ele>650.0</ele><time>2026-04-30T07:38:32.066Z</time></trkpt><trkpt lat="39.989703857758855" lon="9.188604864701029"><ele>649.0</ele><time>2026-04-30T07:38:33.066Z</time></trkpt><trkpt lat="39.989592756572435" lon="9.188487460526796"><ele>649.0</ele><time>2026-04-30T07:38:34.066Z</time></trkpt><trkpt lat="39.989480179781424" lon="9.18838688871383"><ele>649.0</ele><time>2026-04-30T07:38:35.066Z</time></trkpt><trkpt lat="39.98935987171456" lon="9.188311170416943"><ele>649.0</ele><time>2026-04-30T07:38:36.066Z</time></trkpt><trkpt lat="39.98923113729757" lon="9.188272915557853"><ele>649.0</ele><time>2026-04-30T07:38:37.066Z</time></trkpt><trkpt lat="39.9891082083303" lon="9.188258376703311"><ele>645.75</ele><time>2026-04-30T07:38:38.066Z</time></trkpt><trkpt lat="39.988985216964124" lon="9.18824311768817"><ele>642.5</ele><time>2026-04-30T07:38:39.066Z</time></trkpt><trkpt lat="39.98886753872302" lon="9.18820592984446"><ele>639.25</ele><time>2026-04-30T07:38:40.066Z</time></trkpt><trkpt lat="39.98875282924556" lon="9.188149213345328"><ele>636.0</ele><time>2026-04-30T07:38:41.066Z</time></trkpt><trkpt lat="39.988635146702286" lon="9.188067979322675"><ele>636.0</ele><time>2026-04-30T07:38:42.066Z</time></trkpt><trkpt lat="39.988528924546095" lon="9.187970473733152"><ele>636.0</ele><time>2026-04-30T07:38:43.066Z</time></trkpt><trkpt lat="39.988437635297515" lon="9.187854267906559"><ele>636.0</ele><time>2026-04-30T07:38:44.066Z</time></trkpt><trkpt lat="39.988359521149825" lon="9.187736107382129"><ele>636.0</ele><time>2026-04-30T07:38:45.066Z</time></trkpt><trkpt lat="39.9883090855386" lon="9.187610703328495"><ele>633.0</ele><time>2026-04-30T07:38:46.066Z</time></trkpt><trkpt lat="39.988301502628985" lon="9.187480913981236"><ele>630.0</ele><time>2026-04-30T07:38:47.066Z</time></trkpt><trkpt lat="39.988331348188886" lon="9.187355070906161"><ele>627.0</ele><time>2026-04-30T07:38:48.066Z</time></trkpt><trkpt lat="39.98838435396326" lon="9.187250748502613"><ele>624.0</ele><time>2026-04-30T07:38:49.066Z</time></trkpt><trkpt lat="39.98844595296925" lon="9.187173061421202"><ele>621.0</ele><time>2026-04-30T07:38:50.066Z</time></trkpt><trkpt lat="39.98852921692118" lon="9.187091409182125"><ele>621.0</ele><time>2026-04-30T07:38:51.066Z</time></trkpt><trkpt lat="39.98863237416187" lon="9.1870000714712"><ele>621.0</ele><time>2026-04-30T07:38:52.066Z</time></trkpt><trkpt lat="39.98873853791316" lon="9.186891543604961"><ele>621.0</ele><time>2026-04-30T07:38:53.066Z</time></trkpt><trkpt lat="39.98884722401596" lon="9.18677993339639"><ele>621.0</ele><time>2026-04-30T07:38:54.066Z</time></trkpt><trkpt lat="39.98894965966908" lon="9.186653066492424"><ele>617.5</ele><time>2026-04-30T07:38:55.066Z</time></trkpt><trkpt lat="39.9890363689472" lon="9.186508891550696"><ele>614.0</ele><time>2026-04-30T07:38:56.066Z</time></trkpt><trkpt lat="39.98912506533831" lon="9.186376266826583"><ele>610.5</ele><time>2026-04-30T07:38:57.066Z</time></trkpt><trkpt lat="39.98923124559863" lon="9.186262475994804"><ele>607.0</ele><time>2026-04-30T07:38:58.066Z</time></trkpt><trkpt lat="39.98933332181717" lon="9.186152911584061"><ele>607.0</ele><time>2026-04-30T07:38:59.066Z</time></trkpt><trkpt lat="39.98944214798132" lon="9.186047422056372"><ele>607.0</ele><time>2026-04-30T07:39:00.066Z</time></trkpt><trkpt lat="39.98956294009194" lon="9.18596981666801"><ele>607.0</ele><time>2026-04-30T07:39:01.066Z</time></trkpt><trkpt lat="39.98969530734726" lon="9.185944425526545"><ele>607.0</ele><time>2026-04-30T07:39:02.066Z</time></trkpt><trkpt lat="39.98982225057177" lon="9.18595564022679"><ele>607.0</ele><time>2026-04-30T07:39:03.066Z</time></trkpt><trkpt lat="39.98994200779771" lon="9.18600269946459"><ele>607.0</ele><time>2026-04-30T07:39:04.066Z</time></trkpt><trkpt lat="39.99006214623242" lon="9.18603148427698"><ele>607.0</ele><time>2026-04-30T07:39:05.066Z</time></trkpt><trkpt lat="39.9901843847273" lon="9.186010161918395"><ele>607.0</ele><time>2026-04-30T07:39:06.066Z</time></trkpt><trkpt lat="39.99029301177434" lon="9.185915606608898"><ele>606.25</ele><time>2026-04-30T07:39:07.066Z</time></trkpt><trkpt lat="39.99037122721244" lon="9.185775282927631"><ele>605.5</ele><time>2026-04-30T07:39:08.066Z</time></trkpt><trkpt lat="39.99043433579434" lon="9.18561250330181"><ele>604.75</ele><time>2026-04-30T07:39:09.066Z</time></trkpt><trkpt lat="39.99051372045651" lon="9.185465577200304"><ele>604.0</ele><time>2026-04-30T07:39:10.066Z</time></trkpt><trkpt lat="39.99062488417629" lon="9.185355675639865"><ele>604.0</ele><time>2026-04-30T07:39:11.066Z</time></trkpt><trkpt lat="39.99074560256485" lon="9.18527829104474"><ele>604.0</ele><time>2026-04-30T07:39:12.066Z</time></trkpt><trkpt lat="39.990858743815345" lon="9.185182673599261"><ele>604.0</ele><time>2026-04-30T07:39:13.067Z</time></trkpt><trkpt lat="39.99092828591445" lon="9.185035322642811"><ele>604.0</ele><time>2026-04-30T07:39:14.067Z</time></trkpt><trkpt lat="39.99095069257691" lon="9.18485844388747"><ele>604.75</ele><time>2026-04-30T07:39:15.067Z</time></trkpt><trkpt lat="39.99095951699122" lon="9.184689720242348"><ele>605.5</ele><time>2026-04-30T07:39:16.067Z</time></trkpt><trkpt lat="39.990977083035006" lon="9.184518284497397"><ele>606.25</ele><time>2026-04-30T07:39:17.067Z</time></trkpt><trkpt lat="39.991002136517295" lon="9.184346953905171"><ele>607.0</ele><time>2026-04-30T07:39:18.067Z</time></trkpt><trkpt lat="39.99105902658132" lon="9.184181716519863"><ele>607.0</ele><time>2026-04-30T07:39:19.067Z</time></trkpt><trkpt lat="39.99113917506029" lon="9.184027035500783"><ele>607.0</ele><time>2026-04-30T07:39:20.067Z</time></trkpt><trkpt lat="39.99123477607459" lon="9.183878939834393"><ele>607.0</ele><time>2026-04-30T07:39:21.067Z</time></trkpt><trkpt lat="39.99132540000632" lon="9.183747065845195"><ele>607.0</ele><time>2026-04-30T07:39:22.067Z</time></trkpt><trkpt lat="39.99142009125558" lon="9.183620352354932"><ele>605.0</ele><time>2026-04-30T07:39:23.067Z</time></trkpt><trkpt lat="39.99153773743641" lon="9.183541576376863"><ele>603.0</ele><time>2026-04-30T07:39:24.067Z</time></trkpt><trkpt lat="39.99167524820996" lon="9.183528273031262"><ele>601.0</ele><time>2026-04-30T07:39:25.067Z</time></trkpt><trkpt lat="39.99180680928951" lon="9.183581820648163"><ele>599.0</ele><time>2026-04-30T07:39:26.067Z</time></trkpt><trkpt lat="39.991923315685646" lon="9.1836949269834"><ele>599.0</ele><time>2026-04-30T07:39:27.068Z</time></trkpt><trkpt lat="39.99201184002382" lon="9.183818068128266"><ele>599.0</ele><time>2026-04-30T07:39:28.068Z</time></trkpt><trkpt lat="39.99206998944534" lon="9.183859927996268"><ele>599.0</ele><time>2026-04-30T07:39:29.068Z</time></trkpt><trkpt lat="39.99216189095582" lon="9.183876450989947"><ele>599.0</ele><time>2026-04-30T07:39:30.068Z</time></trkpt><trkpt lat="39.99225367360325" lon="9.18382006257253"><ele>599.0</ele><time>2026-04-30T07:39:31.068Z</time></trkpt><trkpt lat="39.99232238520873" lon="9.183710700152641"><ele>599.0</ele><time>2026-04-30T07:39:32.068Z</time></trkpt><trkpt lat="39.99235773017389" lon="9.183564350048393"><ele>599.0</ele><time>2026-04-30T07:39:33.068Z</time></trkpt><trkpt lat="39.99237891834254" lon="9.183413355732009"><ele>599.0</ele><time>2026-04-30T07:39:34.068Z</time></trkpt><trkpt lat="39.9924093524139" lon="9.183254285989856"><ele>599.0</ele><time>2026-04-30T07:39:35.068Z</time></trkpt><trkpt lat="39.9924417490186" lon="9.183100508511778"><ele>600.4</ele><time>2026-04-30T07:39:36.068Z</time></trkpt><trkpt lat="39.99247362336901" lon="9.182953231307904"><ele>601.8</ele><time>2026-04-30T07:39:37.068Z</time></trkpt><trkpt lat="39.992503470286756" lon="9.182814283119"><ele>603.2</ele><time>2026-04-30T07:39:38.068Z</time></trkpt><trkpt lat="39.99253535076297" lon="9.182678541421643"><ele>604.6</ele><time>2026-04-30T07:39:39.069Z</time></trkpt><trkpt lat="39.99257126491617" lon="9.182552278160443"><ele>606.0</ele><time>2026-04-30T07:39:40.068Z</time></trkpt><trkpt lat="39.99261032773447" lon="9.182428735402471"><ele>603.0</ele><time>2026-04-30T07:39:41.068Z</time></trkpt><trkpt lat="39.992642492379495" lon="9.182326805708746"><ele>600.0</ele><time>2026-04-30T07:39:42.068Z</time></trkpt><trkpt lat="39.992665387937755" lon="9.182242755773029"><ele>597.0</ele><time>2026-04-30T07:39:45.069Z</time></trkpt><trkpt lat="39.992629003574756" lon="9.182160406209036"><ele>594.0</ele><time>2026-04-30T07:39:50.069Z</time></trkpt><trkpt lat="39.99255739272867" lon="9.182183523071652"><ele>591.0</ele><time>2026-04-30T07:39:51.069Z</time></trkpt><trkpt lat="39.992474902978095" lon="9.182282008598918"><ele>588.0</ele><time>2026-04-30T07:39:52.069Z</time></trkpt><trkpt lat="39.99238492567604" lon="9.18235761845557"><ele>588.0</ele><time>2026-04-30T07:39:53.069Z</time></trkpt><trkpt lat="39.992316241254116" lon="9.182454093171405"><ele>588.0</ele><time>2026-04-30T07:39:54.069Z</time></trkpt><trkpt lat="39.99227965865604" lon="9.182571398323502"><ele>588.0</ele><time>2026-04-30T07:39:55.069Z</time></trkpt><trkpt lat="39.99224669691667" lon="9.182708535480169"><ele>588.0</ele><time>2026-04-30T07:39:56.069Z</time></trkpt><trkpt lat="39.99223523943088" lon="9.182804322865257"><ele>588.0</ele><time>2026-04-30T07:39:57.069Z</time></trkpt><trkpt lat="39.99221709037896" lon="9.182972864607596"><ele>588.0</ele><time>2026-04-30T07:39:58.069Z</time></trkpt><trkpt lat="39.992203404182426" lon="9.183133821359858"><ele>588.0</ele><time>2026-04-30T07:39:59.069Z</time></trkpt><trkpt lat="39.992167795408804" lon="9.183256683350006"><ele>588.0</ele><time>2026-04-30T07:40:00.069Z</time></trkpt><trkpt lat="39.992097375996835" lon="9.183352335281775"><ele>588.0</ele><time>2026-04-30T07:40:01.069Z</time></trkpt><trkpt lat="39.991991230165056" lon="9.183356575066522"><ele>588.0</ele><time>2026-04-30T07:40:02.069Z</time></trkpt><trkpt lat="39.99189785165246" lon="9.183272393183683"><ele>588.0</ele><time>2026-04-30T07:40:03.069Z</time></trkpt><trkpt lat="39.99181288891855" lon="9.183165026130231"><ele>588.0</ele><time>2026-04-30T07:40:04.069Z</time></trkpt><trkpt lat="39.991727944425364" lon="9.183069799344997"><ele>588.0</ele><time>2026-04-30T07:40:05.069Z</time></trkpt><trkpt lat="39.991641914251744" lon="9.18299665996892"><ele>588.0</ele><time>2026-04-30T07:40:06.069Z</time></trkpt><trkpt lat="39.99156945974406" lon="9.182922821222395"><ele>588.0</ele><time>2026-04-30T07:40:07.069Z</time></trkpt><trkpt lat="39.99149030695897" lon="9.182847269424476"><ele>584.5</ele><time>2026-04-30T07:40:08.069Z</time></trkpt><trkpt lat="39.99139983005347" lon="9.182794986328158"><ele>581.0</ele><time>2026-04-30T07:40:09.069Z</time></trkpt><trkpt lat="39.99128101783213" lon="9.182777747926075"><ele>577.5</ele><time>2026-04-30T07:40:10.069Z</time></trkpt><trkpt lat="39.99115374831781" lon="9.182812303558034"><ele>574.0</ele><time>2026-04-30T07:40:11.069Z</time></trkpt><trkpt lat="39.991032437813644" lon="9.182880952893429"><ele>574.0</ele><time>2026-04-30T07:40:12.069Z</time></trkpt><trkpt lat="39.99091487237494" lon="9.182985970608758"><ele>574.0</ele><time>2026-04-30T07:40:13.069Z</time></trkpt><trkpt lat="39.99078223059889" lon="9.183076135650714"><ele>574.0</ele><time>2026-04-30T07:40:14.069Z</time></trkpt><trkpt lat="39.99062723244241" lon="9.183127667822724"><ele>576.6666666666667</ele><time>2026-04-30T07:40:15.069Z</time></trkpt><trkpt lat="39.99048163031487" lon="9.183169455319392"><ele>579.3333333333334</ele><time>2026-04-30T07:40:16.069Z</time></trkpt><trkpt lat="39.99034523506978" lon="9.183256591164715"><ele>582.0</ele><time>2026-04-30T07:40:17.069Z</time></trkpt><trkpt lat="39.990245832093485" lon="9.183402501854076"><ele>582.0</ele><time>2026-04-30T07:40:18.069Z</time></trkpt><trkpt lat="39.99017251456168" lon="9.18358637541791"><ele>582.0</ele><time>2026-04-30T07:40:19.069Z</time></trkpt><trkpt lat="39.99011176899566" lon="9.183788919616397"><ele>582.0</ele><time>2026-04-30T07:40:20.069Z</time></trkpt><trkpt lat="39.990025803282556" lon="9.183911078991887"><ele>577.75</ele><time>2026-04-30T07:40:21.069Z</time></trkpt><trkpt lat="39.989899952547226" lon="9.18393839867719"><ele>573.5</ele><time>2026-04-30T07:40:22.069Z</time></trkpt><trkpt lat="39.989748154931185" lon="9.183907081885275"><ele>569.25</ele><time>2026-04-30T07:40:23.069Z</time></trkpt><trkpt lat="39.98959856263074" lon="9.183880322829236"><ele>565.0</ele><time>2026-04-30T07:40:24.069Z</time></trkpt><trkpt lat="39.98944560582867" lon="9.183929694141595"><ele>565.0</ele><time>2026-04-30T07:40:25.069Z</time></trkpt><trkpt lat="39.98930222540035" lon="9.184009885364288"><ele>565.0</ele><time>2026-04-30T07:40:26.069Z</time></trkpt><trkpt lat="39.989140035499794" lon="9.184032373544042"><ele>565.0</ele><time>2026-04-30T07:40:27.069Z</time></trkpt><trkpt lat="39.98897737978742" lon="9.18398241979958"><ele>566.0</ele><time>2026-04-30T07:40:28.069Z</time></trkpt><trkpt lat="39.98883653184309" lon="9.183938810523653"><ele>567.0</ele><time>2026-04-30T07:40:29.069Z</time></trkpt><trkpt lat="39.9886892642391" lon="9.18398262192246"><ele>568.0</ele><time>2026-04-30T07:40:30.069Z</time></trkpt><trkpt lat="39.98854799327093" lon="9.1840963855425"><ele>568.0</ele><time>2026-04-30T07:40:31.069Z</time></trkpt><trkpt lat="39.988415370501116" lon="9.184247884683717"><ele>568.0</ele><time>2026-04-30T07:40:32.069Z</time></trkpt><trkpt lat="39.98827066657304" lon="9.184381408108079"><ele>568.0</ele><time>2026-04-30T07:40:33.069Z</time></trkpt><trkpt lat="39.98811490605902" lon="9.184510947461582"><ele>569.3333333333334</ele><time>2026-04-30T07:40:34.069Z</time></trkpt><trkpt lat="39.987955289730586" lon="9.184638868319741"><ele>570.6666666666666</ele><time>2026-04-30T07:40:35.069Z</time></trkpt><trkpt lat="39.987805522643185" lon="9.184786574902672"><ele>572.0</ele><time>2026-04-30T07:40:36.069Z</time></trkpt><trkpt lat="39.98766006563034" lon="9.18495550486934"><ele>572.0</ele><time>2026-04-30T07:40:37.069Z</time></trkpt><trkpt lat="39.98751437683385" lon="9.185121163993221"><ele>572.0</ele><time>2026-04-30T07:40:38.069Z</time></trkpt><trkpt lat="39.98735937116556" lon="9.185251651851203"><ele>572.0</ele><time>2026-04-30T07:40:39.069Z</time></trkpt><trkpt lat="39.987214419913805" lon="9.185372254056034"><ele>570.0</ele><time>2026-04-30T07:40:40.069Z</time></trkpt><trkpt lat="39.98708302464545" lon="9.185511585750676"><ele>568.0</ele><time>2026-04-30T07:40:41.069Z</time></trkpt><trkpt lat="39.98696589211002" lon="9.185698231434152"><ele>566.0</ele><time>2026-04-30T07:40:42.069Z</time></trkpt><trkpt lat="39.986877867576595" lon="9.18591952862117"><ele>566.0</ele><time>2026-04-30T07:40:43.069Z</time></trkpt><trkpt lat="39.98680097416231" lon="9.18613138903905"><ele>566.0</ele><time>2026-04-30T07:40:44.069Z</time></trkpt><trkpt lat="39.98675029242878" lon="9.186330111057465"><ele>566.0</ele><time>2026-04-30T07:40:45.069Z</time></trkpt><trkpt lat="39.986746623062146" lon="9.186532027699092"><ele>563.5</ele><time>2026-04-30T07:40:46.069Z</time></trkpt><trkpt lat="39.986722450821915" lon="9.18668847846449"><ele>561.0</ele><time>2026-04-30T07:40:47.069Z</time></trkpt><trkpt lat="39.98664166326308" lon="9.186778040995504"><ele>558.5</ele><time>2026-04-30T07:40:48.069Z</time></trkpt><trkpt lat="39.986494051760204" lon="9.186799526449628"><ele>556.0</ele><time>2026-04-30T07:40:49.069Z</time></trkpt><trkpt lat="39.98636559590943" lon="9.186743590752258"><ele>556.0</ele><time>2026-04-30T07:40:50.069Z</time></trkpt><trkpt lat="39.986268997350905" lon="9.186601693830754"><ele>556.0</ele><time>2026-04-30T07:40:51.069Z</time></trkpt><trkpt lat="39.98621363214856" lon="9.186431827642132"><ele>556.0</ele><time>2026-04-30T07:40:52.069Z</time></trkpt><trkpt lat="39.98615413338472" lon="9.186235150944672"><ele>556.0</ele><time>2026-04-30T07:40:53.069Z</time></trkpt><trkpt lat="39.9860869711802" lon="9.186045802535652"><ele>554.0</ele><time>2026-04-30T07:40:54.069Z</time></trkpt><trkpt lat="39.986014108350396" lon="9.185844171920664"><ele>552.0</ele><time>2026-04-30T07:40:55.069Z</time></trkpt><trkpt lat="39.985935611738476" lon="9.185646893158742"><ele>550.0</ele><time>2026-04-30T07:40:56.069Z</time></trkpt><trkpt lat="39.985853077403455" lon="9.185458974724387"><ele>549.3333333333334</ele><time>2026-04-30T07:40:57.069Z</time></trkpt><trkpt lat="39.98574639010516" lon="9.18530275770044"><ele>548.6666666666666</ele><time>2026-04-30T07:40:58.069Z</time></trkpt><trkpt lat="39.98561576051534" lon="9.185184520480606"><ele>548.0</ele><time>2026-04-30T07:40:59.069Z</time></trkpt><trkpt lat="39.98546659585189" lon="9.185100415378368"><ele>548.0</ele><time>2026-04-30T07:41:00.069Z</time></trkpt><trkpt lat="39.98529184840948" lon="9.18504248882367"><ele>548.0</ele><time>2026-04-30T07:41:01.069Z</time></trkpt><trkpt lat="39.98511974793798" lon="9.184989864606019"><ele>548.0</ele><time>2026-04-30T07:41:02.069Z</time></trkpt><trkpt lat="39.984934925746856" lon="9.184963549461976"><ele>550.3333333333333</ele><time>2026-04-30T07:41:03.069Z</time></trkpt><trkpt lat="39.98476316035347" lon="9.184961764802155"><ele>552.6666666666666</ele><time>2026-04-30T07:41:04.069Z</time></trkpt><trkpt lat="39.98459738086199" lon="9.184960636155191"><ele>555.0</ele><time>2026-04-30T07:41:05.069Z</time></trkpt><trkpt lat="39.98441924675362" lon="9.184960860618219"><ele>555.0</ele><time>2026-04-30T07:41:06.069Z</time></trkpt><trkpt lat="39.98423706316226" lon="9.184954569344805"><ele>555.0</ele><time>2026-04-30T07:41:07.069Z</time></trkpt><trkpt lat="39.98405314275122" lon="9.18495713973955"><ele>555.0</ele><time>2026-04-30T07:41:08.069Z</time></trkpt><trkpt lat="39.98386320883743" lon="9.18494909777778"><ele>555.0</ele><time>2026-04-30T07:41:09.069Z</time></trkpt><trkpt lat="39.98367498437035" lon="9.184942817712217"><ele>555.0</ele><time>2026-04-30T07:41:10.069Z</time></trkpt><trkpt lat="39.98349414162314" lon="9.18494984287266"><ele>555.0</ele><time>2026-04-30T07:41:11.069Z</time></trkpt><trkpt lat="39.98332590900045" lon="9.18502729385947"><ele>554.0</ele><time>2026-04-30T07:41:12.069Z</time></trkpt><trkpt lat="39.983192587189855" lon="9.185181290626936"><ele>553.0</ele><time>2026-04-30T07:41:13.069Z</time></trkpt><trkpt lat="39.983057016913875" lon="9.185344454202403"><ele>552.0</ele><time>2026-04-30T07:41:14.069Z</time></trkpt><trkpt lat="39.98291594422089" lon="9.185466728757367"><ele>552.0</ele><time>2026-04-30T07:41:15.069Z</time></trkpt><trkpt lat="39.98277915736153" lon="9.18552676583693"><ele>552.0</ele><time>2026-04-30T07:41:16.069Z</time></trkpt><trkpt lat="39.98264285696788" lon="9.185449950961571"><ele>552.0</ele><time>2026-04-30T07:41:17.069Z</time></trkpt><trkpt lat="39.982496895306944" lon="9.185349868290801"><ele>552.0</ele><time>2026-04-30T07:41:18.069Z</time></trkpt><trkpt lat="39.98234335303981" lon="9.185334441718934"><ele>552.0</ele><time>2026-04-30T07:41:19.069Z</time></trkpt><trkpt lat="39.98217006782373" lon="9.185395543339526"><ele>552.0</ele><time>2026-04-30T07:41:20.069Z</time></trkpt><trkpt lat="39.98200144428758" lon="9.185497382380634"><ele>552.0</ele><time>2026-04-30T07:41:21.069Z</time></trkpt><trkpt lat="39.98183262752263" lon="9.185573560710809"><ele>552.0</ele><time>2026-04-30T07:41:22.069Z</time></trkpt><trkpt lat="39.98163813831343" lon="9.185592032604795"><ele>552.0</ele><time>2026-04-30T07:41:23.069Z</time></trkpt><trkpt lat="39.98143955326856" lon="9.185573591763314"><ele>552.3333333333334</ele><time>2026-04-30T07:41:24.069Z</time></trkpt><trkpt lat="39.98124666126381" lon="9.185546056699337"><ele>552.6666666666667</ele><time>2026-04-30T07:41:25.069Z</time></trkpt><trkpt lat="39.981053712931235" lon="9.18549027826571"><ele>553.0</ele><time>2026-04-30T07:41:26.069Z</time></trkpt><trkpt lat="39.98088234257094" lon="9.18539154728697"><ele>553.75</ele><time>2026-04-30T07:41:27.069Z</time></trkpt><trkpt lat="39.98073540235181" lon="9.185281656076693"><ele>554.5</ele><time>2026-04-30T07:41:28.069Z</time></trkpt><trkpt lat="39.98059838607925" lon="9.185247478893993"><ele>555.25</ele><time>2026-04-30T07:41:29.069Z</time></trkpt><trkpt lat="39.980468541732726" lon="9.185304729140466"><ele>556.0</ele><time>2026-04-30T07:41:30.069Z</time></trkpt><trkpt lat="39.980337379983595" lon="9.185447536743208"><ele>556.0</ele><time>2026-04-30T07:41:31.069Z</time></trkpt><trkpt lat="39.98021922467567" lon="9.185613394856729"><ele>556.0</ele><time>2026-04-30T07:41:32.069Z</time></trkpt><trkpt lat="39.98008014954723" lon="9.185765894256205"><ele>556.0</ele><time>2026-04-30T07:41:33.07Z</time></trkpt><trkpt lat="39.979933307685094" lon="9.18592316950959"><ele>559.0</ele><time>2026-04-30T07:41:34.07Z</time></trkpt><trkpt lat="39.97979266581869" lon="9.186078209062446"><ele>562.0</ele><time>2026-04-30T07:41:35.07Z</time></trkpt><trkpt lat="39.97964516726559" lon="9.186230758759788"><ele>565.0</ele><time>2026-04-30T07:41:36.071Z</time></trkpt><trkpt lat="39.979489078456936" lon="9.186394214535603"><ele>566.0</ele><time>2026-04-30T07:41:37.071Z</time></trkpt><trkpt lat="39.97933796984328" lon="9.186552153579909"><ele>567.0</ele><time>2026-04-30T07:41:38.071Z</time></trkpt><trkpt lat="39.97919073995029" lon="9.186703260578666"><ele>568.0</ele><time>2026-04-30T07:41:39.071Z</time></trkpt><trkpt lat="39.97904475432766" lon="9.18683791710822"><ele>568.0</ele><time>2026-04-30T07:41:40.071Z</time></trkpt><trkpt lat="39.97893647866588" lon="9.187005176683119"><ele>568.0</ele><time>2026-04-30T07:41:41.071Z</time></trkpt><trkpt lat="39.978866166775596" lon="9.18719688841407"><ele>568.0</ele><time>2026-04-30T07:41:42.071Z</time></trkpt><trkpt lat="39.978834986131396" lon="9.187435265460822"><ele>571.6666666666667</ele><time>2026-04-30T07:41:43.07Z</time></trkpt><trkpt lat="39.97883580412067" lon="9.18768208851109"><ele>575.3333333333334</ele><time>2026-04-30T07:41:44.07Z</time></trkpt><trkpt lat="39.97886905807876" lon="9.187925732662585"><ele>579.0</ele><time>2026-04-30T07:41:45.071Z</time></trkpt><trkpt lat="39.9789218655913" lon="9.18814075974877"><ele>582.0</ele><time>2026-04-30T07:41:46.071Z</time></trkpt><trkpt lat="39.97893586033217" lon="9.18833628458706"><ele>585.0</ele><time>2026-04-30T07:41:47.071Z</time></trkpt><trkpt lat="39.97888873255656" lon="9.188509772968892"><ele>588.0</ele><time>2026-04-30T07:41:48.071Z</time></trkpt><trkpt lat="39.97879847456884" lon="9.1886730807829"><ele>591.0</ele><time>2026-04-30T07:41:49.071Z</time></trkpt><trkpt lat="39.978688078954065" lon="9.188757974022964"><ele>591.0</ele><time>2026-04-30T07:41:50.071Z</time></trkpt><trkpt lat="39.97854662946187" lon="9.188739121305174"><ele>591.0</ele><time>2026-04-30T07:41:51.071Z</time></trkpt><trkpt lat="39.97839308297607" lon="9.18867327388227"><ele>591.0</ele><time>2026-04-30T07:41:52.071Z</time></trkpt><trkpt lat="39.9782458968551" lon="9.18861426782719"><ele>584.6666666666666</ele><time>2026-04-30T07:41:53.071Z</time></trkpt><trkpt lat="39.97808531068585" lon="9.18854401898114"><ele>578.3333333333333</ele><time>2026-04-30T07:41:54.071Z</time></trkpt><trkpt lat="39.977943037473466" lon="9.18841808561817"><ele>572.0</ele><time>2026-04-30T07:41:55.071Z</time></trkpt><trkpt lat="39.977816033351935" lon="9.188252708231222"><ele>570.0</ele><time>2026-04-30T07:41:56.071Z</time></trkpt><trkpt lat="39.977725691291546" lon="9.188033456197848"><ele>568.0</ele><time>2026-04-30T07:41:57.071Z</time></trkpt><trkpt lat="39.97768539952783" lon="9.187782277253241"><ele>566.0</ele><time>2026-04-30T07:41:58.071Z</time></trkpt><trkpt lat="39.97770322140288" lon="9.187534517578563"><ele>565.3333333333333</ele><time>2026-04-30T07:41:59.071Z</time></trkpt><trkpt lat="39.9777480501684" lon="9.187292889248564"><ele>564.6666666666666</ele><time>2026-04-30T07:42:00.071Z</time></trkpt><trkpt lat="39.977824374322864" lon="9.187074934556742"><ele>564.0</ele><time>2026-04-30T07:42:01.071Z</time></trkpt><trkpt lat="39.97788640661105" lon="9.186898160226493"><ele>564.0</ele><time>2026-04-30T07:42:02.071Z</time></trkpt><trkpt lat="39.97787678782624" lon="9.186744876997205"><ele>564.0</ele><time>2026-04-30T07:42:03.071Z</time></trkpt><trkpt lat="39.97778437568467" lon="9.186637650151766"><ele>564.0</ele><time>2026-04-30T07:42:04.071Z</time></trkpt><trkpt lat="39.97765458804464" lon="9.18662684814992"><ele>564.0</ele><time>2026-04-30T07:42:05.071Z</time></trkpt><trkpt lat="39.97750339695672" lon="9.186704713508648"><ele>567.6666666666666</ele><time>2026-04-30T07:42:06.071Z</time></trkpt><trkpt lat="39.97735126516884" lon="9.18680133514839"><ele>571.3333333333333</ele><time>2026-04-30T07:42:07.071Z</time></trkpt><trkpt lat="39.97719621987156" lon="9.186854390193078"><ele>575.0</ele><time>2026-04-30T07:42:08.071Z</time></trkpt><trkpt lat="39.977014044774734" lon="9.186823422101662"><ele>575.0</ele><time>2026-04-30T07:42:09.071Z</time></trkpt><trkpt lat="39.97683397159434" lon="9.186737292533286"><ele>575.0</ele><time>2026-04-30T07:42:10.071Z</time></trkpt><trkpt lat="39.976652835266876" lon="9.186668370077403"><ele>575.0</ele><time>2026-04-30T07:42:11.071Z</time></trkpt><trkpt lat="39.976459465366304" lon="9.18663263928845"><ele>577.3333333333333</ele><time>2026-04-30T07:42:12.071Z</time></trkpt><trkpt lat="39.97625915611214" lon="9.186626204879499"><ele>579.6666666666666</ele><time>2026-04-30T07:42:13.071Z</time></trkpt><trkpt lat="39.9760780107226" lon="9.186671414544147"><ele>582.0</ele><time>2026-04-30T07:42:14.071Z</time></trkpt><trkpt lat="39.975902594681195" lon="9.186708131398905"><ele>583.3333333333334</ele><time>2026-04-30T07:42:15.071Z</time></trkpt><trkpt lat="39.97572598319949" lon="9.186679897890023"><ele>584.6666666666667</ele><time>2026-04-30T07:42:16.071Z</time></trkpt><trkpt lat="39.975558839821446" lon="9.186614792506058"><ele>586.0</ele><time>2026-04-30T07:42:17.071Z</time></trkpt><trkpt lat="39.97538162768898" lon="9.1865110269479"><ele>581.3333333333334</ele><time>2026-04-30T07:42:18.071Z</time></trkpt><trkpt lat="39.97520736442801" lon="9.186434319888082"><ele>576.6666666666666</ele><time>2026-04-30T07:42:19.071Z</time></trkpt><trkpt lat="39.97503037767497" lon="9.18639562137319"><ele>572.0</ele><time>2026-04-30T07:42:20.071Z</time></trkpt><trkpt lat="39.97485118918237" lon="9.186377082034372"><ele>572.0</ele><time>2026-04-30T07:42:21.071Z</time></trkpt><trkpt lat="39.974681897719925" lon="9.186373196533756"><ele>572.0</ele><time>2026-04-30T07:42:22.071Z</time></trkpt><trkpt lat="39.97450760355315" lon="9.186408876954607"><ele>572.0</ele><time>2026-04-30T07:42:23.071Z</time></trkpt><trkpt lat="39.974343827412774" lon="9.186492757505022"><ele>578.0</ele><time>2026-04-30T07:42:24.071Z</time></trkpt><trkpt lat="39.97418210285568" lon="9.186589537475434"><ele>584.0</ele><time>2026-04-30T07:42:25.071Z</time></trkpt><trkpt lat="39.97403310841517" lon="9.186681358493422"><ele>590.0</ele><time>2026-04-30T07:42:26.071Z</time></trkpt><trkpt lat="39.973893691222266" lon="9.186753784275426"><ele>590.0</ele><time>2026-04-30T07:42:27.071Z</time></trkpt><trkpt lat="39.973789155390484" lon="9.186818283020934"><ele>590.0</ele><time>2026-04-30T07:42:28.071Z</time></trkpt><trkpt lat="39.97372689742278" lon="9.186908485571482"><ele>590.0</ele><time>2026-04-30T07:42:29.071Z</time></trkpt><trkpt lat="39.97370680215978" lon="9.187023914930066"><ele>590.0</ele><time>2026-04-30T07:42:30.071Z</time></trkpt><trkpt lat="39.97368061642328" lon="9.187149150058737"><ele>590.0</ele><time>2026-04-30T07:42:31.071Z</time></trkpt><trkpt lat="39.97362238728987" lon="9.187227442731832"><ele>590.0</ele><time>2026-04-30T07:42:32.071Z</time></trkpt><trkpt lat="39.97355641692414" lon="9.187297378319242"><ele>590.0</ele><time>2026-04-30T07:42:33.071Z</time></trkpt><trkpt lat="39.973450443345364" lon="9.187259247348155"><ele>590.0</ele><time>2026-04-30T07:42:34.071Z</time></trkpt><trkpt lat="39.97336340718609" lon="9.187168340494262"><ele>590.0</ele><time>2026-04-30T07:42:35.071Z</time></trkpt><trkpt lat="39.97327292874841" lon="9.187084889449325"><ele>590.0</ele><time>2026-04-30T07:42:36.071Z</time></trkpt><trkpt lat="39.97315077968671" lon="9.187051072048932"><ele>588.6666666666666</ele><time>2026-04-30T07:42:37.071Z</time></trkpt><trkpt lat="39.97299969292721" lon="9.187050019380287"><ele>587.3333333333334</ele><time>2026-04-30T07:42:38.071Z</time></trkpt><trkpt lat="39.97283985904493" lon="9.187095095105699"><ele>586.0</ele><time>2026-04-30T07:42:39.071Z</time></trkpt><trkpt lat="39.972686025162254" lon="9.187171238907927"><ele>586.0</ele><time>2026-04-30T07:42:40.071Z</time></trkpt><trkpt lat="39.9725337477634" lon="9.187268450363971"><ele>586.0</ele><time>2026-04-30T07:42:41.071Z</time></trkpt><trkpt lat="39.97237097017" lon="9.187371106402011"><ele>586.0</ele><time>2026-04-30T07:42:42.071Z</time></trkpt><trkpt lat="39.97219699622614" lon="9.187476166622295"><ele>592.0</ele><time>2026-04-30T07:42:43.071Z</time></trkpt><trkpt lat="39.97203386360386" lon="9.187576853061318"><ele>598.0</ele><time>2026-04-30T07:42:44.071Z</time></trkpt><trkpt lat="39.97187938139535" lon="9.187678113815345"><ele>604.0</ele><time>2026-04-30T07:42:45.071Z</time></trkpt><trkpt lat="39.97173942783136" lon="9.187794554685984"><ele>604.6666666666667</ele><time>2026-04-30T07:42:46.071Z</time></trkpt><trkpt lat="39.97162924948472" lon="9.187949953509403"><ele>605.3333333333334</ele><time>2026-04-30T07:42:47.071Z</time></trkpt><trkpt lat="39.97154762762637" lon="9.18813330282298"><ele>606.0</ele><time>2026-04-30T07:42:48.071Z</time></trkpt><trkpt lat="39.971507067677976" lon="9.188340817023047"><ele>606.0</ele><time>2026-04-30T07:42:49.071Z</time></trkpt><trkpt lat="39.97150249205884" lon="9.18856474761831"><ele>606.0</ele><time>2026-04-30T07:42:50.071Z</time></trkpt><trkpt lat="39.97150175740324" lon="9.188803967367324"><ele>606.0</ele><time>2026-04-30T07:42:51.071Z</time></trkpt><trkpt lat="39.97150729062531" lon="9.189010163963244"><ele>608.75</ele><time>2026-04-30T07:42:52.071Z</time></trkpt><trkpt lat="39.97151632448198" lon="9.189201979178888"><ele>611.5</ele><time>2026-04-30T07:42:53.071Z</time></trkpt><trkpt lat="39.97148831212196" lon="9.189346465977149"><ele>614.25</ele><time>2026-04-30T07:42:54.071Z</time></trkpt><trkpt lat="39.97140317898073" lon="9.189420710809749"><ele>617.0</ele><time>2026-04-30T07:42:55.071Z</time></trkpt><trkpt lat="39.97129649024135" lon="9.189395135615788"><ele>617.0</ele><time>2026-04-30T07:42:56.071Z</time></trkpt><trkpt lat="39.97119941146496" lon="9.18928237558826"><ele>617.0</ele><time>2026-04-30T07:42:57.071Z</time></trkpt><trkpt lat="39.97110436990882" lon="9.189128261888103"><ele>617.0</ele><time>2026-04-30T07:42:58.071Z</time></trkpt><trkpt lat="39.971000436363475" lon="9.188984156412927"><ele>617.0</ele><time>2026-04-30T07:42:59.071Z</time></trkpt><trkpt lat="39.970885665861026" lon="9.188876614208203"><ele>615.6666666666666</ele><time>2026-04-30T07:43:00.071Z</time></trkpt><trkpt lat="39.970745107806216" lon="9.188860713135155"><ele>614.3333333333334</ele><time>2026-04-30T07:43:01.071Z</time></trkpt><trkpt lat="39.97059721038684" lon="9.188933076034028"><ele>613.0</ele><time>2026-04-30T07:43:02.071Z</time></trkpt><trkpt lat="39.97043667378173" lon="9.189033645298748"><ele>613.0</ele><time>2026-04-30T07:43:03.071Z</time></trkpt><trkpt lat="39.970273982420935" lon="9.18913955743179"><ele>613.0</ele><time>2026-04-30T07:43:04.071Z</time></trkpt><trkpt lat="39.9701128959482" lon="9.189233950207363"><ele>613.0</ele><time>2026-04-30T07:43:05.071Z</time></trkpt><trkpt lat="39.96995331700037" lon="9.1892856215124"><ele>612.6666666666667</ele><time>2026-04-30T07:43:06.071Z</time></trkpt><trkpt lat="39.969780111844244" lon="9.189278388688544"><ele>612.3333333333334</ele><time>2026-04-30T07:43:07.071Z</time></trkpt><trkpt lat="39.96959943841893" lon="9.18923971570053"><ele>612.0</ele><time>2026-04-30T07:43:08.071Z</time></trkpt><trkpt lat="39.96941424548108" lon="9.18920882648115"><ele>612.0</ele><time>2026-04-30T07:43:09.071Z</time></trkpt><trkpt lat="39.96924852196008" lon="9.189226747302376"><ele>612.0</ele><time>2026-04-30T07:43:10.071Z</time></trkpt><trkpt lat="39.96909103994016" lon="9.189281876638491"><ele>612.0</ele><time>2026-04-30T07:43:11.071Z</time></trkpt><trkpt lat="39.96893935326754" lon="9.18936821295699"><ele>612.3333333333334</ele><time>2026-04-30T07:43:12.071Z</time></trkpt><trkpt lat="39.968785932176644" lon="9.189473612474451"><ele>612.6666666666667</ele><time>2026-04-30T07:43:13.071Z</time></trkpt><trkpt lat="39.9686440238627" lon="9.18960291051143"><ele>613.0</ele><time>2026-04-30T07:43:14.071Z</time></trkpt><trkpt lat="39.96852231964955" lon="9.18975351249949"><ele>613.6666666666667</ele><time>2026-04-30T07:43:15.071Z</time></trkpt><trkpt lat="39.96838458640728" lon="9.189893134124327"><ele>614.3333333333334</ele><time>2026-04-30T07:43:16.071Z</time></trkpt><trkpt lat="39.96826022470675" lon="9.190027269191956"><ele>615.0</ele><time>2026-04-30T07:43:17.071Z</time></trkpt><trkpt lat="39.968183307661135" lon="9.190158290257724"><ele>615.0</ele><time>2026-04-30T07:43:18.071Z</time></trkpt><trkpt lat="39.96810069337362" lon="9.190254222988044"><ele>615.0</ele><time>2026-04-30T07:43:19.071Z</time></trkpt><trkpt lat="39.96794429621977" lon="9.19031791180458"><ele>615.0</ele><time>2026-04-30T07:43:20.071Z</time></trkpt><trkpt lat="39.96775269577455" lon="9.19029281940281"><ele>615.0</ele><time>2026-04-30T07:43:21.071Z</time></trkpt><trkpt lat="39.96782408028309" lon="9.190654931748119"><ele>615.0</ele><time>2026-04-30T07:43:22.071Z</time></trkpt><trkpt lat="39.96768325816332" lon="9.190522395374655"><ele>615.0</ele><time>2026-04-30T07:43:23.071Z</time></trkpt><trkpt lat="39.96756454721056" lon="9.190343156252862"><ele>615.0</ele><time>2026-04-30T07:43:24.071Z</time></trkpt><trkpt lat="39.967442641497556" lon="9.190182335221843"><ele>615.0</ele><time>2026-04-30T07:43:25.071Z</time></trkpt><trkpt lat="39.967310995360926" lon="9.190055667231556"><ele>616.6666666666666</ele><time>2026-04-30T07:43:26.071Z</time></trkpt><trkpt lat="39.96713711114887" lon="9.190019501514525"><ele>618.3333333333333</ele><time>2026-04-30T07:43:27.071Z</time></trkpt><trkpt lat="39.96695257429285" lon="9.190006094048021"><ele>620.0</ele><time>2026-04-30T07:43:28.071Z</time></trkpt><trkpt lat="39.96678975605846" lon="9.189899548763718"><ele>622.6666666666666</ele><time>2026-04-30T07:43:29.071Z</time></trkpt><trkpt lat="39.96664942903363" lon="9.18973477933283"><ele>625.3333333333334</ele><time>2026-04-30T07:43:30.071Z</time></trkpt><trkpt lat="39.966496345843126" lon="9.189598624516272"><ele>628.0</ele><time>2026-04-30T07:43:31.071Z</time></trkpt><trkpt lat="39.96631535952387" lon="9.189535889605668"><ele>628.0</ele><time>2026-04-30T07:43:32.072Z</time></trkpt><trkpt lat="39.9661262644544" lon="9.189542117747154"><ele>628.0</ele><time>2026-04-30T07:43:33.072Z</time></trkpt><trkpt lat="39.96597112424199" lon="9.189531468517677"><ele>628.0</ele><time>2026-04-30T07:43:34.072Z</time></trkpt><trkpt lat="39.96586112336329" lon="9.189494929204075"><ele>628.0</ele><time>2026-04-30T07:43:35.072Z</time></trkpt><trkpt lat="39.96579689684153" lon="9.189398503260522"><ele>628.0</ele><time>2026-04-30T07:43:36.072Z</time></trkpt><trkpt lat="39.96581313539104" lon="9.18925443383893"><ele>628.0</ele><time>2026-04-30T07:43:37.072Z</time></trkpt><trkpt lat="39.96591946524384" lon="9.189141585079994"><ele>628.0</ele><time>2026-04-30T07:43:38.072Z</time></trkpt><trkpt lat="39.96606669217758" lon="9.189070489377258"><ele>633.3333333333334</ele><time>2026-04-30T07:43:39.074Z</time></trkpt><trkpt lat="39.96622297306961" lon="9.189003441442445"><ele>638.6666666666666</ele><time>2026-04-30T07:43:40.073Z</time></trkpt><trkpt lat="39.96641591500243" lon="9.188954557443347"><ele>644.0</ele><time>2026-04-30T07:43:41.073Z</time></trkpt><trkpt lat="39.96658795960841" lon="9.188909644427088"><ele>637.6666666666666</ele><time>2026-04-30T07:43:42.073Z</time></trkpt><trkpt lat="39.96673478751469" lon="9.18883621075127"><ele>631.3333333333334</ele><time>2026-04-30T07:43:43.073Z</time></trkpt><trkpt lat="39.966841119165494" lon="9.188699102123376"><ele>625.0</ele><time>2026-04-30T07:43:44.073Z</time></trkpt><trkpt lat="39.96689048844934" lon="9.188495466649217"><ele>625.0</ele><time>2026-04-30T07:43:45.074Z</time></trkpt><trkpt lat="39.96693820122499" lon="9.188301350302906"><ele>625.0</ele><time>2026-04-30T07:43:46.073Z</time></trkpt><trkpt lat="39.967071585734" lon="9.188145673015184"><ele>625.0</ele><time>2026-04-30T07:43:47.073Z</time></trkpt><trkpt lat="39.96723625298983" lon="9.188023618914434"><ele>621.6666666666667</ele><time>2026-04-30T07:43:48.074Z</time></trkpt><trkpt lat="39.96741683294212" lon="9.187927339307628"><ele>618.3333333333334</ele><time>2026-04-30T07:43:49.073Z</time></trkpt><trkpt lat="39.96756692100756" lon="9.187782498160988"><ele>615.0</ele><time>2026-04-30T07:43:50.073Z</time></trkpt><trkpt lat="39.967681445162015" lon="9.187585331925465"><ele>615.0</ele><time>2026-04-30T07:43:51.074Z</time></trkpt><trkpt lat="39.96774214072364" lon="9.18735580033884"><ele>615.0</ele><time>2026-04-30T07:43:52.073Z</time></trkpt><trkpt lat="39.9677994383655" lon="9.187125478898135"><ele>615.0</ele><time>2026-04-30T07:43:53.073Z</time></trkpt><trkpt lat="39.96784441775488" lon="9.186938984194638"><ele>616.0</ele><time>2026-04-30T07:43:54.073Z</time></trkpt><trkpt lat="39.96781838270716" lon="9.186771732397796"><ele>617.0</ele><time>2026-04-30T07:43:55.073Z</time></trkpt><trkpt lat="39.96771032248927" lon="9.186647646466874"><ele>618.0</ele><time>2026-04-30T07:43:56.073Z</time></trkpt><trkpt lat="39.96756198886599" lon="9.186622217413339"><ele>619.0</ele><time>2026-04-30T07:43:57.073Z</time></trkpt><trkpt lat="39.96739057672611" lon="9.18669603229247"><ele>623.25</ele><time>2026-04-30T07:43:58.073Z</time></trkpt><trkpt lat="39.96722652751353" lon="9.186782148796016"><ele>627.5</ele><time>2026-04-30T07:43:59.073Z</time></trkpt><trkpt lat="39.96709364909003" lon="9.186792885072355"><ele>631.75</ele><time>2026-04-30T07:44:00.073Z</time></trkpt><trkpt lat="39.96699425103747" lon="9.186729144200111"><ele>636.0</ele><time>2026-04-30T07:44:01.073Z</time></trkpt><trkpt lat="39.96694815080857" lon="9.186589769075653"><ele>634.75</ele><time>2026-04-30T07:44:02.073Z</time></trkpt><trkpt lat="39.96697475033261" lon="9.186410105655323"><ele>633.5</ele><time>2026-04-30T07:44:03.073Z</time></trkpt><trkpt lat="39.967010523497834" lon="9.186250261103279"><ele>632.25</ele><time>2026-04-30T07:44:04.073Z</time></trkpt><trkpt lat="39.966980751889395" lon="9.186101996011242"><ele>631.0</ele><time>2026-04-30T07:44:05.073Z</time></trkpt><trkpt lat="39.966912258229534" lon="9.185963977679648"><ele>631.0</ele><time>2026-04-30T07:44:06.073Z</time></trkpt><trkpt lat="39.966836357550335" lon="9.185829767928249"><ele>631.0</ele><time>2026-04-30T07:44:07.073Z</time></trkpt><trkpt lat="39.96673325557146" lon="9.185721397420139"><ele>631.0</ele><time>2026-04-30T07:44:08.074Z</time></trkpt><trkpt lat="39.96664029289989" lon="9.185605917232953"><ele>631.0</ele><time>2026-04-30T07:44:09.074Z</time></trkpt><trkpt lat="39.966595115838764" lon="9.185451206004581"><ele>631.75</ele><time>2026-04-30T07:44:10.074Z</time></trkpt><trkpt lat="39.96656812632051" lon="9.185279715979808"><ele>632.5</ele><time>2026-04-30T07:44:11.074Z</time></trkpt><trkpt lat="39.96651615433412" lon="9.185105322869475"><ele>633.25</ele><time>2026-04-30T07:44:12.074Z</time></trkpt><trkpt lat="39.966436819306224" lon="9.184951370158155"><ele>634.0</ele><time>2026-04-30T07:44:13.074Z</time></trkpt><trkpt lat="39.96635765951088" lon="9.18480189254577"><ele>634.0</ele><time>2026-04-30T07:44:14.074Z</time></trkpt><trkpt lat="39.966277752228336" lon="9.184656980341382"><ele>634.0</ele><time>2026-04-30T07:44:15.074Z</time></trkpt><trkpt lat="39.966186790630836" lon="9.184532643687682"><ele>634.0</ele><time>2026-04-30T07:44:16.074Z</time></trkpt><trkpt lat="39.966071301095" lon="9.184425172310709"><ele>634.0</ele><time>2026-04-30T07:44:17.074Z</time></trkpt><trkpt lat="39.96594161897124" lon="9.184350075838166"><ele>636.75</ele><time>2026-04-30T07:44:18.074Z</time></trkpt><trkpt lat="39.96580836324703" lon="9.184276157921643"><ele>639.5</ele><time>2026-04-30T07:44:19.074Z</time></trkpt><trkpt lat="39.9656879227183" lon="9.184214630570219"><ele>642.25</ele><time>2026-04-30T07:44:20.074Z</time></trkpt><trkpt lat="39.96555700100252" lon="9.184179834325311"><ele>645.0</ele><time>2026-04-30T07:44:21.074Z</time></trkpt><trkpt lat="39.9654279375831" lon="9.184200770994783"><ele>645.0</ele><time>2026-04-30T07:44:22.074Z</time></trkpt><trkpt lat="39.96530135292412" lon="9.184267459295711"><ele>645.0</ele><time>2026-04-30T07:44:23.074Z</time></trkpt><trkpt lat="39.965172620198224" lon="9.184326274202405"><ele>645.0</ele><time>2026-04-30T07:44:24.074Z</time></trkpt><trkpt lat="39.96504147609865" lon="9.184351579369858"><ele>645.0</ele><time>2026-04-30T07:44:25.074Z</time></trkpt><trkpt lat="39.96489882715261" lon="9.184345011880195"><ele>646.5</ele><time>2026-04-30T07:44:26.074Z</time></trkpt><trkpt lat="39.96477316354226" lon="9.1842942741627"><ele>648.0</ele><time>2026-04-30T07:44:27.074Z</time></trkpt><trkpt lat="39.96465899925654" lon="9.184242723907138"><ele>649.5</ele><time>2026-04-30T07:44:28.074Z</time></trkpt><trkpt lat="39.96454209562587" lon="9.184247172579703"><ele>651.0</ele><time>2026-04-30T07:44:29.074Z</time></trkpt><trkpt lat="39.964437900118405" lon="9.18430100782416"><ele>651.0</ele><time>2026-04-30T07:44:30.074Z</time></trkpt><trkpt lat="39.964344037438096" lon="9.184361118889642"><ele>651.0</ele><time>2026-04-30T07:44:31.074Z</time></trkpt><trkpt lat="39.96424644590455" lon="9.18438510392753"><ele>651.0</ele><time>2026-04-30T07:44:32.074Z</time></trkpt><trkpt lat="39.96415066491791" lon="9.184368015453275"><ele>651.0</ele><time>2026-04-30T07:44:33.074Z</time></trkpt><trkpt lat="39.96405376902194" lon="9.184330136444759"><ele>651.0</ele><time>2026-04-30T07:44:34.074Z</time></trkpt><trkpt lat="39.96397017360976" lon="9.184301109872088"><ele>652.0</ele><time>2026-04-30T07:44:35.074Z</time></trkpt><trkpt lat="39.96389115799213" lon="9.184292357771195"><ele>652.0</ele><time>2026-04-30T07:44:36.074Z</time></trkpt><trkpt lat="39.96380459382084" lon="9.184302761599051"><ele>652.0</ele><time>2026-04-30T07:44:37.074Z</time></trkpt><trkpt lat="39.96373700071845" lon="9.184317628734098"><ele>652.0</ele><time>2026-04-30T07:44:38.074Z</time></trkpt><trkpt lat="39.96365399469675" lon="9.184317358602101"><ele>652.0</ele><time>2026-04-30T07:44:40.074Z</time></trkpt><trkpt lat="39.963590240739826" lon="9.184302594210385"><ele>652.0</ele><time>2026-04-30T07:44:43.074Z</time></trkpt></trkseg><trkseg><trkpt lat="39.96350357551428" lon="9.184350135331403"><ele>652.0</ele><time>2026-04-30T08:06:56.097Z</time></trkpt><trkpt lat="39.96338430594509" lon="9.184375381489607"><ele>652.0</ele><time>2026-04-30T08:06:58.097Z</time></trkpt><trkpt lat="39.96328160791188" lon="9.184393895972041"><ele>652.0</ele><time>2026-04-30T08:07:00.097Z</time></trkpt><trkpt lat="39.96316733421149" lon="9.18446392236169"><ele>652.0</ele><time>2026-04-30T08:07:02.097Z</time></trkpt><trkpt lat="39.96311778082689" lon="9.184517287308722"><ele>652.0</ele><time>2026-04-30T08:07:03.097Z</time></trkpt><trkpt lat="39.96305154683946" lon="9.18459056500728"><ele>651.6666666666667</ele><time>2026-04-30T08:07:04.097Z</time></trkpt><trkpt lat="39.962988185462876" lon="9.184669741611529"><ele>651.3333333333334</ele><time>2026-04-30T08:07:05.097Z</time></trkpt><trkpt lat="39.96293899405216" lon="9.184725299334545"><ele>651.0</ele><time>2026-04-30T08:07:06.097Z</time></trkpt><trkpt lat="39.962875676920916" lon="9.18479133968217"><ele>650.6666666666666</ele><time>2026-04-30T08:07:07.097Z</time></trkpt><trkpt lat="39.96281024766253" lon="9.184847497250779"><ele>650.3333333333333</ele><time>2026-04-30T08:07:08.097Z</time></trkpt><trkpt lat="39.96269540658736" lon="9.18488563607987"><ele>650.0</ele><time>2026-04-30T08:07:10.097Z</time></trkpt><trkpt lat="39.96261070363134" lon="9.184908909955956"><ele>653.2</ele><time>2026-04-30T08:07:11.097Z</time></trkpt><trkpt lat="39.962519337659856" lon="9.18493976917829"><ele>656.4</ele><time>2026-04-30T08:07:12.097Z</time></trkpt><trkpt lat="39.962399011844006" lon="9.184958665552118"><ele>659.5999999999999</ele><time>2026-04-30T08:07:13.097Z</time></trkpt><trkpt lat="39.96228413941075" lon="9.184959875843797"><ele>662.8</ele><time>2026-04-30T08:07:14.097Z</time></trkpt><trkpt lat="39.9621712227031" lon="9.184971998856291"><ele>666.0</ele><time>2026-04-30T08:07:15.097Z</time></trkpt><trkpt lat="39.962055434260925" lon="9.184969888864812"><ele>666.0</ele><time>2026-04-30T08:07:16.097Z</time></trkpt><trkpt lat="39.96195173501846" lon="9.184967892347396"><ele>666.0</ele><time>2026-04-30T08:07:17.097Z</time></trkpt><trkpt lat="39.961865214524" lon="9.184978153872931"><ele>666.0</ele><time>2026-04-30T08:07:18.097Z</time></trkpt><trkpt lat="39.96179023366617" lon="9.184970797981471"><ele>666.0</ele><time>2026-04-30T08:07:19.097Z</time></trkpt><trkpt lat="39.96171942275815" lon="9.184968648229603"><ele>666.0</ele><time>2026-04-30T08:07:20.097Z</time></trkpt><trkpt lat="39.961648656132795" lon="9.18494736796855"><ele>666.0</ele><time>2026-04-30T08:07:21.098Z</time></trkpt><trkpt lat="39.96154238793184" lon="9.184869613892817"><ele>663.5</ele><time>2026-04-30T08:07:23.098Z</time></trkpt><trkpt lat="39.9614340909216" lon="9.184811354395716"><ele>661.0</ele><time>2026-04-30T08:07:25.098Z</time></trkpt><trkpt lat="39.96137074837915" lon="9.184767584336173"><ele>658.5</ele><time>2026-04-30T08:07:26.098Z</time></trkpt><trkpt lat="39.96131635157556" lon="9.184725082926375"><ele>656.0</ele><time>2026-04-30T08:07:27.098Z</time></trkpt><trkpt lat="39.961198734685524" lon="9.18466112860404"><ele>653.5</ele><time>2026-04-30T08:07:29.098Z</time></trkpt><trkpt lat="39.96113338140252" lon="9.18463293419855"><ele>651.0</ele><time>2026-04-30T08:07:30.098Z</time></trkpt><trkpt lat="39.96101813551886" lon="9.184569285646768"><ele>651.0</ele><time>2026-04-30T08:07:32.098Z</time></trkpt><trkpt lat="39.960912451875664" lon="9.184503829588436"><ele>651.0</ele><time>2026-04-30T08:07:34.098Z</time></trkpt><trkpt lat="39.960849400645806" lon="9.184470987123776"><ele>651.0</ele><time>2026-04-30T08:07:35.098Z</time></trkpt><trkpt lat="39.96072971221009" lon="9.184416702618426"><ele>651.0</ele><time>2026-04-30T08:07:37.098Z</time></trkpt><trkpt lat="39.9606207743093" lon="9.184377686413931"><ele>651.0</ele><time>2026-04-30T08:07:39.098Z</time></trkpt><trkpt lat="39.96050338858884" lon="9.184374602189964"><ele>653.1999999999999</ele><time>2026-04-30T08:07:41.098Z</time></trkpt><trkpt lat="39.960436530762024" lon="9.184368408340433"><ele>655.4</ele><time>2026-04-30T08:07:42.098Z</time></trkpt><trkpt lat="39.960318383840864" lon="9.184345666170444"><ele>657.6</ele><time>2026-04-30T08:07:44.098Z</time></trkpt><trkpt lat="39.960224260064194" lon="9.184273147082989"><ele>659.8</ele><time>2026-04-30T08:07:46.098Z</time></trkpt><trkpt lat="39.96016681111818" lon="9.18420729828984"><ele>662.0</ele><time>2026-04-30T08:07:48.098Z</time></trkpt><trkpt lat="39.96011604340516" lon="9.184130416756297"><ele>662.0</ele><time>2026-04-30T08:07:49.098Z</time></trkpt><trkpt lat="39.96007392852825" lon="9.18406264330408"><ele>662.0</ele><time>2026-04-30T08:07:50.098Z</time></trkpt><trkpt lat="39.96002901214593" lon="9.18399410607154"><ele>662.0</ele><time>2026-04-30T08:07:51.098Z</time></trkpt><trkpt lat="39.959985411563174" lon="9.1839317266652"><ele>662.0</ele><time>2026-04-30T08:07:52.098Z</time></trkpt><trkpt lat="39.95994657014863" lon="9.183857384315486"><ele>662.0</ele><time>2026-04-30T08:07:53.098Z</time></trkpt><trkpt lat="39.95989386617781" lon="9.183791506506788"><ele>662.0</ele><time>2026-04-30T08:07:54.098Z</time></trkpt><trkpt lat="39.959829704906355" lon="9.183747671765193"><ele>662.0</ele><time>2026-04-30T08:07:55.098Z</time></trkpt><trkpt lat="39.95976475294381" lon="9.18370804831004"><ele>661.8333333333333</ele><time>2026-04-30T08:07:56.098Z</time></trkpt><trkpt lat="39.95970263596115" lon="9.183676677388338"><ele>661.6666666666666</ele><time>2026-04-30T08:07:57.098Z</time></trkpt><trkpt lat="39.95962396953365" lon="9.183640329304376"><ele>661.5</ele><time>2026-04-30T08:07:58.098Z</time></trkpt><trkpt lat="39.959551988812315" lon="9.183597824148743"><ele>661.3333333333334</ele><time>2026-04-30T08:07:59.098Z</time></trkpt><trkpt lat="39.95948082321644" lon="9.183566086906717"><ele>661.1666666666667</ele><time>2026-04-30T08:08:00.098Z</time></trkpt><trkpt lat="39.959410133110794" lon="9.183534178356274"><ele>661.0</ele><time>2026-04-30T08:08:01.098Z</time></trkpt><trkpt lat="39.959339559132296" lon="9.183487682839262"><ele>661.0</ele><time>2026-04-30T08:08:02.098Z</time></trkpt><trkpt lat="39.959274203188" lon="9.18343856280317"><ele>661.0</ele><time>2026-04-30T08:08:03.098Z</time></trkpt><trkpt lat="39.95920637093088" lon="9.183387680563149"><ele>661.0</ele><time>2026-04-30T08:08:04.098Z</time></trkpt><trkpt lat="39.95912716610928" lon="9.183353211184855"><ele>661.0</ele><time>2026-04-30T08:08:05.098Z</time></trkpt><trkpt lat="39.95904355484674" lon="9.183338595126186"><ele>661.0</ele><time>2026-04-30T08:08:06.098Z</time></trkpt><trkpt lat="39.95896022099698" lon="9.183356921765709"><ele>661.0</ele><time>2026-04-30T08:08:07.098Z</time></trkpt><trkpt lat="39.95886444534839" lon="9.183371051209875"><ele>663.3333333333334</ele><time>2026-04-30T08:08:08.098Z</time></trkpt><trkpt lat="39.958777210622856" lon="9.183356678262115"><ele>665.6666666666667</ele><time>2026-04-30T08:08:09.098Z</time></trkpt><trkpt lat="39.95870529030218" lon="9.183328502015742"><ele>668.0</ele><time>2026-04-30T08:08:10.098Z</time></trkpt><trkpt lat="39.958622906510776" lon="9.183310074258571"><ele>670.3333333333334</ele><time>2026-04-30T08:08:11.098Z</time></trkpt><trkpt lat="39.958553466608514" lon="9.183285060388762"><ele>672.6666666666666</ele><time>2026-04-30T08:08:12.098Z</time></trkpt><trkpt lat="39.95849070071954" lon="9.183260465560037"><ele>675.0</ele><time>2026-04-30T08:08:13.098Z</time></trkpt><trkpt lat="39.958425871197505" lon="9.18324081705162"><ele>675.0</ele><time>2026-04-30T08:08:14.098Z</time></trkpt><trkpt lat="39.95836859071988" lon="9.183201890311182"><ele>675.0</ele><time>2026-04-30T08:08:15.098Z</time></trkpt><trkpt lat="39.95830506028821" lon="9.183149630295683"><ele>675.0</ele><time>2026-04-30T08:08:16.098Z</time></trkpt><trkpt lat="39.95825058475613" lon="9.183080188308871"><ele>675.0</ele><time>2026-04-30T08:08:17.098Z</time></trkpt><trkpt lat="39.95819218078341" lon="9.183018732027206"><ele>675.0</ele><time>2026-04-30T08:08:18.098Z</time></trkpt><trkpt lat="39.958143201564425" lon="9.182943049343265"><ele>675.0</ele><time>2026-04-30T08:08:19.098Z</time></trkpt><trkpt lat="39.95809062357669" lon="9.182874237522878"><ele>675.0</ele><time>2026-04-30T08:08:20.098Z</time></trkpt><trkpt lat="39.958031191192276" lon="9.182816202595218"><ele>674.6666666666666</ele><time>2026-04-30T08:08:21.098Z</time></trkpt><trkpt lat="39.957978426163095" lon="9.182764030453344"><ele>674.3333333333334</ele><time>2026-04-30T08:08:22.098Z</time></trkpt><trkpt lat="39.95791465411733" lon="9.18269882605203"><ele>674.0</ele><time>2026-04-30T08:08:23.098Z</time></trkpt><trkpt lat="39.95786421184247" lon="9.182648227275441"><ele>673.6666666666667</ele><time>2026-04-30T08:08:24.098Z</time></trkpt><trkpt lat="39.9577837262735" lon="9.182560208025107"><ele>673.3333333333334</ele><time>2026-04-30T08:08:26.098Z</time></trkpt><trkpt lat="39.957713492831644" lon="9.18244119143806"><ele>673.0</ele><time>2026-04-30T08:08:28.098Z</time></trkpt><trkpt lat="39.95767884205703" lon="9.182347739067314"><ele>671.1666666666667</ele><time>2026-04-30T08:08:29.098Z</time></trkpt><trkpt lat="39.95765001862848" lon="9.182252628477782"><ele>669.3333333333334</ele><time>2026-04-30T08:08:30.098Z</time></trkpt><trkpt lat="39.95762120844424" lon="9.18215620173071"><ele>667.5</ele><time>2026-04-30T08:08:31.098Z</time></trkpt><trkpt lat="39.95757876261974" lon="9.1820708882838"><ele>665.6666666666666</ele><time>2026-04-30T08:08:32.098Z</time></trkpt><trkpt lat="39.95752055815424" lon="9.18198843215607"><ele>663.8333333333333</ele><time>2026-04-30T08:08:33.098Z</time></trkpt><trkpt lat="39.95744210652066" lon="9.181915089158975"><ele>662.0</ele><time>2026-04-30T08:08:34.098Z</time></trkpt><trkpt lat="39.95733943984991" lon="9.181854375818927"><ele>667.0</ele><time>2026-04-30T08:08:35.098Z</time></trkpt><trkpt lat="39.957233963846555" lon="9.18184426979916"><ele>672.0</ele><time>2026-04-30T08:08:36.098Z</time></trkpt><trkpt lat="39.95714155352782" lon="9.181878420530644"><ele>677.0</ele><time>2026-04-30T08:08:37.098Z</time></trkpt><trkpt lat="39.957048806219824" lon="9.181942253848923"><ele>682.0</ele><time>2026-04-30T08:08:38.098Z</time></trkpt><trkpt lat="39.95696053449429" lon="9.182009509173369"><ele>687.0</ele><time>2026-04-30T08:08:39.098Z</time></trkpt><trkpt lat="39.95686883199277" lon="9.18208239680122"><ele>687.0</ele><time>2026-04-30T08:08:40.098Z</time></trkpt><trkpt lat="39.95677624807225" lon="9.182159949328108"><ele>687.0</ele><time>2026-04-30T08:08:41.098Z</time></trkpt><trkpt lat="39.956684520772605" lon="9.182235529772143"><ele>687.0</ele><time>2026-04-30T08:08:42.098Z</time></trkpt><trkpt lat="39.956590326255665" lon="9.182325801847316"><ele>687.0</ele><time>2026-04-30T08:08:43.098Z</time></trkpt><trkpt lat="39.95650690382362" lon="9.182444242920313"><ele>690.0</ele><time>2026-04-30T08:08:44.098Z</time></trkpt><trkpt lat="39.956452644430136" lon="9.18258923444595"><ele>693.0</ele><time>2026-04-30T08:08:45.098Z</time></trkpt><trkpt lat="39.956453304088" lon="9.182733676216108"><ele>696.0</ele><time>2026-04-30T08:08:46.098Z</time></trkpt><trkpt lat="39.95649204268117" lon="9.182889832039143"><ele>699.0</ele><time>2026-04-30T08:08:47.098Z</time></trkpt><trkpt lat="39.95653113308356" lon="9.183028095951466"><ele>701.0</ele><time>2026-04-30T08:08:48.098Z</time></trkpt><trkpt lat="39.95655594714831" lon="9.1832091645341"><ele>703.0</ele><time>2026-04-30T08:08:49.098Z</time></trkpt><trkpt lat="39.95654925168484" lon="9.183406407476566"><ele>705.0</ele><time>2026-04-30T08:08:50.098Z</time></trkpt><trkpt lat="39.95653127252408" lon="9.18358711356039"><ele>707.0</ele><time>2026-04-30T08:08:51.098Z</time></trkpt><trkpt lat="39.95649018405283" lon="9.183745361382535"><ele>707.0</ele><time>2026-04-30T08:08:52.098Z</time></trkpt><trkpt lat="39.95640866720206" lon="9.183880594942247"><ele>707.0</ele><time>2026-04-30T08:08:53.098Z</time></trkpt><trkpt lat="39.956289231545746" lon="9.184000322593223"><ele>707.0</ele><time>2026-04-30T08:08:54.098Z</time></trkpt><trkpt lat="39.95615834665028" lon="9.184107987247142"><ele>707.0</ele><time>2026-04-30T08:08:55.098Z</time></trkpt><trkpt lat="39.95606564986859" lon="9.184230948224863"><ele>711.0</ele><time>2026-04-30T08:08:56.098Z</time></trkpt><trkpt lat="39.95599497817414" lon="9.18441228014637"><ele>715.0</ele><time>2026-04-30T08:08:57.098Z</time></trkpt><trkpt lat="39.95595351699596" lon="9.184594299070502"><ele>719.0</ele><time>2026-04-30T08:08:58.098Z</time></trkpt><trkpt lat="39.95596003599878" lon="9.18480526349159"><ele>723.6666666666666</ele><time>2026-04-30T08:08:59.098Z</time></trkpt><trkpt lat="39.956011328425554" lon="9.18502463856825"><ele>728.3333333333334</ele><time>2026-04-30T08:09:00.098Z</time></trkpt><trkpt lat="39.95603442576995" lon="9.185261920153756"><ele>733.0</ele><time>2026-04-30T08:09:01.098Z</time></trkpt><trkpt lat="39.956025679385604" lon="9.185474557382445"><ele>733.0</ele><time>2026-04-30T08:09:02.098Z</time></trkpt><trkpt lat="39.956042357313656" lon="9.185653783172832"><ele>733.0</ele><time>2026-04-30T08:09:03.098Z</time></trkpt><trkpt lat="39.95610401841646" lon="9.185845467865734"><ele>733.0</ele><time>2026-04-30T08:09:04.098Z</time></trkpt><trkpt lat="39.95616962007103" lon="9.186022471281866"><ele>733.0</ele><time>2026-04-30T08:09:05.098Z</time></trkpt><trkpt lat="39.95618103740131" lon="9.186182139947048"><ele>735.3333333333334</ele><time>2026-04-30T08:09:06.098Z</time></trkpt><trkpt lat="39.95614827364051" lon="9.186353176451682"><ele>737.6666666666666</ele><time>2026-04-30T08:09:07.098Z</time></trkpt><trkpt lat="39.95608975535462" lon="9.186541763921955"><ele>740.0</ele><time>2026-04-30T08:09:08.098Z</time></trkpt><trkpt lat="39.95603432102781" lon="9.18675174901524"><ele>740.6666666666666</ele><time>2026-04-30T08:09:09.098Z</time></trkpt><trkpt lat="39.95600343886709" lon="9.186954958071297"><ele>741.3333333333334</ele><time>2026-04-30T08:09:10.098Z</time></trkpt><trkpt lat="39.95600750624327" lon="9.187169426682946"><ele>742.0</ele><time>2026-04-30T08:09:11.098Z</time></trkpt><trkpt lat="39.95604277945544" lon="9.187384329865612"><ele>742.6666666666667</ele><time>2026-04-30T08:09:12.098Z</time></trkpt><trkpt lat="39.95612046542609" lon="9.187622938559752"><ele>743.3333333333334</ele><time>2026-04-30T08:09:13.098Z</time></trkpt><trkpt lat="39.95618155053709" lon="9.187855897130119"><ele>744.0</ele><time>2026-04-30T08:09:14.098Z</time></trkpt><trkpt lat="39.95623074649272" lon="9.188064416778694"><ele>744.0</ele><time>2026-04-30T08:09:15.098Z</time></trkpt><trkpt lat="39.9562611032229" lon="9.18825077713386"><ele>744.0</ele><time>2026-04-30T08:09:16.098Z</time></trkpt><trkpt lat="39.95628592955147" lon="9.188433360555551"><ele>744.0</ele><time>2026-04-30T08:09:17.098Z</time></trkpt><trkpt lat="39.95630840378536" lon="9.18862618532369"><ele>744.0</ele><time>2026-04-30T08:09:18.098Z</time></trkpt><trkpt lat="39.956318994587654" lon="9.188832295143273"><ele>744.0</ele><time>2026-04-30T08:09:19.098Z</time></trkpt><trkpt lat="39.95631662710962" lon="9.18904453476627"><ele>744.0</ele><time>2026-04-30T08:09:20.098Z</time></trkpt><trkpt lat="39.95631798722448" lon="9.18923771445732"><ele>744.0</ele><time>2026-04-30T08:09:21.098Z</time></trkpt><trkpt lat="39.95632694008242" lon="9.1894457901964"><ele>744.0</ele><time>2026-04-30T08:09:22.098Z</time></trkpt><trkpt lat="39.95635873732651" lon="9.189656299309414"><ele>744.0</ele><time>2026-04-30T08:09:23.098Z</time></trkpt><trkpt lat="39.95641557770351" lon="9.189869608247246"><ele>744.0</ele><time>2026-04-30T08:09:24.098Z</time></trkpt><trkpt lat="39.95645749612348" lon="9.190065880880157"><ele>744.0</ele><time>2026-04-30T08:09:25.098Z</time></trkpt><trkpt lat="39.95647423620508" lon="9.190243316893334"><ele>744.0</ele><time>2026-04-30T08:09:26.098Z</time></trkpt><trkpt lat="39.956487412149976" lon="9.190393638111622"><ele>744.0</ele><time>2026-04-30T08:09:27.098Z</time></trkpt><trkpt lat="39.95653477711652" lon="9.190524853729816"><ele>744.0</ele><time>2026-04-30T08:09:28.098Z</time></trkpt><trkpt lat="39.95661266693091" lon="9.190637525171669"><ele>743.0</ele><time>2026-04-30T08:09:29.098Z</time></trkpt><trkpt lat="39.95666811932283" lon="9.19075139987574"><ele>742.0</ele><time>2026-04-30T08:09:30.098Z</time></trkpt><trkpt lat="39.95666759122469" lon="9.190881113881446"><ele>741.0</ele><time>2026-04-30T08:09:31.098Z</time></trkpt><trkpt lat="39.956645755978215" lon="9.1910112751405"><ele>740.0</ele><time>2026-04-30T08:09:32.098Z</time></trkpt><trkpt lat="39.956594028040556" lon="9.191161276887861"><ele>739.0</ele><time>2026-04-30T08:09:33.098Z</time></trkpt><trkpt lat="39.95657311020097" lon="9.191328352771317"><ele>739.0</ele><time>2026-04-30T08:09:34.098Z</time></trkpt><trkpt lat="39.95660402544992" lon="9.191485648922486"><ele>739.0</ele><time>2026-04-30T08:09:35.098Z</time></trkpt><trkpt lat="39.956668598326175" lon="9.191616360101827"><ele>739.0</ele><time>2026-04-30T08:09:36.098Z</time></trkpt><trkpt lat="39.95677744512784" lon="9.191706272828295"><ele>739.0</ele><time>2026-04-30T08:09:37.098Z</time></trkpt><trkpt lat="39.95691830276717" lon="9.191770283251826"><ele>746.3333333333334</ele><time>2026-04-30T08:09:38.098Z</time></trkpt><trkpt lat="39.957055709446045" lon="9.191858370204347"><ele>753.6666666666666</ele><time>2026-04-30T08:09:39.098Z</time></trkpt><trkpt lat="39.95716172904638" lon="9.191989650203256"><ele>761.0</ele><time>2026-04-30T08:09:40.098Z</time></trkpt><trkpt lat="39.95724936218902" lon="9.192173418937424"><ele>758.6666666666666</ele><time>2026-04-30T08:09:41.098Z</time></trkpt><trkpt lat="39.957300492069905" lon="9.192411662252562"><ele>756.3333333333334</ele><time>2026-04-30T08:09:42.098Z</time></trkpt><trkpt lat="39.95737013009345" lon="9.192653435066546"><ele>754.0</ele><time>2026-04-30T08:09:43.098Z</time></trkpt><trkpt lat="39.95743589919799" lon="9.192855425992025"><ele>754.0</ele><time>2026-04-30T08:09:44.098Z</time></trkpt><trkpt lat="39.957500707705506" lon="9.193037225242433"><ele>754.0</ele><time>2026-04-30T08:09:45.098Z</time></trkpt><trkpt lat="39.95758528044234" lon="9.193197149500127"><ele>754.0</ele><time>2026-04-30T08:09:46.098Z</time></trkpt><trkpt lat="39.95769523565899" lon="9.193338521514846"><ele>760.3333333333334</ele><time>2026-04-30T08:09:47.098Z</time></trkpt><trkpt lat="39.957818416936995" lon="9.193465510211524"><ele>766.6666666666667</ele><time>2026-04-30T08:09:48.098Z</time></trkpt><trkpt lat="39.95795148942976" lon="9.193577002268656"><ele>773.0</ele><time>2026-04-30T08:09:49.098Z</time></trkpt><trkpt lat="39.958080904357296" lon="9.193691949289356"><ele>773.0</ele><time>2026-04-30T08:09:50.098Z</time></trkpt><trkpt lat="39.958200912238226" lon="9.193812320120639"><ele>773.0</ele><time>2026-04-30T08:09:51.098Z</time></trkpt><trkpt lat="39.958303300830394" lon="9.193927845688078"><ele>773.0</ele><time>2026-04-30T08:09:52.098Z</time></trkpt><trkpt lat="39.958394876272855" lon="9.194036479590181"><ele>773.0</ele><time>2026-04-30T08:09:53.098Z</time></trkpt><trkpt lat="39.958495808636094" lon="9.19413875035503"><ele>775.25</ele><time>2026-04-30T08:09:54.098Z</time></trkpt><trkpt lat="39.958595658355186" lon="9.194245157526769"><ele>777.5</ele><time>2026-04-30T08:09:55.098Z</time></trkpt><trkpt lat="39.958689808994215" lon="9.194353610250218"><ele>779.75</ele><time>2026-04-30T08:09:56.098Z</time></trkpt><trkpt lat="39.95878703677272" lon="9.194467052140043"><ele>782.0</ele><time>2026-04-30T08:09:57.098Z</time></trkpt><trkpt lat="39.95888491674446" lon="9.19458411452225"><ele>782.0</ele><time>2026-04-30T08:09:58.098Z</time></trkpt><trkpt lat="39.95897951792137" lon="9.194707363314802"><ele>782.0</ele><time>2026-04-30T08:09:59.098Z</time></trkpt><trkpt lat="39.959062212887304" lon="9.194842051188399"><ele>782.0</ele><time>2026-04-30T08:10:00.098Z</time></trkpt><trkpt lat="39.95913321366933" lon="9.19498796198719"><ele>782.0</ele><time>2026-04-30T08:10:01.098Z</time></trkpt><trkpt lat="39.95919597521594" lon="9.195128970778718"><ele>784.0</ele><time>2026-04-30T08:10:02.098Z</time></trkpt><trkpt lat="39.95926993588265" lon="9.195260934946848"><ele>786.0</ele><time>2026-04-30T08:10:03.098Z</time></trkpt><trkpt lat="39.95935461131982" lon="9.19537827147563"><ele>788.0</ele><time>2026-04-30T08:10:04.098Z</time></trkpt><trkpt lat="39.95944003288489" lon="9.19549054289946"><ele>790.0</ele><time>2026-04-30T08:10:05.098Z</time></trkpt><trkpt lat="39.9595256827102" lon="9.195616326452761"><ele>789.2</ele><time>2026-04-30T08:10:06.098Z</time></trkpt><trkpt lat="39.959605133659196" lon="9.195734011826742"><ele>788.4</ele><time>2026-04-30T08:10:07.098Z</time></trkpt><trkpt lat="39.95966797549495" lon="9.19584262388776"><ele>787.5999999999999</ele><time>2026-04-30T08:10:08.098Z</time></trkpt><trkpt lat="39.95970975650062" lon="9.195976039080128"><ele>786.8</ele><time>2026-04-30T08:10:09.098Z</time></trkpt><trkpt lat="39.95971852518944" lon="9.196119682317057"><ele>786.0</ele><time>2026-04-30T08:10:10.098Z</time></trkpt><trkpt lat="39.959698550581145" lon="9.19626275193231"><ele>786.0</ele><time>2026-04-30T08:10:11.098Z</time></trkpt><trkpt lat="39.95964555136232" lon="9.196402980862588"><ele>786.0</ele><time>2026-04-30T08:10:12.098Z</time></trkpt><trkpt lat="39.959575923492814" lon="9.196539901529393"><ele>786.0</ele><time>2026-04-30T08:10:13.098Z</time></trkpt><trkpt lat="39.95949502808692" lon="9.196673771321533"><ele>786.0</ele><time>2026-04-30T08:10:14.098Z</time></trkpt><trkpt lat="39.95941158061389" lon="9.196820613815534"><ele>786.5</ele><time>2026-04-30T08:10:15.098Z</time></trkpt><trkpt lat="39.95932872425811" lon="9.196978340508808"><ele>787.0</ele><time>2026-04-30T08:10:16.098Z</time></trkpt><trkpt lat="39.95924141759796" lon="9.197129612906147"><ele>787.5</ele><time>2026-04-30T08:10:17.098Z</time></trkpt><trkpt lat="39.95916012806675" lon="9.197260800188294"><ele>788.0</ele><time>2026-04-30T08:10:18.098Z</time></trkpt><trkpt lat="39.959087714481946" lon="9.19736937583356"><ele>788.0</ele><time>2026-04-30T08:10:19.098Z</time></trkpt><trkpt lat="39.959007599873885" lon="9.1974639607671"><ele>788.0</ele><time>2026-04-30T08:10:20.098Z</time></trkpt><trkpt lat="39.95890879024064" lon="9.197510904738083"><ele>788.0</ele><time>2026-04-30T08:10:21.098Z</time></trkpt><trkpt lat="39.958795984005015" lon="9.197506722901345"><ele>788.0</ele><time>2026-04-30T08:10:22.098Z</time></trkpt><trkpt lat="39.95868254557257" lon="9.19745551372464"><ele>788.0</ele><time>2026-04-30T08:10:23.098Z</time></trkpt><trkpt lat="39.95857643616951" lon="9.19735875836097"><ele>786.5999999999999</ele><time>2026-04-30T08:10:24.098Z</time></trkpt><trkpt lat="39.95848078393979" lon="9.197252308344785"><ele>785.1999999999999</ele><time>2026-04-30T08:10:25.098Z</time></trkpt><trkpt lat="39.95838695732087" lon="9.197151716819036"><ele>783.8</ele><time>2026-04-30T08:10:26.098Z</time></trkpt><trkpt lat="39.95830859213202" lon="9.197073119559677"><ele>782.4</ele><time>2026-04-30T08:10:27.098Z</time></trkpt><trkpt lat="39.958235320313605" lon="9.196994261203603"><ele>781.0</ele><time>2026-04-30T08:10:28.098Z</time></trkpt><trkpt lat="39.95816300246944" lon="9.196920829370223"><ele>780.9999999999999</ele><time>2026-04-30T08:10:29.098Z</time></trkpt><trkpt lat="39.958092285244255" lon="9.19684754599083"><ele>781.0</ele><time>2026-04-30T08:10:30.098Z</time></trkpt><trkpt lat="39.9580241822898" lon="9.196770858175976"><ele>781.0</ele><time>2026-04-30T08:10:31.098Z</time></trkpt><trkpt lat="39.95796462090358" lon="9.196695201341337"><ele>781.0</ele><time>2026-04-30T08:10:32.098Z</time></trkpt><trkpt lat="39.95789857714583" lon="9.196628984133698"><ele>780.9999999999999</ele><time>2026-04-30T08:10:33.098Z</time></trkpt><trkpt lat="39.957825404876026" lon="9.196578048272174"><ele>781.0</ele><time>2026-04-30T08:10:34.098Z</time></trkpt><trkpt lat="39.95774293682407" lon="9.196537637289245"><ele>781.0</ele><time>2026-04-30T08:10:35.098Z</time></trkpt><trkpt lat="39.95765772230741" lon="9.196508661394741"><ele>781.0</ele><time>2026-04-30T08:10:36.098Z</time></trkpt><trkpt lat="39.957565985473586" lon="9.19648576419836"><ele>781.0</ele><time>2026-04-30T08:10:37.098Z</time></trkpt><trkpt lat="39.95746891884664" lon="9.196481668049564"><ele>781.0</ele><time>2026-04-30T08:10:38.098Z</time></trkpt><trkpt lat="39.95737159870325" lon="9.1964877189108"><ele>781.0</ele><time>2026-04-30T08:10:39.098Z</time></trkpt><trkpt lat="39.957270037715205" lon="9.196487192972796"><ele>779.8</ele><time>2026-04-30T08:10:40.098Z</time></trkpt><trkpt lat="39.95716158416592" lon="9.196475702633435"><ele>778.5999999999999</ele><time>2026-04-30T08:10:41.098Z</time></trkpt><trkpt lat="39.95706832527599" lon="9.196475254100303"><ele>777.4</ele><time>2026-04-30T08:10:42.098Z</time></trkpt><trkpt lat="39.95698444477827" lon="9.196476439448555"><ele>776.2</ele><time>2026-04-30T08:10:43.098Z</time></trkpt><trkpt lat="39.95691789304691" lon="9.196473384888389"><ele>775.0</ele><time>2026-04-30T08:10:44.098Z</time></trkpt><trkpt lat="39.95681752348454" lon="9.196472688553511"><ele>774.9999999999999</ele><time>2026-04-30T08:10:46.098Z</time></trkpt><trkpt lat="39.956729378673316" lon="9.196471350895154"><ele>775.0</ele><time>2026-04-30T08:10:48.098Z</time></trkpt><trkpt lat="39.956636922144874" lon="9.196487281952981"><ele>775.0</ele><time>2026-04-30T08:10:50.098Z</time></trkpt><trkpt lat="39.95656425664197" lon="9.196492608438946"><ele>775.0</ele><time>2026-04-30T08:10:52.098Z</time></trkpt><trkpt lat="39.95649772303594" lon="9.19652239219129"><ele>774.9999999999999</ele><time>2026-04-30T08:10:56.099Z</time></trkpt><trkpt lat="39.95642363565697" lon="9.196546165006875"><ele>775.0</ele><time>2026-04-30T08:11:13.099Z</time></trkpt><trkpt lat="39.9563349566998" lon="9.196548406529633"><ele>779.1666666666666</ele><time>2026-04-30T08:11:28.099Z</time></trkpt><trkpt lat="39.95622499550845" lon="9.196578031212386"><ele>783.3333333333333</ele><time>2026-04-30T08:11:30.099Z</time></trkpt><trkpt lat="39.95616094598012" lon="9.196596682438612"><ele>787.5</ele><time>2026-04-30T08:11:31.099Z</time></trkpt><trkpt lat="39.95608293363307" lon="9.196617873785362"><ele>791.6666666666667</ele><time>2026-04-30T08:11:32.099Z</time></trkpt><trkpt lat="39.956000275753446" lon="9.196661543388474"><ele>795.8333333333334</ele><time>2026-04-30T08:11:33.099Z</time></trkpt><trkpt lat="39.95591628190981" lon="9.196720675446876"><ele>800.0</ele><time>2026-04-30T08:11:34.099Z</time></trkpt><trkpt lat="39.95582949860174" lon="9.196778132012309"><ele>800.0000000000001</ele><time>2026-04-30T08:11:35.099Z</time></trkpt><trkpt lat="39.955750082844645" lon="9.196838983125541"><ele>800.0</ele><time>2026-04-30T08:11:36.099Z</time></trkpt><trkpt lat="39.95567066443513" lon="9.196883928811367"><ele>800.0</ele><time>2026-04-30T08:11:37.099Z</time></trkpt><trkpt lat="39.955588696891354" lon="9.19691488555997"><ele>800.0</ele><time>2026-04-30T08:11:38.099Z</time></trkpt><trkpt lat="39.95550631810662" lon="9.196943633472214"><ele>800.0000000000001</ele><time>2026-04-30T08:11:39.099Z</time></trkpt><trkpt lat="39.95542125185153" lon="9.196992019520147"><ele>800.0</ele><time>2026-04-30T08:11:40.099Z</time></trkpt><trkpt lat="39.955344388553534" lon="9.197039499813418"><ele>800.0000000000001</ele><time>2026-04-30T08:11:41.099Z</time></trkpt><trkpt lat="39.95529114113549" lon="9.197087814584183"><ele>800.0</ele><time>2026-04-30T08:11:42.099Z</time></trkpt><trkpt lat="39.9552446680792" lon="9.197146008255418"><ele>800.0</ele><time>2026-04-30T08:11:43.099Z</time></trkpt><trkpt lat="39.955166343655016" lon="9.197219104496797"><ele>800.0</ele><time>2026-04-30T08:11:45.099Z</time></trkpt><trkpt lat="39.95508922646269" lon="9.197302769321224"><ele>800.0000000000001</ele><time>2026-04-30T08:11:47.099Z</time></trkpt><trkpt lat="39.955027522068306" lon="9.197403087728834"><ele>800.0</ele><time>2026-04-30T08:11:49.099Z</time></trkpt><trkpt lat="39.9549539549574" lon="9.197525429788925"><ele>801.7142857142858</ele><time>2026-04-30T08:11:51.099Z</time></trkpt><trkpt lat="39.95489827778447" lon="9.197614769287261"><ele>803.4285714285714</ele><time>2026-04-30T08:11:53.099Z</time></trkpt><trkpt lat="39.954858702673576" lon="9.197685162262458"><ele>805.1428571428571</ele><time>2026-04-30T08:11:55.099Z</time></trkpt><trkpt lat="39.95481802982356" lon="9.197763821903719"><ele>806.8571428571429</ele><time>2026-04-30T08:11:57.099Z</time></trkpt><trkpt lat="39.954775188621916" lon="9.1978385478872"><ele>808.5714285714286</ele><time>2026-04-30T08:11:59.099Z</time></trkpt><trkpt lat="39.95473744592988" lon="9.19792625492007"><ele>810.2857142857143</ele><time>2026-04-30T08:12:02.099Z</time></trkpt><trkpt lat="39.95470275904083" lon="9.198004376632714"><ele>812.0</ele><time>2026-04-30T08:12:07.099Z</time></trkpt><trkpt lat="39.95466140228705" lon="9.198087086396903"><ele>814.8333333333334</ele><time>2026-04-30T08:12:10.099Z</time></trkpt><trkpt lat="39.954627831989505" lon="9.198185033855472"><ele>817.6666666666667</ele><time>2026-04-30T08:12:14.099Z</time></trkpt><trkpt lat="39.954584115024915" lon="9.19827843270865"><ele>820.5</ele><time>2026-04-30T08:12:17.099Z</time></trkpt><trkpt lat="39.95454413738643" lon="9.198371015896202"><ele>823.3333333333333</ele><time>2026-04-30T08:12:19.099Z</time></trkpt><trkpt lat="39.95448682854371" lon="9.19844781032438"><ele>826.1666666666666</ele><time>2026-04-30T08:12:21.099Z</time></trkpt><trkpt lat="39.95442680966645" lon="9.198505257857489"><ele>829.0</ele><time>2026-04-30T08:12:24.099Z</time></trkpt><trkpt lat="39.954346813778635" lon="9.198520741418289"><ele>829.0</ele><time>2026-04-30T08:12:27.099Z</time></trkpt><trkpt lat="39.954278383953124" lon="9.198522267768436"><ele>829.0</ele><time>2026-04-30T08:12:29.099Z</time></trkpt><trkpt lat="39.95421750820496" lon="9.198452014088947"><ele>829.0</ele><time>2026-04-30T08:12:31.099Z</time></trkpt><trkpt lat="39.95417157943318" lon="9.198318738230077"><ele>829.0</ele><time>2026-04-30T08:12:33.099Z</time></trkpt><trkpt lat="39.954107957961426" lon="9.198195563236116"><ele>829.0</ele><time>2026-04-30T08:12:35.099Z</time></trkpt><trkpt lat="39.95403283643959" lon="9.198089507904735"><ele>824.4999999999999</ele><time>2026-04-30T08:12:37.099Z</time></trkpt><trkpt lat="39.95398284630599" lon="9.198033267924881"><ele>820.0</ele><time>2026-04-30T08:12:39.099Z</time></trkpt><trkpt lat="39.95391662998331" lon="9.197963836053688"><ele>815.5</ele><time>2026-04-30T08:12:42.099Z</time></trkpt><trkpt lat="39.953841641467825" lon="9.197908320187937"><ele>811.0</ele><time>2026-04-30T08:12:44.099Z</time></trkpt><trkpt lat="39.95375622933093" lon="9.19782899652839"><ele>806.4999999999999</ele><time>2026-04-30T08:12:46.099Z</time></trkpt><trkpt lat="39.953713469595826" lon="9.197761292664849"><ele>802.0</ele><time>2026-04-30T08:12:47.099Z</time></trkpt><trkpt lat="39.95361164962946" lon="9.197652704250013"><ele>801.9999999999999</ele><time>2026-04-30T08:12:49.099Z</time></trkpt><trkpt lat="39.953556883717546" lon="9.197586980765"><ele>802.0</ele><time>2026-04-30T08:12:50.099Z</time></trkpt><trkpt lat="39.95349501852158" lon="9.197530243868448"><ele>802.0</ele><time>2026-04-30T08:12:51.099Z</time></trkpt><trkpt lat="39.953435004839214" lon="9.197470986843665"><ele>802.0</ele><time>2026-04-30T08:12:52.099Z</time></trkpt><trkpt lat="39.953374299339394" lon="9.197405420333261"><ele>801.9999999999999</ele><time>2026-04-30T08:12:53.099Z</time></trkpt><trkpt lat="39.95332121643327" lon="9.197345408288879"><ele>802.0</ele><time>2026-04-30T08:12:54.099Z</time></trkpt><trkpt lat="39.95323185716521" lon="9.197263588568585"><ele>802.4000000000001</ele><time>2026-04-30T08:12:56.099Z</time></trkpt><trkpt lat="39.953135461662136" lon="9.197202488750055"><ele>802.8000000000001</ele><time>2026-04-30T08:12:58.099Z</time></trkpt><trkpt lat="39.95304163621314" lon="9.197127162110597"><ele>803.2</ele><time>2026-04-30T08:13:00.099Z</time></trkpt><trkpt lat="39.952970291872006" lon="9.197002592768953"><ele>803.6</ele><time>2026-04-30T08:13:02.101Z</time></trkpt><trkpt lat="39.95295485299174" lon="9.196918218595325"><ele>804.0</ele><time>2026-04-30T08:13:03.101Z</time></trkpt><trkpt lat="39.95295257243695" lon="9.196828875367865"><ele>804.0</ele><time>2026-04-30T08:13:04.101Z</time></trkpt><trkpt lat="39.95296096329171" lon="9.19672936689709"><ele>804.0</ele><time>2026-04-30T08:13:05.101Z</time></trkpt><trkpt lat="39.952969762242766" lon="9.196627187811353"><ele>804.0</ele><time>2026-04-30T08:13:06.101Z</time></trkpt><trkpt lat="39.952967716571585" lon="9.196514920912888"><ele>804.0</ele><time>2026-04-30T08:13:07.101Z</time></trkpt><trkpt lat="39.952942355143016" lon="9.196399162991778"><ele>804.0</ele><time>2026-04-30T08:13:08.101Z</time></trkpt><trkpt lat="39.95291625949747" lon="9.196279513244866"><ele>804.0</ele><time>2026-04-30T08:13:09.101Z</time></trkpt><trkpt lat="39.952880570989215" lon="9.196160772968026"><ele>803.4000000000001</ele><time>2026-04-30T08:13:10.101Z</time></trkpt><trkpt lat="39.95284687043658" lon="9.196043390758403"><ele>802.8</ele><time>2026-04-30T08:13:11.101Z</time></trkpt><trkpt lat="39.952837459487256" lon="9.195929081615631"><ele>802.2</ele><time>2026-04-30T08:13:12.101Z</time></trkpt><trkpt lat="39.95284787813473" lon="9.195810043986823"><ele>801.5999999999999</ele><time>2026-04-30T08:13:13.101Z</time></trkpt><trkpt lat="39.95289131024866" lon="9.195690647126058"><ele>801.0</ele><time>2026-04-30T08:13:14.1Z</time></trkpt><trkpt lat="39.952912970639474" lon="9.195567565982403"><ele>800.5</ele><time>2026-04-30T08:13:15.1Z</time></trkpt><trkpt lat="39.95289887514573" lon="9.195451398673333"><ele>800.0</ele><time>2026-04-30T08:13:16.1Z</time></trkpt><trkpt lat="39.952867485812256" lon="9.1953533445997"><ele>799.5</ele><time>2026-04-30T08:13:17.1Z</time></trkpt><trkpt lat="39.95282470243176" lon="9.195261950906414"><ele>799.0</ele><time>2026-04-30T08:13:18.1Z</time></trkpt><trkpt lat="39.952777360175254" lon="9.19518436463415"><ele>798.5</ele><time>2026-04-30T08:13:19.1Z</time></trkpt><trkpt lat="39.95272188105762" lon="9.195114135815283"><ele>798.0</ele><time>2026-04-30T08:13:20.1Z</time></trkpt><trkpt lat="39.952657200823445" lon="9.195050567500168"><ele>798.0</ele><time>2026-04-30T08:13:21.1Z</time></trkpt><trkpt lat="39.95258173905369" lon="9.194989504362436"><ele>798.0</ele><time>2026-04-30T08:13:22.101Z</time></trkpt><trkpt lat="39.952501724324875" lon="9.194937529796084"><ele>798.0</ele><time>2026-04-30T08:13:23.101Z</time></trkpt><trkpt lat="39.95241997111402" lon="9.194880738495144"><ele>798.0</ele><time>2026-04-30T08:13:24.101Z</time></trkpt><trkpt lat="39.952362564677536" lon="9.194824308780667"><ele>798.0</ele><time>2026-04-30T08:13:25.101Z</time></trkpt><trkpt lat="39.95231333231269" lon="9.19476193992925"><ele>798.0</ele><time>2026-04-30T08:13:26.101Z</time></trkpt><trkpt lat="39.95229010649055" lon="9.194672772133723"><ele>800.5</ele><time>2026-04-30T08:13:27.101Z</time></trkpt><trkpt lat="39.95227855482306" lon="9.19456871897767"><ele>803.0</ele><time>2026-04-30T08:13:28.101Z</time></trkpt><trkpt lat="39.952283539449475" lon="9.194461600881713"><ele>805.5</ele><time>2026-04-30T08:13:29.101Z</time></trkpt><trkpt lat="39.95229289506314" lon="9.194354987626717"><ele>808.0</ele><time>2026-04-30T08:13:30.101Z</time></trkpt><trkpt lat="39.95229029942867" lon="9.194247429349451"><ele>810.5</ele><time>2026-04-30T08:13:31.101Z</time></trkpt><trkpt lat="39.95228163518441" lon="9.194137298088608"><ele>813.0</ele><time>2026-04-30T08:13:32.101Z</time></trkpt><trkpt lat="39.95225954262992" lon="9.194027250440898"><ele>812.8</ele><time>2026-04-30T08:13:33.101Z</time></trkpt><trkpt lat="39.95224545977388" lon="9.193913692426364"><ele>812.5999999999999</ele><time>2026-04-30T08:13:34.101Z</time></trkpt><trkpt lat="39.95223407197181" lon="9.193798798551516"><ele>812.4000000000001</ele><time>2026-04-30T08:13:35.101Z</time></trkpt><trkpt lat="39.95221286621421" lon="9.1936791446892"><ele>812.2</ele><time>2026-04-30T08:13:36.101Z</time></trkpt><trkpt lat="39.95220398080391" lon="9.193565767865994"><ele>812.0</ele><time>2026-04-30T08:13:37.101Z</time></trkpt><trkpt lat="39.95220679690075" lon="9.193445168361832"><ele>812.0</ele><time>2026-04-30T08:13:38.101Z</time></trkpt><trkpt lat="39.952195838098376" lon="9.193327230231086"><ele>812.0</ele><time>2026-04-30T08:13:39.101Z</time></trkpt><trkpt lat="39.95219427315253" lon="9.193198214033599"><ele>812.0</ele><time>2026-04-30T08:13:40.101Z</time></trkpt><trkpt lat="39.952185460787426" lon="9.193064908310458"><ele>812.0</ele><time>2026-04-30T08:13:41.101Z</time></trkpt><trkpt lat="39.952153046404256" lon="9.192932460747405"><ele>812.0</ele><time>2026-04-30T08:13:42.101Z</time></trkpt><trkpt lat="39.95209795619107" lon="9.192817415199357"><ele>811.4000000000001</ele><time>2026-04-30T08:13:43.101Z</time></trkpt><trkpt lat="39.95202863735073" lon="9.192711966605463"><ele>810.8000000000001</ele><time>2026-04-30T08:13:44.101Z</time></trkpt><trkpt lat="39.95195638927449" lon="9.192610503432615"><ele>810.2</ele><time>2026-04-30T08:13:45.101Z</time></trkpt><trkpt lat="39.951897702276334" lon="9.19251074211602"><ele>809.6</ele><time>2026-04-30T08:13:46.101Z</time></trkpt><trkpt lat="39.95185037442152" lon="9.192412018566255"><ele>809.0</ele><time>2026-04-30T08:13:47.101Z</time></trkpt><trkpt lat="39.95182055730391" lon="9.192332051211634"><ele>807.0</ele><time>2026-04-30T08:13:48.101Z</time></trkpt><trkpt lat="39.95175001962895" lon="9.19218760356808"><ele>805.0</ele><time>2026-04-30T08:13:50.101Z</time></trkpt><trkpt lat="39.95170460270929" lon="9.192108110391947"><ele>803.0</ele><time>2026-04-30T08:13:51.101Z</time></trkpt><trkpt lat="39.95164164848962" lon="9.19203483762624"><ele>801.0</ele><time>2026-04-30T08:13:52.101Z</time></trkpt><trkpt lat="39.95156654613674" lon="9.191959165290278"><ele>799.0</ele><time>2026-04-30T08:13:53.101Z</time></trkpt><trkpt lat="39.95148106867835" lon="9.191878373447285"><ele>805.0</ele><time>2026-04-30T08:13:54.101Z</time></trkpt><trkpt lat="39.95138566739988" lon="9.19179231906076"><ele>811.0</ele><time>2026-04-30T08:13:55.101Z</time></trkpt><trkpt lat="39.95128533769191" lon="9.191699676055192"><ele>817.0</ele><time>2026-04-30T08:13:56.101Z</time></trkpt><trkpt lat="39.9511943400943" lon="9.191608583219427"><ele>823.0</ele><time>2026-04-30T08:13:57.101Z</time></trkpt><trkpt lat="39.95110956346498" lon="9.191519674496254"><ele>821.5</ele><time>2026-04-30T08:13:58.101Z</time></trkpt><trkpt lat="39.95101945794121" lon="9.191411384237188"><ele>820.0</ele><time>2026-04-30T08:13:59.101Z</time></trkpt><trkpt lat="39.95090670509918" lon="9.19127875871034"><ele>818.5</ele><time>2026-04-30T08:14:00.101Z</time></trkpt><trkpt lat="39.95080489128922" lon="9.191167530250091"><ele>817.0</ele><time>2026-04-30T08:14:01.101Z</time></trkpt><trkpt lat="39.95069929414426" lon="9.191047354176813"><ele>817.25</ele><time>2026-04-30T08:14:02.101Z</time></trkpt><trkpt lat="39.95062172076516" lon="9.190924984820072"><ele>817.5</ele><time>2026-04-30T08:14:03.101Z</time></trkpt><trkpt lat="39.95055633228899" lon="9.190792126153191"><ele>817.75</ele><time>2026-04-30T08:14:04.101Z</time></trkpt><trkpt lat="39.95050008541001" lon="9.190662070357915"><ele>818.0</ele><time>2026-04-30T08:14:05.101Z</time></trkpt><trkpt lat="39.95045106869161" lon="9.190532455818465"><ele>818.0</ele><time>2026-04-30T08:14:06.101Z</time></trkpt><trkpt lat="39.95038491604777" lon="9.190414761779358"><ele>818.0</ele><time>2026-04-30T08:14:07.101Z</time></trkpt><trkpt lat="39.95029251880443" lon="9.190324086928658"><ele>818.0</ele><time>2026-04-30T08:14:08.101Z</time></trkpt><trkpt lat="39.9501927015206" lon="9.190244214940355"><ele>818.0</ele><time>2026-04-30T08:14:09.101Z</time></trkpt><trkpt lat="39.9501028554667" lon="9.190165869075665"><ele>820.75</ele><time>2026-04-30T08:14:10.101Z</time></trkpt><trkpt lat="39.950008741236076" lon="9.19007219260981"><ele>823.5</ele><time>2026-04-30T08:14:11.101Z</time></trkpt><trkpt lat="39.94990807047398" lon="9.189965864553617"><ele>826.25</ele><time>2026-04-30T08:14:12.101Z</time></trkpt><trkpt lat="39.94980219614187" lon="9.189838794152184"><ele>829.0</ele><time>2026-04-30T08:14:13.101Z</time></trkpt><trkpt lat="39.94968799991975" lon="9.18966838557409"><ele>829.0</ele><time>2026-04-30T08:14:14.101Z</time></trkpt><trkpt lat="39.949596802971804" lon="9.189513692388827"><ele>829.0</ele><time>2026-04-30T08:14:15.101Z</time></trkpt><trkpt lat="39.94951280062369" lon="9.189377161005291"><ele>829.0</ele><time>2026-04-30T08:14:16.101Z</time></trkpt><trkpt lat="39.94944953203601" lon="9.189223776095183"><ele>829.0</ele><time>2026-04-30T08:14:17.101Z</time></trkpt><trkpt lat="39.94939572502188" lon="9.189063022705012"><ele>828.0</ele><time>2026-04-30T08:14:18.101Z</time></trkpt><trkpt lat="39.949366118133526" lon="9.188916891307457"><ele>827.0</ele><time>2026-04-30T08:14:19.101Z</time></trkpt><trkpt lat="39.949343744901945" lon="9.188770826429858"><ele>826.0</ele><time>2026-04-30T08:14:20.101Z</time></trkpt><trkpt lat="39.94931492354724" lon="9.188611862669404"><ele>825.0</ele><time>2026-04-30T08:14:21.101Z</time></trkpt><trkpt lat="39.949272390919965" lon="9.188456144628388"><ele>828.6666666666667</ele><time>2026-04-30T08:14:22.101Z</time></trkpt><trkpt lat="39.94920767243063" lon="9.188297951814777"><ele>832.3333333333334</ele><time>2026-04-30T08:14:23.101Z</time></trkpt><trkpt lat="39.94912278789065" lon="9.188110426252956"><ele>836.0</ele><time>2026-04-30T08:14:24.101Z</time></trkpt><trkpt lat="39.94905226561434" lon="9.187920308522532"><ele>836.0</ele><time>2026-04-30T08:14:25.101Z</time></trkpt><trkpt lat="39.9489823783372" lon="9.187768539243386"><ele>836.0</ele><time>2026-04-30T08:14:26.101Z</time></trkpt><trkpt lat="39.948889953302135" lon="9.187631728345503"><ele>836.0</ele><time>2026-04-30T08:14:27.101Z</time></trkpt><trkpt lat="39.948762960327855" lon="9.187513537429988"><ele>836.0</ele><time>2026-04-30T08:14:28.101Z</time></trkpt><trkpt lat="39.94862028550973" lon="9.18738540375044"><ele>837.0</ele><time>2026-04-30T08:14:29.101Z</time></trkpt><trkpt lat="39.94846567003173" lon="9.187255006568561"><ele>838.0</ele><time>2026-04-30T08:14:30.101Z</time></trkpt><trkpt lat="39.948327688836066" lon="9.187154336219983"><ele>839.0</ele><time>2026-04-30T08:14:31.101Z</time></trkpt><trkpt lat="39.94820197790106" lon="9.187075880977108"><ele>839.0000000000001</ele><time>2026-04-30T08:14:32.101Z</time></trkpt><trkpt lat="39.94809819843193" lon="9.187016527065449"><ele>839.0</ele><time>2026-04-30T08:14:33.101Z</time></trkpt><trkpt lat="39.94801337913542" lon="9.186963117379234"><ele>839.0</ele><time>2026-04-30T08:14:34.101Z</time></trkpt><trkpt lat="39.94794251852375" lon="9.186907552913722"><ele>839.0</ele><time>2026-04-30T08:14:35.101Z</time></trkpt><trkpt lat="39.94788804952088" lon="9.186846759992918"><ele>839.0000000000001</ele><time>2026-04-30T08:14:36.101Z</time></trkpt><trkpt lat="39.94783656615554" lon="9.186788400571944"><ele>839.0</ele><time>2026-04-30T08:14:37.101Z</time></trkpt><trkpt lat="39.947782483293906" lon="9.186723290018644"><ele>839.0000000000001</ele><time>2026-04-30T08:14:38.101Z</time></trkpt><trkpt lat="39.9477321694613" lon="9.18665035506925"><ele>839.0</ele><time>2026-04-30T08:14:39.101Z</time></trkpt><trkpt lat="39.9476921156555" lon="9.186558223127825"><ele>839.0</ele><time>2026-04-30T08:14:40.101Z</time></trkpt><trkpt lat="39.94767840096114" lon="9.186447136718616"><ele>839.0</ele><time>2026-04-30T08:14:41.101Z</time></trkpt><trkpt lat="39.94767451130355" lon="9.186336057912566"><ele>839.0000000000001</ele><time>2026-04-30T08:14:42.101Z</time></trkpt><trkpt lat="39.94766542710167" lon="9.186234658586454"><ele>839.0</ele><time>2026-04-30T08:14:43.101Z</time></trkpt><trkpt lat="39.94764620623725" lon="9.186137925356778"><ele>839.8000000000001</ele><time>2026-04-30T08:14:44.101Z</time></trkpt><trkpt lat="39.94759904021041" lon="9.186057680769546"><ele>840.6</ele><time>2026-04-30T08:14:45.101Z</time></trkpt><trkpt lat="39.94753489195107" lon="9.185997398671029"><ele>841.4</ele><time>2026-04-30T08:14:46.101Z</time></trkpt><trkpt lat="39.94745802084175" lon="9.18596218950672"><ele>842.2</ele><time>2026-04-30T08:14:47.101Z</time></trkpt><trkpt lat="39.947359748670195" lon="9.185978088981868"><ele>843.0</ele><time>2026-04-30T08:14:48.101Z</time></trkpt><trkpt lat="39.94723251315452" lon="9.186020914927976"><ele>843.0</ele><time>2026-04-30T08:14:49.101Z</time></trkpt><trkpt lat="39.947071566814365" lon="9.186111872053717"><ele>843.0</ele><time>2026-04-30T08:14:50.101Z</time></trkpt><trkpt lat="39.9469329134624" lon="9.186170129111698"><ele>843.0</ele><time>2026-04-30T08:14:51.101Z</time></trkpt><trkpt lat="39.94681003467328" lon="9.186202059376622"><ele>843.0</ele><time>2026-04-30T08:14:52.101Z</time></trkpt><trkpt lat="39.94669984255135" lon="9.18619300540753"><ele>843.75</ele><time>2026-04-30T08:14:53.101Z</time></trkpt><trkpt lat="39.94659136381291" lon="9.186151360599395"><ele>844.5</ele><time>2026-04-30T08:14:54.101Z</time></trkpt><trkpt lat="39.946493563102145" lon="9.186078659262852"><ele>845.25</ele><time>2026-04-30T08:14:55.101Z</time></trkpt><trkpt lat="39.94640150707901" lon="9.18598756334776"><ele>846.0</ele><time>2026-04-30T08:14:56.101Z</time></trkpt><trkpt lat="39.94630960695024" lon="9.1859118810118"><ele>846.0</ele><time>2026-04-30T08:14:57.101Z</time></trkpt><trkpt lat="39.946206481103665" lon="9.185877426062747"><ele>846.0</ele><time>2026-04-30T08:14:58.101Z</time></trkpt><trkpt lat="39.946100688042186" lon="9.185872054412968"><ele>846.0</ele><time>2026-04-30T08:14:59.101Z</time></trkpt><trkpt lat="39.94599602717392" lon="9.185888544093805"><ele>846.0</ele><time>2026-04-30T08:15:00.101Z</time></trkpt><trkpt lat="39.945901434536786" lon="9.185887177796277"><ele>846.0</ele><time>2026-04-30T08:15:01.101Z</time></trkpt><trkpt lat="39.94580422053273" lon="9.185868437161012"><ele>845.5</ele><time>2026-04-30T08:15:02.101Z</time></trkpt><trkpt lat="39.945708345960966" lon="9.185830638155092"><ele>845.0</ele><time>2026-04-30T08:15:03.101Z</time></trkpt><trkpt lat="39.945617301203306" lon="9.185749449864355"><ele>844.5</ele><time>2026-04-30T08:15:04.101Z</time></trkpt><trkpt lat="39.9455241072661" lon="9.185632916018239"><ele>844.0</ele><time>2026-04-30T08:15:05.101Z</time></trkpt><trkpt lat="39.945447500277254" lon="9.1854885863643"><ele>844.0</ele><time>2026-04-30T08:15:06.101Z</time></trkpt><trkpt lat="39.94537248104534" lon="9.185355954945274"><ele>844.0</ele><time>2026-04-30T08:15:07.103Z</time></trkpt><trkpt lat="39.94528727089987" lon="9.185240366517826"><ele>844.0</ele><time>2026-04-30T08:15:08.102Z</time></trkpt><trkpt lat="39.94518639900202" lon="9.185130643171822"><ele>844.0</ele><time>2026-04-30T08:15:09.102Z</time></trkpt><trkpt lat="39.94506082317784" lon="9.185039893659269"><ele>844.5</ele><time>2026-04-30T08:15:10.103Z</time></trkpt><trkpt lat="39.944921733902696" lon="9.184962082006031"><ele>845.0</ele><time>2026-04-30T08:15:11.102Z</time></trkpt><trkpt lat="39.94478553993417" lon="9.184902075335216"><ele>845.5</ele><time>2026-04-30T08:15:12.102Z</time></trkpt><trkpt lat="39.944678631371005" lon="9.184844656183282"><ele>846.0</ele><time>2026-04-30T08:15:13.103Z</time></trkpt><trkpt lat="39.944579920871355" lon="9.184790230750796"><ele>846.0</ele><time>2026-04-30T08:15:14.102Z</time></trkpt><trkpt lat="39.944478728021224" lon="9.184734063828333"><ele>846.0</ele><time>2026-04-30T08:15:15.102Z</time></trkpt><trkpt lat="39.94439166429483" lon="9.184654641129933"><ele>846.0</ele><time>2026-04-30T08:15:16.103Z</time></trkpt><trkpt lat="39.944315474144595" lon="9.184545509506483"><ele>846.0</ele><time>2026-04-30T08:15:17.103Z</time></trkpt><trkpt lat="39.94424554864131" lon="9.184402936713857"><ele>849.25</ele><time>2026-04-30T08:15:18.103Z</time></trkpt><trkpt lat="39.944185488199665" lon="9.184240988054757"><ele>852.5</ele><time>2026-04-30T08:15:19.103Z</time></trkpt><trkpt lat="39.94414210734587" lon="9.184058328973688"><ele>855.75</ele><time>2026-04-30T08:15:20.102Z</time></trkpt><trkpt lat="39.94410237461816" lon="9.183896689801182"><ele>859.0</ele><time>2026-04-30T08:15:21.102Z</time></trkpt><trkpt lat="39.94406726979096" lon="9.183760415444741"><ele>859.0</ele><time>2026-04-30T08:15:22.102Z</time></trkpt><trkpt lat="39.94403456101506" lon="9.183623028897685"><ele>859.0</ele><time>2026-04-30T08:15:23.102Z</time></trkpt><trkpt lat="39.94400903220122" lon="9.183470730600597"><ele>859.0</ele><time>2026-04-30T08:15:24.102Z</time></trkpt><trkpt lat="39.94399820347914" lon="9.183314478230377"><ele>859.0</ele><time>2026-04-30T08:15:25.102Z</time></trkpt><trkpt lat="39.94400595795191" lon="9.18315641671473"><ele>858.0</ele><time>2026-04-30T08:15:26.102Z</time></trkpt><trkpt lat="39.94402885093546" lon="9.183004055692237"><ele>857.0000000000001</ele><time>2026-04-30T08:15:27.102Z</time></trkpt><trkpt lat="39.944049900667075" lon="9.182870827922786"><ele>856.0000000000001</ele><time>2026-04-30T08:15:28.102Z</time></trkpt><trkpt lat="39.94405272796488" lon="9.182736855816584"><ele>855.0</ele><time>2026-04-30T08:15:29.102Z</time></trkpt><trkpt lat="39.94403349641956" lon="9.182583529239924"><ele>854.0</ele><time>2026-04-30T08:15:30.102Z</time></trkpt><trkpt lat="39.94397765091415" lon="9.182435281162928"><ele>851.25</ele><time>2026-04-30T08:15:31.102Z</time></trkpt><trkpt lat="39.943877761249695" lon="9.182280030852032"><ele>848.5</ele><time>2026-04-30T08:15:32.102Z</time></trkpt><trkpt lat="39.94376280031985" lon="9.182141545049207"><ele>845.75</ele><time>2026-04-30T08:15:33.102Z</time></trkpt><trkpt lat="39.94366013632801" lon="9.182026136906087"><ele>843.0</ele><time>2026-04-30T08:15:34.102Z</time></trkpt><trkpt lat="39.94357486537593" lon="9.181920793359136"><ele>843.0</ele><time>2026-04-30T08:15:35.102Z</time></trkpt><trkpt lat="39.94350360795239" lon="9.18183371441392"><ele>843.0</ele><time>2026-04-30T08:15:36.102Z</time></trkpt><trkpt lat="39.94343355543703" lon="9.181751251415301"><ele>843.0</ele><time>2026-04-30T08:15:37.102Z</time></trkpt><trkpt lat="39.94335592243739" lon="9.18165629836699"><ele>843.0</ele><time>2026-04-30T08:15:38.102Z</time></trkpt><trkpt lat="39.94327837156726" lon="9.181570425313113"><ele>843.0</ele><time>2026-04-30T08:15:39.102Z</time></trkpt><trkpt lat="39.94321535381284" lon="9.181496233523202"><ele>845.0</ele><time>2026-04-30T08:15:40.102Z</time></trkpt><trkpt lat="39.94315354850982" lon="9.181428659780861"><ele>847.0</ele><time>2026-04-30T08:15:41.102Z</time></trkpt><trkpt lat="39.94310178993886" lon="9.18135917876427"><ele>849.0</ele><time>2026-04-30T08:15:42.102Z</time></trkpt><trkpt lat="39.943056045156055" lon="9.18129604517346"><ele>851.0</ele><time>2026-04-30T08:15:43.102Z</time></trkpt><trkpt lat="39.942950460636084" lon="9.181260742081623"><ele>853.0</ele><time>2026-04-30T08:15:45.102Z</time></trkpt><trkpt lat="39.94289176109117" lon="9.181374510543606"><ele>855.0</ele><time>2026-04-30T08:15:47.102Z</time></trkpt><trkpt lat="39.94289500565863" lon="9.181464238414044"><ele>856.0</ele><time>2026-04-30T08:15:48.102Z</time></trkpt><trkpt lat="39.94291699014828" lon="9.18156553077226"><ele>857.0</ele><time>2026-04-30T08:15:49.102Z</time></trkpt><trkpt lat="39.94293488614444" lon="9.181674765313954"><ele>858.0</ele><time>2026-04-30T08:15:50.103Z</time></trkpt><trkpt lat="39.94295740320828" lon="9.181796371956818"><ele>859.0</ele><time>2026-04-30T08:15:51.103Z</time></trkpt><trkpt lat="39.94297731417688" lon="9.181934168333708"><ele>860.0</ele><time>2026-04-30T08:15:52.103Z</time></trkpt><trkpt lat="39.942974876948" lon="9.18208840992128"><ele>860.0</ele><time>2026-04-30T08:15:53.103Z</time></trkpt><trkpt lat="39.94296033778733" lon="9.182264806276534"><ele>860.0</ele><time>2026-04-30T08:15:54.103Z</time></trkpt><trkpt lat="39.94293878398046" lon="9.182454218426404"><ele>860.0</ele><time>2026-04-30T08:15:55.103Z</time></trkpt><trkpt lat="39.94291568581502" lon="9.1826616446533"><ele>860.0</ele><time>2026-04-30T08:15:56.103Z</time></trkpt><trkpt lat="39.942878334637214" lon="9.18287398568116"><ele>862.6666666666667</ele><time>2026-04-30T08:15:57.103Z</time></trkpt><trkpt lat="39.942821598706956" lon="9.183083999059985"><ele>865.3333333333333</ele><time>2026-04-30T08:15:58.103Z</time></trkpt><trkpt lat="39.942743783790206" lon="9.183299863644308"><ele>868.0</ele><time>2026-04-30T08:15:59.103Z</time></trkpt><trkpt lat="39.94266507856745" lon="9.183488755294581"><ele>869.0</ele><time>2026-04-30T08:16:00.103Z</time></trkpt><trkpt lat="39.94259190162764" lon="9.183667055750801"><ele>870.0</ele><time>2026-04-30T08:16:01.103Z</time></trkpt><trkpt lat="39.94253462757706" lon="9.183833406387947"><ele>871.0</ele><time>2026-04-30T08:16:02.103Z</time></trkpt><trkpt lat="39.942520876157126" lon="9.184009268143818"><ele>872.0</ele><time>2026-04-30T08:16:03.103Z</time></trkpt><trkpt lat="39.94255461926495" lon="9.184174009917422"><ele>869.5</ele><time>2026-04-30T08:16:04.103Z</time></trkpt><trkpt lat="39.94263675160582" lon="9.184319112418223"><ele>867.0</ele><time>2026-04-30T08:16:05.103Z</time></trkpt><trkpt lat="39.94275080344843" lon="9.184418672665597"><ele>864.5</ele><time>2026-04-30T08:16:06.103Z</time></trkpt><trkpt lat="39.942913772417754" lon="9.184480707284742"><ele>862.0</ele><time>2026-04-30T08:16:07.103Z</time></trkpt><trkpt lat="39.94304432922539" lon="9.184555468220012"><ele>862.0</ele><time>2026-04-30T08:16:08.103Z</time></trkpt><trkpt lat="39.94315176670424" lon="9.18469603349217"><ele>862.0</ele><time>2026-04-30T08:16:09.103Z</time></trkpt><trkpt lat="39.94324353013299" lon="9.184880208840802"><ele>862.0</ele><time>2026-04-30T08:16:10.103Z</time></trkpt><trkpt lat="39.9432904194692" lon="9.185113972581245"><ele>859.0</ele><time>2026-04-30T08:16:11.103Z</time></trkpt><trkpt lat="39.943303446647164" lon="9.185378399285211"><ele>856.0</ele><time>2026-04-30T08:16:12.103Z</time></trkpt><trkpt lat="39.943287212969516" lon="9.185650456935207"><ele>853.0</ele><time>2026-04-30T08:16:13.103Z</time></trkpt><trkpt lat="39.94326654352992" lon="9.185889220601984"><ele>851.0</ele><time>2026-04-30T08:16:14.103Z</time></trkpt><trkpt lat="39.9432958474124" lon="9.186165712274471"><ele>849.0</ele><time>2026-04-30T08:16:15.103Z</time></trkpt><trkpt lat="39.943360668467356" lon="9.186476658167694"><ele>857.3333333333333</ele><time>2026-04-30T08:16:16.103Z</time></trkpt><trkpt lat="39.9434164420757" lon="9.186757549850219"><ele>865.6666666666666</ele><time>2026-04-30T08:16:17.103Z</time></trkpt><trkpt lat="39.94345282570158" lon="9.187021913201622"><ele>874.0</ele><time>2026-04-30T08:16:18.103Z</time></trkpt><trkpt lat="39.9434552113664" lon="9.187238580013313"><ele>872.6666666666666</ele><time>2026-04-30T08:16:19.103Z</time></trkpt><trkpt lat="39.94343766400395" lon="9.187432637531582"><ele>871.3333333333333</ele><time>2026-04-30T08:16:20.103Z</time></trkpt><trkpt lat="39.9433778477206" lon="9.18761149351318"><ele>870.0</ele><time>2026-04-30T08:16:21.103Z</time></trkpt><trkpt lat="39.943280077827396" lon="9.187777988793568"><ele>861.0</ele><time>2026-04-30T08:16:22.103Z</time></trkpt><trkpt lat="39.94321926297201" lon="9.187935892869325"><ele>852.0</ele><time>2026-04-30T08:16:23.103Z</time></trkpt><trkpt lat="39.94321247683492" lon="9.188139995563407"><ele>843.0</ele><time>2026-04-30T08:16:24.103Z</time></trkpt><trkpt lat="39.943233668987375" lon="9.188394357583734"><ele>843.0</ele><time>2026-04-30T08:16:25.103Z</time></trkpt><trkpt lat="39.943252225971555" lon="9.188604015853935"><ele>843.0</ele><time>2026-04-30T08:16:26.103Z</time></trkpt><trkpt lat="39.94324599153103" lon="9.188764279915963"><ele>843.0</ele><time>2026-04-30T08:16:27.103Z</time></trkpt><trkpt lat="39.94319586408867" lon="9.188882306124551"><ele>843.0</ele><time>2026-04-30T08:16:28.103Z</time></trkpt><trkpt lat="39.94311003425322" lon="9.188943763831498"><ele>843.0</ele><time>2026-04-30T08:16:29.103Z</time></trkpt><trkpt lat="39.94299941824811" lon="9.188953047123603"><ele>843.0</ele><time>2026-04-30T08:16:30.103Z</time></trkpt><trkpt lat="39.94288497912801" lon="9.18887575612029"><ele>843.0</ele><time>2026-04-30T08:16:31.103Z</time></trkpt><trkpt lat="39.94277467959861" lon="9.1887478005498"><ele>843.0</ele><time>2026-04-30T08:16:32.103Z</time></trkpt><trkpt lat="39.94265223373458" lon="9.188573801656737"><ele>841.0</ele><time>2026-04-30T08:16:33.103Z</time></trkpt><trkpt lat="39.94251370021612" lon="9.188388391420645"><ele>839.0</ele><time>2026-04-30T08:16:34.103Z</time></trkpt><trkpt lat="39.9423853681608" lon="9.18823434687681"><ele>837.0</ele><time>2026-04-30T08:16:35.103Z</time></trkpt><trkpt lat="39.94225463926112" lon="9.188117347100496"><ele>834.0</ele><time>2026-04-30T08:16:36.103Z</time></trkpt><trkpt lat="39.94207897308563" lon="9.188038507101927"><ele>831.0</ele><time>2026-04-30T08:16:37.103Z</time></trkpt><trkpt lat="39.94186390513689" lon="9.188004403149076"><ele>828.0</ele><time>2026-04-30T08:16:38.103Z</time></trkpt><trkpt lat="39.941620520610414" lon="9.187966978173653"><ele>828.0</ele><time>2026-04-30T08:16:39.103Z</time></trkpt><trkpt lat="39.94139587211125" lon="9.18793830819716"><ele>828.0</ele><time>2026-04-30T08:16:40.103Z</time></trkpt><trkpt lat="39.941187334967054" lon="9.187940357257357"><ele>828.0</ele><time>2026-04-30T08:16:41.103Z</time></trkpt><trkpt lat="39.94098571064208" lon="9.187990231358837"><ele>829.6666666666667</ele><time>2026-04-30T08:16:42.103Z</time></trkpt><trkpt lat="39.94079279888161" lon="9.188058773202842"><ele>831.3333333333334</ele><time>2026-04-30T08:16:43.103Z</time></trkpt><trkpt lat="39.940650219481206" lon="9.188105791604395"><ele>833.0</ele><time>2026-04-30T08:16:44.103Z</time></trkpt><trkpt lat="39.94052747310039" lon="9.188096910520787"><ele>833.0</ele><time>2026-04-30T08:16:45.103Z</time></trkpt><trkpt lat="39.94043088570894" lon="9.188026751698406"><ele>833.0</ele><time>2026-04-30T08:16:46.103Z</time></trkpt><trkpt lat="39.94036485251323" lon="9.187891748165905"><ele>833.0</ele><time>2026-04-30T08:16:47.103Z</time></trkpt><trkpt lat="39.94034337614234" lon="9.187728015996026"><ele>833.0</ele><time>2026-04-30T08:16:48.103Z</time></trkpt><trkpt lat="39.94037435446509" lon="9.187527933057407"><ele>835.6666666666667</ele><time>2026-04-30T08:16:49.103Z</time></trkpt><trkpt lat="39.94044752680297" lon="9.187313051226921"><ele>838.3333333333333</ele><time>2026-04-30T08:16:50.103Z</time></trkpt><trkpt lat="39.940545896308635" lon="9.187086782806917"><ele>841.0</ele><time>2026-04-30T08:16:51.103Z</time></trkpt><trkpt lat="39.9406671564664" lon="9.186901709812506"><ele>841.0</ele><time>2026-04-30T08:16:52.103Z</time></trkpt><trkpt lat="39.94083537773794" lon="9.186751351558257"><ele>841.0</ele><time>2026-04-30T08:16:53.103Z</time></trkpt><trkpt lat="39.94099676987338" lon="9.18663715078281"><ele>841.0</ele><time>2026-04-30T08:16:54.103Z</time></trkpt><trkpt lat="39.94110808622304" lon="9.186513968512207"><ele>836.5</ele><time>2026-04-30T08:16:55.103Z</time></trkpt><trkpt lat="39.941173444309804" lon="9.186358356709748"><ele>832.0</ele><time>2026-04-30T08:16:56.103Z</time></trkpt><trkpt lat="39.94120228293452" lon="9.186160056033971"><ele>827.5</ele><time>2026-04-30T08:16:57.103Z</time></trkpt><trkpt lat="39.941169466020746" lon="9.185958446399892"><ele>823.0</ele><time>2026-04-30T08:16:58.103Z</time></trkpt><trkpt lat="39.94108636775782" lon="9.185767415899575"><ele>824.3333333333333</ele><time>2026-04-30T08:16:59.103Z</time></trkpt><trkpt lat="39.940977281782494" lon="9.185616233748545"><ele>825.6666666666667</ele><time>2026-04-30T08:17:00.103Z</time></trkpt><trkpt lat="39.940828467086995" lon="9.18551749118841"><ele>827.0</ele><time>2026-04-30T08:17:01.103Z</time></trkpt><trkpt lat="39.940658288817744" lon="9.185480805147005"><ele>827.0</ele><time>2026-04-30T08:17:02.103Z</time></trkpt><trkpt lat="39.94051305708795" lon="9.185438616118272"><ele>827.0</ele><time>2026-04-30T08:17:03.103Z</time></trkpt><trkpt lat="39.94041292214788" lon="9.185337668397057"><ele>827.0</ele><time>2026-04-30T08:17:04.103Z</time></trkpt><trkpt lat="39.940340470344" lon="9.185186978687883"><ele>827.0</ele><time>2026-04-30T08:17:05.103Z</time></trkpt><trkpt lat="39.940325424138194" lon="9.184960450366749"><ele>823.5</ele><time>2026-04-30T08:17:06.103Z</time></trkpt><trkpt lat="39.94034141811058" lon="9.184692427527118"><ele>820.0</ele><time>2026-04-30T08:17:07.103Z</time></trkpt><trkpt lat="39.94039199495933" lon="9.184373139289685"><ele>820.0</ele><time>2026-04-30T08:17:08.103Z</time></trkpt><trkpt lat="39.940436300474865" lon="9.184087412097904"><ele>820.0</ele><time>2026-04-30T08:17:09.103Z</time></trkpt><trkpt lat="39.94045472557695" lon="9.183849286663165"><ele>820.0</ele><time>2026-04-30T08:17:10.103Z</time></trkpt><trkpt lat="39.94043817715122" lon="9.18362099887616"><ele>817.0</ele><time>2026-04-30T08:17:11.103Z</time></trkpt><trkpt lat="39.94037724481189" lon="9.183391379314864"><ele>814.0</ele><time>2026-04-30T08:17:12.103Z</time></trkpt><trkpt lat="39.94026172226773" lon="9.183213961749658"><ele>811.0</ele><time>2026-04-30T08:17:13.104Z</time></trkpt><trkpt lat="39.94010691435957" lon="9.183073651944543"><ele>812.0</ele><time>2026-04-30T08:17:14.104Z</time></trkpt><trkpt lat="39.93990993656052" lon="9.182954428546775"><ele>813.0</ele><time>2026-04-30T08:17:15.104Z</time></trkpt><trkpt lat="39.939717804546724" lon="9.182872818447642"><ele>814.0</ele><time>2026-04-30T08:17:16.105Z</time></trkpt><trkpt lat="39.939549563108706" lon="9.182872908681556"><ele>814.0</ele><time>2026-04-30T08:17:17.104Z</time></trkpt><trkpt lat="39.939376137528996" lon="9.182939563051995"><ele>814.0</ele><time>2026-04-30T08:17:18.104Z</time></trkpt><trkpt lat="39.93920377878084" lon="9.18297368495439"><ele>814.0</ele><time>2026-04-30T08:17:19.105Z</time></trkpt><trkpt lat="39.939067592524296" lon="9.182898885797126"><ele>817.0</ele><time>2026-04-30T08:17:20.105Z</time></trkpt><trkpt lat="39.938964162798534" lon="9.182777114996398"><ele>820.0</ele><time>2026-04-30T08:17:21.105Z</time></trkpt><trkpt lat="39.93894928215088" lon="9.182577277529782"><ele>823.0</ele><time>2026-04-30T08:17:22.104Z</time></trkpt><trkpt lat="39.938967431410276" lon="9.18237323082819"><ele>821.0</ele><time>2026-04-30T08:17:23.105Z</time></trkpt><trkpt lat="39.939031985000916" lon="9.182171372938562"><ele>819.0</ele><time>2026-04-30T08:17:24.105Z</time></trkpt><trkpt lat="39.9391004403549" lon="9.18196893025127"><ele>817.0</ele><time>2026-04-30T08:17:25.105Z</time></trkpt><trkpt lat="39.939135623893435" lon="9.181779119697136"><ele>817.0</ele><time>2026-04-30T08:17:26.105Z</time></trkpt><trkpt lat="39.93912286458642" lon="9.1815729048732"><ele>817.0</ele><time>2026-04-30T08:17:27.105Z</time></trkpt><trkpt lat="39.93904561062968" lon="9.181430996388388"><ele>817.0</ele><time>2026-04-30T08:17:28.105Z</time></trkpt><trkpt lat="39.93892722733148" lon="9.181320722613505"><ele>817.0</ele><time>2026-04-30T08:17:29.105Z</time></trkpt><trkpt lat="39.938769238911945" lon="9.181275056559086"><ele>816.3333333333333</ele><time>2026-04-30T08:17:30.105Z</time></trkpt><trkpt lat="39.93859547782715" lon="9.181266746168893"><ele>815.6666666666667</ele><time>2026-04-30T08:17:31.105Z</time></trkpt><trkpt lat="39.93841849722364" lon="9.181235700865864"><ele>815.0</ele><time>2026-04-30T08:17:32.105Z</time></trkpt><trkpt lat="39.938281988339185" lon="9.18114332888829"><ele>815.0</ele><time>2026-04-30T08:17:33.105Z</time></trkpt><trkpt lat="39.93816659157088" lon="9.181006360035486"><ele>815.0</ele><time>2026-04-30T08:17:34.105Z</time></trkpt><trkpt lat="39.93810115841711" lon="9.180841347517577"><ele>815.0</ele><time>2026-04-30T08:17:35.105Z</time></trkpt><trkpt lat="39.93809787026249" lon="9.180649964782418"><ele>815.0</ele><time>2026-04-30T08:17:36.105Z</time></trkpt><trkpt lat="39.93812736246755" lon="9.180428035063526"><ele>812.0</ele><time>2026-04-30T08:17:37.105Z</time></trkpt><trkpt lat="39.93812537522135" lon="9.180212577141171"><ele>809.0</ele><time>2026-04-30T08:17:38.105Z</time></trkpt><trkpt lat="39.93806852220563" lon="9.18001689653235"><ele>806.0</ele><time>2026-04-30T08:17:39.105Z</time></trkpt><trkpt lat="39.93794099644408" lon="9.179854146859183"><ele>801.3333333333334</ele><time>2026-04-30T08:17:40.105Z</time></trkpt><trkpt lat="39.93777399163729" lon="9.179716604891407"><ele>796.6666666666667</ele><time>2026-04-30T08:17:41.105Z</time></trkpt><trkpt lat="39.93764471236188" lon="9.179576590922702"><ele>792.0</ele><time>2026-04-30T08:17:42.105Z</time></trkpt><trkpt lat="39.9375669256611" lon="9.179395294168257"><ele>795.3333333333333</ele><time>2026-04-30T08:17:43.105Z</time></trkpt><trkpt lat="39.937523760843874" lon="9.179163435927226"><ele>798.6666666666666</ele><time>2026-04-30T08:17:44.105Z</time></trkpt><trkpt lat="39.937485629037454" lon="9.178900083924509"><ele>802.0</ele><time>2026-04-30T08:17:45.105Z</time></trkpt><trkpt lat="39.93739520032897" lon="9.178630118774992"><ele>802.0</ele><time>2026-04-30T08:17:46.105Z</time></trkpt><trkpt lat="39.93727849551857" lon="9.178370785380212"><ele>802.0</ele><time>2026-04-30T08:17:47.105Z</time></trkpt><trkpt lat="39.9371262530677" lon="9.178143555487551"><ele>794.0</ele><time>2026-04-30T08:17:48.105Z</time></trkpt><trkpt lat="39.936933814313385" lon="9.177966164499157"><ele>786.0</ele><time>2026-04-30T08:17:49.105Z</time></trkpt><trkpt lat="39.93672509691567" lon="9.177789864758244"><ele>785.0</ele><time>2026-04-30T08:17:50.105Z</time></trkpt><trkpt lat="39.936519120694136" lon="9.177576846335434"><ele>784.0</ele><time>2026-04-30T08:17:51.105Z</time></trkpt><trkpt lat="39.936345863487674" lon="9.177351363300469"><ele>784.0</ele><time>2026-04-30T08:17:52.105Z</time></trkpt><trkpt lat="39.93619447464232" lon="9.17713541206615"><ele>784.0</ele><time>2026-04-30T08:17:53.105Z</time></trkpt><trkpt lat="39.93605179447997" lon="9.176940584780688"><ele>784.0</ele><time>2026-04-30T08:17:54.105Z</time></trkpt><trkpt lat="39.93589550724993" lon="9.176789150491615"><ele>788.6666666666666</ele><time>2026-04-30T08:17:55.105Z</time></trkpt><trkpt lat="39.935738436127714" lon="9.176683754681061"><ele>793.3333333333333</ele><time>2026-04-30T08:17:56.105Z</time></trkpt><trkpt lat="39.93557723592905" lon="9.176617600557535"><ele>798.0</ele><time>2026-04-30T08:17:57.105Z</time></trkpt><trkpt lat="39.93539069525245" lon="9.176603987263318"><ele>798.0</ele><time>2026-04-30T08:17:58.105Z</time></trkpt><trkpt lat="39.935210564772085" lon="9.176621033012731"><ele>798.0</ele><time>2026-04-30T08:17:59.105Z</time></trkpt><trkpt lat="39.93505226738289" lon="9.176660648368454"><ele>798.0</ele><time>2026-04-30T08:18:00.105Z</time></trkpt><trkpt lat="39.93491405150847" lon="9.17675463127251"><ele>797.0</ele><time>2026-04-30T08:18:01.105Z</time></trkpt><trkpt lat="39.934799574849336" lon="9.176896833306964"><ele>796.0</ele><time>2026-04-30T08:18:02.105Z</time></trkpt><trkpt lat="39.934720408614545" lon="9.177094390093801"><ele>795.0</ele><time>2026-04-30T08:18:03.105Z</time></trkpt><trkpt lat="39.93467687432944" lon="9.177337639082834"><ele>800.3333333333333</ele><time>2026-04-30T08:18:04.105Z</time></trkpt><trkpt lat="39.93463176208346" lon="9.17761331352776"><ele>805.6666666666666</ele><time>2026-04-30T08:18:05.105Z</time></trkpt><trkpt lat="39.93457134137939" lon="9.177896339556584"><ele>811.0</ele><time>2026-04-30T08:18:06.105Z</time></trkpt><trkpt lat="39.93450564108801" lon="9.178179303786747"><ele>814.0</ele><time>2026-04-30T08:18:07.105Z</time></trkpt><trkpt lat="39.93444056140737" lon="9.178436311952465"><ele>817.0</ele><time>2026-04-30T08:18:08.105Z</time></trkpt><trkpt lat="39.93437280325937" lon="9.178670495379063"><ele>820.0</ele><time>2026-04-30T08:18:09.105Z</time></trkpt><trkpt lat="39.934307022934824" lon="9.178885542377095"><ele>821.25</ele><time>2026-04-30T08:18:10.105Z</time></trkpt><trkpt lat="39.93425716756573" lon="9.179092849426663"><ele>822.5</ele><time>2026-04-30T08:18:11.105Z</time></trkpt><trkpt lat="39.9342002658196" lon="9.179264914256516"><ele>823.75</ele><time>2026-04-30T08:18:12.105Z</time></trkpt><trkpt lat="39.93411646452575" lon="9.179390177466498"><ele>825.0</ele><time>2026-04-30T08:18:13.105Z</time></trkpt><trkpt lat="39.933996925630915" lon="9.179459124488497"><ele>816.0</ele><time>2026-04-30T08:18:14.105Z</time></trkpt><trkpt lat="39.93383899974532" lon="9.179489619598316"><ele>807.0</ele><time>2026-04-30T08:18:15.105Z</time></trkpt><trkpt lat="39.933681132667616" lon="9.17948419082881"><ele>798.0</ele><time>2026-04-30T08:18:16.105Z</time></trkpt><trkpt lat="39.93355247305214" lon="9.17941427130376"><ele>798.0</ele><time>2026-04-30T08:18:17.105Z</time></trkpt><trkpt lat="39.93344934848789" lon="9.17929304916122"><ele>798.0</ele><time>2026-04-30T08:18:18.105Z</time></trkpt><trkpt lat="39.933380327031074" lon="9.179119058109068"><ele>798.0</ele><time>2026-04-30T08:18:19.105Z</time></trkpt><trkpt lat="39.933348750540745" lon="9.178904701701423"><ele>794.6666666666667</ele><time>2026-04-30T08:18:20.105Z</time></trkpt><trkpt lat="39.93329021258658" lon="9.17866936578237"><ele>791.3333333333334</ele><time>2026-04-30T08:18:21.105Z</time></trkpt><trkpt lat="39.93318190539194" lon="9.178425473350718"><ele>788.0</ele><time>2026-04-30T08:18:22.105Z</time></trkpt><trkpt lat="39.93309724428472" lon="9.17818740519457"><ele>782.6666666666667</ele><time>2026-04-30T08:18:23.105Z</time></trkpt><trkpt lat="39.93299459461752" lon="9.177993465259348"><ele>777.3333333333333</ele><time>2026-04-30T08:18:24.105Z</time></trkpt><trkpt lat="39.932876648890336" lon="9.17784897967114"><ele>772.0</ele><time>2026-04-30T08:18:25.105Z</time></trkpt><trkpt lat="39.932718914355284" lon="9.177770404465875"><ele>776.3333333333333</ele><time>2026-04-30T08:18:26.105Z</time></trkpt><trkpt lat="39.93254027189447" lon="9.1777480485285"><ele>780.6666666666667</ele><time>2026-04-30T08:18:27.105Z</time></trkpt><trkpt lat="39.93237662498756" lon="9.177733748639852"><ele>785.0</ele><time>2026-04-30T08:18:28.105Z</time></trkpt><trkpt lat="39.93224409527484" lon="9.177665349463883"><ele>785.0</ele><time>2026-04-30T08:18:29.105Z</time></trkpt><trkpt lat="39.93212866404417" lon="9.177519406355705"><ele>785.0</ele><time>2026-04-30T08:18:30.106Z</time></trkpt><trkpt lat="39.932024109873986" lon="9.17735777686284"><ele>785.0</ele><time>2026-04-30T08:18:31.106Z</time></trkpt><trkpt lat="39.931894521871044" lon="9.177239494861817"><ele>780.6666666666667</ele><time>2026-04-30T08:18:32.106Z</time></trkpt><trkpt lat="39.93171533356529" lon="9.17719713547865"><ele>776.3333333333333</ele><time>2026-04-30T08:18:33.106Z</time></trkpt><trkpt lat="39.93152184735041" lon="9.177204578243732"><ele>772.0</ele><time>2026-04-30T08:18:34.106Z</time></trkpt><trkpt lat="39.93127967699058" lon="9.17723869338528"><ele>772.0</ele><time>2026-04-30T08:18:35.106Z</time></trkpt><trkpt lat="39.93104237207601" lon="9.177244175912092"><ele>772.0</ele><time>2026-04-30T08:18:36.106Z</time></trkpt><trkpt lat="39.93082281389009" lon="9.17725068568878"><ele>771.0</ele><time>2026-04-30T08:18:37.106Z</time></trkpt><trkpt lat="39.930622108662995" lon="9.177268168720984"><ele>770.0</ele><time>2026-04-30T08:18:38.106Z</time></trkpt><trkpt lat="39.93043737482389" lon="9.177294137831602"><ele>769.0</ele><time>2026-04-30T08:18:39.106Z</time></trkpt><trkpt lat="39.930260016354836" lon="9.177332115758556"><ele>775.0</ele><time>2026-04-30T08:18:40.106Z</time></trkpt><trkpt lat="39.93010440798614" lon="9.177374948859393"><ele>781.0</ele><time>2026-04-30T08:18:41.106Z</time></trkpt><trkpt lat="39.929948313156565" lon="9.177405780391346"><ele>787.0</ele><time>2026-04-30T08:18:42.106Z</time></trkpt><trkpt lat="39.929808967350134" lon="9.177385056765031"><ele>781.0</ele><time>2026-04-30T08:18:43.106Z</time></trkpt><trkpt lat="39.92968706053016" lon="9.17730611739822"><ele>775.0</ele><time>2026-04-30T08:18:44.106Z</time></trkpt><trkpt lat="39.92958782355676" lon="9.177170299480506"><ele>769.0</ele><time>2026-04-30T08:18:45.106Z</time></trkpt><trkpt lat="39.92948689193177" lon="9.176999714155027"><ele>763.0</ele><time>2026-04-30T08:18:46.106Z</time></trkpt><trkpt lat="39.929365057320304" lon="9.176818366024087"><ele>763.0</ele><time>2026-04-30T08:18:47.106Z</time></trkpt><trkpt lat="39.92923654174891" lon="9.176656603730141"><ele>763.0</ele><time>2026-04-30T08:18:48.106Z</time></trkpt><trkpt lat="39.92908567114291" lon="9.176571685286538"><ele>763.0</ele><time>2026-04-30T08:18:49.106Z</time></trkpt><trkpt lat="39.92890789369777" lon="9.176564906717548"><ele>764.6666666666667</ele><time>2026-04-30T08:18:50.106Z</time></trkpt><trkpt lat="39.92871566540692" lon="9.176629524034743"><ele>766.3333333333334</ele><time>2026-04-30T08:18:51.106Z</time></trkpt><trkpt lat="39.928512137467486" lon="9.176732112842055"><ele>768.0</ele><time>2026-04-30T08:18:52.106Z</time></trkpt><trkpt lat="39.928307680017205" lon="9.176854842014505"><ele>768.0</ele><time>2026-04-30T08:18:53.106Z</time></trkpt><trkpt lat="39.92812187939171" lon="9.176963171825337"><ele>768.0</ele><time>2026-04-30T08:18:54.106Z</time></trkpt><trkpt lat="39.92793478562392" lon="9.177012583501945"><ele>768.0</ele><time>2026-04-30T08:18:55.106Z</time></trkpt><trkpt lat="39.92776057871117" lon="9.177027264795385"><ele>768.0</ele><time>2026-04-30T08:18:56.106Z</time></trkpt><trkpt lat="39.9276069123131" lon="9.177044260681196"><ele>768.0</ele><time>2026-04-30T08:18:57.106Z</time></trkpt><trkpt lat="39.92748199331886" lon="9.17712193106188"><ele>768.0</ele><time>2026-04-30T08:18:58.106Z</time></trkpt><trkpt lat="39.92737654433914" lon="9.177280734109281"><ele>771.0</ele><time>2026-04-30T08:18:59.106Z</time></trkpt><trkpt lat="39.92732697209146" lon="9.177486406228157"><ele>774.0</ele><time>2026-04-30T08:19:00.106Z</time></trkpt><trkpt lat="39.927316466162466" lon="9.177703389448206"><ele>777.0</ele><time>2026-04-30T08:19:01.106Z</time></trkpt><trkpt lat="39.927280644783096" lon="9.17790423354908"><ele>777.0</ele><time>2026-04-30T08:19:02.106Z</time></trkpt><trkpt lat="39.927182140450086" lon="9.178074557814291"><ele>777.0</ele><time>2026-04-30T08:19:03.106Z</time></trkpt><trkpt lat="39.92703681007539" lon="9.178195753000193"><ele>777.0</ele><time>2026-04-30T08:19:04.106Z</time></trkpt><trkpt lat="39.92685794260857" lon="9.178280201734026"><ele>775.0</ele><time>2026-04-30T08:19:05.106Z</time></trkpt><trkpt lat="39.92664146230691" lon="9.17835068010763"><ele>773.0</ele><time>2026-04-30T08:19:06.106Z</time></trkpt><trkpt lat="39.92644969622346" lon="9.178441270420791"><ele>771.0</ele><time>2026-04-30T08:19:07.106Z</time></trkpt><trkpt lat="39.92627026883185" lon="9.178582944887149"><ele>771.0</ele><time>2026-04-30T08:19:08.106Z</time></trkpt><trkpt lat="39.92611494698555" lon="9.178774163363467"><ele>771.0</ele><time>2026-04-30T08:19:09.106Z</time></trkpt><trkpt lat="39.92597906152619" lon="9.178975051108297"><ele>771.0</ele><time>2026-04-30T08:19:10.106Z</time></trkpt><trkpt lat="39.92586590786901" lon="9.179189228018306"><ele>772.0</ele><time>2026-04-30T08:19:11.106Z</time></trkpt><trkpt lat="39.92574372254472" lon="9.179374407277077"><ele>773.0</ele><time>2026-04-30T08:19:12.106Z</time></trkpt><trkpt lat="39.92561173578753" lon="9.17950970227285"><ele>774.0</ele><time>2026-04-30T08:19:13.106Z</time></trkpt><trkpt lat="39.92548773260944" lon="9.179625134665484"><ele>774.0</ele><time>2026-04-30T08:19:14.106Z</time></trkpt><trkpt lat="39.9253747191348" lon="9.179745282148025"><ele>774.0</ele><time>2026-04-30T08:19:15.106Z</time></trkpt><trkpt lat="39.92528168409323" lon="9.17987503788804"><ele>774.0</ele><time>2026-04-30T08:19:16.106Z</time></trkpt><trkpt lat="39.925187259347126" lon="9.180036594050156"><ele>774.0</ele><time>2026-04-30T08:19:17.106Z</time></trkpt><trkpt lat="39.92509771968516" lon="9.180195843772426"><ele>776.75</ele><time>2026-04-30T08:19:18.106Z</time></trkpt><trkpt lat="39.92500623371934" lon="9.180322104375357"><ele>779.5</ele><time>2026-04-30T08:19:19.107Z</time></trkpt><trkpt lat="39.92491405003355" lon="9.180442825323249"><ele>782.25</ele><time>2026-04-30T08:19:20.107Z</time></trkpt><trkpt lat="39.92478944565944" lon="9.180566237493064"><ele>785.0</ele><time>2026-04-30T08:19:21.107Z</time></trkpt><trkpt lat="39.92463212212924" lon="9.18068361019727"><ele>785.0</ele><time>2026-04-30T08:19:22.107Z</time></trkpt><trkpt lat="39.92444567042983" lon="9.180832976483714"><ele>785.0</ele><time>2026-04-30T08:19:23.107Z</time></trkpt><trkpt lat="39.92425985229109" lon="9.180967804276568"><ele>785.0</ele><time>2026-04-30T08:19:24.107Z</time></trkpt><trkpt lat="39.924088800939" lon="9.181101444562351"><ele>780.3333333333334</ele><time>2026-04-30T08:19:25.107Z</time></trkpt><trkpt lat="39.92395519010347" lon="9.18128118960597"><ele>775.6666666666667</ele><time>2026-04-30T08:19:26.107Z</time></trkpt><trkpt lat="39.9238580184895" lon="9.18147459828841"><ele>771.0</ele><time>2026-04-30T08:19:27.107Z</time></trkpt><trkpt lat="39.92382012821457" lon="9.181661611818912"><ele>771.0</ele><time>2026-04-30T08:19:28.107Z</time></trkpt><trkpt lat="39.92384472360065" lon="9.181833043833091"><ele>771.0</ele><time>2026-04-30T08:19:29.107Z</time></trkpt><trkpt lat="39.923923636908114" lon="9.181976516083084"><ele>771.0</ele><time>2026-04-30T08:19:30.107Z</time></trkpt><trkpt lat="39.92405467781417" lon="9.182070727777262"><ele>771.0</ele><time>2026-04-30T08:19:31.107Z</time></trkpt><trkpt lat="39.92422956180315" lon="9.182135109014041"><ele>779.0</ele><time>2026-04-30T08:19:32.107Z</time></trkpt><trkpt lat="39.92445706397153" lon="9.18220580575494"><ele>787.0</ele><time>2026-04-30T08:19:33.107Z</time></trkpt><trkpt lat="39.92470235209561" lon="9.182268686294826"><ele>787.0</ele><time>2026-04-30T08:19:34.107Z</time></trkpt><trkpt lat="39.92490937158852" lon="9.18233665839808"><ele>787.0</ele><time>2026-04-30T08:19:35.107Z</time></trkpt><trkpt lat="39.925080716874554" lon="9.182437747746206"><ele>787.0</ele><time>2026-04-30T08:19:36.107Z</time></trkpt><trkpt lat="39.92522699832468" lon="9.182611742592282"><ele>785.6666666666666</ele><time>2026-04-30T08:19:37.107Z</time></trkpt><trkpt lat="39.92534403599084" lon="9.1828260192693"><ele>784.3333333333333</ele><time>2026-04-30T08:19:38.107Z</time></trkpt><trkpt lat="39.92545820334667" lon="9.183018599819896"><ele>783.0</ele><time>2026-04-30T08:19:39.107Z</time></trkpt><trkpt lat="39.925597646905416" lon="9.183155255401479"><ele>775.0</ele><time>2026-04-30T08:19:40.107Z</time></trkpt><trkpt lat="39.92579718570279" lon="9.183254813996959"><ele>767.0</ele><time>2026-04-30T08:19:41.107Z</time></trkpt><trkpt lat="39.926044284284764" lon="9.183337537161933"><ele>767.0</ele><time>2026-04-30T08:19:42.107Z</time></trkpt><trkpt lat="39.926304867604465" lon="9.183421606378872"><ele>767.0</ele><time>2026-04-30T08:19:43.107Z</time></trkpt><trkpt lat="39.92653842355368" lon="9.18349302042391"><ele>772.0</ele><time>2026-04-30T08:19:44.107Z</time></trkpt><trkpt lat="39.926744507182185" lon="9.183578144213236"><ele>777.0</ele><time>2026-04-30T08:19:45.107Z</time></trkpt><trkpt lat="39.92693132134867" lon="9.183648468332883"><ele>782.0</ele><time>2026-04-30T08:19:46.107Z</time></trkpt><trkpt lat="39.92710632729383" lon="9.18371359572021"><ele>782.0</ele><time>2026-04-30T08:19:47.107Z</time></trkpt><trkpt lat="39.92726932276887" lon="9.183763494803147"><ele>782.0</ele><time>2026-04-30T08:19:48.107Z</time></trkpt><trkpt lat="39.92744153672461" lon="9.183808959052547"><ele>782.0</ele><time>2026-04-30T08:19:49.107Z</time></trkpt><trkpt lat="39.92763226893065" lon="9.183845366711537"><ele>779.75</ele><time>2026-04-30T08:19:50.107Z</time></trkpt><trkpt lat="39.92780558342896" lon="9.183883256106622"><ele>777.5</ele><time>2026-04-30T08:19:51.107Z</time></trkpt><trkpt lat="39.927947405010244" lon="9.183908625623177"><ele>775.25</ele><time>2026-04-30T08:19:52.107Z</time></trkpt><trkpt lat="39.92805371072934" lon="9.183959056468712"><ele>773.0</ele><time>2026-04-30T08:19:53.107Z</time></trkpt><trkpt lat="39.92811535889939" lon="9.184065794356695"><ele>773.0</ele><time>2026-04-30T08:19:54.107Z</time></trkpt><trkpt lat="39.92813354871221" lon="9.1841915972677"><ele>773.0</ele><time>2026-04-30T08:19:55.107Z</time></trkpt><trkpt lat="39.92809448732201" lon="9.184327197848344"><ele>773.0</ele><time>2026-04-30T08:19:56.107Z</time></trkpt><trkpt lat="39.9279803410375" lon="9.184434018001552"><ele>773.0</ele><time>2026-04-30T08:19:57.107Z</time></trkpt><trkpt lat="39.92781494022591" lon="9.184548404038269"><ele>773.0</ele><time>2026-04-30T08:19:58.107Z</time></trkpt><trkpt lat="39.92762434236566" lon="9.184693971388423"><ele>773.0</ele><time>2026-04-30T08:19:59.107Z</time></trkpt><trkpt lat="39.92740645073361" lon="9.184882771748688"><ele>769.0</ele><time>2026-04-30T08:20:00.107Z</time></trkpt><trkpt lat="39.92716647037586" lon="9.185035195641358"><ele>765.0</ele><time>2026-04-30T08:20:01.107Z</time></trkpt><trkpt lat="39.926922414052896" lon="9.185102904449941"><ele>757.5</ele><time>2026-04-30T08:20:02.107Z</time></trkpt><trkpt lat="39.92669847242023" lon="9.185135839623518"><ele>750.0</ele><time>2026-04-30T08:20:03.107Z</time></trkpt><trkpt lat="39.92646620808578" lon="9.185293630729849"><ele>750.0</ele><time>2026-04-30T08:20:04.107Z</time></trkpt><trkpt lat="39.926250404484556" lon="9.185481981444468"><ele>750.0</ele><time>2026-04-30T08:20:05.107Z</time></trkpt><trkpt lat="39.92605111117865" lon="9.185693654984973"><ele>751.5</ele><time>2026-04-30T08:20:06.107Z</time></trkpt><trkpt lat="39.9258729421746" lon="9.185964833834856"><ele>753.0</ele><time>2026-04-30T08:20:07.107Z</time></trkpt><trkpt lat="39.92571475124631" lon="9.186234575833103"><ele>753.0</ele><time>2026-04-30T08:20:08.107Z</time></trkpt><trkpt lat="39.92556794090486" lon="9.18646001967927"><ele>753.0</ele><time>2026-04-30T08:20:09.107Z</time></trkpt><trkpt lat="39.92542984972993" lon="9.186594667009937"><ele>753.0</ele><time>2026-04-30T08:20:10.107Z</time></trkpt><trkpt lat="39.92528192342855" lon="9.186681635020653"><ele>759.0</ele><time>2026-04-30T08:20:11.107Z</time></trkpt><trkpt lat="39.925184284244864" lon="9.186808138127532"><ele>765.0</ele><time>2026-04-30T08:20:12.107Z</time></trkpt><trkpt lat="39.925133502473145" lon="9.187009685405942"><ele>771.0</ele><time>2026-04-30T08:20:13.107Z</time></trkpt><trkpt lat="39.925153312767875" lon="9.187241832671688"><ele>771.0</ele><time>2026-04-30T08:20:14.107Z</time></trkpt><trkpt lat="39.925274813285085" lon="9.187530716500486"><ele>771.0</ele><time>2026-04-30T08:20:15.107Z</time></trkpt><trkpt lat="39.925374577140424" lon="9.187844842522642"><ele>771.0</ele><time>2026-04-30T08:20:16.107Z</time></trkpt><trkpt lat="39.92549271865766" lon="9.18816511708003"><ele>771.0</ele><time>2026-04-30T08:20:17.107Z</time></trkpt><trkpt lat="39.92564013100421" lon="9.188450927397572"><ele>765.5</ele><time>2026-04-30T08:20:18.107Z</time></trkpt><trkpt lat="39.925811964142824" lon="9.188725768116782"><ele>760.0</ele><time>2026-04-30T08:20:19.107Z</time></trkpt><trkpt lat="39.925957000093334" lon="9.18898599984233"><ele>765.3333333333334</ele><time>2026-04-30T08:20:20.107Z</time></trkpt><trkpt lat="39.92606921025726" lon="9.189199702821963"><ele>770.6666666666667</ele><time>2026-04-30T08:20:21.107Z</time></trkpt><trkpt lat="39.9261594932056" lon="9.18936310341041"><ele>776.0</ele><time>2026-04-30T08:20:22.107Z</time></trkpt><trkpt lat="39.926216241097485" lon="9.189489094675233"><ele>776.0</ele><time>2026-04-30T08:20:23.107Z</time></trkpt><trkpt lat="39.92621404822492" lon="9.189619167312959"><ele>776.0</ele><time>2026-04-30T08:20:24.107Z</time></trkpt><trkpt lat="39.92616223946573" lon="9.189726929258889"><ele>776.0</ele><time>2026-04-30T08:20:25.107Z</time></trkpt><trkpt lat="39.92606096961636" lon="9.189802126477229"><ele>776.0</ele><time>2026-04-30T08:20:26.107Z</time></trkpt><trkpt lat="39.9258948458816" lon="9.189848975692895"><ele>768.3333333333334</ele><time>2026-04-30T08:20:27.107Z</time></trkpt><trkpt lat="39.92572469417728" lon="9.189873942057327"><ele>760.6666666666667</ele><time>2026-04-30T08:20:28.107Z</time></trkpt><trkpt lat="39.92553943756382" lon="9.189835039907498"><ele>753.0</ele><time>2026-04-30T08:20:29.107Z</time></trkpt><trkpt lat="39.92531217407033" lon="9.18972181261516"><ele>742.5</ele><time>2026-04-30T08:20:30.107Z</time></trkpt><trkpt lat="39.92505307467073" lon="9.189578176018601"><ele>732.0</ele><time>2026-04-30T08:20:31.107Z</time></trkpt><trkpt lat="39.92473345710902" lon="9.189420437718365"><ele>732.0</ele><time>2026-04-30T08:20:32.107Z</time></trkpt><trkpt lat="39.924462776544765" lon="9.18927830244747"><ele>732.0</ele><time>2026-04-30T08:20:33.107Z</time></trkpt><trkpt lat="39.92420954196257" lon="9.18913862806218"><ele>725.5</ele><time>2026-04-30T08:20:34.107Z</time></trkpt><trkpt lat="39.92399005508224" lon="9.18899222926285"><ele>719.0</ele><time>2026-04-30T08:20:35.107Z</time></trkpt><trkpt lat="39.92379652813059" lon="9.188835875459326"><ele>719.0</ele><time>2026-04-30T08:20:36.107Z</time></trkpt><trkpt lat="39.92361692257968" lon="9.188640683024493"><ele>719.0</ele><time>2026-04-30T08:20:37.107Z</time></trkpt><trkpt lat="39.923443894139766" lon="9.188393494443071"><ele>720.0</ele><time>2026-04-30T08:20:38.107Z</time></trkpt><trkpt lat="39.923303569623904" lon="9.188129183319857"><ele>721.0</ele><time>2026-04-30T08:20:39.107Z</time></trkpt><trkpt lat="39.92316488176188" lon="9.18789791081994"><ele>721.0</ele><time>2026-04-30T08:20:40.107Z</time></trkpt><trkpt lat="39.92300432158315" lon="9.187714666298444"><ele>721.0</ele><time>2026-04-30T08:20:41.107Z</time></trkpt><trkpt lat="39.922797747497654" lon="9.187572964181237"><ele>721.0</ele><time>2026-04-30T08:20:42.107Z</time></trkpt><trkpt lat="39.92258500791091" lon="9.18747581496447"><ele>721.3333333333334</ele><time>2026-04-30T08:20:43.107Z</time></trkpt><trkpt lat="39.92241284902608" lon="9.18739689867436"><ele>721.6666666666666</ele><time>2026-04-30T08:20:44.107Z</time></trkpt><trkpt lat="39.922282268229495" lon="9.187286159623975"><ele>722.0</ele><time>2026-04-30T08:20:45.107Z</time></trkpt><trkpt lat="39.92217720737036" lon="9.187093096851633"><ele>722.0</ele><time>2026-04-30T08:20:46.107Z</time></trkpt><trkpt lat="39.922086489631326" lon="9.18684527174265"><ele>722.0</ele><time>2026-04-30T08:20:47.107Z</time></trkpt><trkpt lat="39.92197994073564" lon="9.186649768831595"><ele>722.0</ele><time>2026-04-30T08:20:48.107Z</time></trkpt><trkpt lat="39.921837305267545" lon="9.18654717597215"><ele>719.3333333333333</ele><time>2026-04-30T08:20:49.107Z</time></trkpt><trkpt lat="39.92164219266431" lon="9.186493525047458"><ele>716.6666666666666</ele><time>2026-04-30T08:20:50.107Z</time></trkpt><trkpt lat="39.92139462675955" lon="9.186466831952757"><ele>714.0</ele><time>2026-04-30T08:20:51.107Z</time></trkpt><trkpt lat="39.92111518863776" lon="9.186428765806394"><ele>716.5</ele><time>2026-04-30T08:20:52.107Z</time></trkpt><trkpt lat="39.92086380547369" lon="9.18635121953057"><ele>719.0</ele><time>2026-04-30T08:20:53.108Z</time></trkpt><trkpt lat="39.92065592342549" lon="9.186270915393878"><ele>719.0</ele><time>2026-04-30T08:20:54.108Z</time></trkpt><trkpt lat="39.92049360689474" lon="9.186183271699528"><ele>719.0</ele><time>2026-04-30T08:20:55.108Z</time></trkpt><trkpt lat="39.92036850053237" lon="9.186109463602635"><ele>719.0</ele><time>2026-04-30T08:20:56.108Z</time></trkpt><trkpt lat="39.92026415937913" lon="9.186069464089403"><ele>719.0</ele><time>2026-04-30T08:20:57.108Z</time></trkpt><trkpt lat="39.92016916617501" lon="9.186033016967938"><ele>719.0</ele><time>2026-04-30T08:20:58.108Z</time></trkpt><trkpt lat="39.92007703880433" lon="9.185984003386482"><ele>719.0</ele><time>2026-04-30T08:20:59.108Z</time></trkpt><trkpt lat="39.91997564841981" lon="9.185943700072103"><ele>719.0</ele><time>2026-04-30T08:21:00.108Z</time></trkpt><trkpt lat="39.91987480476365" lon="9.185903372705672"><ele>719.0</ele><time>2026-04-30T08:21:01.108Z</time></trkpt><trkpt lat="39.91976853204493" lon="9.18586870867479"><ele>719.0</ele><time>2026-04-30T08:21:02.108Z</time></trkpt><trkpt lat="39.919661091675195" lon="9.185846934496428"><ele>720.0</ele><time>2026-04-30T08:21:03.108Z</time></trkpt><trkpt lat="39.919550354672964" lon="9.185812779261493"><ele>721.0</ele><time>2026-04-30T08:21:04.108Z</time></trkpt><trkpt lat="39.91943549842205" lon="9.185782335883218"><ele>722.0</ele><time>2026-04-30T08:21:05.108Z</time></trkpt><trkpt lat="39.91931658558609" lon="9.185748616088532"><ele>723.0</ele><time>2026-04-30T08:21:06.108Z</time></trkpt><trkpt lat="39.91919494578032" lon="9.185726203614912"><ele>723.4</ele><time>2026-04-30T08:21:07.108Z</time></trkpt><trkpt lat="39.91907597393997" lon="9.185698499666803"><ele>723.8</ele><time>2026-04-30T08:21:08.108Z</time></trkpt><trkpt lat="39.918965979785945" lon="9.185664844966142"><ele>724.2</ele><time>2026-04-30T08:21:09.108Z</time></trkpt><trkpt lat="39.91885817201169" lon="9.185629420146629"><ele>724.6</ele><time>2026-04-30T08:21:10.108Z</time></trkpt><trkpt lat="39.91875695106173" lon="9.185605607665785"><ele>725.0</ele><time>2026-04-30T08:21:11.108Z</time></trkpt><trkpt lat="39.918655435470164" lon="9.185569232733656"><ele>722.6</ele><time>2026-04-30T08:21:12.108Z</time></trkpt><trkpt lat="39.918556189302954" lon="9.185535547608037"><ele>720.2</ele><time>2026-04-30T08:21:13.108Z</time></trkpt><trkpt lat="39.91845315427487" lon="9.18549794843052"><ele>717.8</ele><time>2026-04-30T08:21:14.108Z</time></trkpt><trkpt lat="39.918341728058046" lon="9.185449158022276"><ele>715.4</ele><time>2026-04-30T08:21:15.108Z</time></trkpt><trkpt lat="39.91823941071689" lon="9.185371466500538"><ele>713.0</ele><time>2026-04-30T08:21:16.108Z</time></trkpt><trkpt lat="39.91815390615699" lon="9.185248560901746"><ele>713.0</ele><time>2026-04-30T08:21:17.108Z</time></trkpt><trkpt lat="39.91805675328645" lon="9.18513087592003"><ele>713.0</ele><time>2026-04-30T08:21:18.108Z</time></trkpt><trkpt lat="39.91793638373119" lon="9.185037494777962"><ele>713.0</ele><time>2026-04-30T08:21:19.108Z</time></trkpt><trkpt lat="39.91779343967188" lon="9.184989634904529"><ele>713.0</ele><time>2026-04-30T08:21:20.108Z</time></trkpt><trkpt lat="39.917633244895526" lon="9.184998890041058"><ele>712.3333333333333</ele><time>2026-04-30T08:21:21.108Z</time></trkpt><trkpt lat="39.917462469168655" lon="9.185061355059801"><ele>711.6666666666666</ele><time>2026-04-30T08:21:22.108Z</time></trkpt><trkpt lat="39.91731897541005" lon="9.185147867519289"><ele>711.0</ele><time>2026-04-30T08:21:23.108Z</time></trkpt><trkpt lat="39.91720154640229" lon="9.185231184237464"><ele>711.0</ele><time>2026-04-30T08:21:24.108Z</time></trkpt><trkpt lat="39.917085228443746" lon="9.185300157122871"><ele>711.0</ele><time>2026-04-30T08:21:25.11Z</time></trkpt><trkpt lat="39.916977784319194" lon="9.185359284572732"><ele>711.0</ele><time>2026-04-30T08:21:26.109Z</time></trkpt><trkpt lat="39.91686792982436" lon="9.185399315589775"><ele>711.0</ele><time>2026-04-30T08:21:27.109Z</time></trkpt><trkpt lat="39.91675664546999" lon="9.185430102163117"><ele>708.0</ele><time>2026-04-30T08:21:28.109Z</time></trkpt><trkpt lat="39.916638921559105" lon="9.18546011681595"><ele>705.0</ele><time>2026-04-30T08:21:29.109Z</time></trkpt><trkpt lat="39.916522955853566" lon="9.18549960820225"><ele>702.0</ele><time>2026-04-30T08:21:30.109Z</time></trkpt><trkpt lat="39.91640269323366" lon="9.1855416673145"><ele>699.0</ele><time>2026-04-30T08:21:31.109Z</time></trkpt><trkpt lat="39.91628274553133" lon="9.185570762467268"><ele>699.0</ele><time>2026-04-30T08:21:32.11Z</time></trkpt><trkpt lat="39.9161681457593" lon="9.185595582706007"><ele>699.0</ele><time>2026-04-30T08:21:33.11Z</time></trkpt><trkpt lat="39.916060125463616" lon="9.18562219985348"><ele>699.0</ele><time>2026-04-30T08:21:34.109Z</time></trkpt><trkpt lat="39.91595563977195" lon="9.185644286214819"><ele>699.0</ele><time>2026-04-30T08:21:35.109Z</time></trkpt><trkpt lat="39.91585705287117" lon="9.185659182985681"><ele>699.0</ele><time>2026-04-30T08:21:36.109Z</time></trkpt><trkpt lat="39.91575612679708" lon="9.185675302910916"><ele>697.25</ele><time>2026-04-30T08:21:37.109Z</time></trkpt><trkpt lat="39.9156446453807" lon="9.185683414720721"><ele>695.5</ele><time>2026-04-30T08:21:38.109Z</time></trkpt><trkpt lat="39.915531269108364" lon="9.185679772733915"><ele>693.75</ele><time>2026-04-30T08:21:39.109Z</time></trkpt><trkpt lat="39.91541939805912" lon="9.185674300930732"><ele>692.0</ele><time>2026-04-30T08:21:40.109Z</time></trkpt><trkpt lat="39.91530593296766" lon="9.185667932130405"><ele>692.0</ele><time>2026-04-30T08:21:41.109Z</time></trkpt><trkpt lat="39.915191802376555" lon="9.185656329593325"><ele>692.0</ele><time>2026-04-30T08:21:42.109Z</time></trkpt><trkpt lat="39.915076004376964" lon="9.18563320117886"><ele>692.0</ele><time>2026-04-30T08:21:43.109Z</time></trkpt><trkpt lat="39.914970837370404" lon="9.185602145392977"><ele>692.0</ele><time>2026-04-30T08:21:44.109Z</time></trkpt><trkpt lat="39.91487243172941" lon="9.18558953847682"><ele>692.0</ele><time>2026-04-30T08:21:45.109Z</time></trkpt><trkpt lat="39.91477504035446" lon="9.185584372262028"><ele>691.2</ele><time>2026-04-30T08:21:46.109Z</time></trkpt><trkpt lat="39.91467941242922" lon="9.185563605626436"><ele>690.4000000000001</ele><time>2026-04-30T08:21:47.109Z</time></trkpt><trkpt lat="39.91457602832711" lon="9.185550989523406"><ele>689.5999999999999</ele><time>2026-04-30T08:21:48.109Z</time></trkpt><trkpt lat="39.91446442354895" lon="9.18552489413348"><ele>688.8</ele><time>2026-04-30T08:21:49.109Z</time></trkpt><trkpt lat="39.91435322120993" lon="9.185471460388888"><ele>688.0</ele><time>2026-04-30T08:21:50.109Z</time></trkpt><trkpt lat="39.9142523002131" lon="9.185407736299304"><ele>690.0</ele><time>2026-04-30T08:21:51.109Z</time></trkpt><trkpt lat="39.914153302536086" lon="9.185348458524418"><ele>692.0</ele><time>2026-04-30T08:21:52.109Z</time></trkpt><trkpt lat="39.91406242612079" lon="9.185281071503534"><ele>694.0</ele><time>2026-04-30T08:21:53.109Z</time></trkpt><trkpt lat="39.91398189851358" lon="9.185213317933446"><ele>696.0</ele><time>2026-04-30T08:21:54.11Z</time></trkpt><trkpt lat="39.913899281243225" lon="9.185153671329916"><ele>698.0</ele><time>2026-04-30T08:21:55.11Z</time></trkpt><trkpt lat="39.913820151715086" lon="9.185096490830752"><ele>698.0</ele><time>2026-04-30T08:21:56.11Z</time></trkpt><trkpt lat="39.91374033070106" lon="9.185051744802026"><ele>698.0</ele><time>2026-04-30T08:21:57.11Z</time></trkpt><trkpt lat="39.91366530105917" lon="9.185014085572798"><ele>698.0</ele><time>2026-04-30T08:21:58.11Z</time></trkpt><trkpt lat="39.913591964565725" lon="9.184978421304361"><ele>698.0</ele><time>2026-04-30T08:21:59.11Z</time></trkpt><trkpt lat="39.91353081233801" lon="9.184928269021647"><ele>698.0</ele><time>2026-04-30T08:22:00.11Z</time></trkpt><trkpt lat="39.91348448849614" lon="9.184861107608578"><ele>698.0</ele><time>2026-04-30T08:22:01.11Z</time></trkpt><trkpt lat="39.91343054970213" lon="9.18478811454183"><ele>697.0</ele><time>2026-04-30T08:22:02.11Z</time></trkpt><trkpt lat="39.91337880528885" lon="9.184709088292061"><ele>696.0</ele><time>2026-04-30T08:22:03.11Z</time></trkpt><trkpt lat="39.91331646271126" lon="9.18463528300971"><ele>695.0</ele><time>2026-04-30T08:22:04.11Z</time></trkpt><trkpt lat="39.913252541205736" lon="9.184557966309491"><ele>694.0</ele><time>2026-04-30T08:22:05.11Z</time></trkpt><trkpt lat="39.913183030891766" lon="9.1844816444243"><ele>693.0</ele><time>2026-04-30T08:22:06.11Z</time></trkpt><trkpt lat="39.91310798917774" lon="9.184420922707941"><ele>692.0</ele><time>2026-04-30T08:22:07.11Z</time></trkpt><trkpt lat="39.913026983630076" lon="9.1843906830792"><ele>692.0</ele><time>2026-04-30T08:22:08.11Z</time></trkpt><trkpt lat="39.912958494251605" lon="9.18440577278868"><ele>692.0</ele><time>2026-04-30T08:22:09.11Z</time></trkpt><trkpt lat="39.91288835249836" lon="9.184448739151554"><ele>692.0</ele><time>2026-04-30T08:22:10.11Z</time></trkpt><trkpt lat="39.91281694087668" lon="9.18450168338524"><ele>692.0</ele><time>2026-04-30T08:22:11.11Z</time></trkpt><trkpt lat="39.91273563913973" lon="9.184551957613532"><ele>692.0</ele><time>2026-04-30T08:22:12.11Z</time></trkpt><trkpt lat="39.91265406701304" lon="9.184603029709963"><ele>692.0</ele><time>2026-04-30T08:22:13.11Z</time></trkpt><trkpt lat="39.912572490649566" lon="9.184667105153808"><ele>692.4000000000001</ele><time>2026-04-30T08:22:14.11Z</time></trkpt><trkpt lat="39.91249296238617" lon="9.184736034203139"><ele>692.8000000000001</ele><time>2026-04-30T08:22:15.11Z</time></trkpt><trkpt lat="39.91240828094252" lon="9.184782157354638"><ele>693.2</ele><time>2026-04-30T08:22:16.11Z</time></trkpt><trkpt lat="39.91232173381404" lon="9.184803392218553"><ele>693.6</ele><time>2026-04-30T08:22:17.11Z</time></trkpt><trkpt lat="39.91223238497133" lon="9.184837037156568"><ele>694.0</ele><time>2026-04-30T08:22:18.11Z</time></trkpt><trkpt lat="39.91214598604763" lon="9.18483437464066"><ele>694.0</ele><time>2026-04-30T08:22:19.11Z</time></trkpt><trkpt lat="39.91206305047717" lon="9.184790432000739"><ele>694.0</ele><time>2026-04-30T08:22:20.11Z</time></trkpt><trkpt lat="39.91198387070917" lon="9.18471277255361"><ele>694.0</ele><time>2026-04-30T08:22:21.11Z</time></trkpt><trkpt lat="39.91191040864202" lon="9.184662736763613"><ele>694.0</ele><time>2026-04-30T08:22:22.11Z</time></trkpt><trkpt lat="39.911825304872025" lon="9.1846472863324"><ele>694.0</ele><time>2026-04-30T08:22:23.11Z</time></trkpt><trkpt lat="39.91174509266544" lon="9.18466175021999"><ele>694.0</ele><time>2026-04-30T08:22:24.11Z</time></trkpt><trkpt lat="39.91165384872016" lon="9.184668441496031"><ele>690.8000000000001</ele><time>2026-04-30T08:22:25.11Z</time></trkpt><trkpt lat="39.91155555899576" lon="9.18470471481637"><ele>687.6</ele><time>2026-04-30T08:22:26.11Z</time></trkpt><trkpt lat="39.911460301669564" lon="9.18473718030113"><ele>684.4</ele><time>2026-04-30T08:22:27.11Z</time></trkpt><trkpt lat="39.91135438572912" lon="9.184763419485538"><ele>681.2</ele><time>2026-04-30T08:22:28.11Z</time></trkpt><trkpt lat="39.91125851917999" lon="9.18479661927409"><ele>678.0</ele><time>2026-04-30T08:22:29.11Z</time></trkpt><trkpt lat="39.91115970817316" lon="9.184831541462062"><ele>680.0</ele><time>2026-04-30T08:22:30.11Z</time></trkpt><trkpt lat="39.91106076192605" lon="9.18486409760563"><ele>682.0</ele><time>2026-04-30T08:22:31.11Z</time></trkpt><trkpt lat="39.91095889546488" lon="9.184888483622828"><ele>684.0</ele><time>2026-04-30T08:22:32.11Z</time></trkpt><trkpt lat="39.910859345544104" lon="9.184917961046937"><ele>686.0</ele><time>2026-04-30T08:22:33.11Z</time></trkpt><trkpt lat="39.91076433649697" lon="9.184919918961509"><ele>688.0</ele><time>2026-04-30T08:22:34.11Z</time></trkpt><trkpt lat="39.91066518213793" lon="9.184925523714178"><ele>688.0</ele><time>2026-04-30T08:22:35.11Z</time></trkpt><trkpt lat="39.910560298090424" lon="9.184902426934194"><ele>688.0</ele><time>2026-04-30T08:22:36.11Z</time></trkpt><trkpt lat="39.91044832731323" lon="9.184864749915038"><ele>688.0</ele><time>2026-04-30T08:22:37.11Z</time></trkpt><trkpt lat="39.91034350243811" lon="9.184806317739007"><ele>688.0</ele><time>2026-04-30T08:22:38.11Z</time></trkpt><trkpt lat="39.91026082741027" lon="9.184742650188264"><ele>688.0</ele><time>2026-04-30T08:22:39.11Z</time></trkpt><trkpt lat="39.910180465105164" lon="9.184652891639672"><ele>683.25</ele><time>2026-04-30T08:22:40.11Z</time></trkpt><trkpt lat="39.91009216052975" lon="9.184566752209479"><ele>678.5</ele><time>2026-04-30T08:22:41.11Z</time></trkpt><trkpt lat="39.91000119689647" lon="9.184473099978284"><ele>673.75</ele><time>2026-04-30T08:22:42.11Z</time></trkpt><trkpt lat="39.90990887661229" lon="9.184372288492026"><ele>669.0</ele><time>2026-04-30T08:22:43.11Z</time></trkpt><trkpt lat="39.90981183247687" lon="9.184272947633945"><ele>669.0</ele><time>2026-04-30T08:22:44.11Z</time></trkpt><trkpt lat="39.90972128872122" lon="9.184191522103166"><ele>669.0</ele><time>2026-04-30T08:22:45.11Z</time></trkpt><trkpt lat="39.90963455258331" lon="9.184115397491615"><ele>669.0</ele><time>2026-04-30T08:22:46.11Z</time></trkpt><trkpt lat="39.909532062902365" lon="9.184057995088661"><ele>669.0</ele><time>2026-04-30T08:22:47.11Z</time></trkpt><trkpt lat="39.90941301863315" lon="9.184020858424164"><ele>669.0</ele><time>2026-04-30T08:22:48.11Z</time></trkpt><trkpt lat="39.90928370615619" lon="9.183997180104328"><ele>669.0</ele><time>2026-04-30T08:22:49.11Z</time></trkpt><trkpt lat="39.9091654433076" lon="9.18401796695853"><ele>669.0</ele><time>2026-04-30T08:22:50.11Z</time></trkpt><trkpt lat="39.90907126437621" lon="9.18408637900165"><ele>669.0</ele><time>2026-04-30T08:22:51.11Z</time></trkpt><trkpt lat="39.90897760380259" lon="9.184205191894554"><ele>669.0</ele><time>2026-04-30T08:22:52.11Z</time></trkpt><trkpt lat="39.90887234523506" lon="9.18434672642022"><ele>669.0</ele><time>2026-04-30T08:22:53.11Z</time></trkpt><trkpt lat="39.90875011133527" lon="9.184484547146393"><ele>669.0</ele><time>2026-04-30T08:22:54.11Z</time></trkpt><trkpt lat="39.908612705263096" lon="9.184608150607238"><ele>669.0</ele><time>2026-04-30T08:22:55.11Z</time></trkpt><trkpt lat="39.90849244653712" lon="9.184730337708242"><ele>667.0</ele><time>2026-04-30T08:22:56.11Z</time></trkpt><trkpt lat="39.908372489853335" lon="9.184853772318476"><ele>665.0</ele><time>2026-04-30T08:22:57.11Z</time></trkpt><trkpt lat="39.908281396292615" lon="9.184987867533328"><ele>663.0</ele><time>2026-04-30T08:22:58.11Z</time></trkpt><trkpt lat="39.90821344459599" lon="9.185122835557085"><ele>661.0</ele><time>2026-04-30T08:22:59.11Z</time></trkpt><trkpt lat="39.908160875772694" lon="9.185282569863466"><ele>661.0</ele><time>2026-04-30T08:23:00.11Z</time></trkpt><trkpt lat="39.90811976922732" lon="9.18548299300561"><ele>661.0</ele><time>2026-04-30T08:23:01.11Z</time></trkpt><trkpt lat="39.90808354100185" lon="9.185667444645324"><ele>661.0</ele><time>2026-04-30T08:23:02.11Z</time></trkpt><trkpt lat="39.90805570038235" lon="9.18581686464665"><ele>661.0</ele><time>2026-04-30T08:23:03.11Z</time></trkpt><trkpt lat="39.90805349074061" lon="9.185957752394318"><ele>663.1999999999999</ele><time>2026-04-30T08:23:04.11Z</time></trkpt><trkpt lat="39.908045350045256" lon="9.186089805503341"><ele>665.4</ele><time>2026-04-30T08:23:05.11Z</time></trkpt><trkpt lat="39.907995601758984" lon="9.186172730421566"><ele>667.6</ele><time>2026-04-30T08:23:06.11Z</time></trkpt><trkpt lat="39.90791861953245" lon="9.186199719780864"><ele>669.8</ele><time>2026-04-30T08:23:07.11Z</time></trkpt><trkpt lat="39.907829937118834" lon="9.186167237031526"><ele>672.0</ele><time>2026-04-30T08:23:08.11Z</time></trkpt><trkpt lat="39.907707792249084" lon="9.186021165919252"><ele>666.3333333333334</ele><time>2026-04-30T08:23:09.11Z</time></trkpt><trkpt lat="39.907574946912256" lon="9.185867970989381"><ele>660.6666666666667</ele><time>2026-04-30T08:23:10.11Z</time></trkpt><trkpt lat="39.90739967641739" lon="9.185733421051948"><ele>655.0</ele><time>2026-04-30T08:23:11.11Z</time></trkpt><trkpt lat="39.90720610883114" lon="9.185571288805654"><ele>648.6666666666667</ele><time>2026-04-30T08:23:12.11Z</time></trkpt><trkpt lat="39.90702598484947" lon="9.18543853169599"><ele>642.3333333333334</ele><time>2026-04-30T08:23:13.11Z</time></trkpt><trkpt lat="39.906858675424154" lon="9.185311141601666"><ele>636.0</ele><time>2026-04-30T08:23:14.11Z</time></trkpt><trkpt lat="39.90670492279225" lon="9.185192580651398"><ele>636.0</ele><time>2026-04-30T08:23:15.11Z</time></trkpt><trkpt lat="39.9065528131855" lon="9.185096524033618"><ele>636.0</ele><time>2026-04-30T08:23:16.11Z</time></trkpt><trkpt lat="39.906388629741414" lon="9.185038004807156"><ele>636.0</ele><time>2026-04-30T08:23:17.11Z</time></trkpt><trkpt lat="39.90621086350561" lon="9.185077288586243"><ele>636.0</ele><time>2026-04-30T08:23:18.11Z</time></trkpt><trkpt lat="39.9060249993831" lon="9.185163780133145"><ele>636.0</ele><time>2026-04-30T08:23:19.11Z</time></trkpt><trkpt lat="39.90581467400626" lon="9.185264352789142"><ele>636.0</ele><time>2026-04-30T08:23:20.11Z</time></trkpt><trkpt lat="39.90558200574605" lon="9.185305539640197"><ele>632.3333333333334</ele><time>2026-04-30T08:23:21.11Z</time></trkpt><trkpt lat="39.905401920534146" lon="9.18529999993287"><ele>628.6666666666667</ele><time>2026-04-30T08:23:22.11Z</time></trkpt><trkpt lat="39.90524397988218" lon="9.185309283579038"><ele>625.0</ele><time>2026-04-30T08:23:23.11Z</time></trkpt><trkpt lat="39.90511202576104" lon="9.185384514017267"><ele>626.6666666666667</ele><time>2026-04-30T08:23:24.11Z</time></trkpt><trkpt lat="39.9049832867745" lon="9.18551735718998"><ele>628.3333333333334</ele><time>2026-04-30T08:23:25.11Z</time></trkpt><trkpt lat="39.904905937843225" lon="9.185699999125394"><ele>630.0</ele><time>2026-04-30T08:23:26.11Z</time></trkpt><trkpt lat="39.90487984128061" lon="9.185936979166451"><ele>630.0</ele><time>2026-04-30T08:23:27.11Z</time></trkpt><trkpt lat="39.904902072363335" lon="9.186179348381584"><ele>630.0</ele><time>2026-04-30T08:23:28.11Z</time></trkpt><trkpt lat="39.90491903549054" lon="9.186440981154247"><ele>630.0</ele><time>2026-04-30T08:23:29.11Z</time></trkpt><trkpt lat="39.904869452269544" lon="9.186682509356071"><ele>631.0</ele><time>2026-04-30T08:23:30.11Z</time></trkpt><trkpt lat="39.904775051058266" lon="9.186896274708891"><ele>632.0</ele><time>2026-04-30T08:23:31.112Z</time></trkpt><trkpt lat="39.90463270615712" lon="9.187073904275938"><ele>633.0</ele><time>2026-04-30T08:23:32.111Z</time></trkpt><trkpt lat="39.9045173580271" lon="9.18722799507929"><ele>633.25</ele><time>2026-04-30T08:23:33.111Z</time></trkpt><trkpt lat="39.904437573987614" lon="9.187378389032016"><ele>633.5</ele><time>2026-04-30T08:23:34.112Z</time></trkpt><trkpt lat="39.904422674803776" lon="9.187555218055095"><ele>633.75</ele><time>2026-04-30T08:23:35.111Z</time></trkpt><trkpt lat="39.9044676653337" lon="9.187733309504564"><ele>634.0</ele><time>2026-04-30T08:23:36.111Z</time></trkpt><trkpt lat="39.904557770620194" lon="9.187888388004788"><ele>634.0</ele><time>2026-04-30T08:23:37.112Z</time></trkpt><trkpt lat="39.90468598890797" lon="9.188024145815163"><ele>634.0</ele><time>2026-04-30T08:23:38.112Z</time></trkpt><trkpt lat="39.90476791121473" lon="9.188178124394385"><ele>634.0</ele><time>2026-04-30T08:23:39.112Z</time></trkpt><trkpt lat="39.90478834834651" lon="9.18836460809591"><ele>632.8</ele><time>2026-04-30T08:23:40.112Z</time></trkpt><trkpt lat="39.90476405278974" lon="9.188534869638216"><ele>631.5999999999999</ele><time>2026-04-30T08:23:41.112Z</time></trkpt><trkpt lat="39.904692390286925" lon="9.188616409443092"><ele>630.4</ele><time>2026-04-30T08:23:42.112Z</time></trkpt><trkpt lat="39.904600458198175" lon="9.188631581076159"><ele>629.1999999999999</ele><time>2026-04-30T08:23:43.112Z</time></trkpt><trkpt lat="39.90452713920585" lon="9.188598084631682"><ele>628.0</ele><time>2026-04-30T08:23:44.112Z</time></trkpt><trkpt lat="39.904473659523" lon="9.188490527710973"><ele>628.0</ele><time>2026-04-30T08:23:45.112Z</time></trkpt><trkpt lat="39.90446302926306" lon="9.188354702770049"><ele>628.0</ele><time>2026-04-30T08:23:46.112Z</time></trkpt><trkpt lat="39.90446196406828" lon="9.18819477737261"><ele>628.0</ele><time>2026-04-30T08:23:47.112Z</time></trkpt><trkpt lat="39.904396161175924" lon="9.188069209620446"><ele>628.0</ele><time>2026-04-30T08:23:48.112Z</time></trkpt><trkpt lat="39.904260592172776" lon="9.187972453473733"><ele>623.0</ele><time>2026-04-30T08:23:49.112Z</time></trkpt><trkpt lat="39.90412280046267" lon="9.187893833329376"><ele>618.0</ele><time>2026-04-30T08:23:50.112Z</time></trkpt><trkpt lat="39.9040252766383" lon="9.18776791741702"><ele>613.0</ele><time>2026-04-30T08:23:51.112Z</time></trkpt><trkpt lat="39.903973256163766" lon="9.187605032756748"><ele>608.0</ele><time>2026-04-30T08:23:52.112Z</time></trkpt><trkpt lat="39.9039831227935" lon="9.187403825860091"><ele>604.6666666666666</ele><time>2026-04-30T08:23:53.112Z</time></trkpt><trkpt lat="39.904053093010454" lon="9.187199789289508"><ele>601.3333333333334</ele><time>2026-04-30T08:23:54.112Z</time></trkpt><trkpt lat="39.90416856211393" lon="9.186970684442976"><ele>598.0</ele><time>2026-04-30T08:23:55.112Z</time></trkpt><trkpt lat="39.90427989719199" lon="9.18673877078043"><ele>608.6666666666667</ele><time>2026-04-30T08:23:56.112Z</time></trkpt><trkpt lat="39.904334223478564" lon="9.186527611326884"><ele>619.3333333333334</ele><time>2026-04-30T08:23:57.112Z</time></trkpt><trkpt lat="39.904335015026476" lon="9.18629565267657"><ele>630.0</ele><time>2026-04-30T08:23:58.112Z</time></trkpt><trkpt lat="39.90431267235467" lon="9.186012413711083"><ele>630.0</ele><time>2026-04-30T08:23:59.112Z</time></trkpt><trkpt lat="39.90430096474238" lon="9.185744875557655"><ele>630.0</ele><time>2026-04-30T08:24:00.112Z</time></trkpt><trkpt lat="39.9043217099356" lon="9.185509030081137"><ele>630.0</ele><time>2026-04-30T08:24:01.112Z</time></trkpt><trkpt lat="39.90434012087578" lon="9.185351244470766"><ele>626.4</ele><time>2026-04-30T08:24:02.112Z</time></trkpt><trkpt lat="39.90431524598481" lon="9.18524479346697"><ele>622.8</ele><time>2026-04-30T08:24:03.112Z</time></trkpt><trkpt lat="39.904243694895875" lon="9.185187542579735"><ele>619.2</ele><time>2026-04-30T08:24:04.112Z</time></trkpt><trkpt lat="39.9041489642341" lon="9.18520932938714"><ele>615.6</ele><time>2026-04-30T08:24:05.112Z</time></trkpt><trkpt lat="39.904075775187245" lon="9.18530409029"><ele>612.0</ele><time>2026-04-30T08:24:06.112Z</time></trkpt><trkpt lat="39.90404806188662" lon="9.185449791838348"><ele>605.0</ele><time>2026-04-30T08:24:07.112Z</time></trkpt><trkpt lat="39.9040714868129" lon="9.185642709398829"><ele>598.0</ele><time>2026-04-30T08:24:08.112Z</time></trkpt><trkpt lat="39.904116762324485" lon="9.185879978065614"><ele>591.0</ele><time>2026-04-30T08:24:09.112Z</time></trkpt><trkpt lat="39.90413361675259" lon="9.186111037048803"><ele>591.0</ele><time>2026-04-30T08:24:10.112Z</time></trkpt><trkpt lat="39.90412113053514" lon="9.186318176353156"><ele>591.0</ele><time>2026-04-30T08:24:11.112Z</time></trkpt><trkpt lat="39.904038303983526" lon="9.186480364858102"><ele>591.0</ele><time>2026-04-30T08:24:12.112Z</time></trkpt><trkpt lat="39.903923407467964" lon="9.18660371832179"><ele>592.75</ele><time>2026-04-30T08:24:13.112Z</time></trkpt><trkpt lat="39.90384139473361" lon="9.186674899973786"><ele>594.5</ele><time>2026-04-30T08:24:14.112Z</time></trkpt><trkpt lat="39.903684690625376" lon="9.186700303807552"><ele>596.25</ele><time>2026-04-30T08:24:15.112Z</time></trkpt><trkpt lat="39.9035110952179" lon="9.186698228543403"><ele>598.0</ele><time>2026-04-30T08:24:16.112Z</time></trkpt><trkpt lat="39.903349668969966" lon="9.186800574938442"><ele>590.6666666666667</ele><time>2026-04-30T08:24:17.112Z</time></trkpt><trkpt lat="39.903242518602134" lon="9.186978080036761"><ele>583.3333333333334</ele><time>2026-04-30T08:24:18.112Z</time></trkpt><trkpt lat="39.90317750702242" lon="9.18721870903572"><ele>576.0</ele><time>2026-04-30T08:24:19.112Z</time></trkpt><trkpt lat="39.903163987896" lon="9.187505740032343"><ele>576.0</ele><time>2026-04-30T08:24:20.112Z</time></trkpt><trkpt lat="39.903189176827496" lon="9.187791186976915"><ele>576.0</ele><time>2026-04-30T08:24:21.112Z</time></trkpt><trkpt lat="39.90325026675205" lon="9.188041208587165"><ele>576.0</ele><time>2026-04-30T08:24:22.112Z</time></trkpt><trkpt lat="39.90334350504525" lon="9.188244304037223"><ele>583.3333333333334</ele><time>2026-04-30T08:24:23.112Z</time></trkpt><trkpt lat="39.90347131262025" lon="9.188400938614622"><ele>590.6666666666667</ele><time>2026-04-30T08:24:24.112Z</time></trkpt><trkpt lat="39.90360325508866" lon="9.188507857220202"><ele>598.0</ele><time>2026-04-30T08:24:25.112Z</time></trkpt><trkpt lat="39.90369945584245" lon="9.18863606860254"><ele>598.0</ele><time>2026-04-30T08:24:26.112Z</time></trkpt><trkpt lat="39.90372652200227" lon="9.18880068717131"><ele>598.0</ele><time>2026-04-30T08:24:27.112Z</time></trkpt><trkpt lat="39.9036935613729" lon="9.188975350511914"><ele>598.0</ele><time>2026-04-30T08:24:28.112Z</time></trkpt><trkpt lat="39.903600027644984" lon="9.189198652303894"><ele>598.0</ele><time>2026-04-30T08:24:29.112Z</time></trkpt><trkpt lat="39.903468546400255" lon="9.189461912010154"><ele>598.0</ele><time>2026-04-30T08:24:30.112Z</time></trkpt><trkpt lat="39.90332808444263" lon="9.18978433882927"><ele>586.0</ele><time>2026-04-30T08:24:31.112Z</time></trkpt><trkpt lat="39.90318534076403" lon="9.190112328515497"><ele>574.0</ele><time>2026-04-30T08:24:32.112Z</time></trkpt><trkpt lat="39.90307565504104" lon="9.190380387097767"><ele>574.0</ele><time>2026-04-30T08:24:33.112Z</time></trkpt><trkpt lat="39.902997430633675" lon="9.190608562118767"><ele>574.0</ele><time>2026-04-30T08:24:34.113Z</time></trkpt><trkpt lat="39.90294646828531" lon="9.190792211249782"><ele>574.0</ele><time>2026-04-30T08:24:35.113Z</time></trkpt><trkpt lat="39.9029126638744" lon="9.190910374559179"><ele>574.0</ele><time>2026-04-30T08:24:36.113Z</time></trkpt><trkpt lat="39.902850462505825" lon="9.190951547255779"><ele>574.0</ele><time>2026-04-30T08:24:37.113Z</time></trkpt><trkpt lat="39.90276855057553" lon="9.190946021547036"><ele>574.0</ele><time>2026-04-30T08:24:38.113Z</time></trkpt><trkpt lat="39.90268890327739" lon="9.190868248323055"><ele>574.0</ele><time>2026-04-30T08:24:39.113Z</time></trkpt><trkpt lat="39.90263968048633" lon="9.190738927842832"><ele>574.0</ele><time>2026-04-30T08:24:40.113Z</time></trkpt><trkpt lat="39.90266481190499" lon="9.190575351383163"><ele>574.0</ele><time>2026-04-30T08:24:41.113Z</time></trkpt><trkpt lat="39.902751225405595" lon="9.190413322517179"><ele>574.0</ele><time>2026-04-30T08:24:42.113Z</time></trkpt><trkpt lat="39.90287138750146" lon="9.190212759911097"><ele>574.0</ele><time>2026-04-30T08:24:43.113Z</time></trkpt><trkpt lat="39.90297129635954" lon="9.189973228436175"><ele>574.0</ele><time>2026-04-30T08:24:44.113Z</time></trkpt><trkpt lat="39.903067637579134" lon="9.189658989183412"><ele>568.0</ele><time>2026-04-30T08:24:45.113Z</time></trkpt><trkpt lat="39.903152907636255" lon="9.18930630636087"><ele>562.0</ele><time>2026-04-30T08:24:46.113Z</time></trkpt><trkpt lat="39.90321354990682" lon="9.189028415115638"><ele>562.0</ele><time>2026-04-30T08:24:47.113Z</time></trkpt><trkpt lat="39.90325344346447" lon="9.18879022109576"><ele>562.0</ele><time>2026-04-30T08:24:48.113Z</time></trkpt><trkpt lat="39.903252340841384" lon="9.188588793680353"><ele>562.0</ele><time>2026-04-30T08:24:49.113Z</time></trkpt><trkpt lat="39.90318511635331" lon="9.188412696206496"><ele>562.0</ele><time>2026-04-30T08:24:50.113Z</time></trkpt><trkpt lat="39.90302658315723" lon="9.188229380043273"><ele>562.0</ele><time>2026-04-30T08:24:51.113Z</time></trkpt><trkpt lat="39.90288735886659" lon="9.18802085352496"><ele>562.0</ele><time>2026-04-30T08:24:52.113Z</time></trkpt><trkpt lat="39.902793304771045" lon="9.187753735922868"><ele>566.0</ele><time>2026-04-30T08:24:53.113Z</time></trkpt><trkpt lat="39.90274652067579" lon="9.187502353422985"><ele>570.0</ele><time>2026-04-30T08:24:54.113Z</time></trkpt><trkpt lat="39.90270738654361" lon="9.18727116068335"><ele>574.0</ele><time>2026-04-30T08:24:55.113Z</time></trkpt><trkpt lat="39.90269881457289" lon="9.187102261478554"><ele>574.0</ele><time>2026-04-30T08:24:56.113Z</time></trkpt><trkpt lat="39.90267633463152" lon="9.186951442427684"><ele>574.0</ele><time>2026-04-30T08:24:57.113Z</time></trkpt><trkpt lat="39.90260906172064" lon="9.18685250513153"><ele>574.0</ele><time>2026-04-30T08:24:58.113Z</time></trkpt><trkpt lat="39.90251544555904" lon="9.186819795617454"><ele>574.0</ele><time>2026-04-30T08:24:59.113Z</time></trkpt><trkpt lat="39.902395247022824" lon="9.186874430634617"><ele>574.0</ele><time>2026-04-30T08:25:00.113Z</time></trkpt><trkpt lat="39.902294344749556" lon="9.186995386179445"><ele>568.0</ele><time>2026-04-30T08:25:01.113Z</time></trkpt><trkpt lat="39.90226827958957" lon="9.187159625892912"><ele>562.0</ele><time>2026-04-30T08:25:02.113Z</time></trkpt><trkpt lat="39.90229207930424" lon="9.187315702104783"><ele>556.0</ele><time>2026-04-30T08:25:03.113Z</time></trkpt><trkpt lat="39.90237295985605" lon="9.187506562947323"><ele>550.0</ele><time>2026-04-30T08:25:04.113Z</time></trkpt><trkpt lat="39.902471671360914" lon="9.187715346898264"><ele>548.6666666666667</ele><time>2026-04-30T08:25:05.113Z</time></trkpt><trkpt lat="39.90255197152288" lon="9.187940790545431"><ele>547.3333333333334</ele><time>2026-04-30T08:25:06.113Z</time></trkpt><trkpt lat="39.90263966747902" lon="9.188152156881962"><ele>546.0</ele><time>2026-04-30T08:25:07.113Z</time></trkpt><trkpt lat="39.90272262334214" lon="9.18833228901883"><ele>550.0</ele><time>2026-04-30T08:25:08.113Z</time></trkpt><trkpt lat="39.90279880430671" lon="9.188497962450178"><ele>554.0</ele><time>2026-04-30T08:25:09.113Z</time></trkpt><trkpt lat="39.90286237617809" lon="9.188654213073313"><ele>558.0</ele><time>2026-04-30T08:25:10.113Z</time></trkpt><trkpt lat="39.90287314003771" lon="9.18882180712982"><ele>562.0</ele><time>2026-04-30T08:25:11.113Z</time></trkpt><trkpt lat="39.902832380516436" lon="9.188981210692644"><ele>562.0</ele><time>2026-04-30T08:25:12.113Z</time></trkpt><trkpt lat="39.90273540865246" lon="9.18913225152141"><ele>562.0</ele><time>2026-04-30T08:25:13.113Z</time></trkpt><trkpt lat="39.90260193963538" lon="9.189265392433612"><ele>562.0</ele><time>2026-04-30T08:25:14.113Z</time></trkpt><trkpt lat="39.90245374635768" lon="9.189387179143905"><ele>556.5</ele><time>2026-04-30T08:25:15.113Z</time></trkpt><trkpt lat="39.902334027001636" lon="9.189499536847737"><ele>551.0</ele><time>2026-04-30T08:25:16.113Z</time></trkpt><trkpt lat="39.90223220150732" lon="9.189610994005488"><ele>545.5</ele><time>2026-04-30T08:25:17.113Z</time></trkpt><trkpt lat="39.90213764270365" lon="9.189742858441985"><ele>540.0</ele><time>2026-04-30T08:25:18.113Z</time></trkpt><trkpt lat="39.90204701317175" lon="9.189894216446325"><ele>540.0</ele><time>2026-04-30T08:25:19.113Z</time></trkpt><trkpt lat="39.901969261042986" lon="9.190063602795203"><ele>540.0</ele><time>2026-04-30T08:25:20.113Z</time></trkpt><trkpt lat="39.90189389299047" lon="9.19022924709708"><ele>540.0</ele><time>2026-04-30T08:25:21.113Z</time></trkpt><trkpt lat="39.901809385089486" lon="9.190396238318908"><ele>536.0</ele><time>2026-04-30T08:25:22.113Z</time></trkpt><trkpt lat="39.90172150615871" lon="9.190563462081766"><ele>532.0</ele><time>2026-04-30T08:25:23.113Z</time></trkpt><trkpt lat="39.90163918996748" lon="9.190737618437117"><ele>528.0</ele><time>2026-04-30T08:25:24.113Z</time></trkpt><trkpt lat="39.901563682490135" lon="9.190912628829066"><ele>528.0</ele><time>2026-04-30T08:25:25.113Z</time></trkpt><trkpt lat="39.90149113553449" lon="9.191093686177025"><ele>528.0</ele><time>2026-04-30T08:25:26.113Z</time></trkpt><trkpt lat="39.901425013690336" lon="9.191254423718968"><ele>528.0</ele><time>2026-04-30T08:25:27.113Z</time></trkpt><trkpt lat="39.90137103893779" lon="9.191365828063566"><ele>528.0</ele><time>2026-04-30T08:25:28.113Z</time></trkpt><trkpt lat="39.90131379107021" lon="9.191429282225807"><ele>528.0</ele><time>2026-04-30T08:25:29.113Z</time></trkpt><trkpt lat="39.901232922456195" lon="9.191426219132735"><ele>528.0</ele><time>2026-04-30T08:25:30.113Z</time></trkpt><trkpt lat="39.901157669381405" lon="9.191362619534212"><ele>528.0</ele><time>2026-04-30T08:25:31.113Z</time></trkpt><trkpt lat="39.90114398013734" lon="9.19124482125646"><ele>528.0</ele><time>2026-04-30T08:25:32.113Z</time></trkpt><trkpt lat="39.90119269002472" lon="9.191111107250734"><ele>528.0</ele><time>2026-04-30T08:25:33.113Z</time></trkpt><trkpt lat="39.90128954051873" lon="9.190953826023966"><ele>528.0</ele><time>2026-04-30T08:25:34.113Z</time></trkpt><trkpt lat="39.90141572060454" lon="9.190756823004469"><ele>528.0</ele><time>2026-04-30T08:25:35.113Z</time></trkpt><trkpt lat="39.90153756780717" lon="9.190522325384322"><ele>528.0</ele><time>2026-04-30T08:25:36.114Z</time></trkpt><trkpt lat="39.90162733865397" lon="9.190311180821288"><ele>528.3333333333334</ele><time>2026-04-30T08:25:37.114Z</time></trkpt><trkpt lat="39.90170501511975" lon="9.190115541008756"><ele>528.6666666666667</ele><time>2026-04-30T08:25:38.114Z</time></trkpt><trkpt lat="39.901760148672146" lon="9.189907624218772"><ele>529.0</ele><time>2026-04-30T08:25:39.114Z</time></trkpt><trkpt lat="39.90179496538258" lon="9.189690026639925"><ele>529.0</ele><time>2026-04-30T08:25:40.114Z</time></trkpt><trkpt lat="39.90181202581105" lon="9.18946375495475"><ele>529.0</ele><time>2026-04-30T08:25:41.114Z</time></trkpt><trkpt lat="39.901828183000084" lon="9.189249423033598"><ele>529.0</ele><time>2026-04-30T08:25:42.114Z</time></trkpt><trkpt lat="39.9018246527066" lon="9.189053799470075"><ele>530.0</ele><time>2026-04-30T08:25:43.114Z</time></trkpt><trkpt lat="39.901819113180856" lon="9.188864337507596"><ele>531.0</ele><time>2026-04-30T08:25:44.114Z</time></trkpt><trkpt lat="39.901788261415646" lon="9.188688031718366"><ele>532.0</ele><time>2026-04-30T08:25:45.114Z</time></trkpt><trkpt lat="39.90173147909106" lon="9.188500229647367"><ele>533.0</ele><time>2026-04-30T08:25:46.114Z</time></trkpt><trkpt lat="39.90167638987654" lon="9.188312132178702"><ele>526.0</ele><time>2026-04-30T08:25:47.114Z</time></trkpt><trkpt lat="39.901612946962096" lon="9.18810925571662"><ele>519.0</ele><time>2026-04-30T08:25:48.115Z</time></trkpt><trkpt lat="39.9015562022994" lon="9.187904389987743"><ele>512.0</ele><time>2026-04-30T08:25:49.114Z</time></trkpt><trkpt lat="39.90149468406144" lon="9.187683203827886"><ele>512.0</ele><time>2026-04-30T08:25:50.114Z</time></trkpt><trkpt lat="39.90143790754059" lon="9.187458263776483"><ele>512.0</ele><time>2026-04-30T08:25:51.114Z</time></trkpt><trkpt lat="39.90139861667184" lon="9.187261484373014"><ele>512.0</ele><time>2026-04-30T08:25:52.114Z</time></trkpt><trkpt lat="39.90135342686003" lon="9.187135868712463"><ele>512.0</ele><time>2026-04-30T08:25:53.114Z</time></trkpt><trkpt lat="39.90129876606919" lon="9.187052708775807"><ele>512.0</ele><time>2026-04-30T08:25:54.114Z</time></trkpt><trkpt lat="39.901231205642006" lon="9.187013243385918"><ele>512.0</ele><time>2026-04-30T08:25:55.114Z</time></trkpt><trkpt lat="39.90113093673517" lon="9.187027638187228"><ele>512.0</ele><time>2026-04-30T08:25:56.114Z</time></trkpt><trkpt lat="39.90104748283586" lon="9.187115808943059"><ele>512.0</ele><time>2026-04-30T08:25:57.114Z</time></trkpt><trkpt lat="39.90101306322164" lon="9.187267301543885"><ele>512.0</ele><time>2026-04-30T08:25:58.114Z</time></trkpt><trkpt lat="39.90103811159387" lon="9.187438517413847"><ele>512.0</ele><time>2026-04-30T08:25:59.114Z</time></trkpt><trkpt lat="39.90109780864296" lon="9.187640754049529"><ele>512.0</ele><time>2026-04-30T08:26:00.114Z</time></trkpt><trkpt lat="39.90115777278035" lon="9.187854865521288"><ele>512.0</ele><time>2026-04-30T08:26:01.114Z</time></trkpt><trkpt lat="39.90118180784142" lon="9.188083495726563"><ele>510.3333333333333</ele><time>2026-04-30T08:26:02.114Z</time></trkpt><trkpt lat="39.901155910886104" lon="9.188309482940307"><ele>508.66666666666663</ele><time>2026-04-30T08:26:03.114Z</time></trkpt><trkpt lat="39.90109622478288" lon="9.188555788642484"><ele>507.0</ele><time>2026-04-30T08:26:04.114Z</time></trkpt><trkpt lat="39.901019458517546" lon="9.188797520284488"><ele>506.33333333333337</ele><time>2026-04-30T08:26:05.114Z</time></trkpt><trkpt lat="39.90096069280178" lon="9.189016108680157"><ele>505.6666666666667</ele><time>2026-04-30T08:26:06.114Z</time></trkpt><trkpt lat="39.90090555490937" lon="9.189219275022593"><ele>505.0</ele><time>2026-04-30T08:26:07.114Z</time></trkpt><trkpt lat="39.900859821121" lon="9.18940032105906"><ele>500.75</ele><time>2026-04-30T08:26:08.114Z</time></trkpt><trkpt lat="39.9008139746949" lon="9.189583531111856"><ele>496.5</ele><time>2026-04-30T08:26:09.114Z</time></trkpt><trkpt lat="39.9007581689142" lon="9.189758167218011"><ele>492.25</ele><time>2026-04-30T08:26:10.114Z</time></trkpt><trkpt lat="39.90069126244882" lon="9.189924286632346"><ele>488.0</ele><time>2026-04-30T08:26:11.114Z</time></trkpt><trkpt lat="39.90062531112373" lon="9.190073497921015"><ele>488.0</ele><time>2026-04-30T08:26:12.114Z</time></trkpt><trkpt lat="39.900554001567656" lon="9.190201353191325"><ele>488.0</ele><time>2026-04-30T08:26:13.114Z</time></trkpt><trkpt lat="39.90043696916001" lon="9.19032245086596"><ele>488.0</ele><time>2026-04-30T08:26:14.114Z</time></trkpt><trkpt lat="39.90029209403578" lon="9.190427772298108"><ele>488.0</ele><time>2026-04-30T08:26:15.114Z</time></trkpt><trkpt lat="39.90016217951626" lon="9.190582022350792"><ele>482.3333333333333</ele><time>2026-04-30T08:26:16.114Z</time></trkpt><trkpt lat="39.900038991999125" lon="9.190787262858425"><ele>476.66666666666663</ele><time>2026-04-30T08:26:17.114Z</time></trkpt><trkpt lat="39.899965201272565" lon="9.191031836989136"><ele>471.0</ele><time>2026-04-30T08:26:18.114Z</time></trkpt><trkpt lat="39.899921462450905" lon="9.191241644954234"><ele>471.0</ele><time>2026-04-30T08:26:19.114Z</time></trkpt><trkpt lat="39.89987487953507" lon="9.191444123408006"><ele>471.0</ele><time>2026-04-30T08:26:20.114Z</time></trkpt><trkpt lat="39.89980603849722" lon="9.19165228018035"><ele>471.0</ele><time>2026-04-30T08:26:21.114Z</time></trkpt><trkpt lat="39.89973839755674" lon="9.1918638156006"><ele>474.0</ele><time>2026-04-30T08:26:22.114Z</time></trkpt><trkpt lat="39.8996479554424" lon="9.192075837464444"><ele>477.0</ele><time>2026-04-30T08:26:23.114Z</time></trkpt><trkpt lat="39.89954536623771" lon="9.192265666999225"><ele>480.0</ele><time>2026-04-30T08:26:24.114Z</time></trkpt><trkpt lat="39.8994232428212" lon="9.192427132507035"><ele>473.66666666666663</ele><time>2026-04-30T08:26:25.114Z</time></trkpt><trkpt lat="39.89928087755267" lon="9.19257836334739"><ele>467.3333333333333</ele><time>2026-04-30T08:26:26.114Z</time></trkpt><trkpt lat="39.89911525319901" lon="9.192701569170598"><ele>461.0</ele><time>2026-04-30T08:26:27.114Z</time></trkpt><trkpt lat="39.89895905850796" lon="9.192817221385788"><ele>461.0</ele><time>2026-04-30T08:26:28.114Z</time></trkpt><trkpt lat="39.89879941756259" lon="9.19293059547702"><ele>461.0</ele><time>2026-04-30T08:26:29.114Z</time></trkpt><trkpt lat="39.8986429487656" lon="9.193060106510174"><ele>461.0</ele><time>2026-04-30T08:26:30.114Z</time></trkpt><trkpt lat="39.89848001825802" lon="9.193178519319122"><ele>464.0</ele><time>2026-04-30T08:26:31.114Z</time></trkpt><trkpt lat="39.898297474056136" lon="9.19330142759561"><ele>467.0</ele><time>2026-04-30T08:26:32.114Z</time></trkpt><trkpt lat="39.89809374831797" lon="9.19343850419979"><ele>470.0</ele><time>2026-04-30T08:26:33.114Z</time></trkpt><trkpt lat="39.897890013730795" lon="9.193587605920998"><ele>470.0</ele><time>2026-04-30T08:26:34.114Z</time></trkpt><trkpt lat="39.897692451924414" lon="9.193716032207066"><ele>470.0</ele><time>2026-04-30T08:26:35.114Z</time></trkpt><trkpt lat="39.89748941600503" lon="9.193842956891478"><ele>470.0</ele><time>2026-04-30T08:26:36.114Z</time></trkpt><trkpt lat="39.8973101200146" lon="9.193963085846368"><ele>461.0</ele><time>2026-04-30T08:26:37.114Z</time></trkpt><trkpt lat="39.897128651538814" lon="9.19398022164605"><ele>452.0</ele><time>2026-04-30T08:26:38.114Z</time></trkpt><trkpt lat="39.89694059479814" lon="9.19396296045113"><ele>443.0</ele><time>2026-04-30T08:26:39.114Z</time></trkpt><trkpt lat="39.896748037812884" lon="9.193918243663072"><ele>436.0</ele><time>2026-04-30T08:26:40.114Z</time></trkpt><trkpt lat="39.89656374959713" lon="9.193853047360781"><ele>429.0</ele><time>2026-04-30T08:26:41.114Z</time></trkpt><trkpt lat="39.896352005843504" lon="9.193776388717504"><ele>422.0</ele><time>2026-04-30T08:26:42.114Z</time></trkpt><trkpt lat="39.89606729762417" lon="9.193661719515747"><ele>413.0</ele><time>2026-04-30T08:26:43.114Z</time></trkpt><trkpt lat="39.89577693310427" lon="9.193548252270823"><ele>404.0</ele><time>2026-04-30T08:26:44.114Z</time></trkpt><trkpt lat="39.89553402178335" lon="9.193459490229541"><ele>404.0</ele><time>2026-04-30T08:26:45.114Z</time></trkpt><trkpt lat="39.895293553653104" lon="9.193372553277154"><ele>404.0</ele><time>2026-04-30T08:26:46.114Z</time></trkpt><trkpt lat="39.89503783368946" lon="9.193274032777836"><ele>398.0</ele><time>2026-04-30T08:26:47.114Z</time></trkpt><trkpt lat="39.894782713301865" lon="9.193175532712024"><ele>392.0</ele><time>2026-04-30T08:26:48.114Z</time></trkpt><trkpt lat="39.894536144982965" lon="9.19308131207463"><ele>392.0</ele><time>2026-04-30T08:26:49.114Z</time></trkpt><trkpt lat="39.8943077312224" lon="9.192993420962567"><ele>392.0</ele><time>2026-04-30T08:26:50.114Z</time></trkpt><trkpt lat="39.8940821988659" lon="9.192905573736459"><ele>387.5</ele><time>2026-04-30T08:26:51.114Z</time></trkpt><trkpt lat="39.89384789568946" lon="9.192816157806988"><ele>383.0</ele><time>2026-04-30T08:26:52.114Z</time></trkpt><trkpt lat="39.89360420766558" lon="9.192717619338746"><ele>401.5</ele><time>2026-04-30T08:26:53.114Z</time></trkpt><trkpt lat="39.89335881477362" lon="9.192617207267846"><ele>420.0</ele><time>2026-04-30T08:26:54.114Z</time></trkpt><trkpt lat="39.893096355725824" lon="9.192511006640135"><ele>420.0</ele><time>2026-04-30T08:26:55.114Z</time></trkpt><trkpt lat="39.89281244923387" lon="9.192399286331241"><ele>420.0</ele><time>2026-04-30T08:26:56.114Z</time></trkpt><trkpt lat="39.89255737293975" lon="9.192300629468843"><ele>431.66666666666663</ele><time>2026-04-30T08:26:57.114Z</time></trkpt><trkpt lat="39.89233743690817" lon="9.192216385229566"><ele>443.3333333333333</ele><time>2026-04-30T08:26:58.115Z</time></trkpt><trkpt lat="39.89214767330199" lon="9.192150386253504"><ele>455.0</ele><time>2026-04-30T08:26:59.115Z</time></trkpt><trkpt lat="39.89197474043173" lon="9.192112806222264"><ele>455.0</ele><time>2026-04-30T08:27:00.115Z</time></trkpt><trkpt lat="39.891794378608296" lon="9.19211927473445"><ele>455.0</ele><time>2026-04-30T08:27:01.115Z</time></trkpt><trkpt lat="39.891611974364594" lon="9.19219028008829"><ele>455.0</ele><time>2026-04-30T08:27:02.115Z</time></trkpt><trkpt lat="39.89141878473973" lon="9.192311845789613"><ele>472.5</ele><time>2026-04-30T08:27:03.115Z</time></trkpt><trkpt lat="39.891219292052284" lon="9.19247821096433"><ele>490.0</ele><time>2026-04-30T08:27:04.115Z</time></trkpt><trkpt lat="39.89101221085638" lon="9.192630096802565"><ele>483.5</ele><time>2026-04-30T08:27:05.115Z</time></trkpt><trkpt lat="39.89079579392833" lon="9.192785107466364"><ele>477.0</ele><time>2026-04-30T08:27:06.115Z</time></trkpt><trkpt lat="39.89056624187105" lon="9.1929580851807"><ele>477.0</ele><time>2026-04-30T08:27:07.115Z</time></trkpt><trkpt lat="39.890350720176556" lon="9.193117865988661"><ele>477.0</ele><time>2026-04-30T08:27:08.115Z</time></trkpt><trkpt lat="39.89016159950874" lon="9.193283773829483"><ele>482.5</ele><time>2026-04-30T08:27:09.115Z</time></trkpt><trkpt lat="39.88996219423751" lon="9.193445084279437"><ele>488.0</ele><time>2026-04-30T08:27:10.115Z</time></trkpt><trkpt lat="39.88976965673108" lon="9.193613698978501"><ele>488.0</ele><time>2026-04-30T08:27:11.115Z</time></trkpt><trkpt lat="39.88958359722764" lon="9.193767034102377"><ele>488.0</ele><time>2026-04-30T08:27:12.115Z</time></trkpt><trkpt lat="39.88940617918325" lon="9.193904420308984"><ele>488.0</ele><time>2026-04-30T08:27:13.115Z</time></trkpt><trkpt lat="39.88925381945029" lon="9.194047341526556"><ele>489.5</ele><time>2026-04-30T08:27:14.115Z</time></trkpt><trkpt lat="39.889125665041206" lon="9.1941670432106"><ele>491.0</ele><time>2026-04-30T08:27:15.115Z</time></trkpt><trkpt lat="39.889041684402706" lon="9.19430486015136"><ele>492.5</ele><time>2026-04-30T08:27:16.115Z</time></trkpt><trkpt lat="39.88899381233445" lon="9.194478276398883"><ele>494.0</ele><time>2026-04-30T08:27:17.115Z</time></trkpt><trkpt lat="39.88899922600434" lon="9.194681751538528"><ele>499.3333333333333</ele><time>2026-04-30T08:27:18.115Z</time></trkpt><trkpt lat="39.889041430464445" lon="9.19490755814683"><ele>504.66666666666663</ele><time>2026-04-30T08:27:19.115Z</time></trkpt><trkpt lat="39.889140156509804" lon="9.195176924017732"><ele>510.0</ele><time>2026-04-30T08:27:20.115Z</time></trkpt><trkpt lat="39.88922724010967" lon="9.195479963688852"><ele>530.0</ele><time>2026-04-30T08:27:21.115Z</time></trkpt><trkpt lat="39.8893081097516" lon="9.195798630366536"><ele>550.0</ele><time>2026-04-30T08:27:22.115Z</time></trkpt><trkpt lat="39.88937174570734" lon="9.19604355254881"><ele>550.0</ele><time>2026-04-30T08:27:23.115Z</time></trkpt><trkpt lat="39.88940893618837" lon="9.196268245984035"><ele>550.0</ele><time>2026-04-30T08:27:24.115Z</time></trkpt><trkpt lat="39.88940377440375" lon="9.196480583079683"><ele>550.0</ele><time>2026-04-30T08:27:25.115Z</time></trkpt><trkpt lat="39.88934777386765" lon="9.196700115404594"><ele>539.0</ele><time>2026-04-30T08:27:26.115Z</time></trkpt><trkpt lat="39.88923185692423" lon="9.196887126552186"><ele>528.0</ele><time>2026-04-30T08:27:27.115Z</time></trkpt><trkpt lat="39.88907495583542" lon="9.197062414394871"><ele>517.0</ele><time>2026-04-30T08:27:28.115Z</time></trkpt><trkpt lat="39.88891482603469" lon="9.19721444403458"><ele>517.0</ele><time>2026-04-30T08:27:29.115Z</time></trkpt><trkpt lat="39.88877113517337" lon="9.197300560024598"><ele>517.0</ele><time>2026-04-30T08:27:30.115Z</time></trkpt><trkpt lat="39.88863231593783" lon="9.197319237091081"><ele>517.0</ele><time>2026-04-30T08:27:31.115Z</time></trkpt><trkpt lat="39.88849199512901" lon="9.197263644016594"><ele>517.0</ele><time>2026-04-30T08:27:32.115Z</time></trkpt><trkpt lat="39.88836136552138" lon="9.197167768848676"><ele>516.0</ele><time>2026-04-30T08:27:33.115Z</time></trkpt><trkpt lat="39.88826270019432" lon="9.197018282021537"><ele>515.0</ele><time>2026-04-30T08:27:34.115Z</time></trkpt><trkpt lat="39.88819133116506" lon="9.196834436323458"><ele>514.0</ele><time>2026-04-30T08:27:35.115Z</time></trkpt><trkpt lat="39.88814342748138" lon="9.196592171306545"><ele>508.33333333333337</ele><time>2026-04-30T08:27:36.115Z</time></trkpt><trkpt lat="39.88808771738682" lon="9.196367121683268"><ele>502.66666666666663</ele><time>2026-04-30T08:27:37.115Z</time></trkpt><trkpt lat="39.88797845991312" lon="9.19618200522236"><ele>497.0</ele><time>2026-04-30T08:27:38.115Z</time></trkpt><trkpt lat="39.88781144301834" lon="9.196047804413933"><ele>510.5</ele><time>2026-04-30T08:27:39.115Z</time></trkpt><trkpt lat="39.88758181156552" lon="9.195943398532414"><ele>524.0</ele><time>2026-04-30T08:27:40.115Z</time></trkpt><trkpt lat="39.88732487978874" lon="9.195806844668663"><ele>510.5</ele><time>2026-04-30T08:27:41.115Z</time></trkpt><trkpt lat="39.88706237629788" lon="9.195644830515587"><ele>497.0</ele><time>2026-04-30T08:27:42.117Z</time></trkpt><trkpt lat="39.886845539546734" lon="9.19550749544486"><ele>504.3333333333333</ele><time>2026-04-30T08:27:43.117Z</time></trkpt><trkpt lat="39.88664886362845" lon="9.195417088668172"><ele>511.66666666666663</ele><time>2026-04-30T08:27:44.117Z</time></trkpt><trkpt lat="39.88645898483515" lon="9.195380730069116"><ele>519.0</ele><time>2026-04-30T08:27:45.117Z</time></trkpt><trkpt lat="39.88625546256486" lon="9.19540357748581"><ele>519.0</ele><time>2026-04-30T08:27:46.117Z</time></trkpt><trkpt lat="39.88603950828632" lon="9.195507396182887"><ele>519.0</ele><time>2026-04-30T08:27:47.117Z</time></trkpt><trkpt lat="39.88583606242325" lon="9.195657078973575"><ele>530.5</ele><time>2026-04-30T08:27:48.117Z</time></trkpt><trkpt lat="39.88559095319263" lon="9.195866810545821"><ele>542.0</ele><time>2026-04-30T08:27:49.117Z</time></trkpt><trkpt lat="39.88529516907564" lon="9.19610097725107"><ele>545.5</ele><time>2026-04-30T08:27:50.117Z</time></trkpt><trkpt lat="39.88497100594895" lon="9.196357017454543"><ele>549.0</ele><time>2026-04-30T08:27:51.117Z</time></trkpt><trkpt lat="39.884678329663174" lon="9.19658295608623"><ele>549.0</ele><time>2026-04-30T08:27:52.116Z</time></trkpt><trkpt lat="39.88444273207682" lon="9.196766228660936"><ele>549.0</ele><time>2026-04-30T08:27:53.116Z</time></trkpt><trkpt lat="39.88421641521943" lon="9.196936140680616"><ele>549.0</ele><time>2026-04-30T08:27:54.117Z</time></trkpt><trkpt lat="39.88401379273949" lon="9.197090156072088"><ele>549.0</ele><time>2026-04-30T08:27:55.117Z</time></trkpt><trkpt lat="39.88386865401864" lon="9.197224366813918"><ele>549.0</ele><time>2026-04-30T08:27:56.117Z</time></trkpt><trkpt lat="39.88375095178087" lon="9.197367321353529"><ele>556.0</ele><time>2026-04-30T08:27:57.117Z</time></trkpt><trkpt lat="39.883687968087585" lon="9.197556260055507"><ele>563.0</ele><time>2026-04-30T08:27:58.117Z</time></trkpt><trkpt lat="39.883673130508676" lon="9.197798915892383"><ele>570.0</ele><time>2026-04-30T08:27:59.117Z</time></trkpt><trkpt lat="39.88369899750448" lon="9.198062137171348"><ele>576.5</ele><time>2026-04-30T08:28:00.117Z</time></trkpt><trkpt lat="39.8837452198433" lon="9.198375854093031"><ele>583.0</ele><time>2026-04-30T08:28:01.117Z</time></trkpt><trkpt lat="39.883791434258974" lon="9.19867723839821"><ele>583.0</ele><time>2026-04-30T08:28:02.117Z</time></trkpt><trkpt lat="39.88380530273976" lon="9.198921072131522"><ele>583.0</ele><time>2026-04-30T08:28:03.117Z</time></trkpt><trkpt lat="39.88376270484091" lon="9.199168985986395"><ele>583.0</ele><time>2026-04-30T08:28:04.117Z</time></trkpt><trkpt lat="39.88366224054231" lon="9.1994228787789"><ele>588.0</ele><time>2026-04-30T08:28:05.117Z</time></trkpt><trkpt lat="39.883559312258356" lon="9.19971233315205"><ele>593.0</ele><time>2026-04-30T08:28:06.117Z</time></trkpt><trkpt lat="39.88350265673233" lon="9.200034171665658"><ele>601.5</ele><time>2026-04-30T08:28:07.117Z</time></trkpt><trkpt lat="39.88350276754619" lon="9.200344199284334"><ele>610.0</ele><time>2026-04-30T08:28:08.117Z</time></trkpt><trkpt lat="39.88354465244469" lon="9.20063965367187"><ele>613.6666666666667</ele><time>2026-04-30T08:28:09.117Z</time></trkpt><trkpt lat="39.88361297807892" lon="9.200894196662677"><ele>617.3333333333334</ele><time>2026-04-30T08:28:10.117Z</time></trkpt><trkpt lat="39.883622260523424" lon="9.201110021104231"><ele>621.0</ele><time>2026-04-30T08:28:11.117Z</time></trkpt><trkpt lat="39.883564632488884" lon="9.20133522655202"><ele>625.5</ele><time>2026-04-30T08:28:12.117Z</time></trkpt><trkpt lat="39.883450228257765" lon="9.201580575984147"><ele>630.0</ele><time>2026-04-30T08:28:13.117Z</time></trkpt><trkpt lat="39.883327599811025" lon="9.201872842247461"><ele>613.5</ele><time>2026-04-30T08:28:14.117Z</time></trkpt><trkpt lat="39.883196184019354" lon="9.202201318466944"><ele>597.0</ele><time>2026-04-30T08:28:15.117Z</time></trkpt><trkpt lat="39.883077016781954" lon="9.202504127692388"><ele>597.0</ele><time>2026-04-30T08:28:16.117Z</time></trkpt><trkpt lat="39.88299611577829" lon="9.202752206963646"><ele>597.0</ele><time>2026-04-30T08:28:17.117Z</time></trkpt><trkpt lat="39.88296943498046" lon="9.202985402519227"><ele>597.0</ele><time>2026-04-30T08:28:18.117Z</time></trkpt><trkpt lat="39.88298175066343" lon="9.203236965415568"><ele>601.0</ele><time>2026-04-30T08:28:19.117Z</time></trkpt><trkpt lat="39.88304131048042" lon="9.203547615949272"><ele>605.0</ele><time>2026-04-30T08:28:20.117Z</time></trkpt><trkpt lat="39.88311549914213" lon="9.203944197843956"><ele>605.5</ele><time>2026-04-30T08:28:21.117Z</time></trkpt><trkpt lat="39.88320102173304" lon="9.204420880986943"><ele>606.0</ele><time>2026-04-30T08:28:22.117Z</time></trkpt><trkpt lat="39.88328126104905" lon="9.204852567439646"><ele>604.5</ele><time>2026-04-30T08:28:23.117Z</time></trkpt><trkpt lat="39.883329322088" lon="9.205181217647985"><ele>603.0</ele><time>2026-04-30T08:28:24.117Z</time></trkpt><trkpt lat="39.88336560992278" lon="9.205448522693237"><ele>603.6666666666666</ele><time>2026-04-30T08:28:25.117Z</time></trkpt><trkpt lat="39.88338260300577" lon="9.205694208414474"><ele>604.3333333333333</ele><time>2026-04-30T08:28:26.117Z</time></trkpt><trkpt lat="39.88335262445176" lon="9.205921204589123"><ele>605.0</ele><time>2026-04-30T08:28:27.117Z</time></trkpt><trkpt lat="39.88327847015888" lon="9.206150898525113"><ele>605.0</ele><time>2026-04-30T08:28:28.117Z</time></trkpt><trkpt lat="39.88317250744066" lon="9.206336620095051"><ele>605.0</ele><time>2026-04-30T08:28:29.117Z</time></trkpt><trkpt lat="39.88303366755081" lon="9.206460590765213"><ele>605.0</ele><time>2026-04-30T08:28:30.117Z</time></trkpt><trkpt lat="39.88286734612402" lon="9.206557303228147"><ele>604.0</ele><time>2026-04-30T08:28:31.117Z</time></trkpt><trkpt lat="39.882660579010256" lon="9.206651009450296"><ele>603.0</ele><time>2026-04-30T08:28:32.117Z</time></trkpt><trkpt lat="39.8823971442055" lon="9.206758668514652"><ele>603.0</ele><time>2026-04-30T08:28:33.117Z</time></trkpt><trkpt lat="39.88213085282217" lon="9.206892137839356"><ele>603.0</ele><time>2026-04-30T08:28:34.117Z</time></trkpt><trkpt lat="39.881907201292705" lon="9.20699231264335"><ele>602.0</ele><time>2026-04-30T08:28:35.117Z</time></trkpt><trkpt lat="39.88171099029034" lon="9.207050388623925"><ele>601.0</ele><time>2026-04-30T08:28:36.117Z</time></trkpt><trkpt lat="39.88151608815368" lon="9.20703859995793"><ele>600.0</ele><time>2026-04-30T08:28:37.117Z</time></trkpt><trkpt lat="39.88129729858687" lon="9.206961835367578"><ele>600.0</ele><time>2026-04-30T08:28:38.117Z</time></trkpt><trkpt lat="39.881075679037906" lon="9.206876487534657"><ele>600.0</ele><time>2026-04-30T08:28:39.117Z</time></trkpt><trkpt lat="39.88089415382796" lon="9.20680238621826"><ele>600.0</ele><time>2026-04-30T08:28:40.117Z</time></trkpt><trkpt lat="39.880736797023225" lon="9.206690205388705"><ele>603.0</ele><time>2026-04-30T08:28:41.117Z</time></trkpt><trkpt lat="39.88058967159648" lon="9.206518135181653"><ele>606.0</ele><time>2026-04-30T08:28:42.117Z</time></trkpt><trkpt lat="39.88045736121116" lon="9.206284364409802"><ele>609.0</ele><time>2026-04-30T08:28:43.117Z</time></trkpt><trkpt lat="39.880298442565035" lon="9.205987068145932"><ele>614.5</ele><time>2026-04-30T08:28:44.117Z</time></trkpt><trkpt lat="39.88014091754267" lon="9.205638489264599"><ele>620.0</ele><time>2026-04-30T08:28:45.117Z</time></trkpt><trkpt lat="39.87998471607179" lon="9.205248071320677"><ele>620.0</ele><time>2026-04-30T08:28:46.117Z</time></trkpt><trkpt lat="39.879869665361056" lon="9.204835692421081"><ele>620.0</ele><time>2026-04-30T08:28:47.117Z</time></trkpt><trkpt lat="39.87976974278983" lon="9.204458400409965"><ele>616.5</ele><time>2026-04-30T08:28:48.117Z</time></trkpt><trkpt lat="39.87970752078335" lon="9.20407961711053"><ele>613.0</ele><time>2026-04-30T08:28:49.117Z</time></trkpt><trkpt lat="39.87966805613724" lon="9.203698867803666"><ele>609.5</ele><time>2026-04-30T08:28:50.117Z</time></trkpt><trkpt lat="39.87964539003597" lon="9.203358458650305"><ele>606.0</ele><time>2026-04-30T08:28:51.117Z</time></trkpt><trkpt lat="39.87962088495073" lon="9.20307825095899"><ele>604.6666666666666</ele><time>2026-04-30T08:28:52.117Z</time></trkpt><trkpt lat="39.87959333443612" lon="9.202857520632566"><ele>603.3333333333333</ele><time>2026-04-30T08:28:53.117Z</time></trkpt><trkpt lat="39.87954376050283" lon="9.20267830122414"><ele>602.0</ele><time>2026-04-30T08:28:54.117Z</time></trkpt><trkpt lat="39.879456370666425" lon="9.202509049108695"><ele>602.0</ele><time>2026-04-30T08:28:55.117Z</time></trkpt><trkpt lat="39.879316087989125" lon="9.202368273965519"><ele>602.0</ele><time>2026-04-30T08:28:56.117Z</time></trkpt><trkpt lat="39.87913368258496" lon="9.202265333116081"><ele>602.0</ele><time>2026-04-30T08:28:57.117Z</time></trkpt><trkpt lat="39.878925498759806" lon="9.202178058440742"><ele>604.0</ele><time>2026-04-30T08:28:58.117Z</time></trkpt><trkpt lat="39.87869982648183" lon="9.202073063909847"><ele>606.0</ele><time>2026-04-30T08:28:59.117Z</time></trkpt><trkpt lat="39.87848027609489" lon="9.201981271021001"><ele>609.3333333333334</ele><time>2026-04-30T08:29:00.117Z</time></trkpt><trkpt lat="39.87828153379556" lon="9.201922534468602"><ele>612.6666666666667</ele><time>2026-04-30T08:29:01.117Z</time></trkpt><trkpt lat="39.878089778897845" lon="9.201938600540739"><ele>616.0</ele><time>2026-04-30T08:29:02.117Z</time></trkpt><trkpt lat="39.877878994753964" lon="9.202027445928392"><ele>616.0</ele><time>2026-04-30T08:29:03.117Z</time></trkpt><trkpt lat="39.8776634057296" lon="9.202142087229522"><ele>616.0</ele><time>2026-04-30T08:29:04.117Z</time></trkpt><trkpt lat="39.87747250178051" lon="9.202231261862591"><ele>616.0</ele><time>2026-04-30T08:29:05.117Z</time></trkpt><trkpt lat="39.87729026421489" lon="9.20229577213076"><ele>627.3333333333334</ele><time>2026-04-30T08:29:06.117Z</time></trkpt><trkpt lat="39.87710089996871" lon="9.202350171290997"><ele>638.6666666666666</ele><time>2026-04-30T08:29:07.117Z</time></trkpt><trkpt lat="39.87689779005082" lon="9.202397183781613"><ele>650.0</ele><time>2026-04-30T08:29:08.117Z</time></trkpt><trkpt lat="39.87668458850095" lon="9.202442388512887"><ele>650.0</ele><time>2026-04-30T08:29:09.117Z</time></trkpt><trkpt lat="39.87646926825845" lon="9.202474806776857"><ele>650.0</ele><time>2026-04-30T08:29:10.117Z</time></trkpt><trkpt lat="39.87624375071634" lon="9.202502064859367"><ele>650.0</ele><time>2026-04-30T08:29:11.117Z</time></trkpt><trkpt lat="39.87601792391511" lon="9.202529322501709"><ele>650.0</ele><time>2026-04-30T08:29:12.117Z</time></trkpt><trkpt lat="39.8758306400777" lon="9.202561823199508"><ele>650.0</ele><time>2026-04-30T08:29:13.117Z</time></trkpt><trkpt lat="39.875642251364376" lon="9.202605563045424"><ele>650.0</ele><time>2026-04-30T08:29:14.117Z</time></trkpt><trkpt lat="39.875432733436455" lon="9.202629488841573"><ele>650.0</ele><time>2026-04-30T08:29:15.117Z</time></trkpt><trkpt lat="39.87520997773003" lon="9.202614589779861"><ele>650.0</ele><time>2026-04-30T08:29:16.117Z</time></trkpt><trkpt lat="39.87498793207847" lon="9.2025556233398"><ele>651.0</ele><time>2026-04-30T08:29:17.117Z</time></trkpt><trkpt lat="39.874775007492325" lon="9.202500324066884"><ele>652.0</ele><time>2026-04-30T08:29:18.117Z</time></trkpt><trkpt lat="39.87458924991787" lon="9.202442414607352"><ele>653.0</ele><time>2026-04-30T08:29:19.117Z</time></trkpt><trkpt lat="39.874402431632916" lon="9.202430621035848"><ele>653.3333333333333</ele><time>2026-04-30T08:29:20.117Z</time></trkpt><trkpt lat="39.87420545800764" lon="9.202504414269029"><ele>653.6666666666666</ele><time>2026-04-30T08:29:21.117Z</time></trkpt><trkpt lat="39.87400033575421" lon="9.202615773466922"><ele>654.0</ele><time>2026-04-30T08:29:22.117Z</time></trkpt><trkpt lat="39.87379097094446" lon="9.202748445565637"><ele>654.0</ele><time>2026-04-30T08:29:23.117Z</time></trkpt><trkpt lat="39.87357412636123" lon="9.202875107912952"><ele>654.0</ele><time>2026-04-30T08:29:24.117Z</time></trkpt><trkpt lat="39.8733478456981" lon="9.203003590506052"><ele>652.3333333333334</ele><time>2026-04-30T08:29:25.117Z</time></trkpt><trkpt lat="39.87314779446994" lon="9.203113562629925"><ele>650.6666666666667</ele><time>2026-04-30T08:29:26.117Z</time></trkpt><trkpt lat="39.872962079604015" lon="9.203221422489051"><ele>649.0</ele><time>2026-04-30T08:29:27.117Z</time></trkpt><trkpt lat="39.87277026958504" lon="9.203349689818424"><ele>658.0</ele><time>2026-04-30T08:29:28.117Z</time></trkpt><trkpt lat="39.87258560702816" lon="9.203504271665944"><ele>667.0</ele><time>2026-04-30T08:29:29.117Z</time></trkpt><trkpt lat="39.87239590205313" lon="9.20367496734667"><ele>667.0</ele><time>2026-04-30T08:29:30.117Z</time></trkpt><trkpt lat="39.8722028910184" lon="9.203843573638029"><ele>667.0</ele><time>2026-04-30T08:29:31.117Z</time></trkpt><trkpt lat="39.872022958150595" lon="9.204006297502248"><ele>666.6666666666667</ele><time>2026-04-30T08:29:32.117Z</time></trkpt><trkpt lat="39.8718479251693" lon="9.204163329159732"><ele>666.3333333333334</ele><time>2026-04-30T08:29:33.117Z</time></trkpt><trkpt lat="39.871675896653336" lon="9.204320662710336"><ele>666.0</ele><time>2026-04-30T08:29:34.117Z</time></trkpt><trkpt lat="39.87149912116972" lon="9.204479380766488"><ele>666.0</ele><time>2026-04-30T08:29:35.118Z</time></trkpt><trkpt lat="39.87131534775979" lon="9.204639904236457"><ele>666.0</ele><time>2026-04-30T08:29:36.118Z</time></trkpt><trkpt lat="39.87112949998473" lon="9.204802860482294"><ele>666.0</ele><time>2026-04-30T08:29:37.118Z</time></trkpt><trkpt lat="39.870941438847936" lon="9.204959295263729"><ele>669.0</ele><time>2026-04-30T08:29:38.118Z</time></trkpt><trkpt lat="39.87074586242641" lon="9.205103438652998"><ele>672.0</ele><time>2026-04-30T08:29:39.118Z</time></trkpt><trkpt lat="39.87053627702286" lon="9.205216999956239"><ele>672.0</ele><time>2026-04-30T08:29:40.118Z</time></trkpt><trkpt lat="39.870318810512195" lon="9.205312571842965"><ele>672.0</ele><time>2026-04-30T08:29:41.118Z</time></trkpt><trkpt lat="39.87010268800901" lon="9.205409406064453"><ele>663.5</ele><time>2026-04-30T08:29:42.118Z</time></trkpt><trkpt lat="39.86988871789107" lon="9.205515191548821"><ele>655.0</ele><time>2026-04-30T08:29:43.118Z</time></trkpt><trkpt lat="39.86969253087869" lon="9.20565085350228"><ele>666.6666666666667</ele><time>2026-04-30T08:29:44.118Z</time></trkpt><trkpt lat="39.869530800823306" lon="9.205806613764423"><ele>678.3333333333334</ele><time>2026-04-30T08:29:45.118Z</time></trkpt><trkpt lat="39.869408425853884" lon="9.2060026478861"><ele>690.0</ele><time>2026-04-30T08:29:46.118Z</time></trkpt><trkpt lat="39.869323024350216" lon="9.206247820408647"><ele>684.0</ele><time>2026-04-30T08:29:47.118Z</time></trkpt><trkpt lat="39.86927335654103" lon="9.20651929036527"><ele>678.0</ele><time>2026-04-30T08:29:48.119Z</time></trkpt><trkpt lat="39.869255615678796" lon="9.20678445338786"><ele>672.0</ele><time>2026-04-30T08:29:49.119Z</time></trkpt><trkpt lat="39.86926222085912" lon="9.207033208042604"><ele>686.6666666666666</ele><time>2026-04-30T08:29:50.119Z</time></trkpt><trkpt lat="39.869312891251525" lon="9.207268219296376"><ele>701.3333333333333</ele><time>2026-04-30T08:29:51.119Z</time></trkpt><trkpt lat="39.86940878657236" lon="9.207507197189067"><ele>716.0</ele><time>2026-04-30T08:29:52.12Z</time></trkpt><trkpt lat="39.869527888044544" lon="9.207765732553622"><ele>717.5</ele><time>2026-04-30T08:29:53.12Z</time></trkpt><trkpt lat="39.86966751775002" lon="9.208056629039403"><ele>719.0</ele><time>2026-04-30T08:29:54.119Z</time></trkpt><trkpt lat="39.86977965271102" lon="9.208343987924167"><ele>714.3333333333333</ele><time>2026-04-30T08:29:55.119Z</time></trkpt><trkpt lat="39.86985843278825" lon="9.208616580271274"><ele>709.6666666666666</ele><time>2026-04-30T08:29:56.119Z</time></trkpt><trkpt lat="39.86992532821333" lon="9.208870591557385"><ele>705.0</ele><time>2026-04-30T08:29:57.119Z</time></trkpt><trkpt lat="39.8700211708496" lon="9.209098341552624"><ele>714.3333333333334</ele><time>2026-04-30T08:29:58.12Z</time></trkpt><trkpt lat="39.87016586789441" lon="9.209298814757918"><ele>723.6666666666667</ele><time>2026-04-30T08:29:59.12Z</time></trkpt><trkpt lat="39.870338932883335" lon="9.209477095835188"><ele>733.0</ele><time>2026-04-30T08:30:00.12Z</time></trkpt><trkpt lat="39.87053539826074" lon="9.209655130880494"><ele>733.0</ele><time>2026-04-30T08:30:01.119Z</time></trkpt><trkpt lat="39.870719890469026" lon="9.20981783807684"><ele>733.0</ele><time>2026-04-30T08:30:02.119Z</time></trkpt><trkpt lat="39.87088128702986" lon="9.209974526141632"><ele>733.0</ele><time>2026-04-30T08:30:03.119Z</time></trkpt><trkpt lat="39.8710280629888" lon="9.210160930703498"><ele>736.0</ele><time>2026-04-30T08:30:04.119Z</time></trkpt><trkpt lat="39.871153445574855" lon="9.210372390152049"><ele>739.0</ele><time>2026-04-30T08:30:05.119Z</time></trkpt><trkpt lat="39.87125267348734" lon="9.210614184283624"><ele>742.0</ele><time>2026-04-30T08:30:06.119Z</time></trkpt><trkpt lat="39.871327441862924" lon="9.2108729917599"><ele>734.6666666666667</ele><time>2026-04-30T08:30:07.119Z</time></trkpt><trkpt lat="39.87142277761672" lon="9.211107169885857"><ele>727.3333333333334</ele><time>2026-04-30T08:30:08.119Z</time></trkpt><trkpt lat="39.87155826527377" lon="9.211329745644104"><ele>720.0</ele><time>2026-04-30T08:30:09.119Z</time></trkpt><trkpt lat="39.871717868208854" lon="9.211547500190653"><ele>730.5</ele><time>2026-04-30T08:30:10.119Z</time></trkpt><trkpt lat="39.87188462923977" lon="9.21177974978217"><ele>741.0</ele><time>2026-04-30T08:30:11.119Z</time></trkpt><trkpt lat="39.87205586448531" lon="9.212018616076602"><ele>741.0</ele><time>2026-04-30T08:30:12.119Z</time></trkpt><trkpt lat="39.87220786863412" lon="9.21223171394237"><ele>741.0</ele><time>2026-04-30T08:30:13.119Z</time></trkpt><trkpt lat="39.87235949812366" lon="9.212423116663148"><ele>741.0</ele><time>2026-04-30T08:30:14.119Z</time></trkpt><trkpt lat="39.872516069650565" lon="9.212592033690166"><ele>739.3333333333334</ele><time>2026-04-30T08:30:15.119Z</time></trkpt><trkpt lat="39.872689474519596" lon="9.212740611048819"><ele>737.6666666666667</ele><time>2026-04-30T08:30:16.119Z</time></trkpt><trkpt lat="39.872875162604394" lon="9.212861158708856"><ele>736.0</ele><time>2026-04-30T08:30:17.119Z</time></trkpt><trkpt lat="39.87306307516432" lon="9.21294636035805"><ele>736.0</ele><time>2026-04-30T08:30:18.119Z</time></trkpt><trkpt lat="39.873239901360655" lon="9.212999535211633"><ele>736.0</ele><time>2026-04-30T08:30:19.119Z</time></trkpt><trkpt lat="39.873410738837" lon="9.213071828427033"><ele>736.0</ele><time>2026-04-30T08:30:20.119Z</time></trkpt><trkpt lat="39.873548259515694" lon="9.21317587180976"><ele>730.0</ele><time>2026-04-30T08:30:21.119Z</time></trkpt><trkpt lat="39.87366031816047" lon="9.213340596692241"><ele>724.0</ele><time>2026-04-30T08:30:22.119Z</time></trkpt><trkpt lat="39.8737462692564" lon="9.213548434818328"><ele>718.0</ele><time>2026-04-30T08:30:23.119Z</time></trkpt><trkpt lat="39.87378942695848" lon="9.21375998948284"><ele>718.0</ele><time>2026-04-30T08:30:24.119Z</time></trkpt><trkpt lat="39.873782559865695" lon="9.213968474575188"><ele>718.0</ele><time>2026-04-30T08:30:25.119Z</time></trkpt><trkpt lat="39.87372831173191" lon="9.214164239791549"><ele>718.0</ele><time>2026-04-30T08:30:26.119Z</time></trkpt><trkpt lat="39.8736425771579" lon="9.214344422835435"><ele>715.6666666666667</ele><time>2026-04-30T08:30:27.119Z</time></trkpt><trkpt lat="39.87352047820395" lon="9.21450674197894"><ele>713.3333333333334</ele><time>2026-04-30T08:30:28.119Z</time></trkpt><trkpt lat="39.87335510569526" lon="9.214618867341212"><ele>711.0</ele><time>2026-04-30T08:30:29.119Z</time></trkpt><trkpt lat="39.87314340799189" lon="9.214705645363706"><ele>711.0</ele><time>2026-04-30T08:30:30.119Z</time></trkpt><trkpt lat="39.872926323520005" lon="9.214801790387543"><ele>711.0</ele><time>2026-04-30T08:30:31.119Z</time></trkpt><trkpt lat="39.87275274217037" lon="9.214906757052479"><ele>711.0</ele><time>2026-04-30T08:30:32.119Z</time></trkpt><trkpt lat="39.87260720721731" lon="9.215054991594434"><ele>715.3333333333334</ele><time>2026-04-30T08:30:33.119Z</time></trkpt><trkpt lat="39.87249540606454" lon="9.215274582395763"><ele>719.6666666666667</ele><time>2026-04-30T08:30:34.119Z</time></trkpt><trkpt lat="39.87241389466705" lon="9.215536279157307"><ele>724.0</ele><time>2026-04-30T08:30:35.119Z</time></trkpt><trkpt lat="39.872358927870245" lon="9.215843235468883"><ele>728.5</ele><time>2026-04-30T08:30:36.12Z</time></trkpt><trkpt lat="39.87232986784777" lon="9.216200615814506"><ele>733.0</ele><time>2026-04-30T08:30:37.12Z</time></trkpt><trkpt lat="39.87231315815235" lon="9.216606464432305"><ele>736.5</ele><time>2026-04-30T08:30:38.12Z</time></trkpt><trkpt lat="39.87231119620972" lon="9.217000879053593"><ele>740.0</ele><time>2026-04-30T08:30:39.12Z</time></trkpt><trkpt lat="39.87230591104698" lon="9.217347564136784"><ele>740.3333333333333</ele><time>2026-04-30T08:30:40.12Z</time></trkpt><trkpt lat="39.872310954068354" lon="9.217645686850693"><ele>740.6666666666666</ele><time>2026-04-30T08:30:41.12Z</time></trkpt><trkpt lat="39.87235396347463" lon="9.217904111945336"><ele>741.0</ele><time>2026-04-30T08:30:42.12Z</time></trkpt><trkpt lat="39.87243744532219" lon="9.218126757210676"><ele>740.0</ele><time>2026-04-30T08:30:43.12Z</time></trkpt><trkpt lat="39.87257377888141" lon="9.218316771155855"><ele>739.0</ele><time>2026-04-30T08:30:44.12Z</time></trkpt><trkpt lat="39.872761600888985" lon="9.218466547055066"><ele>738.0</ele><time>2026-04-30T08:30:45.12Z</time></trkpt><trkpt lat="39.87299087606454" lon="9.218619511791013"><ele>741.6666666666666</ele><time>2026-04-30T08:30:46.12Z</time></trkpt><trkpt lat="39.87318036372879" lon="9.218759725531788"><ele>745.3333333333333</ele><time>2026-04-30T08:30:47.12Z</time></trkpt><trkpt lat="39.87332487084024" lon="9.218901211868948"><ele>749.0</ele><time>2026-04-30T08:30:48.12Z</time></trkpt><trkpt lat="39.87341260566744" lon="9.219072133089195"><ele>749.0</ele><time>2026-04-30T08:30:49.12Z</time></trkpt><trkpt lat="39.87344562185954" lon="9.219286808161028"><ele>749.0</ele><time>2026-04-30T08:30:50.12Z</time></trkpt><trkpt lat="39.873440837678636" lon="9.219525002976408"><ele>749.0</ele><time>2026-04-30T08:30:51.12Z</time></trkpt><trkpt lat="39.87339771369107" lon="9.219760160223464"><ele>752.3333333333333</ele><time>2026-04-30T08:30:52.12Z</time></trkpt><trkpt lat="39.873320556201" lon="9.219949693156606"><ele>755.6666666666666</ele><time>2026-04-30T08:30:53.12Z</time></trkpt><trkpt lat="39.87318574979711" lon="9.220105787126279"><ele>759.0</ele><time>2026-04-30T08:30:54.12Z</time></trkpt><trkpt lat="39.872992517194675" lon="9.220243772179902"><ele>759.0</ele><time>2026-04-30T08:30:55.12Z</time></trkpt><trkpt lat="39.87276395558266" lon="9.220399500641024"><ele>759.0</ele><time>2026-04-30T08:30:56.12Z</time></trkpt><trkpt lat="39.87252504262506" lon="9.220584355866157"><ele>761.5</ele><time>2026-04-30T08:30:57.12Z</time></trkpt><trkpt lat="39.8722359627172" lon="9.220827252440895"><ele>764.0</ele><time>2026-04-30T08:30:58.12Z</time></trkpt><trkpt lat="39.871931598706624" lon="9.22111519886787"><ele>766.0</ele><time>2026-04-30T08:30:59.12Z</time></trkpt><trkpt lat="39.871666532222086" lon="9.221389974726607"><ele>768.0</ele><time>2026-04-30T08:31:00.12Z</time></trkpt><trkpt lat="39.87146048990257" lon="9.221602462662863"><ele>768.0</ele><time>2026-04-30T08:31:01.12Z</time></trkpt><trkpt lat="39.87127860454729" lon="9.221775413707698"><ele>768.0</ele><time>2026-04-30T08:31:02.12Z</time></trkpt><trkpt lat="39.871124685654856" lon="9.221928908023848"><ele>768.0</ele><time>2026-04-30T08:31:03.12Z</time></trkpt><trkpt lat="39.870988605246126" lon="9.222061560635694"><ele>769.3333333333333</ele><time>2026-04-30T08:31:04.12Z</time></trkpt><trkpt lat="39.87085341845635" lon="9.222197951444578"><ele>770.6666666666666</ele><time>2026-04-30T08:31:05.12Z</time></trkpt><trkpt lat="39.87071500579529" lon="9.222355331805932"><ele>772.0</ele><time>2026-04-30T08:31:06.12Z</time></trkpt><trkpt lat="39.87057969884274" lon="9.222558000451233"><ele>772.0</ele><time>2026-04-30T08:31:07.12Z</time></trkpt><trkpt lat="39.87046623532818" lon="9.22278750941258"><ele>772.0</ele><time>2026-04-30T08:31:08.12Z</time></trkpt><trkpt lat="39.87035100470618" lon="9.223032019925487"><ele>772.0</ele><time>2026-04-30T08:31:09.12Z</time></trkpt><trkpt lat="39.8702274430409" lon="9.22327555573203"><ele>771.6666666666666</ele><time>2026-04-30T08:31:10.12Z</time></trkpt><trkpt lat="39.87010497562368" lon="9.223504141745748"><ele>771.3333333333333</ele><time>2026-04-30T08:31:11.12Z</time></trkpt><trkpt lat="39.86999785990195" lon="9.223676817485448"><ele>771.0</ele><time>2026-04-30T08:31:12.12Z</time></trkpt><trkpt lat="39.86989753950436" lon="9.223837537147222"><ele>774.0</ele><time>2026-04-30T08:31:13.12Z</time></trkpt><trkpt lat="39.86979687561726" lon="9.223999908236387"><ele>777.0</ele><time>2026-04-30T08:31:14.12Z</time></trkpt><trkpt lat="39.869705344863014" lon="9.224145122031752"><ele>780.0</ele><time>2026-04-30T08:31:15.12Z</time></trkpt><trkpt lat="39.86962330896725" lon="9.224289145180505"><ele>783.0</ele><time>2026-04-30T08:31:16.12Z</time></trkpt><trkpt lat="39.86955916388033" lon="9.224413510574514"><ele>783.0</ele><time>2026-04-30T08:31:17.12Z</time></trkpt><trkpt lat="39.86951814963252" lon="9.224546691786257"><ele>783.0</ele><time>2026-04-30T08:31:18.12Z</time></trkpt><trkpt lat="39.86951443459585" lon="9.224682295077264"><ele>783.0</ele><time>2026-04-30T08:31:19.12Z</time></trkpt><trkpt lat="39.86953262424755" lon="9.224818214525792"><ele>783.0</ele><time>2026-04-30T08:31:20.12Z</time></trkpt><trkpt lat="39.869585473638026" lon="9.224951112921987"><ele>783.0</ele><time>2026-04-30T08:31:21.12Z</time></trkpt><trkpt lat="39.86967713215397" lon="9.225083121066781"><ele>783.6666666666667</ele><time>2026-04-30T08:31:22.12Z</time></trkpt><trkpt lat="39.8697840014326" lon="9.225219862059818"><ele>784.3333333333334</ele><time>2026-04-30T08:31:23.12Z</time></trkpt><trkpt lat="39.86990255561435" lon="9.225379379842806"><ele>785.0</ele><time>2026-04-30T08:31:24.12Z</time></trkpt><trkpt lat="39.870025189738726" lon="9.225539545237647"><ele>787.0</ele><time>2026-04-30T08:31:25.12Z</time></trkpt><trkpt lat="39.87014097345148" lon="9.225680836559881"><ele>789.0</ele><time>2026-04-30T08:31:26.12Z</time></trkpt><trkpt lat="39.87026227473748" lon="9.225808901872428"><ele>791.0</ele><time>2026-04-30T08:31:27.12Z</time></trkpt><trkpt lat="39.870387830752" lon="9.225930172812953"><ele>791.0</ele><time>2026-04-30T08:31:28.12Z</time></trkpt><trkpt lat="39.87049844042967" lon="9.22607697553356"><ele>791.0</ele><time>2026-04-30T08:31:29.12Z</time></trkpt><trkpt lat="39.87059651420189" lon="9.226250206176857"><ele>791.0</ele><time>2026-04-30T08:31:30.12Z</time></trkpt><trkpt lat="39.87068613179548" lon="9.226437861254322"><ele>785.3333333333334</ele><time>2026-04-30T08:31:31.12Z</time></trkpt><trkpt lat="39.87076920051357" lon="9.226637276052376"><ele>779.6666666666667</ele><time>2026-04-30T08:31:32.12Z</time></trkpt><trkpt lat="39.87084132329858" lon="9.226847482016009"><ele>774.0</ele><time>2026-04-30T08:31:33.12Z</time></trkpt><trkpt lat="39.870921264912106" lon="9.227060111645569"><ele>777.0</ele><time>2026-04-30T08:31:34.12Z</time></trkpt><trkpt lat="39.8709960692091" lon="9.22727314715625"><ele>780.0</ele><time>2026-04-30T08:31:35.12Z</time></trkpt><trkpt lat="39.871048265484944" lon="9.227474429239832"><ele>783.0</ele><time>2026-04-30T08:31:36.12Z</time></trkpt><trkpt lat="39.87108695052755" lon="9.227676374120904"><ele>783.0</ele><time>2026-04-30T08:31:37.12Z</time></trkpt><trkpt lat="39.87110262370558" lon="9.227882181632635"><ele>783.0</ele><time>2026-04-30T08:31:38.12Z</time></trkpt><trkpt lat="39.87111841047399" lon="9.228086468014098"><ele>783.0</ele><time>2026-04-30T08:31:39.12Z</time></trkpt><trkpt lat="39.87116031856594" lon="9.228260553603597"><ele>779.25</ele><time>2026-04-30T08:31:40.12Z</time></trkpt><trkpt lat="39.871233474419675" lon="9.228400466461846"><ele>775.5</ele><time>2026-04-30T08:31:41.12Z</time></trkpt><trkpt lat="39.87133787491842" lon="9.22854531389859"><ele>771.75</ele><time>2026-04-30T08:31:42.12Z</time></trkpt><trkpt lat="39.87146309259997" lon="9.228677346382947"><ele>768.0</ele><time>2026-04-30T08:31:43.12Z</time></trkpt><trkpt lat="39.87160637860576" lon="9.228775611599893"><ele>768.0</ele><time>2026-04-30T08:31:44.12Z</time></trkpt><trkpt lat="39.87176947113346" lon="9.228828801708037"><ele>768.0</ele><time>2026-04-30T08:31:45.12Z</time></trkpt><trkpt lat="39.8719543802231" lon="9.228873010711744"><ele>768.0</ele><time>2026-04-30T08:31:46.12Z</time></trkpt><trkpt lat="39.872137096647506" lon="9.228930578708741"><ele>767.0</ele><time>2026-04-30T08:31:47.12Z</time></trkpt><trkpt lat="39.87230840754266" lon="9.228976778293323"><ele>766.0</ele><time>2026-04-30T08:31:48.12Z</time></trkpt><trkpt lat="39.87246647139312" lon="9.229003516097123"><ele>765.0</ele><time>2026-04-30T08:31:49.12Z</time></trkpt><trkpt lat="39.87261600936688" lon="9.229025792597426"><ele>765.0</ele><time>2026-04-30T08:31:50.12Z</time></trkpt><trkpt lat="39.87274775131198" lon="9.229039878806406"><ele>765.0</ele><time>2026-04-30T08:31:51.12Z</time></trkpt><trkpt lat="39.87286238755982" lon="9.22905948963676"><ele>765.0</ele><time>2026-04-30T08:31:52.12Z</time></trkpt><trkpt lat="39.872975437410396" lon="9.229125822992653"><ele>765.0</ele><time>2026-04-30T08:31:53.12Z</time></trkpt><trkpt lat="39.87306984096293" lon="9.229254622530895"><ele>765.0</ele><time>2026-04-30T08:31:54.122Z</time></trkpt><trkpt lat="39.873118955860306" lon="9.229406057826482"><ele>765.0</ele><time>2026-04-30T08:31:55.122Z</time></trkpt><trkpt lat="39.87312674236714" lon="9.229584832236052"><ele>765.0</ele><time>2026-04-30T08:31:56.122Z</time></trkpt><trkpt lat="39.87308495139134" lon="9.22977240902624"><ele>765.0</ele><time>2026-04-30T08:31:57.122Z</time></trkpt><trkpt lat="39.87301743650584" lon="9.23000209981586"><ele>762.0</ele><time>2026-04-30T08:31:58.122Z</time></trkpt><trkpt lat="39.872981291462274" lon="9.230271204824966"><ele>759.0</ele><time>2026-04-30T08:31:59.122Z</time></trkpt><trkpt lat="39.87296485388139" lon="9.230560040305809"><ele>756.0</ele><time>2026-04-30T08:32:00.122Z</time></trkpt><trkpt lat="39.87297309285465" lon="9.23082160813482"><ele>754.3333333333334</ele><time>2026-04-30T08:32:01.121Z</time></trkpt><trkpt lat="39.8729955532202" lon="9.231072098495876"><ele>752.6666666666667</ele><time>2026-04-30T08:32:02.121Z</time></trkpt><trkpt lat="39.873042735266075" lon="9.231315147602182"><ele>751.0</ele><time>2026-04-30T08:32:03.122Z</time></trkpt><trkpt lat="39.87313222395183" lon="9.231535049773928"><ele>747.6666666666667</ele><time>2026-04-30T08:32:04.122Z</time></trkpt><trkpt lat="39.87325544135714" lon="9.23172862519029"><ele>744.3333333333334</ele><time>2026-04-30T08:32:05.122Z</time></trkpt><trkpt lat="39.87339770490413" lon="9.23187666472943"><ele>741.0</ele><time>2026-04-30T08:32:06.122Z</time></trkpt><trkpt lat="39.87355444038129" lon="9.231965037349005"><ele>741.0</ele><time>2026-04-30T08:32:07.122Z</time></trkpt><trkpt lat="39.87372671407639" lon="9.231967446422729"><ele>741.0</ele><time>2026-04-30T08:32:08.122Z</time></trkpt><trkpt lat="39.87391032527847" lon="9.231927708663445"><ele>741.0</ele><time>2026-04-30T08:32:09.122Z</time></trkpt><trkpt lat="39.87408192053643" lon="9.231910429689947"><ele>741.0</ele><time>2026-04-30T08:32:10.122Z</time></trkpt><trkpt lat="39.874252966360515" lon="9.231952820109145"><ele>741.0</ele><time>2026-04-30T08:32:11.122Z</time></trkpt><trkpt lat="39.87441752086643" lon="9.232021673635453"><ele>741.0</ele><time>2026-04-30T08:32:12.122Z</time></trkpt><trkpt lat="39.87456863162169" lon="9.232096755190712"><ele>739.6666666666666</ele><time>2026-04-30T08:32:13.122Z</time></trkpt><trkpt lat="39.87468905491073" lon="9.232213828768414"><ele>738.3333333333333</ele><time>2026-04-30T08:32:14.122Z</time></trkpt><trkpt lat="39.87475811677268" lon="9.23238418675121"><ele>737.0</ele><time>2026-04-30T08:32:15.122Z</time></trkpt><trkpt lat="39.87477939976347" lon="9.232590596108261"><ele>737.0</ele><time>2026-04-30T08:32:16.122Z</time></trkpt><trkpt lat="39.8747517867153" lon="9.232814014662186"><ele>737.0</ele><time>2026-04-30T08:32:17.122Z</time></trkpt><trkpt lat="39.87476364806764" lon="9.233050146146457"><ele>737.0</ele><time>2026-04-30T08:32:18.122Z</time></trkpt><trkpt lat="39.874807504368604" lon="9.233268956330072"><ele>734.75</ele><time>2026-04-30T08:32:19.122Z</time></trkpt><trkpt lat="39.87480105326249" lon="9.233458171824445"><ele>732.5</ele><time>2026-04-30T08:32:20.122Z</time></trkpt><trkpt lat="39.874752549088434" lon="9.233622409876284"><ele>730.25</ele><time>2026-04-30T08:32:21.122Z</time></trkpt><trkpt lat="39.87466387147233" lon="9.233725758327337"><ele>728.0</ele><time>2026-04-30T08:32:22.122Z</time></trkpt><trkpt lat="39.874538674826184" lon="9.233780595502907"><ele>728.0</ele><time>2026-04-30T08:32:23.122Z</time></trkpt><trkpt lat="39.87440066400833" lon="9.233778020418113"><ele>728.0</ele><time>2026-04-30T08:32:24.122Z</time></trkpt><trkpt lat="39.874256958757" lon="9.23371208890639"><ele>728.0</ele><time>2026-04-30T08:32:25.122Z</time></trkpt><trkpt lat="39.874101333068715" lon="9.23364306439793"><ele>723.6666666666666</ele><time>2026-04-30T08:32:26.122Z</time></trkpt><trkpt lat="39.8739320495432" lon="9.233627992056425"><ele>719.3333333333334</ele><time>2026-04-30T08:32:27.123Z</time></trkpt><trkpt lat="39.87375147121545" lon="9.233675516772388"><ele>715.0</ele><time>2026-04-30T08:32:28.123Z</time></trkpt><trkpt lat="39.87356297797118" lon="9.233726385550765"><ele>712.6666666666667</ele><time>2026-04-30T08:32:29.123Z</time></trkpt><trkpt lat="39.87338401441651" lon="9.233768150542321"><ele>710.3333333333334</ele><time>2026-04-30T08:32:30.123Z</time></trkpt><trkpt lat="39.873231679229136" lon="9.233805691972918"><ele>708.0</ele><time>2026-04-30T08:32:31.123Z</time></trkpt><trkpt lat="39.87309580373999" lon="9.233835186826713"><ele>708.0</ele><time>2026-04-30T08:32:32.123Z</time></trkpt><trkpt lat="39.87297176997071" lon="9.233846193369597"><ele>708.0</ele><time>2026-04-30T08:32:33.123Z</time></trkpt><trkpt lat="39.87285886032404" lon="9.23384256180071"><ele>708.0</ele><time>2026-04-30T08:32:34.123Z</time></trkpt><trkpt lat="39.87274609880185" lon="9.233836189462842"><ele>708.0</ele><time>2026-04-30T08:32:35.123Z</time></trkpt><trkpt lat="39.872633060720744" lon="9.233820183611096"><ele>708.0</ele><time>2026-04-30T08:32:36.123Z</time></trkpt><trkpt lat="39.872515567954316" lon="9.233823349729606"><ele>708.0</ele><time>2026-04-30T08:32:37.123Z</time></trkpt><trkpt lat="39.87239853785879" lon="9.233858931805289"><ele>708.0</ele><time>2026-04-30T08:32:38.123Z</time></trkpt><trkpt lat="39.87227065367627" lon="9.233904133812615"><ele>708.0</ele><time>2026-04-30T08:32:39.123Z</time></trkpt><trkpt lat="39.87214873746721" lon="9.233950082179256"><ele>708.0</ele><time>2026-04-30T08:32:40.123Z</time></trkpt><trkpt lat="39.87202266519543" lon="9.233975887426576"><ele>708.0</ele><time>2026-04-30T08:32:41.123Z</time></trkpt><trkpt lat="39.871912728026565" lon="9.233981664967041"><ele>708.0</ele><time>2026-04-30T08:32:42.123Z</time></trkpt><trkpt lat="39.871814434754036" lon="9.233949077714577"><ele>708.0</ele><time>2026-04-30T08:32:43.123Z</time></trkpt><trkpt lat="39.87172907556692" lon="9.233880597080953"><ele>708.0</ele><time>2026-04-30T08:32:44.123Z</time></trkpt><trkpt lat="39.87166699738132" lon="9.23378770854934"><ele>710.8</ele><time>2026-04-30T08:32:45.123Z</time></trkpt><trkpt lat="39.8716079457424" lon="9.23368909709068"><ele>713.5999999999999</ele><time>2026-04-30T08:32:46.123Z</time></trkpt><trkpt lat="39.87156163533137" lon="9.233575543591783"><ele>716.4000000000001</ele><time>2026-04-30T08:32:47.123Z</time></trkpt><trkpt lat="39.87150963370617" lon="9.233470941240729"><ele>719.2</ele><time>2026-04-30T08:32:48.123Z</time></trkpt><trkpt lat="39.87143944398465" lon="9.23338318939635"><ele>722.0</ele><time>2026-04-30T08:32:49.123Z</time></trkpt><trkpt lat="39.87136232993587" lon="9.233309189864656"><ele>722.0</ele><time>2026-04-30T08:32:50.123Z</time></trkpt><trkpt lat="39.87127713194927" lon="9.233267760395059"><ele>722.0</ele><time>2026-04-30T08:32:51.123Z</time></trkpt><trkpt lat="39.871189258298905" lon="9.233280775444834"><ele>722.0</ele><time>2026-04-30T08:32:52.123Z</time></trkpt><trkpt lat="39.87111248543139" lon="9.233326049013213"><ele>722.0</ele><time>2026-04-30T08:32:53.123Z</time></trkpt><trkpt lat="39.87106460342182" lon="9.233391915586722"><ele>722.0</ele><time>2026-04-30T08:32:54.123Z</time></trkpt><trkpt lat="39.871020220282944" lon="9.2334685790483"><ele>722.0</ele><time>2026-04-30T08:32:55.123Z</time></trkpt><trkpt lat="39.87096774228068" lon="9.233552186752325"><ele>722.0</ele><time>2026-04-30T08:32:56.123Z</time></trkpt><trkpt lat="39.87091108232498" lon="9.233625786747288"><ele>722.0</ele><time>2026-04-30T08:32:57.123Z</time></trkpt><trkpt lat="39.87084375344515" lon="9.233701970847585"><ele>722.0</ele><time>2026-04-30T08:32:58.123Z</time></trkpt><trkpt lat="39.870778617106865" lon="9.233774156686534"><ele>722.0</ele><time>2026-04-30T08:32:59.123Z</time></trkpt><trkpt lat="39.870723317844494" lon="9.233860932134139"><ele>722.0</ele><time>2026-04-30T08:33:00.123Z</time></trkpt><trkpt lat="39.870666651926335" lon="9.233948209710231"><ele>722.0</ele><time>2026-04-30T08:33:01.123Z</time></trkpt><trkpt lat="39.870608787604" lon="9.234031745063422"><ele>726.2</ele><time>2026-04-30T08:33:02.123Z</time></trkpt><trkpt lat="39.87056047546015" lon="9.234126881536428"><ele>730.4000000000001</ele><time>2026-04-30T08:33:03.123Z</time></trkpt><trkpt lat="39.870526999635516" lon="9.23422966784395"><ele>734.5999999999999</ele><time>2026-04-30T08:33:04.123Z</time></trkpt><trkpt lat="39.87048952226844" lon="9.234333494387974"><ele>738.8</ele><time>2026-04-30T08:33:05.123Z</time></trkpt><trkpt lat="39.87044364931157" lon="9.234439778833957"><ele>743.0</ele><time>2026-04-30T08:33:06.123Z</time></trkpt><trkpt lat="39.87040022035942" lon="9.23455191176312"><ele>743.0</ele><time>2026-04-30T08:33:07.123Z</time></trkpt><trkpt lat="39.870346328848996" lon="9.234659070943591"><ele>743.0</ele><time>2026-04-30T08:33:08.123Z</time></trkpt><trkpt lat="39.87029136698853" lon="9.234768494795967"><ele>743.0</ele><time>2026-04-30T08:33:09.123Z</time></trkpt><trkpt lat="39.87024021186665" lon="9.234868217717235"><ele>743.0</ele><time>2026-04-30T08:33:10.123Z</time></trkpt><trkpt lat="39.87020564889752" lon="9.234986898287266"><ele>743.0</ele><time>2026-04-30T08:33:11.123Z</time></trkpt><trkpt lat="39.8701641676341" lon="9.235103301179366"><ele>742.1666666666666</ele><time>2026-04-30T08:33:12.123Z</time></trkpt><trkpt lat="39.87012283806091" lon="9.235215099035178"><ele>741.3333333333333</ele><time>2026-04-30T08:33:13.123Z</time></trkpt><trkpt lat="39.870080946744494" lon="9.235323802794506"><ele>740.5</ele><time>2026-04-30T08:33:14.123Z</time></trkpt><trkpt lat="39.87004008237381" lon="9.235432418662665"><ele>739.6666666666666</ele><time>2026-04-30T08:33:15.123Z</time></trkpt><trkpt lat="39.87000476093891" lon="9.235537833902454"><ele>738.8333333333334</ele><time>2026-04-30T08:33:16.123Z</time></trkpt><trkpt lat="39.869971823750106" lon="9.235632101309006"><ele>738.0</ele><time>2026-04-30T08:33:17.123Z</time></trkpt><trkpt lat="39.86988890905419" lon="9.235758585600328"><ele>740.3333333333334</ele><time>2026-04-30T08:33:19.123Z</time></trkpt><trkpt lat="39.86983093163384" lon="9.235809982002642"><ele>742.6666666666666</ele><time>2026-04-30T08:33:20.123Z</time></trkpt><trkpt lat="39.869766410693025" lon="9.235854130349846"><ele>745.0</ele><time>2026-04-30T08:33:21.123Z</time></trkpt><trkpt lat="39.86969934378658" lon="9.235895153943378"><ele>747.3333333333333</ele><time>2026-04-30T08:33:22.123Z</time></trkpt><trkpt lat="39.8696067671039" lon="9.235931004446835"><ele>749.6666666666666</ele><time>2026-04-30T08:33:23.123Z</time></trkpt><trkpt lat="39.869540742670615" lon="9.235982113174268"><ele>752.0</ele><time>2026-04-30T08:33:24.123Z</time></trkpt><trkpt lat="39.869480864753065" lon="9.23602572991767"><ele>752.0</ele><time>2026-04-30T08:33:25.123Z</time></trkpt><trkpt lat="39.86940116795243" lon="9.236072761915"><ele>752.0</ele><time>2026-04-30T08:33:27.123Z</time></trkpt></trkseg><trkseg><trkpt lat="39.86933187686791" lon="9.236072135684203"><ele>752.0</ele><time>2026-04-30T08:48:25.142Z</time></trkpt><trkpt lat="39.869287435702354" lon="9.236133853628967"><ele>752.0</ele><time>2026-04-30T08:48:28.142Z</time></trkpt><trkpt lat="39.869210152291146" lon="9.236191971982013"><ele>752.0</ele><time>2026-04-30T08:48:30.142Z</time></trkpt><trkpt lat="39.86909101054792" lon="9.236273922943393"><ele>752.0</ele><time>2026-04-30T08:48:32.142Z</time></trkpt><trkpt lat="39.869007979555256" lon="9.236311746572945"><ele>752.0</ele><time>2026-04-30T08:48:33.142Z</time></trkpt><trkpt lat="39.868919907870726" lon="9.236366656375933"><ele>752.3333333333333</ele><time>2026-04-30T08:48:34.142Z</time></trkpt><trkpt lat="39.86884369503279" lon="9.236402822081285"><ele>752.6666666666666</ele><time>2026-04-30T08:48:35.142Z</time></trkpt><trkpt lat="39.868768400842605" lon="9.236502790815434"><ele>753.0</ele><time>2026-04-30T08:48:37.142Z</time></trkpt><trkpt lat="39.86871549900913" lon="9.236553677228153"><ele>753.3333333333334</ele><time>2026-04-30T08:48:38.142Z</time></trkpt><trkpt lat="39.86866126933142" lon="9.236598955968283"><ele>753.6666666666667</ele><time>2026-04-30T08:48:39.142Z</time></trkpt><trkpt lat="39.86860756377948" lon="9.23665348701875"><ele>754.0</ele><time>2026-04-30T08:48:40.142Z</time></trkpt><trkpt lat="39.8685539993007" lon="9.236704430715477"><ele>754.0</ele><time>2026-04-30T08:48:41.142Z</time></trkpt><trkpt lat="39.86849902883272" lon="9.236766154630383"><ele>754.0</ele><time>2026-04-30T08:48:42.144Z</time></trkpt><trkpt lat="39.86844714732854" lon="9.236859607977006"><ele>754.0</ele><time>2026-04-30T08:48:43.144Z</time></trkpt><trkpt lat="39.86839841064151" lon="9.236979138048369"><ele>754.0</ele><time>2026-04-30T08:48:44.144Z</time></trkpt><trkpt lat="39.86835717517117" lon="9.237106553042363"><ele>754.0</ele><time>2026-04-30T08:48:45.144Z</time></trkpt><trkpt lat="39.868317907777154" lon="9.23721765049841"><ele>754.0</ele><time>2026-04-30T08:48:46.144Z</time></trkpt><trkpt lat="39.86826258541584" lon="9.237309959060212"><ele>754.0</ele><time>2026-04-30T08:48:47.144Z</time></trkpt><trkpt lat="39.868225091091944" lon="9.2374018281447"><ele>754.0</ele><time>2026-04-30T08:48:48.143Z</time></trkpt><trkpt lat="39.86818620583403" lon="9.237476915494879"><ele>754.0</ele><time>2026-04-30T08:48:49.144Z</time></trkpt><trkpt lat="39.868155579634866" lon="9.23755989864668"><ele>754.0</ele><time>2026-04-30T08:48:50.144Z</time></trkpt><trkpt lat="39.86810850044887" lon="9.237706904108391"><ele>754.0</ele><time>2026-04-30T08:48:52.144Z</time></trkpt><trkpt lat="39.868098888675654" lon="9.237820296241438"><ele>754.0</ele><time>2026-04-30T08:48:53.144Z</time></trkpt><trkpt lat="39.868085099517685" lon="9.237921955084374"><ele>754.0</ele><time>2026-04-30T08:48:54.144Z</time></trkpt><trkpt lat="39.86810225310575" lon="9.238011357095978"><ele>754.0</ele><time>2026-04-30T08:48:55.143Z</time></trkpt><trkpt lat="39.868134350394136" lon="9.238093580389695"><ele>754.0</ele><time>2026-04-30T08:48:56.143Z</time></trkpt><trkpt lat="39.868210570946715" lon="9.238183226165805"><ele>754.0</ele><time>2026-04-30T08:48:58.143Z</time></trkpt><trkpt lat="39.868281853924685" lon="9.238216266559188"><ele>754.0</ele><time>2026-04-30T08:49:07.143Z</time></trkpt><trkpt lat="39.86835645908106" lon="9.238305580732312"><ele>754.4000000000001</ele><time>2026-04-30T08:49:10.143Z</time></trkpt><trkpt lat="39.86841820081114" lon="9.238375206625355"><ele>754.8</ele><time>2026-04-30T08:49:11.143Z</time></trkpt><trkpt lat="39.86849370624721" lon="9.238453786384976"><ele>755.2</ele><time>2026-04-30T08:49:12.143Z</time></trkpt><trkpt lat="39.86857390289413" lon="9.238516440763878"><ele>755.5999999999999</ele><time>2026-04-30T08:49:13.143Z</time></trkpt><trkpt lat="39.868649963609684" lon="9.238589917058574"><ele>756.0</ele><time>2026-04-30T08:49:14.143Z</time></trkpt><trkpt lat="39.868717334922586" lon="9.23865905572785"><ele>755.8</ele><time>2026-04-30T08:49:15.143Z</time></trkpt><trkpt lat="39.868776488447516" lon="9.238738351077641"><ele>755.5999999999999</ele><time>2026-04-30T08:49:16.143Z</time></trkpt><trkpt lat="39.86883081886743" lon="9.238827594108004"><ele>755.4</ele><time>2026-04-30T08:49:17.143Z</time></trkpt><trkpt lat="39.86890656507164" lon="9.238925709220988"><ele>755.2</ele><time>2026-04-30T08:49:18.143Z</time></trkpt><trkpt lat="39.86898578167573" lon="9.23900508811123"><ele>755.0</ele><time>2026-04-30T08:49:19.143Z</time></trkpt><trkpt lat="39.86907877863307" lon="9.239098703820241"><ele>755.0</ele><time>2026-04-30T08:49:20.143Z</time></trkpt><trkpt lat="39.8691707674812" lon="9.239173763630259"><ele>755.0</ele><time>2026-04-30T08:49:21.143Z</time></trkpt><trkpt lat="39.86925884422109" lon="9.23923244983261"><ele>755.0</ele><time>2026-04-30T08:49:22.143Z</time></trkpt><trkpt lat="39.8693426548791" lon="9.239282061650538"><ele>755.0</ele><time>2026-04-30T08:49:23.143Z</time></trkpt><trkpt lat="39.86942660551382" lon="9.239335424507416"><ele>755.0</ele><time>2026-04-30T08:49:24.143Z</time></trkpt><trkpt lat="39.869522409783315" lon="9.239378402236387"><ele>757.2</ele><time>2026-04-30T08:49:25.143Z</time></trkpt><trkpt lat="39.86961515562959" lon="9.239410619050354"><ele>759.4</ele><time>2026-04-30T08:49:26.143Z</time></trkpt><trkpt lat="39.869716298154394" lon="9.239447135987117"><ele>761.5999999999999</ele><time>2026-04-30T08:49:27.143Z</time></trkpt><trkpt lat="39.869817444714144" lon="9.239503446500088"><ele>763.8</ele><time>2026-04-30T08:49:28.143Z</time></trkpt><trkpt lat="39.869914948005736" lon="9.23955919423027"><ele>766.0</ele><time>2026-04-30T08:49:29.143Z</time></trkpt><trkpt lat="39.87001612612046" lon="9.239639298136352"><ele>766.0</ele><time>2026-04-30T08:49:30.143Z</time></trkpt><trkpt lat="39.87009581084375" lon="9.239744419346737"><ele>766.0</ele><time>2026-04-30T08:49:31.143Z</time></trkpt><trkpt lat="39.870164273505026" lon="9.23985136542782"><ele>766.0</ele><time>2026-04-30T08:49:32.143Z</time></trkpt><trkpt lat="39.870228261174354" lon="9.239955049966238"><ele>766.0</ele><time>2026-04-30T08:49:33.143Z</time></trkpt><trkpt lat="39.87029641855169" lon="9.240068915386551"><ele>766.0</ele><time>2026-04-30T08:49:34.143Z</time></trkpt><trkpt lat="39.87037595905869" lon="9.240175673381597"><ele>767.1999999999999</ele><time>2026-04-30T08:49:35.144Z</time></trkpt><trkpt lat="39.87043718175546" lon="9.24027853727846"><ele>768.4</ele><time>2026-04-30T08:49:36.144Z</time></trkpt><trkpt lat="39.87050147778261" lon="9.240375450953168"><ele>769.6</ele><time>2026-04-30T08:49:37.144Z</time></trkpt><trkpt lat="39.870565396957296" lon="9.240463939578662"><ele>770.8</ele><time>2026-04-30T08:49:38.144Z</time></trkpt><trkpt lat="39.8706443768167" lon="9.240550371870047"><ele>772.0</ele><time>2026-04-30T08:49:39.144Z</time></trkpt><trkpt lat="39.87073936465859" lon="9.240620655781244"><ele>771.6666666666666</ele><time>2026-04-30T08:49:40.144Z</time></trkpt><trkpt lat="39.870856982709725" lon="9.240682954535306"><ele>771.3333333333333</ele><time>2026-04-30T08:49:41.144Z</time></trkpt><trkpt lat="39.87102315057867" lon="9.240711195080214"><ele>771.0</ele><time>2026-04-30T08:49:42.144Z</time></trkpt><trkpt lat="39.87117898181715" lon="9.240736160834551"><ele>771.0</ele><time>2026-04-30T08:49:43.144Z</time></trkpt><trkpt lat="39.87129617143431" lon="9.240779377736986"><ele>771.0</ele><time>2026-04-30T08:49:44.144Z</time></trkpt><trkpt lat="39.87139203800945" lon="9.240831466990416"><ele>771.0</ele><time>2026-04-30T08:49:45.144Z</time></trkpt><trkpt lat="39.87145856308207" lon="9.240930119138692"><ele>771.0</ele><time>2026-04-30T08:49:46.144Z</time></trkpt><trkpt lat="39.87149485439291" lon="9.241078622281803"><ele>771.0</ele><time>2026-04-30T08:49:47.144Z</time></trkpt><trkpt lat="39.8714890705301" lon="9.24122717500892"><ele>771.0</ele><time>2026-04-30T08:49:48.144Z</time></trkpt><trkpt lat="39.87143780261819" lon="9.241361987109356"><ele>771.0</ele><time>2026-04-30T08:49:49.144Z</time></trkpt><trkpt lat="39.871334076482114" lon="9.241470934829529"><ele>771.0</ele><time>2026-04-30T08:49:50.144Z</time></trkpt><trkpt lat="39.871190715936706" lon="9.241566565301785"><ele>771.0</ele><time>2026-04-30T08:49:51.144Z</time></trkpt><trkpt lat="39.87103866871165" lon="9.241688099944191"><ele>764.3333333333334</ele><time>2026-04-30T08:49:52.144Z</time></trkpt><trkpt lat="39.87088589322119" lon="9.241831834073311"><ele>757.6666666666667</ele><time>2026-04-30T08:49:53.144Z</time></trkpt><trkpt lat="39.87077019776" lon="9.241991050783064"><ele>751.0</ele><time>2026-04-30T08:49:54.144Z</time></trkpt><trkpt lat="39.87067257572651" lon="9.242170678216342"><ele>757.6666666666667</ele><time>2026-04-30T08:49:55.144Z</time></trkpt><trkpt lat="39.87061218127736" lon="9.242379509719854"><ele>764.3333333333334</ele><time>2026-04-30T08:49:56.144Z</time></trkpt><trkpt lat="39.87057830338588" lon="9.242630492576353"><ele>771.0</ele><time>2026-04-30T08:49:57.144Z</time></trkpt><trkpt lat="39.870564185044664" lon="9.242889398699399"><ele>771.0</ele><time>2026-04-30T08:49:58.144Z</time></trkpt><trkpt lat="39.870552050748294" lon="9.243122614311616"><ele>771.0</ele><time>2026-04-30T08:49:59.144Z</time></trkpt><trkpt lat="39.870554091122344" lon="9.243320714619662"><ele>771.0</ele><time>2026-04-30T08:50:00.144Z</time></trkpt><trkpt lat="39.870600669434495" lon="9.243486236637212"><ele>771.0</ele><time>2026-04-30T08:50:01.144Z</time></trkpt><trkpt lat="39.87067781653751" lon="9.243657049632349"><ele>771.0</ele><time>2026-04-30T08:50:02.144Z</time></trkpt><trkpt lat="39.870770592975724" lon="9.243795540132917"><ele>771.0</ele><time>2026-04-30T08:50:03.144Z</time></trkpt><trkpt lat="39.870903809934134" lon="9.24389889489135"><ele>771.0</ele><time>2026-04-30T08:50:04.144Z</time></trkpt><trkpt lat="39.87108217952847" lon="9.243977142665084"><ele>775.0</ele><time>2026-04-30T08:50:05.144Z</time></trkpt><trkpt lat="39.87128857394723" lon="9.244046647762744"><ele>779.0</ele><time>2026-04-30T08:50:06.144Z</time></trkpt><trkpt lat="39.871443066447334" lon="9.24410271118884"><ele>783.0</ele><time>2026-04-30T08:50:07.144Z</time></trkpt><trkpt lat="39.87154272552632" lon="9.244181970840128"><ele>783.0</ele><time>2026-04-30T08:50:08.144Z</time></trkpt><trkpt lat="39.871599261047336" lon="9.244297207176995"><ele>783.0</ele><time>2026-04-30T08:50:09.144Z</time></trkpt><trkpt lat="39.87159456110616" lon="9.24444625185492"><ele>783.0</ele><time>2026-04-30T08:50:10.144Z</time></trkpt><trkpt lat="39.87154796991029" lon="9.244567111189447"><ele>783.0</ele><time>2026-04-30T08:50:11.144Z</time></trkpt><trkpt lat="39.87150135255469" lon="9.244639837524511"><ele>783.0</ele><time>2026-04-30T08:50:12.144Z</time></trkpt><trkpt lat="39.871491611281606" lon="9.244730360053458"><ele>783.0</ele><time>2026-04-30T08:50:13.144Z</time></trkpt><trkpt lat="39.871405880970975" lon="9.244765630228953"><ele>783.0</ele><time>2026-04-30T08:50:14.144Z</time></trkpt><trkpt lat="39.8713047977136" lon="9.244791994169645"><ele>783.0</ele><time>2026-04-30T08:50:15.144Z</time></trkpt><trkpt lat="39.87118912086907" lon="9.244829075839055"><ele>783.0</ele><time>2026-04-30T08:50:16.144Z</time></trkpt><trkpt lat="39.871052150274565" lon="9.244888115874252"><ele>781.3333333333333</ele><time>2026-04-30T08:50:17.144Z</time></trkpt><trkpt lat="39.87088068357867" lon="9.244953830754895"><ele>779.6666666666666</ele><time>2026-04-30T08:50:18.144Z</time></trkpt><trkpt lat="39.87070405683608" lon="9.245001925284045"><ele>778.0</ele><time>2026-04-30T08:50:19.144Z</time></trkpt><trkpt lat="39.87054117495414" lon="9.245055076165823"><ele>778.0</ele><time>2026-04-30T08:50:20.144Z</time></trkpt><trkpt lat="39.87040917383722" lon="9.245110507188535"><ele>778.0</ele><time>2026-04-30T08:50:21.144Z</time></trkpt><trkpt lat="39.870288247366055" lon="9.245199473390077"><ele>778.0</ele><time>2026-04-30T08:50:22.144Z</time></trkpt><trkpt lat="39.87019026623897" lon="9.245338886356603"><ele>778.0</ele><time>2026-04-30T08:50:23.144Z</time></trkpt><trkpt lat="39.87012505410526" lon="9.245515452252357"><ele>779.6666666666666</ele><time>2026-04-30T08:50:24.144Z</time></trkpt><trkpt lat="39.870097200173674" lon="9.24572550249897"><ele>781.3333333333333</ele><time>2026-04-30T08:50:25.144Z</time></trkpt><trkpt lat="39.870099434285585" lon="9.245961895033389"><ele>783.0</ele><time>2026-04-30T08:50:26.144Z</time></trkpt><trkpt lat="39.87011205650611" lon="9.246209293684533"><ele>789.3333333333333</ele><time>2026-04-30T08:50:27.144Z</time></trkpt><trkpt lat="39.87012917259445" lon="9.246430742179745"><ele>795.6666666666666</ele><time>2026-04-30T08:50:28.144Z</time></trkpt><trkpt lat="39.87017632704601" lon="9.246620868896576"><ele>802.0</ele><time>2026-04-30T08:50:29.144Z</time></trkpt><trkpt lat="39.870248014446254" lon="9.246805949888092"><ele>802.5</ele><time>2026-04-30T08:50:30.144Z</time></trkpt><trkpt lat="39.870328913729224" lon="9.246959757099463"><ele>803.0</ele><time>2026-04-30T08:50:31.144Z</time></trkpt><trkpt lat="39.87040075040836" lon="9.247096833948211"><ele>803.5</ele><time>2026-04-30T08:50:32.144Z</time></trkpt><trkpt lat="39.8704778357683" lon="9.247263847599259"><ele>804.0</ele><time>2026-04-30T08:50:33.144Z</time></trkpt><trkpt lat="39.87057215273996" lon="9.247460442462579"><ele>799.5</ele><time>2026-04-30T08:50:34.144Z</time></trkpt><trkpt lat="39.87068667255907" lon="9.247708156385066"><ele>795.0</ele><time>2026-04-30T08:50:35.144Z</time></trkpt><trkpt lat="39.87081850339465" lon="9.247990791014425"><ele>791.0</ele><time>2026-04-30T08:50:36.144Z</time></trkpt><trkpt lat="39.87093111181261" lon="9.248252517755386"><ele>787.0</ele><time>2026-04-30T08:50:37.144Z</time></trkpt><trkpt lat="39.870995468451824" lon="9.248459610099925"><ele>783.0</ele><time>2026-04-30T08:50:38.144Z</time></trkpt><trkpt lat="39.87101463974453" lon="9.248732077733345"><ele>790.0</ele><time>2026-04-30T08:50:39.144Z</time></trkpt><trkpt lat="39.87103612445861" lon="9.249003554558369"><ele>797.0</ele><time>2026-04-30T08:50:40.144Z</time></trkpt><trkpt lat="39.87106722461494" lon="9.249229601048832"><ele>804.0</ele><time>2026-04-30T08:50:41.144Z</time></trkpt><trkpt lat="39.87110262745172" lon="9.249438084051016"><ele>804.0</ele><time>2026-04-30T08:50:42.144Z</time></trkpt><trkpt lat="39.87116746703216" lon="9.249629034611916"><ele>804.0</ele><time>2026-04-30T08:50:43.144Z</time></trkpt><trkpt lat="39.871281852480784" lon="9.24980880944566"><ele>804.0</ele><time>2026-04-30T08:50:44.144Z</time></trkpt><trkpt lat="39.8714361947242" lon="9.249958746705493"><ele>807.3333333333333</ele><time>2026-04-30T08:50:45.144Z</time></trkpt><trkpt lat="39.87161852145339" lon="9.250093085662652"><ele>810.6666666666666</ele><time>2026-04-30T08:50:46.144Z</time></trkpt><trkpt lat="39.87180288706918" lon="9.250257477982654"><ele>814.0</ele><time>2026-04-30T08:50:47.144Z</time></trkpt><trkpt lat="39.871980530774486" lon="9.250419108525826"><ele>814.0</ele><time>2026-04-30T08:50:48.146Z</time></trkpt><trkpt lat="39.87210140519474" lon="9.25060037175196"><ele>814.0</ele><time>2026-04-30T08:50:49.146Z</time></trkpt><trkpt lat="39.87224071239211" lon="9.250771806832603"><ele>814.0</ele><time>2026-04-30T08:50:50.146Z</time></trkpt><trkpt lat="39.87241445185425" lon="9.250921332540251"><ele>817.6666666666666</ele><time>2026-04-30T08:50:51.146Z</time></trkpt><trkpt lat="39.872584254427274" lon="9.25108901301096"><ele>821.3333333333333</ele><time>2026-04-30T08:50:52.146Z</time></trkpt><trkpt lat="39.87274096492585" lon="9.251241532570873"><ele>825.0</ele><time>2026-04-30T08:50:53.146Z</time></trkpt><trkpt lat="39.87286792568227" lon="9.251386671828937"><ele>819.25</ele><time>2026-04-30T08:50:54.146Z</time></trkpt><trkpt lat="39.87295245085861" lon="9.251538366958165"><ele>813.5</ele><time>2026-04-30T08:50:55.146Z</time></trkpt><trkpt lat="39.87298429731542" lon="9.251711809016477"><ele>807.75</ele><time>2026-04-30T08:50:56.146Z</time></trkpt><trkpt lat="39.872974646239804" lon="9.251894455348925"><ele>802.0</ele><time>2026-04-30T08:50:57.146Z</time></trkpt><trkpt lat="39.87291773822109" lon="9.252041693075338"><ele>802.0</ele><time>2026-04-30T08:50:58.146Z</time></trkpt><trkpt lat="39.87288543090875" lon="9.252165437989307"><ele>802.0</ele><time>2026-04-30T08:50:59.146Z</time></trkpt><trkpt lat="39.87293587216177" lon="9.252283113897269"><ele>802.0</ele><time>2026-04-30T08:51:00.146Z</time></trkpt><trkpt lat="39.873053289486215" lon="9.252391327954596"><ele>802.0</ele><time>2026-04-30T08:51:01.146Z</time></trkpt><trkpt lat="39.87319166045438" lon="9.25244125498702"><ele>806.3333333333333</ele><time>2026-04-30T08:51:02.146Z</time></trkpt><trkpt lat="39.873335864921174" lon="9.252391517946435"><ele>810.6666666666667</ele><time>2026-04-30T08:51:03.146Z</time></trkpt><trkpt lat="39.87348266405273" lon="9.25230844758298"><ele>815.0</ele><time>2026-04-30T08:51:04.146Z</time></trkpt><trkpt lat="39.8736660098115" lon="9.252224049969296"><ele>815.0</ele><time>2026-04-30T08:51:05.146Z</time></trkpt><trkpt lat="39.87386399795878" lon="9.252162526702497"><ele>815.0</ele><time>2026-04-30T08:51:06.146Z</time></trkpt><trkpt lat="39.87401988674569" lon="9.252139426570638"><ele>815.0</ele><time>2026-04-30T08:51:07.146Z</time></trkpt><trkpt lat="39.8741955031491" lon="9.252175786889483"><ele>812.6666666666667</ele><time>2026-04-30T08:51:08.146Z</time></trkpt><trkpt lat="39.87439240447292" lon="9.252232229908142"><ele>810.3333333333333</ele><time>2026-04-30T08:51:09.146Z</time></trkpt><trkpt lat="39.874613807992425" lon="9.252262819521563"><ele>808.0</ele><time>2026-04-30T08:51:10.146Z</time></trkpt><trkpt lat="39.874843222820815" lon="9.252270859658815"><ele>808.0</ele><time>2026-04-30T08:51:11.146Z</time></trkpt><trkpt lat="39.87503758479779" lon="9.252267392060768"><ele>808.0</ele><time>2026-04-30T08:51:12.146Z</time></trkpt><trkpt lat="39.87519978121552" lon="9.25229176783569"><ele>808.0</ele><time>2026-04-30T08:51:13.146Z</time></trkpt><trkpt lat="39.875337716876935" lon="9.252363953802693"><ele>804.5</ele><time>2026-04-30T08:51:14.146Z</time></trkpt><trkpt lat="39.87545579354079" lon="9.252475683365368"><ele>801.0</ele><time>2026-04-30T08:51:15.146Z</time></trkpt><trkpt lat="39.87554752482697" lon="9.252610812606799"><ele>797.5</ele><time>2026-04-30T08:51:16.146Z</time></trkpt><trkpt lat="39.875595380509765" lon="9.252782704528116"><ele>794.0</ele><time>2026-04-30T08:51:17.146Z</time></trkpt><trkpt lat="39.87561142019681" lon="9.252976984415561"><ele>788.75</ele><time>2026-04-30T08:51:18.146Z</time></trkpt><trkpt lat="39.87557536595083" lon="9.253193659037352"><ele>783.5</ele><time>2026-04-30T08:51:19.146Z</time></trkpt><trkpt lat="39.87554832231594" lon="9.2533952856973"><ele>778.25</ele><time>2026-04-30T08:51:20.146Z</time></trkpt><trkpt lat="39.87556447683062" lon="9.25354621777255"><ele>773.0</ele><time>2026-04-30T08:51:21.146Z</time></trkpt><trkpt lat="39.875625966053526" lon="9.253652651746638"><ele>773.0</ele><time>2026-04-30T08:51:22.146Z</time></trkpt><trkpt lat="39.87572068495505" lon="9.2537377358679"><ele>773.0</ele><time>2026-04-30T08:51:23.146Z</time></trkpt><trkpt lat="39.87584620285558" lon="9.253771909277617"><ele>773.0</ele><time>2026-04-30T08:51:24.146Z</time></trkpt><trkpt lat="39.87597530643782" lon="9.253767920539298"><ele>773.0</ele><time>2026-04-30T08:51:25.146Z</time></trkpt><trkpt lat="39.876105091326636" lon="9.253742984524523"><ele>771.75</ele><time>2026-04-30T08:51:26.146Z</time></trkpt><trkpt lat="39.876212673984" lon="9.253697608011441"><ele>770.5</ele><time>2026-04-30T08:51:27.146Z</time></trkpt><trkpt lat="39.87632197057476" lon="9.253641935155821"><ele>769.25</ele><time>2026-04-30T08:51:28.146Z</time></trkpt><trkpt lat="39.87645542694336" lon="9.253558766638465"><ele>768.0</ele><time>2026-04-30T08:51:29.146Z</time></trkpt><trkpt lat="39.876601298636594" lon="9.253444372949811"><ele>765.3333333333334</ele><time>2026-04-30T08:51:30.146Z</time></trkpt><trkpt lat="39.87678120507854" lon="9.253301971063465"><ele>762.6666666666667</ele><time>2026-04-30T08:51:31.146Z</time></trkpt><trkpt lat="39.876967670754276" lon="9.253168570363536"><ele>760.0</ele><time>2026-04-30T08:51:32.146Z</time></trkpt><trkpt lat="39.877127124148515" lon="9.253069112764095"><ele>760.0</ele><time>2026-04-30T08:51:33.146Z</time></trkpt><trkpt lat="39.877274722006774" lon="9.252957614295124"><ele>760.0</ele><time>2026-04-30T08:51:34.146Z</time></trkpt><trkpt lat="39.877374331050305" lon="9.25281628121011"><ele>760.0</ele><time>2026-04-30T08:51:35.146Z</time></trkpt><trkpt lat="39.87742530450373" lon="9.252643131013645"><ele>760.0</ele><time>2026-04-30T08:51:36.146Z</time></trkpt><trkpt lat="39.87748201891178" lon="9.252509033374473"><ele>760.0</ele><time>2026-04-30T08:51:37.146Z</time></trkpt><trkpt lat="39.87756763873035" lon="9.252436541816149"><ele>760.0</ele><time>2026-04-30T08:51:38.146Z</time></trkpt><trkpt lat="39.877688244546256" lon="9.25247460200008"><ele>760.0</ele><time>2026-04-30T08:51:39.146Z</time></trkpt><trkpt lat="39.87780224540584" lon="9.252561734352808"><ele>759.6666666666667</ele><time>2026-04-30T08:51:40.146Z</time></trkpt><trkpt lat="39.877873732737534" lon="9.252701144609315"><ele>759.3333333333334</ele><time>2026-04-30T08:51:41.146Z</time></trkpt><trkpt lat="39.877902094794" lon="9.252889390699425"><ele>759.0</ele><time>2026-04-30T08:51:42.146Z</time></trkpt><trkpt lat="39.877935209032685" lon="9.25313039486783"><ele>759.0</ele><time>2026-04-30T08:51:43.146Z</time></trkpt><trkpt lat="39.878009010296665" lon="9.253346705655156"><ele>759.0</ele><time>2026-04-30T08:51:44.146Z</time></trkpt><trkpt lat="39.87813106782416" lon="9.253549211338838"><ele>759.0</ele><time>2026-04-30T08:51:45.146Z</time></trkpt><trkpt lat="39.87827960102022" lon="9.253713393432092"><ele>764.0</ele><time>2026-04-30T08:51:46.146Z</time></trkpt><trkpt lat="39.87843653921293" lon="9.253826011137095"><ele>769.0</ele><time>2026-04-30T08:51:47.146Z</time></trkpt><trkpt lat="39.87859896943109" lon="9.253881676156892"><ele>774.0</ele><time>2026-04-30T08:51:48.146Z</time></trkpt><trkpt lat="39.87873370422749" lon="9.253933227071762"><ele>769.25</ele><time>2026-04-30T08:51:49.146Z</time></trkpt><trkpt lat="39.87881529487956" lon="9.254026699415405"><ele>764.5</ele><time>2026-04-30T08:51:50.146Z</time></trkpt><trkpt lat="39.878819207375535" lon="9.254193663219127"><ele>759.75</ele><time>2026-04-30T08:51:51.146Z</time></trkpt><trkpt lat="39.878747751605346" lon="9.254357699551463"><ele>755.0</ele><time>2026-04-30T08:51:52.146Z</time></trkpt><trkpt lat="39.87864072818042" lon="9.254495849670805"><ele>755.0</ele><time>2026-04-30T08:51:53.146Z</time></trkpt><trkpt lat="39.87851080431448" lon="9.254561896728896"><ele>755.0</ele><time>2026-04-30T08:51:54.146Z</time></trkpt><trkpt lat="39.878344244494045" lon="9.254585458099124"><ele>755.0</ele><time>2026-04-30T08:51:55.146Z</time></trkpt><trkpt lat="39.87814852349997" lon="9.254615103086113"><ele>748.5</ele><time>2026-04-30T08:51:56.146Z</time></trkpt><trkpt lat="39.8779132414661" lon="9.254631850944769"><ele>742.0</ele><time>2026-04-30T08:51:57.146Z</time></trkpt><trkpt lat="39.8776963266103" lon="9.254642080872648"><ele>741.0</ele><time>2026-04-30T08:51:58.146Z</time></trkpt><trkpt lat="39.87753678242567" lon="9.254645671723694"><ele>740.0</ele><time>2026-04-30T08:51:59.146Z</time></trkpt><trkpt lat="39.877398097426095" lon="9.254703827611854"><ele>739.0</ele><time>2026-04-30T08:52:00.146Z</time></trkpt><trkpt lat="39.87727740606769" lon="9.254833878038053"><ele>746.0</ele><time>2026-04-30T08:52:01.146Z</time></trkpt><trkpt lat="39.8771581159114" lon="9.25502214223468"><ele>753.0</ele><time>2026-04-30T08:52:02.146Z</time></trkpt><trkpt lat="39.877070222635766" lon="9.25522703703497"><ele>760.0</ele><time>2026-04-30T08:52:03.146Z</time></trkpt><trkpt lat="39.877016825963864" lon="9.255416577779739"><ele>765.3333333333334</ele><time>2026-04-30T08:52:04.146Z</time></trkpt><trkpt lat="39.87701868723437" lon="9.25566943003608"><ele>770.6666666666667</ele><time>2026-04-30T08:52:05.146Z</time></trkpt><trkpt lat="39.87699156500514" lon="9.255919773446903"><ele>776.0</ele><time>2026-04-30T08:52:06.146Z</time></trkpt><trkpt lat="39.87688698802339" lon="9.256155156588946"><ele>776.0</ele><time>2026-04-30T08:52:07.146Z</time></trkpt><trkpt lat="39.87677888024648" lon="9.256348441528328"><ele>776.0</ele><time>2026-04-30T08:52:08.146Z</time></trkpt><trkpt lat="39.876701034343114" lon="9.256487706605585"><ele>776.0</ele><time>2026-04-30T08:52:09.146Z</time></trkpt><trkpt lat="39.87661765417903" lon="9.256565502354269"><ele>776.0</ele><time>2026-04-30T08:52:10.146Z</time></trkpt><trkpt lat="39.87649425574513" lon="9.256538161997097"><ele>769.0</ele><time>2026-04-30T08:52:11.146Z</time></trkpt><trkpt lat="39.876366955140384" lon="9.256450935389447"><ele>762.0</ele><time>2026-04-30T08:52:12.146Z</time></trkpt><trkpt lat="39.876217069856466" lon="9.256304460708858"><ele>755.0</ele><time>2026-04-30T08:52:13.146Z</time></trkpt><trkpt lat="39.87604115517327" lon="9.256182250379165"><ele>758.0</ele><time>2026-04-30T08:52:14.146Z</time></trkpt><trkpt lat="39.875825172342424" lon="9.256097146177657"><ele>761.0</ele><time>2026-04-30T08:52:15.146Z</time></trkpt><trkpt lat="39.875596865797974" lon="9.256048397578386"><ele>761.0</ele><time>2026-04-30T08:52:16.146Z</time></trkpt><trkpt lat="39.875404983422506" lon="9.256007206503496"><ele>761.0</ele><time>2026-04-30T08:52:17.146Z</time></trkpt><trkpt lat="39.875242620935" lon="9.255991169905315"><ele>761.0</ele><time>2026-04-30T08:52:18.146Z</time></trkpt><trkpt lat="39.875087161312344" lon="9.256046460430918"><ele>763.3333333333333</ele><time>2026-04-30T08:52:19.146Z</time></trkpt><trkpt lat="39.87489767587488" lon="9.256171069706754"><ele>765.6666666666666</ele><time>2026-04-30T08:52:20.146Z</time></trkpt><trkpt lat="39.874707589710056" lon="9.256325639526255"><ele>768.0</ele><time>2026-04-30T08:52:21.146Z</time></trkpt><trkpt lat="39.874574575866184" lon="9.256446289566458"><ele>775.3333333333333</ele><time>2026-04-30T08:52:22.146Z</time></trkpt><trkpt lat="39.87448582142876" lon="9.256587266793307"><ele>782.6666666666666</ele><time>2026-04-30T08:52:23.146Z</time></trkpt><trkpt lat="39.87444991624196" lon="9.256793455581857"><ele>790.0</ele><time>2026-04-30T08:52:24.146Z</time></trkpt><trkpt lat="39.874436806301844" lon="9.257034032080842"><ele>790.0</ele><time>2026-04-30T08:52:25.146Z</time></trkpt><trkpt lat="39.87439920409325" lon="9.257221203492211"><ele>790.0</ele><time>2026-04-30T08:52:26.146Z</time></trkpt><trkpt lat="39.87434588331605" lon="9.257326274873952"><ele>790.0</ele><time>2026-04-30T08:52:27.147Z</time></trkpt><trkpt lat="39.87424900256327" lon="9.257381256934451"><ele>790.0</ele><time>2026-04-30T08:52:28.147Z</time></trkpt><trkpt lat="39.87408966766795" lon="9.257378944319989"><ele>790.0</ele><time>2026-04-30T08:52:29.147Z</time></trkpt><trkpt lat="39.87388682160065" lon="9.257360528117891"><ele>790.0</ele><time>2026-04-30T08:52:30.147Z</time></trkpt><trkpt lat="39.873644156115695" lon="9.2573951777993"><ele>790.0</ele><time>2026-04-30T08:52:31.147Z</time></trkpt><trkpt lat="39.873376860919336" lon="9.257469055751653"><ele>790.0</ele><time>2026-04-30T08:52:32.147Z</time></trkpt><trkpt lat="39.87312090323471" lon="9.257555376875734"><ele>790.0</ele><time>2026-04-30T08:52:33.147Z</time></trkpt><trkpt lat="39.872878014790054" lon="9.257581376453082"><ele>791.5</ele><time>2026-04-30T08:52:34.147Z</time></trkpt><trkpt lat="39.87259042829085" lon="9.257535241090352"><ele>793.0</ele><time>2026-04-30T08:52:35.147Z</time></trkpt><trkpt lat="39.87234603597554" lon="9.25751907162024"><ele>793.0</ele><time>2026-04-30T08:52:36.147Z</time></trkpt><trkpt lat="39.872169256743355" lon="9.257510548035508"><ele>793.0</ele><time>2026-04-30T08:52:37.147Z</time></trkpt><trkpt lat="39.87204072419475" lon="9.257526065960858"><ele>793.0</ele><time>2026-04-30T08:52:38.147Z</time></trkpt><trkpt lat="39.871956612343595" lon="9.25759320786992"><ele>793.0</ele><time>2026-04-30T08:52:39.147Z</time></trkpt><trkpt lat="39.871871146034664" lon="9.257754103223268"><ele>793.0</ele><time>2026-04-30T08:52:40.147Z</time></trkpt><trkpt lat="39.87179747039392" lon="9.25800357656621"><ele>793.0</ele><time>2026-04-30T08:52:41.147Z</time></trkpt><trkpt lat="39.87173251317027" lon="9.25832607900145"><ele>795.5</ele><time>2026-04-30T08:52:42.147Z</time></trkpt><trkpt lat="39.87164173015004" lon="9.258640971399709"><ele>798.0</ele><time>2026-04-30T08:52:43.147Z</time></trkpt><trkpt lat="39.87153478801664" lon="9.25889860188631"><ele>807.0</ele><time>2026-04-30T08:52:44.147Z</time></trkpt><trkpt lat="39.871419456602204" lon="9.259094658007243"><ele>816.0</ele><time>2026-04-30T08:52:45.147Z</time></trkpt><trkpt lat="39.87124877181745" lon="9.25925763173069"><ele>825.0</ele><time>2026-04-30T08:52:46.147Z</time></trkpt><trkpt lat="39.87105198089346" lon="9.25943539645823"><ele>822.5</ele><time>2026-04-30T08:52:47.147Z</time></trkpt><trkpt lat="39.870847869875114" lon="9.259668262757158"><ele>820.0</ele><time>2026-04-30T08:52:48.147Z</time></trkpt><trkpt lat="39.87062711461035" lon="9.2599299475997"><ele>820.0</ele><time>2026-04-30T08:52:49.147Z</time></trkpt><trkpt lat="39.87042073630667" lon="9.260193853794908"><ele>820.0</ele><time>2026-04-30T08:52:50.147Z</time></trkpt><trkpt lat="39.87025649801525" lon="9.260412477542904"><ele>820.0</ele><time>2026-04-30T08:52:51.147Z</time></trkpt><trkpt lat="39.870132658948876" lon="9.260591646612657"><ele>820.0</ele><time>2026-04-30T08:52:52.147Z</time></trkpt><trkpt lat="39.87004424809142" lon="9.260744293179572"><ele>820.0</ele><time>2026-04-30T08:52:53.147Z</time></trkpt><trkpt lat="39.86998763785399" lon="9.260911207767503"><ele>818.6666666666666</ele><time>2026-04-30T08:52:54.148Z</time></trkpt><trkpt lat="39.86997555918409" lon="9.261130170113129"><ele>817.3333333333333</ele><time>2026-04-30T08:52:55.148Z</time></trkpt><trkpt lat="39.87000356970616" lon="9.26137436583953"><ele>816.0</ele><time>2026-04-30T08:52:56.148Z</time></trkpt><trkpt lat="39.869987538791904" lon="9.261561962080993"><ele>816.0</ele><time>2026-04-30T08:52:57.148Z</time></trkpt><trkpt lat="39.86989355041669" lon="9.261729188376345"><ele>816.0</ele><time>2026-04-30T08:52:58.148Z</time></trkpt><trkpt lat="39.86972920070741" lon="9.26185861445522"><ele>816.0</ele><time>2026-04-30T08:52:59.148Z</time></trkpt><trkpt lat="39.86951730359688" lon="9.261996589258057"><ele>816.0</ele><time>2026-04-30T08:53:00.149Z</time></trkpt><trkpt lat="39.86930809771111" lon="9.262171394352006"><ele>816.0</ele><time>2026-04-30T08:53:01.148Z</time></trkpt><trkpt lat="39.86911930556562" lon="9.262326212449253"><ele>816.0</ele><time>2026-04-30T08:53:02.148Z</time></trkpt><trkpt lat="39.86890650231495" lon="9.262424307571047"><ele>816.0</ele><time>2026-04-30T08:53:03.148Z</time></trkpt><trkpt lat="39.86867151782968" lon="9.262491293740847"><ele>808.5</ele><time>2026-04-30T08:53:04.148Z</time></trkpt><trkpt lat="39.86840150517886" lon="9.262549711164155"><ele>801.0</ele><time>2026-04-30T08:53:05.148Z</time></trkpt><trkpt lat="39.868162603770344" lon="9.262613382710908"><ele>801.0</ele><time>2026-04-30T08:53:06.148Z</time></trkpt><trkpt lat="39.867968313567765" lon="9.262662870898184"><ele>801.0</ele><time>2026-04-30T08:53:07.148Z</time></trkpt><trkpt lat="39.86781259428282" lon="9.262702538751832"><ele>801.0</ele><time>2026-04-30T08:53:08.148Z</time></trkpt><trkpt lat="39.86769674324781" lon="9.262744553800387"><ele>801.0</ele><time>2026-04-30T08:53:09.148Z</time></trkpt><trkpt lat="39.867615437756605" lon="9.262850546861378"><ele>801.0</ele><time>2026-04-30T08:53:10.148Z</time></trkpt><trkpt lat="39.86759134928594" lon="9.26300149901234"><ele>801.0</ele><time>2026-04-30T08:53:11.148Z</time></trkpt><trkpt lat="39.86765113621911" lon="9.263181126499756"><ele>801.0</ele><time>2026-04-30T08:53:12.148Z</time></trkpt><trkpt lat="39.86778112313278" lon="9.263330318937266"><ele>802.5</ele><time>2026-04-30T08:53:13.148Z</time></trkpt><trkpt lat="39.867941787882685" lon="9.263481408846772"><ele>804.0</ele><time>2026-04-30T08:53:14.148Z</time></trkpt><trkpt lat="39.8681542552136" lon="9.263658070667091"><ele>804.0</ele><time>2026-04-30T08:53:15.148Z</time></trkpt><trkpt lat="39.868324119271854" lon="9.263837858738587"><ele>804.0</ele><time>2026-04-30T08:53:16.148Z</time></trkpt><trkpt lat="39.868439496428415" lon="9.263967468280349"><ele>804.0</ele><time>2026-04-30T08:53:17.148Z</time></trkpt><trkpt lat="39.86849999293947" lon="9.264124176198951"><ele>801.5</ele><time>2026-04-30T08:53:18.148Z</time></trkpt><trkpt lat="39.86850951964555" lon="9.264263919821007"><ele>799.0</ele><time>2026-04-30T08:53:19.148Z</time></trkpt><trkpt lat="39.86846851853696" lon="9.264426790467443"><ele>796.5</ele><time>2026-04-30T08:53:20.148Z</time></trkpt><trkpt lat="39.86838978136518" lon="9.264562165421065"><ele>794.0</ele><time>2026-04-30T08:53:21.148Z</time></trkpt><trkpt lat="39.8682729790451" lon="9.264624229605175"><ele>794.0</ele><time>2026-04-30T08:53:22.148Z</time></trkpt><trkpt lat="39.86811785867006" lon="9.264600255305053"><ele>794.0</ele><time>2026-04-30T08:53:23.148Z</time></trkpt><trkpt lat="39.86797588409385" lon="9.264543078508966"><ele>794.0</ele><time>2026-04-30T08:53:24.148Z</time></trkpt><trkpt lat="39.86783883441399" lon="9.264422524614455"><ele>794.0</ele><time>2026-04-30T08:53:25.148Z</time></trkpt><trkpt lat="39.8676823301743" lon="9.26435842233675"><ele>794.0</ele><time>2026-04-30T08:53:26.148Z</time></trkpt><trkpt lat="39.86748436909435" lon="9.264337238095942"><ele>794.0</ele><time>2026-04-30T08:53:27.148Z</time></trkpt><trkpt lat="39.86722860317279" lon="9.264336982490962"><ele>794.5</ele><time>2026-04-30T08:53:28.148Z</time></trkpt><trkpt lat="39.866946029318285" lon="9.264329174117224"><ele>795.0</ele><time>2026-04-30T08:53:29.148Z</time></trkpt><trkpt lat="39.86666840855438" lon="9.264342580196756"><ele>795.0</ele><time>2026-04-30T08:53:30.148Z</time></trkpt><trkpt lat="39.86637343079802" lon="9.264401745064037"><ele>795.0</ele><time>2026-04-30T08:53:31.148Z</time></trkpt><trkpt lat="39.86612824692496" lon="9.264437573792769"><ele>796.0</ele><time>2026-04-30T08:53:32.148Z</time></trkpt><trkpt lat="39.865914853657586" lon="9.26445181155837"><ele>797.0</ele><time>2026-04-30T08:53:33.148Z</time></trkpt><trkpt lat="39.86571129722207" lon="9.264423065063497"><ele>798.0</ele><time>2026-04-30T08:53:34.148Z</time></trkpt><trkpt lat="39.865542452289766" lon="9.264408594764825"><ele>798.0</ele><time>2026-04-30T08:53:35.149Z</time></trkpt><trkpt lat="39.86540717572923" lon="9.264443749400407"><ele>798.0</ele><time>2026-04-30T08:53:36.149Z</time></trkpt><trkpt lat="39.865287639312726" lon="9.26455080325473"><ele>798.0</ele><time>2026-04-30T08:53:37.149Z</time></trkpt><trkpt lat="39.86516116748737" lon="9.264735834816053"><ele>803.3333333333333</ele><time>2026-04-30T08:53:38.149Z</time></trkpt><trkpt lat="39.865019979927666" lon="9.264935557427702"><ele>808.6666666666666</ele><time>2026-04-30T08:53:39.149Z</time></trkpt><trkpt lat="39.86486880665702" lon="9.265104594384377"><ele>814.0</ele><time>2026-04-30T08:53:40.149Z</time></trkpt><trkpt lat="39.86469802790943" lon="9.265209526813146"><ele>814.0</ele><time>2026-04-30T08:53:41.149Z</time></trkpt><trkpt lat="39.8645108589879" lon="9.265304586944414"><ele>814.0</ele><time>2026-04-30T08:53:42.149Z</time></trkpt><trkpt lat="39.86431100430357" lon="9.265371431192834"><ele>814.0</ele><time>2026-04-30T08:53:43.149Z</time></trkpt><trkpt lat="39.86410164851779" lon="9.265361646148696"><ele>816.0</ele><time>2026-04-30T08:53:44.149Z</time></trkpt><trkpt lat="39.86387614971944" lon="9.265337234682598"><ele>818.0</ele><time>2026-04-30T08:53:45.149Z</time></trkpt><trkpt lat="39.863651219382604" lon="9.265328820866383"><ele>819.0</ele><time>2026-04-30T08:53:46.149Z</time></trkpt><trkpt lat="39.86344295980582" lon="9.265368076202737"><ele>820.0</ele><time>2026-04-30T08:53:47.149Z</time></trkpt><trkpt lat="39.86321613019667" lon="9.265464882865341"><ele>821.0</ele><time>2026-04-30T08:53:48.149Z</time></trkpt><trkpt lat="39.862969810366074" lon="9.265590627861545"><ele>819.0</ele><time>2026-04-30T08:53:49.149Z</time></trkpt><trkpt lat="39.86274006670373" lon="9.26569785396053"><ele>817.0</ele><time>2026-04-30T08:53:50.149Z</time></trkpt><trkpt lat="39.86253918965534" lon="9.265792646647327"><ele>817.0</ele><time>2026-04-30T08:53:51.149Z</time></trkpt><trkpt lat="39.86236719603142" lon="9.265912842295672"><ele>817.0</ele><time>2026-04-30T08:53:52.149Z</time></trkpt><trkpt lat="39.862203613637064" lon="9.266095786036852"><ele>817.0</ele><time>2026-04-30T08:53:53.149Z</time></trkpt><trkpt lat="39.86205727967942" lon="9.2663463324339"><ele>821.0</ele><time>2026-04-30T08:53:54.149Z</time></trkpt><trkpt lat="39.86190979702041" lon="9.266600391459866"><ele>825.0</ele><time>2026-04-30T08:53:55.149Z</time></trkpt><trkpt lat="39.86178109533599" lon="9.266823830774896"><ele>818.0</ele><time>2026-04-30T08:53:56.149Z</time></trkpt><trkpt lat="39.86163015024758" lon="9.266989904362834"><ele>811.0</ele><time>2026-04-30T08:53:57.149Z</time></trkpt><trkpt lat="39.86142724477373" lon="9.267107666793216"><ele>804.0</ele><time>2026-04-30T08:53:58.149Z</time></trkpt><trkpt lat="39.86119728079999" lon="9.267204717157881"><ele>802.6666666666667</ele><time>2026-04-30T08:53:59.149Z</time></trkpt><trkpt lat="39.86098543986398" lon="9.26731459971554"><ele>801.3333333333334</ele><time>2026-04-30T08:54:00.149Z</time></trkpt><trkpt lat="39.860805287352925" lon="9.267436894765968"><ele>800.0</ele><time>2026-04-30T08:54:01.149Z</time></trkpt><trkpt lat="39.860639236636324" lon="9.267621802141221"><ele>800.0</ele><time>2026-04-30T08:54:02.149Z</time></trkpt><trkpt lat="39.86046518358579" lon="9.26783608860304"><ele>800.0</ele><time>2026-04-30T08:54:03.149Z</time></trkpt><trkpt lat="39.86033195137098" lon="9.268060247620156"><ele>802.3333333333334</ele><time>2026-04-30T08:54:04.149Z</time></trkpt><trkpt lat="39.860239652891174" lon="9.268323219020049"><ele>804.6666666666667</ele><time>2026-04-30T08:54:05.149Z</time></trkpt><trkpt lat="39.86016824616011" lon="9.268590905437632"><ele>807.0</ele><time>2026-04-30T08:54:06.149Z</time></trkpt><trkpt lat="39.86009554002752" lon="9.26882276246487"><ele>804.6666666666667</ele><time>2026-04-30T08:54:07.149Z</time></trkpt><trkpt lat="39.859997614206314" lon="9.268995970780436"><ele>802.3333333333334</ele><time>2026-04-30T08:54:08.149Z</time></trkpt><trkpt lat="39.859874479852564" lon="9.269105288195153"><ele>800.0</ele><time>2026-04-30T08:54:09.149Z</time></trkpt><trkpt lat="39.8597354244958" lon="9.269147382107924"><ele>800.0</ele><time>2026-04-30T08:54:10.149Z</time></trkpt><trkpt lat="39.85957855565696" lon="9.269131664647484"><ele>800.0</ele><time>2026-04-30T08:54:11.149Z</time></trkpt><trkpt lat="39.859426884992594" lon="9.26905052525701"><ele>800.0</ele><time>2026-04-30T08:54:12.149Z</time></trkpt><trkpt lat="39.859277532476234" lon="9.26890009247466"><ele>795.3333333333334</ele><time>2026-04-30T08:54:13.149Z</time></trkpt><trkpt lat="39.859116336704815" lon="9.26875594673637"><ele>790.6666666666667</ele><time>2026-04-30T08:54:14.149Z</time></trkpt><trkpt lat="39.85896106639615" lon="9.26866847133726"><ele>786.0</ele><time>2026-04-30T08:54:15.149Z</time></trkpt><trkpt lat="39.85880837759918" lon="9.268664515458141"><ele>786.0</ele><time>2026-04-30T08:54:16.149Z</time></trkpt><trkpt lat="39.85866762357062" lon="9.268730214908713"><ele>786.0</ele><time>2026-04-30T08:54:17.149Z</time></trkpt><trkpt lat="39.85854356314179" lon="9.268858467700573"><ele>786.0</ele><time>2026-04-30T08:54:18.149Z</time></trkpt><trkpt lat="39.85843763242151" lon="9.269056657590367"><ele>788.6666666666667</ele><time>2026-04-30T08:54:19.149Z</time></trkpt><trkpt lat="39.8583245697486" lon="9.269294784094791"><ele>791.3333333333334</ele><time>2026-04-30T08:54:20.149Z</time></trkpt><trkpt lat="39.85817515050376" lon="9.26948427906953"><ele>794.0</ele><time>2026-04-30T08:54:21.149Z</time></trkpt><trkpt lat="39.85797742491608" lon="9.269663442558523"><ele>794.0</ele><time>2026-04-30T08:54:22.149Z</time></trkpt><trkpt lat="39.85776399488624" lon="9.269856460208503"><ele>794.0</ele><time>2026-04-30T08:54:23.149Z</time></trkpt><trkpt lat="39.85758748942607" lon="9.270038622910187"><ele>794.0</ele><time>2026-04-30T08:54:24.149Z</time></trkpt><trkpt lat="39.85745479411242" lon="9.270240304063336"><ele>794.0</ele><time>2026-04-30T08:54:25.149Z</time></trkpt><trkpt lat="39.85736701266111" lon="9.270414147513906"><ele>794.0</ele><time>2026-04-30T08:54:26.149Z</time></trkpt><trkpt lat="39.85732754850589" lon="9.270581281930804"><ele>794.3333333333334</ele><time>2026-04-30T08:54:27.149Z</time></trkpt><trkpt lat="39.85735029269632" lon="9.27077699393802"><ele>794.6666666666667</ele><time>2026-04-30T08:54:28.149Z</time></trkpt><trkpt lat="39.857438455064" lon="9.270987014349528"><ele>795.0</ele><time>2026-04-30T08:54:29.149Z</time></trkpt><trkpt lat="39.85751326943563" lon="9.271178585356433"><ele>795.0</ele><time>2026-04-30T08:54:30.149Z</time></trkpt><trkpt lat="39.857523478720736" lon="9.271393603931733"><ele>795.0</ele><time>2026-04-30T08:54:31.149Z</time></trkpt><trkpt lat="39.85745655978944" lon="9.271620341686297"><ele>795.0</ele><time>2026-04-30T08:54:32.149Z</time></trkpt><trkpt lat="39.857342022932826" lon="9.271866841147318"><ele>794.0</ele><time>2026-04-30T08:54:33.149Z</time></trkpt><trkpt lat="39.85718396447186" lon="9.272135537369596"><ele>793.0</ele><time>2026-04-30T08:54:34.149Z</time></trkpt><trkpt lat="39.85699926372232" lon="9.27239303026478"><ele>793.0</ele><time>2026-04-30T08:54:35.149Z</time></trkpt><trkpt lat="39.8568286931142" lon="9.272600453491613"><ele>793.0</ele><time>2026-04-30T08:54:36.149Z</time></trkpt><trkpt lat="39.856664607981834" lon="9.272746818354754"><ele>793.0</ele><time>2026-04-30T08:54:37.149Z</time></trkpt><trkpt lat="39.85647724902175" lon="9.27285246751992"><ele>792.6666666666666</ele><time>2026-04-30T08:54:38.149Z</time></trkpt><trkpt lat="39.8562942130548" lon="9.272952313561811"><ele>792.3333333333333</ele><time>2026-04-30T08:54:39.149Z</time></trkpt><trkpt lat="39.856118146459735" lon="9.273123502616873"><ele>792.0</ele><time>2026-04-30T08:54:40.149Z</time></trkpt><trkpt lat="39.855947413096395" lon="9.273374958247055"><ele>785.5</ele><time>2026-04-30T08:54:41.149Z</time></trkpt><trkpt lat="39.85575797660431" lon="9.273679512887288"><ele>779.0</ele><time>2026-04-30T08:54:42.149Z</time></trkpt><trkpt lat="39.855533487055986" lon="9.273974359334693"><ele>779.0</ele><time>2026-04-30T08:54:43.149Z</time></trkpt><trkpt lat="39.85535441544483" lon="9.27418601380494"><ele>779.0</ele><time>2026-04-30T08:54:44.149Z</time></trkpt><trkpt lat="39.85521553714574" lon="9.274323142793957"><ele>779.0</ele><time>2026-04-30T08:54:45.149Z</time></trkpt><trkpt lat="39.8550913867241" lon="9.27438605193799"><ele>775.3333333333334</ele><time>2026-04-30T08:54:46.149Z</time></trkpt><trkpt lat="39.85493788019074" lon="9.274364268155173"><ele>771.6666666666667</ele><time>2026-04-30T08:54:47.149Z</time></trkpt><trkpt lat="39.854782127577714" lon="9.274253199503898"><ele>768.0</ele><time>2026-04-30T08:54:48.149Z</time></trkpt><trkpt lat="39.8546746380728" lon="9.274056826944538"><ele>766.0</ele><time>2026-04-30T08:54:49.149Z</time></trkpt><trkpt lat="39.854586187477764" lon="9.273834344081525"><ele>764.0</ele><time>2026-04-30T08:54:50.149Z</time></trkpt><trkpt lat="39.85445138523178" lon="9.273669151286906"><ele>762.0</ele><time>2026-04-30T08:54:51.149Z</time></trkpt><trkpt lat="39.85427312953732" lon="9.273542747673885"><ele>760.5</ele><time>2026-04-30T08:54:52.149Z</time></trkpt><trkpt lat="39.854047356061486" lon="9.273483894130937"><ele>759.0</ele><time>2026-04-30T08:54:53.149Z</time></trkpt><trkpt lat="39.85376634309551" lon="9.273424113993604"><ele>761.5</ele><time>2026-04-30T08:54:54.149Z</time></trkpt><trkpt lat="39.853449684241845" lon="9.273359214190453"><ele>764.0</ele><time>2026-04-30T08:54:55.149Z</time></trkpt><trkpt lat="39.85314196178346" lon="9.27331013990916"><ele>764.0</ele><time>2026-04-30T08:54:56.149Z</time></trkpt><trkpt lat="39.85288436639728" lon="9.273244645017082"><ele>764.0</ele><time>2026-04-30T08:54:57.149Z</time></trkpt><trkpt lat="39.85267727298574" lon="9.273164117803011"><ele>764.25</ele><time>2026-04-30T08:54:58.149Z</time></trkpt><trkpt lat="39.852501158121676" lon="9.273080190597783"><ele>764.5</ele><time>2026-04-30T08:54:59.149Z</time></trkpt><trkpt lat="39.85236359233606" lon="9.273042815251507"><ele>764.75</ele><time>2026-04-30T08:55:00.15Z</time></trkpt><trkpt lat="39.852257117797755" lon="9.273101829640193"><ele>765.0</ele><time>2026-04-30T08:55:01.15Z</time></trkpt><trkpt lat="39.85217862028837" lon="9.27325836621862"><ele>765.0</ele><time>2026-04-30T08:55:02.15Z</time></trkpt><trkpt lat="39.852140891650684" lon="9.273420864857322"><ele>765.0</ele><time>2026-04-30T08:55:03.151Z</time></trkpt><trkpt lat="39.85218019652779" lon="9.273609381971477"><ele>765.0</ele><time>2026-04-30T08:55:04.15Z</time></trkpt><trkpt lat="39.85227456490713" lon="9.273801633945068"><ele>765.6666666666666</ele><time>2026-04-30T08:55:05.15Z</time></trkpt><trkpt lat="39.85240594282066" lon="9.274017283031972"><ele>766.3333333333333</ele><time>2026-04-30T08:55:06.15Z</time></trkpt><trkpt lat="39.85253199484233" lon="9.274237715147684"><ele>767.0</ele><time>2026-04-30T08:55:07.151Z</time></trkpt><trkpt lat="39.85261827130011" lon="9.274450622798943"><ele>767.0</ele><time>2026-04-30T08:55:08.151Z</time></trkpt><trkpt lat="39.85263747153359" lon="9.274590758772726"><ele>767.0</ele><time>2026-04-30T08:55:09.151Z</time></trkpt><trkpt lat="39.852609543764466" lon="9.274715374277614"><ele>767.0</ele><time>2026-04-30T08:55:10.151Z</time></trkpt><trkpt lat="39.85252570399169" lon="9.274769961704541"><ele>767.0</ele><time>2026-04-30T08:55:11.151Z</time></trkpt><trkpt lat="39.85239197370447" lon="9.27478060593246"><ele>767.0</ele><time>2026-04-30T08:55:12.15Z</time></trkpt><trkpt lat="39.85222053268251" lon="9.274752138269326"><ele>767.0</ele><time>2026-04-30T08:55:13.15Z</time></trkpt><trkpt lat="39.85202199406805" lon="9.274675462388021"><ele>767.0</ele><time>2026-04-30T08:55:14.15Z</time></trkpt><trkpt lat="39.851795474643396" lon="9.27458981359674"><ele>767.0</ele><time>2026-04-30T08:55:15.15Z</time></trkpt><trkpt lat="39.85151379244831" lon="9.274480127624793"><ele>765.5</ele><time>2026-04-30T08:55:16.15Z</time></trkpt><trkpt lat="39.851232087541874" lon="9.274381404182257"><ele>764.0</ele><time>2026-04-30T08:55:17.15Z</time></trkpt><trkpt lat="39.85098106152033" lon="9.27429499739387"><ele>767.6666666666666</ele><time>2026-04-30T08:55:18.15Z</time></trkpt><trkpt lat="39.850786482005496" lon="9.27422986715648"><ele>771.3333333333333</ele><time>2026-04-30T08:55:19.15Z</time></trkpt><trkpt lat="39.85062212254213" lon="9.274189471313885"><ele>775.0</ele><time>2026-04-30T08:55:20.15Z</time></trkpt><trkpt lat="39.85046464891106" lon="9.274188959036204"><ele>775.0</ele><time>2026-04-30T08:55:21.15Z</time></trkpt><trkpt lat="39.85028660035414" lon="9.27426219210382"><ele>775.0</ele><time>2026-04-30T08:55:22.15Z</time></trkpt><trkpt lat="39.850106626569065" lon="9.274410256521016"><ele>775.0</ele><time>2026-04-30T08:55:23.15Z</time></trkpt><trkpt lat="39.849914438555864" lon="9.27460026848154"><ele>786.0</ele><time>2026-04-30T08:55:24.15Z</time></trkpt><trkpt lat="39.849691565139686" lon="9.274795299535388"><ele>797.0</ele><time>2026-04-30T08:55:25.15Z</time></trkpt><trkpt lat="39.849464329165066" lon="9.274976394557509"><ele>796.0</ele><time>2026-04-30T08:55:26.15Z</time></trkpt><trkpt lat="39.849291495624385" lon="9.275105467118141"><ele>795.0</ele><time>2026-04-30T08:55:27.15Z</time></trkpt><trkpt lat="39.84915066092356" lon="9.275115446172807"><ele>794.0</ele><time>2026-04-30T08:55:28.15Z</time></trkpt><trkpt lat="39.84900623875502" lon="9.275059735735772"><ele>794.0</ele><time>2026-04-30T08:55:29.15Z</time></trkpt><trkpt lat="39.84886093324443" lon="9.274940102851692"><ele>794.0</ele><time>2026-04-30T08:55:30.15Z</time></trkpt><trkpt lat="39.84868163950008" lon="9.2747876745232"><ele>794.0</ele><time>2026-04-30T08:55:31.15Z</time></trkpt><trkpt lat="39.84850286938707" lon="9.27463002537746"><ele>795.3333333333334</ele><time>2026-04-30T08:55:32.151Z</time></trkpt><trkpt lat="39.84832203998755" lon="9.274523748428605"><ele>796.6666666666667</ele><time>2026-04-30T08:55:33.151Z</time></trkpt><trkpt lat="39.84816628237465" lon="9.27448198498114"><ele>798.0</ele><time>2026-04-30T08:55:34.151Z</time></trkpt><trkpt lat="39.848000440996536" lon="9.274509004838592"><ele>798.0</ele><time>2026-04-30T08:55:35.151Z</time></trkpt><trkpt lat="39.8478223523448" lon="9.274584440623972"><ele>798.0</ele><time>2026-04-30T08:55:36.151Z</time></trkpt><trkpt lat="39.84764621725516" lon="9.274716190868286"><ele>798.0</ele><time>2026-04-30T08:55:37.151Z</time></trkpt><trkpt lat="39.84747085477338" lon="9.274931810692236"><ele>795.5</ele><time>2026-04-30T08:55:38.151Z</time></trkpt><trkpt lat="39.84727104202919" lon="9.275182258853038"><ele>793.0</ele><time>2026-04-30T08:55:39.151Z</time></trkpt><trkpt lat="39.847065131603884" lon="9.275396117966569"><ele>793.0</ele><time>2026-04-30T08:55:40.151Z</time></trkpt><trkpt lat="39.84690046327322" lon="9.275573116451175"><ele>793.0</ele><time>2026-04-30T08:55:41.151Z</time></trkpt><trkpt lat="39.846784247111735" lon="9.275722675611563"><ele>793.0</ele><time>2026-04-30T08:55:42.151Z</time></trkpt><trkpt lat="39.8467291203962" lon="9.275898814144647"><ele>796.3333333333333</ele><time>2026-04-30T08:55:43.151Z</time></trkpt><trkpt lat="39.84674832194273" lon="9.276093652845017"><ele>799.6666666666667</ele><time>2026-04-30T08:55:44.151Z</time></trkpt><trkpt lat="39.84683112682127" lon="9.276308571925624"><ele>803.0</ele><time>2026-04-30T08:55:45.151Z</time></trkpt><trkpt lat="39.84691271631623" lon="9.276511916949152"><ele>803.0</ele><time>2026-04-30T08:55:46.151Z</time></trkpt><trkpt lat="39.846896999061634" lon="9.276671276056627"><ele>803.0</ele><time>2026-04-30T08:55:47.151Z</time></trkpt><trkpt lat="39.84680524873891" lon="9.276813940086944"><ele>803.0</ele><time>2026-04-30T08:55:48.151Z</time></trkpt><trkpt lat="39.84666229579888" lon="9.276896220264822"><ele>803.0</ele><time>2026-04-30T08:55:49.151Z</time></trkpt><trkpt lat="39.84646884889901" lon="9.276933444800576"><ele>796.0</ele><time>2026-04-30T08:55:50.151Z</time></trkpt><trkpt lat="39.84624988844468" lon="9.276956779470485"><ele>789.0</ele><time>2026-04-30T08:55:51.151Z</time></trkpt><trkpt lat="39.84605523293781" lon="9.277007201627026"><ele>782.0</ele><time>2026-04-30T08:55:52.151Z</time></trkpt><trkpt lat="39.845901521569616" lon="9.277106391595137"><ele>784.3333333333334</ele><time>2026-04-30T08:55:53.151Z</time></trkpt><trkpt lat="39.84578782570194" lon="9.277287392472758"><ele>786.6666666666667</ele><time>2026-04-30T08:55:54.151Z</time></trkpt><trkpt lat="39.84564989878122" lon="9.277532037366747"><ele>789.0</ele><time>2026-04-30T08:55:55.151Z</time></trkpt><trkpt lat="39.84551366566973" lon="9.277827984012358"><ele>795.0</ele><time>2026-04-30T08:55:56.151Z</time></trkpt><trkpt lat="39.845376858585084" lon="9.278102502844204"><ele>801.0</ele><time>2026-04-30T08:55:57.151Z</time></trkpt><trkpt lat="39.8452297423797" lon="9.278334459393802"><ele>794.5</ele><time>2026-04-30T08:55:58.151Z</time></trkpt><trkpt lat="39.84506025702571" lon="9.278531686930043"><ele>788.0</ele><time>2026-04-30T08:55:59.151Z</time></trkpt><trkpt lat="39.84485588831378" lon="9.27871701231681"><ele>788.0</ele><time>2026-04-30T08:56:00.151Z</time></trkpt><trkpt lat="39.844637684559714" lon="9.278920566350209"><ele>788.0</ele><time>2026-04-30T08:56:01.151Z</time></trkpt><trkpt lat="39.84441135921449" lon="9.279151270523665"><ele>790.5</ele><time>2026-04-30T08:56:02.151Z</time></trkpt><trkpt lat="39.84418478066438" lon="9.27936420583795"><ele>793.0</ele><time>2026-04-30T08:56:03.151Z</time></trkpt><trkpt lat="39.84398451611098" lon="9.279545425472783"><ele>793.0</ele><time>2026-04-30T08:56:04.151Z</time></trkpt><trkpt lat="39.84381232393479" lon="9.279692483741961"><ele>793.0</ele><time>2026-04-30T08:56:05.151Z</time></trkpt><trkpt lat="39.84365679009614" lon="9.279792770912636"><ele>793.0</ele><time>2026-04-30T08:56:06.151Z</time></trkpt><trkpt lat="39.84346971151603" lon="9.279839673212358"><ele>799.5</ele><time>2026-04-30T08:56:07.151Z</time></trkpt><trkpt lat="39.843243501718256" lon="9.279848649256685"><ele>806.0</ele><time>2026-04-30T08:56:08.151Z</time></trkpt><trkpt lat="39.84297464980082" lon="9.27983324391666"><ele>806.0</ele><time>2026-04-30T08:56:09.151Z</time></trkpt><trkpt lat="39.84272525772429" lon="9.279798532448169"><ele>806.0</ele><time>2026-04-30T08:56:10.151Z</time></trkpt><trkpt lat="39.84252359170728" lon="9.279781128803247"><ele>808.0</ele><time>2026-04-30T08:56:11.151Z</time></trkpt><trkpt lat="39.84237980840044" lon="9.279752744420124"><ele>810.0</ele><time>2026-04-30T08:56:12.151Z</time></trkpt><trkpt lat="39.84228135851956" lon="9.279689188540619"><ele>812.0</ele><time>2026-04-30T08:56:13.151Z</time></trkpt><trkpt lat="39.84223203992839" lon="9.279563465193887"><ele>814.0</ele><time>2026-04-30T08:56:14.151Z</time></trkpt><trkpt lat="39.84224531689132" lon="9.279393695215264"><ele>814.0</ele><time>2026-04-30T08:56:15.151Z</time></trkpt><trkpt lat="39.84235051200488" lon="9.27918643511806"><ele>814.0</ele><time>2026-04-30T08:56:16.151Z</time></trkpt><trkpt lat="39.84248782418126" lon="9.278999380666724"><ele>814.0</ele><time>2026-04-30T08:56:17.151Z</time></trkpt><trkpt lat="39.84267670969224" lon="9.278801530509769"><ele>814.0</ele><time>2026-04-30T08:56:18.151Z</time></trkpt><trkpt lat="39.84287977154859" lon="9.278590571918938"><ele>814.0</ele><time>2026-04-30T08:56:19.151Z</time></trkpt><trkpt lat="39.84306130147095" lon="9.27832255333102"><ele>821.5</ele><time>2026-04-30T08:56:20.151Z</time></trkpt><trkpt lat="39.84321580360158" lon="9.278034682987531"><ele>829.0</ele><time>2026-04-30T08:56:21.151Z</time></trkpt><trkpt lat="39.8433654195071" lon="9.277756598140941"><ele>825.6666666666666</ele><time>2026-04-30T08:56:22.151Z</time></trkpt><trkpt lat="39.8434938023908" lon="9.277516928839978"><ele>822.3333333333333</ele><time>2026-04-30T08:56:23.151Z</time></trkpt><trkpt lat="39.84360387856913" lon="9.27727941093747"><ele>819.0</ele><time>2026-04-30T08:56:24.151Z</time></trkpt><trkpt lat="39.84368730310378" lon="9.277042781248989"><ele>819.0</ele><time>2026-04-30T08:56:25.151Z</time></trkpt><trkpt lat="39.84371013969947" lon="9.276775273689017"><ele>819.0</ele><time>2026-04-30T08:56:26.151Z</time></trkpt><trkpt lat="39.84369498241063" lon="9.276529451013321"><ele>819.0</ele><time>2026-04-30T08:56:27.151Z</time></trkpt><trkpt lat="39.84362791156046" lon="9.276289359808134"><ele>818.5</ele><time>2026-04-30T08:56:28.151Z</time></trkpt><trkpt lat="39.843507707532886" lon="9.276036419431312"><ele>818.0</ele><time>2026-04-30T08:56:29.151Z</time></trkpt><trkpt lat="39.843358750318075" lon="9.27580320586839"><ele>822.0</ele><time>2026-04-30T08:56:30.151Z</time></trkpt><trkpt lat="39.84323022166467" lon="9.275625791507276"><ele>826.0</ele><time>2026-04-30T08:56:31.151Z</time></trkpt><trkpt lat="39.84307267627094" lon="9.275499645953072"><ele>830.0</ele><time>2026-04-30T08:56:32.151Z</time></trkpt><trkpt lat="39.84284717715039" lon="9.27541500048341"><ele>834.5</ele><time>2026-04-30T08:56:33.151Z</time></trkpt><trkpt lat="39.84260843273324" lon="9.275333902720691"><ele>839.0</ele><time>2026-04-30T08:56:34.151Z</time></trkpt><trkpt lat="39.842394927981154" lon="9.27526928008491"><ele>839.0</ele><time>2026-04-30T08:56:35.151Z</time></trkpt><trkpt lat="39.84221132426004" lon="9.275273298131594"><ele>839.0</ele><time>2026-04-30T08:56:36.151Z</time></trkpt><trkpt lat="39.84200782037671" lon="9.27535441394219"><ele>839.0</ele><time>2026-04-30T08:56:37.151Z</time></trkpt><trkpt lat="39.84175826477524" lon="9.275445950488239"><ele>838.0</ele><time>2026-04-30T08:56:38.151Z</time></trkpt><trkpt lat="39.8414824303792" lon="9.275542620755413"><ele>837.0</ele><time>2026-04-30T08:56:39.151Z</time></trkpt><trkpt lat="39.841175872587975" lon="9.275646882204125"><ele>840.0</ele><time>2026-04-30T08:56:40.151Z</time></trkpt><trkpt lat="39.840844843189444" lon="9.275749655033243"><ele>843.0</ele><time>2026-04-30T08:56:41.151Z</time></trkpt><trkpt lat="39.84053636623106" lon="9.275859226341622"><ele>843.0</ele><time>2026-04-30T08:56:42.151Z</time></trkpt><trkpt lat="39.84026087347438" lon="9.275953090345709"><ele>843.0</ele><time>2026-04-30T08:56:43.151Z</time></trkpt><trkpt lat="39.84003011354158" lon="9.276032950712287"><ele>840.3333333333333</ele><time>2026-04-30T08:56:44.151Z</time></trkpt><trkpt lat="39.839819989192755" lon="9.276082015513072"><ele>837.6666666666666</ele><time>2026-04-30T08:56:45.151Z</time></trkpt><trkpt lat="39.83960183513021" lon="9.276076812355162"><ele>835.0</ele><time>2026-04-30T08:56:46.151Z</time></trkpt><trkpt lat="39.839359781985976" lon="9.27600969095879"><ele>833.5</ele><time>2026-04-30T08:56:47.151Z</time></trkpt><trkpt lat="39.83910469915186" lon="9.275889086449643"><ele>832.0</ele><time>2026-04-30T08:56:48.151Z</time></trkpt><trkpt lat="39.838803635537005" lon="9.275716376470507"><ele>830.5</ele><time>2026-04-30T08:56:49.151Z</time></trkpt><trkpt lat="39.83849029824533" lon="9.275541066678688"><ele>829.0</ele><time>2026-04-30T08:56:50.151Z</time></trkpt><trkpt lat="39.838197183629205" lon="9.275400806991506"><ele>826.5</ele><time>2026-04-30T08:56:51.151Z</time></trkpt><trkpt lat="39.83793301487675" lon="9.275269820821741"><ele>824.0</ele><time>2026-04-30T08:56:52.151Z</time></trkpt><trkpt lat="39.83768398338838" lon="9.275144614133932"><ele>821.5</ele><time>2026-04-30T08:56:53.151Z</time></trkpt><trkpt lat="39.837446999078914" lon="9.275021648999871"><ele>819.0</ele><time>2026-04-30T08:56:54.151Z</time></trkpt><trkpt lat="39.8372340795641" lon="9.274896424713718"><ele>817.0</ele><time>2026-04-30T08:56:55.151Z</time></trkpt><trkpt lat="39.83703061034202" lon="9.274744391319183"><ele>815.0</ele><time>2026-04-30T08:56:56.151Z</time></trkpt><trkpt lat="39.83683044362412" lon="9.274604454035368"><ele>814.3333333333334</ele><time>2026-04-30T08:56:57.151Z</time></trkpt><trkpt lat="39.83663398583554" lon="9.274484422560814"><ele>813.6666666666667</ele><time>2026-04-30T08:56:58.151Z</time></trkpt><trkpt lat="39.83643725436591" lon="9.274427144684317"><ele>813.0</ele><time>2026-04-30T08:56:59.151Z</time></trkpt><trkpt lat="39.83621839155876" lon="9.274374256031805"><ele>813.0</ele><time>2026-04-30T08:57:00.151Z</time></trkpt><trkpt lat="39.83598968139342" lon="9.274305739712597"><ele>813.0</ele><time>2026-04-30T08:57:01.151Z</time></trkpt><trkpt lat="39.83575352797266" lon="9.27423759430841"><ele>812.0</ele><time>2026-04-30T08:57:02.151Z</time></trkpt><trkpt lat="39.83552089159919" lon="9.274149021000305"><ele>811.0</ele><time>2026-04-30T08:57:03.151Z</time></trkpt><trkpt lat="39.83530182359572" lon="9.274041136013233"><ele>809.3333333333333</ele><time>2026-04-30T08:57:04.151Z</time></trkpt><trkpt lat="39.83509153234365" lon="9.273935242546829"><ele>807.6666666666667</ele><time>2026-04-30T08:57:05.151Z</time></trkpt><trkpt lat="39.83489331153659" lon="9.273878301957234"><ele>806.0</ele><time>2026-04-30T08:57:06.153Z</time></trkpt><trkpt lat="39.83470606002691" lon="9.273867796026366"><ele>806.0</ele><time>2026-04-30T08:57:07.153Z</time></trkpt><trkpt lat="39.83452694436795" lon="9.27387507472217"><ele>806.0</ele><time>2026-04-30T08:57:08.153Z</time></trkpt><trkpt lat="39.83435538658546" lon="9.273873697074146"><ele>806.0</ele><time>2026-04-30T08:57:09.153Z</time></trkpt><trkpt lat="39.83418282461083" lon="9.273872903778111"><ele>806.3333333333334</ele><time>2026-04-30T08:57:10.153Z</time></trkpt><trkpt lat="39.8340030424174" lon="9.273873778638235"><ele>806.6666666666667</ele><time>2026-04-30T08:57:11.153Z</time></trkpt><trkpt lat="39.83382026012347" lon="9.27389209554854"><ele>807.0</ele><time>2026-04-30T08:57:12.153Z</time></trkpt><trkpt lat="39.83363089650954" lon="9.273938218032177"><ele>808.0</ele><time>2026-04-30T08:57:13.152Z</time></trkpt><trkpt lat="39.83345048001684" lon="9.274023345098223"><ele>809.0</ele><time>2026-04-30T08:57:14.152Z</time></trkpt><trkpt lat="39.83328290193137" lon="9.274132016163001"><ele>810.0</ele><time>2026-04-30T08:57:15.153Z</time></trkpt><trkpt lat="39.83312539151181" lon="9.274239106919199"><ele>810.0</ele><time>2026-04-30T08:57:16.153Z</time></trkpt><trkpt lat="39.83298095708743" lon="9.274332538638461"><ele>810.0</ele><time>2026-04-30T08:57:17.153Z</time></trkpt><trkpt lat="39.832844812672235" lon="9.27442642455423"><ele>810.0</ele><time>2026-04-30T08:57:18.153Z</time></trkpt><trkpt lat="39.832719863373235" lon="9.274505759940894"><ele>809.5</ele><time>2026-04-30T08:57:19.152Z</time></trkpt><trkpt lat="39.832610832486125" lon="9.274574099664045"><ele>809.0</ele><time>2026-04-30T08:57:20.152Z</time></trkpt><trkpt lat="39.83253082917118" lon="9.274623512355207"><ele>808.5</ele><time>2026-04-30T08:57:21.152Z</time></trkpt><trkpt lat="39.832470912006755" lon="9.274656930553578"><ele>808.0</ele><time>2026-04-30T08:57:22.152Z</time></trkpt><trkpt lat="39.832410889797536" lon="9.274688353883397"><ele>807.5</ele><time>2026-04-30T08:57:23.152Z</time></trkpt><trkpt lat="39.83234448688274" lon="9.2747265990257"><ele>807.0</ele><time>2026-04-30T08:57:24.152Z</time></trkpt><trkpt lat="39.83226144147259" lon="9.274767909877836"><ele>807.25</ele><time>2026-04-30T08:57:25.152Z</time></trkpt><trkpt lat="39.832159208183874" lon="9.274809658907849"><ele>807.5</ele><time>2026-04-30T08:57:26.152Z</time></trkpt><trkpt lat="39.83203035487056" lon="9.274839751051895"><ele>807.75</ele><time>2026-04-30T08:57:27.152Z</time></trkpt><trkpt lat="39.83189111138473" lon="9.27483265561527"><ele>808.0</ele><time>2026-04-30T08:57:28.152Z</time></trkpt><trkpt lat="39.83174814040157" lon="9.274774628628954"><ele>807.0</ele><time>2026-04-30T08:57:29.152Z</time></trkpt><trkpt lat="39.83159302532338" lon="9.274709858052447"><ele>806.0</ele><time>2026-04-30T08:57:30.152Z</time></trkpt><trkpt lat="39.8314439460526" lon="9.274662836512848"><ele>805.0</ele><time>2026-04-30T08:57:31.152Z</time></trkpt><trkpt lat="39.83130735202351" lon="9.274626722759105"><ele>805.0</ele><time>2026-04-30T08:57:32.152Z</time></trkpt><trkpt lat="39.83117561139842" lon="9.274588239830537"><ele>805.0</ele><time>2026-04-30T08:57:33.153Z</time></trkpt><trkpt lat="39.831022079160576" lon="9.274570912964178"><ele>805.0</ele><time>2026-04-30T08:57:34.153Z</time></trkpt><trkpt lat="39.83084072610807" lon="9.274602820899744"><ele>804.0</ele><time>2026-04-30T08:57:35.153Z</time></trkpt><trkpt lat="39.830609663114515" lon="9.27466966645923"><ele>803.0</ele><time>2026-04-30T08:57:36.153Z</time></trkpt><trkpt lat="39.83032961657597" lon="9.274737715594224"><ele>805.0</ele><time>2026-04-30T08:57:37.153Z</time></trkpt><trkpt lat="39.83002859608409" lon="9.274793049455546"><ele>807.0</ele><time>2026-04-30T08:57:38.153Z</time></trkpt><trkpt lat="39.829758113364896" lon="9.2748478589538"><ele>807.0</ele><time>2026-04-30T08:57:39.153Z</time></trkpt><trkpt lat="39.82954351656313" lon="9.274924809877493"><ele>807.0</ele><time>2026-04-30T08:57:40.153Z</time></trkpt><trkpt lat="39.82932856246217" lon="9.275068608152106"><ele>804.5</ele><time>2026-04-30T08:57:41.153Z</time></trkpt><trkpt lat="39.829102729516" lon="9.275275220610924"><ele>802.0</ele><time>2026-04-30T08:57:42.153Z</time></trkpt><trkpt lat="39.82885649751762" lon="9.27552020319128"><ele>801.5</ele><time>2026-04-30T08:57:43.153Z</time></trkpt><trkpt lat="39.82860548494931" lon="9.275768985399854"><ele>801.0</ele><time>2026-04-30T08:57:44.153Z</time></trkpt><trkpt lat="39.828387972064775" lon="9.27596786291172"><ele>801.0</ele><time>2026-04-30T08:57:45.153Z</time></trkpt><trkpt lat="39.8281562908081" lon="9.276096371524497"><ele>801.0</ele><time>2026-04-30T08:57:46.153Z</time></trkpt><trkpt lat="39.827896555075576" lon="9.276213262871142"><ele>799.5</ele><time>2026-04-30T08:57:47.153Z</time></trkpt><trkpt lat="39.82760027076732" lon="9.276314593207973"><ele>798.0</ele><time>2026-04-30T08:57:48.153Z</time></trkpt><trkpt lat="39.82725999383747" lon="9.276387233065055"><ele>798.0</ele><time>2026-04-30T08:57:49.153Z</time></trkpt><trkpt lat="39.82691578463288" lon="9.276454369190796"><ele>798.0</ele><time>2026-04-30T08:57:50.153Z</time></trkpt><trkpt lat="39.82662831094948" lon="9.27652486137095"><ele>796.0</ele><time>2026-04-30T08:57:51.153Z</time></trkpt><trkpt lat="39.826400947812644" lon="9.276583948696716"><ele>794.0</ele><time>2026-04-30T08:57:52.153Z</time></trkpt><trkpt lat="39.82620462225467" lon="9.27663003778791"><ele>792.0</ele><time>2026-04-30T08:57:53.153Z</time></trkpt><trkpt lat="39.826032813888276" lon="9.276669349596856"><ele>791.0</ele><time>2026-04-30T08:57:54.153Z</time></trkpt><trkpt lat="39.82588492495705" lon="9.276703200273156"><ele>790.0</ele><time>2026-04-30T08:57:55.153Z</time></trkpt><trkpt lat="39.82575983196392" lon="9.276731275829677"><ele>789.0</ele><time>2026-04-30T08:57:56.153Z</time></trkpt><trkpt lat="39.82566436657069" lon="9.276743626607683"><ele>788.0</ele><time>2026-04-30T08:57:57.153Z</time></trkpt><trkpt lat="39.825597088259094" lon="9.276738835581176"><ele>787.0</ele><time>2026-04-30T08:57:58.153Z</time></trkpt><trkpt lat="39.82553419983177" lon="9.27672726755877"><ele>787.0</ele><time>2026-04-30T08:58:00.153Z</time></trkpt><trkpt lat="39.82545784058546" lon="9.276702328983724"><ele>787.0</ele><time>2026-04-30T08:58:03.153Z</time></trkpt><trkpt lat="39.82539150289085" lon="9.276602852195323"><ele>787.0</ele><time>2026-04-30T08:58:05.153Z</time></trkpt><trkpt lat="39.825333977465206" lon="9.276505459757956"><ele>787.0</ele><time>2026-04-30T08:58:07.153Z</time></trkpt><trkpt lat="39.82524563663075" lon="9.276393352855749"><ele>787.0</ele><time>2026-04-30T08:58:09.153Z</time></trkpt><trkpt lat="39.82515850802788" lon="9.276286674285652"><ele>787.4999999999999</ele><time>2026-04-30T08:58:11.153Z</time></trkpt><trkpt lat="39.825104438048825" lon="9.276233661335308"><ele>788.0</ele><time>2026-04-30T08:58:12.153Z</time></trkpt><trkpt lat="39.82504545226145" lon="9.276183781184576"><ele>788.5</ele><time>2026-04-30T08:58:13.153Z</time></trkpt><trkpt lat="39.82497846184175" lon="9.276136468770549"><ele>789.0</ele><time>2026-04-30T08:58:14.153Z</time></trkpt><trkpt lat="39.824911204306005" lon="9.276085671528115"><ele>789.4999999999999</ele><time>2026-04-30T08:58:15.153Z</time></trkpt><trkpt lat="39.82483136555591" lon="9.276031140408538"><ele>790.0</ele><time>2026-04-30T08:58:16.153Z</time></trkpt><trkpt lat="39.82472663412191" lon="9.275968257549879"><ele>790.0</ele><time>2026-04-30T08:58:17.153Z</time></trkpt><trkpt lat="39.82460218506367" lon="9.2758840834882"><ele>790.0</ele><time>2026-04-30T08:58:18.153Z</time></trkpt><trkpt lat="39.82445965920333" lon="9.275787133580543"><ele>790.0</ele><time>2026-04-30T08:58:19.153Z</time></trkpt><trkpt lat="39.824287262348186" lon="9.275671042598262"><ele>789.5</ele><time>2026-04-30T08:58:20.153Z</time></trkpt><trkpt lat="39.824072946690514" lon="9.27552709630064"><ele>789.0</ele><time>2026-04-30T08:58:21.153Z</time></trkpt><trkpt lat="39.8238326420253" lon="9.275368838451655"><ele>789.0</ele><time>2026-04-30T08:58:22.153Z</time></trkpt><trkpt lat="39.82358125527957" lon="9.275202286596562"><ele>789.0</ele><time>2026-04-30T08:58:23.153Z</time></trkpt><trkpt lat="39.823355759493495" lon="9.275059426555634"><ele>787.0</ele><time>2026-04-30T08:58:24.153Z</time></trkpt><trkpt lat="39.823118637883034" lon="9.274949739542675"><ele>785.0</ele><time>2026-04-30T08:58:25.153Z</time></trkpt><trkpt lat="39.82285343734173" lon="9.274892892222203"><ele>784.0</ele><time>2026-04-30T08:58:26.153Z</time></trkpt><trkpt lat="39.822574081956596" lon="9.274877934761637"><ele>783.0</ele><time>2026-04-30T08:58:27.153Z</time></trkpt><trkpt lat="39.82231680328782" lon="9.274877497763379"><ele>783.0</ele><time>2026-04-30T08:58:28.153Z</time></trkpt><trkpt lat="39.82208372030273" lon="9.274864320627016"><ele>783.0</ele><time>2026-04-30T08:58:29.153Z</time></trkpt><trkpt lat="39.82186067922762" lon="9.274823231228844"><ele>783.0</ele><time>2026-04-30T08:58:30.153Z</time></trkpt><trkpt lat="39.82163276465716" lon="9.274764517523312"><ele>783.0</ele><time>2026-04-30T08:58:31.153Z</time></trkpt><trkpt lat="39.8214041882726" lon="9.274675605085715"><ele>783.0</ele><time>2026-04-30T08:58:32.153Z</time></trkpt><trkpt lat="39.82118466583695" lon="9.274546791827209"><ele>783.0</ele><time>2026-04-30T08:58:33.153Z</time></trkpt><trkpt lat="39.820991595209975" lon="9.274405708472651"><ele>781.6666666666667</ele><time>2026-04-30T08:58:34.153Z</time></trkpt><trkpt lat="39.82079826174717" lon="9.27424420028298"><ele>780.3333333333334</ele><time>2026-04-30T08:58:35.153Z</time></trkpt><trkpt lat="39.82062363716627" lon="9.274075993407985"><ele>779.0</ele><time>2026-04-30T08:58:36.153Z</time></trkpt><trkpt lat="39.82046678412742" lon="9.273914149266423"><ele>779.0</ele><time>2026-04-30T08:58:37.153Z</time></trkpt><trkpt lat="39.82032319013006" lon="9.273763720743032"><ele>779.0</ele><time>2026-04-30T08:58:38.153Z</time></trkpt><trkpt lat="39.82019234441286" lon="9.273627330622274"><ele>779.0</ele><time>2026-04-30T08:58:39.153Z</time></trkpt><trkpt lat="39.82007676699727" lon="9.273508451639128"><ele>778.5</ele><time>2026-04-30T08:58:40.153Z</time></trkpt><trkpt lat="39.8199660046665" lon="9.273392427665241"><ele>778.0</ele><time>2026-04-30T08:58:41.153Z</time></trkpt><trkpt lat="39.819867277527734" lon="9.273280165776546"><ele>777.5</ele><time>2026-04-30T08:58:42.153Z</time></trkpt><trkpt lat="39.819772237818796" lon="9.273178168942461"><ele>777.0</ele><time>2026-04-30T08:58:43.153Z</time></trkpt><trkpt lat="39.81967853212868" lon="9.273081183949802"><ele>776.0</ele><time>2026-04-30T08:58:44.153Z</time></trkpt><trkpt lat="39.819576713657455" lon="9.272982574631515"><ele>775.0</ele><time>2026-04-30T08:58:45.153Z</time></trkpt><trkpt lat="39.819458310050514" lon="9.272865730241925"><ele>774.0</ele><time>2026-04-30T08:58:46.153Z</time></trkpt><trkpt lat="39.819327047987336" lon="9.272722685457236"><ele>773.0</ele><time>2026-04-30T08:58:47.153Z</time></trkpt><trkpt lat="39.81918396957704" lon="9.272569300572606"><ele>773.0</ele><time>2026-04-30T08:58:48.153Z</time></trkpt><trkpt lat="39.81904490284118" lon="9.272425227690022"><ele>773.0</ele><time>2026-04-30T08:58:49.153Z</time></trkpt><trkpt lat="39.81891627462838" lon="9.272295631944013"><ele>773.0</ele><time>2026-04-30T08:58:50.153Z</time></trkpt><trkpt lat="39.81878933784001" lon="9.272164722208661"><ele>772.3333333333334</ele><time>2026-04-30T08:58:51.153Z</time></trkpt><trkpt lat="39.81865845002718" lon="9.272030762889182"><ele>771.6666666666667</ele><time>2026-04-30T08:58:52.153Z</time></trkpt><trkpt lat="39.8185304672086" lon="9.27190058198357"><ele>771.0</ele><time>2026-04-30T08:58:53.153Z</time></trkpt><trkpt lat="39.81841407652349" lon="9.271778771165492"><ele>770.8</ele><time>2026-04-30T08:58:54.153Z</time></trkpt><trkpt lat="39.818316586691985" lon="9.2716734662221"><ele>770.5999999999999</ele><time>2026-04-30T08:58:55.153Z</time></trkpt><trkpt lat="39.818223202773325" lon="9.271580369676887"><ele>770.4</ele><time>2026-04-30T08:58:56.153Z</time></trkpt><trkpt lat="39.81813838104974" lon="9.27149876582405"><ele>770.2</ele><time>2026-04-30T08:58:57.153Z</time></trkpt><trkpt lat="39.81806866030818" lon="9.271437189462986"><ele>770.0</ele><time>2026-04-30T08:58:58.153Z</time></trkpt><trkpt lat="39.81798243774526" lon="9.271416483913823"><ele>770.0000000000001</ele><time>2026-04-30T08:59:00.153Z</time></trkpt><trkpt lat="39.8179108736207" lon="9.271440651586031"><ele>770.0</ele><time>2026-04-30T08:59:03.153Z</time></trkpt><trkpt lat="39.81784993065791" lon="9.271388564689504"><ele>770.0</ele><time>2026-04-30T08:59:40.155Z</time></trkpt><trkpt lat="39.817788740625936" lon="9.2713298965818"><ele>770.0</ele><time>2026-04-30T08:59:42.155Z</time></trkpt><trkpt lat="39.81773302826856" lon="9.271222805021635"><ele>770.0000000000001</ele><time>2026-04-30T08:59:44.155Z</time></trkpt><trkpt lat="39.81771425667882" lon="9.271109085542214"><ele>770.0</ele><time>2026-04-30T08:59:53.155Z</time></trkpt><trkpt lat="39.817619987625804" lon="9.27095889422879"><ele>770.0</ele><time>2026-04-30T08:59:55.155Z</time></trkpt><trkpt lat="39.817513780173726" lon="9.270838904318914"><ele>770.0</ele><time>2026-04-30T08:59:56.155Z</time></trkpt><trkpt lat="39.81737091629151" lon="9.270680766653209"><ele>770.0</ele><time>2026-04-30T08:59:57.155Z</time></trkpt><trkpt lat="39.817214047383" lon="9.270510320721534"><ele>770.0</ele><time>2026-04-30T08:59:58.155Z</time></trkpt><trkpt lat="39.81706541451013" lon="9.270359862740182"><ele>770.0</ele><time>2026-04-30T08:59:59.155Z</time></trkpt><trkpt lat="39.81693590377607" lon="9.27022538291697"><ele>770.0</ele><time>2026-04-30T09:00:00.156Z</time></trkpt><trkpt lat="39.81681937823674" lon="9.270101383540792"><ele>769.0</ele><time>2026-04-30T09:00:01.156Z</time></trkpt><trkpt lat="39.8167041898275" lon="9.269984601559985"><ele>768.0</ele><time>2026-04-30T09:00:02.156Z</time></trkpt><trkpt lat="39.816563083739226" lon="9.269856996688167"><ele>767.0</ele><time>2026-04-30T09:00:03.156Z</time></trkpt><trkpt lat="39.81639252628688" lon="9.26967605049084"><ele>766.6666666666666</ele><time>2026-04-30T09:00:04.156Z</time></trkpt><trkpt lat="39.816245632639315" lon="9.269517540574126"><ele>766.3333333333334</ele><time>2026-04-30T09:00:05.156Z</time></trkpt><trkpt lat="39.81611224416346" lon="9.269385248857896"><ele>766.0</ele><time>2026-04-30T09:00:06.156Z</time></trkpt><trkpt lat="39.81598498016409" lon="9.269274528290266"><ele>766.0</ele><time>2026-04-30T09:00:07.156Z</time></trkpt><trkpt lat="39.81584138156879" lon="9.269146640931341"><ele>766.0</ele><time>2026-04-30T09:00:08.156Z</time></trkpt><trkpt lat="39.81566692854921" lon="9.268976135803651"><ele>766.0</ele><time>2026-04-30T09:00:09.156Z</time></trkpt><trkpt lat="39.815451280125124" lon="9.268754694271058"><ele>766.0</ele><time>2026-04-30T09:00:10.156Z</time></trkpt><trkpt lat="39.815204738906125" lon="9.268500891625068"><ele>766.0</ele><time>2026-04-30T09:00:11.156Z</time></trkpt><trkpt lat="39.814928522221756" lon="9.268221386324608"><ele>766.0</ele><time>2026-04-30T09:00:12.156Z</time></trkpt><trkpt lat="39.81463380533577" lon="9.267900891242226"><ele>766.0</ele><time>2026-04-30T09:00:13.156Z</time></trkpt><trkpt lat="39.81431686164244" lon="9.267550821269102"><ele>764.5</ele><time>2026-04-30T09:00:14.156Z</time></trkpt><trkpt lat="39.813976111020814" lon="9.267186912590637"><ele>763.0</ele><time>2026-04-30T09:00:15.156Z</time></trkpt><trkpt lat="39.81361177900173" lon="9.266798200349372"><ele>762.0</ele><time>2026-04-30T09:00:16.156Z</time></trkpt><trkpt lat="39.81322784836135" lon="9.26641564196497"><ele>762.0</ele><time>2026-04-30T09:00:17.156Z</time></trkpt><trkpt lat="39.812896022419565" lon="9.26606693159552"><ele>762.0</ele><time>2026-04-30T09:00:18.156Z</time></trkpt><trkpt lat="39.81260611338507" lon="9.265770759091712"><ele>763.5</ele><time>2026-04-30T09:00:19.156Z</time></trkpt><trkpt lat="39.812335094273344" lon="9.265489237147198"><ele>765.0</ele><time>2026-04-30T09:00:20.156Z</time></trkpt><trkpt lat="39.81208478224599" lon="9.265225348852628"><ele>765.0</ele><time>2026-04-30T09:00:21.156Z</time></trkpt><trkpt lat="39.81184844723827" lon="9.264977932262502"><ele>765.0</ele><time>2026-04-30T09:00:22.156Z</time></trkpt><trkpt lat="39.81163858253484" lon="9.26476016066821"><ele>765.5</ele><time>2026-04-30T09:00:23.156Z</time></trkpt><trkpt lat="39.81143416282791" lon="9.264552106341199"><ele>766.0</ele><time>2026-04-30T09:00:24.156Z</time></trkpt><trkpt lat="39.811245589159235" lon="9.264350374490173"><ele>766.0</ele><time>2026-04-30T09:00:25.156Z</time></trkpt><trkpt lat="39.811073190867944" lon="9.264171441795066"><ele>766.0</ele><time>2026-04-30T09:00:26.156Z</time></trkpt><trkpt lat="39.81091380949953" lon="9.263995227044637"><ele>766.0</ele><time>2026-04-30T09:00:27.156Z</time></trkpt><trkpt lat="39.81075535674606" lon="9.263845808707597"><ele>766.3333333333334</ele><time>2026-04-30T09:00:28.156Z</time></trkpt><trkpt lat="39.810617108552115" lon="9.263688480351036"><ele>766.6666666666666</ele><time>2026-04-30T09:00:29.156Z</time></trkpt><trkpt lat="39.81048439742632" lon="9.263555288355478"><ele>767.0</ele><time>2026-04-30T09:00:30.156Z</time></trkpt><trkpt lat="39.81035418181378" lon="9.263424397051057"><ele>767.0</ele><time>2026-04-30T09:00:31.156Z</time></trkpt><trkpt lat="39.81023721838387" lon="9.263309995141766"><ele>767.0</ele><time>2026-04-30T09:00:32.156Z</time></trkpt><trkpt lat="39.81013441089556" lon="9.263204208583447"><ele>767.0</ele><time>2026-04-30T09:00:33.156Z</time></trkpt><trkpt lat="39.81003220087686" lon="9.263099644775048"><ele>767.0</ele><time>2026-04-30T09:00:34.156Z</time></trkpt><trkpt lat="39.80992029478045" lon="9.26298604242682"><ele>767.3333333333333</ele><time>2026-04-30T09:00:35.156Z</time></trkpt><trkpt lat="39.809790313863644" lon="9.262859205367645"><ele>767.6666666666666</ele><time>2026-04-30T09:00:36.156Z</time></trkpt><trkpt lat="39.80960136277219" lon="9.262715962958866"><ele>768.0</ele><time>2026-04-30T09:00:37.156Z</time></trkpt><trkpt lat="39.809355434090385" lon="9.262575498776432"><ele>769.0</ele><time>2026-04-30T09:00:38.156Z</time></trkpt><trkpt lat="39.80907563161971" lon="9.262444858649545"><ele>770.0</ele><time>2026-04-30T09:00:39.156Z</time></trkpt><trkpt lat="39.80880726274212" lon="9.262348245639894"><ele>771.0</ele><time>2026-04-30T09:00:40.156Z</time></trkpt><trkpt lat="39.808577556292946" lon="9.262223759696669"><ele>772.0</ele><time>2026-04-30T09:00:41.156Z</time></trkpt><trkpt lat="39.808361136224896" lon="9.262040747028"><ele>773.5</ele><time>2026-04-30T09:00:42.156Z</time></trkpt><trkpt lat="39.80814775717792" lon="9.261814867226423"><ele>775.0</ele><time>2026-04-30T09:00:43.156Z</time></trkpt><trkpt lat="39.807939395113614" lon="9.261546560847629"><ele>776.5</ele><time>2026-04-30T09:00:44.156Z</time></trkpt><trkpt lat="39.80774230264574" lon="9.26132000452868"><ele>778.0</ele><time>2026-04-30T09:00:45.156Z</time></trkpt><trkpt lat="39.807567817673906" lon="9.261166703257905"><ele>778.0</ele><time>2026-04-30T09:00:46.156Z</time></trkpt><trkpt lat="39.80744969368631" lon="9.261001744129544"><ele>778.0</ele><time>2026-04-30T09:00:47.156Z</time></trkpt><trkpt lat="39.807370528341785" lon="9.260790520068095"><ele>778.0</ele><time>2026-04-30T09:00:48.156Z</time></trkpt><trkpt lat="39.80730977854797" lon="9.26057197663791"><ele>778.6666666666666</ele><time>2026-04-30T09:00:49.156Z</time></trkpt><trkpt lat="39.807198751195635" lon="9.260403985980414"><ele>779.3333333333333</ele><time>2026-04-30T09:00:50.156Z</time></trkpt><trkpt lat="39.80701751832445" lon="9.260291567160435"><ele>780.0</ele><time>2026-04-30T09:00:51.156Z</time></trkpt><trkpt lat="39.80678193526035" lon="9.260230320788187"><ele>778.0</ele><time>2026-04-30T09:00:52.156Z</time></trkpt><trkpt lat="39.806491926467935" lon="9.260169212288915"><ele>776.0</ele><time>2026-04-30T09:00:53.156Z</time></trkpt><trkpt lat="39.80621121163724" lon="9.260081871729804"><ele>775.6666666666667</ele><time>2026-04-30T09:00:54.156Z</time></trkpt><trkpt lat="39.80599022472779" lon="9.260018333209649"><ele>775.3333333333333</ele><time>2026-04-30T09:00:55.156Z</time></trkpt><trkpt lat="39.805806521004335" lon="9.260030545803613"><ele>775.0</ele><time>2026-04-30T09:00:56.156Z</time></trkpt><trkpt lat="39.805596047234005" lon="9.260122998252346"><ele>775.0</ele><time>2026-04-30T09:00:57.156Z</time></trkpt><trkpt lat="39.80536520362685" lon="9.260244330191558"><ele>775.0</ele><time>2026-04-30T09:00:58.156Z</time></trkpt><trkpt lat="39.80516709755124" lon="9.26028846138919"><ele>773.3333333333333</ele><time>2026-04-30T09:00:59.156Z</time></trkpt><trkpt lat="39.804999032314676" lon="9.260228439346879"><ele>771.6666666666667</ele><time>2026-04-30T09:01:00.156Z</time></trkpt><trkpt lat="39.80482285832853" lon="9.260098655119709"><ele>770.0</ele><time>2026-04-30T09:01:01.156Z</time></trkpt><trkpt lat="39.80462374351577" lon="9.260048223258247"><ele>770.0</ele><time>2026-04-30T09:01:02.156Z</time></trkpt><trkpt lat="39.80439545882731" lon="9.260081239134838"><ele>770.0</ele><time>2026-04-30T09:01:03.156Z</time></trkpt><trkpt lat="39.80417462820399" lon="9.260182729763857"><ele>767.6666666666667</ele><time>2026-04-30T09:01:04.156Z</time></trkpt><trkpt lat="39.80398383714623" lon="9.26024440656209"><ele>765.3333333333334</ele><time>2026-04-30T09:01:05.156Z</time></trkpt><trkpt lat="39.8037952017922" lon="9.260195649243553"><ele>763.0</ele><time>2026-04-30T09:01:06.156Z</time></trkpt><trkpt lat="39.803596687105475" lon="9.260077465762084"><ele>760.5</ele><time>2026-04-30T09:01:07.156Z</time></trkpt><trkpt lat="39.80335891469548" lon="9.259974900546405"><ele>758.0</ele><time>2026-04-30T09:01:08.156Z</time></trkpt><trkpt lat="39.80308603029367" lon="9.259912615910226"><ele>758.0</ele><time>2026-04-30T09:01:09.156Z</time></trkpt><trkpt lat="39.80278369647213" lon="9.259872833778264"><ele>758.0</ele><time>2026-04-30T09:01:10.156Z</time></trkpt><trkpt lat="39.80250811858503" lon="9.259794454067341"><ele>755.0</ele><time>2026-04-30T09:01:11.156Z</time></trkpt><trkpt lat="39.80229633263802" lon="9.259693882263473"><ele>752.0</ele><time>2026-04-30T09:01:12.156Z</time></trkpt><trkpt lat="39.80213242881322" lon="9.259619764877154"><ele>749.0</ele><time>2026-04-30T09:01:13.156Z</time></trkpt><trkpt lat="39.801982924711474" lon="9.259610303873746"><ele>749.0</ele><time>2026-04-30T09:01:14.156Z</time></trkpt><trkpt lat="39.80185290180741" lon="9.259684666502645"><ele>749.0</ele><time>2026-04-30T09:01:15.156Z</time></trkpt><trkpt lat="39.80172299341983" lon="9.259880249710964"><ele>749.0</ele><time>2026-04-30T09:01:16.156Z</time></trkpt><trkpt lat="39.801538376445535" lon="9.260115691059902"><ele>750.6666666666666</ele><time>2026-04-30T09:01:17.156Z</time></trkpt><trkpt lat="39.80134428006276" lon="9.260262009218172"><ele>752.3333333333334</ele><time>2026-04-30T09:01:18.158Z</time></trkpt><trkpt lat="39.80118425661641" lon="9.260414455288899"><ele>754.0</ele><time>2026-04-30T09:01:19.157Z</time></trkpt><trkpt lat="39.80109978588664" lon="9.260603208425097"><ele>752.3333333333334</ele><time>2026-04-30T09:01:20.157Z</time></trkpt><trkpt lat="39.80106866751284" lon="9.260828315945417"><ele>750.6666666666666</ele><time>2026-04-30T09:01:21.158Z</time></trkpt><trkpt lat="39.8009915339655" lon="9.261037974392789"><ele>749.0</ele><time>2026-04-30T09:01:22.158Z</time></trkpt><trkpt lat="39.80085769673062" lon="9.261146738373007"><ele>749.0</ele><time>2026-04-30T09:01:23.158Z</time></trkpt><trkpt lat="39.80065986152875" lon="9.261199016015242"><ele>749.0</ele><time>2026-04-30T09:01:24.158Z</time></trkpt><trkpt lat="39.80042714008286" lon="9.26125591995293"><ele>749.0</ele><time>2026-04-30T09:01:25.158Z</time></trkpt><trkpt lat="39.80016800391161" lon="9.261326335697841"><ele>746.0</ele><time>2026-04-30T09:01:26.158Z</time></trkpt><trkpt lat="39.79993570798223" lon="9.261387951697392"><ele>743.0</ele><time>2026-04-30T09:01:27.158Z</time></trkpt><trkpt lat="39.799744279315675" lon="9.2613944969726"><ele>740.0</ele><time>2026-04-30T09:01:28.158Z</time></trkpt><trkpt lat="39.79959215395118" lon="9.261381390491447"><ele>740.0</ele><time>2026-04-30T09:01:29.158Z</time></trkpt><trkpt lat="39.79948663762979" lon="9.261413864580337"><ele>740.0</ele><time>2026-04-30T09:01:30.158Z</time></trkpt><trkpt lat="39.79943172693853" lon="9.261512623592946"><ele>740.0</ele><time>2026-04-30T09:01:31.158Z</time></trkpt><trkpt lat="39.79942700489299" lon="9.261658634463643"><ele>740.0</ele><time>2026-04-30T09:01:32.158Z</time></trkpt><trkpt lat="39.799464346333465" lon="9.26185901462246"><ele>743.0</ele><time>2026-04-30T09:01:33.158Z</time></trkpt><trkpt lat="39.79949695505047" lon="9.262106570554598"><ele>746.0</ele><time>2026-04-30T09:01:34.158Z</time></trkpt><trkpt lat="39.79948717435426" lon="9.262363774416851"><ele>749.0</ele><time>2026-04-30T09:01:35.158Z</time></trkpt><trkpt lat="39.79942968581319" lon="9.262604694288843"><ele>750.0</ele><time>2026-04-30T09:01:36.158Z</time></trkpt><trkpt lat="39.799345324570375" lon="9.262809995525755"><ele>751.0</ele><time>2026-04-30T09:01:37.158Z</time></trkpt><trkpt lat="39.799223394171044" lon="9.262966285942838"><ele>752.0</ele><time>2026-04-30T09:01:38.158Z</time></trkpt><trkpt lat="39.79907340960077" lon="9.26308437118555"><ele>747.3333333333333</ele><time>2026-04-30T09:01:39.158Z</time></trkpt><trkpt lat="39.79889558076774" lon="9.263148645292533"><ele>742.6666666666666</ele><time>2026-04-30T09:01:40.158Z</time></trkpt><trkpt lat="39.7986799961015" lon="9.263155762114367"><ele>738.0</ele><time>2026-04-30T09:01:41.158Z</time></trkpt><trkpt lat="39.79843093084191" lon="9.263149760446034"><ele>735.5</ele><time>2026-04-30T09:01:42.158Z</time></trkpt><trkpt lat="39.79815672467971" lon="9.26315030982236"><ele>733.0</ele><time>2026-04-30T09:01:43.158Z</time></trkpt><trkpt lat="39.79785989319384" lon="9.263158839634842"><ele>732.5</ele><time>2026-04-30T09:01:44.158Z</time></trkpt><trkpt lat="39.79755266312003" lon="9.263173599601306"><ele>732.0</ele><time>2026-04-30T09:01:45.158Z</time></trkpt><trkpt lat="39.797272685023664" lon="9.263190279219367"><ele>732.0</ele><time>2026-04-30T09:01:46.158Z</time></trkpt><trkpt lat="39.79703459112121" lon="9.263200627941112"><ele>732.0</ele><time>2026-04-30T09:01:47.158Z</time></trkpt><trkpt lat="39.79683255343834" lon="9.263204073412078"><ele>732.0</ele><time>2026-04-30T09:01:48.158Z</time></trkpt><trkpt lat="39.796668351486986" lon="9.263178434871547"><ele>731.4000000000001</ele><time>2026-04-30T09:01:49.158Z</time></trkpt><trkpt lat="39.79654588310905" lon="9.263098096213078"><ele>730.8000000000001</ele><time>2026-04-30T09:01:50.158Z</time></trkpt><trkpt lat="39.796448298239774" lon="9.262999956806222"><ele>730.2</ele><time>2026-04-30T09:01:51.158Z</time></trkpt><trkpt lat="39.79636212912179" lon="9.262930778423804"><ele>729.6</ele><time>2026-04-30T09:01:52.158Z</time></trkpt><trkpt lat="39.79629227661319" lon="9.262900270274425"><ele>729.0</ele><time>2026-04-30T09:01:53.158Z</time></trkpt><trkpt lat="39.79622660613872" lon="9.262882276094887"><ele>729.0</ele><time>2026-04-30T09:01:54.158Z</time></trkpt><trkpt lat="39.7961585294943" lon="9.262864922853856"><ele>729.0</ele><time>2026-04-30T09:01:55.158Z</time></trkpt><trkpt lat="39.79608639559085" lon="9.262797902891585"><ele>729.0</ele><time>2026-04-30T09:01:56.158Z</time></trkpt><trkpt lat="39.79601181870506" lon="9.262693594955104"><ele>729.0</ele><time>2026-04-30T09:01:57.158Z</time></trkpt><trkpt lat="39.79591384669076" lon="9.262579441523696"><ele>729.0</ele><time>2026-04-30T09:01:58.158Z</time></trkpt><trkpt lat="39.79577314947967" lon="9.262517077452406"><ele>731.0</ele><time>2026-04-30T09:01:59.158Z</time></trkpt><trkpt lat="39.79559636285533" lon="9.26251421274343"><ele>733.0</ele><time>2026-04-30T09:02:00.158Z</time></trkpt><trkpt lat="39.79539976671499" lon="9.262543474926252"><ele>735.0</ele><time>2026-04-30T09:02:01.158Z</time></trkpt><trkpt lat="39.79519771934248" lon="9.262579338319876"><ele>738.6666666666666</ele><time>2026-04-30T09:02:02.158Z</time></trkpt><trkpt lat="39.79501169905711" lon="9.262630786168724"><ele>742.3333333333333</ele><time>2026-04-30T09:02:03.158Z</time></trkpt><trkpt lat="39.79485735113519" lon="9.262643937798948"><ele>746.0</ele><time>2026-04-30T09:02:04.158Z</time></trkpt><trkpt lat="39.79468953567066" lon="9.262612177266874"><ele>746.0</ele><time>2026-04-30T09:02:05.158Z</time></trkpt><trkpt lat="39.79452995342725" lon="9.262502430295129"><ele>746.0</ele><time>2026-04-30T09:02:06.158Z</time></trkpt><trkpt lat="39.79435755355304" lon="9.26234455324958"><ele>746.0</ele><time>2026-04-30T09:02:07.158Z</time></trkpt><trkpt lat="39.79416520701374" lon="9.262166178031363"><ele>748.3333333333333</ele><time>2026-04-30T09:02:08.158Z</time></trkpt><trkpt lat="39.79398761414977" lon="9.262014921677851"><ele>750.6666666666666</ele><time>2026-04-30T09:02:09.158Z</time></trkpt><trkpt lat="39.79384909021698" lon="9.261878897481887"><ele>753.0</ele><time>2026-04-30T09:02:10.158Z</time></trkpt><trkpt lat="39.79374489738518" lon="9.26172004642301"><ele>753.0</ele><time>2026-04-30T09:02:11.158Z</time></trkpt><trkpt lat="39.79366499592145" lon="9.26151113512441"><ele>753.0</ele><time>2026-04-30T09:02:12.158Z</time></trkpt><trkpt lat="39.79360125871101" lon="9.261252292388143"><ele>753.0</ele><time>2026-04-30T09:02:13.158Z</time></trkpt><trkpt lat="39.79354222044873" lon="9.260972665272654"><ele>753.3333333333334</ele><time>2026-04-30T09:02:14.158Z</time></trkpt><trkpt lat="39.793477095256364" lon="9.260756619131739"><ele>753.6666666666667</ele><time>2026-04-30T09:02:15.158Z</time></trkpt><trkpt lat="39.79337616698178" lon="9.260625354660382"><ele>754.0</ele><time>2026-04-30T09:02:16.158Z</time></trkpt><trkpt lat="39.79321570886142" lon="9.26057443742361"><ele>754.0</ele><time>2026-04-30T09:02:17.158Z</time></trkpt><trkpt lat="39.793020093016516" lon="9.26059435389033"><ele>754.0</ele><time>2026-04-30T09:02:18.158Z</time></trkpt><trkpt lat="39.7927979067238" lon="9.260614534469198"><ele>754.0</ele><time>2026-04-30T09:02:19.158Z</time></trkpt><trkpt lat="39.79258043339129" lon="9.260577859828881"><ele>749.0</ele><time>2026-04-30T09:02:20.158Z</time></trkpt><trkpt lat="39.792403397295544" lon="9.260517155270742"><ele>744.0</ele><time>2026-04-30T09:02:21.158Z</time></trkpt><trkpt lat="39.79226018025627" lon="9.260403178194236"><ele>739.0</ele><time>2026-04-30T09:02:22.158Z</time></trkpt><trkpt lat="39.79212369266454" lon="9.2602490964117"><ele>739.0</ele><time>2026-04-30T09:02:23.158Z</time></trkpt><trkpt lat="39.79197935575427" lon="9.2600980002268"><ele>739.0</ele><time>2026-04-30T09:02:24.159Z</time></trkpt><trkpt lat="39.79183343510146" lon="9.259976966235666"><ele>739.0</ele><time>2026-04-30T09:02:25.159Z</time></trkpt><trkpt lat="39.791697751706664" lon="9.259860172536037"><ele>736.0</ele><time>2026-04-30T09:02:26.159Z</time></trkpt><trkpt lat="39.79157035532726" lon="9.259752186666692"><ele>733.0</ele><time>2026-04-30T09:02:27.159Z</time></trkpt><trkpt lat="39.79147423032925" lon="9.259618506191634"><ele>730.0</ele><time>2026-04-30T09:02:28.159Z</time></trkpt><trkpt lat="39.79142977877118" lon="9.259438341744408"><ele>727.0</ele><time>2026-04-30T09:02:29.159Z</time></trkpt><trkpt lat="39.791421989894914" lon="9.259243641029874"><ele>727.0</ele><time>2026-04-30T09:02:30.159Z</time></trkpt><trkpt lat="39.79142736870153" lon="9.259080269166441"><ele>727.0</ele><time>2026-04-30T09:02:31.159Z</time></trkpt><trkpt lat="39.79143198494826" lon="9.258943757020365"><ele>727.0</ele><time>2026-04-30T09:02:32.159Z</time></trkpt><trkpt lat="39.791410698651056" lon="9.2588051367277"><ele>727.0</ele><time>2026-04-30T09:02:33.159Z</time></trkpt><trkpt lat="39.79133115162358" lon="9.258691582193919"><ele>725.0</ele><time>2026-04-30T09:02:34.159Z</time></trkpt><trkpt lat="39.79123971610083" lon="9.258598536525287"><ele>723.0</ele><time>2026-04-30T09:02:35.159Z</time></trkpt><trkpt lat="39.79112963562514" lon="9.25858365765508"><ele>721.0</ele><time>2026-04-30T09:02:36.159Z</time></trkpt><trkpt lat="39.79101505081295" lon="9.258636434353388"><ele>719.0</ele><time>2026-04-30T09:02:37.159Z</time></trkpt><trkpt lat="39.79091290823272" lon="9.258753010978001"><ele>718.8000000000001</ele><time>2026-04-30T09:02:38.159Z</time></trkpt><trkpt lat="39.790836796585296" lon="9.258884134260835"><ele>718.6</ele><time>2026-04-30T09:02:39.159Z</time></trkpt><trkpt lat="39.79077173535568" lon="9.258983399218666"><ele>718.4</ele><time>2026-04-30T09:02:40.159Z</time></trkpt><trkpt lat="39.7906788272117" lon="9.259033316973943"><ele>718.2</ele><time>2026-04-30T09:02:41.159Z</time></trkpt><trkpt lat="39.79058044251119" lon="9.259025399530236"><ele>718.0</ele><time>2026-04-30T09:02:42.159Z</time></trkpt><trkpt lat="39.79049146848726" lon="9.258944104667169"><ele>716.25</ele><time>2026-04-30T09:02:43.159Z</time></trkpt><trkpt lat="39.79042031088297" lon="9.258809414008585"><ele>714.5</ele><time>2026-04-30T09:02:44.159Z</time></trkpt><trkpt lat="39.79034678460629" lon="9.25865013476764"><ele>712.75</ele><time>2026-04-30T09:02:45.159Z</time></trkpt><trkpt lat="39.79023969242267" lon="9.258495252176688"><ele>711.0</ele><time>2026-04-30T09:02:46.159Z</time></trkpt><trkpt lat="39.790112071869984" lon="9.258362933081512"><ele>709.25</ele><time>2026-04-30T09:02:47.159Z</time></trkpt><trkpt lat="39.78999246158979" lon="9.258244800953975"><ele>707.5</ele><time>2026-04-30T09:02:48.159Z</time></trkpt><trkpt lat="39.789903116812965" lon="9.258126306197182"><ele>705.75</ele><time>2026-04-30T09:02:49.159Z</time></trkpt><trkpt lat="39.789858492531366" lon="9.25798307637579"><ele>704.0</ele><time>2026-04-30T09:02:50.159Z</time></trkpt><trkpt lat="39.78985586904281" lon="9.257813478909226"><ele>704.0</ele><time>2026-04-30T09:02:51.159Z</time></trkpt><trkpt lat="39.78987225491263" lon="9.25761383600978"><ele>704.0</ele><time>2026-04-30T09:02:52.159Z</time></trkpt><trkpt lat="39.7898829606961" lon="9.257413322924386"><ele>704.0</ele><time>2026-04-30T09:02:53.159Z</time></trkpt><trkpt lat="39.78987751419902" lon="9.257228243878126"><ele>703.0</ele><time>2026-04-30T09:02:54.159Z</time></trkpt><trkpt lat="39.789860688033144" lon="9.25705175914691"><ele>702.0</ele><time>2026-04-30T09:02:55.159Z</time></trkpt><trkpt lat="39.78983633435175" lon="9.25688441254359"><ele>701.0</ele><time>2026-04-30T09:02:56.159Z</time></trkpt><trkpt lat="39.789805820220984" lon="9.256734972437307"><ele>700.0</ele><time>2026-04-30T09:02:57.159Z</time></trkpt><trkpt lat="39.78975572330858" lon="9.25660415865238"><ele>700.0</ele><time>2026-04-30T09:02:58.159Z</time></trkpt><trkpt lat="39.78966012190336" lon="9.256477460568853"><ele>700.0</ele><time>2026-04-30T09:02:59.159Z</time></trkpt><trkpt lat="39.78951142379787" lon="9.25640585601376"><ele>700.0</ele><time>2026-04-30T09:03:00.159Z</time></trkpt><trkpt lat="39.7893390766728" lon="9.256390676558036"><ele>701.25</ele><time>2026-04-30T09:03:01.159Z</time></trkpt><trkpt lat="39.78918303117952" lon="9.256403244312757"><ele>702.5</ele><time>2026-04-30T09:03:02.159Z</time></trkpt><trkpt lat="39.789047024973705" lon="9.256423229406014"><ele>703.75</ele><time>2026-04-30T09:03:03.159Z</time></trkpt><trkpt lat="39.78891814994892" lon="9.256481724098377"><ele>705.0</ele><time>2026-04-30T09:03:04.159Z</time></trkpt><trkpt lat="39.78878936678625" lon="9.256530449394598"><ele>705.0</ele><time>2026-04-30T09:03:05.159Z</time></trkpt><trkpt lat="39.788652821503575" lon="9.256530958609874"><ele>705.0</ele><time>2026-04-30T09:03:06.159Z</time></trkpt><trkpt lat="39.78850434455442" lon="9.256490660296338"><ele>705.0</ele><time>2026-04-30T09:03:07.159Z</time></trkpt><trkpt lat="39.788350732425236" lon="9.256428427685815"><ele>705.0</ele><time>2026-04-30T09:03:08.159Z</time></trkpt><trkpt lat="39.78820439419994" lon="9.256359633354311"><ele>703.5</ele><time>2026-04-30T09:03:09.159Z</time></trkpt><trkpt lat="39.78806191714841" lon="9.256298758933823"><ele>702.0</ele><time>2026-04-30T09:03:10.159Z</time></trkpt><trkpt lat="39.78794591049295" lon="9.256251148619377"><ele>700.5</ele><time>2026-04-30T09:03:11.159Z</time></trkpt><trkpt lat="39.787848314627915" lon="9.256213097579518"><ele>699.0</ele><time>2026-04-30T09:03:12.159Z</time></trkpt><trkpt lat="39.78775563551306" lon="9.256170695727524"><ele>699.0</ele><time>2026-04-30T09:03:13.159Z</time></trkpt><trkpt lat="39.787671850125534" lon="9.256116447714275"><ele>699.0</ele><time>2026-04-30T09:03:14.159Z</time></trkpt><trkpt lat="39.78761394178982" lon="9.256075915570124"><ele>699.0</ele><time>2026-04-30T09:03:15.159Z</time></trkpt><trkpt lat="39.787503416176534" lon="9.256103015079857"><ele>699.0</ele><time>2026-04-30T09:03:17.159Z</time></trkpt><trkpt lat="39.78743213011784" lon="9.256178407238867"><ele>699.0</ele><time>2026-04-30T09:03:19.159Z</time></trkpt><trkpt lat="39.787374760527165" lon="9.256291498682213"><ele>699.0</ele><time>2026-04-30T09:03:21.159Z</time></trkpt><trkpt lat="39.78727946336315" lon="9.256340192255681"><ele>699.0</ele><time>2026-04-30T09:03:22.159Z</time></trkpt><trkpt lat="39.78713547764629" lon="9.256388509614561"><ele>699.0</ele><time>2026-04-30T09:03:23.159Z</time></trkpt><trkpt lat="39.78697096355853" lon="9.256443908770956"><ele>699.0</ele><time>2026-04-30T09:03:24.16Z</time></trkpt><trkpt lat="39.78682394933503" lon="9.256496581759187"><ele>699.75</ele><time>2026-04-30T09:03:25.16Z</time></trkpt><trkpt lat="39.786723614698786" lon="9.256560261665406"><ele>700.5</ele><time>2026-04-30T09:03:26.16Z</time></trkpt><trkpt lat="39.78667723673836" lon="9.256676282428192"><ele>701.25</ele><time>2026-04-30T09:03:27.16Z</time></trkpt><trkpt lat="39.78670367362995" lon="9.256809733640878"><ele>702.0</ele><time>2026-04-30T09:03:28.16Z</time></trkpt><trkpt lat="39.786812118760956" lon="9.256915135322535"><ele>697.0</ele><time>2026-04-30T09:03:29.16Z</time></trkpt><trkpt lat="39.78695315683062" lon="9.256927257500104"><ele>692.0</ele><time>2026-04-30T09:03:30.16Z</time></trkpt><trkpt lat="39.7871071814636" lon="9.256830861195128"><ele>687.0</ele><time>2026-04-30T09:03:31.16Z</time></trkpt><trkpt lat="39.78728471020507" lon="9.256690430405255"><ele>687.0</ele><time>2026-04-30T09:03:32.16Z</time></trkpt><trkpt lat="39.787471074304364" lon="9.256597509165308"><ele>687.0</ele><time>2026-04-30T09:03:33.16Z</time></trkpt><trkpt lat="39.787619192392306" lon="9.256556544874273"><ele>687.0</ele><time>2026-04-30T09:03:34.16Z</time></trkpt><trkpt lat="39.78775744256453" lon="9.256603057639413"><ele>689.6666666666666</ele><time>2026-04-30T09:03:35.16Z</time></trkpt><trkpt lat="39.78789416491907" lon="9.256733490236888"><ele>692.3333333333333</ele><time>2026-04-30T09:03:36.161Z</time></trkpt><trkpt lat="39.7880516203384" lon="9.256904280419324"><ele>695.0</ele><time>2026-04-30T09:03:37.16Z</time></trkpt><trkpt lat="39.78819428821638" lon="9.257044452872702"><ele>695.0</ele><time>2026-04-30T09:03:38.161Z</time></trkpt><trkpt lat="39.788275753145584" lon="9.257155702790342"><ele>695.0</ele><time>2026-04-30T09:03:39.161Z</time></trkpt><trkpt lat="39.78830192138031" lon="9.25731681175898"><ele>695.0</ele><time>2026-04-30T09:03:40.161Z</time></trkpt><trkpt lat="39.78828120526493" lon="9.257552344144026"><ele>695.0</ele><time>2026-04-30T09:03:41.161Z</time></trkpt><trkpt lat="39.78828189904879" lon="9.257816627522583"><ele>693.0</ele><time>2026-04-30T09:03:42.161Z</time></trkpt><trkpt lat="39.788308918053076" lon="9.258025591525348"><ele>691.0</ele><time>2026-04-30T09:03:43.161Z</time></trkpt><trkpt lat="39.78840090301042" lon="9.258168569194526"><ele>689.0</ele><time>2026-04-30T09:03:44.161Z</time></trkpt><trkpt lat="39.7885448536545" lon="9.258242490822166"><ele>689.0</ele><time>2026-04-30T09:03:45.161Z</time></trkpt><trkpt lat="39.78872404499703" lon="9.25828551744075"><ele>689.0</ele><time>2026-04-30T09:03:46.161Z</time></trkpt><trkpt lat="39.788870206674275" lon="9.258350074356631"><ele>689.0</ele><time>2026-04-30T09:03:47.161Z</time></trkpt><trkpt lat="39.78893365644431" lon="9.258419890212018"><ele>689.0</ele><time>2026-04-30T09:03:48.161Z</time></trkpt><trkpt lat="39.78892364926429" lon="9.258523611146755"><ele>689.0</ele><time>2026-04-30T09:03:49.161Z</time></trkpt><trkpt lat="39.78885524787404" lon="9.258612633415089"><ele>689.0</ele><time>2026-04-30T09:03:50.161Z</time></trkpt><trkpt lat="39.788745204203884" lon="9.258618169609878"><ele>689.0</ele><time>2026-04-30T09:03:51.161Z</time></trkpt><trkpt lat="39.78861757654386" lon="9.258548724459656"><ele>689.0</ele><time>2026-04-30T09:03:52.161Z</time></trkpt><trkpt lat="39.78845658373496" lon="9.258434010465214"><ele>686.3333333333333</ele><time>2026-04-30T09:03:53.161Z</time></trkpt><trkpt lat="39.78827580904137" lon="9.258291172212122"><ele>683.6666666666666</ele><time>2026-04-30T09:03:54.161Z</time></trkpt><trkpt lat="39.78811958000142" lon="9.258167517761343"><ele>681.0</ele><time>2026-04-30T09:03:55.161Z</time></trkpt><trkpt lat="39.7880288599087" lon="9.258030005549806"><ele>681.0</ele><time>2026-04-30T09:03:56.161Z</time></trkpt><trkpt lat="39.78796264759981" lon="9.25785056316729"><ele>681.0</ele><time>2026-04-30T09:03:57.161Z</time></trkpt><trkpt lat="39.78789239287761" lon="9.257647484540525"><ele>681.0</ele><time>2026-04-30T09:03:58.161Z</time></trkpt><trkpt lat="39.78780895823641" lon="9.257506310913902"><ele>681.0</ele><time>2026-04-30T09:03:59.161Z</time></trkpt><trkpt lat="39.7876916304889" lon="9.2574309150837"><ele>681.0</ele><time>2026-04-30T09:04:00.161Z</time></trkpt><trkpt lat="39.78753991452775" lon="9.25745926548046"><ele>681.0</ele><time>2026-04-30T09:04:01.161Z</time></trkpt><trkpt lat="39.78735612600113" lon="9.257581120077797"><ele>672.0</ele><time>2026-04-30T09:04:02.161Z</time></trkpt><trkpt lat="39.78714925733388" lon="9.257739219014221"><ele>663.0</ele><time>2026-04-30T09:04:03.161Z</time></trkpt><trkpt lat="39.78694863676192" lon="9.257842077046101"><ele>659.3333333333334</ele><time>2026-04-30T09:04:04.161Z</time></trkpt><trkpt lat="39.78681382783396" lon="9.25795706189149"><ele>655.6666666666667</ele><time>2026-04-30T09:04:05.161Z</time></trkpt><trkpt lat="39.786718188612454" lon="9.258115758021102"><ele>652.0</ele><time>2026-04-30T09:04:06.161Z</time></trkpt><trkpt lat="39.78666459362333" lon="9.258374311139836"><ele>652.0</ele><time>2026-04-30T09:04:07.161Z</time></trkpt><trkpt lat="39.78663035133037" lon="9.258623919365252"><ele>652.0</ele><time>2026-04-30T09:04:08.161Z</time></trkpt><trkpt lat="39.786563888463476" lon="9.258816392663224"><ele>652.0</ele><time>2026-04-30T09:04:09.161Z</time></trkpt><trkpt lat="39.786448136627875" lon="9.258949573301592"><ele>651.3333333333334</ele><time>2026-04-30T09:04:10.161Z</time></trkpt><trkpt lat="39.78630731988333" lon="9.259032085148172"><ele>650.6666666666666</ele><time>2026-04-30T09:04:11.161Z</time></trkpt><trkpt lat="39.78612603299927" lon="9.259059984340867"><ele>650.0</ele><time>2026-04-30T09:04:12.161Z</time></trkpt><trkpt lat="39.78597158728078" lon="9.25910914741956"><ele>650.0</ele><time>2026-04-30T09:04:13.161Z</time></trkpt><trkpt lat="39.78587943773532" lon="9.25927336953175"><ele>650.0</ele><time>2026-04-30T09:04:14.161Z</time></trkpt><trkpt lat="39.785808636370035" lon="9.259520527812894"><ele>650.0</ele><time>2026-04-30T09:04:15.161Z</time></trkpt><trkpt lat="39.785714071066145" lon="9.259756529904122"><ele>641.6666666666666</ele><time>2026-04-30T09:04:16.161Z</time></trkpt><trkpt lat="39.78557638512103" lon="9.259897046142077"><ele>633.3333333333334</ele><time>2026-04-30T09:04:17.161Z</time></trkpt><trkpt lat="39.785442152266924" lon="9.26000021354645"><ele>625.0</ele><time>2026-04-30T09:04:18.161Z</time></trkpt><trkpt lat="39.78535988505168" lon="9.260170409664088"><ele>625.0</ele><time>2026-04-30T09:04:19.161Z</time></trkpt><trkpt lat="39.78533985245122" lon="9.260433986526436"><ele>625.0</ele><time>2026-04-30T09:04:20.161Z</time></trkpt><trkpt lat="39.785349265732364" lon="9.260763380001102"><ele>617.0</ele><time>2026-04-30T09:04:21.161Z</time></trkpt><trkpt lat="39.78535833815643" lon="9.26113753748142"><ele>609.0</ele><time>2026-04-30T09:04:22.161Z</time></trkpt><trkpt lat="39.78534782319745" lon="9.261477895325605"><ele>608.3333333333334</ele><time>2026-04-30T09:04:23.161Z</time></trkpt><trkpt lat="39.78533496899584" lon="9.261747803972241"><ele>607.6666666666667</ele><time>2026-04-30T09:04:24.161Z</time></trkpt><trkpt lat="39.78532816473573" lon="9.26195195867054"><ele>607.0</ele><time>2026-04-30T09:04:25.161Z</time></trkpt><trkpt lat="39.78533026742595" lon="9.262126879945727"><ele>607.0</ele><time>2026-04-30T09:04:26.161Z</time></trkpt><trkpt lat="39.785356766285524" lon="9.262256500849029"><ele>607.0</ele><time>2026-04-30T09:04:27.161Z</time></trkpt><trkpt lat="39.78543672771242" lon="9.262327884356058"><ele>607.0</ele><time>2026-04-30T09:04:28.161Z</time></trkpt><trkpt lat="39.78555412683757" lon="9.262307788713867"><ele>607.0</ele><time>2026-04-30T09:04:29.161Z</time></trkpt><trkpt lat="39.7856517400036" lon="9.262188658765538"><ele>607.0</ele><time>2026-04-30T09:04:30.161Z</time></trkpt><trkpt lat="39.785673778561666" lon="9.262011387123637"><ele>607.0</ele><time>2026-04-30T09:04:31.161Z</time></trkpt><trkpt lat="39.78562648382574" lon="9.261820269115423"><ele>607.0</ele><time>2026-04-30T09:04:32.161Z</time></trkpt><trkpt lat="39.785578661438066" lon="9.261602394668127"><ele>607.6666666666667</ele><time>2026-04-30T09:04:33.161Z</time></trkpt><trkpt lat="39.785585571450795" lon="9.261341215202531"><ele>608.3333333333334</ele><time>2026-04-30T09:04:34.161Z</time></trkpt><trkpt lat="39.78564230551491" lon="9.261030419298866"><ele>609.0</ele><time>2026-04-30T09:04:35.161Z</time></trkpt><trkpt lat="39.78569383081012" lon="9.26071035033843"><ele>614.3333333333334</ele><time>2026-04-30T09:04:36.161Z</time></trkpt><trkpt lat="39.785736696431805" lon="9.260472073947497"><ele>619.6666666666667</ele><time>2026-04-30T09:04:37.161Z</time></trkpt><trkpt lat="39.78578992169299" lon="9.260289629960328"><ele>625.0</ele><time>2026-04-30T09:04:38.161Z</time></trkpt><trkpt lat="39.785900653981585" lon="9.260167279350599"><ele>624.6666666666667</ele><time>2026-04-30T09:04:39.161Z</time></trkpt><trkpt lat="39.786065319689676" lon="9.260047317839014"><ele>624.3333333333334</ele><time>2026-04-30T09:04:40.161Z</time></trkpt><trkpt lat="39.786218751850775" lon="9.259875476690612"><ele>624.0</ele><time>2026-04-30T09:04:41.161Z</time></trkpt><trkpt lat="39.786339996826385" lon="9.259720369357282"><ele>624.0</ele><time>2026-04-30T09:04:42.161Z</time></trkpt><trkpt lat="39.78645969676811" lon="9.259665636273866"><ele>624.0</ele><time>2026-04-30T09:04:43.161Z</time></trkpt><trkpt lat="39.78660960212852" lon="9.259680127280157"><ele>624.0</ele><time>2026-04-30T09:04:44.161Z</time></trkpt><trkpt lat="39.78676321006971" lon="9.259642306314218"><ele>624.0</ele><time>2026-04-30T09:04:45.161Z</time></trkpt><trkpt lat="39.78692705098043" lon="9.259509623182394"><ele>620.0</ele><time>2026-04-30T09:04:46.161Z</time></trkpt><trkpt lat="39.787085841756436" lon="9.259318216635407"><ele>616.0</ele><time>2026-04-30T09:04:47.161Z</time></trkpt><trkpt lat="39.78719610695251" lon="9.259154657434749"><ele>612.0</ele><time>2026-04-30T09:04:48.161Z</time></trkpt><trkpt lat="39.78730147083539" lon="9.259069336255436"><ele>612.0</ele><time>2026-04-30T09:04:49.161Z</time></trkpt><trkpt lat="39.7873911320579" lon="9.259090285663582"><ele>612.0</ele><time>2026-04-30T09:04:50.161Z</time></trkpt><trkpt lat="39.78748080800985" lon="9.259172125507888"><ele>612.0</ele><time>2026-04-30T09:04:51.161Z</time></trkpt><trkpt lat="39.78752149150411" lon="9.259321781340882"><ele>612.0</ele><time>2026-04-30T09:04:52.161Z</time></trkpt><trkpt lat="39.7875342937034" lon="9.259502032602098"><ele>612.0</ele><time>2026-04-30T09:04:53.161Z</time></trkpt><trkpt lat="39.78754477246652" lon="9.259697516239573"><ele>612.0</ele><time>2026-04-30T09:04:54.161Z</time></trkpt><trkpt lat="39.787619935574575" lon="9.259854098713953"><ele>612.0</ele><time>2026-04-30T09:04:55.161Z</time></trkpt><trkpt lat="39.78772672140613" lon="9.259941917457967"><ele>612.0</ele><time>2026-04-30T09:04:56.161Z</time></trkpt><trkpt lat="39.78785030616914" lon="9.260001764855858"><ele>612.5</ele><time>2026-04-30T09:04:57.161Z</time></trkpt><trkpt lat="39.78791151793066" lon="9.26011699507385"><ele>613.0</ele><time>2026-04-30T09:04:58.161Z</time></trkpt><trkpt lat="39.78788629069981" lon="9.26028343183733"><ele>613.5</ele><time>2026-04-30T09:04:59.161Z</time></trkpt><trkpt lat="39.78784935721525" lon="9.260465696962184"><ele>614.0</ele><time>2026-04-30T09:05:00.161Z</time></trkpt><trkpt lat="39.78787868441347" lon="9.260633918064393"><ele>607.75</ele><time>2026-04-30T09:05:01.161Z</time></trkpt><trkpt lat="39.787963319320745" lon="9.260736257157411"><ele>601.5</ele><time>2026-04-30T09:05:02.161Z</time></trkpt><trkpt lat="39.78811051322814" lon="9.26076819998277"><ele>595.25</ele><time>2026-04-30T09:05:03.161Z</time></trkpt><trkpt lat="39.78826758672779" lon="9.260777129979065"><ele>589.0</ele><time>2026-04-30T09:05:04.161Z</time></trkpt><trkpt lat="39.788391337773525" lon="9.260858656668411"><ele>589.0</ele><time>2026-04-30T09:05:05.161Z</time></trkpt><trkpt lat="39.78849255201783" lon="9.261010138740085"><ele>589.0</ele><time>2026-04-30T09:05:06.161Z</time></trkpt><trkpt lat="39.78852898585997" lon="9.261145310193108"><ele>589.0</ele><time>2026-04-30T09:05:07.161Z</time></trkpt><trkpt lat="39.7884921570066" lon="9.261249134383718"><ele>589.0</ele><time>2026-04-30T09:05:08.161Z</time></trkpt><trkpt lat="39.78840676202782" lon="9.261301785949351"><ele>589.0</ele><time>2026-04-30T09:05:09.161Z</time></trkpt><trkpt lat="39.78831505146256" lon="9.261249316825706"><ele>589.0</ele><time>2026-04-30T09:05:10.161Z</time></trkpt><trkpt lat="39.7882586005869" lon="9.261120842548996"><ele>589.0</ele><time>2026-04-30T09:05:11.161Z</time></trkpt><trkpt lat="39.788198746314556" lon="9.261000494786044"><ele>589.0</ele><time>2026-04-30T09:05:12.161Z</time></trkpt><trkpt lat="39.7881052423014" lon="9.260938487248433"><ele>589.0</ele><time>2026-04-30T09:05:13.161Z</time></trkpt><trkpt lat="39.787983682456336" lon="9.260970448363041"><ele>589.0</ele><time>2026-04-30T09:05:14.161Z</time></trkpt><trkpt lat="39.78783981120838" lon="9.261032248892333"><ele>589.0</ele><time>2026-04-30T09:05:15.161Z</time></trkpt><trkpt lat="39.78771158186311" lon="9.261052755772484"><ele>589.0</ele><time>2026-04-30T09:05:16.161Z</time></trkpt><trkpt lat="39.78759603124676" lon="9.261002767627735"><ele>589.0</ele><time>2026-04-30T09:05:17.161Z</time></trkpt><trkpt lat="39.78751851099761" lon="9.260871987867178"><ele>588.5</ele><time>2026-04-30T09:05:18.161Z</time></trkpt><trkpt lat="39.787466091704225" lon="9.260688386638549"><ele>588.0</ele><time>2026-04-30T09:05:19.161Z</time></trkpt><trkpt lat="39.78741877640742" lon="9.260513085081008"><ele>587.5</ele><time>2026-04-30T09:05:20.161Z</time></trkpt><trkpt lat="39.78733865318928" lon="9.2604101031204"><ele>587.0</ele><time>2026-04-30T09:05:21.161Z</time></trkpt><trkpt lat="39.78724855539187" lon="9.260378097329335"><ele>587.0</ele><time>2026-04-30T09:05:22.161Z</time></trkpt><trkpt lat="39.78713395173418" lon="9.26048504926531"><ele>587.0</ele><time>2026-04-30T09:05:23.161Z</time></trkpt><trkpt lat="39.78705654738269" lon="9.260669333347307"><ele>587.0</ele><time>2026-04-30T09:05:24.161Z</time></trkpt><trkpt lat="39.786971064198994" lon="9.260889975011677"><ele>581.6666666666666</ele><time>2026-04-30T09:05:25.161Z</time></trkpt><trkpt lat="39.78687009570221" lon="9.261107790233117"><ele>576.3333333333334</ele><time>2026-04-30T09:05:26.161Z</time></trkpt><trkpt lat="39.78681734987828" lon="9.261294583155136"><ele>571.0</ele><time>2026-04-30T09:05:27.161Z</time></trkpt><trkpt lat="39.78682780767019" lon="9.261501622548206"><ele>562.6666666666667</ele><time>2026-04-30T09:05:28.161Z</time></trkpt><trkpt lat="39.78686416507996" lon="9.261747044874644"><ele>554.3333333333334</ele><time>2026-04-30T09:05:29.161Z</time></trkpt><trkpt lat="39.786879136116646" lon="9.262037958891339"><ele>546.0</ele><time>2026-04-30T09:05:30.163Z</time></trkpt><trkpt lat="39.78687465105164" lon="9.26236008454201"><ele>550.0</ele><time>2026-04-30T09:05:31.162Z</time></trkpt><trkpt lat="39.786861069843496" lon="9.262620913439132"><ele>554.0</ele><time>2026-04-30T09:05:32.162Z</time></trkpt><trkpt lat="39.786818619097126" lon="9.262859331928864"><ele>558.0</ele><time>2026-04-30T09:05:33.162Z</time></trkpt><trkpt lat="39.78676676770827" lon="9.26307880557148"><ele>554.0</ele><time>2026-04-30T09:05:34.162Z</time></trkpt><trkpt lat="39.78670907954557" lon="9.263280287566936"><ele>550.0</ele><time>2026-04-30T09:05:35.162Z</time></trkpt><trkpt lat="39.78667159866359" lon="9.263474489273515"><ele>546.0</ele><time>2026-04-30T09:05:36.162Z</time></trkpt><trkpt lat="39.786646463383036" lon="9.263678608492"><ele>546.0</ele><time>2026-04-30T09:05:37.162Z</time></trkpt><trkpt lat="39.78661552973868" lon="9.263886349026114"><ele>546.0</ele><time>2026-04-30T09:05:38.162Z</time></trkpt><trkpt lat="39.78656158771688" lon="9.264080073054423"><ele>546.0</ele><time>2026-04-30T09:05:39.163Z</time></trkpt><trkpt lat="39.78645963818285" lon="9.264243742799659"><ele>539.0</ele><time>2026-04-30T09:05:40.163Z</time></trkpt><trkpt lat="39.786323882526005" lon="9.26443520932111"><ele>532.0</ele><time>2026-04-30T09:05:41.163Z</time></trkpt><trkpt lat="39.786197270739336" lon="9.264660509148804"><ele>525.0</ele><time>2026-04-30T09:05:42.162Z</time></trkpt><trkpt lat="39.78608935650712" lon="9.264941120109066"><ele>535.5</ele><time>2026-04-30T09:05:43.163Z</time></trkpt><trkpt lat="39.78599117014242" lon="9.265233431967554"><ele>546.0</ele><time>2026-04-30T09:05:44.163Z</time></trkpt><trkpt lat="39.78591031134162" lon="9.265484263784794"><ele>535.6666666666666</ele><time>2026-04-30T09:05:45.163Z</time></trkpt><trkpt lat="39.785835824698424" lon="9.265676706838095"><ele>525.3333333333333</ele><time>2026-04-30T09:05:46.163Z</time></trkpt><trkpt lat="39.78571402098708" lon="9.265824187726471"><ele>515.0</ele><time>2026-04-30T09:05:47.163Z</time></trkpt><trkpt lat="39.785572257756144" lon="9.26594843615871"><ele>515.0</ele><time>2026-04-30T09:05:48.163Z</time></trkpt><trkpt lat="39.78545788888278" lon="9.266060264486029"><ele>515.0</ele><time>2026-04-30T09:05:49.163Z</time></trkpt><trkpt lat="39.785403439406366" lon="9.266175594825953"><ele>515.0</ele><time>2026-04-30T09:05:50.163Z</time></trkpt><trkpt lat="39.78541791323467" lon="9.26628465914287"><ele>515.0</ele><time>2026-04-30T09:05:51.163Z</time></trkpt><trkpt lat="39.78548817398057" lon="9.266352422425852"><ele>515.0</ele><time>2026-04-30T09:05:52.163Z</time></trkpt><trkpt lat="39.78558707772614" lon="9.266332502991139"><ele>515.0</ele><time>2026-04-30T09:05:53.163Z</time></trkpt><trkpt lat="39.78568868583688" lon="9.266223478385811"><ele>515.0</ele><time>2026-04-30T09:05:54.163Z</time></trkpt><trkpt lat="39.785798100675926" lon="9.26603071126092"><ele>515.0</ele><time>2026-04-30T09:05:55.163Z</time></trkpt><trkpt lat="39.78593154803284" lon="9.265789296380131"><ele>507.5</ele><time>2026-04-30T09:05:56.163Z</time></trkpt><trkpt lat="39.78609490614868" lon="9.265528471468397"><ele>500.0</ele><time>2026-04-30T09:05:57.163Z</time></trkpt><trkpt lat="39.78624530724437" lon="9.26528350968486"><ele>500.0</ele><time>2026-04-30T09:05:58.163Z</time></trkpt><trkpt lat="39.786382822889536" lon="9.265073174969263"><ele>500.0</ele><time>2026-04-30T09:05:59.163Z</time></trkpt><trkpt lat="39.78653878398779" lon="9.264886099668646"><ele>500.0</ele><time>2026-04-30T09:06:00.163Z</time></trkpt><trkpt lat="39.78671198153067" lon="9.264723111750344"><ele>501.0</ele><time>2026-04-30T09:06:01.163Z</time></trkpt><trkpt lat="39.786898744429976" lon="9.264580299288438"><ele>502.0</ele><time>2026-04-30T09:06:02.163Z</time></trkpt><trkpt lat="39.78705844670887" lon="9.264434254584053"><ele>503.0</ele><time>2026-04-30T09:06:03.163Z</time></trkpt><trkpt lat="39.78718575080304" lon="9.264268946461334"><ele>503.0</ele><time>2026-04-30T09:06:04.163Z</time></trkpt><trkpt lat="39.78728531372659" lon="9.26407499374841"><ele>503.0</ele><time>2026-04-30T09:06:05.163Z</time></trkpt><trkpt lat="39.787371376855326" lon="9.26390185151965"><ele>503.0</ele><time>2026-04-30T09:06:06.163Z</time></trkpt><trkpt lat="39.78745588125823" lon="9.263787675728732"><ele>503.0</ele><time>2026-04-30T09:06:07.163Z</time></trkpt><trkpt lat="39.787545289234686" lon="9.263766571219112"><ele>503.0</ele><time>2026-04-30T09:06:08.163Z</time></trkpt><trkpt lat="39.787645260410386" lon="9.263856063004717"><ele>503.0</ele><time>2026-04-30T09:06:09.163Z</time></trkpt><trkpt lat="39.78769104342608" lon="9.26399329743534"><ele>503.0</ele><time>2026-04-30T09:06:10.163Z</time></trkpt><trkpt lat="39.78767394602953" lon="9.264176171768785"><ele>503.0</ele><time>2026-04-30T09:06:11.163Z</time></trkpt><trkpt lat="39.78763335362586" lon="9.26440134320158"><ele>503.0</ele><time>2026-04-30T09:06:12.163Z</time></trkpt><trkpt lat="39.787593530276986" lon="9.264642654266583"><ele>503.0</ele><time>2026-04-30T09:06:13.163Z</time></trkpt><trkpt lat="39.787534666055315" lon="9.26485675563043"><ele>499.25</ele><time>2026-04-30T09:06:14.163Z</time></trkpt><trkpt lat="39.78744095307044" lon="9.265025560315179"><ele>495.5</ele><time>2026-04-30T09:06:15.163Z</time></trkpt><trkpt lat="39.78738939005437" lon="9.265174079915232"><ele>491.75</ele><time>2026-04-30T09:06:16.163Z</time></trkpt><trkpt lat="39.78738897051681" lon="9.265320433509665"><ele>488.0</ele><time>2026-04-30T09:06:17.163Z</time></trkpt><trkpt lat="39.78747227868229" lon="9.265430509588255"><ele>488.0</ele><time>2026-04-30T09:06:18.163Z</time></trkpt><trkpt lat="39.787593786183265" lon="9.265487781771844"><ele>488.0</ele><time>2026-04-30T09:06:19.163Z</time></trkpt><trkpt lat="39.78771558939989" lon="9.265534946921786"><ele>488.0</ele><time>2026-04-30T09:06:20.163Z</time></trkpt><trkpt lat="39.78779708658851" lon="9.265643881247627"><ele>488.0</ele><time>2026-04-30T09:06:21.163Z</time></trkpt><trkpt lat="39.78778879083219" lon="9.265785923329585"><ele>485.3333333333333</ele><time>2026-04-30T09:06:22.163Z</time></trkpt><trkpt lat="39.78770253643903" lon="9.265914250758623"><ele>482.66666666666663</ele><time>2026-04-30T09:06:23.163Z</time></trkpt><trkpt lat="39.78755845451128" lon="9.265971115309075"><ele>480.0</ele><time>2026-04-30T09:06:24.163Z</time></trkpt><trkpt lat="39.78739223971867" lon="9.266026711828417"><ele>480.0</ele><time>2026-04-30T09:06:25.163Z</time></trkpt><trkpt lat="39.78725112055305" lon="9.266100294944007"><ele>480.0</ele><time>2026-04-30T09:06:26.163Z</time></trkpt><trkpt lat="39.78714323125115" lon="9.266208769229435"><ele>480.0</ele><time>2026-04-30T09:06:27.163Z</time></trkpt><trkpt lat="39.78709778447275" lon="9.266366377803736"><ele>480.0</ele><time>2026-04-30T09:06:28.163Z</time></trkpt><trkpt lat="39.787109537826666" lon="9.266543271812298"><ele>479.0</ele><time>2026-04-30T09:06:29.163Z</time></trkpt><trkpt lat="39.78719218974232" lon="9.26667327786477"><ele>478.0</ele><time>2026-04-30T09:06:30.163Z</time></trkpt><trkpt lat="39.78732187115146" lon="9.266755663395053"><ele>477.0</ele><time>2026-04-30T09:06:31.163Z</time></trkpt><trkpt lat="39.78748613886392" lon="9.266801679348449"><ele>476.0</ele><time>2026-04-30T09:06:32.163Z</time></trkpt><trkpt lat="39.78765844231642" lon="9.266897072593858"><ele>487.0</ele><time>2026-04-30T09:06:33.163Z</time></trkpt><trkpt lat="39.78776413175124" lon="9.267057124956676"><ele>498.0</ele><time>2026-04-30T09:06:34.163Z</time></trkpt><trkpt lat="39.78784459292179" lon="9.267286288542941"><ele>509.0</ele><time>2026-04-30T09:06:35.163Z</time></trkpt><trkpt lat="39.78790822195391" lon="9.267549577402574"><ele>509.0</ele><time>2026-04-30T09:06:36.163Z</time></trkpt><trkpt lat="39.787929466874324" lon="9.267793092471823"><ele>509.0</ele><time>2026-04-30T09:06:37.163Z</time></trkpt><trkpt lat="39.78792123508533" lon="9.268041876195722"><ele>509.0</ele><time>2026-04-30T09:06:38.163Z</time></trkpt><trkpt lat="39.787891158944305" lon="9.268281415749733"><ele>505.66666666666663</ele><time>2026-04-30T09:06:39.163Z</time></trkpt><trkpt lat="39.78781758490614" lon="9.268509534030704"><ele>502.33333333333337</ele><time>2026-04-30T09:06:40.163Z</time></trkpt><trkpt lat="39.78771742334605" lon="9.268712809236973"><ele>499.0</ele><time>2026-04-30T09:06:41.163Z</time></trkpt><trkpt lat="39.78760175378213" lon="9.268877042863377"><ele>487.0</ele><time>2026-04-30T09:06:42.163Z</time></trkpt><trkpt lat="39.78744899922005" lon="9.269001332718418"><ele>475.0</ele><time>2026-04-30T09:06:43.163Z</time></trkpt><trkpt lat="39.78728622645213" lon="9.269129482343589"><ele>463.0</ele><time>2026-04-30T09:06:44.163Z</time></trkpt><trkpt lat="39.787104469931556" lon="9.26927070463037"><ele>463.0</ele><time>2026-04-30T09:06:45.163Z</time></trkpt><trkpt lat="39.78692538450822" lon="9.269422206591198"><ele>463.0</ele><time>2026-04-30T09:06:46.163Z</time></trkpt><trkpt lat="39.78677763837917" lon="9.269555047999857"><ele>463.0</ele><time>2026-04-30T09:06:47.163Z</time></trkpt><trkpt lat="39.78666300330425" lon="9.269646357160088"><ele>461.59999999999997</ele><time>2026-04-30T09:06:48.163Z</time></trkpt><trkpt lat="39.786550382347656" lon="9.269678346968712"><ele>460.19999999999993</ele><time>2026-04-30T09:06:49.163Z</time></trkpt><trkpt lat="39.78647179694693" lon="9.26963889250194"><ele>458.8</ele><time>2026-04-30T09:06:50.163Z</time></trkpt><trkpt lat="39.78641608686678" lon="9.269524972250382"><ele>457.4</ele><time>2026-04-30T09:06:51.163Z</time></trkpt><trkpt lat="39.786365558881926" lon="9.269386376825318"><ele>456.0</ele><time>2026-04-30T09:06:52.163Z</time></trkpt><trkpt lat="39.78629188096667" lon="9.269292674679287"><ele>456.0</ele><time>2026-04-30T09:06:53.163Z</time></trkpt><trkpt lat="39.786201235230436" lon="9.269278457748943"><ele>456.0</ele><time>2026-04-30T09:06:54.163Z</time></trkpt><trkpt lat="39.78611025373101" lon="9.26933976439988"><ele>456.0</ele><time>2026-04-30T09:06:55.163Z</time></trkpt><trkpt lat="39.786064011592714" lon="9.269458375522266"><ele>456.0</ele><time>2026-04-30T09:06:56.163Z</time></trkpt><trkpt lat="39.78607407445527" lon="9.269613839109848"><ele>456.0</ele><time>2026-04-30T09:06:57.163Z</time></trkpt><trkpt lat="39.78613901055006" lon="9.269764743833118"><ele>458.66666666666663</ele><time>2026-04-30T09:06:58.163Z</time></trkpt><trkpt lat="39.78626213060176" lon="9.269927825263453"><ele>461.3333333333333</ele><time>2026-04-30T09:06:59.163Z</time></trkpt><trkpt lat="39.78640998042442" lon="9.270135781116661"><ele>464.0</ele><time>2026-04-30T09:07:00.163Z</time></trkpt><trkpt lat="39.78655392156916" lon="9.270381417940616"><ele>464.5</ele><time>2026-04-30T09:07:01.163Z</time></trkpt><trkpt lat="39.78669329571567" lon="9.270653596092547"><ele>465.0</ele><time>2026-04-30T09:07:02.163Z</time></trkpt><trkpt lat="39.78685354056966" lon="9.270921571425882"><ele>465.0</ele><time>2026-04-30T09:07:03.164Z</time></trkpt><trkpt lat="39.787050888420524" lon="9.271185913149148"><ele>465.0</ele><time>2026-04-30T09:07:04.164Z</time></trkpt><trkpt lat="39.787238429733634" lon="9.271441224751873"><ele>470.66666666666663</ele><time>2026-04-30T09:07:05.164Z</time></trkpt><trkpt lat="39.78737921726699" lon="9.271659565158297"><ele>476.3333333333333</ele><time>2026-04-30T09:07:06.164Z</time></trkpt><trkpt lat="39.78747637949354" lon="9.271858572390684"><ele>482.0</ele><time>2026-04-30T09:07:07.164Z</time></trkpt><trkpt lat="39.7875297339291" lon="9.272027212410656"><ele>482.0</ele><time>2026-04-30T09:07:08.164Z</time></trkpt><trkpt lat="39.78753448668116" lon="9.272211772450476"><ele>482.0</ele><time>2026-04-30T09:07:09.164Z</time></trkpt><trkpt lat="39.787487117057175" lon="9.272399705454113"><ele>482.0</ele><time>2026-04-30T09:07:10.164Z</time></trkpt><trkpt lat="39.78739662685243" lon="9.272598947911376"><ele>484.75</ele><time>2026-04-30T09:07:11.164Z</time></trkpt><trkpt lat="39.787310688075536" lon="9.272800962262444"><ele>487.5</ele><time>2026-04-30T09:07:12.164Z</time></trkpt><trkpt lat="39.78725462888507" lon="9.272951431004813"><ele>490.25</ele><time>2026-04-30T09:07:13.164Z</time></trkpt><trkpt lat="39.78725368690437" lon="9.273090619943215"><ele>493.0</ele><time>2026-04-30T09:07:14.164Z</time></trkpt><trkpt lat="39.78731626261163" lon="9.273221309288346"><ele>496.6666666666667</ele><time>2026-04-30T09:07:15.164Z</time></trkpt><trkpt lat="39.787421509988754" lon="9.273323858501495"><ele>500.33333333333337</ele><time>2026-04-30T09:07:16.164Z</time></trkpt><trkpt lat="39.787551900072074" lon="9.273448492183029"><ele>504.0</ele><time>2026-04-30T09:07:17.164Z</time></trkpt><trkpt lat="39.78768917668586" lon="9.2736367096203"><ele>501.0</ele><time>2026-04-30T09:07:18.164Z</time></trkpt><trkpt lat="39.787799028041" lon="9.273867792145914"><ele>498.0</ele><time>2026-04-30T09:07:19.164Z</time></trkpt><trkpt lat="39.78789601745604" lon="9.274141477380594"><ele>495.0</ele><time>2026-04-30T09:07:20.164Z</time></trkpt><trkpt lat="39.78802323079984" lon="9.27440343681007"><ele>495.0</ele><time>2026-04-30T09:07:21.164Z</time></trkpt><trkpt lat="39.7881835722007" lon="9.2746732334422"><ele>495.0</ele><time>2026-04-30T09:07:22.164Z</time></trkpt><trkpt lat="39.78834492885452" lon="9.274923337696634"><ele>490.0</ele><time>2026-04-30T09:07:23.164Z</time></trkpt><trkpt lat="39.78847316005109" lon="9.275136301173065"><ele>485.0</ele><time>2026-04-30T09:07:24.164Z</time></trkpt><trkpt lat="39.78857120962011" lon="9.275312421603886"><ele>480.0</ele><time>2026-04-30T09:07:25.164Z</time></trkpt><trkpt lat="39.788625331061255" lon="9.275483476428994"><ele>485.75</ele><time>2026-04-30T09:07:26.164Z</time></trkpt><trkpt lat="39.78861434582241" lon="9.275654434185748"><ele>491.5</ele><time>2026-04-30T09:07:27.164Z</time></trkpt><trkpt lat="39.78856019646872" lon="9.275823915839604"><ele>497.25</ele><time>2026-04-30T09:07:28.164Z</time></trkpt><trkpt lat="39.788485318599044" lon="9.276000069881587"><ele>503.0</ele><time>2026-04-30T09:07:29.164Z</time></trkpt><trkpt lat="39.788458810631184" lon="9.276155230678208"><ele>503.0</ele><time>2026-04-30T09:07:30.164Z</time></trkpt><trkpt lat="39.78849135926302" lon="9.276297839624295"><ele>503.0</ele><time>2026-04-30T09:07:31.164Z</time></trkpt><trkpt lat="39.78855627817412" lon="9.276420670098705"><ele>503.0</ele><time>2026-04-30T09:07:32.164Z</time></trkpt><trkpt lat="39.78866016007581" lon="9.276540693878907"><ele>503.0</ele><time>2026-04-30T09:07:33.164Z</time></trkpt><trkpt lat="39.78878113213579" lon="9.276562810633926"><ele>512.0</ele><time>2026-04-30T09:07:34.164Z</time></trkpt><trkpt lat="39.788898963516694" lon="9.276532362259875"><ele>521.0</ele><time>2026-04-30T09:07:35.164Z</time></trkpt><trkpt lat="39.78903537953446" lon="9.276473436239328"><ele>530.0</ele><time>2026-04-30T09:07:36.164Z</time></trkpt><trkpt lat="39.789186619934796" lon="9.276455866613867"><ele>539.0</ele><time>2026-04-30T09:07:37.164Z</time></trkpt><trkpt lat="39.789309330252074" lon="9.276520146839054"><ele>530.0</ele><time>2026-04-30T09:07:38.164Z</time></trkpt><trkpt lat="39.78941485652525" lon="9.276644969227304"><ele>521.0</ele><time>2026-04-30T09:07:39.165Z</time></trkpt><trkpt lat="39.78948102398701" lon="9.27682975389152"><ele>512.0</ele><time>2026-04-30T09:07:40.164Z</time></trkpt><trkpt lat="39.78953678717638" lon="9.277030301723698"><ele>512.0</ele><time>2026-04-30T09:07:41.164Z</time></trkpt><trkpt lat="39.78962954493701" lon="9.277226701208148"><ele>512.0</ele><time>2026-04-30T09:07:42.165Z</time></trkpt><trkpt lat="39.78975390911314" lon="9.277420793791784"><ele>512.0</ele><time>2026-04-30T09:07:43.165Z</time></trkpt><trkpt lat="39.789897517933234" lon="9.277637732317238"><ele>520.6666666666666</ele><time>2026-04-30T09:07:44.165Z</time></trkpt><trkpt lat="39.79003025673506" lon="9.277858395575944"><ele>529.3333333333334</ele><time>2026-04-30T09:07:45.164Z</time></trkpt><trkpt lat="39.7901204440378" lon="9.278046465150302"><ele>538.0</ele><time>2026-04-30T09:07:46.164Z</time></trkpt><trkpt lat="39.79014920798114" lon="9.278226965551905"><ele>541.25</ele><time>2026-04-30T09:07:47.164Z</time></trkpt><trkpt lat="39.79010715179939" lon="9.278393181788738"><ele>544.5</ele><time>2026-04-30T09:07:48.165Z</time></trkpt><trkpt lat="39.79002610477524" lon="9.2785471038408"><ele>547.75</ele><time>2026-04-30T09:07:49.165Z</time></trkpt><trkpt lat="39.789892905974824" lon="9.278662587071892"><ele>551.0</ele><time>2026-04-30T09:07:50.165Z</time></trkpt><trkpt lat="39.78968754877746" lon="9.278712727911628"><ele>551.0</ele><time>2026-04-30T09:07:51.165Z</time></trkpt><trkpt lat="39.78953520195765" lon="9.278793123905478"><ele>551.0</ele><time>2026-04-30T09:07:52.165Z</time></trkpt><trkpt lat="39.78944609028625" lon="9.27896024095677"><ele>551.0</ele><time>2026-04-30T09:07:53.165Z</time></trkpt><trkpt lat="39.78937728605623" lon="9.2791867446312"><ele>555.0</ele><time>2026-04-30T09:07:54.165Z</time></trkpt><trkpt lat="39.789288814704626" lon="9.279407600288767"><ele>559.0</ele><time>2026-04-30T09:07:55.165Z</time></trkpt><trkpt lat="39.7891824011118" lon="9.279580724436144"><ele>563.0</ele><time>2026-04-30T09:07:56.165Z</time></trkpt><trkpt lat="39.789064936745326" lon="9.279668522752472"><ele>563.0</ele><time>2026-04-30T09:07:57.165Z</time></trkpt><trkpt lat="39.788914507714516" lon="9.279729906079963"><ele>563.0</ele><time>2026-04-30T09:07:58.165Z</time></trkpt><trkpt lat="39.78873207951643" lon="9.279778925673403"><ele>563.0</ele><time>2026-04-30T09:07:59.165Z</time></trkpt><trkpt lat="39.78855381355666" lon="9.279867549509012"><ele>566.0</ele><time>2026-04-30T09:08:00.165Z</time></trkpt><trkpt lat="39.78839159384546" lon="9.28000611105276"><ele>569.0</ele><time>2026-04-30T09:08:01.165Z</time></trkpt><trkpt lat="39.78822274287021" lon="9.280190083051572"><ele>572.0</ele><time>2026-04-30T09:08:02.165Z</time></trkpt><trkpt lat="39.78802269081394" lon="9.280386539518059"><ele>572.0</ele><time>2026-04-30T09:08:03.165Z</time></trkpt><trkpt lat="39.787850518327204" lon="9.280501979644395"><ele>572.0</ele><time>2026-04-30T09:08:04.165Z</time></trkpt><trkpt lat="39.78767128293625" lon="9.280563419680893"><ele>572.0</ele><time>2026-04-30T09:08:05.165Z</time></trkpt><trkpt lat="39.78749715206408" lon="9.280650339315988"><ele>572.0</ele><time>2026-04-30T09:08:06.165Z</time></trkpt><trkpt lat="39.78736555844807" lon="9.280713983522883"><ele>572.0</ele><time>2026-04-30T09:08:07.165Z</time></trkpt><trkpt lat="39.78725590198312" lon="9.280722608009066"><ele>572.0</ele><time>2026-04-30T09:08:08.165Z</time></trkpt><trkpt lat="39.78717966031227" lon="9.28063937374618"><ele>572.0</ele><time>2026-04-30T09:08:09.165Z</time></trkpt><trkpt lat="39.787156964204705" lon="9.280512427947603"><ele>576.5</ele><time>2026-04-30T09:08:10.165Z</time></trkpt><trkpt lat="39.787193019143075" lon="9.280375936675876"><ele>581.0</ele><time>2026-04-30T09:08:11.165Z</time></trkpt><trkpt lat="39.787292445457496" lon="9.280305026379246"><ele>585.5</ele><time>2026-04-30T09:08:12.165Z</time></trkpt><trkpt lat="39.78742141391093" lon="9.28029063972429"><ele>590.0</ele><time>2026-04-30T09:08:13.165Z</time></trkpt><trkpt lat="39.78756442173841" lon="9.28028103618494"><ele>585.5</ele><time>2026-04-30T09:08:14.165Z</time></trkpt><trkpt lat="39.787688020837024" lon="9.280227656450785"><ele>581.0</ele><time>2026-04-30T09:08:15.165Z</time></trkpt><trkpt lat="39.78777856576397" lon="9.280128626920728"><ele>576.5</ele><time>2026-04-30T09:08:16.165Z</time></trkpt><trkpt lat="39.787827702689476" lon="9.279980974178745"><ele>572.0</ele><time>2026-04-30T09:08:17.165Z</time></trkpt><trkpt lat="39.787810847593086" lon="9.279788914195601"><ele>574.0</ele><time>2026-04-30T09:08:18.165Z</time></trkpt><trkpt lat="39.78776969949147" lon="9.279573862000275"><ele>576.0</ele><time>2026-04-30T09:08:19.165Z</time></trkpt><trkpt lat="39.787731483920325" lon="9.279362465114314"><ele>578.0</ele><time>2026-04-30T09:08:20.165Z</time></trkpt><trkpt lat="39.7876641435212" lon="9.279203186085265"><ele>581.6666666666666</ele><time>2026-04-30T09:08:21.165Z</time></trkpt><trkpt lat="39.78754297375722" lon="9.279091780751882"><ele>585.3333333333334</ele><time>2026-04-30T09:08:22.165Z</time></trkpt><trkpt lat="39.78737863759379" lon="9.278999098497348"><ele>589.0</ele><time>2026-04-30T09:08:23.165Z</time></trkpt><trkpt lat="39.78717787049802" lon="9.278895162013182"><ele>589.0</ele><time>2026-04-30T09:08:24.165Z</time></trkpt><trkpt lat="39.78700336614997" lon="9.278779533480545"><ele>589.0</ele><time>2026-04-30T09:08:25.165Z</time></trkpt><trkpt lat="39.78688587938093" lon="9.27865213693719"><ele>589.0</ele><time>2026-04-30T09:08:26.165Z</time></trkpt><trkpt lat="39.78682101403647" lon="9.27849177383857"><ele>596.0</ele><time>2026-04-30T09:08:27.165Z</time></trkpt><trkpt lat="39.78678649363829" lon="9.278283003870598"><ele>603.0</ele><time>2026-04-30T09:08:28.165Z</time></trkpt><trkpt lat="39.78676429530795" lon="9.27802625601257"><ele>610.0</ele><time>2026-04-30T09:08:29.165Z</time></trkpt><trkpt lat="39.786738168897614" lon="9.277737387864857"><ele>611.5</ele><time>2026-04-30T09:08:30.165Z</time></trkpt><trkpt lat="39.786709221480564" lon="9.277435270761808"><ele>613.0</ele><time>2026-04-30T09:08:31.165Z</time></trkpt><trkpt lat="39.78670565199187" lon="9.277116181763978"><ele>615.5</ele><time>2026-04-30T09:08:32.165Z</time></trkpt><trkpt lat="39.786711480502355" lon="9.27681544206139"><ele>618.0</ele><time>2026-04-30T09:08:33.165Z</time></trkpt><trkpt lat="39.786734420146466" lon="9.276517868225234"><ele>616.6666666666666</ele><time>2026-04-30T09:08:34.165Z</time></trkpt><trkpt lat="39.78674531242573" lon="9.27624274348758"><ele>615.3333333333333</ele><time>2026-04-30T09:08:35.165Z</time></trkpt><trkpt lat="39.78674264362546" lon="9.276020999870596"><ele>614.0</ele><time>2026-04-30T09:08:36.165Z</time></trkpt><trkpt lat="39.78671899872035" lon="9.275847618531703"><ele>614.0</ele><time>2026-04-30T09:08:37.165Z</time></trkpt><trkpt lat="39.78663584850024" lon="9.275691565433876"><ele>614.0</ele><time>2026-04-30T09:08:38.165Z</time></trkpt><trkpt lat="39.78650288883018" lon="9.275561103836301"><ele>614.0</ele><time>2026-04-30T09:08:39.165Z</time></trkpt><trkpt lat="39.7863792557854" lon="9.275464325940595"><ele>614.0</ele><time>2026-04-30T09:08:40.165Z</time></trkpt><trkpt lat="39.78627284441557" lon="9.275438950923798"><ele>614.0</ele><time>2026-04-30T09:08:41.165Z</time></trkpt><trkpt lat="39.786180724323316" lon="9.275486684881619"><ele>614.0</ele><time>2026-04-30T09:08:42.165Z</time></trkpt><trkpt lat="39.78612975707211" lon="9.275597364607606"><ele>614.0</ele><time>2026-04-30T09:08:43.165Z</time></trkpt><trkpt lat="39.78613873574371" lon="9.275726374930509"><ele>614.0</ele><time>2026-04-30T09:08:44.165Z</time></trkpt><trkpt lat="39.78620283434989" lon="9.275864301426365"><ele>614.0</ele><time>2026-04-30T09:08:45.165Z</time></trkpt><trkpt lat="39.786294415320135" lon="9.276023513187436"><ele>614.0</ele><time>2026-04-30T09:08:46.165Z</time></trkpt><trkpt lat="39.78635329953146" lon="9.276183260314353"><ele>614.0</ele><time>2026-04-30T09:08:47.165Z</time></trkpt><trkpt lat="39.78636058611227" lon="9.276350670385431"><ele>614.0</ele><time>2026-04-30T09:08:48.165Z</time></trkpt><trkpt lat="39.78632991950428" lon="9.276554098068312"><ele>613.6666666666666</ele><time>2026-04-30T09:08:49.165Z</time></trkpt><trkpt lat="39.78626421806382" lon="9.276802210891836"><ele>613.3333333333334</ele><time>2026-04-30T09:08:50.165Z</time></trkpt><trkpt lat="39.78619571436348" lon="9.277062770809755"><ele>613.0</ele><time>2026-04-30T09:08:51.165Z</time></trkpt><trkpt lat="39.78613150304001" lon="9.277320997675627"><ele>613.0</ele><time>2026-04-30T09:08:52.165Z</time></trkpt><trkpt lat="39.78607366650704" lon="9.277546548157469"><ele>613.0</ele><time>2026-04-30T09:08:53.165Z</time></trkpt><trkpt lat="39.785984387782165" lon="9.277786391398788"><ele>613.0</ele><time>2026-04-30T09:08:54.165Z</time></trkpt><trkpt lat="39.78585719507433" lon="9.278041304334227"><ele>627.5</ele><time>2026-04-30T09:08:55.165Z</time></trkpt><trkpt lat="39.78571900199608" lon="9.278310887398913"><ele>642.0</ele><time>2026-04-30T09:08:56.165Z</time></trkpt><trkpt lat="39.78557938942681" lon="9.278572944608838"><ele>642.0</ele><time>2026-04-30T09:08:57.165Z</time></trkpt><trkpt lat="39.78546888204889" lon="9.27880165548637"><ele>642.0</ele><time>2026-04-30T09:08:58.165Z</time></trkpt><trkpt lat="39.78537885784826" lon="9.279040063738877"><ele>642.0</ele><time>2026-04-30T09:08:59.165Z</time></trkpt><trkpt lat="39.78529836091548" lon="9.279278079691075"><ele>639.6666666666666</ele><time>2026-04-30T09:09:00.165Z</time></trkpt><trkpt lat="39.785222572275174" lon="9.279509467847149"><ele>637.3333333333333</ele><time>2026-04-30T09:09:01.165Z</time></trkpt><trkpt lat="39.785142984769486" lon="9.279710859320964"><ele>635.0</ele><time>2026-04-30T09:09:02.165Z</time></trkpt><trkpt lat="39.785042032634294" lon="9.279861828549668"><ele>642.0</ele><time>2026-04-30T09:09:03.165Z</time></trkpt><trkpt lat="39.784911672719474" lon="9.279988946214914"><ele>649.0</ele><time>2026-04-30T09:09:04.165Z</time></trkpt><trkpt lat="39.784764278447504" lon="9.28010952198291"><ele>656.0</ele><time>2026-04-30T09:09:05.165Z</time></trkpt><trkpt lat="39.784612502251115" lon="9.280238700267711"><ele>656.0</ele><time>2026-04-30T09:09:06.165Z</time></trkpt><trkpt lat="39.78445100534554" lon="9.280378549289372"><ele>656.0</ele><time>2026-04-30T09:09:07.165Z</time></trkpt><trkpt lat="39.7842865007877" lon="9.280537777277372"><ele>656.0</ele><time>2026-04-30T09:09:08.165Z</time></trkpt><trkpt lat="39.784112154379855" lon="9.28070244811712"><ele>658.3333333333333</ele><time>2026-04-30T09:09:09.165Z</time></trkpt><trkpt lat="39.78394016857528" lon="9.28087626981885"><ele>660.6666666666666</ele><time>2026-04-30T09:09:10.165Z</time></trkpt><trkpt lat="39.7837945609465" lon="9.281052984968552"><ele>663.0</ele><time>2026-04-30T09:09:11.165Z</time></trkpt><trkpt lat="39.78366440273554" lon="9.281216937250681"><ele>663.0</ele><time>2026-04-30T09:09:12.165Z</time></trkpt><trkpt lat="39.78354795116768" lon="9.281353254281393"><ele>663.0</ele><time>2026-04-30T09:09:13.165Z</time></trkpt><trkpt lat="39.78344039780292" lon="9.281439599507182"><ele>663.0</ele><time>2026-04-30T09:09:14.166Z</time></trkpt><trkpt lat="39.78331654812902" lon="9.281484427652215"><ele>663.0</ele><time>2026-04-30T09:09:15.166Z</time></trkpt><trkpt lat="39.783177116963195" lon="9.281517807635074"><ele>664.0</ele><time>2026-04-30T09:09:16.166Z</time></trkpt><trkpt lat="39.78303445308406" lon="9.281549941597937"><ele>665.0</ele><time>2026-04-30T09:09:17.166Z</time></trkpt><trkpt lat="39.78288529740131" lon="9.281589917497728"><ele>666.0</ele><time>2026-04-30T09:09:18.166Z</time></trkpt><trkpt lat="39.78272779719973" lon="9.281619439811978"><ele>669.5</ele><time>2026-04-30T09:09:19.166Z</time></trkpt><trkpt lat="39.782568361290316" lon="9.281652098115597"><ele>673.0</ele><time>2026-04-30T09:09:20.166Z</time></trkpt><trkpt lat="39.78243212637931" lon="9.281686892790301"><ele>676.5</ele><time>2026-04-30T09:09:21.166Z</time></trkpt><trkpt lat="39.78231299956818" lon="9.281712373366885"><ele>680.0</ele><time>2026-04-30T09:09:22.166Z</time></trkpt><trkpt lat="39.78219510407464" lon="9.281732565362423"><ele>680.0</ele><time>2026-04-30T09:09:23.166Z</time></trkpt><trkpt lat="39.7820662050115" lon="9.281762282902912"><ele>680.0</ele><time>2026-04-30T09:09:24.166Z</time></trkpt><trkpt lat="39.78194118183664" lon="9.281814188386761"><ele>680.0</ele><time>2026-04-30T09:09:25.166Z</time></trkpt><trkpt lat="39.7818235476266" lon="9.28187930439636"><ele>680.0</ele><time>2026-04-30T09:09:26.166Z</time></trkpt><trkpt lat="39.781724362326074" lon="9.281969880070744"><ele>679.8</ele><time>2026-04-30T09:09:27.166Z</time></trkpt><trkpt lat="39.78165228682639" lon="9.282066087528156"><ele>679.6</ele><time>2026-04-30T09:09:28.166Z</time></trkpt><trkpt lat="39.781591636930685" lon="9.282158033670768"><ele>679.4000000000001</ele><time>2026-04-30T09:09:29.166Z</time></trkpt><trkpt lat="39.78153090129597" lon="9.282240893280187"><ele>679.2</ele><time>2026-04-30T09:09:30.166Z</time></trkpt><trkpt lat="39.78146541139839" lon="9.282318716214288"><ele>679.0</ele><time>2026-04-30T09:09:31.166Z</time></trkpt><trkpt lat="39.78138940068444" lon="9.282375844527287"><ele>679.0</ele><time>2026-04-30T09:09:32.166Z</time></trkpt><trkpt lat="39.78129021603708" lon="9.282400023947632"><ele>679.0</ele><time>2026-04-30T09:09:33.166Z</time></trkpt><trkpt lat="39.781192808996884" lon="9.282385083972393"><ele>679.0</ele><time>2026-04-30T09:09:34.166Z</time></trkpt><trkpt lat="39.78107495674822" lon="9.282302173703105"><ele>679.0</ele><time>2026-04-30T09:09:35.166Z</time></trkpt><trkpt lat="39.78094521331427" lon="9.282277613574292"><ele>680.6666666666667</ele><time>2026-04-30T09:09:36.166Z</time></trkpt><trkpt lat="39.78082827389209" lon="9.282276536499543"><ele>682.3333333333334</ele><time>2026-04-30T09:09:37.166Z</time></trkpt><trkpt lat="39.78073380300731" lon="9.28230311856057"><ele>684.0</ele><time>2026-04-30T09:09:38.166Z</time></trkpt><trkpt lat="39.78067301455147" lon="9.282281027853696"><ele>685.6666666666666</ele><time>2026-04-30T09:09:39.166Z</time></trkpt><trkpt lat="39.780641199175506" lon="9.28220915537891"><ele>687.3333333333333</ele><time>2026-04-30T09:09:40.166Z</time></trkpt><trkpt lat="39.78064374345932" lon="9.282094100447157"><ele>689.0</ele><time>2026-04-30T09:09:41.167Z</time></trkpt><trkpt lat="39.78071246134972" lon="9.282000951936217"><ele>690.0</ele><time>2026-04-30T09:09:42.166Z</time></trkpt><trkpt lat="39.7808033706421" lon="9.281985330126814"><ele>691.0</ele><time>2026-04-30T09:09:43.166Z</time></trkpt><trkpt lat="39.780895587268624" lon="9.282013643152858"><ele>692.0</ele><time>2026-04-30T09:09:44.167Z</time></trkpt><trkpt lat="39.78101141784076" lon="9.282046870190513"><ele>693.0</ele><time>2026-04-30T09:09:45.167Z</time></trkpt><trkpt lat="39.7811380195789" lon="9.282067922228295"><ele>694.0</ele><time>2026-04-30T09:09:46.167Z</time></trkpt><trkpt lat="39.78125245556977" lon="9.282053070452667"><ele>694.0</ele><time>2026-04-30T09:09:47.167Z</time></trkpt><trkpt lat="39.78135451843107" lon="9.281976794474314"><ele>694.0</ele><time>2026-04-30T09:09:48.167Z</time></trkpt><trkpt lat="39.78144092303583" lon="9.281853485057654"><ele>694.0</ele><time>2026-04-30T09:09:49.167Z</time></trkpt><trkpt lat="39.78151631250137" lon="9.281698280042006"><ele>694.0</ele><time>2026-04-30T09:09:50.167Z</time></trkpt><trkpt lat="39.7815822363888" lon="9.281554321972967"><ele>695.0</ele><time>2026-04-30T09:09:51.167Z</time></trkpt><trkpt lat="39.78166472447385" lon="9.281432039348353"><ele>696.0</ele><time>2026-04-30T09:09:52.167Z</time></trkpt><trkpt lat="39.781761756983876" lon="9.281326900502695"><ele>697.0</ele><time>2026-04-30T09:09:53.167Z</time></trkpt><trkpt lat="39.78185377378152" lon="9.28123277662998"><ele>698.0</ele><time>2026-04-30T09:09:54.167Z</time></trkpt><trkpt lat="39.78192181803408" lon="9.281127526478732"><ele>698.0</ele><time>2026-04-30T09:09:55.167Z</time></trkpt><trkpt lat="39.7819394809834" lon="9.280989788220692"><ele>698.0</ele><time>2026-04-30T09:09:56.167Z</time></trkpt><trkpt lat="39.78189162588412" lon="9.280859937062557"><ele>698.0</ele><time>2026-04-30T09:09:57.167Z</time></trkpt><trkpt lat="39.781790742078705" lon="9.280790591527573"><ele>698.0</ele><time>2026-04-30T09:09:58.167Z</time></trkpt><trkpt lat="39.78166198463758" lon="9.280815014395483"><ele>702.6666666666666</ele><time>2026-04-30T09:09:59.167Z</time></trkpt><trkpt lat="39.78155404701268" lon="9.280942744975388"><ele>707.3333333333334</ele><time>2026-04-30T09:10:00.167Z</time></trkpt><trkpt lat="39.78145110489066" lon="9.281115262970841"><ele>712.0</ele><time>2026-04-30T09:10:01.167Z</time></trkpt><trkpt lat="39.78132337215671" lon="9.281238055437766"><ele>712.0</ele><time>2026-04-30T09:10:02.167Z</time></trkpt><trkpt lat="39.781169924804416" lon="9.281300795310774"><ele>712.0</ele><time>2026-04-30T09:10:03.167Z</time></trkpt><trkpt lat="39.78101790526868" lon="9.281300525354386"><ele>712.0</ele><time>2026-04-30T09:10:04.167Z</time></trkpt><trkpt lat="39.78089268715123" lon="9.281322235227453"><ele>712.0</ele><time>2026-04-30T09:10:05.167Z</time></trkpt><trkpt lat="39.780771905022476" lon="9.281336762895306"><ele>711.0</ele><time>2026-04-30T09:10:06.167Z</time></trkpt><trkpt lat="39.78065703576517" lon="9.28135773057212"><ele>710.0</ele><time>2026-04-30T09:10:07.167Z</time></trkpt><trkpt lat="39.78053986354031" lon="9.28140689382238"><ele>709.0</ele><time>2026-04-30T09:10:08.167Z</time></trkpt><trkpt lat="39.78042827540904" lon="9.281480475341796"><ele>708.0</ele><time>2026-04-30T09:10:09.167Z</time></trkpt><trkpt lat="39.78031744721661" lon="9.28158641883883"><ele>708.0</ele><time>2026-04-30T09:10:10.167Z</time></trkpt><trkpt lat="39.78020735090474" lon="9.281706941596237"><ele>708.0</ele><time>2026-04-30T09:10:11.167Z</time></trkpt><trkpt lat="39.780094294768475" lon="9.281832656779475"><ele>708.0</ele><time>2026-04-30T09:10:12.167Z</time></trkpt><trkpt lat="39.77998962940337" lon="9.281946035399208"><ele>708.0</ele><time>2026-04-30T09:10:13.167Z</time></trkpt><trkpt lat="39.77988259072656" lon="9.282057007802727"><ele>709.75</ele><time>2026-04-30T09:10:14.167Z</time></trkpt><trkpt lat="39.77978292475026" lon="9.282173861139304"><ele>711.5</ele><time>2026-04-30T09:10:15.167Z</time></trkpt><trkpt lat="39.77969887313369" lon="9.28229196695413"><ele>713.25</ele><time>2026-04-30T09:10:16.167Z</time></trkpt><trkpt lat="39.7796391968674" lon="9.282420294859499"><ele>715.0</ele><time>2026-04-30T09:10:17.167Z</time></trkpt><trkpt lat="39.77957768322994" lon="9.282544316675292"><ele>715.0</ele><time>2026-04-30T09:10:18.168Z</time></trkpt><trkpt lat="39.77951635690497" lon="9.282659053960254"><ele>715.0</ele><time>2026-04-30T09:10:19.168Z</time></trkpt><trkpt lat="39.779451241487436" lon="9.282770004421058"><ele>715.0</ele><time>2026-04-30T09:10:20.168Z</time></trkpt><trkpt lat="39.77937623187013" lon="9.282848364285455"><ele>715.0</ele><time>2026-04-30T09:10:21.168Z</time></trkpt><trkpt lat="39.77929513508842" lon="9.282899234753117"><ele>715.0</ele><time>2026-04-30T09:10:22.168Z</time></trkpt><trkpt lat="39.77919611011566" lon="9.282894832189282"><ele>718.8</ele><time>2026-04-30T09:10:23.168Z</time></trkpt><trkpt lat="39.7790923349857" lon="9.282863346378122"><ele>722.6</ele><time>2026-04-30T09:10:24.168Z</time></trkpt><trkpt lat="39.77899111466251" lon="9.28280181477162"><ele>726.4000000000001</ele><time>2026-04-30T09:10:25.168Z</time></trkpt><trkpt lat="39.77889285623229" lon="9.282724656506312"><ele>730.2</ele><time>2026-04-30T09:10:26.168Z</time></trkpt><trkpt lat="39.778809131901816" lon="9.28263015963429"><ele>734.0</ele><time>2026-04-30T09:10:27.168Z</time></trkpt><trkpt lat="39.77875314839729" lon="9.282506491782176"><ele>734.0</ele><time>2026-04-30T09:10:28.168Z</time></trkpt><trkpt lat="39.778704214946806" lon="9.282391198835018"><ele>734.0</ele><time>2026-04-30T09:10:29.168Z</time></trkpt><trkpt lat="39.77866855974691" lon="9.282285031136894"><ele>734.0</ele><time>2026-04-30T09:10:30.168Z</time></trkpt><trkpt lat="39.77863139984662" lon="9.282172437918065"><ele>734.0</ele><time>2026-04-30T09:10:31.168Z</time></trkpt><trkpt lat="39.77861474014884" lon="9.282038835502483"><ele>734.0</ele><time>2026-04-30T09:10:32.168Z</time></trkpt><trkpt lat="39.77861144564917" lon="9.281895776803816"><ele>736.25</ele><time>2026-04-30T09:10:33.168Z</time></trkpt><trkpt lat="39.77862122979913" lon="9.28174634030748"><ele>738.5</ele><time>2026-04-30T09:10:34.168Z</time></trkpt><trkpt lat="39.77864079805425" lon="9.28158684152292"><ele>740.75</ele><time>2026-04-30T09:10:35.168Z</time></trkpt><trkpt lat="39.77865916740711" lon="9.281437459423634"><ele>743.0</ele><time>2026-04-30T09:10:36.168Z</time></trkpt><trkpt lat="39.77866842058754" lon="9.281287254791366"><ele>745.0</ele><time>2026-04-30T09:10:37.168Z</time></trkpt><trkpt lat="39.77866468916471" lon="9.281128166188951"><ele>747.0</ele><time>2026-04-30T09:10:38.168Z</time></trkpt><trkpt lat="39.77863537941816" lon="9.280962402122768"><ele>749.0</ele><time>2026-04-30T09:10:39.168Z</time></trkpt><trkpt lat="39.77859822169173" lon="9.28081083118174"><ele>751.0</ele><time>2026-04-30T09:10:40.168Z</time></trkpt><trkpt lat="39.778558849252505" lon="9.28066604145469"><ele>746.6666666666667</ele><time>2026-04-30T09:10:41.168Z</time></trkpt><trkpt lat="39.77851766824517" lon="9.280527442094193"><ele>742.3333333333334</ele><time>2026-04-30T09:10:42.168Z</time></trkpt><trkpt lat="39.77846592160899" lon="9.280443996222216"><ele>738.0</ele><time>2026-04-30T09:10:43.168Z</time></trkpt><trkpt lat="39.77838883151137" lon="9.280420276471775"><ele>733.6666666666666</ele><time>2026-04-30T09:10:44.168Z</time></trkpt><trkpt lat="39.778306041970964" lon="9.280445871531521"><ele>729.3333333333333</ele><time>2026-04-30T09:10:45.168Z</time></trkpt><trkpt lat="39.778260526079414" lon="9.28052583760351"><ele>725.0</ele><time>2026-04-30T09:10:46.168Z</time></trkpt><trkpt lat="39.77826341289103" lon="9.280641430374232"><ele>723.0</ele><time>2026-04-30T09:10:47.168Z</time></trkpt><trkpt lat="39.77831375557755" lon="9.28077295049602"><ele>721.0</ele><time>2026-04-30T09:10:48.168Z</time></trkpt><trkpt lat="39.77837694074872" lon="9.280919754140111"><ele>719.0</ele><time>2026-04-30T09:10:49.168Z</time></trkpt><trkpt lat="39.77843591177815" lon="9.281074292817827"><ele>717.0</ele><time>2026-04-30T09:10:50.168Z</time></trkpt><trkpt lat="39.77845535108111" lon="9.281228366039537"><ele>717.0</ele><time>2026-04-30T09:10:51.168Z</time></trkpt><trkpt lat="39.77843376562994" lon="9.28137426358666"><ele>717.0</ele><time>2026-04-30T09:10:52.168Z</time></trkpt><trkpt lat="39.778369571999306" lon="9.281500618146527"><ele>717.0</ele><time>2026-04-30T09:10:53.168Z</time></trkpt><trkpt lat="39.778298691693294" lon="9.281611297011338"><ele>717.0</ele><time>2026-04-30T09:10:54.168Z</time></trkpt><trkpt lat="39.778243867184486" lon="9.281731260789332"><ele>717.0</ele><time>2026-04-30T09:10:55.168Z</time></trkpt><trkpt lat="39.77821632502164" lon="9.281863621837413"><ele>716.5</ele><time>2026-04-30T09:10:56.168Z</time></trkpt><trkpt lat="39.77821236401978" lon="9.282032771397164"><ele>716.0</ele><time>2026-04-30T09:10:57.168Z</time></trkpt><trkpt lat="39.778209594106855" lon="9.282217721243217"><ele>715.5</ele><time>2026-04-30T09:10:58.168Z</time></trkpt><trkpt lat="39.77821236940808" lon="9.28241453108847"><ele>715.0</ele><time>2026-04-30T09:10:59.168Z</time></trkpt><trkpt lat="39.77824551659075" lon="9.282589806380143"><ele>714.5</ele><time>2026-04-30T09:11:00.168Z</time></trkpt><trkpt lat="39.77829401637443" lon="9.28274374894072"><ele>714.0</ele><time>2026-04-30T09:11:01.168Z</time></trkpt><trkpt lat="39.778336620626156" lon="9.282895214414872"><ele>713.5</ele><time>2026-04-30T09:11:02.168Z</time></trkpt><trkpt lat="39.77836618318243" lon="9.283051160603943"><ele>713.0</ele><time>2026-04-30T09:11:03.168Z</time></trkpt><trkpt lat="39.77838976753166" lon="9.283229415797168"><ele>711.0</ele><time>2026-04-30T09:11:04.168Z</time></trkpt><trkpt lat="39.77840033281253" lon="9.283422807330423"><ele>709.0</ele><time>2026-04-30T09:11:05.168Z</time></trkpt><trkpt lat="39.77839777899393" lon="9.283606016048722"><ele>707.0</ele><time>2026-04-30T09:11:06.168Z</time></trkpt><trkpt lat="39.778408323470906" lon="9.2837701310285"><ele>705.0</ele><time>2026-04-30T09:11:07.168Z</time></trkpt><trkpt lat="39.77844783200291" lon="9.283939379663355"><ele>708.5</ele><time>2026-04-30T09:11:08.168Z</time></trkpt><trkpt lat="39.77852582463667" lon="9.284094504830756"><ele>712.0</ele><time>2026-04-30T09:11:09.168Z</time></trkpt><trkpt lat="39.77863185445007" lon="9.284239260238445"><ele>715.5</ele><time>2026-04-30T09:11:10.168Z</time></trkpt><trkpt lat="39.77873267466124" lon="9.284380387136114"><ele>719.0</ele><time>2026-04-30T09:11:11.168Z</time></trkpt><trkpt lat="39.77881831032909" lon="9.284509380085233"><ele>719.0</ele><time>2026-04-30T09:11:12.168Z</time></trkpt><trkpt lat="39.77886765158341" lon="9.284639798453027"><ele>719.0</ele><time>2026-04-30T09:11:13.168Z</time></trkpt><trkpt lat="39.778868583004375" lon="9.284770767065025"><ele>719.0</ele><time>2026-04-30T09:11:14.168Z</time></trkpt><trkpt lat="39.77882609435889" lon="9.284907535254352"><ele>719.0</ele><time>2026-04-30T09:11:15.168Z</time></trkpt><trkpt lat="39.778746328094705" lon="9.28502255416201"><ele>719.0</ele><time>2026-04-30T09:11:16.168Z</time></trkpt><trkpt lat="39.77864968599669" lon="9.285128204762517"><ele>718.1666666666666</ele><time>2026-04-30T09:11:17.168Z</time></trkpt><trkpt lat="39.7785763110147" lon="9.2852346196086"><ele>717.3333333333333</ele><time>2026-04-30T09:11:18.168Z</time></trkpt><trkpt lat="39.778518244407636" lon="9.285303029983117"><ele>716.5</ele><time>2026-04-30T09:11:19.168Z</time></trkpt><trkpt lat="39.77846626450886" lon="9.285361271895558"><ele>715.6666666666666</ele><time>2026-04-30T09:11:21.168Z</time></trkpt><trkpt lat="39.77842201762783" lon="9.285447075389364"><ele>714.8333333333334</ele><time>2026-04-30T09:14:34.172Z</time></trkpt><trkpt lat="39.778365144624" lon="9.285512044856313"><ele>714.0</ele><time>2026-04-30T09:14:36.172Z</time></trkpt><trkpt lat="39.778270847211" lon="9.285619014774769"><ele>712.2</ele><time>2026-04-30T09:14:38.172Z</time></trkpt><trkpt lat="39.778211707261576" lon="9.285709780032821"><ele>710.4000000000001</ele><time>2026-04-30T09:14:39.172Z</time></trkpt><trkpt lat="39.77814612088744" lon="9.285808831455004"><ele>708.6</ele><time>2026-04-30T09:14:40.172Z</time></trkpt><trkpt lat="39.778081927002596" lon="9.285915999504315"><ele>706.8</ele><time>2026-04-30T09:14:41.172Z</time></trkpt><trkpt lat="39.7780152976566" lon="9.286031741646292"><ele>705.0</ele><time>2026-04-30T09:14:42.172Z</time></trkpt><trkpt lat="39.7779517622689" lon="9.286172387084255"><ele>705.0</ele><time>2026-04-30T09:14:43.172Z</time></trkpt><trkpt lat="39.777898681633495" lon="9.286326825254307"><ele>705.0</ele><time>2026-04-30T09:14:44.172Z</time></trkpt><trkpt lat="39.7778732042717" lon="9.286492596709543"><ele>705.0</ele><time>2026-04-30T09:14:45.172Z</time></trkpt><trkpt lat="39.777901806987295" lon="9.28666908716245"><ele>705.0</ele><time>2026-04-30T09:14:46.172Z</time></trkpt><trkpt lat="39.77796306478477" lon="9.286840268893387"><ele>709.0</ele><time>2026-04-30T09:14:47.172Z</time></trkpt><trkpt lat="39.77805095681234" lon="9.287009390442494"><ele>713.0</ele><time>2026-04-30T09:14:48.172Z</time></trkpt><trkpt lat="39.77811002271038" lon="9.287202181020652"><ele>717.0</ele><time>2026-04-30T09:14:49.172Z</time></trkpt><trkpt lat="39.7781189681667" lon="9.287422310750628"><ele>717.3333333333334</ele><time>2026-04-30T09:14:50.172Z</time></trkpt><trkpt lat="39.77811007574399" lon="9.28764271895527"><ele>717.6666666666667</ele><time>2026-04-30T09:14:51.172Z</time></trkpt><trkpt lat="39.7781111010327" lon="9.28786671043071"><ele>718.0</ele><time>2026-04-30T09:14:52.172Z</time></trkpt><trkpt lat="39.77812781190276" lon="9.288069992000212"><ele>718.75</ele><time>2026-04-30T09:14:53.172Z</time></trkpt><trkpt lat="39.77814250697712" lon="9.288249444884842"><ele>719.5</ele><time>2026-04-30T09:14:54.172Z</time></trkpt><trkpt lat="39.778104092893734" lon="9.28841334707261"><ele>720.25</ele><time>2026-04-30T09:14:55.172Z</time></trkpt><trkpt lat="39.77803726621497" lon="9.288547879738523"><ele>721.0</ele><time>2026-04-30T09:14:56.172Z</time></trkpt><trkpt lat="39.777929070223" lon="9.288691570055777"><ele>721.0</ele><time>2026-04-30T09:14:57.172Z</time></trkpt><trkpt lat="39.77780480703096" lon="9.288834039054944"><ele>721.0</ele><time>2026-04-30T09:14:58.172Z</time></trkpt><trkpt lat="39.7776857535998" lon="9.288979511400878"><ele>721.0</ele><time>2026-04-30T09:14:59.172Z</time></trkpt><trkpt lat="39.777583328953895" lon="9.289100146242372"><ele>718.5</ele><time>2026-04-30T09:15:00.172Z</time></trkpt><trkpt lat="39.77747482623269" lon="9.289154760070886"><ele>716.0</ele><time>2026-04-30T09:15:01.172Z</time></trkpt><trkpt lat="39.777362071682816" lon="9.289145756281409"><ele>713.5</ele><time>2026-04-30T09:15:02.172Z</time></trkpt><trkpt lat="39.777252481175466" lon="9.2890770992105"><ele>711.0</ele><time>2026-04-30T09:15:03.172Z</time></trkpt><trkpt lat="39.77719229856171" lon="9.288955346293244"><ele>708.5</ele><time>2026-04-30T09:15:04.172Z</time></trkpt><trkpt lat="39.7771813502674" lon="9.288802523872778"><ele>706.0</ele><time>2026-04-30T09:15:05.172Z</time></trkpt><trkpt lat="39.77721233504789" lon="9.288628212582658"><ele>703.5</ele><time>2026-04-30T09:15:06.172Z</time></trkpt><trkpt lat="39.77722876896898" lon="9.28844341286256"><ele>701.0</ele><time>2026-04-30T09:15:07.172Z</time></trkpt><trkpt lat="39.77719924959492" lon="9.288281865792458"><ele>701.0</ele><time>2026-04-30T09:15:08.172Z</time></trkpt><trkpt lat="39.77714050386759" lon="9.288131742146794"><ele>701.0</ele><time>2026-04-30T09:15:09.172Z</time></trkpt><trkpt lat="39.77705580272348" lon="9.287974686425102"><ele>701.0</ele><time>2026-04-30T09:15:10.172Z</time></trkpt><trkpt lat="39.77696492981657" lon="9.287813693282414"><ele>701.0</ele><time>2026-04-30T09:15:11.172Z</time></trkpt><trkpt lat="39.77686579128037" lon="9.28764645325545"><ele>701.3333333333333</ele><time>2026-04-30T09:15:12.172Z</time></trkpt><trkpt lat="39.776752708504084" lon="9.287491444935087"><ele>701.6666666666666</ele><time>2026-04-30T09:15:13.172Z</time></trkpt><trkpt lat="39.776630398375076" lon="9.28733242427339"><ele>702.0</ele><time>2026-04-30T09:15:14.172Z</time></trkpt><trkpt lat="39.77650993815304" lon="9.287171888046954"><ele>702.0</ele><time>2026-04-30T09:15:15.172Z</time></trkpt><trkpt lat="39.77637441756939" lon="9.286991084964127"><ele>702.0</ele><time>2026-04-30T09:15:16.172Z</time></trkpt><trkpt lat="39.77623807964934" lon="9.286821705873871"><ele>702.0</ele><time>2026-04-30T09:15:17.172Z</time></trkpt><trkpt lat="39.776102499129784" lon="9.286663961580333"><ele>707.0</ele><time>2026-04-30T09:15:18.172Z</time></trkpt><trkpt lat="39.77595316036943" lon="9.286554763175584"><ele>712.0</ele><time>2026-04-30T09:15:19.172Z</time></trkpt><trkpt lat="39.775786428677335" lon="9.286495830086908"><ele>717.0</ele><time>2026-04-30T09:15:20.172Z</time></trkpt><trkpt lat="39.7756317782142" lon="9.286410626619439"><ele>717.0</ele><time>2026-04-30T09:15:21.172Z</time></trkpt><trkpt lat="39.7755102874565" lon="9.286272094033217"><ele>717.0</ele><time>2026-04-30T09:15:22.172Z</time></trkpt><trkpt lat="39.77541271220362" lon="9.286122905573016"><ele>717.0</ele><time>2026-04-30T09:15:23.172Z</time></trkpt><trkpt lat="39.77530219952433" lon="9.285982404296826"><ele>717.0</ele><time>2026-04-30T09:15:24.172Z</time></trkpt><trkpt lat="39.77519015702144" lon="9.285890656977518"><ele>717.0</ele><time>2026-04-30T09:15:25.172Z</time></trkpt><trkpt lat="39.77509066150562" lon="9.28583044284631"><ele>717.0</ele><time>2026-04-30T09:15:26.172Z</time></trkpt><trkpt lat="39.7749773335628" lon="9.285820294325697"><ele>717.0</ele><time>2026-04-30T09:15:27.172Z</time></trkpt><trkpt lat="39.77487112488174" lon="9.285857644004176"><ele>721.0</ele><time>2026-04-30T09:15:28.172Z</time></trkpt><trkpt lat="39.7747663994085" lon="9.28593542265627"><ele>725.0</ele><time>2026-04-30T09:15:29.172Z</time></trkpt><trkpt lat="39.77466022621492" lon="9.286017410572445"><ele>729.0</ele><time>2026-04-30T09:15:30.172Z</time></trkpt><trkpt lat="39.77456143201666" lon="9.286117492169483"><ele>733.0</ele><time>2026-04-30T09:15:31.172Z</time></trkpt><trkpt lat="39.7744548588679" lon="9.286221754646474"><ele>733.0</ele><time>2026-04-30T09:15:32.172Z</time></trkpt><trkpt lat="39.774360189201865" lon="9.28632134608529"><ele>733.0</ele><time>2026-04-30T09:15:33.172Z</time></trkpt><trkpt lat="39.77427925375379" lon="9.286412384091248"><ele>733.0</ele><time>2026-04-30T09:15:34.172Z</time></trkpt><trkpt lat="39.774198021837705" lon="9.286499293545496"><ele>733.0</ele><time>2026-04-30T09:15:35.172Z</time></trkpt><trkpt lat="39.7741188647111" lon="9.28657583090897"><ele>733.0</ele><time>2026-04-30T09:15:36.172Z</time></trkpt><trkpt lat="39.77406753705501" lon="9.286648102989957"><ele>732.6666666666667</ele><time>2026-04-30T09:15:37.172Z</time></trkpt><trkpt lat="39.77403113740449" lon="9.28672764419328"><ele>732.3333333333334</ele><time>2026-04-30T09:15:38.172Z</time></trkpt><trkpt lat="39.77400952649312" lon="9.286819939452855"><ele>732.0</ele><time>2026-04-30T09:15:39.172Z</time></trkpt><trkpt lat="39.77401025969125" lon="9.286930378200172"><ele>731.6666666666666</ele><time>2026-04-30T09:15:40.172Z</time></trkpt><trkpt lat="39.77403610784843" lon="9.287047453269865"><ele>731.3333333333333</ele><time>2026-04-30T09:15:41.172Z</time></trkpt><trkpt lat="39.774093468330875" lon="9.287165196591049"><ele>731.0</ele><time>2026-04-30T09:15:42.172Z</time></trkpt><trkpt lat="39.77416718476682" lon="9.28728913025771"><ele>730.75</ele><time>2026-04-30T09:15:43.172Z</time></trkpt><trkpt lat="39.774231159936996" lon="9.287441428430167"><ele>730.5</ele><time>2026-04-30T09:15:44.172Z</time></trkpt><trkpt lat="39.77427738619102" lon="9.287590213870423"><ele>730.25</ele><time>2026-04-30T09:15:45.172Z</time></trkpt><trkpt lat="39.77430904122182" lon="9.287749748572917"><ele>730.0</ele><time>2026-04-30T09:15:46.172Z</time></trkpt><trkpt lat="39.77434423075114" lon="9.287918168476166"><ele>727.5</ele><time>2026-04-30T09:15:47.172Z</time></trkpt><trkpt lat="39.77437455642656" lon="9.28810023707148"><ele>725.0</ele><time>2026-04-30T09:15:48.172Z</time></trkpt><trkpt lat="39.77437119483657" lon="9.288293087817491"><ele>722.5</ele><time>2026-04-30T09:15:49.172Z</time></trkpt><trkpt lat="39.77434179324466" lon="9.288490793976859"><ele>720.0</ele><time>2026-04-30T09:15:50.172Z</time></trkpt><trkpt lat="39.77428876034144" lon="9.288685188195164"><ele>720.0</ele><time>2026-04-30T09:15:51.172Z</time></trkpt><trkpt lat="39.77422598485558" lon="9.288883680799154"><ele>720.0</ele><time>2026-04-30T09:15:52.172Z</time></trkpt><trkpt lat="39.774166420225" lon="9.289064642218152"><ele>720.0</ele><time>2026-04-30T09:15:53.172Z</time></trkpt><trkpt lat="39.774103621250795" lon="9.28921825598292"><ele>721.75</ele><time>2026-04-30T09:15:54.172Z</time></trkpt><trkpt lat="39.774013014263446" lon="9.289312881252334"><ele>723.5</ele><time>2026-04-30T09:15:55.172Z</time></trkpt><trkpt lat="39.77390486509378" lon="9.289343244151556"><ele>725.25</ele><time>2026-04-30T09:15:56.172Z</time></trkpt><trkpt lat="39.77379595586045" lon="9.28932035029379"><ele>727.0</ele><time>2026-04-30T09:15:57.172Z</time></trkpt><trkpt lat="39.77371923612087" lon="9.289207243591402"><ele>727.0</ele><time>2026-04-30T09:15:58.172Z</time></trkpt><trkpt lat="39.77366435439097" lon="9.289050300197053"><ele>727.0</ele><time>2026-04-30T09:15:59.174Z</time></trkpt><trkpt lat="39.77362491986875" lon="9.288860327435524"><ele>727.0</ele><time>2026-04-30T09:16:00.173Z</time></trkpt><trkpt lat="39.77357808944755" lon="9.288670975481164"><ele>727.0</ele><time>2026-04-30T09:16:01.173Z</time></trkpt><trkpt lat="39.77348484734889" lon="9.288521407507742"><ele>721.3333333333334</ele><time>2026-04-30T09:16:02.174Z</time></trkpt><trkpt lat="39.77334828441967" lon="9.288433679162226"><ele>715.6666666666666</ele><time>2026-04-30T09:16:03.173Z</time></trkpt><trkpt lat="39.77318950032247" lon="9.288371210157852"><ele>710.0</ele><time>2026-04-30T09:16:04.173Z</time></trkpt><trkpt lat="39.773051752302" lon="9.288299716897795"><ele>710.0</ele><time>2026-04-30T09:16:05.174Z</time></trkpt><trkpt lat="39.77290928796805" lon="9.288213772218107"><ele>710.0</ele><time>2026-04-30T09:16:06.174Z</time></trkpt><trkpt lat="39.772760920281435" lon="9.288136858220824"><ele>710.0</ele><time>2026-04-30T09:16:07.174Z</time></trkpt><trkpt lat="39.772586825379264" lon="9.288087429151725"><ele>705.6666666666666</ele><time>2026-04-30T09:16:08.173Z</time></trkpt><trkpt lat="39.77239926909939" lon="9.288047941528704"><ele>701.3333333333334</ele><time>2026-04-30T09:16:09.174Z</time></trkpt><trkpt lat="39.77221629032661" lon="9.288010640813285"><ele>697.0</ele><time>2026-04-30T09:16:10.174Z</time></trkpt><trkpt lat="39.772066446721674" lon="9.287977886345463"><ele>697.0</ele><time>2026-04-30T09:16:11.174Z</time></trkpt><trkpt lat="39.77194976381143" lon="9.287903527910402"><ele>697.0</ele><time>2026-04-30T09:16:12.174Z</time></trkpt><trkpt lat="39.77187628297556" lon="9.287778534722824"><ele>697.0</ele><time>2026-04-30T09:16:13.174Z</time></trkpt><trkpt lat="39.77185369820029" lon="9.287614655113956"><ele>697.0</ele><time>2026-04-30T09:16:14.174Z</time></trkpt><trkpt lat="39.771874784650585" lon="9.287442134410208"><ele>697.0</ele><time>2026-04-30T09:16:15.174Z</time></trkpt><trkpt lat="39.771912644675076" lon="9.287265168478013"><ele>697.0</ele><time>2026-04-30T09:16:16.174Z</time></trkpt><trkpt lat="39.771900945599974" lon="9.287091721814988"><ele>697.0</ele><time>2026-04-30T09:16:17.174Z</time></trkpt><trkpt lat="39.77182164788401" lon="9.286939488231397"><ele>697.0</ele><time>2026-04-30T09:16:18.174Z</time></trkpt><trkpt lat="39.77170037602927" lon="9.28680384531427"><ele>699.3333333333334</ele><time>2026-04-30T09:16:19.174Z</time></trkpt><trkpt lat="39.77156566528519" lon="9.28667263761571"><ele>701.6666666666666</ele><time>2026-04-30T09:16:20.174Z</time></trkpt><trkpt lat="39.77142577700872" lon="9.286540151924244"><ele>704.0</ele><time>2026-04-30T09:16:21.174Z</time></trkpt><trkpt lat="39.77127338908246" lon="9.286458076257643"><ele>704.0</ele><time>2026-04-30T09:16:22.174Z</time></trkpt><trkpt lat="39.771109361801884" lon="9.28644274997549"><ele>704.0</ele><time>2026-04-30T09:16:23.174Z</time></trkpt><trkpt lat="39.770956342648326" lon="9.286487615871765"><ele>704.0</ele><time>2026-04-30T09:16:24.174Z</time></trkpt><trkpt lat="39.77079961473455" lon="9.286579595797738"><ele>704.0</ele><time>2026-04-30T09:16:25.174Z</time></trkpt><trkpt lat="39.770647850251066" lon="9.286698947632123"><ele>704.0</ele><time>2026-04-30T09:16:26.174Z</time></trkpt><trkpt lat="39.770534688467805" lon="9.28684504188653"><ele>704.0</ele><time>2026-04-30T09:16:27.174Z</time></trkpt><trkpt lat="39.770468083747154" lon="9.287018885539394"><ele>704.0</ele><time>2026-04-30T09:16:28.174Z</time></trkpt><trkpt lat="39.77044839517972" lon="9.287217032519136"><ele>704.0</ele><time>2026-04-30T09:16:29.174Z</time></trkpt><trkpt lat="39.77043160349539" lon="9.287445914652833"><ele>704.0</ele><time>2026-04-30T09:16:30.174Z</time></trkpt><trkpt lat="39.77038228182579" lon="9.287667952487734"><ele>699.6666666666666</ele><time>2026-04-30T09:16:31.174Z</time></trkpt><trkpt lat="39.77026854753687" lon="9.287844212661593"><ele>695.3333333333334</ele><time>2026-04-30T09:16:32.174Z</time></trkpt><trkpt lat="39.77011045277047" lon="9.287971155675908"><ele>691.0</ele><time>2026-04-30T09:16:33.174Z</time></trkpt><trkpt lat="39.76993877540878" lon="9.28808580591423"><ele>700.0</ele><time>2026-04-30T09:16:34.174Z</time></trkpt><trkpt lat="39.76977204245067" lon="9.288210061858493"><ele>709.0</ele><time>2026-04-30T09:16:35.174Z</time></trkpt><trkpt lat="39.769608412510266" lon="9.288343356147706"><ele>718.0</ele><time>2026-04-30T09:16:36.174Z</time></trkpt><trkpt lat="39.76944861592077" lon="9.288487441099656"><ele>719.0</ele><time>2026-04-30T09:16:37.174Z</time></trkpt><trkpt lat="39.76929688025756" lon="9.288642202901567"><ele>720.0</ele><time>2026-04-30T09:16:38.174Z</time></trkpt><trkpt lat="39.769157731680444" lon="9.288811400607207"><ele>721.0</ele><time>2026-04-30T09:16:39.174Z</time></trkpt><trkpt lat="39.76903158226783" lon="9.288997253185872"><ele>721.0</ele><time>2026-04-30T09:16:40.174Z</time></trkpt><trkpt lat="39.768917638767626" lon="9.289196498156688"><ele>721.0</ele><time>2026-04-30T09:16:41.174Z</time></trkpt><trkpt lat="39.76883036093236" lon="9.28938903819215"><ele>721.0</ele><time>2026-04-30T09:16:42.174Z</time></trkpt><trkpt lat="39.768753484274555" lon="9.28956677482302"><ele>721.0</ele><time>2026-04-30T09:16:43.174Z</time></trkpt><trkpt lat="39.768671922142794" lon="9.28970655194297"><ele>721.0</ele><time>2026-04-30T09:16:44.174Z</time></trkpt><trkpt lat="39.768562273998405" lon="9.289770077173449"><ele>721.0</ele><time>2026-04-30T09:16:45.174Z</time></trkpt><trkpt lat="39.768446991438985" lon="9.289747133450954"><ele>721.0</ele><time>2026-04-30T09:16:46.174Z</time></trkpt><trkpt lat="39.76831647009268" lon="9.289654582779345"><ele>715.0</ele><time>2026-04-30T09:16:47.174Z</time></trkpt><trkpt lat="39.768178269331365" lon="9.28954998412177"><ele>709.0</ele><time>2026-04-30T09:16:48.174Z</time></trkpt><trkpt lat="39.76802974434444" lon="9.289425904732408"><ele>703.0</ele><time>2026-04-30T09:16:49.174Z</time></trkpt><trkpt lat="39.767898796126616" lon="9.289279658098827"><ele>703.0</ele><time>2026-04-30T09:16:50.174Z</time></trkpt><trkpt lat="39.767810763537724" lon="9.289084331731669"><ele>703.0</ele><time>2026-04-30T09:16:51.174Z</time></trkpt><trkpt lat="39.76774638587476" lon="9.288866551024553"><ele>703.0</ele><time>2026-04-30T09:16:52.174Z</time></trkpt><trkpt lat="39.76767957900134" lon="9.288641148936092"><ele>703.0</ele><time>2026-04-30T09:16:53.174Z</time></trkpt><trkpt lat="39.767608328144085" lon="9.288440870774112"><ele>703.0</ele><time>2026-04-30T09:16:54.174Z</time></trkpt><trkpt lat="39.767506021174" lon="9.28831154857123"><ele>703.0</ele><time>2026-04-30T09:16:55.174Z</time></trkpt><trkpt lat="39.767375131153614" lon="9.288272032199071"><ele>703.0</ele><time>2026-04-30T09:16:56.174Z</time></trkpt><trkpt lat="39.767210023246136" lon="9.28831971182203"><ele>703.0</ele><time>2026-04-30T09:16:57.174Z</time></trkpt><trkpt lat="39.76702303756647" lon="9.288429747775409"><ele>703.0</ele><time>2026-04-30T09:16:58.174Z</time></trkpt><trkpt lat="39.76682848851381" lon="9.28848722323219"><ele>703.0</ele><time>2026-04-30T09:16:59.174Z</time></trkpt><trkpt lat="39.7666315103382" lon="9.288485011469284"><ele>704.6666666666667</ele><time>2026-04-30T09:17:00.174Z</time></trkpt><trkpt lat="39.766434450886806" lon="9.288484823753262"><ele>706.3333333333334</ele><time>2026-04-30T09:17:01.174Z</time></trkpt><trkpt lat="39.766232523640085" lon="9.28849130313361"><ele>708.0</ele><time>2026-04-30T09:17:02.174Z</time></trkpt><trkpt lat="39.76603328527467" lon="9.288509572181093"><ele>707.3333333333334</ele><time>2026-04-30T09:17:03.174Z</time></trkpt><trkpt lat="39.76584603156074" lon="9.288549901631436"><ele>706.6666666666667</ele><time>2026-04-30T09:17:04.174Z</time></trkpt><trkpt lat="39.76569067825839" lon="9.288643351581772"><ele>706.0</ele><time>2026-04-30T09:17:05.174Z</time></trkpt><trkpt lat="39.76555868962431" lon="9.288795659116838"><ele>712.0</ele><time>2026-04-30T09:17:06.174Z</time></trkpt><trkpt lat="39.76543791003996" lon="9.28898177939873"><ele>718.0</ele><time>2026-04-30T09:17:07.174Z</time></trkpt><trkpt lat="39.765304897424244" lon="9.289161376089877"><ele>724.0</ele><time>2026-04-30T09:17:08.174Z</time></trkpt><trkpt lat="39.76517647376898" lon="9.289321436060161"><ele>724.0</ele><time>2026-04-30T09:17:09.174Z</time></trkpt><trkpt lat="39.7650639796905" lon="9.289459110906671"><ele>724.0</ele><time>2026-04-30T09:17:10.174Z</time></trkpt><trkpt lat="39.76496330155669" lon="9.289536239839776"><ele>724.0</ele><time>2026-04-30T09:17:11.174Z</time></trkpt><trkpt lat="39.76485961796398" lon="9.289539456110733"><ele>724.0</ele><time>2026-04-30T09:17:12.174Z</time></trkpt><trkpt lat="39.764764895301205" lon="9.289497474164925"><ele>724.0</ele><time>2026-04-30T09:17:13.174Z</time></trkpt><trkpt lat="39.76469129167013" lon="9.289400618966697"><ele>724.0</ele><time>2026-04-30T09:17:14.174Z</time></trkpt><trkpt lat="39.7646752840016" lon="9.289253829692022"><ele>724.0</ele><time>2026-04-30T09:17:15.174Z</time></trkpt><trkpt lat="39.764694804711624" lon="9.28909171230146"><ele>724.0</ele><time>2026-04-30T09:17:16.174Z</time></trkpt><trkpt lat="39.76474738531408" lon="9.288923617687097"><ele>722.0</ele><time>2026-04-30T09:17:17.174Z</time></trkpt><trkpt lat="39.76480730279627" lon="9.288733667517203"><ele>720.0</ele><time>2026-04-30T09:17:18.174Z</time></trkpt><trkpt lat="39.764854236726364" lon="9.288509747141607"><ele>718.0</ele><time>2026-04-30T09:17:19.174Z</time></trkpt><trkpt lat="39.76489053038795" lon="9.288261518054336"><ele>718.6666666666667</ele><time>2026-04-30T09:17:20.174Z</time></trkpt><trkpt lat="39.764899799398336" lon="9.288003962073754"><ele>719.3333333333334</ele><time>2026-04-30T09:17:21.174Z</time></trkpt><trkpt lat="39.764889642807134" lon="9.287736618757338"><ele>720.0</ele><time>2026-04-30T09:17:22.174Z</time></trkpt><trkpt lat="39.764906477474156" lon="9.287478645863555"><ele>718.3333333333334</ele><time>2026-04-30T09:17:23.174Z</time></trkpt><trkpt lat="39.76494300636994" lon="9.287257057451866"><ele>716.6666666666667</ele><time>2026-04-30T09:17:24.174Z</time></trkpt><trkpt lat="39.76493231675644" lon="9.287057923020948"><ele>715.0</ele><time>2026-04-30T09:17:25.174Z</time></trkpt><trkpt lat="39.76482916721938" lon="9.286901347503026"><ele>715.0</ele><time>2026-04-30T09:17:26.174Z</time></trkpt><trkpt lat="39.76466832166647" lon="9.286795222627314"><ele>715.0</ele><time>2026-04-30T09:17:27.174Z</time></trkpt><trkpt lat="39.764481856172296" lon="9.28669055586504"><ele>715.0</ele><time>2026-04-30T09:17:28.174Z</time></trkpt><trkpt lat="39.76427822754636" lon="9.28657399102482"><ele>718.6666666666667</ele><time>2026-04-30T09:17:29.174Z</time></trkpt><trkpt lat="39.7640927825524" lon="9.286443934523964"><ele>722.3333333333334</ele><time>2026-04-30T09:17:30.174Z</time></trkpt><trkpt lat="39.763925824984476" lon="9.286341504109927"><ele>726.0</ele><time>2026-04-30T09:17:31.174Z</time></trkpt><trkpt lat="39.76375096715394" lon="9.286331817773121"><ele>726.0</ele><time>2026-04-30T09:17:32.174Z</time></trkpt><trkpt lat="39.763568847401224" lon="9.286393519360413"><ele>726.0</ele><time>2026-04-30T09:17:33.174Z</time></trkpt><trkpt lat="39.76337736182917" lon="9.286460087913252"><ele>726.0</ele><time>2026-04-30T09:17:34.174Z</time></trkpt><trkpt lat="39.763181675266516" lon="9.286507994868192"><ele>731.0</ele><time>2026-04-30T09:17:35.174Z</time></trkpt><trkpt lat="39.76300659253418" lon="9.286551194270473"><ele>736.0</ele><time>2026-04-30T09:17:36.174Z</time></trkpt><trkpt lat="39.762855496105" lon="9.286631500098988"><ele>741.0</ele><time>2026-04-30T09:17:37.174Z</time></trkpt><trkpt lat="39.762718767618416" lon="9.28677309693466"><ele>737.3333333333334</ele><time>2026-04-30T09:17:38.174Z</time></trkpt><trkpt lat="39.762579665078015" lon="9.28693383568503"><ele>733.6666666666667</ele><time>2026-04-30T09:17:39.174Z</time></trkpt><trkpt lat="39.762423929083695" lon="9.287081836337272"><ele>730.0</ele><time>2026-04-30T09:17:40.174Z</time></trkpt><trkpt lat="39.76224105334061" lon="9.287176829342807"><ele>730.0</ele><time>2026-04-30T09:17:41.174Z</time></trkpt><trkpt lat="39.76204969836482" lon="9.287247012864146"><ele>730.0</ele><time>2026-04-30T09:17:42.174Z</time></trkpt><trkpt lat="39.761843997269956" lon="9.287298168562625"><ele>730.0</ele><time>2026-04-30T09:17:43.174Z</time></trkpt><trkpt lat="39.76163765236292" lon="9.287359208842227"><ele>734.3333333333334</ele><time>2026-04-30T09:17:44.174Z</time></trkpt><trkpt lat="39.761429557476944" lon="9.287412276222222"><ele>738.6666666666666</ele><time>2026-04-30T09:17:45.174Z</time></trkpt><trkpt lat="39.761236162935674" lon="9.287463824026066"><ele>743.0</ele><time>2026-04-30T09:17:46.174Z</time></trkpt><trkpt lat="39.761059741661086" lon="9.28748121348706"><ele>743.0</ele><time>2026-04-30T09:17:47.174Z</time></trkpt><trkpt lat="39.76089789833895" lon="9.28745349002649"><ele>743.0</ele><time>2026-04-30T09:17:48.174Z</time></trkpt><trkpt lat="39.76073670326231" lon="9.2873687295474"><ele>743.0</ele><time>2026-04-30T09:17:49.174Z</time></trkpt><trkpt lat="39.760571195657114" lon="9.287300406188713"><ele>743.0</ele><time>2026-04-30T09:17:50.174Z</time></trkpt><trkpt lat="39.76041423641734" lon="9.287297607725577"><ele>743.0</ele><time>2026-04-30T09:17:51.174Z</time></trkpt><trkpt lat="39.76026032901138" lon="9.287399612021197"><ele>743.0</ele><time>2026-04-30T09:17:52.174Z</time></trkpt><trkpt lat="39.76012960662364" lon="9.287571597449018"><ele>742.6666666666666</ele><time>2026-04-30T09:17:53.174Z</time></trkpt><trkpt lat="39.76004522292192" lon="9.287793095920808"><ele>742.3333333333334</ele><time>2026-04-30T09:17:54.174Z</time></trkpt><trkpt lat="39.76001786103894" lon="9.28805256343115"><ele>742.0</ele><time>2026-04-30T09:17:55.174Z</time></trkpt><trkpt lat="39.7599946154839" lon="9.288315053488743"><ele>742.0</ele><time>2026-04-30T09:17:56.174Z</time></trkpt><trkpt lat="39.759966386694465" lon="9.288566068044462"><ele>742.0</ele><time>2026-04-30T09:17:57.174Z</time></trkpt><trkpt lat="39.759923749157295" lon="9.288780734478173"><ele>742.0</ele><time>2026-04-30T09:17:58.174Z</time></trkpt><trkpt lat="39.7598673021982" lon="9.288978203650066"><ele>743.6666666666667</ele><time>2026-04-30T09:17:59.175Z</time></trkpt><trkpt lat="39.7598450142391" lon="9.28917985502842"><ele>745.3333333333334</ele><time>2026-04-30T09:18:00.175Z</time></trkpt><trkpt lat="39.75986403518484" lon="9.289407537683605"><ele>747.0</ele><time>2026-04-30T09:18:01.175Z</time></trkpt><trkpt lat="39.7599096221071" lon="9.289637387016159"><ele>747.3333333333334</ele><time>2026-04-30T09:18:02.175Z</time></trkpt><trkpt lat="39.759957770488136" lon="9.28988685297372"><ele>747.6666666666667</ele><time>2026-04-30T09:18:03.175Z</time></trkpt><trkpt lat="39.75999502614001" lon="9.29013323718647"><ele>748.0</ele><time>2026-04-30T09:18:04.176Z</time></trkpt><trkpt lat="39.759962871991455" lon="9.290380974887938"><ele>751.0</ele><time>2026-04-30T09:18:05.176Z</time></trkpt><trkpt lat="39.75988595953405" lon="9.290621812894406"><ele>754.0</ele><time>2026-04-30T09:18:06.176Z</time></trkpt><trkpt lat="39.759803820008266" lon="9.29085172306822"><ele>757.0</ele><time>2026-04-30T09:18:07.176Z</time></trkpt><trkpt lat="39.75972174156103" lon="9.29107919366603"><ele>757.0</ele><time>2026-04-30T09:18:08.176Z</time></trkpt><trkpt lat="39.75964602042409" lon="9.291279826982919"><ele>757.0</ele><time>2026-04-30T09:18:09.176Z</time></trkpt><trkpt lat="39.759564102934476" lon="9.291452890864933"><ele>757.0</ele><time>2026-04-30T09:18:10.176Z</time></trkpt><trkpt lat="39.75943101355009" lon="9.291562481055673"><ele>749.6666666666667</ele><time>2026-04-30T09:18:11.176Z</time></trkpt><trkpt lat="39.75926988049327" lon="9.29162223825035"><ele>742.3333333333334</ele><time>2026-04-30T09:18:12.176Z</time></trkpt><trkpt lat="39.75913285475538" lon="9.2917320394451"><ele>735.0</ele><time>2026-04-30T09:18:13.176Z</time></trkpt><trkpt lat="39.75905820510646" lon="9.291889744119608"><ele>735.0</ele><time>2026-04-30T09:18:14.176Z</time></trkpt><trkpt lat="39.75902547606899" lon="9.292095214292678"><ele>735.0</ele><time>2026-04-30T09:18:15.176Z</time></trkpt><trkpt lat="39.759024154855894" lon="9.292346368132153"><ele>735.0</ele><time>2026-04-30T09:18:16.176Z</time></trkpt><trkpt lat="39.75898170294249" lon="9.29261015436841"><ele>740.0</ele><time>2026-04-30T09:18:17.175Z</time></trkpt><trkpt lat="39.75889948427591" lon="9.292835246293725"><ele>745.0</ele><time>2026-04-30T09:18:18.175Z</time></trkpt><trkpt lat="39.75880102423086" lon="9.293024865078557"><ele>750.0</ele><time>2026-04-30T09:18:19.175Z</time></trkpt><trkpt lat="39.75872228759157" lon="9.293227208155372"><ele>753.6666666666666</ele><time>2026-04-30T09:18:20.175Z</time></trkpt><trkpt lat="39.75869803822228" lon="9.293452519152586"><ele>757.3333333333333</ele><time>2026-04-30T09:18:21.175Z</time></trkpt><trkpt lat="39.75871282185089" lon="9.293702693943057"><ele>761.0</ele><time>2026-04-30T09:18:22.175Z</time></trkpt><trkpt lat="39.75872830013064" lon="9.293952234998237"><ele>761.3333333333333</ele><time>2026-04-30T09:18:23.175Z</time></trkpt><trkpt lat="39.75872955743609" lon="9.294180961729861"><ele>761.6666666666666</ele><time>2026-04-30T09:18:24.175Z</time></trkpt><trkpt lat="39.75869754796112" lon="9.294375121089764"><ele>762.0</ele><time>2026-04-30T09:18:25.175Z</time></trkpt><trkpt lat="39.75859504307924" lon="9.294529475845927"><ele>757.0</ele><time>2026-04-30T09:18:26.175Z</time></trkpt><trkpt lat="39.75844130123971" lon="9.294638847336005"><ele>752.0</ele><time>2026-04-30T09:18:27.175Z</time></trkpt><trkpt lat="39.75827532768789" lon="9.294730012883912"><ele>747.0</ele><time>2026-04-30T09:18:28.175Z</time></trkpt><trkpt lat="39.7581219095887" lon="9.29480984589965"><ele>747.0</ele><time>2026-04-30T09:18:29.175Z</time></trkpt><trkpt lat="39.75795906908751" lon="9.294888436662234"><ele>747.0</ele><time>2026-04-30T09:18:30.175Z</time></trkpt><trkpt lat="39.75779784918423" lon="9.294967550762909"><ele>747.0</ele><time>2026-04-30T09:18:31.175Z</time></trkpt><trkpt lat="39.75765475847897" lon="9.295046423287049"><ele>744.5</ele><time>2026-04-30T09:18:32.175Z</time></trkpt><trkpt lat="39.7575214340965" lon="9.295104950429183"><ele>742.0</ele><time>2026-04-30T09:18:33.175Z</time></trkpt><trkpt lat="39.75738521463328" lon="9.295118620747404"><ele>739.5</ele><time>2026-04-30T09:18:34.175Z</time></trkpt><trkpt lat="39.757242499524935" lon="9.295079233912958"><ele>737.0</ele><time>2026-04-30T09:18:35.176Z</time></trkpt><trkpt lat="39.75709824491525" lon="9.295006310967839"><ele>737.0</ele><time>2026-04-30T09:18:36.176Z</time></trkpt><trkpt lat="39.75694633975232" lon="9.29494265508014"><ele>737.0</ele><time>2026-04-30T09:18:37.176Z</time></trkpt><trkpt lat="39.756794470285755" lon="9.294880490189898"><ele>737.0</ele><time>2026-04-30T09:18:38.176Z</time></trkpt><trkpt lat="39.75665186657439" lon="9.29484978095078"><ele>738.25</ele><time>2026-04-30T09:18:39.176Z</time></trkpt><trkpt lat="39.75652055368691" lon="9.294901170538568"><ele>739.5</ele><time>2026-04-30T09:18:40.176Z</time></trkpt><trkpt lat="39.75642254349703" lon="9.29503072814874"><ele>740.75</ele><time>2026-04-30T09:18:41.176Z</time></trkpt><trkpt lat="39.75639075141238" lon="9.295221189894177"><ele>742.0</ele><time>2026-04-30T09:18:42.176Z</time></trkpt><trkpt lat="39.75638095001383" lon="9.295427314360925"><ele>744.0</ele><time>2026-04-30T09:18:43.176Z</time></trkpt><trkpt lat="39.75632216713853" lon="9.295593204402786"><ele>746.0</ele><time>2026-04-30T09:18:44.176Z</time></trkpt><trkpt lat="39.756192766678126" lon="9.295704413893967"><ele>748.0</ele><time>2026-04-30T09:18:45.176Z</time></trkpt><trkpt lat="39.75601798908198" lon="9.295746304021879"><ele>748.0</ele><time>2026-04-30T09:18:46.176Z</time></trkpt><trkpt lat="39.755825471773505" lon="9.295794147590252"><ele>748.0</ele><time>2026-04-30T09:18:47.176Z</time></trkpt><trkpt lat="39.75564073998174" lon="9.29585440711116"><ele>748.0</ele><time>2026-04-30T09:18:48.176Z</time></trkpt><trkpt lat="39.75545412975392" lon="9.295849873215037"><ele>748.0</ele><time>2026-04-30T09:18:49.176Z</time></trkpt><trkpt lat="39.75525067568284" lon="9.295781537599622"><ele>748.0</ele><time>2026-04-30T09:18:50.176Z</time></trkpt><trkpt lat="39.755048797785946" lon="9.295701460491962"><ele>748.0</ele><time>2026-04-30T09:18:51.176Z</time></trkpt><trkpt lat="39.7548459152891" lon="9.29562159036458"><ele>746.0</ele><time>2026-04-30T09:18:52.176Z</time></trkpt><trkpt lat="39.754636782892725" lon="9.29553944033211"><ele>744.0</ele><time>2026-04-30T09:18:53.176Z</time></trkpt><trkpt lat="39.75442149862762" lon="9.29545645512571"><ele>742.0</ele><time>2026-04-30T09:18:54.176Z</time></trkpt><trkpt lat="39.75422984588463" lon="9.295369971139165"><ele>742.0</ele><time>2026-04-30T09:18:55.176Z</time></trkpt><trkpt lat="39.7540447032188" lon="9.295307839837601"><ele>742.0</ele><time>2026-04-30T09:18:56.176Z</time></trkpt><trkpt lat="39.7538610275536" lon="9.295283146027124"><ele>742.0</ele><time>2026-04-30T09:18:57.176Z</time></trkpt><trkpt lat="39.75369728528006" lon="9.295316048046937"><ele>742.0</ele><time>2026-04-30T09:18:58.176Z</time></trkpt><trkpt lat="39.75355295841603" lon="9.295430378058603"><ele>742.0</ele><time>2026-04-30T09:18:59.176Z</time></trkpt><trkpt lat="39.75342765218691" lon="9.295603690141878"><ele>742.0</ele><time>2026-04-30T09:19:00.176Z</time></trkpt><trkpt lat="39.75329641301375" lon="9.295787761995081"><ele>747.3333333333334</ele><time>2026-04-30T09:19:01.176Z</time></trkpt><trkpt lat="39.753166462221536" lon="9.295935802831282"><ele>752.6666666666666</ele><time>2026-04-30T09:19:02.176Z</time></trkpt><trkpt lat="39.75302135068686" lon="9.296030422160609"><ele>758.0</ele><time>2026-04-30T09:19:03.176Z</time></trkpt><trkpt lat="39.75286946141839" lon="9.296044741965018"><ele>758.0</ele><time>2026-04-30T09:19:04.176Z</time></trkpt><trkpt lat="39.75271562918815" lon="9.295955262371516"><ele>758.0</ele><time>2026-04-30T09:19:05.176Z</time></trkpt><trkpt lat="39.75257019686815" lon="9.295827040019757"><ele>758.0</ele><time>2026-04-30T09:19:06.176Z</time></trkpt><trkpt lat="39.75240140148383" lon="9.295670769428138"><ele>748.6666666666666</ele><time>2026-04-30T09:19:07.176Z</time></trkpt><trkpt lat="39.75223034278165" lon="9.29549688820886"><ele>739.3333333333334</ele><time>2026-04-30T09:19:08.176Z</time></trkpt><trkpt lat="39.752055013977845" lon="9.29531435554788"><ele>730.0</ele><time>2026-04-30T09:19:09.176Z</time></trkpt><trkpt lat="39.75188511430172" lon="9.295143313650472"><ele>736.3333333333334</ele><time>2026-04-30T09:19:10.176Z</time></trkpt><trkpt lat="39.751738691962395" lon="9.295003603411441"><ele>742.6666666666666</ele><time>2026-04-30T09:19:11.176Z</time></trkpt><trkpt lat="39.75160009138296" lon="9.294941889867836"><ele>749.0</ele><time>2026-04-30T09:19:12.176Z</time></trkpt><trkpt lat="39.75144861888365" lon="9.294977125869625"><ele>749.0</ele><time>2026-04-30T09:19:13.176Z</time></trkpt><trkpt lat="39.7512916025323" lon="9.295096998932367"><ele>749.0</ele><time>2026-04-30T09:19:14.176Z</time></trkpt><trkpt lat="39.75119427730421" lon="9.295280667998759"><ele>749.0</ele><time>2026-04-30T09:19:15.176Z</time></trkpt><trkpt lat="39.75117767543446" lon="9.29550515319928"><ele>749.0</ele><time>2026-04-30T09:19:16.176Z</time></trkpt><trkpt lat="39.75123426158388" lon="9.29570425798287"><ele>749.0</ele><time>2026-04-30T09:19:17.176Z</time></trkpt><trkpt lat="39.75122544293335" lon="9.295557578460004"><ele>749.0</ele><time>2026-04-30T09:19:18.176Z</time></trkpt><trkpt lat="39.75129988910329" lon="9.295779601582339"><ele>751.3333333333333</ele><time>2026-04-30T09:19:19.176Z</time></trkpt><trkpt lat="39.751310006883585" lon="9.296019187602758"><ele>753.6666666666666</ele><time>2026-04-30T09:19:20.176Z</time></trkpt><trkpt lat="39.751241350114796" lon="9.296253949135576"><ele>756.0</ele><time>2026-04-30T09:19:21.176Z</time></trkpt><trkpt lat="39.75112067391204" lon="9.296441626730354"><ele>758.6666666666666</ele><time>2026-04-30T09:19:22.176Z</time></trkpt><trkpt lat="39.751050854705205" lon="9.296622953488676"><ele>761.3333333333333</ele><time>2026-04-30T09:19:23.176Z</time></trkpt><trkpt lat="39.751059012679455" lon="9.296831743838009"><ele>764.0</ele><time>2026-04-30T09:19:24.176Z</time></trkpt><trkpt lat="39.75112731690508" lon="9.297038540621163"><ele>764.0</ele><time>2026-04-30T09:19:25.176Z</time></trkpt><trkpt lat="39.75119966767257" lon="9.29724251951032"><ele>764.0</ele><time>2026-04-30T09:19:26.176Z</time></trkpt><trkpt lat="39.75122500704609" lon="9.297428334603012"><ele>764.0</ele><time>2026-04-30T09:19:27.176Z</time></trkpt><trkpt lat="39.75117790924975" lon="9.297591614570784"><ele>765.25</ele><time>2026-04-30T09:19:28.176Z</time></trkpt><trkpt lat="39.75107350227617" lon="9.297690594446648"><ele>766.5</ele><time>2026-04-30T09:19:29.176Z</time></trkpt><trkpt lat="39.75092688717212" lon="9.297713136833918"><ele>767.75</ele><time>2026-04-30T09:19:30.176Z</time></trkpt><trkpt lat="39.75076508799491" lon="9.297637364823212"><ele>769.0</ele><time>2026-04-30T09:19:31.176Z</time></trkpt><trkpt lat="39.75060245673671" lon="9.297481031460824"><ele>762.6666666666666</ele><time>2026-04-30T09:19:32.176Z</time></trkpt><trkpt lat="39.75044244293096" lon="9.297332773058768"><ele>756.3333333333333</ele><time>2026-04-30T09:19:33.176Z</time></trkpt><trkpt lat="39.750274488728365" lon="9.297196710835989"><ele>750.0</ele><time>2026-04-30T09:19:34.176Z</time></trkpt><trkpt lat="39.7501078844606" lon="9.297101916493197"><ele>743.0</ele><time>2026-04-30T09:19:35.176Z</time></trkpt><trkpt lat="39.74994308657484" lon="9.297076677343878"><ele>736.0</ele><time>2026-04-30T09:19:36.176Z</time></trkpt><trkpt lat="39.74974425452973" lon="9.297131325209739"><ele>729.0</ele><time>2026-04-30T09:19:37.176Z</time></trkpt><trkpt lat="39.74953810368949" lon="9.297206094779808"><ele>735.6666666666666</ele><time>2026-04-30T09:19:38.176Z</time></trkpt><trkpt lat="39.74933783569912" lon="9.29729195839476"><ele>742.3333333333333</ele><time>2026-04-30T09:19:39.176Z</time></trkpt><trkpt lat="39.74916475946502" lon="9.297385633579083"><ele>749.0</ele><time>2026-04-30T09:19:40.176Z</time></trkpt><trkpt lat="39.74902034696843" lon="9.297506254445457"><ele>749.0</ele><time>2026-04-30T09:19:41.176Z</time></trkpt><trkpt lat="39.74895407737983" lon="9.29766871166423"><ele>749.0</ele><time>2026-04-30T09:19:42.176Z</time></trkpt><trkpt lat="39.748940571644674" lon="9.297872387765661"><ele>749.0</ele><time>2026-04-30T09:19:43.176Z</time></trkpt><trkpt lat="39.74898984893594" lon="9.29809864701458"><ele>753.0</ele><time>2026-04-30T09:19:44.176Z</time></trkpt><trkpt lat="39.74905437038442" lon="9.298316788761054"><ele>757.0</ele><time>2026-04-30T09:19:45.176Z</time></trkpt><trkpt lat="39.74907431156794" lon="9.298510437193594"><ele>761.0</ele><time>2026-04-30T09:19:46.176Z</time></trkpt><trkpt lat="39.74901492167065" lon="9.29868253921849"><ele>761.0</ele><time>2026-04-30T09:19:47.176Z</time></trkpt><trkpt lat="39.74888271480442" lon="9.298809923834876"><ele>761.0</ele><time>2026-04-30T09:19:48.176Z</time></trkpt><trkpt lat="39.74869343283658" lon="9.298907079355102"><ele>761.0</ele><time>2026-04-30T09:19:49.176Z</time></trkpt><trkpt lat="39.748483767734484" lon="9.298979287733308"><ele>758.3333333333333</ele><time>2026-04-30T09:19:50.176Z</time></trkpt><trkpt lat="39.7483020755112" lon="9.299077408611868"><ele>755.6666666666666</ele><time>2026-04-30T09:19:51.176Z</time></trkpt><trkpt lat="39.74815669069806" lon="9.29920366709079"><ele>753.0</ele><time>2026-04-30T09:19:52.176Z</time></trkpt><trkpt lat="39.74804736047143" lon="9.299370481631104"><ele>753.0</ele><time>2026-04-30T09:19:53.176Z</time></trkpt><trkpt lat="39.747998640856615" lon="9.299574522235353"><ele>753.0</ele><time>2026-04-30T09:19:54.176Z</time></trkpt><trkpt lat="39.74800839051347" lon="9.299819359897311"><ele>753.0</ele><time>2026-04-30T09:19:55.176Z</time></trkpt><trkpt lat="39.74802656082998" lon="9.30008673903745"><ele>756.6666666666666</ele><time>2026-04-30T09:19:56.176Z</time></trkpt><trkpt lat="39.74801545623811" lon="9.300353389482467"><ele>760.3333333333333</ele><time>2026-04-30T09:19:57.176Z</time></trkpt><trkpt lat="39.7479871207568" lon="9.300603052244398"><ele>764.0</ele><time>2026-04-30T09:19:58.176Z</time></trkpt><trkpt lat="39.74792685498582" lon="9.300819333523226"><ele>766.6666666666666</ele><time>2026-04-30T09:19:59.176Z</time></trkpt><trkpt lat="39.74781253203497" lon="9.300993756251156"><ele>769.3333333333333</ele><time>2026-04-30T09:20:00.176Z</time></trkpt><trkpt lat="39.74768850957364" lon="9.301120755684943"><ele>772.0</ele><time>2026-04-30T09:20:01.176Z</time></trkpt><trkpt lat="39.74757017292363" lon="9.301188788757223"><ele>763.6666666666666</ele><time>2026-04-30T09:20:02.176Z</time></trkpt><trkpt lat="39.74742296158256" lon="9.301157912269211"><ele>755.3333333333333</ele><time>2026-04-30T09:20:03.176Z</time></trkpt><trkpt lat="39.74724769640636" lon="9.301079337625122"><ele>747.0</ele><time>2026-04-30T09:20:04.176Z</time></trkpt><trkpt lat="39.74705798625589" lon="9.301004265530649"><ele>748.0</ele><time>2026-04-30T09:20:05.176Z</time></trkpt><trkpt lat="39.74686180965678" lon="9.300926130511272"><ele>749.0</ele><time>2026-04-30T09:20:06.176Z</time></trkpt><trkpt lat="39.746681285882744" lon="9.300791030157884"><ele>750.0</ele><time>2026-04-30T09:20:07.176Z</time></trkpt><trkpt lat="39.74651208084483" lon="9.300630287970797"><ele>745.6666666666666</ele><time>2026-04-30T09:20:08.176Z</time></trkpt><trkpt lat="39.746339384691574" lon="9.3004985033206"><ele>741.3333333333333</ele><time>2026-04-30T09:20:09.176Z</time></trkpt><trkpt lat="39.74613902928526" lon="9.300453696090905"><ele>737.0</ele><time>2026-04-30T09:20:10.178Z</time></trkpt><trkpt lat="39.74593274138938" lon="9.300427159234452"><ele>737.0</ele><time>2026-04-30T09:20:11.178Z</time></trkpt><trkpt lat="39.74575460833725" lon="9.300437477888718"><ele>737.0</ele><time>2026-04-30T09:20:12.178Z</time></trkpt><trkpt lat="39.74558627301011" lon="9.300529783786603"><ele>737.0</ele><time>2026-04-30T09:20:13.178Z</time></trkpt><trkpt lat="39.745425551977284" lon="9.300716471426153"><ele>741.0</ele><time>2026-04-30T09:20:14.178Z</time></trkpt><trkpt lat="39.7452664265539" lon="9.300913149031162"><ele>745.0</ele><time>2026-04-30T09:20:15.178Z</time></trkpt><trkpt lat="39.74511751285901" lon="9.301075055817437"><ele>749.0</ele><time>2026-04-30T09:20:16.179Z</time></trkpt><trkpt lat="39.74500387922684" lon="9.30122516299682"><ele>752.0</ele><time>2026-04-30T09:20:17.178Z</time></trkpt><trkpt lat="39.74493926702184" lon="9.30142993233905"><ele>755.0</ele><time>2026-04-30T09:20:18.178Z</time></trkpt><trkpt lat="39.7449486782227" lon="9.301664735094265"><ele>758.0</ele><time>2026-04-30T09:20:19.179Z</time></trkpt><trkpt lat="39.74502907980397" lon="9.30189809306568"><ele>758.0</ele><time>2026-04-30T09:20:20.179Z</time></trkpt><trkpt lat="39.74515579342263" lon="9.302118870720244"><ele>758.0</ele><time>2026-04-30T09:20:21.179Z</time></trkpt><trkpt lat="39.74527316614982" lon="9.302333802641423"><ele>758.0</ele><time>2026-04-30T09:20:22.179Z</time></trkpt><trkpt lat="39.745321872080645" lon="9.302503545700983"><ele>757.6666666666666</ele><time>2026-04-30T09:20:23.178Z</time></trkpt><trkpt lat="39.745306594801825" lon="9.30267335611016"><ele>757.3333333333334</ele><time>2026-04-30T09:20:24.178Z</time></trkpt><trkpt lat="39.745194470475724" lon="9.302823657714915"><ele>757.0</ele><time>2026-04-30T09:20:25.178Z</time></trkpt><trkpt lat="39.74501653816066" lon="9.302906005270483"><ele>757.0</ele><time>2026-04-30T09:20:26.178Z</time></trkpt><trkpt lat="39.74479880316938" lon="9.302913895862341"><ele>757.0</ele><time>2026-04-30T09:20:27.178Z</time></trkpt><trkpt lat="39.74457760840393" lon="9.302933240053704"><ele>757.0</ele><time>2026-04-30T09:20:28.178Z</time></trkpt><trkpt lat="39.74436092351938" lon="9.302973470188872"><ele>755.0</ele><time>2026-04-30T09:20:29.178Z</time></trkpt><trkpt lat="39.7441755996517" lon="9.303016643697218"><ele>753.0</ele><time>2026-04-30T09:20:30.178Z</time></trkpt><trkpt lat="39.74401794720462" lon="9.303056725152269"><ele>751.0</ele><time>2026-04-30T09:20:31.178Z</time></trkpt><trkpt lat="39.74388606475898" lon="9.303121887457023"><ele>751.0</ele><time>2026-04-30T09:20:32.178Z</time></trkpt><trkpt lat="39.74378651006891" lon="9.303246783962457"><ele>751.0</ele><time>2026-04-30T09:20:33.178Z</time></trkpt><trkpt lat="39.743734902246594" lon="9.303454728308084"><ele>751.0</ele><time>2026-04-30T09:20:34.178Z</time></trkpt><trkpt lat="39.74373529193019" lon="9.303677322702136"><ele>751.0</ele><time>2026-04-30T09:20:35.178Z</time></trkpt><trkpt lat="39.743791588990106" lon="9.303862694746908"><ele>751.0</ele><time>2026-04-30T09:20:36.178Z</time></trkpt><trkpt lat="39.7439033456426" lon="9.304042635650797"><ele>751.0</ele><time>2026-04-30T09:20:37.178Z</time></trkpt><trkpt lat="39.74401579330051" lon="9.304210448884369"><ele>750.5</ele><time>2026-04-30T09:20:38.178Z</time></trkpt><trkpt lat="39.74406079497395" lon="9.30436528370288"><ele>750.0</ele><time>2026-04-30T09:20:39.178Z</time></trkpt><trkpt lat="39.744026221278524" lon="9.304505736004296"><ele>749.5</ele><time>2026-04-30T09:20:40.178Z</time></trkpt><trkpt lat="39.743934969617044" lon="9.304627325574785"><ele>749.0</ele><time>2026-04-30T09:20:41.178Z</time></trkpt><trkpt lat="39.743778354374896" lon="9.304675882897216"><ele>749.0</ele><time>2026-04-30T09:20:42.178Z</time></trkpt><trkpt lat="39.743597699576654" lon="9.304626304231952"><ele>749.0</ele><time>2026-04-30T09:20:43.178Z</time></trkpt><trkpt lat="39.74340830459948" lon="9.304531292590408"><ele>749.0</ele><time>2026-04-30T09:20:44.178Z</time></trkpt><trkpt lat="39.7432077111849" lon="9.304449008897855"><ele>745.3333333333333</ele><time>2026-04-30T09:20:45.178Z</time></trkpt><trkpt lat="39.74300339082145" lon="9.304377379668091"><ele>741.6666666666666</ele><time>2026-04-30T09:20:46.178Z</time></trkpt><trkpt lat="39.742803604008685" lon="9.304322101309186"><ele>738.0</ele><time>2026-04-30T09:20:47.178Z</time></trkpt><trkpt lat="39.742633940202026" lon="9.304280419951596"><ele>738.0</ele><time>2026-04-30T09:20:48.178Z</time></trkpt><trkpt lat="39.742484989696564" lon="9.3042531399148"><ele>738.0</ele><time>2026-04-30T09:20:49.178Z</time></trkpt><trkpt lat="39.74232739330718" lon="9.30427278011535"><ele>738.0</ele><time>2026-04-30T09:20:50.178Z</time></trkpt><trkpt lat="39.742184449386905" lon="9.304399871311578"><ele>738.0</ele><time>2026-04-30T09:20:51.178Z</time></trkpt><trkpt lat="39.742027311129135" lon="9.304569433212944"><ele>738.0</ele><time>2026-04-30T09:20:52.178Z</time></trkpt><trkpt lat="39.74185639825707" lon="9.30472779199882"><ele>738.0</ele><time>2026-04-30T09:20:53.178Z</time></trkpt><trkpt lat="39.74167622949153" lon="9.304865825072849"><ele>739.3333333333334</ele><time>2026-04-30T09:20:54.179Z</time></trkpt><trkpt lat="39.741519021228676" lon="9.30499136079284"><ele>740.6666666666667</ele><time>2026-04-30T09:20:55.179Z</time></trkpt><trkpt lat="39.74137843463395" lon="9.30514287151397"><ele>742.0</ele><time>2026-04-30T09:20:56.179Z</time></trkpt><trkpt lat="39.74127827932607" lon="9.30534034850161"><ele>745.3333333333334</ele><time>2026-04-30T09:20:57.179Z</time></trkpt><trkpt lat="39.74122122871385" lon="9.305586673763615"><ele>748.6666666666666</ele><time>2026-04-30T09:20:58.179Z</time></trkpt><trkpt lat="39.741157776844645" lon="9.305819815660959"><ele>752.0</ele><time>2026-04-30T09:20:59.179Z</time></trkpt><trkpt lat="39.74110699724554" lon="9.306023829411005"><ele>752.0</ele><time>2026-04-30T09:21:00.179Z</time></trkpt><trkpt lat="39.74109411724059" lon="9.30621588321892"><ele>752.0</ele><time>2026-04-30T09:21:01.179Z</time></trkpt><trkpt lat="39.741103164440254" lon="9.30641886619447"><ele>752.0</ele><time>2026-04-30T09:21:02.179Z</time></trkpt><trkpt lat="39.74111922369574" lon="9.306646150712757"><ele>752.6666666666666</ele><time>2026-04-30T09:21:03.179Z</time></trkpt><trkpt lat="39.74116718204771" lon="9.30688520844585"><ele>753.3333333333334</ele><time>2026-04-30T09:21:04.179Z</time></trkpt><trkpt lat="39.741242952681866" lon="9.307130644464516"><ele>754.0</ele><time>2026-04-30T09:21:05.179Z</time></trkpt><trkpt lat="39.741329055774166" lon="9.307367698181695"><ele>752.3333333333334</ele><time>2026-04-30T09:21:06.179Z</time></trkpt><trkpt lat="39.741404124862484" lon="9.307604197330754"><ele>750.6666666666666</ele><time>2026-04-30T09:21:07.179Z</time></trkpt><trkpt lat="39.74144089777838" lon="9.307839792139049"><ele>749.0</ele><time>2026-04-30T09:21:08.179Z</time></trkpt><trkpt lat="39.74143712537439" lon="9.308083724177235"><ele>748.6666666666666</ele><time>2026-04-30T09:21:09.179Z</time></trkpt><trkpt lat="39.741414753369" lon="9.308317448937837"><ele>748.3333333333334</ele><time>2026-04-30T09:21:10.179Z</time></trkpt><trkpt lat="39.74138463940862" lon="9.308507394452114"><ele>748.0</ele><time>2026-04-30T09:21:11.179Z</time></trkpt><trkpt lat="39.7413270189948" lon="9.308644886163481"><ele>748.0</ele><time>2026-04-30T09:21:12.179Z</time></trkpt><trkpt lat="39.741229988591165" lon="9.308732473217983"><ele>748.0</ele><time>2026-04-30T09:21:13.179Z</time></trkpt><trkpt lat="39.741070563511244" lon="9.30875178865567"><ele>748.0</ele><time>2026-04-30T09:21:14.179Z</time></trkpt><trkpt lat="39.74087574949369" lon="9.30869712603732"><ele>745.0</ele><time>2026-04-30T09:21:15.179Z</time></trkpt><trkpt lat="39.74067912432754" lon="9.308634997739716"><ele>742.0</ele><time>2026-04-30T09:21:16.179Z</time></trkpt><trkpt lat="39.74048814618936" lon="9.30864143807211"><ele>739.0</ele><time>2026-04-30T09:21:17.179Z</time></trkpt><trkpt lat="39.74031712041306" lon="9.30870692259673"><ele>738.3333333333334</ele><time>2026-04-30T09:21:18.179Z</time></trkpt><trkpt lat="39.740185514951655" lon="9.308838116600999"><ele>737.6666666666666</ele><time>2026-04-30T09:21:19.179Z</time></trkpt><trkpt lat="39.740092723540315" lon="9.309047339661578"><ele>737.0</ele><time>2026-04-30T09:21:20.179Z</time></trkpt><trkpt lat="39.74002312431375" lon="9.30930116005776"><ele>742.0</ele><time>2026-04-30T09:21:21.179Z</time></trkpt><trkpt lat="39.73994491449129" lon="9.309509764254074"><ele>747.0</ele><time>2026-04-30T09:21:22.179Z</time></trkpt><trkpt lat="39.73991433161413" lon="9.309698982343292"><ele>752.0</ele><time>2026-04-30T09:21:23.179Z</time></trkpt><trkpt lat="39.73996452354619" lon="9.30990878215247"><ele>752.6666666666666</ele><time>2026-04-30T09:21:24.179Z</time></trkpt><trkpt lat="39.74006447935788" lon="9.310134194357504"><ele>753.3333333333334</ele><time>2026-04-30T09:21:25.179Z</time></trkpt><trkpt lat="39.74015747682189" lon="9.310390171836154"><ele>754.0</ele><time>2026-04-30T09:21:26.179Z</time></trkpt><trkpt lat="39.7402312588202" lon="9.310639549669272"><ele>759.0</ele><time>2026-04-30T09:21:27.179Z</time></trkpt><trkpt lat="39.74029644079616" lon="9.310849613173723"><ele>764.0</ele><time>2026-04-30T09:21:28.179Z</time></trkpt><trkpt lat="39.74038420370086" lon="9.311014063464981"><ele>769.0</ele><time>2026-04-30T09:21:29.179Z</time></trkpt><trkpt lat="39.740533555592506" lon="9.31110275336117"><ele>769.0</ele><time>2026-04-30T09:21:30.179Z</time></trkpt><trkpt lat="39.740693716294075" lon="9.31115053503614"><ele>769.0</ele><time>2026-04-30T09:21:31.179Z</time></trkpt><trkpt lat="39.74078890541639" lon="9.311255907783199"><ele>769.0</ele><time>2026-04-30T09:21:32.179Z</time></trkpt><trkpt lat="39.74081043009704" lon="9.311448816596382"><ele>769.0</ele><time>2026-04-30T09:21:33.179Z</time></trkpt><trkpt lat="39.74074071180275" lon="9.311669118834226"><ele>768.6666666666666</ele><time>2026-04-30T09:21:34.179Z</time></trkpt><trkpt lat="39.74062731747683" lon="9.311882662259311"><ele>768.3333333333333</ele><time>2026-04-30T09:21:35.179Z</time></trkpt><trkpt lat="39.740557166539" lon="9.312077119895331"><ele>768.0</ele><time>2026-04-30T09:21:36.179Z</time></trkpt><trkpt lat="39.740572751480414" lon="9.312256575494818"><ele>767.6666666666666</ele><time>2026-04-30T09:21:37.179Z</time></trkpt><trkpt lat="39.7406719538746" lon="9.312393825691546"><ele>767.3333333333333</ele><time>2026-04-30T09:21:38.179Z</time></trkpt><trkpt lat="39.74085294413889" lon="9.312469689020427"><ele>767.0</ele><time>2026-04-30T09:21:39.179Z</time></trkpt><trkpt lat="39.741034608312724" lon="9.312505333806275"><ele>768.75</ele><time>2026-04-30T09:21:40.179Z</time></trkpt><trkpt lat="39.741163830723416" lon="9.312590220316881"><ele>770.5</ele><time>2026-04-30T09:21:41.179Z</time></trkpt><trkpt lat="39.74119053291762" lon="9.312766721466366"><ele>772.25</ele><time>2026-04-30T09:21:42.179Z</time></trkpt><trkpt lat="39.741141004256605" lon="9.31296523131637"><ele>774.0</ele><time>2026-04-30T09:21:43.179Z</time></trkpt><trkpt lat="39.74100784589426" lon="9.313116280336567"><ele>774.0</ele><time>2026-04-30T09:21:44.179Z</time></trkpt><trkpt lat="39.740819663987004" lon="9.313202473791264"><ele>774.0</ele><time>2026-04-30T09:21:45.179Z</time></trkpt><trkpt lat="39.7406055430741" lon="9.313251866556591"><ele>774.0</ele><time>2026-04-30T09:21:46.179Z</time></trkpt><trkpt lat="39.74039742149136" lon="9.31334564500538"><ele>772.3333333333333</ele><time>2026-04-30T09:21:47.179Z</time></trkpt><trkpt lat="39.74020696622613" lon="9.313419315367222"><ele>770.6666666666666</ele><time>2026-04-30T09:21:48.179Z</time></trkpt><trkpt lat="39.74001620249937" lon="9.313407637162147"><ele>769.0</ele><time>2026-04-30T09:21:49.179Z</time></trkpt><trkpt lat="39.739833693789144" lon="9.31329196840834"><ele>769.0</ele><time>2026-04-30T09:21:50.179Z</time></trkpt><trkpt lat="39.739689248428256" lon="9.313159575442745"><ele>769.0</ele><time>2026-04-30T09:21:51.179Z</time></trkpt><trkpt lat="39.73954317466875" lon="9.313167806061097"><ele>769.0</ele><time>2026-04-30T09:21:52.179Z</time></trkpt><trkpt lat="39.73940802453179" lon="9.313262384843718"><ele>767.0</ele><time>2026-04-30T09:21:53.179Z</time></trkpt><trkpt lat="39.73930656289" lon="9.313450780033856"><ele>765.0</ele><time>2026-04-30T09:21:54.179Z</time></trkpt><trkpt lat="39.73926435774557" lon="9.313703143075095"><ele>763.0</ele><time>2026-04-30T09:21:55.179Z</time></trkpt><trkpt lat="39.739278216763424" lon="9.313965142366616"><ele>761.5</ele><time>2026-04-30T09:21:56.179Z</time></trkpt><trkpt lat="39.73929469277835" lon="9.314208086744333"><ele>760.0</ele><time>2026-04-30T09:21:57.179Z</time></trkpt><trkpt lat="39.739325605910764" lon="9.314376305461497"><ele>758.5</ele><time>2026-04-30T09:21:58.179Z</time></trkpt><trkpt lat="39.73941149603612" lon="9.314489020715754"><ele>757.0</ele><time>2026-04-30T09:21:59.179Z</time></trkpt><trkpt lat="39.739561550873646" lon="9.31454903612777"><ele>759.0</ele><time>2026-04-30T09:22:00.179Z</time></trkpt><trkpt lat="39.73973739617756" lon="9.314578769570574"><ele>761.0</ele><time>2026-04-30T09:22:01.179Z</time></trkpt><trkpt lat="39.73989030059376" lon="9.31468155013517"><ele>763.0</ele><time>2026-04-30T09:22:02.179Z</time></trkpt><trkpt lat="39.740012414826346" lon="9.314862970973111"><ele>763.0</ele><time>2026-04-30T09:22:03.179Z</time></trkpt><trkpt lat="39.74009856706417" lon="9.315066011277596"><ele>763.0</ele><time>2026-04-30T09:22:04.179Z</time></trkpt><trkpt lat="39.74014070547113" lon="9.31525465052317"><ele>763.0</ele><time>2026-04-30T09:22:05.179Z</time></trkpt><trkpt lat="39.740103523996765" lon="9.315441568039297"><ele>762.0</ele><time>2026-04-30T09:22:06.179Z</time></trkpt><trkpt lat="39.74001481161001" lon="9.31558769619887"><ele>761.0</ele><time>2026-04-30T09:22:07.179Z</time></trkpt><trkpt lat="39.739871107408725" lon="9.315660044121929"><ele>760.0</ele><time>2026-04-30T09:22:08.179Z</time></trkpt><trkpt lat="39.739700697813014" lon="9.31572303837452"><ele>760.0</ele><time>2026-04-30T09:22:09.179Z</time></trkpt><trkpt lat="39.73954330890615" lon="9.315789406217563"><ele>760.0</ele><time>2026-04-30T09:22:10.179Z</time></trkpt><trkpt lat="39.73943824010107" lon="9.31589827234879"><ele>760.0</ele><time>2026-04-30T09:22:11.179Z</time></trkpt><trkpt lat="39.73938910727764" lon="9.316066612462063"><ele>760.0</ele><time>2026-04-30T09:22:12.179Z</time></trkpt><trkpt lat="39.7393970417446" lon="9.316252321200656"><ele>760.0</ele><time>2026-04-30T09:22:13.179Z</time></trkpt><trkpt lat="39.73946772198914" lon="9.316444254594312"><ele>760.0</ele><time>2026-04-30T09:22:14.179Z</time></trkpt><trkpt lat="39.73956951061594" lon="9.316642338094415"><ele>760.0</ele><time>2026-04-30T09:22:15.179Z</time></trkpt><trkpt lat="39.73965364870374" lon="9.316862774641857"><ele>760.0</ele><time>2026-04-30T09:22:16.18Z</time></trkpt><trkpt lat="39.73968933978396" lon="9.317097954743177"><ele>760.0</ele><time>2026-04-30T09:22:17.18Z</time></trkpt><trkpt lat="39.73971198148387" lon="9.317330921519591"><ele>760.0</ele><time>2026-04-30T09:22:18.18Z</time></trkpt><trkpt lat="39.7397764531901" lon="9.317539846425463"><ele>756.6666666666667</ele><time>2026-04-30T09:22:19.181Z</time></trkpt><trkpt lat="39.739888087657036" lon="9.317731502503309"><ele>753.3333333333334</ele><time>2026-04-30T09:22:20.18Z</time></trkpt><trkpt lat="39.73999171497504" lon="9.317913637940306"><ele>750.0</ele><time>2026-04-30T09:22:21.18Z</time></trkpt><trkpt lat="39.74008300422797" lon="9.318085197618577"><ele>747.25</ele><time>2026-04-30T09:22:22.181Z</time></trkpt><trkpt lat="39.74013449587773" lon="9.318262971470471"><ele>744.5</ele><time>2026-04-30T09:22:23.18Z</time></trkpt><trkpt lat="39.7401324030738" lon="9.318439254631008"><ele>741.75</ele><time>2026-04-30T09:22:24.18Z</time></trkpt><trkpt lat="39.74008504299306" lon="9.318577210599388"><ele>739.0</ele><time>2026-04-30T09:22:25.181Z</time></trkpt><trkpt lat="39.739983949023554" lon="9.318676922485636"><ele>739.0</ele><time>2026-04-30T09:22:26.18Z</time></trkpt><trkpt lat="39.739840974180694" lon="9.31873121284282"><ele>739.0</ele><time>2026-04-30T09:22:27.18Z</time></trkpt><trkpt lat="39.73966161955897" lon="9.318696893655105"><ele>739.0</ele><time>2026-04-30T09:22:28.18Z</time></trkpt><trkpt lat="39.73947467714964" lon="9.318662570494597"><ele>737.0</ele><time>2026-04-30T09:22:29.181Z</time></trkpt><trkpt lat="39.73927850268616" lon="9.318610601790281"><ele>735.0</ele><time>2026-04-30T09:22:30.181Z</time></trkpt><trkpt lat="39.739083783466626" lon="9.318475607285846"><ele>733.0</ele><time>2026-04-30T09:22:31.181Z</time></trkpt><trkpt lat="39.738896994965145" lon="9.31832396784086"><ele>733.0</ele><time>2026-04-30T09:22:32.181Z</time></trkpt><trkpt lat="39.73870771817816" lon="9.31816673964951"><ele>733.0</ele><time>2026-04-30T09:22:33.181Z</time></trkpt><trkpt lat="39.73851394178267" lon="9.317996014839007"><ele>731.6666666666667</ele><time>2026-04-30T09:22:34.181Z</time></trkpt><trkpt lat="39.73832765675846" lon="9.31783691283875"><ele>730.3333333333334</ele><time>2026-04-30T09:22:35.181Z</time></trkpt><trkpt lat="39.738155960916025" lon="9.317718661462768"><ele>729.0</ele><time>2026-04-30T09:22:36.181Z</time></trkpt><trkpt lat="39.73797540939698" lon="9.317660955232954"><ele>729.0</ele><time>2026-04-30T09:22:37.181Z</time></trkpt><trkpt lat="39.73778647817251" lon="9.317635623196402"><ele>729.0</ele><time>2026-04-30T09:22:38.181Z</time></trkpt><trkpt lat="39.737618290987754" lon="9.31767291708265"><ele>729.0</ele><time>2026-04-30T09:22:39.181Z</time></trkpt><trkpt lat="39.73746621775457" lon="9.31778294752866"><ele>731.0</ele><time>2026-04-30T09:22:40.181Z</time></trkpt><trkpt lat="39.73731502997597" lon="9.317926149387064"><ele>733.0</ele><time>2026-04-30T09:22:41.181Z</time></trkpt><trkpt lat="39.737158753292235" lon="9.31808494861628"><ele>735.0</ele><time>2026-04-30T09:22:42.181Z</time></trkpt><trkpt lat="39.737017987394495" lon="9.318178902958818"><ele>737.25</ele><time>2026-04-30T09:22:43.181Z</time></trkpt><trkpt lat="39.73688009813062" lon="9.318183944238275"><ele>739.5</ele><time>2026-04-30T09:22:44.181Z</time></trkpt><trkpt lat="39.73676103782948" lon="9.318096648961854"><ele>741.75</ele><time>2026-04-30T09:22:45.181Z</time></trkpt><trkpt lat="39.73668484701213" lon="9.317926199833527"><ele>744.0</ele><time>2026-04-30T09:22:46.181Z</time></trkpt><trkpt lat="39.73665754039201" lon="9.317686684643224"><ele>744.0</ele><time>2026-04-30T09:22:47.181Z</time></trkpt><trkpt lat="39.73662700316383" lon="9.317456906811413"><ele>744.0</ele><time>2026-04-30T09:22:48.181Z</time></trkpt><trkpt lat="39.7365663805358" lon="9.317298316186491"><ele>744.0</ele><time>2026-04-30T09:22:49.181Z</time></trkpt><trkpt lat="39.736448231280015" lon="9.317216297004457"><ele>744.0</ele><time>2026-04-30T09:22:50.181Z</time></trkpt><trkpt lat="39.73629238029052" lon="9.317229729552393"><ele>744.0</ele><time>2026-04-30T09:22:51.181Z</time></trkpt><trkpt lat="39.7361069673763" lon="9.317297815092857"><ele>744.0</ele><time>2026-04-30T09:22:52.181Z</time></trkpt><trkpt lat="39.73589789347392" lon="9.317364405597994"><ele>744.0</ele><time>2026-04-30T09:22:53.181Z</time></trkpt><trkpt lat="39.73569403716735" lon="9.317426838800765"><ele>747.0</ele><time>2026-04-30T09:22:54.181Z</time></trkpt><trkpt lat="39.735523365123846" lon="9.317478740082121"><ele>750.0</ele><time>2026-04-30T09:22:55.181Z</time></trkpt><trkpt lat="39.735364159742424" lon="9.317576625654342"><ele>753.0</ele><time>2026-04-30T09:22:56.181Z</time></trkpt><trkpt lat="39.73524805591854" lon="9.317747625727238"><ele>752.3333333333334</ele><time>2026-04-30T09:22:57.181Z</time></trkpt><trkpt lat="39.73519219236322" lon="9.317972979631744"><ele>751.6666666666667</ele><time>2026-04-30T09:22:58.181Z</time></trkpt><trkpt lat="39.73518244543015" lon="9.318227203279257"><ele>751.0</ele><time>2026-04-30T09:22:59.181Z</time></trkpt><trkpt lat="39.735193852047914" lon="9.318480684856622"><ele>751.0</ele><time>2026-04-30T09:23:00.181Z</time></trkpt><trkpt lat="39.73519435350219" lon="9.318714603425297"><ele>751.0</ele><time>2026-04-30T09:23:01.181Z</time></trkpt><trkpt lat="39.73513927195838" lon="9.318912567751642"><ele>751.0</ele><time>2026-04-30T09:23:02.181Z</time></trkpt><trkpt lat="39.73501374872264" lon="9.319057132327986"><ele>754.3333333333334</ele><time>2026-04-30T09:23:03.181Z</time></trkpt><trkpt lat="39.73484202831541" lon="9.31913790223405"><ele>757.6666666666666</ele><time>2026-04-30T09:23:04.181Z</time></trkpt><trkpt lat="39.73464092572966" lon="9.319181572952896"><ele>761.0</ele><time>2026-04-30T09:23:05.181Z</time></trkpt><trkpt lat="39.73443703884987" lon="9.319241453291875"><ele>757.0</ele><time>2026-04-30T09:23:06.181Z</time></trkpt><trkpt lat="39.73426802261736" lon="9.319305553383382"><ele>753.0</ele><time>2026-04-30T09:23:07.181Z</time></trkpt><trkpt lat="39.73413431585615" lon="9.319411828723418"><ele>749.0</ele><time>2026-04-30T09:23:08.181Z</time></trkpt><trkpt lat="39.73404327780145" lon="9.31958567970219"><ele>750.6666666666666</ele><time>2026-04-30T09:23:09.181Z</time></trkpt><trkpt lat="39.73400285597409" lon="9.319804477014527"><ele>752.3333333333334</ele><time>2026-04-30T09:23:10.181Z</time></trkpt><trkpt lat="39.73402206976981" lon="9.320021720403531"><ele>754.0</ele><time>2026-04-30T09:23:11.181Z</time></trkpt><trkpt lat="39.73410667102244" lon="9.320230799193965"><ele>754.0</ele><time>2026-04-30T09:23:12.181Z</time></trkpt><trkpt lat="39.73420876359686" lon="9.32042879812413"><ele>754.0</ele><time>2026-04-30T09:23:13.181Z</time></trkpt><trkpt lat="39.734240905409166" lon="9.3206393086085"><ele>754.0</ele><time>2026-04-30T09:23:14.181Z</time></trkpt><trkpt lat="39.734204796057384" lon="9.320877711192525"><ele>753.0</ele><time>2026-04-30T09:23:15.181Z</time></trkpt><trkpt lat="39.73415625924065" lon="9.321117511594204"><ele>752.0</ele><time>2026-04-30T09:23:16.181Z</time></trkpt><trkpt lat="39.73414661994238" lon="9.321343831478357"><ele>751.0</ele><time>2026-04-30T09:23:17.181Z</time></trkpt><trkpt lat="39.734175043292055" lon="9.321545903902331"><ele>750.0</ele><time>2026-04-30T09:23:18.181Z</time></trkpt><trkpt lat="39.734198470997946" lon="9.321725900951634"><ele>749.0</ele><time>2026-04-30T09:23:19.181Z</time></trkpt><trkpt lat="39.734176310062466" lon="9.321888418196204"><ele>748.0</ele><time>2026-04-30T09:23:20.181Z</time></trkpt><trkpt lat="39.734102151728464" lon="9.322032789556525"><ele>747.0</ele><time>2026-04-30T09:23:21.181Z</time></trkpt><trkpt lat="39.73399109149535" lon="9.32216776705596"><ele>749.0</ele><time>2026-04-30T09:23:22.181Z</time></trkpt><trkpt lat="39.73385695283827" lon="9.322307875285945"><ele>751.0</ele><time>2026-04-30T09:23:23.181Z</time></trkpt><trkpt lat="39.73372295291359" lon="9.322446426523522"><ele>753.0</ele><time>2026-04-30T09:23:24.181Z</time></trkpt><trkpt lat="39.73357452651098" lon="9.322567894167241"><ele>744.6666666666666</ele><time>2026-04-30T09:23:25.181Z</time></trkpt><trkpt lat="39.73341330330324" lon="9.32266106374754"><ele>736.3333333333333</ele><time>2026-04-30T09:23:26.181Z</time></trkpt><trkpt lat="39.733250735620025" lon="9.322756924829246"><ele>728.0</ele><time>2026-04-30T09:23:27.181Z</time></trkpt><trkpt lat="39.73310141859716" lon="9.322847265581126"><ele>728.0</ele><time>2026-04-30T09:23:28.181Z</time></trkpt><trkpt lat="39.732979647143466" lon="9.32294722691067"><ele>728.0</ele><time>2026-04-30T09:23:29.181Z</time></trkpt><trkpt lat="39.73291176072408" lon="9.323130773040054"><ele>728.0</ele><time>2026-04-30T09:23:30.181Z</time></trkpt><trkpt lat="39.73286862780958" lon="9.323331265047738"><ele>727.0</ele><time>2026-04-30T09:23:31.181Z</time></trkpt><trkpt lat="39.732791673452155" lon="9.323463626293895"><ele>726.0</ele><time>2026-04-30T09:23:32.181Z</time></trkpt><trkpt lat="39.73266809763856" lon="9.323530934349478"><ele>725.0</ele><time>2026-04-30T09:23:33.181Z</time></trkpt><trkpt lat="39.732511530863526" lon="9.323561054218871"><ele>724.0</ele><time>2026-04-30T09:23:34.181Z</time></trkpt><trkpt lat="39.73232241342052" lon="9.323555983641036"><ele>724.0</ele><time>2026-04-30T09:23:35.181Z</time></trkpt><trkpt lat="39.73215009929307" lon="9.323562959211113"><ele>724.0</ele><time>2026-04-30T09:23:36.181Z</time></trkpt><trkpt lat="39.732000363134006" lon="9.323604877216773"><ele>724.0</ele><time>2026-04-30T09:23:37.181Z</time></trkpt><trkpt lat="39.73187363103142" lon="9.323712068000102"><ele>720.3333333333334</ele><time>2026-04-30T09:23:38.181Z</time></trkpt><trkpt lat="39.731789600254935" lon="9.323863411094907"><ele>716.6666666666666</ele><time>2026-04-30T09:23:39.181Z</time></trkpt><trkpt lat="39.731770089694315" lon="9.3240576605635"><ele>713.0</ele><time>2026-04-30T09:23:40.181Z</time></trkpt><trkpt lat="39.73180699577811" lon="9.324263673726117"><ele>713.0</ele><time>2026-04-30T09:23:41.181Z</time></trkpt><trkpt lat="39.73185511610085" lon="9.324452261175285"><ele>713.0</ele><time>2026-04-30T09:23:42.181Z</time></trkpt><trkpt lat="39.731840592946654" lon="9.324624832985576"><ele>713.0</ele><time>2026-04-30T09:23:43.181Z</time></trkpt><trkpt lat="39.731748050682825" lon="9.324766660383014"><ele>713.0</ele><time>2026-04-30T09:23:44.181Z</time></trkpt><trkpt lat="39.73160352920821" lon="9.324893807890483"><ele>711.3333333333333</ele><time>2026-04-30T09:23:45.181Z</time></trkpt><trkpt lat="39.731431825677426" lon="9.32499217373469"><ele>709.6666666666666</ele><time>2026-04-30T09:23:46.181Z</time></trkpt><trkpt lat="39.731238326434315" lon="9.325027787647521"><ele>708.0</ele><time>2026-04-30T09:23:47.181Z</time></trkpt><trkpt lat="39.73103745051009" lon="9.324983833504524"><ele>708.0</ele><time>2026-04-30T09:23:48.181Z</time></trkpt><trkpt lat="39.73085112805037" lon="9.324867717673875"><ele>708.0</ele><time>2026-04-30T09:23:49.181Z</time></trkpt><trkpt lat="39.73068169131711" lon="9.32478052994725"><ele>708.0</ele><time>2026-04-30T09:23:50.181Z</time></trkpt><trkpt lat="39.730508483931914" lon="9.324700711451495"><ele>705.0</ele><time>2026-04-30T09:23:51.181Z</time></trkpt><trkpt lat="39.73035938591862" lon="9.32463837517946"><ele>702.0</ele><time>2026-04-30T09:23:52.181Z</time></trkpt><trkpt lat="39.73022450958796" lon="9.32463299078732"><ele>699.0</ele><time>2026-04-30T09:23:53.181Z</time></trkpt><trkpt lat="39.73009508356264" lon="9.324709651577933"><ele>696.0</ele><time>2026-04-30T09:23:54.181Z</time></trkpt><trkpt lat="39.73001466263977" lon="9.324875064777203"><ele>696.0</ele><time>2026-04-30T09:23:55.181Z</time></trkpt><trkpt lat="39.73000450933864" lon="9.325078828900091"><ele>696.0</ele><time>2026-04-30T09:23:56.181Z</time></trkpt><trkpt lat="39.730063697578075" lon="9.32528940737558"><ele>696.0</ele><time>2026-04-30T09:23:57.181Z</time></trkpt><trkpt lat="39.73013179284382" lon="9.325481210160206"><ele>698.0</ele><time>2026-04-30T09:23:58.181Z</time></trkpt><trkpt lat="39.73010913235569" lon="9.325669624947594"><ele>700.0</ele><time>2026-04-30T09:23:59.181Z</time></trkpt><trkpt lat="39.73002041866079" lon="9.32582050444368"><ele>702.0</ele><time>2026-04-30T09:24:00.181Z</time></trkpt><trkpt lat="39.72987469049202" lon="9.325900611292209"><ele>702.0</ele><time>2026-04-30T09:24:01.181Z</time></trkpt><trkpt lat="39.729698409587584" lon="9.325950477439813"><ele>702.0</ele><time>2026-04-30T09:24:02.181Z</time></trkpt><trkpt lat="39.729538325606285" lon="9.326076360192031"><ele>702.0</ele><time>2026-04-30T09:24:03.181Z</time></trkpt><trkpt lat="39.72937408100428" lon="9.326239542980568"><ele>699.6666666666666</ele><time>2026-04-30T09:24:04.181Z</time></trkpt><trkpt lat="39.729194378392954" lon="9.326384409347886"><ele>697.3333333333333</ele><time>2026-04-30T09:24:05.181Z</time></trkpt><trkpt lat="39.72902729505336" lon="9.326514704852256"><ele>695.0</ele><time>2026-04-30T09:24:06.181Z</time></trkpt><trkpt lat="39.728874109287396" lon="9.326634059896554"><ele>695.0</ele><time>2026-04-30T09:24:07.181Z</time></trkpt><trkpt lat="39.72874455858197" lon="9.32675779585717"><ele>695.0</ele><time>2026-04-30T09:24:08.181Z</time></trkpt><trkpt lat="39.72866233718902" lon="9.326932778259817"><ele>695.0</ele><time>2026-04-30T09:24:09.181Z</time></trkpt><trkpt lat="39.72862814209657" lon="9.32715375221715"><ele>696.0</ele><time>2026-04-30T09:24:10.181Z</time></trkpt><trkpt lat="39.728595444386805" lon="9.327367719890114"><ele>697.0</ele><time>2026-04-30T09:24:11.181Z</time></trkpt><trkpt lat="39.728505262437245" lon="9.3275310627089"><ele>698.0</ele><time>2026-04-30T09:24:12.181Z</time></trkpt><trkpt lat="39.728355000455124" lon="9.327624830554235"><ele>693.6666666666666</ele><time>2026-04-30T09:24:13.181Z</time></trkpt><trkpt lat="39.7281718271635" lon="9.327666634770905"><ele>689.3333333333334</ele><time>2026-04-30T09:24:14.181Z</time></trkpt><trkpt lat="39.72802210203417" lon="9.32771416002511"><ele>685.0</ele><time>2026-04-30T09:24:15.181Z</time></trkpt><trkpt lat="39.72787380382125" lon="9.327767296204433"><ele>685.0</ele><time>2026-04-30T09:24:16.181Z</time></trkpt><trkpt lat="39.72773714495018" lon="9.327841940076466"><ele>685.0</ele><time>2026-04-30T09:24:17.181Z</time></trkpt><trkpt lat="39.72761178201974" lon="9.327963828069917"><ele>685.0</ele><time>2026-04-30T09:24:18.181Z</time></trkpt><trkpt lat="39.72752888729942" lon="9.328160826044595"><ele>682.0</ele><time>2026-04-30T09:24:19.182Z</time></trkpt><trkpt lat="39.72748083225494" lon="9.328391196942526"><ele>679.0</ele><time>2026-04-30T09:24:20.182Z</time></trkpt><trkpt lat="39.727424919775736" lon="9.328636475317753"><ele>676.0</ele><time>2026-04-30T09:24:21.182Z</time></trkpt><trkpt lat="39.727362413013786" lon="9.328850907173361"><ele>677.0</ele><time>2026-04-30T09:24:22.183Z</time></trkpt><trkpt lat="39.72728154272726" lon="9.329022375346584"><ele>678.0</ele><time>2026-04-30T09:24:23.183Z</time></trkpt><trkpt lat="39.7271574500458" lon="9.329123780716747"><ele>679.0</ele><time>2026-04-30T09:24:24.183Z</time></trkpt><trkpt lat="39.72699674950221" lon="9.329148412131955"><ele>676.3333333333334</ele><time>2026-04-30T09:24:25.183Z</time></trkpt><trkpt lat="39.72681925823754" lon="9.329105064553788"><ele>673.6666666666666</ele><time>2026-04-30T09:24:26.183Z</time></trkpt><trkpt lat="39.72664709614756" lon="9.329057314832294"><ele>671.0</ele><time>2026-04-30T09:24:27.183Z</time></trkpt><trkpt lat="39.7264986039244" lon="9.329080650643887"><ele>671.0</ele><time>2026-04-30T09:24:28.183Z</time></trkpt><trkpt lat="39.72635428644644" lon="9.329195034534882"><ele>671.0</ele><time>2026-04-30T09:24:29.183Z</time></trkpt><trkpt lat="39.72621932704511" lon="9.329362822935584"><ele>671.0</ele><time>2026-04-30T09:24:30.183Z</time></trkpt><trkpt lat="39.72607552203118" lon="9.329541683254554"><ele>668.6666666666666</ele><time>2026-04-30T09:24:31.183Z</time></trkpt><trkpt lat="39.7259307261579" lon="9.32971482563671"><ele>666.3333333333334</ele><time>2026-04-30T09:24:32.183Z</time></trkpt><trkpt lat="39.72578712638387" lon="9.329874292820353"><ele>664.0</ele><time>2026-04-30T09:24:33.183Z</time></trkpt><trkpt lat="39.72565423565417" lon="9.330029299861234"><ele>664.0</ele><time>2026-04-30T09:24:34.183Z</time></trkpt><trkpt lat="39.72553000288949" lon="9.33017909446389"><ele>664.0</ele><time>2026-04-30T09:24:35.183Z</time></trkpt><trkpt lat="39.72539825062084" lon="9.330325901315737"><ele>664.0</ele><time>2026-04-30T09:24:36.183Z</time></trkpt><trkpt lat="39.72525685876265" lon="9.330481119655131"><ele>659.0</ele><time>2026-04-30T09:24:37.183Z</time></trkpt><trkpt lat="39.72512881046165" lon="9.330633683031044"><ele>654.0</ele><time>2026-04-30T09:24:38.183Z</time></trkpt><trkpt lat="39.72504030277124" lon="9.330805845181398"><ele>649.0</ele><time>2026-04-30T09:24:39.183Z</time></trkpt><trkpt lat="39.725004599379744" lon="9.331008078331859"><ele>649.0</ele><time>2026-04-30T09:24:40.183Z</time></trkpt><trkpt lat="39.725027035084125" lon="9.331235575132759"><ele>649.0</ele><time>2026-04-30T09:24:41.183Z</time></trkpt><trkpt lat="39.72505559839273" lon="9.331466931270471"><ele>649.0</ele><time>2026-04-30T09:24:42.183Z</time></trkpt><trkpt lat="39.7250229518795" lon="9.33167891367889"><ele>648.3333333333334</ele><time>2026-04-30T09:24:43.183Z</time></trkpt><trkpt lat="39.72492146928764" lon="9.331872659454477"><ele>647.6666666666666</ele><time>2026-04-30T09:24:44.183Z</time></trkpt><trkpt lat="39.72480804667784" lon="9.332078290011003"><ele>647.0</ele><time>2026-04-30T09:24:45.183Z</time></trkpt><trkpt lat="39.724683774327005" lon="9.33230388534467"><ele>647.0</ele><time>2026-04-30T09:24:46.183Z</time></trkpt><trkpt lat="39.72455817115107" lon="9.332537943182595"><ele>647.0</ele><time>2026-04-30T09:24:47.183Z</time></trkpt><trkpt lat="39.72442858457715" lon="9.332771120142358"><ele>647.0</ele><time>2026-04-30T09:24:48.183Z</time></trkpt><trkpt lat="39.72430032063508" lon="9.333002374992947"><ele>642.0</ele><time>2026-04-30T09:24:49.183Z</time></trkpt><trkpt lat="39.72416017462546" lon="9.333233702079534"><ele>637.0</ele><time>2026-04-30T09:24:50.183Z</time></trkpt><trkpt lat="39.72400768038027" lon="9.333451161076876"><ele>637.0</ele><time>2026-04-30T09:24:51.183Z</time></trkpt><trkpt lat="39.72384449817439" lon="9.333660430210974"><ele>637.0</ele><time>2026-04-30T09:24:52.183Z</time></trkpt><trkpt lat="39.723680543792305" lon="9.333876699593208"><ele>636.6666666666667</ele><time>2026-04-30T09:24:53.183Z</time></trkpt><trkpt lat="39.72352442612865" lon="9.334088178152426"><ele>636.3333333333334</ele><time>2026-04-30T09:24:54.183Z</time></trkpt><trkpt lat="39.72337288172541" lon="9.334283238888748"><ele>636.0</ele><time>2026-04-30T09:24:55.183Z</time></trkpt><trkpt lat="39.72319567348412" lon="9.334444174422522"><ele>636.0</ele><time>2026-04-30T09:24:56.183Z</time></trkpt><trkpt lat="39.72299628545188" lon="9.334578025412558"><ele>636.0</ele><time>2026-04-30T09:24:57.183Z</time></trkpt><trkpt lat="39.72278728153203" lon="9.334705418409474"><ele>637.0</ele><time>2026-04-30T09:24:58.183Z</time></trkpt><trkpt lat="39.72257865783421" lon="9.334828419113427"><ele>638.0</ele><time>2026-04-30T09:24:59.183Z</time></trkpt><trkpt lat="39.722368874976965" lon="9.33495612421229"><ele>638.0</ele><time>2026-04-30T09:25:00.183Z</time></trkpt><trkpt lat="39.72215715159302" lon="9.335093154869483"><ele>638.0</ele><time>2026-04-30T09:25:01.183Z</time></trkpt><trkpt lat="39.721949538333085" lon="9.33522136068252"><ele>636.3333333333333</ele><time>2026-04-30T09:25:02.183Z</time></trkpt><trkpt lat="39.72175090086478" lon="9.335343578258438"><ele>634.6666666666666</ele><time>2026-04-30T09:25:03.183Z</time></trkpt><trkpt lat="39.72154323685525" lon="9.335430284732503"><ele>633.0</ele><time>2026-04-30T09:25:04.183Z</time></trkpt><trkpt lat="39.72131696989094" lon="9.335466797566994"><ele>633.0</ele><time>2026-04-30T09:25:05.183Z</time></trkpt><trkpt lat="39.72108283104523" lon="9.335496957081592"><ele>633.0</ele><time>2026-04-30T09:25:06.183Z</time></trkpt><trkpt lat="39.72086814453825" lon="9.33552430016739"><ele>636.3333333333334</ele><time>2026-04-30T09:25:07.183Z</time></trkpt><trkpt lat="39.72066871919924" lon="9.33560952416059"><ele>639.6666666666667</ele><time>2026-04-30T09:25:08.183Z</time></trkpt><trkpt lat="39.720476471807935" lon="9.335737054101239"><ele>643.0</ele><time>2026-04-30T09:25:09.183Z</time></trkpt><trkpt lat="39.72026927093466" lon="9.335875610743782"><ele>638.3333333333334</ele><time>2026-04-30T09:25:10.183Z</time></trkpt><trkpt lat="39.720071417701796" lon="9.335995610581593"><ele>633.6666666666666</ele><time>2026-04-30T09:25:11.183Z</time></trkpt><trkpt lat="39.71989204140573" lon="9.336098154987363"><ele>629.0</ele><time>2026-04-30T09:25:12.183Z</time></trkpt><trkpt lat="39.71974892492381" lon="9.336192376088151"><ele>629.0</ele><time>2026-04-30T09:25:13.183Z</time></trkpt><trkpt lat="39.719645396134894" lon="9.336316328262651"><ele>629.0</ele><time>2026-04-30T09:25:14.183Z</time></trkpt><trkpt lat="39.71960299960215" lon="9.33650154425303"><ele>629.0</ele><time>2026-04-30T09:25:15.183Z</time></trkpt><trkpt lat="39.71960869991146" lon="9.33672570520174"><ele>633.0</ele><time>2026-04-30T09:25:16.183Z</time></trkpt><trkpt lat="39.71964141411624" lon="9.336958574863491"><ele>637.0</ele><time>2026-04-30T09:25:17.183Z</time></trkpt><trkpt lat="39.719640647382555" lon="9.337156983600405"><ele>641.0</ele><time>2026-04-30T09:25:18.183Z</time></trkpt><trkpt lat="39.71956939625761" lon="9.33735339495633"><ele>642.3333333333333</ele><time>2026-04-30T09:25:19.183Z</time></trkpt><trkpt lat="39.71943639010399" lon="9.337522124331489"><ele>643.6666666666666</ele><time>2026-04-30T09:25:20.183Z</time></trkpt><trkpt lat="39.71927203556324" lon="9.33766396806427"><ele>645.0</ele><time>2026-04-30T09:25:21.183Z</time></trkpt><trkpt lat="39.71909508308597" lon="9.337814959285918"><ele>639.5</ele><time>2026-04-30T09:25:22.183Z</time></trkpt><trkpt lat="39.71891547284621" lon="9.337984336902851"><ele>634.0</ele><time>2026-04-30T09:25:23.183Z</time></trkpt><trkpt lat="39.71873460303369" lon="9.338168312368854"><ele>625.5</ele><time>2026-04-30T09:25:24.183Z</time></trkpt><trkpt lat="39.718549309058545" lon="9.33835053604355"><ele>617.0</ele><time>2026-04-30T09:25:25.183Z</time></trkpt><trkpt lat="39.71836540957138" lon="9.338532385722452"><ele>617.0</ele><time>2026-04-30T09:25:26.183Z</time></trkpt><trkpt lat="39.71818454284937" lon="9.338709000880504"><ele>617.0</ele><time>2026-04-30T09:25:27.183Z</time></trkpt><trkpt lat="39.71801189947002" lon="9.338880157986242"><ele>617.0</ele><time>2026-04-30T09:25:28.183Z</time></trkpt><trkpt lat="39.717849757954255" lon="9.339046481077562"><ele>614.6666666666666</ele><time>2026-04-30T09:25:29.183Z</time></trkpt><trkpt lat="39.71769549653397" lon="9.339193862919213"><ele>612.3333333333334</ele><time>2026-04-30T09:25:30.183Z</time></trkpt><trkpt lat="39.71756219313913" lon="9.33933885891856"><ele>610.0</ele><time>2026-04-30T09:25:31.183Z</time></trkpt><trkpt lat="39.71745924629138" lon="9.339506548376328"><ele>611.0</ele><time>2026-04-30T09:25:32.183Z</time></trkpt><trkpt lat="39.71740767909054" lon="9.33972476492893"><ele>612.0</ele><time>2026-04-30T09:25:33.183Z</time></trkpt><trkpt lat="39.71737346734246" lon="9.339957297679161"><ele>613.0</ele><time>2026-04-30T09:25:34.183Z</time></trkpt><trkpt lat="39.71732744150516" lon="9.340180992381775"><ele>613.0</ele><time>2026-04-30T09:25:35.183Z</time></trkpt><trkpt lat="39.717259359658705" lon="9.34036997018304"><ele>613.0</ele><time>2026-04-30T09:25:36.183Z</time></trkpt><trkpt lat="39.717130322980495" lon="9.340518375805951"><ele>613.0</ele><time>2026-04-30T09:25:37.183Z</time></trkpt><trkpt lat="39.71694143109408" lon="9.340626148761018"><ele>610.6666666666667</ele><time>2026-04-30T09:25:38.183Z</time></trkpt><trkpt lat="39.716760570293296" lon="9.340755229930974"><ele>608.3333333333334</ele><time>2026-04-30T09:25:39.183Z</time></trkpt><trkpt lat="39.7165643729794" lon="9.34089348458748"><ele>606.0</ele><time>2026-04-30T09:25:40.183Z</time></trkpt><trkpt lat="39.71636490566788" lon="9.341015205318705"><ele>606.0</ele><time>2026-04-30T09:25:41.183Z</time></trkpt><trkpt lat="39.71617154670435" lon="9.341102993270168"><ele>606.0</ele><time>2026-04-30T09:25:42.183Z</time></trkpt><trkpt lat="39.71595418140489" lon="9.341126551028848"><ele>606.0</ele><time>2026-04-30T09:25:43.183Z</time></trkpt><trkpt lat="39.715708324962826" lon="9.341132683887945"><ele>603.0</ele><time>2026-04-30T09:25:44.183Z</time></trkpt><trkpt lat="39.715466163196126" lon="9.341170624880885"><ele>600.0</ele><time>2026-04-30T09:25:45.183Z</time></trkpt><trkpt lat="39.71525115837237" lon="9.341238977330649"><ele>598.3333333333334</ele><time>2026-04-30T09:25:46.183Z</time></trkpt><trkpt lat="39.71506083598064" lon="9.341308971001615"><ele>596.6666666666667</ele><time>2026-04-30T09:25:47.183Z</time></trkpt><trkpt lat="39.71488024777482" lon="9.341372800634671"><ele>595.0</ele><time>2026-04-30T09:25:48.183Z</time></trkpt><trkpt lat="39.714709177475925" lon="9.341370123497175"><ele>595.0</ele><time>2026-04-30T09:25:49.184Z</time></trkpt><trkpt lat="39.71454167755915" lon="9.341285207640373"><ele>595.0</ele><time>2026-04-30T09:25:50.184Z</time></trkpt><trkpt lat="39.71437792188358" lon="9.341170379694644"><ele>595.0</ele><time>2026-04-30T09:25:51.184Z</time></trkpt><trkpt lat="39.714190815258384" lon="9.341038556716947"><ele>597.0</ele><time>2026-04-30T09:25:52.184Z</time></trkpt><trkpt lat="39.71401157363838" lon="9.340919305596119"><ele>599.0</ele><time>2026-04-30T09:25:53.184Z</time></trkpt><trkpt lat="39.7138392921902" lon="9.340834334762874"><ele>601.0</ele><time>2026-04-30T09:25:54.184Z</time></trkpt><trkpt lat="39.71364914129436" lon="9.340800408266453"><ele>602.6666666666667</ele><time>2026-04-30T09:25:55.184Z</time></trkpt><trkpt lat="39.71345208182632" lon="9.340830135215633"><ele>604.3333333333334</ele><time>2026-04-30T09:25:56.184Z</time></trkpt><trkpt lat="39.71324810173092" lon="9.340904850650439"><ele>606.0</ele><time>2026-04-30T09:25:57.184Z</time></trkpt><trkpt lat="39.71301810430368" lon="9.340933981132679"><ele>606.0</ele><time>2026-04-30T09:25:58.184Z</time></trkpt><trkpt lat="39.71279882190484" lon="9.340977959546532"><ele>606.0</ele><time>2026-04-30T09:25:59.184Z</time></trkpt><trkpt lat="39.71257503585175" lon="9.341026258513788"><ele>606.0</ele><time>2026-04-30T09:26:00.184Z</time></trkpt><trkpt lat="39.712348929969146" lon="9.341073458295558"><ele>608.5</ele><time>2026-04-30T09:26:01.184Z</time></trkpt><trkpt lat="39.71212212144342" lon="9.341125960573232"><ele>611.0</ele><time>2026-04-30T09:26:02.184Z</time></trkpt><trkpt lat="39.71189073413799" lon="9.341177915527009"><ele>612.5</ele><time>2026-04-30T09:26:03.184Z</time></trkpt><trkpt lat="39.71165949862379" lon="9.34122894478945"><ele>614.0</ele><time>2026-04-30T09:26:04.184Z</time></trkpt><trkpt lat="39.71142138610122" lon="9.34128362042251"><ele>614.0</ele><time>2026-04-30T09:26:05.184Z</time></trkpt><trkpt lat="39.711181895681925" lon="9.341336696582765"><ele>614.0</ele><time>2026-04-30T09:26:06.184Z</time></trkpt><trkpt lat="39.71094078950821" lon="9.341389049126159"><ele>612.5</ele><time>2026-04-30T09:26:07.184Z</time></trkpt><trkpt lat="39.710699327144766" lon="9.34144215430068"><ele>611.0</ele><time>2026-04-30T09:26:08.184Z</time></trkpt><trkpt lat="39.71046027059939" lon="9.341493952690996"><ele>612.5</ele><time>2026-04-30T09:26:09.184Z</time></trkpt><trkpt lat="39.71021997095592" lon="9.34154738537295"><ele>614.0</ele><time>2026-04-30T09:26:10.184Z</time></trkpt><trkpt lat="39.70998054064136" lon="9.341602929128916"><ele>614.0</ele><time>2026-04-30T09:26:11.184Z</time></trkpt><trkpt lat="39.70974228764281" lon="9.341657793743773"><ele>614.0</ele><time>2026-04-30T09:26:12.184Z</time></trkpt><trkpt lat="39.70950393363038" lon="9.341710601827906"><ele>616.0</ele><time>2026-04-30T09:26:13.184Z</time></trkpt><trkpt lat="39.70926832817048" lon="9.341759286763315"><ele>618.0</ele><time>2026-04-30T09:26:14.184Z</time></trkpt><trkpt lat="39.709033187478816" lon="9.341806759436478"><ele>618.0</ele><time>2026-04-30T09:26:15.184Z</time></trkpt><trkpt lat="39.708799428669856" lon="9.341856729133182"><ele>618.0</ele><time>2026-04-30T09:26:16.184Z</time></trkpt><trkpt lat="39.70856325860594" lon="9.341906124610476"><ele>621.0</ele><time>2026-04-30T09:26:17.184Z</time></trkpt><trkpt lat="39.7083314305986" lon="9.341958502807767"><ele>624.0</ele><time>2026-04-30T09:26:18.184Z</time></trkpt><trkpt lat="39.70810071274795" lon="9.342012869522051"><ele>624.0</ele><time>2026-04-30T09:26:19.184Z</time></trkpt><trkpt lat="39.70786483893325" lon="9.34206457259469"><ele>624.0</ele><time>2026-04-30T09:26:20.184Z</time></trkpt><trkpt lat="39.70762875721232" lon="9.342112450387864"><ele>625.0</ele><time>2026-04-30T09:26:21.184Z</time></trkpt><trkpt lat="39.707391566845914" lon="9.342160131839947"><ele>626.0</ele><time>2026-04-30T09:26:22.184Z</time></trkpt><trkpt lat="39.707152313019186" lon="9.342215288268918"><ele>626.0</ele><time>2026-04-30T09:26:23.184Z</time></trkpt><trkpt lat="39.70691449998329" lon="9.342267907710522"><ele>626.0</ele><time>2026-04-30T09:26:24.184Z</time></trkpt><trkpt lat="39.70667801870445" lon="9.342314794667478"><ele>627.5</ele><time>2026-04-30T09:26:25.184Z</time></trkpt><trkpt lat="39.7064412070373" lon="9.34236076330441"><ele>629.0</ele><time>2026-04-30T09:26:26.184Z</time></trkpt><trkpt lat="39.70620132031987" lon="9.342413612461542"><ele>630.0</ele><time>2026-04-30T09:26:27.184Z</time></trkpt><trkpt lat="39.705967126026735" lon="9.342470392968513"><ele>631.0</ele><time>2026-04-30T09:26:28.185Z</time></trkpt><trkpt lat="39.705729146720515" lon="9.342530144725549"><ele>631.0</ele><time>2026-04-30T09:26:29.186Z</time></trkpt><trkpt lat="39.70549061645454" lon="9.342583233588382"><ele>631.0</ele><time>2026-04-30T09:26:30.186Z</time></trkpt><trkpt lat="39.70525081038353" lon="9.342631937656437"><ele>633.0</ele><time>2026-04-30T09:26:31.186Z</time></trkpt><trkpt lat="39.70500916234544" lon="9.342680759050024"><ele>635.0</ele><time>2026-04-30T09:26:32.185Z</time></trkpt><trkpt lat="39.70476686220327" lon="9.34274350280687"><ele>635.0</ele><time>2026-04-30T09:26:33.185Z</time></trkpt><trkpt lat="39.70453384154839" lon="9.342839456432895"><ele>635.0</ele><time>2026-04-30T09:26:34.186Z</time></trkpt><trkpt lat="39.70431627100323" lon="9.34298856742682"><ele>637.0</ele><time>2026-04-30T09:26:35.185Z</time></trkpt><trkpt lat="39.70411523663052" lon="9.343156312809642"><ele>639.0</ele><time>2026-04-30T09:26:36.185Z</time></trkpt><trkpt lat="39.70392168979348" lon="9.3433303368892"><ele>639.0</ele><time>2026-04-30T09:26:37.185Z</time></trkpt><trkpt lat="39.70373031575317" lon="9.343499214829926"><ele>639.0</ele><time>2026-04-30T09:26:38.185Z</time></trkpt><trkpt lat="39.703534393564624" lon="9.343667748812425"><ele>639.5</ele><time>2026-04-30T09:26:39.185Z</time></trkpt><trkpt lat="39.703332763962784" lon="9.343837093107279"><ele>640.0</ele><time>2026-04-30T09:26:40.185Z</time></trkpt><trkpt lat="39.70313410848391" lon="9.344010081466617"><ele>640.0</ele><time>2026-04-30T09:26:41.186Z</time></trkpt><trkpt lat="39.70293630245223" lon="9.34418334033787"><ele>640.0</ele><time>2026-04-30T09:26:42.186Z</time></trkpt><trkpt lat="39.70273674002659" lon="9.344358741044486"><ele>640.5</ele><time>2026-04-30T09:26:43.186Z</time></trkpt><trkpt lat="39.70253168618017" lon="9.344535744204947"><ele>641.0</ele><time>2026-04-30T09:26:44.186Z</time></trkpt><trkpt lat="39.7023266292416" lon="9.344718442089798"><ele>641.0</ele><time>2026-04-30T09:26:45.186Z</time></trkpt><trkpt lat="39.70212259417748" lon="9.344902027820629"><ele>641.0</ele><time>2026-04-30T09:26:46.186Z</time></trkpt><trkpt lat="39.701919136419974" lon="9.345081657860447"><ele>643.0</ele><time>2026-04-30T09:26:47.186Z</time></trkpt><trkpt lat="39.70171576893648" lon="9.345258550016228"><ele>645.0</ele><time>2026-04-30T09:26:48.186Z</time></trkpt><trkpt lat="39.70150992219085" lon="9.345430431457482"><ele>645.0</ele><time>2026-04-30T09:26:49.186Z</time></trkpt><trkpt lat="39.70129746202626" lon="9.345566621317957"><ele>645.0</ele><time>2026-04-30T09:26:50.186Z</time></trkpt><trkpt lat="39.701074303683306" lon="9.34566234248422"><ele>645.0</ele><time>2026-04-30T09:26:51.186Z</time></trkpt><trkpt lat="39.700845905700646" lon="9.345733297390197"><ele>645.0</ele><time>2026-04-30T09:26:52.186Z</time></trkpt><trkpt lat="39.7006126653719" lon="9.345805607293208"><ele>645.0</ele><time>2026-04-30T09:26:53.186Z</time></trkpt><trkpt lat="39.70038201363767" lon="9.345881552409573"><ele>645.0</ele><time>2026-04-30T09:26:54.186Z</time></trkpt><trkpt lat="39.70015098861101" lon="9.345958529303491"><ele>647.0</ele><time>2026-04-30T09:26:55.186Z</time></trkpt><trkpt lat="39.69991964160653" lon="9.34603558793944"><ele>649.0</ele><time>2026-04-30T09:26:56.186Z</time></trkpt><trkpt lat="39.69968821899823" lon="9.346112505958912"><ele>649.0</ele><time>2026-04-30T09:26:57.186Z</time></trkpt><trkpt lat="39.69945660246104" lon="9.346189547463757"><ele>649.0</ele><time>2026-04-30T09:26:58.186Z</time></trkpt><trkpt lat="39.69922551222855" lon="9.346269720920734"><ele>649.0</ele><time>2026-04-30T09:26:59.186Z</time></trkpt><trkpt lat="39.69899460065638" lon="9.346347801991731"><ele>649.0</ele><time>2026-04-30T09:27:00.186Z</time></trkpt><trkpt lat="39.698761446120166" lon="9.34642419552567"><ele>650.0</ele><time>2026-04-30T09:27:01.186Z</time></trkpt><trkpt lat="39.6985273931199" lon="9.34650276376985"><ele>651.0</ele><time>2026-04-30T09:27:02.186Z</time></trkpt><trkpt lat="39.698289930735875" lon="9.346582716537405"><ele>651.0</ele><time>2026-04-30T09:27:03.186Z</time></trkpt><trkpt lat="39.69805189588435" lon="9.346663723449605"><ele>651.0</ele><time>2026-04-30T09:27:04.186Z</time></trkpt><trkpt lat="39.697811792757285" lon="9.346745374279058"><ele>650.0</ele><time>2026-04-30T09:27:05.186Z</time></trkpt><trkpt lat="39.69757054631175" lon="9.34682846325146"><ele>649.0</ele><time>2026-04-30T09:27:06.186Z</time></trkpt><trkpt lat="39.69733201181646" lon="9.34692023195897"><ele>649.0</ele><time>2026-04-30T09:27:07.186Z</time></trkpt><trkpt lat="39.69709812778965" lon="9.347023672077105"><ele>649.0</ele><time>2026-04-30T09:27:08.186Z</time></trkpt><trkpt lat="39.696865090358806" lon="9.347142630529731"><ele>646.5</ele><time>2026-04-30T09:27:09.186Z</time></trkpt><trkpt lat="39.69662957267813" lon="9.347267441854777"><ele>644.0</ele><time>2026-04-30T09:27:10.186Z</time></trkpt><trkpt lat="39.69639270975614" lon="9.347385964309392"><ele>644.0</ele><time>2026-04-30T09:27:11.186Z</time></trkpt><trkpt lat="39.69615465921458" lon="9.347498248952457"><ele>644.0</ele><time>2026-04-30T09:27:12.186Z</time></trkpt><trkpt lat="39.695912822895245" lon="9.347614087123553"><ele>644.0</ele><time>2026-04-30T09:27:13.186Z</time></trkpt><trkpt lat="39.69566917977846" lon="9.347735832498307"><ele>644.0</ele><time>2026-04-30T09:27:14.186Z</time></trkpt><trkpt lat="39.69542550958032" lon="9.34785515654278"><ele>645.5</ele><time>2026-04-30T09:27:15.186Z</time></trkpt><trkpt lat="39.69518403820955" lon="9.347970902924926"><ele>647.0</ele><time>2026-04-30T09:27:16.186Z</time></trkpt><trkpt lat="39.69494593953833" lon="9.348085474819348"><ele>643.0</ele><time>2026-04-30T09:27:17.186Z</time></trkpt><trkpt lat="39.69470801337896" lon="9.348199700397497"><ele>639.0</ele><time>2026-04-30T09:27:18.186Z</time></trkpt><trkpt lat="39.69447092772802" lon="9.348315582241026"><ele>639.0</ele><time>2026-04-30T09:27:19.186Z</time></trkpt><trkpt lat="39.69423287319923" lon="9.348430826679138"><ele>639.0</ele><time>2026-04-30T09:27:20.186Z</time></trkpt><trkpt lat="39.69399203618451" lon="9.348547752270779"><ele>639.0</ele><time>2026-04-30T09:27:21.186Z</time></trkpt><trkpt lat="39.69374895672704" lon="9.34866490582791"><ele>639.0</ele><time>2026-04-30T09:27:22.186Z</time></trkpt><trkpt lat="39.693502521046874" lon="9.348787556157879"><ele>635.0</ele><time>2026-04-30T09:27:23.186Z</time></trkpt><trkpt lat="39.69325741799533" lon="9.34891135306799"><ele>631.0</ele><time>2026-04-30T09:27:24.186Z</time></trkpt><trkpt lat="39.693016199309724" lon="9.349030125989781"><ele>631.0</ele><time>2026-04-30T09:27:25.186Z</time></trkpt><trkpt lat="39.692773240198854" lon="9.349139883721557"><ele>631.0</ele><time>2026-04-30T09:27:26.186Z</time></trkpt><trkpt lat="39.692525531145" lon="9.349231259540549"><ele>632.0</ele><time>2026-04-30T09:27:27.186Z</time></trkpt><trkpt lat="39.69226963348063" lon="9.349311346221253"><ele>633.0</ele><time>2026-04-30T09:27:28.186Z</time></trkpt><trkpt lat="39.69201118912331" lon="9.349386096131887"><ele>631.5</ele><time>2026-04-30T09:27:29.186Z</time></trkpt><trkpt lat="39.69175758521772" lon="9.349457610758508"><ele>630.0</ele><time>2026-04-30T09:27:30.186Z</time></trkpt><trkpt lat="39.69151409525399" lon="9.349530760454554"><ele>630.0</ele><time>2026-04-30T09:27:31.186Z</time></trkpt><trkpt lat="39.69128983228008" lon="9.349601420254945"><ele>630.0</ele><time>2026-04-30T09:27:32.186Z</time></trkpt><trkpt lat="39.69108429930697" lon="9.34965305363407"><ele>630.0</ele><time>2026-04-30T09:27:33.186Z</time></trkpt><trkpt lat="39.690879517798685" lon="9.349634377257669"><ele>629.0</ele><time>2026-04-30T09:27:34.186Z</time></trkpt><trkpt lat="39.690670317677395" lon="9.34955087104966"><ele>628.0</ele><time>2026-04-30T09:27:35.186Z</time></trkpt><trkpt lat="39.69045520473137" lon="9.34945033504771"><ele>627.0</ele><time>2026-04-30T09:27:36.186Z</time></trkpt><trkpt lat="39.69023071776504" lon="9.349335871038924"><ele>624.5</ele><time>2026-04-30T09:27:37.186Z</time></trkpt><trkpt lat="39.68998904529739" lon="9.34922112047704"><ele>622.0</ele><time>2026-04-30T09:27:38.186Z</time></trkpt><trkpt lat="39.689751658894785" lon="9.349090610262044"><ele>622.0</ele><time>2026-04-30T09:27:39.186Z</time></trkpt><trkpt lat="39.68950362903569" lon="9.348956476997639"><ele>622.0</ele><time>2026-04-30T09:27:40.186Z</time></trkpt><trkpt lat="39.68925590027559" lon="9.34882533207499"><ele>620.0</ele><time>2026-04-30T09:27:41.186Z</time></trkpt><trkpt lat="39.68900616120319" lon="9.348701586811899"><ele>618.0</ele><time>2026-04-30T09:27:42.186Z</time></trkpt><trkpt lat="39.68875810532119" lon="9.348575654934717"><ele>616.0</ele><time>2026-04-30T09:27:43.186Z</time></trkpt><trkpt lat="39.68850639744134" lon="9.348451772031114"><ele>614.0</ele><time>2026-04-30T09:27:44.186Z</time></trkpt><trkpt lat="39.688258233743724" lon="9.34832634772943"><ele>614.0</ele><time>2026-04-30T09:27:45.186Z</time></trkpt><trkpt lat="39.68801176294425" lon="9.348203995128708"><ele>614.0</ele><time>2026-04-30T09:27:46.186Z</time></trkpt><trkpt lat="39.687768069052574" lon="9.348080748893516"><ele>614.0</ele><time>2026-04-30T09:27:47.186Z</time></trkpt><trkpt lat="39.68752281329566" lon="9.347962270328486"><ele>614.0</ele><time>2026-04-30T09:27:48.186Z</time></trkpt><trkpt lat="39.687282668850806" lon="9.34784181219714"><ele>614.0</ele><time>2026-04-30T09:27:49.186Z</time></trkpt><trkpt lat="39.687043883642176" lon="9.347722085674217"><ele>614.0</ele><time>2026-04-30T09:27:50.186Z</time></trkpt><trkpt lat="39.68680125477652" lon="9.347612384529615"><ele>612.0</ele><time>2026-04-30T09:27:51.186Z</time></trkpt><trkpt lat="39.686563929377485" lon="9.347502254507319"><ele>610.0</ele><time>2026-04-30T09:27:52.186Z</time></trkpt><trkpt lat="39.68633073015759" lon="9.347380121415215"><ele>610.0</ele><time>2026-04-30T09:27:53.186Z</time></trkpt><trkpt lat="39.686103846821" lon="9.347251330387161"><ele>610.0</ele><time>2026-04-30T09:27:54.186Z</time></trkpt><trkpt lat="39.68587739771058" lon="9.347129626695715"><ele>609.0</ele><time>2026-04-30T09:27:55.186Z</time></trkpt><trkpt lat="39.685649804582226" lon="9.347010677151232"><ele>608.0</ele><time>2026-04-30T09:27:56.186Z</time></trkpt><trkpt lat="39.68541921197252" lon="9.346894758994154"><ele>605.0</ele><time>2026-04-30T09:27:57.186Z</time></trkpt><trkpt lat="39.685186753504176" lon="9.34677833904446"><ele>602.0</ele><time>2026-04-30T09:27:58.186Z</time></trkpt><trkpt lat="39.684959804474545" lon="9.346657994825746"><ele>602.0</ele><time>2026-04-30T09:27:59.186Z</time></trkpt><trkpt lat="39.684733501187075" lon="9.346541894000978"><ele>602.0</ele><time>2026-04-30T09:28:00.186Z</time></trkpt><trkpt lat="39.68450263440227" lon="9.346477543252814"><ele>601.5</ele><time>2026-04-30T09:28:01.186Z</time></trkpt><trkpt lat="39.68426631640095" lon="9.346479362413213"><ele>601.0</ele><time>2026-04-30T09:28:02.186Z</time></trkpt><trkpt lat="39.68402724575587" lon="9.34651892466866"><ele>601.0</ele><time>2026-04-30T09:28:03.186Z</time></trkpt><trkpt lat="39.68378832173351" lon="9.346573556144437"><ele>601.0</ele><time>2026-04-30T09:28:04.186Z</time></trkpt><trkpt lat="39.683549065257246" lon="9.346628018318265"><ele>600.0</ele><time>2026-04-30T09:28:05.186Z</time></trkpt><trkpt lat="39.683308765052004" lon="9.34667980790947"><ele>599.0</ele><time>2026-04-30T09:28:06.186Z</time></trkpt><trkpt lat="39.68306326991604" lon="9.346730880893356"><ele>599.0</ele><time>2026-04-30T09:28:07.186Z</time></trkpt><trkpt lat="39.6828136093251" lon="9.346783732990447"><ele>599.0</ele><time>2026-04-30T09:28:08.186Z</time></trkpt><trkpt lat="39.68255865028079" lon="9.346837680080823"><ele>598.0</ele><time>2026-04-30T09:28:09.186Z</time></trkpt><trkpt lat="39.682304262638105" lon="9.346894253838899"><ele>597.0</ele><time>2026-04-30T09:28:10.186Z</time></trkpt><trkpt lat="39.682052791896304" lon="9.34694719574046"><ele>595.5</ele><time>2026-04-30T09:28:11.186Z</time></trkpt><trkpt lat="39.681798740747624" lon="9.346995890382573"><ele>594.0</ele><time>2026-04-30T09:28:12.186Z</time></trkpt><trkpt lat="39.68154582130145" lon="9.34704770566953"><ele>594.0</ele><time>2026-04-30T09:28:13.186Z</time></trkpt><trkpt lat="39.681295025858375" lon="9.347103503262773"><ele>594.0</ele><time>2026-04-30T09:28:14.186Z</time></trkpt><trkpt lat="39.68104278941902" lon="9.347158801799573"><ele>593.0</ele><time>2026-04-30T09:28:15.186Z</time></trkpt><trkpt lat="39.68079033860872" lon="9.347214585186777"><ele>592.0</ele><time>2026-04-30T09:28:16.187Z</time></trkpt><trkpt lat="39.680536392995464" lon="9.347274714928721"><ele>592.0</ele><time>2026-04-30T09:28:17.187Z</time></trkpt><trkpt lat="39.68028313339414" lon="9.347341830057411"><ele>592.0</ele><time>2026-04-30T09:28:18.187Z</time></trkpt><trkpt lat="39.680029442716034" lon="9.347410391945678"><ele>589.5</ele><time>2026-04-30T09:28:19.187Z</time></trkpt><trkpt lat="39.67977209387019" lon="9.347476162738731"><ele>587.0</ele><time>2026-04-30T09:28:20.187Z</time></trkpt><trkpt lat="39.679515451361986" lon="9.34754081951255"><ele>583.0</ele><time>2026-04-30T09:28:21.187Z</time></trkpt><trkpt lat="39.67925969133837" lon="9.347604891992644"><ele>579.0</ele><time>2026-04-30T09:28:22.187Z</time></trkpt><trkpt lat="39.679005986187136" lon="9.347669707405029"><ele>579.0</ele><time>2026-04-30T09:28:23.187Z</time></trkpt><trkpt lat="39.678753539154606" lon="9.34773538517457"><ele>579.0</ele><time>2026-04-30T09:28:24.187Z</time></trkpt><trkpt lat="39.678502875837005" lon="9.347801673267476"><ele>576.0</ele><time>2026-04-30T09:28:25.187Z</time></trkpt><trkpt lat="39.678252723827924" lon="9.347866978770455"><ele>573.0</ele><time>2026-04-30T09:28:26.187Z</time></trkpt><trkpt lat="39.677999416450625" lon="9.347930085797469"><ele>570.0</ele><time>2026-04-30T09:28:27.187Z</time></trkpt><trkpt lat="39.67774788917074" lon="9.347993787497872"><ele>567.0</ele><time>2026-04-30T09:28:28.187Z</time></trkpt><trkpt lat="39.67749650389179" lon="9.348063477206354"><ele>566.0</ele><time>2026-04-30T09:28:29.187Z</time></trkpt><trkpt lat="39.677241638619726" lon="9.348135988699438"><ele>565.0</ele><time>2026-04-30T09:28:30.187Z</time></trkpt><trkpt lat="39.67698263451682" lon="9.348201424107652"><ele>564.0</ele><time>2026-04-30T09:28:31.187Z</time></trkpt><trkpt lat="39.676725298270725" lon="9.348266873639453"><ele>563.0</ele><time>2026-04-30T09:28:32.187Z</time></trkpt><trkpt lat="39.67647014526738" lon="9.348334428834557"><ele>563.0</ele><time>2026-04-30T09:28:33.187Z</time></trkpt><trkpt lat="39.676218099057756" lon="9.348400023711047"><ele>563.0</ele><time>2026-04-30T09:28:34.187Z</time></trkpt><trkpt lat="39.67598000305485" lon="9.348463280786548"><ele>561.0</ele><time>2026-04-30T09:28:35.187Z</time></trkpt><trkpt lat="39.67575035677773" lon="9.348524639778887"><ele>559.0</ele><time>2026-04-30T09:28:36.188Z</time></trkpt><trkpt lat="39.67552622349637" lon="9.348584392580143"><ele>559.0</ele><time>2026-04-30T09:28:37.188Z</time></trkpt><trkpt lat="39.6753166089305" lon="9.348607381084458"><ele>559.0</ele><time>2026-04-30T09:28:38.188Z</time></trkpt><trkpt lat="39.67509961062177" lon="9.348563912767679"><ele>559.0</ele><time>2026-04-30T09:28:39.188Z</time></trkpt><trkpt lat="39.67487196297405" lon="9.348483278934108"><ele>556.5</ele><time>2026-04-30T09:28:40.188Z</time></trkpt><trkpt lat="39.6746351383469" lon="9.348409665876714"><ele>554.0</ele><time>2026-04-30T09:28:41.188Z</time></trkpt><trkpt lat="39.67438987371987" lon="9.348335371237917"><ele>550.0</ele><time>2026-04-30T09:28:42.188Z</time></trkpt><trkpt lat="39.67414521515715" lon="9.348259342321295"><ele>546.0</ele><time>2026-04-30T09:28:43.187Z</time></trkpt><trkpt lat="39.673894499837566" lon="9.348181650552664"><ele>546.0</ele><time>2026-04-30T09:28:44.187Z</time></trkpt><trkpt lat="39.673638177394686" lon="9.348104053673868"><ele>546.0</ele><time>2026-04-30T09:28:45.188Z</time></trkpt><trkpt lat="39.67337875269517" lon="9.34801933337358"><ele>542.0</ele><time>2026-04-30T09:28:46.187Z</time></trkpt><trkpt lat="39.67312669693863" lon="9.347947011199922"><ele>538.0</ele><time>2026-04-30T09:28:47.187Z</time></trkpt><trkpt lat="39.672873609245514" lon="9.34787080527712"><ele>536.0</ele><time>2026-04-30T09:28:48.187Z</time></trkpt><trkpt lat="39.67262263287646" lon="9.347797641722027"><ele>534.0</ele><time>2026-04-30T09:28:49.187Z</time></trkpt><trkpt lat="39.67238058209429" lon="9.347722211538557"><ele>534.0</ele><time>2026-04-30T09:28:50.187Z</time></trkpt><trkpt lat="39.6721535987519" lon="9.347645296386954"><ele>534.0</ele><time>2026-04-30T09:28:51.187Z</time></trkpt><trkpt lat="39.67193445897964" lon="9.347587705849271"><ele>532.3333333333334</ele><time>2026-04-30T09:28:52.187Z</time></trkpt><trkpt lat="39.67171736634326" lon="9.347594197873597"><ele>530.6666666666667</ele><time>2026-04-30T09:28:53.187Z</time></trkpt><trkpt lat="39.67149380704769" lon="9.347660129502302"><ele>529.0</ele><time>2026-04-30T09:28:54.187Z</time></trkpt><trkpt lat="39.67125704113656" lon="9.34774520520375"><ele>526.5</ele><time>2026-04-30T09:28:55.187Z</time></trkpt><trkpt lat="39.67101286505955" lon="9.347823247071267"><ele>524.0</ele><time>2026-04-30T09:28:56.187Z</time></trkpt><trkpt lat="39.67077977486123" lon="9.347894269165351"><ele>524.0</ele><time>2026-04-30T09:28:57.187Z</time></trkpt><trkpt lat="39.67056632967343" lon="9.347982152023278"><ele>524.0</ele><time>2026-04-30T09:28:58.187Z</time></trkpt><trkpt lat="39.67038239115813" lon="9.348140001962827"><ele>524.0</ele><time>2026-04-30T09:28:59.187Z</time></trkpt><trkpt lat="39.67021645345669" lon="9.348351937679709"><ele>522.0</ele><time>2026-04-30T09:29:00.187Z</time></trkpt><trkpt lat="39.670051744063834" lon="9.34857170387577"><ele>520.0</ele><time>2026-04-30T09:29:01.187Z</time></trkpt><trkpt lat="39.669873263696175" lon="9.348792380918281"><ele>517.5</ele><time>2026-04-30T09:29:02.187Z</time></trkpt><trkpt lat="39.66969121608352" lon="9.349019012149487"><ele>515.0</ele><time>2026-04-30T09:29:03.187Z</time></trkpt><trkpt lat="39.66950938388576" lon="9.349249913771033"><ele>513.5</ele><time>2026-04-30T09:29:04.187Z</time></trkpt><trkpt lat="39.66932480908049" lon="9.349484556286377"><ele>512.0</ele><time>2026-04-30T09:29:05.187Z</time></trkpt><trkpt lat="39.66914328002376" lon="9.349715546879958"><ele>510.0</ele><time>2026-04-30T09:29:06.187Z</time></trkpt><trkpt lat="39.668952195108794" lon="9.349942936016461"><ele>508.0</ele><time>2026-04-30T09:29:07.188Z</time></trkpt><trkpt lat="39.668747137555435" lon="9.350142927654645"><ele>506.0</ele><time>2026-04-30T09:29:08.188Z</time></trkpt><trkpt lat="39.66853150615699" lon="9.350320635188952"><ele>504.0</ele><time>2026-04-30T09:29:09.188Z</time></trkpt><trkpt lat="39.66831852488823" lon="9.35049436956212"><ele>502.0</ele><time>2026-04-30T09:29:10.188Z</time></trkpt><trkpt lat="39.66811672999104" lon="9.350663116144366"><ele>500.0</ele><time>2026-04-30T09:29:11.188Z</time></trkpt><trkpt lat="39.66792449258985" lon="9.350819387267201"><ele>500.0</ele><time>2026-04-30T09:29:12.188Z</time></trkpt><trkpt lat="39.667742598335934" lon="9.350957682455366"><ele>500.0</ele><time>2026-04-30T09:29:13.188Z</time></trkpt><trkpt lat="39.667562307731316" lon="9.351065571633507"><ele>500.0</ele><time>2026-04-30T09:29:14.188Z</time></trkpt><trkpt lat="39.667357338291865" lon="9.351089552091738"><ele>500.0</ele><time>2026-04-30T09:29:15.188Z</time></trkpt><trkpt lat="39.667144599286075" lon="9.351080227882713"><ele>500.0</ele><time>2026-04-30T09:29:16.188Z</time></trkpt><trkpt lat="39.66691295276276" lon="9.35107665196183"><ele>500.0</ele><time>2026-04-30T09:29:17.188Z</time></trkpt><trkpt lat="39.666682443924266" lon="9.351078619001884"><ele>498.0</ele><time>2026-04-30T09:29:18.188Z</time></trkpt><trkpt lat="39.666477596432586" lon="9.351073594079722"><ele>496.0</ele><time>2026-04-30T09:29:19.188Z</time></trkpt><trkpt lat="39.666294799049396" lon="9.35099798452838"><ele>494.0</ele><time>2026-04-30T09:29:20.188Z</time></trkpt><trkpt lat="39.66611848915863" lon="9.350850357545255"><ele>491.0</ele><time>2026-04-30T09:29:21.188Z</time></trkpt><trkpt lat="39.66595246674188" lon="9.350802574144517"><ele>488.0</ele><time>2026-04-30T09:29:22.188Z</time></trkpt><trkpt lat="39.66578154743751" lon="9.350852251301387"><ele>485.0</ele><time>2026-04-30T09:29:23.188Z</time></trkpt><trkpt lat="39.66559410430695" lon="9.350913022672035"><ele>485.0</ele><time>2026-04-30T09:29:24.188Z</time></trkpt><trkpt lat="39.66539409734043" lon="9.350991775887612"><ele>485.0</ele><time>2026-04-30T09:29:25.188Z</time></trkpt><trkpt lat="39.665174955953134" lon="9.351055281982577"><ele>485.0</ele><time>2026-04-30T09:29:26.188Z</time></trkpt><trkpt lat="39.664949629312986" lon="9.351107545485453"><ele>482.66666666666663</ele><time>2026-04-30T09:29:27.188Z</time></trkpt><trkpt lat="39.66474038818371" lon="9.351152950574825"><ele>480.33333333333337</ele><time>2026-04-30T09:29:28.188Z</time></trkpt><trkpt lat="39.66454315354069" lon="9.351200263110146"><ele>478.0</ele><time>2026-04-30T09:29:29.188Z</time></trkpt><trkpt lat="39.66435794662999" lon="9.351311770864905"><ele>476.33333333333337</ele><time>2026-04-30T09:29:30.188Z</time></trkpt><trkpt lat="39.66418788804881" lon="9.35148402102779"><ele>474.66666666666663</ele><time>2026-04-30T09:29:31.188Z</time></trkpt><trkpt lat="39.66401861979142" lon="9.351610346119203"><ele>473.0</ele><time>2026-04-30T09:29:32.188Z</time></trkpt><trkpt lat="39.66382098084244" lon="9.351691294727319"><ele>472.3333333333333</ele><time>2026-04-30T09:29:33.188Z</time></trkpt><trkpt lat="39.66360380069824" lon="9.35173798701014"><ele>471.66666666666663</ele><time>2026-04-30T09:29:34.188Z</time></trkpt><trkpt lat="39.663390709144736" lon="9.351774223274386"><ele>471.0</ele><time>2026-04-30T09:29:35.188Z</time></trkpt><trkpt lat="39.66317452286531" lon="9.351830875074135"><ele>471.0</ele><time>2026-04-30T09:29:36.188Z</time></trkpt><trkpt lat="39.662956124223676" lon="9.351882576102886"><ele>471.0</ele><time>2026-04-30T09:29:37.188Z</time></trkpt><trkpt lat="39.66273836207233" lon="9.35192075193855"><ele>471.0</ele><time>2026-04-30T09:29:38.188Z</time></trkpt><trkpt lat="39.66251997913093" lon="9.351911429278323"><ele>469.66666666666663</ele><time>2026-04-30T09:29:39.188Z</time></trkpt><trkpt lat="39.662301952693774" lon="9.351858239975495"><ele>468.3333333333333</ele><time>2026-04-30T09:29:40.188Z</time></trkpt><trkpt lat="39.66208803678569" lon="9.351781983754044"><ele>467.0</ele><time>2026-04-30T09:29:41.188Z</time></trkpt><trkpt lat="39.66187890421793" lon="9.351703635464247"><ele>465.3333333333333</ele><time>2026-04-30T09:29:42.188Z</time></trkpt><trkpt lat="39.661679312370794" lon="9.35163701880186"><ele>463.66666666666663</ele><time>2026-04-30T09:29:43.188Z</time></trkpt><trkpt lat="39.66147815397995" lon="9.351602396475924"><ele>462.0</ele><time>2026-04-30T09:29:44.188Z</time></trkpt><trkpt lat="39.661266214085146" lon="9.351611064043812"><ele>460.0</ele><time>2026-04-30T09:29:45.188Z</time></trkpt><trkpt lat="39.66104713707615" lon="9.351644471008603"><ele>458.0</ele><time>2026-04-30T09:29:46.188Z</time></trkpt><trkpt lat="39.66082039201315" lon="9.351696964378007"><ele>458.0</ele><time>2026-04-30T09:29:47.188Z</time></trkpt><trkpt lat="39.660589536060506" lon="9.351762363513311"><ele>458.0</ele><time>2026-04-30T09:29:48.188Z</time></trkpt><trkpt lat="39.660352739897306" lon="9.351824484178044"><ele>454.0</ele><time>2026-04-30T09:29:49.188Z</time></trkpt><trkpt lat="39.66011429082568" lon="9.351888118286217"><ele>450.0</ele><time>2026-04-30T09:29:50.188Z</time></trkpt><trkpt lat="39.65988334664133" lon="9.351947754988764"><ele>450.0</ele><time>2026-04-30T09:29:51.188Z</time></trkpt><trkpt lat="39.65966671188115" lon="9.352000933426304"><ele>450.0</ele><time>2026-04-30T09:29:52.188Z</time></trkpt><trkpt lat="39.659474875310124" lon="9.352089041505637"><ele>450.0</ele><time>2026-04-30T09:29:53.188Z</time></trkpt><trkpt lat="39.659310305361934" lon="9.352245986893486"><ele>450.0</ele><time>2026-04-30T09:29:54.188Z</time></trkpt><trkpt lat="39.65915489479219" lon="9.352439752082002"><ele>450.0</ele><time>2026-04-30T09:29:55.188Z</time></trkpt><trkpt lat="39.658984964824135" lon="9.352640276158251"><ele>450.0</ele><time>2026-04-30T09:29:56.188Z</time></trkpt><trkpt lat="39.65879921694641" lon="9.3528251856886"><ele>450.0</ele><time>2026-04-30T09:29:57.188Z</time></trkpt><trkpt lat="39.65860333213864" lon="9.35299614263811"><ele>450.0</ele><time>2026-04-30T09:29:58.188Z</time></trkpt><trkpt lat="39.658404161909935" lon="9.353159229230851"><ele>449.5</ele><time>2026-04-30T09:29:59.188Z</time></trkpt><trkpt lat="39.658210326026555" lon="9.353318079010926"><ele>449.0</ele><time>2026-04-30T09:30:00.188Z</time></trkpt><trkpt lat="39.65801926527257" lon="9.353478013689976"><ele>449.0</ele><time>2026-04-30T09:30:01.188Z</time></trkpt><trkpt lat="39.657831817374635" lon="9.353634625475237"><ele>449.0</ele><time>2026-04-30T09:30:02.188Z</time></trkpt><trkpt lat="39.65764125976859" lon="9.353786145358661"><ele>449.0</ele><time>2026-04-30T09:30:03.188Z</time></trkpt><trkpt lat="39.65745577326996" lon="9.353942565688472"><ele>448.0</ele><time>2026-04-30T09:30:04.188Z</time></trkpt><trkpt lat="39.657266995399034" lon="9.354082606415764"><ele>447.0</ele><time>2026-04-30T09:30:05.188Z</time></trkpt><trkpt lat="39.65705690351927" lon="9.354172555632077"><ele>446.0</ele><time>2026-04-30T09:30:06.188Z</time></trkpt><trkpt lat="39.656835499810505" lon="9.354232703245534"><ele>446.0</ele><time>2026-04-30T09:30:07.188Z</time></trkpt><trkpt lat="39.65660903334003" lon="9.354282544870506"><ele>446.0</ele><time>2026-04-30T09:30:08.188Z</time></trkpt><trkpt lat="39.65638053547629" lon="9.35433266394871"><ele>446.0</ele><time>2026-04-30T09:30:09.188Z</time></trkpt><trkpt lat="39.65615501988589" lon="9.354382965158841"><ele>446.0</ele><time>2026-04-30T09:30:10.188Z</time></trkpt><trkpt lat="39.6559341638186" lon="9.354433450909532"><ele>445.3333333333333</ele><time>2026-04-30T09:30:11.188Z</time></trkpt><trkpt lat="39.65573360309267" lon="9.354487956069999"><ele>444.66666666666663</ele><time>2026-04-30T09:30:12.188Z</time></trkpt><trkpt lat="39.65554104176592" lon="9.354567955373973"><ele>444.0</ele><time>2026-04-30T09:30:13.188Z</time></trkpt><trkpt lat="39.65535865916809" lon="9.35469848421149"><ele>442.66666666666663</ele><time>2026-04-30T09:30:14.188Z</time></trkpt><trkpt lat="39.65518300543489" lon="9.354854685721072"><ele>441.3333333333333</ele><time>2026-04-30T09:30:15.188Z</time></trkpt><trkpt lat="39.65503568439593" lon="9.35503247565996"><ele>440.0</ele><time>2026-04-30T09:30:16.188Z</time></trkpt><trkpt lat="39.654941461679925" lon="9.355255429540316"><ele>440.0</ele><time>2026-04-30T09:30:17.188Z</time></trkpt><trkpt lat="39.654867609212694" lon="9.355518533397591"><ele>440.0</ele><time>2026-04-30T09:30:18.188Z</time></trkpt><trkpt lat="39.65479719756237" lon="9.355762424649603"><ele>440.0</ele><time>2026-04-30T09:30:19.188Z</time></trkpt><trkpt lat="39.65470601209177" lon="9.355974994516464"><ele>437.3333333333333</ele><time>2026-04-30T09:30:20.188Z</time></trkpt><trkpt lat="39.654565160089675" lon="9.356113015149813"><ele>434.66666666666663</ele><time>2026-04-30T09:30:21.188Z</time></trkpt><trkpt lat="39.654374574938295" lon="9.35617511129995"><ele>432.0</ele><time>2026-04-30T09:30:22.188Z</time></trkpt><trkpt lat="39.65416064144622" lon="9.356237071288215"><ele>430.66666666666663</ele><time>2026-04-30T09:30:23.188Z</time></trkpt><trkpt lat="39.65396733684733" lon="9.356358024348616"><ele>429.3333333333333</ele><time>2026-04-30T09:30:24.188Z</time></trkpt><trkpt lat="39.65379002735771" lon="9.3565190400253"><ele>428.0</ele><time>2026-04-30T09:30:25.188Z</time></trkpt><trkpt lat="39.653624583915715" lon="9.356692960758759"><ele>426.66666666666663</ele><time>2026-04-30T09:30:26.188Z</time></trkpt><trkpt lat="39.65346765866416" lon="9.356847031148542"><ele>425.33333333333337</ele><time>2026-04-30T09:30:27.188Z</time></trkpt><trkpt lat="39.653330439236406" lon="9.356975547810185"><ele>424.0</ele><time>2026-04-30T09:30:28.188Z</time></trkpt><trkpt lat="39.653167032506765" lon="9.357033502493568"><ele>424.0</ele><time>2026-04-30T09:30:29.188Z</time></trkpt><trkpt lat="39.65300593531064" lon="9.35701207933082"><ele>424.0</ele><time>2026-04-30T09:30:30.188Z</time></trkpt><trkpt lat="39.65286689665913" lon="9.356923432013653"><ele>424.0</ele><time>2026-04-30T09:30:31.188Z</time></trkpt><trkpt lat="39.652732958943886" lon="9.356768006525828"><ele>423.0</ele><time>2026-04-30T09:30:32.188Z</time></trkpt><trkpt lat="39.65256890509827" lon="9.356623801953688"><ele>422.0</ele><time>2026-04-30T09:30:33.188Z</time></trkpt><trkpt lat="39.65238213760967" lon="9.356542165409488"><ele>421.0</ele><time>2026-04-30T09:30:34.188Z</time></trkpt><trkpt lat="39.652167457316025" lon="9.356529846593096"><ele>421.0</ele><time>2026-04-30T09:30:35.188Z</time></trkpt><trkpt lat="39.65196324549138" lon="9.356516627027705"><ele>421.0</ele><time>2026-04-30T09:30:36.188Z</time></trkpt><trkpt lat="39.651763019042534" lon="9.35648580827046"><ele>421.0</ele><time>2026-04-30T09:30:37.188Z</time></trkpt><trkpt lat="39.651561502231715" lon="9.356435207029856"><ele>419.33333333333337</ele><time>2026-04-30T09:30:38.188Z</time></trkpt><trkpt lat="39.65137352474929" lon="9.356421444088332"><ele>417.66666666666663</ele><time>2026-04-30T09:30:39.19Z</time></trkpt><trkpt lat="39.65116437361608" lon="9.356456083611404"><ele>416.0</ele><time>2026-04-30T09:30:40.19Z</time></trkpt><trkpt lat="39.65095514656994" lon="9.356519561780765"><ele>413.3333333333333</ele><time>2026-04-30T09:30:41.19Z</time></trkpt><trkpt lat="39.65073195359075" lon="9.356601928384865"><ele>410.66666666666663</ele><time>2026-04-30T09:30:42.19Z</time></trkpt><trkpt lat="39.6505236984149" lon="9.356674025822125"><ele>408.0</ele><time>2026-04-30T09:30:43.19Z</time></trkpt><trkpt lat="39.65031464293442" lon="9.356738733258878"><ele>407.33333333333337</ele><time>2026-04-30T09:30:44.19Z</time></trkpt><trkpt lat="39.65011482515826" lon="9.356755939457274"><ele>406.6666666666667</ele><time>2026-04-30T09:30:45.191Z</time></trkpt><trkpt lat="39.65000036186169" lon="9.356708296507675"><ele>406.0</ele><time>2026-04-30T09:30:46.191Z</time></trkpt><trkpt lat="39.649857157400405" lon="9.35673023075057"><ele>406.0</ele><time>2026-04-30T09:30:47.191Z</time></trkpt><trkpt lat="39.64968747451003" lon="9.356801752490703"><ele>406.0</ele><time>2026-04-30T09:30:48.191Z</time></trkpt><trkpt lat="39.64952703471531" lon="9.356871767189777"><ele>406.0</ele><time>2026-04-30T09:30:49.19Z</time></trkpt><trkpt lat="39.649369393465584" lon="9.356947448861865"><ele>404.0</ele><time>2026-04-30T09:30:50.19Z</time></trkpt><trkpt lat="39.64921877855201" lon="9.357017370128446"><ele>402.0</ele><time>2026-04-30T09:30:51.19Z</time></trkpt><trkpt lat="39.64907589744241" lon="9.357077711969005"><ele>400.0</ele><time>2026-04-30T09:30:52.191Z</time></trkpt><trkpt lat="39.648931096967914" lon="9.35712576818493"><ele>400.0</ele><time>2026-04-30T09:30:53.191Z</time></trkpt><trkpt lat="39.648790346031255" lon="9.35714163642289"><ele>400.0</ele><time>2026-04-30T09:30:54.191Z</time></trkpt><trkpt lat="39.648651615089484" lon="9.357128096040995"><ele>400.0</ele><time>2026-04-30T09:30:55.191Z</time></trkpt><trkpt lat="39.64851555940538" lon="9.357122425550333"><ele>400.0</ele><time>2026-04-30T09:30:56.191Z</time></trkpt><trkpt lat="39.64839156249918" lon="9.357129753126753"><ele>399.6</ele><time>2026-04-30T09:30:57.191Z</time></trkpt><trkpt lat="39.64827729104317" lon="9.35714384947221"><ele>399.2</ele><time>2026-04-30T09:30:58.191Z</time></trkpt><trkpt lat="39.648174618723786" lon="9.357158019397815"><ele>398.79999999999995</ele><time>2026-04-30T09:30:59.191Z</time></trkpt><trkpt lat="39.64808130688554" lon="9.357174156066684"><ele>398.4</ele><time>2026-04-30T09:31:00.191Z</time></trkpt><trkpt lat="39.64800240349595" lon="9.357190494122245"><ele>398.0</ele><time>2026-04-30T09:31:01.191Z</time></trkpt><trkpt lat="39.647924978088746" lon="9.357202005742494"><ele>398.0</ele><time>2026-04-30T09:31:03.191Z</time></trkpt><trkpt lat="39.647805221525914" lon="9.35718631152903"><ele>398.0</ele><time>2026-04-30T09:31:22.191Z</time></trkpt><trkpt lat="39.647717735227204" lon="9.357189102818891"><ele>398.0</ele><time>2026-04-30T09:31:23.191Z</time></trkpt><trkpt lat="39.64761031773415" lon="9.35720099490336"><ele>398.0</ele><time>2026-04-30T09:31:24.191Z</time></trkpt><trkpt lat="39.647500489279146" lon="9.357211677433964"><ele>398.0</ele><time>2026-04-30T09:31:25.191Z</time></trkpt><trkpt lat="39.64737978948552" lon="9.357221811463473"><ele>398.0</ele><time>2026-04-30T09:31:26.191Z</time></trkpt><trkpt lat="39.6472545361442" lon="9.357228426962088"><ele>398.0</ele><time>2026-04-30T09:31:27.191Z</time></trkpt><trkpt lat="39.64712271951781" lon="9.357219109250526"><ele>398.0</ele><time>2026-04-30T09:31:28.191Z</time></trkpt><trkpt lat="39.64698851524225" lon="9.357177029840038"><ele>398.0</ele><time>2026-04-30T09:31:29.191Z</time></trkpt><trkpt lat="39.646858651121306" lon="9.357104115445043"><ele>396.0</ele><time>2026-04-30T09:31:30.191Z</time></trkpt><trkpt lat="39.64674229465947" lon="9.356997039125208"><ele>394.0</ele><time>2026-04-30T09:31:31.191Z</time></trkpt><trkpt lat="39.64663135709272" lon="9.35683967470998"><ele>392.0</ele><time>2026-04-30T09:31:32.191Z</time></trkpt><trkpt lat="39.64652623184146" lon="9.356659594697994"><ele>392.0</ele><time>2026-04-30T09:31:33.191Z</time></trkpt><trkpt lat="39.646418169124956" lon="9.356463587351884"><ele>392.0</ele><time>2026-04-30T09:31:34.191Z</time></trkpt><trkpt lat="39.64630605334014" lon="9.356258865847089"><ele>392.0</ele><time>2026-04-30T09:31:35.191Z</time></trkpt><trkpt lat="39.646182266718824" lon="9.356058849266002"><ele>390.0</ele><time>2026-04-30T09:31:36.191Z</time></trkpt><trkpt lat="39.64605519013721" lon="9.355850578024622"><ele>388.0</ele><time>2026-04-30T09:31:37.191Z</time></trkpt><trkpt lat="39.645925349467696" lon="9.35564489494759"><ele>386.0</ele><time>2026-04-30T09:31:38.191Z</time></trkpt><trkpt lat="39.64578145803298" lon="9.35547128141188"><ele>383.66666666666663</ele><time>2026-04-30T09:31:39.191Z</time></trkpt><trkpt lat="39.645602767457476" lon="9.355348131022648"><ele>381.3333333333333</ele><time>2026-04-30T09:31:40.191Z</time></trkpt><trkpt lat="39.64541315253136" lon="9.355262416629149"><ele>379.0</ele><time>2026-04-30T09:31:41.191Z</time></trkpt><trkpt lat="39.645213370071964" lon="9.355235584698157"><ele>379.0</ele><time>2026-04-30T09:31:42.191Z</time></trkpt><trkpt lat="39.645004392309254" lon="9.355244000971743"><ele>379.0</ele><time>2026-04-30T09:31:43.191Z</time></trkpt><trkpt lat="39.64478305057436" lon="9.355246339094785"><ele>379.0</ele><time>2026-04-30T09:31:44.191Z</time></trkpt><trkpt lat="39.644565186333644" lon="9.355238818106386"><ele>378.0</ele><time>2026-04-30T09:31:45.191Z</time></trkpt><trkpt lat="39.64434392653063" lon="9.355235560700587"><ele>377.0</ele><time>2026-04-30T09:31:46.191Z</time></trkpt><trkpt lat="39.64412504155355" lon="9.355236467645911"><ele>376.0</ele><time>2026-04-30T09:31:47.191Z</time></trkpt><trkpt lat="39.64391404029203" lon="9.355231681868228"><ele>376.0</ele><time>2026-04-30T09:31:48.191Z</time></trkpt><trkpt lat="39.64370806560892" lon="9.355197087482932"><ele>376.0</ele><time>2026-04-30T09:31:49.191Z</time></trkpt><trkpt lat="39.64350509568692" lon="9.355109480676624"><ele>376.0</ele><time>2026-04-30T09:31:50.191Z</time></trkpt><trkpt lat="39.64330944918019" lon="9.354975627448932"><ele>376.5</ele><time>2026-04-30T09:31:51.191Z</time></trkpt><trkpt lat="39.643119708387616" lon="9.354809671094104"><ele>377.0</ele><time>2026-04-30T09:31:52.191Z</time></trkpt><trkpt lat="39.642925932442935" lon="9.354640352070962"><ele>374.0</ele><time>2026-04-30T09:31:53.191Z</time></trkpt><trkpt lat="39.64273106898265" lon="9.354487015029251"><ele>371.0</ele><time>2026-04-30T09:31:54.191Z</time></trkpt><trkpt lat="39.642539351169624" lon="9.354335506320256"><ele>371.0</ele><time>2026-04-30T09:31:55.191Z</time></trkpt><trkpt lat="39.64235044689155" lon="9.354184290956441"><ele>371.0</ele><time>2026-04-30T09:31:56.191Z</time></trkpt><trkpt lat="39.64215937868829" lon="9.354047833213096"><ele>371.0</ele><time>2026-04-30T09:31:57.191Z</time></trkpt><trkpt lat="39.641961137769826" lon="9.353939779135553"><ele>369.6666666666667</ele><time>2026-04-30T09:31:58.191Z</time></trkpt><trkpt lat="39.64175127135578" lon="9.353870252032495"><ele>368.3333333333333</ele><time>2026-04-30T09:31:59.191Z</time></trkpt><trkpt lat="39.641531991024955" lon="9.353845901275694"><ele>367.0</ele><time>2026-04-30T09:32:00.191Z</time></trkpt><trkpt lat="39.6413025543143" lon="9.3538610020718"><ele>364.0</ele><time>2026-04-30T09:32:01.191Z</time></trkpt><trkpt lat="39.641080914007624" lon="9.353921948732523"><ele>361.0</ele><time>2026-04-30T09:32:02.191Z</time></trkpt><trkpt lat="39.64086269046348" lon="9.354010154642475"><ele>361.0</ele><time>2026-04-30T09:32:03.191Z</time></trkpt><trkpt lat="39.64064620251623" lon="9.354115169000147"><ele>361.0</ele><time>2026-04-30T09:32:04.191Z</time></trkpt><trkpt lat="39.640422549704745" lon="9.354211646708604"><ele>360.0</ele><time>2026-04-30T09:32:05.191Z</time></trkpt><trkpt lat="39.64019875675479" lon="9.35430792112102"><ele>359.0</ele><time>2026-04-30T09:32:06.191Z</time></trkpt><trkpt lat="39.63997473287174" lon="9.354413489384171"><ele>359.0</ele><time>2026-04-30T09:32:07.191Z</time></trkpt><trkpt lat="39.63974541094789" lon="9.35451577878402"><ele>359.0</ele><time>2026-04-30T09:32:08.191Z</time></trkpt><trkpt lat="39.639518205479185" lon="9.354618160846258"><ele>359.5</ele><time>2026-04-30T09:32:09.191Z</time></trkpt><trkpt lat="39.63929310871831" lon="9.354722819874429"><ele>360.0</ele><time>2026-04-30T09:32:10.191Z</time></trkpt><trkpt lat="39.639071255454844" lon="9.354832151905494"><ele>360.0</ele><time>2026-04-30T09:32:11.191Z</time></trkpt><trkpt lat="39.63884812268279" lon="9.354941087488092"><ele>360.0</ele><time>2026-04-30T09:32:12.191Z</time></trkpt><trkpt lat="39.63862343942899" lon="9.355047946535782"><ele>359.5</ele><time>2026-04-30T09:32:13.191Z</time></trkpt><trkpt lat="39.63839694547414" lon="9.355153860915598"><ele>359.0</ele><time>2026-04-30T09:32:14.191Z</time></trkpt><trkpt lat="39.638168126508276" lon="9.355257544695837"><ele>359.0</ele><time>2026-04-30T09:32:15.191Z</time></trkpt><trkpt lat="39.637933243784325" lon="9.355358629805284"><ele>359.0</ele><time>2026-04-30T09:32:16.191Z</time></trkpt><trkpt lat="39.637702960813435" lon="9.355460991049101"><ele>358.0</ele><time>2026-04-30T09:32:17.191Z</time></trkpt><trkpt lat="39.637474126245934" lon="9.355556233074761"><ele>357.0</ele><time>2026-04-30T09:32:18.191Z</time></trkpt><trkpt lat="39.63724605522196" lon="9.355654991723055"><ele>357.0</ele><time>2026-04-30T09:32:19.191Z</time></trkpt><trkpt lat="39.63701827825939" lon="9.35575280026024"><ele>357.0</ele><time>2026-04-30T09:32:20.191Z</time></trkpt><trkpt lat="39.636789400558236" lon="9.35585425421389"><ele>357.5</ele><time>2026-04-30T09:32:21.191Z</time></trkpt><trkpt lat="39.636565631356895" lon="9.355954661624883"><ele>358.0</ele><time>2026-04-30T09:32:22.191Z</time></trkpt><trkpt lat="39.636342062220834" lon="9.35605264739141"><ele>359.5</ele><time>2026-04-30T09:32:23.191Z</time></trkpt><trkpt lat="39.6361209694223" lon="9.356149260503571"><ele>361.0</ele><time>2026-04-30T09:32:24.191Z</time></trkpt><trkpt lat="39.63589958077374" lon="9.356241361597418"><ele>361.0</ele><time>2026-04-30T09:32:25.191Z</time></trkpt><trkpt lat="39.63568227924548" lon="9.35634104543331"><ele>361.0</ele><time>2026-04-30T09:32:26.191Z</time></trkpt><trkpt lat="39.63546669240494" lon="9.35643455566216"><ele>360.3333333333333</ele><time>2026-04-30T09:32:27.191Z</time></trkpt><trkpt lat="39.63525235640306" lon="9.356525137484502"><ele>359.6666666666667</ele><time>2026-04-30T09:32:28.191Z</time></trkpt><trkpt lat="39.63504208254303" lon="9.356609528027569"><ele>359.0</ele><time>2026-04-30T09:32:29.191Z</time></trkpt><trkpt lat="39.63483374415859" lon="9.356701066353482"><ele>359.0</ele><time>2026-04-30T09:32:30.191Z</time></trkpt><trkpt lat="39.63462159827812" lon="9.356794612599352"><ele>359.0</ele><time>2026-04-30T09:32:31.191Z</time></trkpt><trkpt lat="39.63441088087237" lon="9.356888473031145"><ele>359.0</ele><time>2026-04-30T09:32:32.191Z</time></trkpt><trkpt lat="39.63420059032346" lon="9.356991096404906"><ele>359.0</ele><time>2026-04-30T09:32:33.191Z</time></trkpt><trkpt lat="39.633995536556704" lon="9.35708849502366"><ele>359.0</ele><time>2026-04-30T09:32:34.191Z</time></trkpt><trkpt lat="39.63379241173278" lon="9.357181047349771"><ele>359.0</ele><time>2026-04-30T09:32:35.191Z</time></trkpt><trkpt lat="39.63358973995216" lon="9.357271034808146"><ele>359.0</ele><time>2026-04-30T09:32:36.191Z</time></trkpt><trkpt lat="39.63340334872706" lon="9.357356682083728"><ele>359.0</ele><time>2026-04-30T09:32:37.191Z</time></trkpt><trkpt lat="39.63322616644783" lon="9.357437165687193"><ele>359.0</ele><time>2026-04-30T09:32:38.191Z</time></trkpt><trkpt lat="39.63305710781009" lon="9.3575132484032"><ele>359.0</ele><time>2026-04-30T09:32:39.191Z</time></trkpt><trkpt lat="39.632898507118554" lon="9.357586569076528"><ele>359.0</ele><time>2026-04-30T09:32:40.192Z</time></trkpt><trkpt lat="39.63274988916509" lon="9.357655775170645"><ele>359.0</ele><time>2026-04-30T09:32:41.192Z</time></trkpt><trkpt lat="39.63260684571299" lon="9.357719664104748"><ele>359.75</ele><time>2026-04-30T09:32:42.192Z</time></trkpt><trkpt lat="39.63246993336086" lon="9.357779129705765"><ele>360.5</ele><time>2026-04-30T09:32:43.192Z</time></trkpt><trkpt lat="39.63234091361658" lon="9.357839755074382"><ele>361.25</ele><time>2026-04-30T09:32:44.193Z</time></trkpt><trkpt lat="39.632218818526304" lon="9.357902373426661"><ele>362.0</ele><time>2026-04-30T09:32:45.192Z</time></trkpt><trkpt lat="39.6321017378631" lon="9.35795859026644"><ele>362.0</ele><time>2026-04-30T09:32:46.192Z</time></trkpt><trkpt lat="39.63198199002386" lon="9.358009103208062"><ele>362.0</ele><time>2026-04-30T09:32:47.193Z</time></trkpt><trkpt lat="39.63185979780156" lon="9.358044748423518"><ele>362.0</ele><time>2026-04-30T09:32:48.192Z</time></trkpt><trkpt lat="39.63173728607633" lon="9.358054346275908"><ele>362.0</ele><time>2026-04-30T09:32:49.192Z</time></trkpt><trkpt lat="39.63161444267477" lon="9.358046166702088"><ele>361.0</ele><time>2026-04-30T09:32:50.193Z</time></trkpt><trkpt lat="39.63149663059116" lon="9.358020059558648"><ele>360.0</ele><time>2026-04-30T09:32:51.193Z</time></trkpt><trkpt lat="39.63137985620024" lon="9.357983540074368"><ele>359.0</ele><time>2026-04-30T09:32:52.193Z</time></trkpt><trkpt lat="39.63126980011259" lon="9.357929587561186"><ele>358.0</ele><time>2026-04-30T09:32:53.192Z</time></trkpt><trkpt lat="39.631162625222714" lon="9.357865958993436"><ele>355.79999999999995</ele><time>2026-04-30T09:32:54.192Z</time></trkpt><trkpt lat="39.63106611793025" lon="9.357791556115895"><ele>353.6</ele><time>2026-04-30T09:32:55.192Z</time></trkpt><trkpt lat="39.63097155820917" lon="9.357718424983753"><ele>351.4</ele><time>2026-04-30T09:32:56.193Z</time></trkpt><trkpt lat="39.630876723565" lon="9.357650144213395"><ele>349.20000000000005</ele><time>2026-04-30T09:32:57.193Z</time></trkpt><trkpt lat="39.63078522002705" lon="9.35758646909075"><ele>347.0</ele><time>2026-04-30T09:32:58.193Z</time></trkpt><trkpt lat="39.630699255952884" lon="9.35751624932778"><ele>347.0</ele><time>2026-04-30T09:32:59.193Z</time></trkpt><trkpt lat="39.63061054215246" lon="9.35745306323477"><ele>347.0</ele><time>2026-04-30T09:33:00.193Z</time></trkpt><trkpt lat="39.63052426901158" lon="9.35739558657288"><ele>347.0</ele><time>2026-04-30T09:33:01.193Z</time></trkpt><trkpt lat="39.6304356356137" lon="9.357330305751223"><ele>347.0</ele><time>2026-04-30T09:33:02.193Z</time></trkpt><trkpt lat="39.63034740933658" lon="9.357259360518889"><ele>347.0</ele><time>2026-04-30T09:33:03.193Z</time></trkpt><trkpt lat="39.63027051654307" lon="9.357178920479797"><ele>346.33333333333337</ele><time>2026-04-30T09:33:04.193Z</time></trkpt><trkpt lat="39.63020088426339" lon="9.35710877631025"><ele>345.6666666666667</ele><time>2026-04-30T09:33:05.193Z</time></trkpt><trkpt lat="39.63014388528776" lon="9.357047927552827"><ele>345.0</ele><time>2026-04-30T09:33:06.193Z</time></trkpt><trkpt lat="39.6300859941099" lon="9.357002110638575"><ele>344.3333333333333</ele><time>2026-04-30T09:33:07.193Z</time></trkpt><trkpt lat="39.630021627089064" lon="9.356960098603826"><ele>343.66666666666663</ele><time>2026-04-30T09:33:08.193Z</time></trkpt><trkpt lat="39.629953555989395" lon="9.356915967973498"><ele>343.0</ele><time>2026-04-30T09:33:09.193Z</time></trkpt><trkpt lat="39.629884310919685" lon="9.35686835944378"><ele>343.0</ele><time>2026-04-30T09:33:10.193Z</time></trkpt><trkpt lat="39.62981970117589" lon="9.356819097528739"><ele>343.0</ele><time>2026-04-30T09:33:11.193Z</time></trkpt><trkpt lat="39.62974157098329" lon="9.35676761997506"><ele>343.0</ele><time>2026-04-30T09:33:12.193Z</time></trkpt><trkpt lat="39.62966920113804" lon="9.356713707990277"><ele>343.0</ele><time>2026-04-30T09:33:13.193Z</time></trkpt><trkpt lat="39.62959703437522" lon="9.356663171349545"><ele>343.0</ele><time>2026-04-30T09:33:14.193Z</time></trkpt><trkpt lat="39.62952158920355" lon="9.356613009309898"><ele>343.0</ele><time>2026-04-30T09:33:15.193Z</time></trkpt><trkpt lat="39.62944631243153" lon="9.356557937497785"><ele>343.59999999999997</ele><time>2026-04-30T09:33:16.193Z</time></trkpt><trkpt lat="39.62936752649055" lon="9.356493625066078"><ele>344.2</ele><time>2026-04-30T09:33:17.193Z</time></trkpt><trkpt lat="39.62928686196089" lon="9.356430280928105"><ele>344.8</ele><time>2026-04-30T09:33:18.193Z</time></trkpt><trkpt lat="39.62920025809928" lon="9.356365936984764"><ele>345.4</ele><time>2026-04-30T09:33:19.193Z</time></trkpt><trkpt lat="39.62910921467247" lon="9.356298705822669"><ele>346.0</ele><time>2026-04-30T09:33:20.193Z</time></trkpt><trkpt lat="39.629013809783636" lon="9.356229607992766"><ele>346.0</ele><time>2026-04-30T09:33:21.193Z</time></trkpt><trkpt lat="39.62892015671882" lon="9.35616136672439"><ele>346.0</ele><time>2026-04-30T09:33:22.193Z</time></trkpt><trkpt lat="39.628825436150066" lon="9.356090051031389"><ele>346.0</ele><time>2026-04-30T09:33:23.193Z</time></trkpt><trkpt lat="39.628729667821695" lon="9.356028777026863"><ele>346.0</ele><time>2026-04-30T09:33:24.193Z</time></trkpt><trkpt lat="39.62862937426682" lon="9.355974349509173"><ele>346.0</ele><time>2026-04-30T09:33:25.193Z</time></trkpt><trkpt lat="39.62852282176816" lon="9.355931251963916"><ele>345.6</ele><time>2026-04-30T09:33:26.193Z</time></trkpt><trkpt lat="39.62841922814241" lon="9.355901672446734"><ele>345.20000000000005</ele><time>2026-04-30T09:33:27.193Z</time></trkpt><trkpt lat="39.62831406208341" lon="9.355880403949396"><ele>344.79999999999995</ele><time>2026-04-30T09:33:28.193Z</time></trkpt><trkpt lat="39.628205658133055" lon="9.355850650671043"><ele>344.4</ele><time>2026-04-30T09:33:29.193Z</time></trkpt><trkpt lat="39.628101500931564" lon="9.35582565300276"><ele>344.0</ele><time>2026-04-30T09:33:30.193Z</time></trkpt><trkpt lat="39.62799853696477" lon="9.355798232711349"><ele>344.0</ele><time>2026-04-30T09:33:31.193Z</time></trkpt><trkpt lat="39.62789789856672" lon="9.355773341421406"><ele>344.0</ele><time>2026-04-30T09:33:32.193Z</time></trkpt><trkpt lat="39.627799444165255" lon="9.355749811208986"><ele>344.0</ele><time>2026-04-30T09:33:33.193Z</time></trkpt><trkpt lat="39.62770349603124" lon="9.35572529000614"><ele>344.0</ele><time>2026-04-30T09:33:34.193Z</time></trkpt><trkpt lat="39.62760865562911" lon="9.355699293211359"><ele>344.0</ele><time>2026-04-30T09:33:35.193Z</time></trkpt><trkpt lat="39.62751804839989" lon="9.355676101556877"><ele>343.2</ele><time>2026-04-30T09:33:36.193Z</time></trkpt><trkpt lat="39.62742904108448" lon="9.355657410690588"><ele>342.4</ele><time>2026-04-30T09:33:37.193Z</time></trkpt><trkpt lat="39.627346289375325" lon="9.355636069713162"><ele>341.6</ele><time>2026-04-30T09:33:38.193Z</time></trkpt><trkpt lat="39.62719558057344" lon="9.35559556599053"><ele>340.8</ele><time>2026-04-30T09:33:40.193Z</time></trkpt><trkpt lat="39.62711542739501" lon="9.355575206066263"><ele>340.0</ele><time>2026-04-30T09:33:41.193Z</time></trkpt><trkpt lat="39.62702936404328" lon="9.355555141119213"><ele>340.16666666666663</ele><time>2026-04-30T09:33:42.193Z</time></trkpt><trkpt lat="39.6269502953054" lon="9.355538473973695"><ele>340.3333333333333</ele><time>2026-04-30T09:33:43.193Z</time></trkpt><trkpt lat="39.62686746496744" lon="9.355518518121642"><ele>340.5</ele><time>2026-04-30T09:33:44.193Z</time></trkpt><trkpt lat="39.6267890141662" lon="9.355506168368972"><ele>340.6666666666667</ele><time>2026-04-30T09:33:45.193Z</time></trkpt><trkpt lat="39.62671218800523" lon="9.355505251332687"><ele>340.83333333333337</ele><time>2026-04-30T09:33:46.193Z</time></trkpt><trkpt lat="39.62663730870975" lon="9.355499347304614"><ele>341.0</ele><time>2026-04-30T09:33:47.193Z</time></trkpt><trkpt lat="39.62656148505506" lon="9.355508297113328"><ele>341.0</ele><time>2026-04-30T09:33:48.193Z</time></trkpt><trkpt lat="39.62649092061114" lon="9.355509064112034"><ele>341.0</ele><time>2026-04-30T09:33:49.193Z</time></trkpt><trkpt lat="39.62637637329446" lon="9.355507114669011"><ele>341.0</ele><time>2026-04-30T09:33:51.193Z</time></trkpt><trkpt lat="39.62628936470729" lon="9.355500996131541"><ele>341.0</ele><time>2026-04-30T09:33:53.193Z</time></trkpt><trkpt lat="39.62616981026776" lon="9.355495770018688"><ele>341.0</ele><time>2026-04-30T09:33:55.193Z</time></trkpt><trkpt lat="39.62603502589946" lon="9.355476228660294"><ele>341.5</ele><time>2026-04-30T09:33:57.193Z</time></trkpt><trkpt lat="39.62596322118358" lon="9.355460786554074"><ele>342.0</ele><time>2026-04-30T09:33:58.193Z</time></trkpt><trkpt lat="39.62589212592837" lon="9.355432877754225"><ele>342.5</ele><time>2026-04-30T09:33:59.193Z</time></trkpt><trkpt lat="39.62582054329057" lon="9.355390097431505"><ele>343.0</ele><time>2026-04-30T09:34:00.193Z</time></trkpt><trkpt lat="39.625753250207254" lon="9.355332257647126"><ele>343.5</ele><time>2026-04-30T09:34:01.193Z</time></trkpt><trkpt lat="39.62569660708462" lon="9.355259840021318"><ele>344.0</ele><time>2026-04-30T09:34:02.193Z</time></trkpt><trkpt lat="39.62563676649387" lon="9.355190002422196"><ele>344.0</ele><time>2026-04-30T09:34:03.193Z</time></trkpt><trkpt lat="39.62558396679166" lon="9.355107033049824"><ele>344.0</ele><time>2026-04-30T09:34:04.193Z</time></trkpt><trkpt lat="39.62552799583232" lon="9.355024635229945"><ele>344.0</ele><time>2026-04-30T09:34:05.193Z</time></trkpt><trkpt lat="39.62546575757398" lon="9.354949500883587"><ele>344.0</ele><time>2026-04-30T09:34:06.193Z</time></trkpt><trkpt lat="39.62540831614095" lon="9.354871919733954"><ele>344.0</ele><time>2026-04-30T09:34:07.193Z</time></trkpt><trkpt lat="39.62534218916134" lon="9.354795087970158"><ele>344.0</ele><time>2026-04-30T09:34:08.193Z</time></trkpt><trkpt lat="39.6252729885593" lon="9.35471897746289"><ele>343.6</ele><time>2026-04-30T09:34:09.193Z</time></trkpt><trkpt lat="39.62520682003996" lon="9.354643658524745"><ele>343.2</ele><time>2026-04-30T09:34:10.193Z</time></trkpt><trkpt lat="39.625127111229446" lon="9.354591139867452"><ele>342.8</ele><time>2026-04-30T09:34:11.193Z</time></trkpt><trkpt lat="39.625045698591336" lon="9.354524862683837"><ele>342.40000000000003</ele><time>2026-04-30T09:34:12.193Z</time></trkpt><trkpt lat="39.62496800799298" lon="9.35445146043803"><ele>342.0</ele><time>2026-04-30T09:34:13.193Z</time></trkpt><trkpt lat="39.62489143318837" lon="9.354383385002617"><ele>342.0</ele><time>2026-04-30T09:34:14.193Z</time></trkpt><trkpt lat="39.624811935904056" lon="9.354310930741386"><ele>342.0</ele><time>2026-04-30T09:34:15.193Z</time></trkpt><trkpt lat="39.62473194774323" lon="9.354236785562554"><ele>342.0</ele><time>2026-04-30T09:34:16.193Z</time></trkpt><trkpt lat="39.62465923778689" lon="9.354162280902559"><ele>342.0</ele><time>2026-04-30T09:34:17.193Z</time></trkpt><trkpt lat="39.624590581332555" lon="9.354075240395392"><ele>342.0</ele><time>2026-04-30T09:34:18.193Z</time></trkpt><trkpt lat="39.62455398631388" lon="9.353981605972406"><ele>342.0</ele><time>2026-04-30T09:34:19.193Z</time></trkpt><trkpt lat="39.62450237188543" lon="9.353857631542198"><ele>342.0</ele><time>2026-04-30T09:34:21.193Z</time></trkpt><trkpt lat="39.62451272150952" lon="9.353771070289508"><ele>342.0</ele><time>2026-04-30T09:34:36.194Z</time></trkpt><trkpt lat="39.62451102229856" lon="9.353676917401842"><ele>342.0</ele><time>2026-04-30T09:35:18.195Z</time></trkpt><trkpt lat="39.624490089370546" lon="9.353534717223361"><ele>342.0</ele><time>2026-04-30T09:35:20.195Z</time></trkpt><trkpt lat="39.624493189368216" lon="9.353413204381544"><ele>342.0</ele><time>2026-04-30T09:35:22.195Z</time></trkpt><trkpt lat="39.624498466555735" lon="9.353274637626244"><ele>342.0</ele><time>2026-04-30T09:35:24.195Z</time></trkpt><trkpt lat="39.624512275190924" lon="9.353116235325663"><ele>342.0</ele><time>2026-04-30T09:35:26.195Z</time></trkpt><trkpt lat="39.62451988262655" lon="9.353033482857237"><ele>342.0</ele><time>2026-04-30T09:35:27.195Z</time></trkpt><trkpt lat="39.62452929801571" lon="9.35294974831726"><ele>342.0</ele><time>2026-04-30T09:35:28.195Z</time></trkpt><trkpt lat="39.624537134647674" lon="9.352806697210465"><ele>340.8</ele><time>2026-04-30T09:35:30.195Z</time></trkpt><trkpt lat="39.62453135685961" lon="9.352688571714687"><ele>339.6</ele><time>2026-04-30T09:35:32.195Z</time></trkpt><trkpt lat="39.62449893366873" lon="9.352568249546641"><ele>338.40000000000003</ele><time>2026-04-30T09:35:34.195Z</time></trkpt><trkpt lat="39.62445743724331" lon="9.352418535981512"><ele>337.20000000000005</ele><time>2026-04-30T09:35:36.195Z</time></trkpt><trkpt lat="39.624396995446325" lon="9.352288714722285"><ele>336.0</ele><time>2026-04-30T09:35:38.195Z</time></trkpt><trkpt lat="39.62434138866265" lon="9.352149805239726"><ele>336.0</ele><time>2026-04-30T09:35:40.195Z</time></trkpt><trkpt lat="39.62428243616281" lon="9.352041523491527"><ele>336.0</ele><time>2026-04-30T09:35:42.195Z</time></trkpt><trkpt lat="39.624238549136386" lon="9.351926103345221"><ele>336.0</ele><time>2026-04-30T09:35:44.195Z</time></trkpt><trkpt lat="39.62417628332676" lon="9.351810739429792"><ele>336.0</ele><time>2026-04-30T09:35:46.195Z</time></trkpt><trkpt lat="39.624102889074145" lon="9.35169748038044"><ele>336.0</ele><time>2026-04-30T09:35:48.195Z</time></trkpt><trkpt lat="39.6240602469835" lon="9.351623043835897"><ele>336.0</ele><time>2026-04-30T09:35:49.195Z</time></trkpt><trkpt lat="39.62402028869449" lon="9.351554682454777"><ele>336.0</ele><time>2026-04-30T09:35:50.195Z</time></trkpt><trkpt lat="39.62397152095102" lon="9.351497620441723"><ele>336.0</ele><time>2026-04-30T09:35:51.195Z</time></trkpt><trkpt lat="39.62391643204585" lon="9.351456952073873"><ele>336.0</ele><time>2026-04-30T09:35:52.195Z</time></trkpt><trkpt lat="39.62383452740644" lon="9.351432130040653"><ele>336.0</ele><time>2026-04-30T09:35:53.195Z</time></trkpt><trkpt lat="39.62375467499106" lon="9.351404629064133"><ele>336.0</ele><time>2026-04-30T09:35:54.195Z</time></trkpt><trkpt lat="39.623675958733045" lon="9.35137880585235"><ele>336.0</ele><time>2026-04-30T09:35:55.195Z</time></trkpt><trkpt lat="39.623593512807275" lon="9.35133939910767"><ele>336.20000000000005</ele><time>2026-04-30T09:35:56.196Z</time></trkpt><trkpt lat="39.623516751672454" lon="9.351295991764559"><ele>336.40000000000003</ele><time>2026-04-30T09:35:57.196Z</time></trkpt><trkpt lat="39.623427531501" lon="9.351261035188992"><ele>336.6</ele><time>2026-04-30T09:35:58.196Z</time></trkpt><trkpt lat="39.62333857153335" lon="9.351229669086024"><ele>336.8</ele><time>2026-04-30T09:35:59.196Z</time></trkpt><trkpt lat="39.62324639878232" lon="9.351203941007274"><ele>337.0</ele><time>2026-04-30T09:36:00.196Z</time></trkpt><trkpt lat="39.623140677128305" lon="9.351195387326468"><ele>337.0</ele><time>2026-04-30T09:36:01.196Z</time></trkpt><trkpt lat="39.62303965283587" lon="9.3511708494633"><ele>337.0</ele><time>2026-04-30T09:36:02.196Z</time></trkpt><trkpt lat="39.622946826975195" lon="9.351137774317387"><ele>337.0</ele><time>2026-04-30T09:36:03.196Z</time></trkpt><trkpt lat="39.622864477007596" lon="9.351091284454874"><ele>337.0</ele><time>2026-04-30T09:36:04.196Z</time></trkpt><trkpt lat="39.62279764509188" lon="9.351009105891933"><ele>337.0</ele><time>2026-04-30T09:36:05.196Z</time></trkpt><trkpt lat="39.622743684962934" lon="9.350916811705108"><ele>336.5</ele><time>2026-04-30T09:36:06.196Z</time></trkpt><trkpt lat="39.6226857549169" lon="9.350841212205623"><ele>336.0</ele><time>2026-04-30T09:36:07.196Z</time></trkpt><trkpt lat="39.62266393974108" lon="9.35074282442877"><ele>335.5</ele><time>2026-04-30T09:36:08.196Z</time></trkpt><trkpt lat="39.622675129160875" lon="9.350636614678974"><ele>335.0</ele><time>2026-04-30T09:36:09.196Z</time></trkpt><trkpt lat="39.6226917391652" lon="9.350531125816177"><ele>334.5</ele><time>2026-04-30T09:36:10.196Z</time></trkpt><trkpt lat="39.622707505718644" lon="9.350427096743418"><ele>334.0</ele><time>2026-04-30T09:36:11.196Z</time></trkpt><trkpt lat="39.62272877087645" lon="9.350330392249537"><ele>334.0</ele><time>2026-04-30T09:36:12.196Z</time></trkpt><trkpt lat="39.622728624328026" lon="9.350218991577558"><ele>334.0</ele><time>2026-04-30T09:36:13.196Z</time></trkpt><trkpt lat="39.62272228505866" lon="9.350084517311146"><ele>334.0</ele><time>2026-04-30T09:36:14.196Z</time></trkpt><trkpt lat="39.62270148322708" lon="9.349958256906667"><ele>334.0</ele><time>2026-04-30T09:36:15.196Z</time></trkpt><trkpt lat="39.622697883829936" lon="9.349821994956006"><ele>334.0</ele><time>2026-04-30T09:36:16.196Z</time></trkpt><trkpt lat="39.6226962573343" lon="9.349680496105663"><ele>333.5</ele><time>2026-04-30T09:36:17.196Z</time></trkpt><trkpt lat="39.62269450969323" lon="9.34953987813341"><ele>333.0</ele><time>2026-04-30T09:36:18.196Z</time></trkpt><trkpt lat="39.62270258086277" lon="9.34940555717691"><ele>332.5</ele><time>2026-04-30T09:36:19.196Z</time></trkpt><trkpt lat="39.62269529061882" lon="9.349276451376744"><ele>332.0</ele><time>2026-04-30T09:36:20.196Z</time></trkpt><trkpt lat="39.622647690211856" lon="9.349050756971007"><ele>332.0</ele><time>2026-04-30T09:36:22.196Z</time></trkpt><trkpt lat="39.622568362610764" lon="9.348969204848851"><ele>332.0</ele><time>2026-04-30T09:36:23.196Z</time></trkpt><trkpt lat="39.622503261373154" lon="9.348864338529594"><ele>332.0</ele><time>2026-04-30T09:36:24.196Z</time></trkpt><trkpt lat="39.622464214730236" lon="9.348740934963002"><ele>332.0</ele><time>2026-04-30T09:36:25.196Z</time></trkpt><trkpt lat="39.62243614875881" lon="9.34862288331155"><ele>332.0</ele><time>2026-04-30T09:36:26.196Z</time></trkpt><trkpt lat="39.62242936898913" lon="9.34849024618288"><ele>332.0</ele><time>2026-04-30T09:36:27.196Z</time></trkpt><trkpt lat="39.62245440075975" lon="9.348346774683788"><ele>332.0</ele><time>2026-04-30T09:36:28.196Z</time></trkpt><trkpt lat="39.62247708384815" lon="9.348217613968144"><ele>332.0</ele><time>2026-04-30T09:36:29.196Z</time></trkpt><trkpt lat="39.622490870114746" lon="9.348082643764405"><ele>332.0</ele><time>2026-04-30T09:36:30.196Z</time></trkpt><trkpt lat="39.622468972452204" lon="9.347946527495328"><ele>332.0</ele><time>2026-04-30T09:36:31.196Z</time></trkpt><trkpt lat="39.62242500675989" lon="9.347820060196026"><ele>332.0</ele><time>2026-04-30T09:36:32.196Z</time></trkpt><trkpt lat="39.622370775775984" lon="9.347718587504989"><ele>332.0</ele><time>2026-04-30T09:36:33.196Z</time></trkpt><trkpt lat="39.6222965809773" lon="9.347621893744826"><ele>332.0</ele><time>2026-04-30T09:36:34.196Z</time></trkpt><trkpt lat="39.62220127416743" lon="9.347544513904658"><ele>332.0</ele><time>2026-04-30T09:36:35.196Z</time></trkpt><trkpt lat="39.6221090625106" lon="9.347453393187799"><ele>332.0</ele><time>2026-04-30T09:36:36.196Z</time></trkpt><trkpt lat="39.62202903467443" lon="9.347361672357216"><ele>330.20000000000005</ele><time>2026-04-30T09:36:37.196Z</time></trkpt><trkpt lat="39.62194501224064" lon="9.34726602728093"><ele>328.4</ele><time>2026-04-30T09:36:38.196Z</time></trkpt><trkpt lat="39.62186035916135" lon="9.347167906930549"><ele>326.6</ele><time>2026-04-30T09:36:39.196Z</time></trkpt><trkpt lat="39.621785135360874" lon="9.34706278925356"><ele>324.79999999999995</ele><time>2026-04-30T09:36:40.196Z</time></trkpt><trkpt lat="39.621703388303935" lon="9.346969013271623"><ele>323.0</ele><time>2026-04-30T09:36:41.196Z</time></trkpt><trkpt lat="39.621619796936166" lon="9.346877098897908"><ele>323.0</ele><time>2026-04-30T09:36:42.196Z</time></trkpt><trkpt lat="39.621536435226766" lon="9.346778635345562"><ele>323.0</ele><time>2026-04-30T09:36:43.196Z</time></trkpt><trkpt lat="39.6214544159427" lon="9.34668395063617"><ele>323.0</ele><time>2026-04-30T09:36:44.196Z</time></trkpt><trkpt lat="39.62137226902439" lon="9.34659178166903"><ele>323.0</ele><time>2026-04-30T09:36:45.196Z</time></trkpt><trkpt lat="39.62129353071951" lon="9.346527477308545"><ele>323.0</ele><time>2026-04-30T09:36:46.196Z</time></trkpt><trkpt lat="39.621197241467655" lon="9.34652882478132"><ele>320.75</ele><time>2026-04-30T09:36:47.196Z</time></trkpt><trkpt lat="39.62109899978723" lon="9.346575128760989"><ele>318.5</ele><time>2026-04-30T09:36:48.196Z</time></trkpt><trkpt lat="39.6210336300425" lon="9.346682291707685"><ele>316.25</ele><time>2026-04-30T09:36:49.196Z</time></trkpt><trkpt lat="39.621041343839934" lon="9.346843352937029"><ele>314.0</ele><time>2026-04-30T09:36:50.196Z</time></trkpt><trkpt lat="39.62108549283031" lon="9.346983855465657"><ele>314.0</ele><time>2026-04-30T09:36:51.196Z</time></trkpt><trkpt lat="39.62114634414378" lon="9.347099041032042"><ele>314.0</ele><time>2026-04-30T09:36:52.196Z</time></trkpt><trkpt lat="39.6212118691382" lon="9.34721021860167"><ele>314.0</ele><time>2026-04-30T09:36:53.196Z</time></trkpt><trkpt lat="39.62129857014861" lon="9.347314214843358"><ele>314.0</ele><time>2026-04-30T09:36:54.196Z</time></trkpt><trkpt lat="39.6213940310369" lon="9.347401565542432"><ele>316.25</ele><time>2026-04-30T09:36:55.196Z</time></trkpt><trkpt lat="39.621497451187764" lon="9.347487854685102"><ele>318.5</ele><time>2026-04-30T09:36:56.197Z</time></trkpt><trkpt lat="39.62160148035906" lon="9.347579248944198"><ele>320.75</ele><time>2026-04-30T09:36:57.196Z</time></trkpt><trkpt lat="39.62171407962614" lon="9.34767724894606"><ele>323.0</ele><time>2026-04-30T09:36:58.196Z</time></trkpt><trkpt lat="39.62180693668239" lon="9.347785453579757"><ele>323.0</ele><time>2026-04-30T09:36:59.197Z</time></trkpt><trkpt lat="39.62186823432347" lon="9.347928416312055"><ele>323.0</ele><time>2026-04-30T09:37:00.197Z</time></trkpt><trkpt lat="39.62190461928256" lon="9.348091373787277"><ele>323.0</ele><time>2026-04-30T09:37:01.197Z</time></trkpt><trkpt lat="39.62191994398345" lon="9.348266365280663"><ele>323.0</ele><time>2026-04-30T09:37:02.198Z</time></trkpt><trkpt lat="39.62193681536307" lon="9.348446148030984"><ele>319.5</ele><time>2026-04-30T09:37:03.197Z</time></trkpt><trkpt lat="39.62194883070727" lon="9.348616812726473"><ele>316.0</ele><time>2026-04-30T09:37:04.197Z</time></trkpt><trkpt lat="39.62194301862057" lon="9.348764235234814"><ele>312.5</ele><time>2026-04-30T09:37:05.198Z</time></trkpt><trkpt lat="39.62190597097946" lon="9.348898992637851"><ele>309.0</ele><time>2026-04-30T09:37:06.197Z</time></trkpt><trkpt lat="39.6218345265038" lon="9.349021913253235"><ele>309.0</ele><time>2026-04-30T09:37:07.197Z</time></trkpt><trkpt lat="39.62173811850992" lon="9.349127222251795"><ele>309.0</ele><time>2026-04-30T09:37:08.197Z</time></trkpt><trkpt lat="39.621621125942944" lon="9.349194607993386"><ele>309.0</ele><time>2026-04-30T09:37:09.197Z</time></trkpt><trkpt lat="39.62149924521725" lon="9.349249635641549"><ele>309.0</ele><time>2026-04-30T09:37:10.197Z</time></trkpt><trkpt lat="39.62137735921721" lon="9.349302593806083"><ele>309.0</ele><time>2026-04-30T09:37:11.198Z</time></trkpt><trkpt lat="39.62125311334791" lon="9.349360931175852"><ele>309.0</ele><time>2026-04-30T09:37:12.198Z</time></trkpt><trkpt lat="39.6211374143877" lon="9.349450663462124"><ele>309.0</ele><time>2026-04-30T09:37:13.198Z</time></trkpt><trkpt lat="39.6210394892478" lon="9.349567414002813"><ele>309.0</ele><time>2026-04-30T09:37:14.198Z</time></trkpt><trkpt lat="39.620970446487505" lon="9.349722417325115"><ele>307.25</ele><time>2026-04-30T09:37:15.198Z</time></trkpt><trkpt lat="39.620932263747335" lon="9.34989224411867"><ele>305.5</ele><time>2026-04-30T09:37:16.198Z</time></trkpt><trkpt lat="39.62089850073999" lon="9.35005992231999"><ele>303.75</ele><time>2026-04-30T09:37:17.198Z</time></trkpt><trkpt lat="39.62085463787755" lon="9.350216581775424"><ele>302.0</ele><time>2026-04-30T09:37:18.198Z</time></trkpt><trkpt lat="39.62076137545193" lon="9.350346071496615"><ele>302.0</ele><time>2026-04-30T09:37:19.198Z</time></trkpt><trkpt lat="39.620650144664275" lon="9.350450567628862"><ele>302.0</ele><time>2026-04-30T09:37:20.198Z</time></trkpt><trkpt lat="39.62051853672435" lon="9.35051244032325"><ele>302.0</ele><time>2026-04-30T09:37:21.198Z</time></trkpt><trkpt lat="39.62038002826925" lon="9.350524382756051"><ele>302.0</ele><time>2026-04-30T09:37:22.198Z</time></trkpt><trkpt lat="39.62024071944853" lon="9.350512259606838"><ele>298.75</ele><time>2026-04-30T09:37:23.198Z</time></trkpt><trkpt lat="39.62010785102479" lon="9.350459194709417"><ele>295.5</ele><time>2026-04-30T09:37:24.198Z</time></trkpt><trkpt lat="39.61998807447544" lon="9.350364818895358"><ele>292.25</ele><time>2026-04-30T09:37:25.198Z</time></trkpt><trkpt lat="39.61987127680285" lon="9.350259794979774"><ele>289.0</ele><time>2026-04-30T09:37:26.198Z</time></trkpt><trkpt lat="39.61974648418061" lon="9.350170800107428"><ele>289.0</ele><time>2026-04-30T09:37:27.198Z</time></trkpt><trkpt lat="39.61961992675816" lon="9.350083316706993"><ele>289.0</ele><time>2026-04-30T09:37:28.198Z</time></trkpt><trkpt lat="39.61948695358014" lon="9.350008588762734"><ele>289.0</ele><time>2026-04-30T09:37:29.198Z</time></trkpt><trkpt lat="39.61934767084467" lon="9.349978250936788"><ele>289.0</ele><time>2026-04-30T09:37:30.198Z</time></trkpt><trkpt lat="39.61920510606719" lon="9.350001233594863"><ele>288.0</ele><time>2026-04-30T09:37:31.198Z</time></trkpt><trkpt lat="39.61906667825545" lon="9.350072018547449"><ele>287.0</ele><time>2026-04-30T09:37:32.198Z</time></trkpt><trkpt lat="39.61893276528696" lon="9.350153029677323"><ele>286.0</ele><time>2026-04-30T09:37:33.198Z</time></trkpt><trkpt lat="39.61879073511131" lon="9.350208804401397"><ele>285.0</ele><time>2026-04-30T09:37:34.198Z</time></trkpt><trkpt lat="39.61864627632927" lon="9.350274374981025"><ele>285.0</ele><time>2026-04-30T09:37:35.198Z</time></trkpt><trkpt lat="39.618507759442195" lon="9.350337125906758"><ele>285.0</ele><time>2026-04-30T09:37:36.198Z</time></trkpt><trkpt lat="39.618360663402534" lon="9.350381567692935"><ele>285.0</ele><time>2026-04-30T09:37:37.198Z</time></trkpt><trkpt lat="39.61821110649785" lon="9.350390755886977"><ele>285.0</ele><time>2026-04-30T09:37:38.198Z</time></trkpt><trkpt lat="39.618056670382835" lon="9.350374394725149"><ele>285.0</ele><time>2026-04-30T09:37:39.198Z</time></trkpt><trkpt lat="39.617905548096566" lon="9.350325509943735"><ele>285.0</ele><time>2026-04-30T09:37:40.198Z</time></trkpt><trkpt lat="39.617758468025926" lon="9.350238256854567"><ele>285.0</ele><time>2026-04-30T09:37:41.198Z</time></trkpt><trkpt lat="39.617621897370896" lon="9.350117872474167"><ele>285.0</ele><time>2026-04-30T09:37:42.198Z</time></trkpt><trkpt lat="39.61750070684158" lon="9.349967565371369"><ele>285.0</ele><time>2026-04-30T09:37:43.198Z</time></trkpt><trkpt lat="39.61740622042043" lon="9.349781388130763"><ele>285.0</ele><time>2026-04-30T09:37:44.198Z</time></trkpt><trkpt lat="39.61733999550723" lon="9.349565847011583"><ele>282.6666666666667</ele><time>2026-04-30T09:37:45.198Z</time></trkpt><trkpt lat="39.61730078644406" lon="9.349339506768562"><ele>280.33333333333337</ele><time>2026-04-30T09:37:46.198Z</time></trkpt><trkpt lat="39.61729917745392" lon="9.349089390857245"><ele>278.0</ele><time>2026-04-30T09:37:47.198Z</time></trkpt><trkpt lat="39.617337488901114" lon="9.348828294978667"><ele>276.6666666666667</ele><time>2026-04-30T09:37:48.198Z</time></trkpt><trkpt lat="39.617403213188034" lon="9.348567338108635"><ele>275.3333333333333</ele><time>2026-04-30T09:37:49.198Z</time></trkpt><trkpt lat="39.6174865737317" lon="9.348316328458285"><ele>274.0</ele><time>2026-04-30T09:37:50.198Z</time></trkpt><trkpt lat="39.61756638768766" lon="9.348065094149089"><ele>272.66666666666663</ele><time>2026-04-30T09:37:51.198Z</time></trkpt><trkpt lat="39.61761259001181" lon="9.347822432901658"><ele>271.3333333333333</ele><time>2026-04-30T09:37:52.198Z</time></trkpt><trkpt lat="39.6176673629065" lon="9.347583094120466"><ele>270.0</ele><time>2026-04-30T09:37:53.198Z</time></trkpt><trkpt lat="39.61773061822257" lon="9.347347111427615"><ele>267.3333333333333</ele><time>2026-04-30T09:37:54.198Z</time></trkpt><trkpt lat="39.61779113601144" lon="9.34711106064948"><ele>264.66666666666663</ele><time>2026-04-30T09:37:55.198Z</time></trkpt><trkpt lat="39.6178561628082" lon="9.346871765737426"><ele>262.0</ele><time>2026-04-30T09:37:56.198Z</time></trkpt><trkpt lat="39.617916282516425" lon="9.346646715535163"><ele>258.66666666666663</ele><time>2026-04-30T09:37:57.198Z</time></trkpt><trkpt lat="39.61792772448098" lon="9.346423134271472"><ele>255.33333333333331</ele><time>2026-04-30T09:37:58.198Z</time></trkpt><trkpt lat="39.61789144762869" lon="9.346208311992939"><ele>252.0</ele><time>2026-04-30T09:37:59.198Z</time></trkpt><trkpt lat="39.61779025295753" lon="9.346009921132515"><ele>251.66666666666669</ele><time>2026-04-30T09:38:00.198Z</time></trkpt><trkpt lat="39.61763948751415" lon="9.345836413576073"><ele>251.33333333333334</ele><time>2026-04-30T09:38:01.198Z</time></trkpt><trkpt lat="39.61746053921445" lon="9.345660207166711"><ele>251.0</ele><time>2026-04-30T09:38:02.198Z</time></trkpt><trkpt lat="39.61730059933068" lon="9.345490968078623"><ele>248.0</ele><time>2026-04-30T09:38:03.198Z</time></trkpt><trkpt lat="39.617150657529784" lon="9.345325822216772"><ele>245.0</ele><time>2026-04-30T09:38:04.198Z</time></trkpt><trkpt lat="39.61700161325662" lon="9.345176660940723"><ele>242.0</ele><time>2026-04-30T09:38:05.198Z</time></trkpt><trkpt lat="39.61683523211735" lon="9.345094931062114"><ele>242.0</ele><time>2026-04-30T09:38:06.198Z</time></trkpt><trkpt lat="39.616654597188855" lon="9.345059950329688"><ele>242.0</ele><time>2026-04-30T09:38:07.198Z</time></trkpt><trkpt lat="39.61646897847727" lon="9.345043752592371"><ele>242.0</ele><time>2026-04-30T09:38:08.198Z</time></trkpt><trkpt lat="39.61628473096149" lon="9.345047124058262"><ele>241.66666666666669</ele><time>2026-04-30T09:38:09.198Z</time></trkpt><trkpt lat="39.616110129826616" lon="9.34502068507861"><ele>241.33333333333331</ele><time>2026-04-30T09:38:10.198Z</time></trkpt><trkpt lat="39.61594915883057" lon="9.344956980533617"><ele>241.0</ele><time>2026-04-30T09:38:11.198Z</time></trkpt><trkpt lat="39.61579169692736" lon="9.34485183737412"><ele>241.0</ele><time>2026-04-30T09:38:12.198Z</time></trkpt><trkpt lat="39.615639286370005" lon="9.344724390352336"><ele>241.0</ele><time>2026-04-30T09:38:13.198Z</time></trkpt><trkpt lat="39.61550012771359" lon="9.344580199063126"><ele>241.0</ele><time>2026-04-30T09:38:14.198Z</time></trkpt><trkpt lat="39.61536939325604" lon="9.344436930845314"><ele>237.66666666666666</ele><time>2026-04-30T09:38:15.198Z</time></trkpt><trkpt lat="39.61523698778683" lon="9.344301868352725"><ele>234.33333333333331</ele><time>2026-04-30T09:38:16.198Z</time></trkpt><trkpt lat="39.6151060334215" lon="9.344163622458728"><ele>231.0</ele><time>2026-04-30T09:38:17.198Z</time></trkpt><trkpt lat="39.61497026604011" lon="9.344023982650215"><ele>231.0</ele><time>2026-04-30T09:38:18.198Z</time></trkpt><trkpt lat="39.61483454850181" lon="9.34389147990843"><ele>231.0</ele><time>2026-04-30T09:38:19.198Z</time></trkpt><trkpt lat="39.61468614899853" lon="9.343803759308381"><ele>231.0</ele><time>2026-04-30T09:38:20.198Z</time></trkpt><trkpt lat="39.61452433864375" lon="9.343786463593425"><ele>231.0</ele><time>2026-04-30T09:38:21.198Z</time></trkpt><trkpt lat="39.61435710459913" lon="9.343836409047329"><ele>231.0</ele><time>2026-04-30T09:38:22.198Z</time></trkpt><trkpt lat="39.614206975913525" lon="9.343920986274055"><ele>231.0</ele><time>2026-04-30T09:38:23.198Z</time></trkpt><trkpt lat="39.61406664603102" lon="9.344010404849838"><ele>231.0</ele><time>2026-04-30T09:38:24.198Z</time></trkpt><trkpt lat="39.61391734960171" lon="9.344065915436154"><ele>231.0</ele><time>2026-04-30T09:38:25.198Z</time></trkpt><trkpt lat="39.61376961815363" lon="9.344092753209877"><ele>231.0</ele><time>2026-04-30T09:38:26.198Z</time></trkpt><trkpt lat="39.613626819154156" lon="9.34409891709178"><ele>231.0</ele><time>2026-04-30T09:38:27.198Z</time></trkpt><trkpt lat="39.613498401855594" lon="9.34413637439732"><ele>228.60000000000002</ele><time>2026-04-30T09:38:28.198Z</time></trkpt><trkpt lat="39.61339483223379" lon="9.344219297976364"><ele>226.20000000000002</ele><time>2026-04-30T09:38:29.198Z</time></trkpt><trkpt lat="39.613306302408624" lon="9.34431108275161"><ele>223.79999999999998</ele><time>2026-04-30T09:38:30.198Z</time></trkpt><trkpt lat="39.61321791133485" lon="9.344396529471531"><ele>221.39999999999998</ele><time>2026-04-30T09:38:31.198Z</time></trkpt><trkpt lat="39.613130243770236" lon="9.344461275685422"><ele>219.0</ele><time>2026-04-30T09:38:32.198Z</time></trkpt><trkpt lat="39.613037146946716" lon="9.344473933787281"><ele>219.0</ele><time>2026-04-30T09:38:33.198Z</time></trkpt><trkpt lat="39.61294831388786" lon="9.344440174785476"><ele>219.0</ele><time>2026-04-30T09:38:34.198Z</time></trkpt><trkpt lat="39.6128675049407" lon="9.344392313032213"><ele>219.0</ele><time>2026-04-30T09:38:35.198Z</time></trkpt><trkpt lat="39.61280784940923" lon="9.344351408334836"><ele>219.0</ele><time>2026-04-30T09:38:36.198Z</time></trkpt><trkpt lat="39.61273244708442" lon="9.34430164680768"><ele>219.0</ele><time>2026-04-30T09:38:38.198Z</time></trkpt><trkpt lat="39.612659942247454" lon="9.344272130919933"><ele>219.0</ele><time>2026-04-30T09:38:41.198Z</time></trkpt><trkpt lat="39.61253028500893" lon="9.344320107115164"><ele>219.0</ele><time>2026-04-30T09:38:43.198Z</time></trkpt><trkpt lat="39.612448738217985" lon="9.344410738387749"><ele>219.0</ele><time>2026-04-30T09:38:44.198Z</time></trkpt><trkpt lat="39.61235608321515" lon="9.344513580140962"><ele>219.0</ele><time>2026-04-30T09:38:45.198Z</time></trkpt><trkpt lat="39.61225050834407" lon="9.344611509055264"><ele>219.0</ele><time>2026-04-30T09:38:46.198Z</time></trkpt><trkpt lat="39.612128473103255" lon="9.344727564867547"><ele>219.0</ele><time>2026-04-30T09:38:47.198Z</time></trkpt><trkpt lat="39.61199837885987" lon="9.344853202185163"><ele>219.0</ele><time>2026-04-30T09:38:48.198Z</time></trkpt><trkpt lat="39.61185438341412" lon="9.344989074542921"><ele>219.0</ele><time>2026-04-30T09:38:49.198Z</time></trkpt><trkpt lat="39.61170384000938" lon="9.345141619737193"><ele>219.0</ele><time>2026-04-30T09:38:50.198Z</time></trkpt><trkpt lat="39.61154932132619" lon="9.345300803028941"><ele>219.0</ele><time>2026-04-30T09:38:51.198Z</time></trkpt><trkpt lat="39.61139091453361" lon="9.34547216144933"><ele>219.0</ele><time>2026-04-30T09:38:52.198Z</time></trkpt><trkpt lat="39.61122789685232" lon="9.345647598872565"><ele>217.66666666666669</ele><time>2026-04-30T09:38:53.198Z</time></trkpt><trkpt lat="39.61105324728784" lon="9.34580899390278"><ele>216.33333333333334</ele><time>2026-04-30T09:38:54.198Z</time></trkpt><trkpt lat="39.61086390512385" lon="9.345950230398932"><ele>215.0</ele><time>2026-04-30T09:38:55.198Z</time></trkpt><trkpt lat="39.61066682784385" lon="9.346084297968819"><ele>215.0</ele><time>2026-04-30T09:38:56.198Z</time></trkpt><trkpt lat="39.61047168627103" lon="9.346216427360094"><ele>215.0</ele><time>2026-04-30T09:38:57.198Z</time></trkpt><trkpt lat="39.610282988881394" lon="9.346338560017642"><ele>215.0</ele><time>2026-04-30T09:38:58.198Z</time></trkpt><trkpt lat="39.61010727172405" lon="9.346470672040775"><ele>213.0</ele><time>2026-04-30T09:38:59.198Z</time></trkpt><trkpt lat="39.60995524856729" lon="9.346624973404154"><ele>211.0</ele><time>2026-04-30T09:39:00.198Z</time></trkpt><trkpt lat="39.60985039679228" lon="9.346847001475412"><ele>209.0</ele><time>2026-04-30T09:39:01.198Z</time></trkpt><trkpt lat="39.6097909971422" lon="9.347102523515282"><ele>209.0</ele><time>2026-04-30T09:39:02.199Z</time></trkpt><trkpt lat="39.609751042849936" lon="9.347371575686921"><ele>209.0</ele><time>2026-04-30T09:39:03.199Z</time></trkpt><trkpt lat="39.60970536989532" lon="9.347646072972799"><ele>209.0</ele><time>2026-04-30T09:39:04.199Z</time></trkpt><trkpt lat="39.60964180657359" lon="9.347907740707843"><ele>208.66666666666669</ele><time>2026-04-30T09:39:05.199Z</time></trkpt><trkpt lat="39.609554109455296" lon="9.348147291577138"><ele>208.33333333333331</ele><time>2026-04-30T09:39:06.199Z</time></trkpt><trkpt lat="39.609428028369884" lon="9.348349381214593"><ele>208.0</ele><time>2026-04-30T09:39:07.199Z</time></trkpt><trkpt lat="39.609277507386" lon="9.348529373587459"><ele>208.0</ele><time>2026-04-30T09:39:08.2Z</time></trkpt><trkpt lat="39.60911165842821" lon="9.34869168225393"><ele>208.0</ele><time>2026-04-30T09:39:09.199Z</time></trkpt><trkpt lat="39.60893877718182" lon="9.348853966078316"><ele>208.0</ele><time>2026-04-30T09:39:10.199Z</time></trkpt><trkpt lat="39.60876354465817" lon="9.349019019346017"><ele>207.66666666666666</ele><time>2026-04-30T09:39:11.199Z</time></trkpt><trkpt lat="39.60858652817982" lon="9.349194250780311"><ele>207.33333333333331</ele><time>2026-04-30T09:39:12.199Z</time></trkpt><trkpt lat="39.60841146778727" lon="9.34936976872172"><ele>207.0</ele><time>2026-04-30T09:39:13.199Z</time></trkpt><trkpt lat="39.60823177921411" lon="9.349542187985172"><ele>207.0</ele><time>2026-04-30T09:39:14.199Z</time></trkpt><trkpt lat="39.608053722483426" lon="9.349706778230981"><ele>207.0</ele><time>2026-04-30T09:39:15.199Z</time></trkpt><trkpt lat="39.607873035009916" lon="9.34987098378779"><ele>207.0</ele><time>2026-04-30T09:39:16.199Z</time></trkpt><trkpt lat="39.60768844232276" lon="9.350024830162765"><ele>206.0</ele><time>2026-04-30T09:39:17.199Z</time></trkpt><trkpt lat="39.60749126590726" lon="9.350159992686665"><ele>205.0</ele><time>2026-04-30T09:39:18.199Z</time></trkpt><trkpt lat="39.60728475053885" lon="9.350267701776401"><ele>204.0</ele><time>2026-04-30T09:39:19.199Z</time></trkpt><trkpt lat="39.60706894765485" lon="9.350362127166001"><ele>204.5</ele><time>2026-04-30T09:39:20.199Z</time></trkpt><trkpt lat="39.60685267583663" lon="9.35046167838943"><ele>205.0</ele><time>2026-04-30T09:39:21.199Z</time></trkpt><trkpt lat="39.60663725929532" lon="9.350557173261079"><ele>203.5</ele><time>2026-04-30T09:39:22.199Z</time></trkpt><trkpt lat="39.606420862829175" lon="9.350656843535432"><ele>202.0</ele><time>2026-04-30T09:39:23.199Z</time></trkpt><trkpt lat="39.60620181257745" lon="9.350757882441108"><ele>202.0</ele><time>2026-04-30T09:39:24.199Z</time></trkpt><trkpt lat="39.6059777403282" lon="9.350858335340611"><ele>202.0</ele><time>2026-04-30T09:39:25.199Z</time></trkpt><trkpt lat="39.60575785848697" lon="9.350965740815857"><ele>202.0</ele><time>2026-04-30T09:39:26.199Z</time></trkpt><trkpt lat="39.605540457997414" lon="9.351082844508873"><ele>202.0</ele><time>2026-04-30T09:39:27.199Z</time></trkpt><trkpt lat="39.60532139129563" lon="9.35119172230596"><ele>204.0</ele><time>2026-04-30T09:39:28.199Z</time></trkpt><trkpt lat="39.605099849905145" lon="9.35129801441904"><ele>206.0</ele><time>2026-04-30T09:39:29.199Z</time></trkpt><trkpt lat="39.60487951661809" lon="9.351402975423479"><ele>206.5</ele><time>2026-04-30T09:39:30.199Z</time></trkpt><trkpt lat="39.60466242647401" lon="9.351510313819563"><ele>207.0</ele><time>2026-04-30T09:39:31.199Z</time></trkpt><trkpt lat="39.604449823590485" lon="9.35161474268386"><ele>208.0</ele><time>2026-04-30T09:39:32.199Z</time></trkpt><trkpt lat="39.604238624374894" lon="9.351718544171705"><ele>209.0</ele><time>2026-04-30T09:39:33.199Z</time></trkpt><trkpt lat="39.604030669471136" lon="9.351826013445882"><ele>209.0</ele><time>2026-04-30T09:39:34.199Z</time></trkpt><trkpt lat="39.60382686435147" lon="9.351930134801048"><ele>209.0</ele><time>2026-04-30T09:39:35.199Z</time></trkpt><trkpt lat="39.60362438598227" lon="9.352030703134439"><ele>209.0</ele><time>2026-04-30T09:39:36.199Z</time></trkpt><trkpt lat="39.60342919270563" lon="9.352136506142044"><ele>210.66666666666669</ele><time>2026-04-30T09:39:37.199Z</time></trkpt><trkpt lat="39.603227854487656" lon="9.352242980046627"><ele>212.33333333333331</ele><time>2026-04-30T09:39:38.199Z</time></trkpt><trkpt lat="39.603023808145466" lon="9.352338394424041"><ele>214.0</ele><time>2026-04-30T09:39:39.199Z</time></trkpt><trkpt lat="39.60281838121599" lon="9.352419710216513"><ele>217.66666666666666</ele><time>2026-04-30T09:39:40.199Z</time></trkpt><trkpt lat="39.602627653473185" lon="9.35253681048426"><ele>221.33333333333331</ele><time>2026-04-30T09:39:41.199Z</time></trkpt><trkpt lat="39.60247143226506" lon="9.352731246010379"><ele>225.0</ele><time>2026-04-30T09:39:42.199Z</time></trkpt><trkpt lat="39.602360998355" lon="9.352970019374302"><ele>224.66666666666669</ele><time>2026-04-30T09:39:43.199Z</time></trkpt><trkpt lat="39.60230164763568" lon="9.353233918678786"><ele>224.33333333333334</ele><time>2026-04-30T09:39:44.199Z</time></trkpt><trkpt lat="39.60226260408888" lon="9.35351810755632"><ele>224.0</ele><time>2026-04-30T09:39:45.199Z</time></trkpt><trkpt lat="39.60221242665345" lon="9.353755907650479"><ele>223.33333333333334</ele><time>2026-04-30T09:39:46.199Z</time></trkpt><trkpt lat="39.602164905055915" lon="9.354016553346574"><ele>222.66666666666669</ele><time>2026-04-30T09:39:47.199Z</time></trkpt><trkpt lat="39.60210084263599" lon="9.354275441528936"><ele>222.0</ele><time>2026-04-30T09:39:48.199Z</time></trkpt><trkpt lat="39.60202678365263" lon="9.354537627599932"><ele>229.66666666666669</ele><time>2026-04-30T09:39:49.199Z</time></trkpt><trkpt lat="39.60194881526055" lon="9.354802779051907"><ele>237.33333333333334</ele><time>2026-04-30T09:39:50.199Z</time></trkpt><trkpt lat="39.601864309559744" lon="9.355066796613063"><ele>245.0</ele><time>2026-04-30T09:39:51.199Z</time></trkpt><trkpt lat="39.601766805161695" lon="9.355323542882282"><ele>242.66666666666669</ele><time>2026-04-30T09:39:52.199Z</time></trkpt><trkpt lat="39.60165207229508" lon="9.35556897507751"><ele>240.33333333333331</ele><time>2026-04-30T09:39:53.199Z</time></trkpt><trkpt lat="39.6015334038334" lon="9.355807308392803"><ele>238.0</ele><time>2026-04-30T09:39:54.199Z</time></trkpt><trkpt lat="39.60141283456032" lon="9.356048573687163"><ele>238.0</ele><time>2026-04-30T09:39:55.199Z</time></trkpt><trkpt lat="39.60129360156434" lon="9.356287511499813"><ele>238.0</ele><time>2026-04-30T09:39:56.199Z</time></trkpt><trkpt lat="39.601182183385085" lon="9.356514507053591"><ele>238.0</ele><time>2026-04-30T09:39:57.199Z</time></trkpt><trkpt lat="39.60107153064759" lon="9.356709524630322"><ele>243.0</ele><time>2026-04-30T09:39:58.199Z</time></trkpt><trkpt lat="39.60094294847968" lon="9.356865126077553"><ele>248.0</ele><time>2026-04-30T09:39:59.199Z</time></trkpt><trkpt lat="39.60077840157005" lon="9.35698625330366"><ele>253.0</ele><time>2026-04-30T09:40:00.199Z</time></trkpt><trkpt lat="39.600587073424" lon="9.357057887730809"><ele>253.0</ele><time>2026-04-30T09:40:01.199Z</time></trkpt><trkpt lat="39.600386646298205" lon="9.357089352161184"><ele>253.0</ele><time>2026-04-30T09:40:02.199Z</time></trkpt><trkpt lat="39.600191434242895" lon="9.357080945103878"><ele>253.0</ele><time>2026-04-30T09:40:03.199Z</time></trkpt><trkpt lat="39.600030342545466" lon="9.35699838400088"><ele>256.0</ele><time>2026-04-30T09:40:04.199Z</time></trkpt><trkpt lat="39.599870469460235" lon="9.356861146301705"><ele>259.0</ele><time>2026-04-30T09:40:05.199Z</time></trkpt><trkpt lat="39.599713212808965" lon="9.356685287085053"><ele>262.0</ele><time>2026-04-30T09:40:06.199Z</time></trkpt><trkpt lat="39.59955358305279" lon="9.356494617340022"><ele>262.3333333333333</ele><time>2026-04-30T09:40:07.199Z</time></trkpt><trkpt lat="39.599397585227194" lon="9.356311404246245"><ele>262.6666666666667</ele><time>2026-04-30T09:40:08.199Z</time></trkpt><trkpt lat="39.5992654669892" lon="9.356138278846629"><ele>263.0</ele><time>2026-04-30T09:40:09.199Z</time></trkpt><trkpt lat="39.59918743389827" lon="9.355932353030662"><ele>263.0</ele><time>2026-04-30T09:40:10.199Z</time></trkpt><trkpt lat="39.59915928995674" lon="9.35569018006733"><ele>263.0</ele><time>2026-04-30T09:40:11.199Z</time></trkpt><trkpt lat="39.59915077041239" lon="9.355431562184103"><ele>263.0</ele><time>2026-04-30T09:40:12.199Z</time></trkpt><trkpt lat="39.59913986743552" lon="9.355171580339091"><ele>263.33333333333337</ele><time>2026-04-30T09:40:13.199Z</time></trkpt><trkpt lat="39.599166819565546" lon="9.354928349460762"><ele>263.6666666666667</ele><time>2026-04-30T09:40:14.199Z</time></trkpt><trkpt lat="39.59924444814096" lon="9.354700322532706"><ele>264.0</ele><time>2026-04-30T09:40:15.199Z</time></trkpt><trkpt lat="39.59934425802244" lon="9.354475646579123"><ele>264.0</ele><time>2026-04-30T09:40:16.199Z</time></trkpt><trkpt lat="39.599433196461526" lon="9.35422620433968"><ele>264.0</ele><time>2026-04-30T09:40:17.199Z</time></trkpt><trkpt lat="39.59948661260794" lon="9.353957224816645"><ele>264.0</ele><time>2026-04-30T09:40:18.199Z</time></trkpt><trkpt lat="39.59953561131701" lon="9.353699233404189"><ele>266.6666666666667</ele><time>2026-04-30T09:40:19.199Z</time></trkpt><trkpt lat="39.59956679448537" lon="9.35346125970377"><ele>269.33333333333337</ele><time>2026-04-30T09:40:20.199Z</time></trkpt><trkpt lat="39.59954267496535" lon="9.353234996675534"><ele>272.0</ele><time>2026-04-30T09:40:21.199Z</time></trkpt><trkpt lat="39.59945742780872" lon="9.353049224570844"><ele>278.0</ele><time>2026-04-30T09:40:22.199Z</time></trkpt><trkpt lat="39.59929998269714" lon="9.352928936144338"><ele>284.0</ele><time>2026-04-30T09:40:23.199Z</time></trkpt><trkpt lat="39.59910132348491" lon="9.352880905128831"><ele>290.0</ele><time>2026-04-30T09:40:24.199Z</time></trkpt><trkpt lat="39.59888166038213" lon="9.35286043634909"><ele>289.6666666666667</ele><time>2026-04-30T09:40:25.199Z</time></trkpt><trkpt lat="39.5986624506343" lon="9.352823972047991"><ele>289.3333333333333</ele><time>2026-04-30T09:40:26.199Z</time></trkpt><trkpt lat="39.59844734735446" lon="9.352766287495404"><ele>289.0</ele><time>2026-04-30T09:40:27.199Z</time></trkpt><trkpt lat="39.59823928907301" lon="9.352670914503308"><ele>289.0</ele><time>2026-04-30T09:40:28.199Z</time></trkpt><trkpt lat="39.59802900370089" lon="9.352566748139214"><ele>289.0</ele><time>2026-04-30T09:40:29.199Z</time></trkpt><trkpt lat="39.59781177647956" lon="9.3524775311977"><ele>286.0</ele><time>2026-04-30T09:40:30.199Z</time></trkpt><trkpt lat="39.597591575141514" lon="9.352406385982942"><ele>283.0</ele><time>2026-04-30T09:40:31.199Z</time></trkpt><trkpt lat="39.59737404744097" lon="9.352345909414936"><ele>280.0</ele><time>2026-04-30T09:40:32.199Z</time></trkpt><trkpt lat="39.59714980965816" lon="9.352293133531623"><ele>278.5</ele><time>2026-04-30T09:40:33.199Z</time></trkpt><trkpt lat="39.59692024508859" lon="9.35223130671069"><ele>277.0</ele><time>2026-04-30T09:40:34.199Z</time></trkpt><trkpt lat="39.596692503159474" lon="9.352165116397607"><ele>287.0</ele><time>2026-04-30T09:40:35.199Z</time></trkpt><trkpt lat="39.59646647865256" lon="9.352101702834798"><ele>297.0</ele><time>2026-04-30T09:40:36.199Z</time></trkpt><trkpt lat="39.5962486917126" lon="9.352056000315448"><ele>294.6666666666667</ele><time>2026-04-30T09:40:37.199Z</time></trkpt><trkpt lat="39.59603406659411" lon="9.352010930667095"><ele>292.33333333333337</ele><time>2026-04-30T09:40:38.199Z</time></trkpt><trkpt lat="39.59583312789537" lon="9.35195517171817"><ele>290.0</ele><time>2026-04-30T09:40:39.199Z</time></trkpt><trkpt lat="39.595649676327774" lon="9.351858099613313"><ele>290.0</ele><time>2026-04-30T09:40:40.199Z</time></trkpt><trkpt lat="39.59548735413589" lon="9.351722759327052"><ele>290.0</ele><time>2026-04-30T09:40:41.199Z</time></trkpt><trkpt lat="39.59533347524653" lon="9.35155934838697"><ele>290.0</ele><time>2026-04-30T09:40:42.199Z</time></trkpt><trkpt lat="39.595198769455024" lon="9.351361847648636"><ele>290.33333333333337</ele><time>2026-04-30T09:40:43.199Z</time></trkpt><trkpt lat="39.59509433443941" lon="9.351140568296323"><ele>290.6666666666667</ele><time>2026-04-30T09:40:44.199Z</time></trkpt><trkpt lat="39.595012131830046" lon="9.350914369344071"><ele>291.0</ele><time>2026-04-30T09:40:45.199Z</time></trkpt><trkpt lat="39.594924786734005" lon="9.350739259768396"><ele>291.0</ele><time>2026-04-30T09:40:46.199Z</time></trkpt><trkpt lat="39.59479681774969" lon="9.350632422831138"><ele>291.0</ele><time>2026-04-30T09:40:47.199Z</time></trkpt><trkpt lat="39.59463820323329" lon="9.350594308620625"><ele>291.0</ele><time>2026-04-30T09:40:48.199Z</time></trkpt><trkpt lat="39.59448105495776" lon="9.350618043759093"><ele>291.0</ele><time>2026-04-30T09:40:49.199Z</time></trkpt><trkpt lat="39.59432488530724" lon="9.350731827636489"><ele>291.0</ele><time>2026-04-30T09:40:50.199Z</time></trkpt><trkpt lat="39.59417200639656" lon="9.350806263045953"><ele>291.0</ele><time>2026-04-30T09:40:51.2Z</time></trkpt><trkpt lat="39.59398344802543" lon="9.35089836298598"><ele>291.0</ele><time>2026-04-30T09:40:52.2Z</time></trkpt><trkpt lat="39.59378935485212" lon="9.350989323373833"><ele>291.0</ele><time>2026-04-30T09:40:53.2Z</time></trkpt><trkpt lat="39.59358311729843" lon="9.351080639225534"><ele>291.0</ele><time>2026-04-30T09:40:54.2Z</time></trkpt><trkpt lat="39.593372286217914" lon="9.351158776722132"><ele>295.0</ele><time>2026-04-30T09:40:55.2Z</time></trkpt><trkpt lat="39.59316259000873" lon="9.351232664073981"><ele>299.0</ele><time>2026-04-30T09:40:56.2Z</time></trkpt><trkpt lat="39.59296604239763" lon="9.351300668310873"><ele>303.0</ele><time>2026-04-30T09:40:57.2Z</time></trkpt><trkpt lat="39.592770138549476" lon="9.351363489969044"><ele>306.6666666666667</ele><time>2026-04-30T09:40:58.2Z</time></trkpt><trkpt lat="39.59256654044158" lon="9.35138238108857"><ele>310.33333333333337</ele><time>2026-04-30T09:40:59.2Z</time></trkpt><trkpt lat="39.59235887270525" lon="9.351368749842711"><ele>314.0</ele><time>2026-04-30T09:41:00.2Z</time></trkpt><trkpt lat="39.592150330814164" lon="9.351354598163127"><ele>316.33333333333337</ele><time>2026-04-30T09:41:01.2Z</time></trkpt><trkpt lat="39.59193526157529" lon="9.351352503314716"><ele>318.6666666666667</ele><time>2026-04-30T09:41:02.2Z</time></trkpt><trkpt lat="39.591740969409244" lon="9.35134419390068"><ele>321.0</ele><time>2026-04-30T09:41:03.2Z</time></trkpt><trkpt lat="39.59156447725242" lon="9.35137485103962"><ele>313.0</ele><time>2026-04-30T09:41:04.2Z</time></trkpt><trkpt lat="39.5914145827083" lon="9.351495272515765"><ele>305.0</ele><time>2026-04-30T09:41:05.2Z</time></trkpt><trkpt lat="39.59129190036976" lon="9.351676645755571"><ele>297.0</ele><time>2026-04-30T09:41:06.2Z</time></trkpt><trkpt lat="39.59122031835659" lon="9.351901808277551"><ele>299.6666666666667</ele><time>2026-04-30T09:41:07.2Z</time></trkpt><trkpt lat="39.591173918388556" lon="9.352141408078172"><ele>302.33333333333337</ele><time>2026-04-30T09:41:08.201Z</time></trkpt><trkpt lat="39.59108514940044" lon="9.352340634033794"><ele>305.0</ele><time>2026-04-30T09:41:09.2Z</time></trkpt><trkpt lat="39.5909465211172" lon="9.352504805904506"><ele>305.0</ele><time>2026-04-30T09:41:10.201Z</time></trkpt><trkpt lat="39.590787620094105" lon="9.352655423697014"><ele>305.0</ele><time>2026-04-30T09:41:11.202Z</time></trkpt><trkpt lat="39.59062199668817" lon="9.35280999276129"><ele>305.0</ele><time>2026-04-30T09:41:12.201Z</time></trkpt><trkpt lat="39.59045212814041" lon="9.352972635384267"><ele>300.33333333333337</ele><time>2026-04-30T09:41:13.201Z</time></trkpt><trkpt lat="39.59028845024292" lon="9.353123624173001"><ele>295.6666666666667</ele><time>2026-04-30T09:41:14.201Z</time></trkpt><trkpt lat="39.59014093231471" lon="9.353270340125013"><ele>291.0</ele><time>2026-04-30T09:41:15.201Z</time></trkpt><trkpt lat="39.59003119042872" lon="9.353452324997935"><ele>291.0</ele><time>2026-04-30T09:41:16.201Z</time></trkpt><trkpt lat="39.58997568501637" lon="9.353673800199923"><ele>291.0</ele><time>2026-04-30T09:41:17.201Z</time></trkpt><trkpt lat="39.58995100603128" lon="9.353913592894035"><ele>291.0</ele><time>2026-04-30T09:41:18.202Z</time></trkpt><trkpt lat="39.58992639837805" lon="9.35414602460695"><ele>293.3333333333333</ele><time>2026-04-30T09:41:19.202Z</time></trkpt><trkpt lat="39.58986475616945" lon="9.354357721372262"><ele>295.66666666666663</ele><time>2026-04-30T09:41:20.201Z</time></trkpt><trkpt lat="39.58974747900498" lon="9.35451752683836"><ele>298.0</ele><time>2026-04-30T09:41:21.201Z</time></trkpt><trkpt lat="39.58958861883112" lon="9.354618495803273"><ele>291.0</ele><time>2026-04-30T09:41:22.201Z</time></trkpt><trkpt lat="39.58939641453653" lon="9.354642282125422"><ele>284.0</ele><time>2026-04-30T09:41:23.201Z</time></trkpt><trkpt lat="39.58920770321105" lon="9.35458942082572"><ele>277.0</ele><time>2026-04-30T09:41:24.202Z</time></trkpt><trkpt lat="39.58901815631877" lon="9.354543640078637"><ele>277.0</ele><time>2026-04-30T09:41:25.202Z</time></trkpt><trkpt lat="39.58882477984922" lon="9.354586205953316"><ele>277.0</ele><time>2026-04-30T09:41:26.202Z</time></trkpt><trkpt lat="39.58864822848627" lon="9.354721302830056"><ele>277.0</ele><time>2026-04-30T09:41:27.202Z</time></trkpt><trkpt lat="39.5885108479255" lon="9.35488870179229"><ele>278.66666666666663</ele><time>2026-04-30T09:41:28.202Z</time></trkpt><trkpt lat="39.58838578946171" lon="9.355098732356455"><ele>280.3333333333333</ele><time>2026-04-30T09:41:29.202Z</time></trkpt><trkpt lat="39.5882653647471" lon="9.35531267186392"><ele>282.0</ele><time>2026-04-30T09:41:30.202Z</time></trkpt><trkpt lat="39.58814352175566" lon="9.355498659416504"><ele>282.3333333333333</ele><time>2026-04-30T09:41:31.202Z</time></trkpt><trkpt lat="39.588021835086714" lon="9.35567256876642"><ele>282.66666666666663</ele><time>2026-04-30T09:41:32.202Z</time></trkpt><trkpt lat="39.58788018501322" lon="9.355779693275782"><ele>283.0</ele><time>2026-04-30T09:41:33.202Z</time></trkpt><trkpt lat="39.587704511751866" lon="9.35578877796665"><ele>283.0</ele><time>2026-04-30T09:41:34.202Z</time></trkpt><trkpt lat="39.58752575684116" lon="9.35573163262738"><ele>283.0</ele><time>2026-04-30T09:41:35.202Z</time></trkpt><trkpt lat="39.587360835794755" lon="9.355683730109154"><ele>283.0</ele><time>2026-04-30T09:41:36.202Z</time></trkpt><trkpt lat="39.587205345512395" lon="9.355713877974328"><ele>283.0</ele><time>2026-04-30T09:41:37.202Z</time></trkpt><trkpt lat="39.587081554825374" lon="9.355846928265377"><ele>283.0</ele><time>2026-04-30T09:41:38.202Z</time></trkpt><trkpt lat="39.586985537107815" lon="9.356049801689503"><ele>283.0</ele><time>2026-04-30T09:41:39.202Z</time></trkpt><trkpt lat="39.58691134878201" lon="9.356305894202473"><ele>279.66666666666663</ele><time>2026-04-30T09:41:40.202Z</time></trkpt><trkpt lat="39.586847662560224" lon="9.356560899399138"><ele>276.3333333333333</ele><time>2026-04-30T09:41:41.202Z</time></trkpt><trkpt lat="39.58677960456292" lon="9.356787194081235"><ele>273.0</ele><time>2026-04-30T09:41:42.202Z</time></trkpt><trkpt lat="39.58667882296958" lon="9.356977530940545"><ele>273.0</ele><time>2026-04-30T09:41:43.202Z</time></trkpt><trkpt lat="39.586528556643486" lon="9.35710383416185"><ele>273.0</ele><time>2026-04-30T09:41:44.202Z</time></trkpt><trkpt lat="39.586345361424065" lon="9.357184528575042"><ele>273.0</ele><time>2026-04-30T09:41:45.202Z</time></trkpt><trkpt lat="39.586147071422" lon="9.357253902561927"><ele>272.3333333333333</ele><time>2026-04-30T09:41:46.202Z</time></trkpt><trkpt lat="39.58594074225329" lon="9.357335596109303"><ele>271.66666666666663</ele><time>2026-04-30T09:41:47.202Z</time></trkpt><trkpt lat="39.58573426646018" lon="9.357417412492442"><ele>271.0</ele><time>2026-04-30T09:41:48.202Z</time></trkpt><trkpt lat="39.58552220445052" lon="9.357479955967456"><ele>267.3333333333333</ele><time>2026-04-30T09:41:49.202Z</time></trkpt><trkpt lat="39.585309590723135" lon="9.357531630533934"><ele>263.6666666666667</ele><time>2026-04-30T09:41:50.202Z</time></trkpt><trkpt lat="39.58509808353283" lon="9.357581179046152"><ele>260.0</ele><time>2026-04-30T09:41:51.202Z</time></trkpt><trkpt lat="39.584881395830664" lon="9.35762743091764"><ele>260.0</ele><time>2026-04-30T09:41:52.202Z</time></trkpt><trkpt lat="39.584662509905115" lon="9.357671098798896"><ele>260.0</ele><time>2026-04-30T09:41:53.202Z</time></trkpt><trkpt lat="39.58444852885819" lon="9.35771100554518"><ele>260.0</ele><time>2026-04-30T09:41:54.202Z</time></trkpt><trkpt lat="39.58424852753755" lon="9.35775055407104"><ele>255.33333333333334</ele><time>2026-04-30T09:41:55.202Z</time></trkpt><trkpt lat="39.5840557142464" lon="9.35778534516563"><ele>250.66666666666669</ele><time>2026-04-30T09:41:56.202Z</time></trkpt><trkpt lat="39.58387126022394" lon="9.357845710419683"><ele>246.0</ele><time>2026-04-30T09:41:57.202Z</time></trkpt><trkpt lat="39.58370971542281" lon="9.357989300290336"><ele>248.0</ele><time>2026-04-30T09:41:58.202Z</time></trkpt><trkpt lat="39.58355138920898" lon="9.358167824480125"><ele>250.0</ele><time>2026-04-30T09:41:59.202Z</time></trkpt><trkpt lat="39.58338806043457" lon="9.358347704073756"><ele>252.0</ele><time>2026-04-30T09:42:00.202Z</time></trkpt><trkpt lat="39.58321471047034" lon="9.3585285973465"><ele>252.0</ele><time>2026-04-30T09:42:01.202Z</time></trkpt><trkpt lat="39.58304301479683" lon="9.358715935168956"><ele>252.0</ele><time>2026-04-30T09:42:02.202Z</time></trkpt><trkpt lat="39.58287372093553" lon="9.358902488378591"><ele>252.0</ele><time>2026-04-30T09:42:03.202Z</time></trkpt><trkpt lat="39.582706822320894" lon="9.359087032540138"><ele>252.66666666666669</ele><time>2026-04-30T09:42:04.202Z</time></trkpt><trkpt lat="39.582551458187105" lon="9.359282549707517"><ele>253.33333333333334</ele><time>2026-04-30T09:42:05.202Z</time></trkpt><trkpt lat="39.58241950479578" lon="9.359504993661043"><ele>254.0</ele><time>2026-04-30T09:42:06.202Z</time></trkpt><trkpt lat="39.582300996339804" lon="9.359739988593974"><ele>255.33333333333334</ele><time>2026-04-30T09:42:07.202Z</time></trkpt><trkpt lat="39.58219075977577" lon="9.3599644264701"><ele>256.6666666666667</ele><time>2026-04-30T09:42:08.202Z</time></trkpt><trkpt lat="39.582061093054826" lon="9.360149632062047"><ele>258.0</ele><time>2026-04-30T09:42:09.202Z</time></trkpt><trkpt lat="39.581909507199384" lon="9.360274604992032"><ele>251.0</ele><time>2026-04-30T09:42:10.202Z</time></trkpt><trkpt lat="39.58172801834018" lon="9.36034088038712"><ele>244.0</ele><time>2026-04-30T09:42:11.202Z</time></trkpt><trkpt lat="39.58151582660322" lon="9.360345496130192"><ele>237.0</ele><time>2026-04-30T09:42:12.202Z</time></trkpt><trkpt lat="39.58129969750288" lon="9.360298051395976"><ele>231.0</ele><time>2026-04-30T09:42:13.202Z</time></trkpt><trkpt lat="39.581104863565805" lon="9.360233469323818"><ele>225.0</ele><time>2026-04-30T09:42:14.202Z</time></trkpt><trkpt lat="39.58092925543837" lon="9.36015365410246"><ele>219.0</ele><time>2026-04-30T09:42:15.202Z</time></trkpt><trkpt lat="39.58078331848534" lon="9.36001848904086"><ele>219.0</ele><time>2026-04-30T09:42:16.202Z</time></trkpt><trkpt lat="39.58067339842932" lon="9.359808084024904"><ele>219.0</ele><time>2026-04-30T09:42:17.202Z</time></trkpt><trkpt lat="39.580593806866496" lon="9.359561781020219"><ele>219.0</ele><time>2026-04-30T09:42:18.202Z</time></trkpt><trkpt lat="39.58051486428671" lon="9.359303182006286"><ele>221.0</ele><time>2026-04-30T09:42:19.202Z</time></trkpt><trkpt lat="39.58044853944693" lon="9.359065647886112"><ele>223.0</ele><time>2026-04-30T09:42:20.202Z</time></trkpt><trkpt lat="39.580442870299294" lon="9.35883503719545"><ele>225.0</ele><time>2026-04-30T09:42:21.202Z</time></trkpt><trkpt lat="39.580500511618865" lon="9.358590905570852"><ele>225.0</ele><time>2026-04-30T09:42:22.202Z</time></trkpt><trkpt lat="39.58059709605637" lon="9.358345178138004"><ele>225.0</ele><time>2026-04-30T09:42:23.202Z</time></trkpt><trkpt lat="39.58071897656036" lon="9.358109300975546"><ele>225.0</ele><time>2026-04-30T09:42:24.202Z</time></trkpt><trkpt lat="39.58086729059303" lon="9.357895148447785"><ele>225.66666666666669</ele><time>2026-04-30T09:42:25.202Z</time></trkpt><trkpt lat="39.58101129646814" lon="9.357693767632638"><ele>226.33333333333334</ele><time>2026-04-30T09:42:26.202Z</time></trkpt><trkpt lat="39.58113026561403" lon="9.35748544364687"><ele>227.0</ele><time>2026-04-30T09:42:27.202Z</time></trkpt><trkpt lat="39.58120463875539" lon="9.357258024477296"><ele>222.33333333333334</ele><time>2026-04-30T09:42:28.202Z</time></trkpt><trkpt lat="39.5812213875926" lon="9.357006359052493"><ele>217.66666666666669</ele><time>2026-04-30T09:42:29.202Z</time></trkpt><trkpt lat="39.58121789582089" lon="9.35674588597557"><ele>213.0</ele><time>2026-04-30T09:42:30.202Z</time></trkpt><trkpt lat="39.58120377876087" lon="9.356478681702534"><ele>208.66666666666669</ele><time>2026-04-30T09:42:31.202Z</time></trkpt><trkpt lat="39.58117877758707" lon="9.35620169209904"><ele>204.33333333333334</ele><time>2026-04-30T09:42:32.202Z</time></trkpt><trkpt lat="39.581145803803416" lon="9.355922986136484"><ele>200.0</ele><time>2026-04-30T09:42:33.202Z</time></trkpt><trkpt lat="39.58110485028286" lon="9.355642280687018"><ele>201.66666666666669</ele><time>2026-04-30T09:42:34.202Z</time></trkpt><trkpt lat="39.5810681199611" lon="9.35537281780988"><ele>203.33333333333331</ele><time>2026-04-30T09:42:35.202Z</time></trkpt><trkpt lat="39.58103317394735" lon="9.355109868146064"><ele>205.0</ele><time>2026-04-30T09:42:36.202Z</time></trkpt><trkpt lat="39.58100087348757" lon="9.354847651286688"><ele>203.66666666666666</ele><time>2026-04-30T09:42:37.202Z</time></trkpt><trkpt lat="39.580956784433596" lon="9.354592093905486"><ele>202.33333333333331</ele><time>2026-04-30T09:42:38.202Z</time></trkpt><trkpt lat="39.58088451507221" lon="9.354359101575067"><ele>201.0</ele><time>2026-04-30T09:42:39.202Z</time></trkpt><trkpt lat="39.580778191123414" lon="9.354169821816349"><ele>201.0</ele><time>2026-04-30T09:42:40.202Z</time></trkpt><trkpt lat="39.58062743750207" lon="9.354018380201557"><ele>201.0</ele><time>2026-04-30T09:42:41.202Z</time></trkpt><trkpt lat="39.58043164257831" lon="9.353927012846853"><ele>201.0</ele><time>2026-04-30T09:42:42.202Z</time></trkpt><trkpt lat="39.58020913881188" lon="9.3538723053392"><ele>198.5</ele><time>2026-04-30T09:42:43.202Z</time></trkpt><trkpt lat="39.57997651191194" lon="9.353881483705887"><ele>196.0</ele><time>2026-04-30T09:42:44.202Z</time></trkpt><trkpt lat="39.579756133466525" lon="9.35391221307777"><ele>196.0</ele><time>2026-04-30T09:42:45.202Z</time></trkpt><trkpt lat="39.57954295218374" lon="9.353976220957316"><ele>196.0</ele><time>2026-04-30T09:42:46.202Z</time></trkpt><trkpt lat="39.57932624817175" lon="9.354037793216131"><ele>196.0</ele><time>2026-04-30T09:42:47.202Z</time></trkpt><trkpt lat="39.57911429812473" lon="9.354088505234856"><ele>194.66666666666666</ele><time>2026-04-30T09:42:48.202Z</time></trkpt><trkpt lat="39.57890010135797" lon="9.35413016211225"><ele>193.33333333333331</ele><time>2026-04-30T09:42:49.202Z</time></trkpt><trkpt lat="39.57867914572445" lon="9.354160029643982"><ele>192.0</ele><time>2026-04-30T09:42:50.202Z</time></trkpt><trkpt lat="39.57845842184624" lon="9.354153163727132"><ele>190.0</ele><time>2026-04-30T09:42:51.202Z</time></trkpt><trkpt lat="39.578229057459204" lon="9.354131344046621"><ele>188.0</ele><time>2026-04-30T09:42:52.202Z</time></trkpt><trkpt lat="39.577994729098826" lon="9.35411036166901"><ele>186.5</ele><time>2026-04-30T09:42:53.202Z</time></trkpt><trkpt lat="39.57776587673375" lon="9.354105993638647"><ele>185.0</ele><time>2026-04-30T09:42:54.202Z</time></trkpt><trkpt lat="39.57753376530444" lon="9.354108360355237"><ele>185.0</ele><time>2026-04-30T09:42:55.202Z</time></trkpt><trkpt lat="39.57730849508673" lon="9.354108954845088"><ele>185.0</ele><time>2026-04-30T09:42:56.202Z</time></trkpt><trkpt lat="39.57708045728062" lon="9.354102099053424"><ele>182.5</ele><time>2026-04-30T09:42:57.202Z</time></trkpt><trkpt lat="39.57685509348722" lon="9.354102607231574"><ele>180.0</ele><time>2026-04-30T09:42:58.202Z</time></trkpt><trkpt lat="39.57662626395371" lon="9.354102809717215"><ele>180.0</ele><time>2026-04-30T09:42:59.202Z</time></trkpt><trkpt lat="39.576395277657625" lon="9.354106043175353"><ele>180.0</ele><time>2026-04-30T09:43:00.202Z</time></trkpt><trkpt lat="39.57616221945784" lon="9.354104725947872"><ele>176.5</ele><time>2026-04-30T09:43:01.202Z</time></trkpt><trkpt lat="39.57593674051228" lon="9.3540844587413"><ele>173.0</ele><time>2026-04-30T09:43:02.202Z</time></trkpt><trkpt lat="39.57571248092817" lon="9.354028277569244"><ele>173.0</ele><time>2026-04-30T09:43:03.202Z</time></trkpt><trkpt lat="39.57551137633463" lon="9.353931039737635"><ele>173.0</ele><time>2026-04-30T09:43:04.202Z</time></trkpt><trkpt lat="39.57531965881882" lon="9.353802685800884"><ele>173.0</ele><time>2026-04-30T09:43:05.202Z</time></trkpt><trkpt lat="39.57512281855587" lon="9.353656964713077"><ele>169.5</ele><time>2026-04-30T09:43:06.202Z</time></trkpt><trkpt lat="39.5749278287821" lon="9.35351052495345"><ele>166.0</ele><time>2026-04-30T09:43:07.202Z</time></trkpt><trkpt lat="39.574731317947496" lon="9.353357508733364"><ele>166.0</ele><time>2026-04-30T09:43:08.202Z</time></trkpt><trkpt lat="39.57455049404232" lon="9.353173026432106"><ele>166.0</ele><time>2026-04-30T09:43:09.202Z</time></trkpt><trkpt lat="39.57437894495176" lon="9.352971928234942"><ele>165.5</ele><time>2026-04-30T09:43:10.202Z</time></trkpt><trkpt lat="39.57421166161771" lon="9.352760318822286"><ele>165.0</ele><time>2026-04-30T09:43:11.202Z</time></trkpt><trkpt lat="39.57404344369827" lon="9.352547282851878"><ele>165.0</ele><time>2026-04-30T09:43:12.202Z</time></trkpt><trkpt lat="39.57387725602927" lon="9.352326006829243"><ele>165.0</ele><time>2026-04-30T09:43:13.202Z</time></trkpt><trkpt lat="39.57372121203886" lon="9.352104903278773"><ele>164.0</ele><time>2026-04-30T09:43:14.203Z</time></trkpt><trkpt lat="39.57357148911773" lon="9.35189738765016"><ele>163.0</ele><time>2026-04-30T09:43:15.203Z</time></trkpt><trkpt lat="39.57344119095244" lon="9.351674942933826"><ele>162.0</ele><time>2026-04-30T09:43:16.203Z</time></trkpt><trkpt lat="39.573354764818205" lon="9.351430991528265"><ele>159.33333333333334</ele><time>2026-04-30T09:43:17.203Z</time></trkpt><trkpt lat="39.57328966020349" lon="9.351162583235245"><ele>156.66666666666669</ele><time>2026-04-30T09:43:18.203Z</time></trkpt><trkpt lat="39.57323585462375" lon="9.350883731812111"><ele>154.0</ele><time>2026-04-30T09:43:19.203Z</time></trkpt><trkpt lat="39.57318132316204" lon="9.350618172922813"><ele>152.33333333333334</ele><time>2026-04-30T09:43:20.203Z</time></trkpt><trkpt lat="39.57311060753214" lon="9.350366679273195"><ele>150.66666666666666</ele><time>2026-04-30T09:43:21.203Z</time></trkpt><trkpt lat="39.57298665902604" lon="9.350139428912923"><ele>149.0</ele><time>2026-04-30T09:43:22.203Z</time></trkpt><trkpt lat="39.57280258419125" lon="9.349963614431719"><ele>148.5</ele><time>2026-04-30T09:43:23.203Z</time></trkpt><trkpt lat="39.572599979267636" lon="9.349793035920413"><ele>148.0</ele><time>2026-04-30T09:43:24.204Z</time></trkpt><trkpt lat="39.572395030212796" lon="9.349650552243085"><ele>146.0</ele><time>2026-04-30T09:43:25.204Z</time></trkpt><trkpt lat="39.5721798262655" lon="9.34954248428497"><ele>144.0</ele><time>2026-04-30T09:43:26.203Z</time></trkpt><trkpt lat="39.571949935612416" lon="9.349466516533754"><ele>139.5</ele><time>2026-04-30T09:43:27.203Z</time></trkpt><trkpt lat="39.57172256086257" lon="9.349388798355852"><ele>135.0</ele><time>2026-04-30T09:43:28.203Z</time></trkpt><trkpt lat="39.5714978510834" lon="9.349293938947127"><ele>135.0</ele><time>2026-04-30T09:43:29.203Z</time></trkpt><trkpt lat="39.571269616349625" lon="9.349215171710634"><ele>135.0</ele><time>2026-04-30T09:43:30.203Z</time></trkpt><trkpt lat="39.571036057168094" lon="9.349142054719337"><ele>133.5</ele><time>2026-04-30T09:43:31.203Z</time></trkpt><trkpt lat="39.57080167606442" lon="9.349072858901012"><ele>132.0</ele><time>2026-04-30T09:43:32.203Z</time></trkpt><trkpt lat="39.57056664336011" lon="9.34900377456039"><ele>132.5</ele><time>2026-04-30T09:43:33.203Z</time></trkpt><trkpt lat="39.570334127600084" lon="9.348936390621146"><ele>133.0</ele><time>2026-04-30T09:43:34.203Z</time></trkpt><trkpt lat="39.57009732959299" lon="9.348876005002626"><ele>130.0</ele><time>2026-04-30T09:43:35.203Z</time></trkpt><trkpt lat="39.56985999788738" lon="9.348815139347668"><ele>127.0</ele><time>2026-04-30T09:43:36.204Z</time></trkpt><trkpt lat="39.56962161384745" lon="9.348770420072675"><ele>125.0</ele><time>2026-04-30T09:43:37.204Z</time></trkpt><trkpt lat="39.56938331686088" lon="9.348747030678503"><ele>123.0</ele><time>2026-04-30T09:43:38.204Z</time></trkpt><trkpt lat="39.56914892036759" lon="9.348750682410467"><ele>123.0</ele><time>2026-04-30T09:43:39.204Z</time></trkpt><trkpt lat="39.56891663477766" lon="9.348765449508267"><ele>123.0</ele><time>2026-04-30T09:43:40.204Z</time></trkpt><trkpt lat="39.56868577741655" lon="9.348809848093433"><ele>121.0</ele><time>2026-04-30T09:43:41.204Z</time></trkpt><trkpt lat="39.568465570784056" lon="9.348898137414132"><ele>119.0</ele><time>2026-04-30T09:43:42.204Z</time></trkpt><trkpt lat="39.56825540212919" lon="9.349021194649337"><ele>119.0</ele><time>2026-04-30T09:43:43.204Z</time></trkpt><trkpt lat="39.568049947757125" lon="9.349155540887665"><ele>119.0</ele><time>2026-04-30T09:43:44.204Z</time></trkpt><trkpt lat="39.567841600066174" lon="9.349280768909514"><ele>114.0</ele><time>2026-04-30T09:43:45.204Z</time></trkpt><trkpt lat="39.56762878360784" lon="9.34940012013488"><ele>109.0</ele><time>2026-04-30T09:43:46.204Z</time></trkpt><trkpt lat="39.56740908235103" lon="9.349506362632154"><ele>109.0</ele><time>2026-04-30T09:43:47.204Z</time></trkpt><trkpt lat="39.56719156941517" lon="9.34960253064929"><ele>109.0</ele><time>2026-04-30T09:43:48.204Z</time></trkpt><trkpt lat="39.56697362730489" lon="9.349700060222695"><ele>108.0</ele><time>2026-04-30T09:43:49.204Z</time></trkpt><trkpt lat="39.56676174721323" lon="9.349798556166988"><ele>107.0</ele><time>2026-04-30T09:43:50.204Z</time></trkpt><trkpt lat="39.56655904373506" lon="9.349888746310947"><ele>106.0</ele><time>2026-04-30T09:43:51.204Z</time></trkpt><trkpt lat="39.56635848261097" lon="9.349963322527469"><ele>105.0</ele><time>2026-04-30T09:43:52.204Z</time></trkpt><trkpt lat="39.566149838877514" lon="9.35000540453861"><ele>104.0</ele><time>2026-04-30T09:43:53.204Z</time></trkpt><trkpt lat="39.56592723689595" lon="9.350013295858572"><ele>103.0</ele><time>2026-04-30T09:43:54.204Z</time></trkpt><trkpt lat="39.56569647792271" lon="9.349997224632096"><ele>103.0</ele><time>2026-04-30T09:43:55.204Z</time></trkpt><trkpt lat="39.5654573764582" lon="9.349983163556157"><ele>103.0</ele><time>2026-04-30T09:43:56.204Z</time></trkpt><trkpt lat="39.56522636978991" lon="9.349952845523186"><ele>101.0</ele><time>2026-04-30T09:43:57.204Z</time></trkpt><trkpt lat="39.56498294774863" lon="9.35002236639247"><ele>99.0</ele><time>2026-04-30T09:43:58.204Z</time></trkpt><trkpt lat="39.56474320109562" lon="9.350010771209295"><ele>98.0</ele><time>2026-04-30T09:43:59.204Z</time></trkpt><trkpt lat="39.56450177901861" lon="9.349997191178076"><ele>97.0</ele><time>2026-04-30T09:44:00.204Z</time></trkpt><trkpt lat="39.56425688110453" lon="9.349987921647136"><ele>97.0</ele><time>2026-04-30T09:44:01.204Z</time></trkpt><trkpt lat="39.56401308098362" lon="9.34997429585433"><ele>97.0</ele><time>2026-04-30T09:44:02.204Z</time></trkpt><trkpt lat="39.56376763749239" lon="9.349961788089882"><ele>96.0</ele><time>2026-04-30T09:44:03.204Z</time></trkpt><trkpt lat="39.56352317609369" lon="9.349947990933664"><ele>95.0</ele><time>2026-04-30T09:44:04.204Z</time></trkpt><trkpt lat="39.56328057212059" lon="9.349937081265379"><ele>95.0</ele><time>2026-04-30T09:44:05.204Z</time></trkpt><trkpt lat="39.56303698890195" lon="9.349926330572872"><ele>95.0</ele><time>2026-04-30T09:44:06.204Z</time></trkpt><trkpt lat="39.56279484051091" lon="9.34991799725657"><ele>94.0</ele><time>2026-04-30T09:44:07.204Z</time></trkpt><trkpt lat="39.56255449607988" lon="9.34990900590197"><ele>93.0</ele><time>2026-04-30T09:44:08.204Z</time></trkpt><trkpt lat="39.56231585833311" lon="9.349897584290657"><ele>93.0</ele><time>2026-04-30T09:44:09.204Z</time></trkpt><trkpt lat="39.562076552223495" lon="9.349884209086746"><ele>93.0</ele><time>2026-04-30T09:44:10.204Z</time></trkpt><trkpt lat="39.56184278427969" lon="9.349875927877484"><ele>91.0</ele><time>2026-04-30T09:44:11.204Z</time></trkpt><trkpt lat="39.56160972329802" lon="9.349863811310604"><ele>89.0</ele><time>2026-04-30T09:44:12.204Z</time></trkpt><trkpt lat="39.56137728854988" lon="9.349847186117536"><ele>89.0</ele><time>2026-04-30T09:44:13.204Z</time></trkpt><trkpt lat="39.56114446488309" lon="9.349844526870847"><ele>89.0</ele><time>2026-04-30T09:44:14.204Z</time></trkpt><trkpt lat="39.56090964448279" lon="9.349873378777698"><ele>89.0</ele><time>2026-04-30T09:44:15.204Z</time></trkpt><trkpt lat="39.56068836757744" lon="9.349967257926588"><ele>89.0</ele><time>2026-04-30T09:44:16.204Z</time></trkpt><trkpt lat="39.56047547062372" lon="9.350107819599263"><ele>89.0</ele><time>2026-04-30T09:44:17.204Z</time></trkpt><trkpt lat="39.56027119210353" lon="9.350258995131375"><ele>89.0</ele><time>2026-04-30T09:44:18.204Z</time></trkpt><trkpt lat="39.560061412111374" lon="9.3504096735105"><ele>89.0</ele><time>2026-04-30T09:44:19.204Z</time></trkpt><trkpt lat="39.56001425280921" lon="9.350719572314247"><ele>89.0</ele><time>2026-04-30T09:44:20.204Z</time></trkpt><trkpt lat="39.55977569348255" lon="9.350906438521267"><ele>89.5</ele><time>2026-04-30T09:44:21.204Z</time></trkpt><trkpt lat="39.55944002452802" lon="9.35088541755127"><ele>90.0</ele><time>2026-04-30T09:44:22.204Z</time></trkpt><trkpt lat="39.559217943523144" lon="9.351020859168456"><ele>90.0</ele><time>2026-04-30T09:44:23.204Z</time></trkpt><trkpt lat="39.55899732173951" lon="9.351155552887747"><ele>90.0</ele><time>2026-04-30T09:44:24.204Z</time></trkpt><trkpt lat="39.55877446760744" lon="9.351299357259272"><ele>89.5</ele><time>2026-04-30T09:44:25.204Z</time></trkpt><trkpt lat="39.55855975850199" lon="9.351445768220028"><ele>89.0</ele><time>2026-04-30T09:44:26.204Z</time></trkpt><trkpt lat="39.55833992023361" lon="9.351587209904332"><ele>89.0</ele><time>2026-04-30T09:44:27.204Z</time></trkpt><trkpt lat="39.55811760258993" lon="9.351731224358447"><ele>89.0</ele><time>2026-04-30T09:44:28.204Z</time></trkpt><trkpt lat="39.55789568029613" lon="9.351870257983377"><ele>88.5</ele><time>2026-04-30T09:44:29.204Z</time></trkpt><trkpt lat="39.55768536897569" lon="9.35201359083711"><ele>88.0</ele><time>2026-04-30T09:44:30.204Z</time></trkpt><trkpt lat="39.55746900471624" lon="9.352161939968159"><ele>88.0</ele><time>2026-04-30T09:44:31.204Z</time></trkpt><trkpt lat="39.55724230975416" lon="9.352296621634979"><ele>88.0</ele><time>2026-04-30T09:44:32.204Z</time></trkpt><trkpt lat="39.557018845088805" lon="9.352436220882101"><ele>88.0</ele><time>2026-04-30T09:44:33.204Z</time></trkpt><trkpt lat="39.55679989064421" lon="9.352571480446068"><ele>88.0</ele><time>2026-04-30T09:44:34.204Z</time></trkpt><trkpt lat="39.55659414286612" lon="9.352716091156342"><ele>88.0</ele><time>2026-04-30T09:44:35.204Z</time></trkpt><trkpt lat="39.556398303717394" lon="9.352888034340552"><ele>88.0</ele><time>2026-04-30T09:44:36.204Z</time></trkpt><trkpt lat="39.55623656225044" lon="9.353108710610849"><ele>87.0</ele><time>2026-04-30T09:44:37.204Z</time></trkpt><trkpt lat="39.55614067909963" lon="9.353359228174178"><ele>86.0</ele><time>2026-04-30T09:44:38.204Z</time></trkpt><trkpt lat="39.556047344663554" lon="9.35359657632875"><ele>85.0</ele><time>2026-04-30T09:44:39.204Z</time></trkpt><trkpt lat="39.55595139926866" lon="9.353804686229022"><ele>85.66666666666666</ele><time>2026-04-30T09:44:40.204Z</time></trkpt><trkpt lat="39.55582543822416" lon="9.353972148991396"><ele>86.33333333333333</ele><time>2026-04-30T09:44:41.204Z</time></trkpt><trkpt lat="39.555668907173" lon="9.354083707732121"><ele>87.0</ele><time>2026-04-30T09:44:42.204Z</time></trkpt><trkpt lat="39.555515851361754" lon="9.354121617170737"><ele>85.66666666666667</ele><time>2026-04-30T09:44:43.204Z</time></trkpt><trkpt lat="39.555350074893305" lon="9.354083284050061"><ele>84.33333333333334</ele><time>2026-04-30T09:44:44.204Z</time></trkpt><trkpt lat="39.55519005780849" lon="9.353999106799016"><ele>83.0</ele><time>2026-04-30T09:44:45.204Z</time></trkpt><trkpt lat="39.55502854706066" lon="9.353908606433665"><ele>83.33333333333334</ele><time>2026-04-30T09:44:46.204Z</time></trkpt><trkpt lat="39.5548579649409" lon="9.353821481005385"><ele>83.66666666666667</ele><time>2026-04-30T09:44:47.204Z</time></trkpt><trkpt lat="39.554684770543886" lon="9.353747188108134"><ele>84.0</ele><time>2026-04-30T09:44:48.204Z</time></trkpt><trkpt lat="39.55451501806306" lon="9.353665806243729"><ele>84.33333333333333</ele><time>2026-04-30T09:44:49.204Z</time></trkpt><trkpt lat="39.55434667027087" lon="9.353593792629901"><ele>84.66666666666666</ele><time>2026-04-30T09:44:50.204Z</time></trkpt><trkpt lat="39.5541904540283" lon="9.353524601469513"><ele>85.0</ele><time>2026-04-30T09:44:51.204Z</time></trkpt><trkpt lat="39.55404807099955" lon="9.353452306615798"><ele>85.0</ele><time>2026-04-30T09:44:52.204Z</time></trkpt><trkpt lat="39.55393360774201" lon="9.353404338956974"><ele>85.0</ele><time>2026-04-30T09:44:53.204Z</time></trkpt><trkpt lat="39.55381202164647" lon="9.353406614824424"><ele>85.0</ele><time>2026-04-30T09:44:54.204Z</time></trkpt><trkpt lat="39.55370086314402" lon="9.353494045572544"><ele>85.0</ele><time>2026-04-30T09:44:55.204Z</time></trkpt><trkpt lat="39.55360149241911" lon="9.35363823214254"><ele>85.33333333333333</ele><time>2026-04-30T09:44:56.204Z</time></trkpt><trkpt lat="39.55353808185545" lon="9.353835803894565"><ele>85.66666666666667</ele><time>2026-04-30T09:44:57.204Z</time></trkpt><trkpt lat="39.55349339930647" lon="9.354045138839219"><ele>86.0</ele><time>2026-04-30T09:44:58.204Z</time></trkpt><trkpt lat="39.55344589547585" lon="9.354255900035328"><ele>86.0</ele><time>2026-04-30T09:44:59.204Z</time></trkpt><trkpt lat="39.55337776711524" lon="9.354474195414001"><ele>86.0</ele><time>2026-04-30T09:45:00.204Z</time></trkpt><trkpt lat="39.55330243905562" lon="9.354695336069286"><ele>86.0</ele><time>2026-04-30T09:45:01.204Z</time></trkpt><trkpt lat="39.553230578327614" lon="9.354904227346287"><ele>86.0</ele><time>2026-04-30T09:45:02.204Z</time></trkpt><trkpt lat="39.553165960595194" lon="9.355109884225637"><ele>86.0</ele><time>2026-04-30T09:45:03.204Z</time></trkpt><trkpt lat="39.55309249512406" lon="9.355335578118357"><ele>86.0</ele><time>2026-04-30T09:45:04.204Z</time></trkpt><trkpt lat="39.553025270989764" lon="9.355552969442984"><ele>86.0</ele><time>2026-04-30T09:45:05.204Z</time></trkpt><trkpt lat="39.552963167894546" lon="9.355748697894343"><ele>86.0</ele><time>2026-04-30T09:45:06.204Z</time></trkpt><trkpt lat="39.55290226222783" lon="9.355928915825384"><ele>86.0</ele><time>2026-04-30T09:45:07.204Z</time></trkpt><trkpt lat="39.55284578657726" lon="9.356100728668695"><ele>85.75</ele><time>2026-04-30T09:45:08.204Z</time></trkpt><trkpt lat="39.552790749003044" lon="9.356264656785271"><ele>85.5</ele><time>2026-04-30T09:45:09.204Z</time></trkpt><trkpt lat="39.55273682789639" lon="9.356437155363114"><ele>85.25</ele><time>2026-04-30T09:45:10.204Z</time></trkpt><trkpt lat="39.55268393861932" lon="9.356621429182423"><ele>85.0</ele><time>2026-04-30T09:45:11.204Z</time></trkpt><trkpt lat="39.552627362094995" lon="9.356812744082056"><ele>85.0</ele><time>2026-04-30T09:45:12.204Z</time></trkpt><trkpt lat="39.55256640878891" lon="9.357005646389249"><ele>85.0</ele><time>2026-04-30T09:45:13.204Z</time></trkpt><trkpt lat="39.55249941039237" lon="9.357203309934393"><ele>85.0</ele><time>2026-04-30T09:45:14.204Z</time></trkpt><trkpt lat="39.55243845784921" lon="9.357404166658895"><ele>85.0</ele><time>2026-04-30T09:45:15.204Z</time></trkpt><trkpt lat="39.55237284911795" lon="9.357604800889867"><ele>85.0</ele><time>2026-04-30T09:45:16.204Z</time></trkpt><trkpt lat="39.55230737627774" lon="9.357813213332015"><ele>85.0</ele><time>2026-04-30T09:45:17.204Z</time></trkpt><trkpt lat="39.55224224179346" lon="9.358020041371493"><ele>84.33333333333333</ele><time>2026-04-30T09:45:18.204Z</time></trkpt><trkpt lat="39.552174811367856" lon="9.358231219990392"><ele>83.66666666666667</ele><time>2026-04-30T09:45:19.204Z</time></trkpt><trkpt lat="39.55210551117585" lon="9.358440244466204"><ele>83.0</ele><time>2026-04-30T09:45:20.206Z</time></trkpt><trkpt lat="39.55203626065735" lon="9.35864924125442"><ele>84.0</ele><time>2026-04-30T09:45:21.205Z</time></trkpt><trkpt lat="39.551967214673525" lon="9.35886018951083"><ele>85.0</ele><time>2026-04-30T09:45:22.205Z</time></trkpt><trkpt lat="39.55190118421201" lon="9.359067354896332"><ele>86.0</ele><time>2026-04-30T09:45:23.206Z</time></trkpt><trkpt lat="39.55183989702891" lon="9.359267731769895"><ele>86.0</ele><time>2026-04-30T09:45:24.205Z</time></trkpt><trkpt lat="39.55178080485752" lon="9.359456895862506"><ele>86.0</ele><time>2026-04-30T09:45:25.205Z</time></trkpt><trkpt lat="39.551721820424675" lon="9.359618685574873"><ele>86.0</ele><time>2026-04-30T09:45:26.206Z</time></trkpt><trkpt lat="39.55168366992766" lon="9.359755391952364"><ele>86.0</ele><time>2026-04-30T09:45:27.205Z</time></trkpt><trkpt lat="39.55165878996939" lon="9.359858087503264"><ele>86.0</ele><time>2026-04-30T09:45:28.205Z</time></trkpt><trkpt lat="39.55169096807443" lon="9.3599814598982"><ele>86.0</ele><time>2026-04-30T09:45:30.205Z</time></trkpt><trkpt lat="39.55171735149141" lon="9.360077648648335"><ele>86.0</ele><time>2026-04-30T09:45:32.206Z</time></trkpt><trkpt lat="39.55169096461634" lon="9.360156896128904"><ele>86.0</ele><time>2026-04-30T09:45:34.206Z</time></trkpt></trkseg><trkseg><trkpt lat="39.551650908954464" lon="9.360292360411275"><ele>86.0</ele><time>2026-04-30T09:58:42.218Z</time></trkpt><trkpt lat="39.551592600301646" lon="9.360347783743304"><ele>86.0</ele><time>2026-04-30T09:58:44.218Z</time></trkpt><trkpt lat="39.55152999053512" lon="9.360375555042658"><ele>86.0</ele><time>2026-04-30T09:58:48.218Z</time></trkpt><trkpt lat="39.55146673733826" lon="9.360445006849487"><ele>86.0</ele><time>2026-04-30T09:58:50.218Z</time></trkpt><trkpt lat="39.55139981629231" lon="9.360577168590096"><ele>86.0</ele><time>2026-04-30T09:58:52.218Z</time></trkpt><trkpt lat="39.5513656628242" lon="9.36065277592547"><ele>86.0</ele><time>2026-04-30T09:58:53.218Z</time></trkpt><trkpt lat="39.55129354654297" lon="9.360785705679104"><ele>86.0</ele><time>2026-04-30T09:58:55.218Z</time></trkpt><trkpt lat="39.5512210563953" lon="9.360910641534785"><ele>86.0</ele><time>2026-04-30T09:58:57.218Z</time></trkpt><trkpt lat="39.55117774646199" lon="9.360970907596917"><ele>86.0</ele><time>2026-04-30T09:58:58.218Z</time></trkpt><trkpt lat="39.55113966457974" lon="9.361036551170784"><ele>86.0</ele><time>2026-04-30T09:58:59.218Z</time></trkpt><trkpt lat="39.55106408235934" lon="9.361153575732143"><ele>86.0</ele><time>2026-04-30T09:59:01.218Z</time></trkpt><trkpt lat="39.551019580352694" lon="9.361220585918376"><ele>86.0</ele><time>2026-04-30T09:59:03.218Z</time></trkpt><trkpt lat="39.55096428937789" lon="9.361312068936273"><ele>86.19999999999999</ele><time>2026-04-30T09:59:10.218Z</time></trkpt><trkpt lat="39.55088927578475" lon="9.36143121217612"><ele>86.39999999999999</ele><time>2026-04-30T09:59:12.218Z</time></trkpt><trkpt lat="39.55084524732617" lon="9.361494516628323"><ele>86.6</ele><time>2026-04-30T09:59:13.218Z</time></trkpt><trkpt lat="39.55079893936304" lon="9.361561009361326"><ele>86.8</ele><time>2026-04-30T09:59:14.218Z</time></trkpt><trkpt lat="39.550730513597074" lon="9.36167386557791"><ele>87.0</ele><time>2026-04-30T09:59:16.218Z</time></trkpt><trkpt lat="39.5506555038939" lon="9.361779244371078"><ele>87.0</ele><time>2026-04-30T09:59:18.218Z</time></trkpt><trkpt lat="39.55058237445187" lon="9.361882060613874"><ele>87.0</ele><time>2026-04-30T09:59:20.218Z</time></trkpt><trkpt lat="39.55047833909009" lon="9.361964784872889"><ele>87.0</ele><time>2026-04-30T09:59:22.218Z</time></trkpt><trkpt lat="39.55042284087003" lon="9.362004674971818"><ele>87.0</ele><time>2026-04-30T09:59:23.218Z</time></trkpt><trkpt lat="39.5503649114447" lon="9.362037475739347"><ele>87.0</ele><time>2026-04-30T09:59:24.218Z</time></trkpt><trkpt lat="39.55024028420026" lon="9.362096590041114"><ele>87.42857142857143</ele><time>2026-04-30T09:59:26.218Z</time></trkpt><trkpt lat="39.55018115828837" lon="9.362124982374516"><ele>87.85714285714286</ele><time>2026-04-30T09:59:27.218Z</time></trkpt><trkpt lat="39.550117108951895" lon="9.362154753735052"><ele>88.28571428571428</ele><time>2026-04-30T09:59:28.218Z</time></trkpt><trkpt lat="39.55005257048648" lon="9.362184808373163"><ele>88.71428571428572</ele><time>2026-04-30T09:59:29.218Z</time></trkpt><trkpt lat="39.54998362486013" lon="9.362213382850932"><ele>89.14285714285715</ele><time>2026-04-30T09:59:30.218Z</time></trkpt><trkpt lat="39.54991711978734" lon="9.362245850587895"><ele>89.57142857142857</ele><time>2026-04-30T09:59:31.218Z</time></trkpt><trkpt lat="39.54985177145578" lon="9.362278336919312"><ele>90.0</ele><time>2026-04-30T09:59:32.218Z</time></trkpt><trkpt lat="39.54979195150249" lon="9.362304984960414"><ele>90.16666666666667</ele><time>2026-04-30T09:59:33.218Z</time></trkpt><trkpt lat="39.54972946876241" lon="9.362327093965677"><ele>90.33333333333333</ele><time>2026-04-30T09:59:34.218Z</time></trkpt><trkpt lat="39.54966391402405" lon="9.362352688255376"><ele>90.5</ele><time>2026-04-30T09:59:35.218Z</time></trkpt><trkpt lat="39.54955122939504" lon="9.362398208510276"><ele>90.66666666666666</ele><time>2026-04-30T09:59:37.218Z</time></trkpt><trkpt lat="39.54947312098209" lon="9.362390912826523"><ele>90.83333333333333</ele><time>2026-04-30T09:59:39.218Z</time></trkpt><trkpt lat="39.549397077266704" lon="9.362370457161594"><ele>91.0</ele><time>2026-04-30T09:59:50.218Z</time></trkpt><trkpt lat="39.549364088152025" lon="9.362267164535137"><ele>92.25</ele><time>2026-04-30T09:59:52.218Z</time></trkpt><trkpt lat="39.549383961976474" lon="9.362144795396176"><ele>93.5</ele><time>2026-04-30T09:59:54.218Z</time></trkpt><trkpt lat="39.54940098493672" lon="9.362008774584154"><ele>94.75</ele><time>2026-04-30T09:59:56.218Z</time></trkpt><trkpt lat="39.549388914581826" lon="9.361857535602802"><ele>96.0</ele><time>2026-04-30T09:59:58.218Z</time></trkpt><trkpt lat="39.549388072083005" lon="9.361686414906114"><ele>96.0</ele><time>2026-04-30T10:00:00.218Z</time></trkpt><trkpt lat="39.549387922234956" lon="9.36159243256462"><ele>96.0</ele><time>2026-04-30T10:00:01.218Z</time></trkpt><trkpt lat="39.54937527667217" lon="9.361500518955598"><ele>96.0</ele><time>2026-04-30T10:00:02.218Z</time></trkpt><trkpt lat="39.54936911492044" lon="9.361391892919256"><ele>96.0</ele><time>2026-04-30T10:00:03.218Z</time></trkpt><trkpt lat="39.54935961620538" lon="9.361288394548193"><ele>96.0</ele><time>2026-04-30T10:00:04.218Z</time></trkpt><trkpt lat="39.54934592139647" lon="9.36118959187179"><ele>96.0</ele><time>2026-04-30T10:00:05.218Z</time></trkpt><trkpt lat="39.54933413394802" lon="9.361089569850465"><ele>95.83333333333333</ele><time>2026-04-30T10:00:06.218Z</time></trkpt><trkpt lat="39.54931870943523" lon="9.36099026388519"><ele>95.66666666666667</ele><time>2026-04-30T10:00:07.218Z</time></trkpt><trkpt lat="39.54930041775517" lon="9.360894704780302"><ele>95.5</ele><time>2026-04-30T10:00:08.218Z</time></trkpt><trkpt lat="39.54927168848252" lon="9.360803902855048"><ele>95.33333333333334</ele><time>2026-04-30T10:00:09.218Z</time></trkpt><trkpt lat="39.54922525634751" lon="9.360719879761199"><ele>95.16666666666667</ele><time>2026-04-30T10:00:10.218Z</time></trkpt><trkpt lat="39.549164678919034" lon="9.360643949054992"><ele>95.0</ele><time>2026-04-30T10:00:11.218Z</time></trkpt><trkpt lat="39.549097246377436" lon="9.36057030254008"><ele>94.6</ele><time>2026-04-30T10:00:12.218Z</time></trkpt><trkpt lat="39.549028842745074" lon="9.360491657046644"><ele>94.2</ele><time>2026-04-30T10:00:13.218Z</time></trkpt><trkpt lat="39.5489609810853" lon="9.360412356498498"><ele>93.80000000000001</ele><time>2026-04-30T10:00:14.218Z</time></trkpt><trkpt lat="39.54889125215512" lon="9.36033507838305"><ele>93.4</ele><time>2026-04-30T10:00:15.218Z</time></trkpt><trkpt lat="39.54882325849227" lon="9.360258880464064"><ele>93.0</ele><time>2026-04-30T10:00:16.218Z</time></trkpt><trkpt lat="39.5487556156461" lon="9.360177265693087"><ele>93.80000000000001</ele><time>2026-04-30T10:00:17.218Z</time></trkpt><trkpt lat="39.54868662919399" lon="9.360093748634332"><ele>94.6</ele><time>2026-04-30T10:00:18.218Z</time></trkpt><trkpt lat="39.54862007670519" lon="9.360012806358359"><ele>95.4</ele><time>2026-04-30T10:00:19.218Z</time></trkpt><trkpt lat="39.54855217038654" lon="9.359938012635174"><ele>96.19999999999999</ele><time>2026-04-30T10:00:20.218Z</time></trkpt><trkpt lat="39.54848457942499" lon="9.359860416661723"><ele>97.0</ele><time>2026-04-30T10:00:21.218Z</time></trkpt><trkpt lat="39.54841538155402" lon="9.359779231853876"><ele>96.50000000000001</ele><time>2026-04-30T10:00:22.218Z</time></trkpt><trkpt lat="39.54834982945402" lon="9.359700289836246"><ele>96.0</ele><time>2026-04-30T10:00:23.218Z</time></trkpt><trkpt lat="39.54828893608089" lon="9.359630527238298"><ele>95.5</ele><time>2026-04-30T10:00:24.218Z</time></trkpt><trkpt lat="39.54823414849911" lon="9.359567661917904"><ele>95.0</ele><time>2026-04-30T10:00:25.218Z</time></trkpt><trkpt lat="39.54817691499155" lon="9.359500493070403"><ele>94.5</ele><time>2026-04-30T10:00:26.218Z</time></trkpt><trkpt lat="39.5481160129119" lon="9.35942921667431"><ele>94.0</ele><time>2026-04-30T10:00:27.218Z</time></trkpt><trkpt lat="39.54804970720014" lon="9.359358536999656"><ele>94.0</ele><time>2026-04-30T10:00:28.218Z</time></trkpt><trkpt lat="39.54797862519961" lon="9.359284144169301"><ele>94.0</ele><time>2026-04-30T10:00:29.218Z</time></trkpt><trkpt lat="39.547904605961136" lon="9.359206487526928"><ele>94.0</ele><time>2026-04-30T10:00:30.218Z</time></trkpt><trkpt lat="39.54782626596291" lon="9.359129683659491"><ele>94.0</ele><time>2026-04-30T10:00:31.218Z</time></trkpt><trkpt lat="39.54775149863638" lon="9.35904272707424"><ele>94.0</ele><time>2026-04-30T10:00:32.218Z</time></trkpt><trkpt lat="39.547673145023545" lon="9.358959965387083"><ele>94.4</ele><time>2026-04-30T10:00:33.218Z</time></trkpt><trkpt lat="39.54759388664648" lon="9.358870440898873"><ele>94.80000000000001</ele><time>2026-04-30T10:00:34.218Z</time></trkpt><trkpt lat="39.5475191396337" lon="9.358766942408806"><ele>95.19999999999999</ele><time>2026-04-30T10:00:35.218Z</time></trkpt><trkpt lat="39.5474418400531" lon="9.358674252665002"><ele>95.6</ele><time>2026-04-30T10:00:36.218Z</time></trkpt><trkpt lat="39.547358070045696" lon="9.358582439206511"><ele>96.0</ele><time>2026-04-30T10:00:37.218Z</time></trkpt><trkpt lat="39.54727585566107" lon="9.358488566965734"><ele>96.0</ele><time>2026-04-30T10:00:38.218Z</time></trkpt><trkpt lat="39.54719840416897" lon="9.358401012807278"><ele>96.0</ele><time>2026-04-30T10:00:39.218Z</time></trkpt><trkpt lat="39.54711701465762" lon="9.358304581005644"><ele>96.0</ele><time>2026-04-30T10:00:40.218Z</time></trkpt><trkpt lat="39.54703520304855" lon="9.358213431739177"><ele>96.0</ele><time>2026-04-30T10:00:41.218Z</time></trkpt><trkpt lat="39.5469544411782" lon="9.35810899828354"><ele>96.0</ele><time>2026-04-30T10:00:42.218Z</time></trkpt><trkpt lat="39.54687778149401" lon="9.357996544709648"><ele>97.5</ele><time>2026-04-30T10:00:43.218Z</time></trkpt><trkpt lat="39.54680759451077" lon="9.357875838324587"><ele>99.0</ele><time>2026-04-30T10:00:44.218Z</time></trkpt><trkpt lat="39.54674525006795" lon="9.357748281395724"><ele>100.5</ele><time>2026-04-30T10:00:45.218Z</time></trkpt><trkpt lat="39.5466929735554" lon="9.35761802330332"><ele>102.0</ele><time>2026-04-30T10:00:46.218Z</time></trkpt><trkpt lat="39.54665294712236" lon="9.357476443246876"><ele>102.0</ele><time>2026-04-30T10:00:47.218Z</time></trkpt><trkpt lat="39.546613211521866" lon="9.357337203969548"><ele>102.0</ele><time>2026-04-30T10:00:48.218Z</time></trkpt><trkpt lat="39.54657193066973" lon="9.357194656238486"><ele>102.0</ele><time>2026-04-30T10:00:49.218Z</time></trkpt><trkpt lat="39.54653062331499" lon="9.357049733822066"><ele>102.0</ele><time>2026-04-30T10:00:50.218Z</time></trkpt><trkpt lat="39.54649136587079" lon="9.356903747818796"><ele>102.0</ele><time>2026-04-30T10:00:51.218Z</time></trkpt><trkpt lat="39.546404256618246" lon="9.35661689104105"><ele>102.0</ele><time>2026-04-30T10:00:53.218Z</time></trkpt><trkpt lat="39.54636276265436" lon="9.356471664786751"><ele>102.0</ele><time>2026-04-30T10:00:54.218Z</time></trkpt><trkpt lat="39.54632471659465" lon="9.356326780703231"><ele>102.0</ele><time>2026-04-30T10:00:55.218Z</time></trkpt><trkpt lat="39.54629672820887" lon="9.35618047440895"><ele>102.0</ele><time>2026-04-30T10:00:56.218Z</time></trkpt><trkpt lat="39.546286987981425" lon="9.356026437554277"><ele>102.0</ele><time>2026-04-30T10:00:57.218Z</time></trkpt><trkpt lat="39.54629357762651" lon="9.355871532829928"><ele>102.0</ele><time>2026-04-30T10:00:58.218Z</time></trkpt><trkpt lat="39.54629415361188" lon="9.355711860840318"><ele>102.0</ele><time>2026-04-30T10:00:59.218Z</time></trkpt><trkpt lat="39.54629399001892" lon="9.355557242490864"><ele>102.0</ele><time>2026-04-30T10:01:00.218Z</time></trkpt><trkpt lat="39.54629483542811" lon="9.355401937149944"><ele>102.0</ele><time>2026-04-30T10:01:01.218Z</time></trkpt><trkpt lat="39.54629473208881" lon="9.35524454827131"><ele>102.0</ele><time>2026-04-30T10:01:02.218Z</time></trkpt><trkpt lat="39.5462879642384" lon="9.355078841891386"><ele>102.25</ele><time>2026-04-30T10:01:03.218Z</time></trkpt><trkpt lat="39.54627420027078" lon="9.354904800835627"><ele>102.5</ele><time>2026-04-30T10:01:04.218Z</time></trkpt><trkpt lat="39.546261934030184" lon="9.354722519399637"><ele>102.75</ele><time>2026-04-30T10:01:05.218Z</time></trkpt><trkpt lat="39.546235474589416" lon="9.354527169629936"><ele>103.0</ele><time>2026-04-30T10:01:06.218Z</time></trkpt><trkpt lat="39.546195152005915" lon="9.354324227456933"><ele>107.0</ele><time>2026-04-30T10:01:07.218Z</time></trkpt><trkpt lat="39.54616052294409" lon="9.354107544955111"><ele>111.0</ele><time>2026-04-30T10:01:08.218Z</time></trkpt><trkpt lat="39.54613232553833" lon="9.353873554725439"><ele>115.0</ele><time>2026-04-30T10:01:09.218Z</time></trkpt><trkpt lat="39.54610970199301" lon="9.353636946174673"><ele>115.66666666666667</ele><time>2026-04-30T10:01:10.218Z</time></trkpt><trkpt lat="39.54608412011846" lon="9.353403060752989"><ele>116.33333333333334</ele><time>2026-04-30T10:01:11.218Z</time></trkpt><trkpt lat="39.54605594415455" lon="9.3531636190775"><ele>117.0</ele><time>2026-04-30T10:01:12.218Z</time></trkpt><trkpt lat="39.54603842906094" lon="9.352911822411505"><ele>117.66666666666666</ele><time>2026-04-30T10:01:13.218Z</time></trkpt><trkpt lat="39.5460507975697" lon="9.352658538270616"><ele>118.33333333333333</ele><time>2026-04-30T10:01:14.218Z</time></trkpt><trkpt lat="39.546063932342" lon="9.352410733827114"><ele>119.0</ele><time>2026-04-30T10:01:15.218Z</time></trkpt><trkpt lat="39.5460571689647" lon="9.352170665640987"><ele>119.0</ele><time>2026-04-30T10:01:16.218Z</time></trkpt><trkpt lat="39.54602600767187" lon="9.351929250371485"><ele>119.0</ele><time>2026-04-30T10:01:17.218Z</time></trkpt><trkpt lat="39.54597629925898" lon="9.351690634332403"><ele>119.0</ele><time>2026-04-30T10:01:18.218Z</time></trkpt><trkpt lat="39.5458817324212" lon="9.351460027448548"><ele>118.0</ele><time>2026-04-30T10:01:19.218Z</time></trkpt><trkpt lat="39.54574947946019" lon="9.351239488596173"><ele>117.0</ele><time>2026-04-30T10:01:20.218Z</time></trkpt><trkpt lat="39.545629526644746" lon="9.351014591950689"><ele>116.0</ele><time>2026-04-30T10:01:21.218Z</time></trkpt><trkpt lat="39.54552714925947" lon="9.350781570937107"><ele>114.66666666666666</ele><time>2026-04-30T10:01:22.219Z</time></trkpt><trkpt lat="39.545439441417784" lon="9.350521844402127"><ele>113.33333333333334</ele><time>2026-04-30T10:01:23.219Z</time></trkpt><trkpt lat="39.54535931790767" lon="9.350268482500336"><ele>112.0</ele><time>2026-04-30T10:01:24.219Z</time></trkpt><trkpt lat="39.54529613675489" lon="9.35000166606967"><ele>118.0</ele><time>2026-04-30T10:01:25.219Z</time></trkpt><trkpt lat="39.545278017825936" lon="9.349718836952293"><ele>124.0</ele><time>2026-04-30T10:01:26.219Z</time></trkpt><trkpt lat="39.54522056862436" lon="9.349458762927723"><ele>130.0</ele><time>2026-04-30T10:01:27.219Z</time></trkpt><trkpt lat="39.54513347743231" lon="9.34922754934204"><ele>130.0</ele><time>2026-04-30T10:01:28.219Z</time></trkpt><trkpt lat="39.54504743255872" lon="9.348982404302147"><ele>130.0</ele><time>2026-04-30T10:01:29.219Z</time></trkpt><trkpt lat="39.54499649587543" lon="9.348719068549451"><ele>130.0</ele><time>2026-04-30T10:01:30.219Z</time></trkpt><trkpt lat="39.54498932430048" lon="9.348460495496878"><ele>128.0</ele><time>2026-04-30T10:01:31.219Z</time></trkpt><trkpt lat="39.54497869960144" lon="9.348231829224375"><ele>126.0</ele><time>2026-04-30T10:01:32.219Z</time></trkpt><trkpt lat="39.54489620467085" lon="9.348023414681236"><ele>124.0</ele><time>2026-04-30T10:01:33.219Z</time></trkpt><trkpt lat="39.54478534348814" lon="9.34782449192322"><ele>124.0</ele><time>2026-04-30T10:01:34.219Z</time></trkpt><trkpt lat="39.5446695666138" lon="9.347628335132946"><ele>124.0</ele><time>2026-04-30T10:01:35.219Z</time></trkpt><trkpt lat="39.544536943149545" lon="9.347444605633676"><ele>124.0</ele><time>2026-04-30T10:01:36.219Z</time></trkpt><trkpt lat="39.54437479555791" lon="9.34730722369341"><ele>125.0</ele><time>2026-04-30T10:01:37.219Z</time></trkpt><trkpt lat="39.54422072152441" lon="9.347153467434454"><ele>126.0</ele><time>2026-04-30T10:01:38.219Z</time></trkpt><trkpt lat="39.54409631010998" lon="9.346949829592502"><ele>127.0</ele><time>2026-04-30T10:01:39.219Z</time></trkpt><trkpt lat="39.543996678729975" lon="9.346722019516218"><ele>127.0</ele><time>2026-04-30T10:01:40.219Z</time></trkpt><trkpt lat="39.5438902309389" lon="9.346510083444736"><ele>127.0</ele><time>2026-04-30T10:01:41.219Z</time></trkpt><trkpt lat="39.54376443444048" lon="9.346305076193623"><ele>127.0</ele><time>2026-04-30T10:01:42.219Z</time></trkpt><trkpt lat="39.54363508161417" lon="9.346105098886119"><ele>131.33333333333334</ele><time>2026-04-30T10:01:43.219Z</time></trkpt><trkpt lat="39.54349652259354" lon="9.345910362565931"><ele>135.66666666666666</ele><time>2026-04-30T10:01:44.219Z</time></trkpt><trkpt lat="39.54335744244997" lon="9.345706325986662"><ele>140.0</ele><time>2026-04-30T10:01:45.219Z</time></trkpt><trkpt lat="39.54321375406723" lon="9.345502997306596"><ele>140.0</ele><time>2026-04-30T10:01:46.219Z</time></trkpt><trkpt lat="39.54307668446411" lon="9.345291875195517"><ele>140.0</ele><time>2026-04-30T10:01:47.219Z</time></trkpt><trkpt lat="39.54297329052665" lon="9.345054771459269"><ele>140.0</ele><time>2026-04-30T10:01:48.219Z</time></trkpt><trkpt lat="39.542895291844545" lon="9.344818793508411"><ele>139.5</ele><time>2026-04-30T10:01:49.219Z</time></trkpt><trkpt lat="39.5428358218038" lon="9.344593709366162"><ele>139.0</ele><time>2026-04-30T10:01:50.219Z</time></trkpt><trkpt lat="39.54277435970636" lon="9.34442635995354"><ele>138.5</ele><time>2026-04-30T10:01:51.219Z</time></trkpt><trkpt lat="39.542717744953016" lon="9.344343825849563"><ele>138.0</ele><time>2026-04-30T10:01:52.219Z</time></trkpt><trkpt lat="39.542633238853" lon="9.344374632031784"><ele>138.0</ele><time>2026-04-30T10:01:53.219Z</time></trkpt><trkpt lat="39.542515016782694" lon="9.344458167168641"><ele>138.0</ele><time>2026-04-30T10:01:54.219Z</time></trkpt><trkpt lat="39.54237225751688" lon="9.344507075728211"><ele>138.0</ele><time>2026-04-30T10:01:55.219Z</time></trkpt><trkpt lat="39.542196031125044" lon="9.344472934324045"><ele>138.0</ele><time>2026-04-30T10:01:56.219Z</time></trkpt><trkpt lat="39.54206528664738" lon="9.344392219211088"><ele>138.0</ele><time>2026-04-30T10:01:57.219Z</time></trkpt><trkpt lat="39.5419766387973" lon="9.344238637877062"><ele>138.0</ele><time>2026-04-30T10:01:58.219Z</time></trkpt><trkpt lat="39.541925152222966" lon="9.344066480302887"><ele>138.0</ele><time>2026-04-30T10:01:59.219Z</time></trkpt><trkpt lat="39.54186077677928" lon="9.343894395544064"><ele>140.0</ele><time>2026-04-30T10:02:00.219Z</time></trkpt><trkpt lat="39.54185325039668" lon="9.343709232313447"><ele>142.0</ele><time>2026-04-30T10:02:01.219Z</time></trkpt><trkpt lat="39.54190308387832" lon="9.34352629641635"><ele>144.0</ele><time>2026-04-30T10:02:02.219Z</time></trkpt><trkpt lat="39.54191721274626" lon="9.343362593403645"><ele>146.0</ele><time>2026-04-30T10:02:03.219Z</time></trkpt><trkpt lat="39.54186164477433" lon="9.343229240402247"><ele>146.0</ele><time>2026-04-30T10:02:04.219Z</time></trkpt><trkpt lat="39.54174578626374" lon="9.343149532489827"><ele>146.0</ele><time>2026-04-30T10:02:05.219Z</time></trkpt><trkpt lat="39.541590213581024" lon="9.343125841512109"><ele>146.0</ele><time>2026-04-30T10:02:06.219Z</time></trkpt><trkpt lat="39.54140858864204" lon="9.343120711339273"><ele>146.0</ele><time>2026-04-30T10:02:07.219Z</time></trkpt><trkpt lat="39.54122612582215" lon="9.343132783428556"><ele>146.0</ele><time>2026-04-30T10:02:08.218Z</time></trkpt><trkpt lat="39.541056542604835" lon="9.343204822713263"><ele>146.0</ele><time>2026-04-30T10:02:09.218Z</time></trkpt><trkpt lat="39.54093528424993" lon="9.343313108147955"><ele>147.0</ele><time>2026-04-30T10:02:10.218Z</time></trkpt><trkpt lat="39.5408183830148" lon="9.343396160292167"><ele>148.0</ele><time>2026-04-30T10:02:11.218Z</time></trkpt><trkpt lat="39.540716870265776" lon="9.343365487034403"><ele>149.0</ele><time>2026-04-30T10:02:12.218Z</time></trkpt><trkpt lat="39.54062187807644" lon="9.343260498291002"><ele>150.0</ele><time>2026-04-30T10:02:13.218Z</time></trkpt><trkpt lat="39.540557298845755" lon="9.343090695866794"><ele>152.66666666666666</ele><time>2026-04-30T10:02:14.219Z</time></trkpt><trkpt lat="39.540499140314175" lon="9.342891935290977"><ele>155.33333333333331</ele><time>2026-04-30T10:02:15.219Z</time></trkpt><trkpt lat="39.54048014685471" lon="9.342667134164493"><ele>158.0</ele><time>2026-04-30T10:02:16.219Z</time></trkpt><trkpt lat="39.54048172457154" lon="9.342435135497757"><ele>158.0</ele><time>2026-04-30T10:02:17.219Z</time></trkpt><trkpt lat="39.54042501785129" lon="9.342219440669808"><ele>158.0</ele><time>2026-04-30T10:02:18.219Z</time></trkpt><trkpt lat="39.54030731527334" lon="9.342022801798077"><ele>158.0</ele><time>2026-04-30T10:02:19.219Z</time></trkpt><trkpt lat="39.54016020837899" lon="9.341851361344375"><ele>161.33333333333331</ele><time>2026-04-30T10:02:20.219Z</time></trkpt><trkpt lat="39.53998843645664" lon="9.341701827940769"><ele>164.66666666666666</ele><time>2026-04-30T10:02:21.218Z</time></trkpt><trkpt lat="39.53982245924148" lon="9.341569835861202"><ele>168.0</ele><time>2026-04-30T10:02:22.218Z</time></trkpt><trkpt lat="39.53966318045203" lon="9.34141940770319"><ele>167.33333333333334</ele><time>2026-04-30T10:02:23.218Z</time></trkpt><trkpt lat="39.539495820229824" lon="9.34126654051312"><ele>166.66666666666669</ele><time>2026-04-30T10:02:24.218Z</time></trkpt><trkpt lat="39.539335429029485" lon="9.341102296803488"><ele>166.0</ele><time>2026-04-30T10:02:25.218Z</time></trkpt><trkpt lat="39.53918522104817" lon="9.34090815596231"><ele>166.0</ele><time>2026-04-30T10:02:26.218Z</time></trkpt><trkpt lat="39.539044425648406" lon="9.34069445826175"><ele>166.0</ele><time>2026-04-30T10:02:27.218Z</time></trkpt><trkpt lat="39.53891768488841" lon="9.340464806674362"><ele>166.0</ele><time>2026-04-30T10:02:28.218Z</time></trkpt><trkpt lat="39.53880267564514" lon="9.340218438950183"><ele>166.0</ele><time>2026-04-30T10:02:29.218Z</time></trkpt><trkpt lat="39.538696339469936" lon="9.339974872246636"><ele>166.0</ele><time>2026-04-30T10:02:30.218Z</time></trkpt><trkpt lat="39.538603625931" lon="9.339728538724398"><ele>166.0</ele><time>2026-04-30T10:02:31.218Z</time></trkpt><trkpt lat="39.538533101507966" lon="9.339478060298676"><ele>166.0</ele><time>2026-04-30T10:02:32.218Z</time></trkpt><trkpt lat="39.53848389905585" lon="9.339201772730684"><ele>166.0</ele><time>2026-04-30T10:02:33.218Z</time></trkpt><trkpt lat="39.538436661623344" lon="9.338908473855055"><ele>170.33333333333334</ele><time>2026-04-30T10:02:34.218Z</time></trkpt><trkpt lat="39.53838645286651" lon="9.33862030625644"><ele>174.66666666666666</ele><time>2026-04-30T10:02:35.218Z</time></trkpt><trkpt lat="39.53833485904563" lon="9.338349156101197"><ele>179.0</ele><time>2026-04-30T10:02:36.218Z</time></trkpt><trkpt lat="39.53825552795615" lon="9.338079667847905"><ele>184.66666666666666</ele><time>2026-04-30T10:02:37.218Z</time></trkpt><trkpt lat="39.538162797578465" lon="9.33781940584225"><ele>190.33333333333331</ele><time>2026-04-30T10:02:38.218Z</time></trkpt><trkpt lat="39.53805513716652" lon="9.337574070231765"><ele>196.0</ele><time>2026-04-30T10:02:39.218Z</time></trkpt><trkpt lat="39.53792785111981" lon="9.33735263739933"><ele>187.66666666666666</ele><time>2026-04-30T10:02:40.218Z</time></trkpt><trkpt lat="39.537770470327715" lon="9.33717522563657"><ele>179.33333333333331</ele><time>2026-04-30T10:02:41.218Z</time></trkpt><trkpt lat="39.53759318850228" lon="9.33703318407814"><ele>171.0</ele><time>2026-04-30T10:02:42.218Z</time></trkpt><trkpt lat="39.5374235734451" lon="9.336884963523092"><ele>171.0</ele><time>2026-04-30T10:02:43.218Z</time></trkpt><trkpt lat="39.53728835791164" lon="9.336688801509585"><ele>171.0</ele><time>2026-04-30T10:02:44.218Z</time></trkpt><trkpt lat="39.537176937512164" lon="9.33644481435533"><ele>171.0</ele><time>2026-04-30T10:02:45.218Z</time></trkpt><trkpt lat="39.53705260323581" lon="9.336205747497681"><ele>169.66666666666666</ele><time>2026-04-30T10:02:46.218Z</time></trkpt><trkpt lat="39.53692981145805" lon="9.335963868951156"><ele>168.33333333333331</ele><time>2026-04-30T10:02:47.218Z</time></trkpt><trkpt lat="39.536802402008234" lon="9.33573548237716"><ele>167.0</ele><time>2026-04-30T10:02:48.218Z</time></trkpt><trkpt lat="39.536688261211985" lon="9.335523574281584"><ele>172.0</ele><time>2026-04-30T10:02:49.218Z</time></trkpt><trkpt lat="39.53657691326327" lon="9.335338313373368"><ele>177.0</ele><time>2026-04-30T10:02:50.218Z</time></trkpt><trkpt lat="39.53648883847189" lon="9.33518004353629"><ele>182.0</ele><time>2026-04-30T10:02:51.218Z</time></trkpt><trkpt lat="39.53640934308885" lon="9.335062806056413"><ele>182.0</ele><time>2026-04-30T10:02:52.218Z</time></trkpt><trkpt lat="39.53630052531664" lon="9.335015348285635"><ele>182.0</ele><time>2026-04-30T10:02:53.218Z</time></trkpt><trkpt lat="39.536184519501305" lon="9.335044938324767"><ele>182.0</ele><time>2026-04-30T10:02:54.219Z</time></trkpt><trkpt lat="39.53603817860178" lon="9.33511327284114"><ele>182.0</ele><time>2026-04-30T10:02:55.219Z</time></trkpt><trkpt lat="39.53587067011239" lon="9.335187234742865"><ele>185.66666666666666</ele><time>2026-04-30T10:02:56.219Z</time></trkpt><trkpt lat="39.53569768759492" lon="9.335254236289368"><ele>189.33333333333331</ele><time>2026-04-30T10:02:57.219Z</time></trkpt><trkpt lat="39.53552274147537" lon="9.33532380538251"><ele>193.0</ele><time>2026-04-30T10:02:58.219Z</time></trkpt><trkpt lat="39.53534281182129" lon="9.335396317148653"><ele>193.0</ele><time>2026-04-30T10:02:59.219Z</time></trkpt><trkpt lat="39.535154577660144" lon="9.335477818000754"><ele>193.0</ele><time>2026-04-30T10:03:00.219Z</time></trkpt><trkpt lat="39.5349763801649" lon="9.335594635808352"><ele>193.0</ele><time>2026-04-30T10:03:01.219Z</time></trkpt><trkpt lat="39.53481127214691" lon="9.335755239358425"><ele>195.0</ele><time>2026-04-30T10:03:02.219Z</time></trkpt><trkpt lat="39.53466764247201" lon="9.335943838901631"><ele>197.0</ele><time>2026-04-30T10:03:03.219Z</time></trkpt><trkpt lat="39.5345656607235" lon="9.336147363273367"><ele>199.0</ele><time>2026-04-30T10:03:04.219Z</time></trkpt><trkpt lat="39.534494149675965" lon="9.336341322926538"><ele>191.33333333333331</ele><time>2026-04-30T10:03:05.219Z</time></trkpt><trkpt lat="39.53441665460858" lon="9.336511600235823"><ele>183.66666666666666</ele><time>2026-04-30T10:03:06.219Z</time></trkpt><trkpt lat="39.5343145953538" lon="9.336611841951193"><ele>176.0</ele><time>2026-04-30T10:03:07.219Z</time></trkpt><trkpt lat="39.5341423006828" lon="9.336583279571764"><ele>176.0</ele><time>2026-04-30T10:03:08.219Z</time></trkpt><trkpt lat="39.533962792542084" lon="9.33651197130568"><ele>176.0</ele><time>2026-04-30T10:03:09.219Z</time></trkpt><trkpt lat="39.53377337040293" lon="9.336463836079972"><ele>176.0</ele><time>2026-04-30T10:03:10.219Z</time></trkpt><trkpt lat="39.533611735774535" lon="9.336487792894411"><ele>180.0</ele><time>2026-04-30T10:03:11.219Z</time></trkpt><trkpt lat="39.53344057317239" lon="9.336567346508025"><ele>184.0</ele><time>2026-04-30T10:03:12.219Z</time></trkpt><trkpt lat="39.53328031965117" lon="9.336700235796686"><ele>188.0</ele><time>2026-04-30T10:03:13.219Z</time></trkpt><trkpt lat="39.53314732861843" lon="9.336857450415426"><ele>188.0</ele><time>2026-04-30T10:03:14.219Z</time></trkpt><trkpt lat="39.53304115082947" lon="9.337007293044888"><ele>188.0</ele><time>2026-04-30T10:03:15.219Z</time></trkpt><trkpt lat="39.532927730548764" lon="9.337104081481778"><ele>188.0</ele><time>2026-04-30T10:03:16.219Z</time></trkpt><trkpt lat="39.53279691627464" lon="9.33709035217751"><ele>188.0</ele><time>2026-04-30T10:03:17.219Z</time></trkpt><trkpt lat="39.53265072455392" lon="9.33697633987858"><ele>189.66666666666666</ele><time>2026-04-30T10:03:18.219Z</time></trkpt><trkpt lat="39.532523954272236" lon="9.336805143253612"><ele>191.33333333333331</ele><time>2026-04-30T10:03:19.219Z</time></trkpt><trkpt lat="39.5324019015334" lon="9.336624625808007"><ele>193.0</ele><time>2026-04-30T10:03:20.219Z</time></trkpt><trkpt lat="39.532270682719506" lon="9.336442772924027"><ele>194.33333333333331</ele><time>2026-04-30T10:03:21.219Z</time></trkpt><trkpt lat="39.532124452419346" lon="9.336265027896866"><ele>195.66666666666669</ele><time>2026-04-30T10:03:22.219Z</time></trkpt><trkpt lat="39.53196237078491" lon="9.336100094157374"><ele>197.0</ele><time>2026-04-30T10:03:23.219Z</time></trkpt><trkpt lat="39.53179424074118" lon="9.335941297125697"><ele>197.0</ele><time>2026-04-30T10:03:24.219Z</time></trkpt><trkpt lat="39.53163533796444" lon="9.335781482762542"><ele>197.0</ele><time>2026-04-30T10:03:25.219Z</time></trkpt><trkpt lat="39.53148070811458" lon="9.33564016320124"><ele>197.0</ele><time>2026-04-30T10:03:26.219Z</time></trkpt><trkpt lat="39.5313221827395" lon="9.335526097446614"><ele>206.66666666666669</ele><time>2026-04-30T10:03:27.219Z</time></trkpt><trkpt lat="39.53113771681925" lon="9.335490854061781"><ele>216.33333333333331</ele><time>2026-04-30T10:03:28.219Z</time></trkpt><trkpt lat="39.530946942060574" lon="9.33548352353459"><ele>226.0</ele><time>2026-04-30T10:03:29.219Z</time></trkpt><trkpt lat="39.53075384064621" lon="9.335481698284578"><ele>226.0</ele><time>2026-04-30T10:03:30.219Z</time></trkpt><trkpt lat="39.530551022971665" lon="9.335492331113358"><ele>226.0</ele><time>2026-04-30T10:03:31.219Z</time></trkpt><trkpt lat="39.53035708241699" lon="9.335553815807689"><ele>226.0</ele><time>2026-04-30T10:03:32.219Z</time></trkpt><trkpt lat="39.53016858458955" lon="9.335654864453865"><ele>219.33333333333331</ele><time>2026-04-30T10:03:33.219Z</time></trkpt><trkpt lat="39.5300082705263" lon="9.335806121555779"><ele>212.66666666666669</ele><time>2026-04-30T10:03:34.219Z</time></trkpt><trkpt lat="39.52987757391939" lon="9.335959671465774"><ele>206.0</ele><time>2026-04-30T10:03:35.219Z</time></trkpt><trkpt lat="39.52976367361084" lon="9.336079272509057"><ele>206.0</ele><time>2026-04-30T10:03:36.219Z</time></trkpt><trkpt lat="39.529625755323515" lon="9.336139496224462"><ele>206.0</ele><time>2026-04-30T10:03:37.219Z</time></trkpt><trkpt lat="39.52946593431839" lon="9.336114355342403"><ele>206.0</ele><time>2026-04-30T10:03:38.219Z</time></trkpt><trkpt lat="39.52931635230012" lon="9.335992051303883"><ele>207.0</ele><time>2026-04-30T10:03:39.219Z</time></trkpt><trkpt lat="39.52918704573566" lon="9.335814675725405"><ele>208.0</ele><time>2026-04-30T10:03:40.219Z</time></trkpt><trkpt lat="39.52906741404618" lon="9.335625994157809"><ele>209.0</ele><time>2026-04-30T10:03:41.219Z</time></trkpt><trkpt lat="39.528934631543606" lon="9.335445280739375"><ele>212.0</ele><time>2026-04-30T10:03:42.219Z</time></trkpt><trkpt lat="39.52879001244482" lon="9.33527074754667"><ele>215.0</ele><time>2026-04-30T10:03:43.219Z</time></trkpt><trkpt lat="39.528620263759045" lon="9.335125508115192"><ele>218.0</ele><time>2026-04-30T10:03:44.219Z</time></trkpt><trkpt lat="39.52844077922057" lon="9.334998395729114"><ele>218.0</ele><time>2026-04-30T10:03:45.219Z</time></trkpt><trkpt lat="39.52824788625108" lon="9.334903533130076"><ele>218.0</ele><time>2026-04-30T10:03:46.219Z</time></trkpt><trkpt lat="39.52804598197676" lon="9.33482641865901"><ele>218.0</ele><time>2026-04-30T10:03:47.219Z</time></trkpt><trkpt lat="39.52783070566022" lon="9.334770705287545"><ele>223.0</ele><time>2026-04-30T10:03:48.219Z</time></trkpt><trkpt lat="39.52762169635052" lon="9.334707286468056"><ele>228.0</ele><time>2026-04-30T10:03:49.219Z</time></trkpt><trkpt lat="39.52741364592623" lon="9.334642547662513"><ele>233.0</ele><time>2026-04-30T10:03:50.219Z</time></trkpt><trkpt lat="39.52720868750666" lon="9.33456748315583"><ele>233.33333333333334</ele><time>2026-04-30T10:03:51.219Z</time></trkpt><trkpt lat="39.526997916358624" lon="9.334500803033029"><ele>233.66666666666669</ele><time>2026-04-30T10:03:52.219Z</time></trkpt><trkpt lat="39.52678288599225" lon="9.334431918788717"><ele>234.0</ele><time>2026-04-30T10:03:53.219Z</time></trkpt><trkpt lat="39.52656863824155" lon="9.334366392607166"><ele>234.0</ele><time>2026-04-30T10:03:54.219Z</time></trkpt><trkpt lat="39.52636290405016" lon="9.334287619901714"><ele>234.0</ele><time>2026-04-30T10:03:55.219Z</time></trkpt><trkpt lat="39.52617556758958" lon="9.3341977815136"><ele>234.0</ele><time>2026-04-30T10:03:56.219Z</time></trkpt><trkpt lat="39.52600728022298" lon="9.334109901745741"><ele>232.75</ele><time>2026-04-30T10:03:57.219Z</time></trkpt><trkpt lat="39.52587734467648" lon="9.334031322412487"><ele>231.5</ele><time>2026-04-30T10:03:58.219Z</time></trkpt><trkpt lat="39.5258068732791" lon="9.33390242269508"><ele>230.25</ele><time>2026-04-30T10:03:59.219Z</time></trkpt><trkpt lat="39.525801692230026" lon="9.333708702489579"><ele>229.0</ele><time>2026-04-30T10:04:00.219Z</time></trkpt><trkpt lat="39.52583301801646" lon="9.333487441807387"><ele>229.0</ele><time>2026-04-30T10:04:01.219Z</time></trkpt><trkpt lat="39.52585559084902" lon="9.33324452819851"><ele>229.0</ele><time>2026-04-30T10:04:02.219Z</time></trkpt><trkpt lat="39.52584629030158" lon="9.333011954706501"><ele>229.0</ele><time>2026-04-30T10:04:03.219Z</time></trkpt><trkpt lat="39.52578628393907" lon="9.332793853691856"><ele>233.66666666666666</ele><time>2026-04-30T10:04:04.219Z</time></trkpt><trkpt lat="39.5256955007685" lon="9.332588749984819"><ele>238.33333333333331</ele><time>2026-04-30T10:04:05.219Z</time></trkpt><trkpt lat="39.525564822436586" lon="9.332398357628199"><ele>243.0</ele><time>2026-04-30T10:04:06.219Z</time></trkpt><trkpt lat="39.52540497835358" lon="9.332229194058973"><ele>240.33333333333331</ele><time>2026-04-30T10:04:07.219Z</time></trkpt><trkpt lat="39.5252373022876" lon="9.332063650119846"><ele>237.66666666666666</ele><time>2026-04-30T10:04:08.219Z</time></trkpt><trkpt lat="39.52507048097159" lon="9.331884717001081"><ele>235.0</ele><time>2026-04-30T10:04:09.219Z</time></trkpt><trkpt lat="39.52492144762769" lon="9.331687263582609"><ele>235.0</ele><time>2026-04-30T10:04:10.219Z</time></trkpt><trkpt lat="39.52481125793916" lon="9.331461594211689"><ele>235.0</ele><time>2026-04-30T10:04:11.219Z</time></trkpt><trkpt lat="39.52473695998312" lon="9.331210565916733"><ele>235.0</ele><time>2026-04-30T10:04:12.219Z</time></trkpt><trkpt lat="39.524701785795365" lon="9.330945003202684"><ele>238.66666666666666</ele><time>2026-04-30T10:04:13.219Z</time></trkpt><trkpt lat="39.524702401511234" lon="9.330678359032122"><ele>242.33333333333331</ele><time>2026-04-30T10:04:14.22Z</time></trkpt><trkpt lat="39.52468742952833" lon="9.33041828606322"><ele>246.0</ele><time>2026-04-30T10:04:15.219Z</time></trkpt><trkpt lat="39.52462383431418" lon="9.330170906477774"><ele>241.0</ele><time>2026-04-30T10:04:16.219Z</time></trkpt><trkpt lat="39.5245402119196" lon="9.329939726667392"><ele>236.0</ele><time>2026-04-30T10:04:17.22Z</time></trkpt><trkpt lat="39.524469535373626" lon="9.32971397074309"><ele>231.0</ele><time>2026-04-30T10:04:18.219Z</time></trkpt><trkpt lat="39.52441326526975" lon="9.329499631702571"><ele>231.0</ele><time>2026-04-30T10:04:19.219Z</time></trkpt><trkpt lat="39.52441612515075" lon="9.329297746487768"><ele>231.0</ele><time>2026-04-30T10:04:20.219Z</time></trkpt><trkpt lat="39.52448976780437" lon="9.329116107920704"><ele>231.0</ele><time>2026-04-30T10:04:21.22Z</time></trkpt><trkpt lat="39.52459961634999" lon="9.328973950160803"><ele>236.25</ele><time>2026-04-30T10:04:22.22Z</time></trkpt><trkpt lat="39.524644099856474" lon="9.328821289032623"><ele>241.5</ele><time>2026-04-30T10:04:23.22Z</time></trkpt><trkpt lat="39.52462241834302" lon="9.32867217161964"><ele>246.75</ele><time>2026-04-30T10:04:24.22Z</time></trkpt><trkpt lat="39.524516329701754" lon="9.32856510109957"><ele>252.0</ele><time>2026-04-30T10:04:25.22Z</time></trkpt><trkpt lat="39.524386685525805" lon="9.32857849005056"><ele>252.0</ele><time>2026-04-30T10:04:26.22Z</time></trkpt><trkpt lat="39.52425706949703" lon="9.328668118692521"><ele>252.0</ele><time>2026-04-30T10:04:27.22Z</time></trkpt><trkpt lat="39.52411061060631" lon="9.328771507490563"><ele>252.0</ele><time>2026-04-30T10:04:28.22Z</time></trkpt><trkpt lat="39.52396841577801" lon="9.328811226946785"><ele>252.0</ele><time>2026-04-30T10:04:29.22Z</time></trkpt><trkpt lat="39.52379419386338" lon="9.328726620865169"><ele>252.0</ele><time>2026-04-30T10:04:30.22Z</time></trkpt><trkpt lat="39.523615330048024" lon="9.328555079297445"><ele>252.0</ele><time>2026-04-30T10:04:31.22Z</time></trkpt><trkpt lat="39.523459239130716" lon="9.328389072268426"><ele>252.33333333333331</ele><time>2026-04-30T10:04:32.22Z</time></trkpt><trkpt lat="39.52331043748181" lon="9.328201378254345"><ele>252.66666666666666</ele><time>2026-04-30T10:04:33.22Z</time></trkpt><trkpt lat="39.52315114949979" lon="9.32803715620539"><ele>253.0</ele><time>2026-04-30T10:04:34.22Z</time></trkpt><trkpt lat="39.52299326158294" lon="9.327867673592332"><ele>247.0</ele><time>2026-04-30T10:04:35.22Z</time></trkpt><trkpt lat="39.52284870955209" lon="9.327695383501892"><ele>241.0</ele><time>2026-04-30T10:04:36.22Z</time></trkpt><trkpt lat="39.5227220530281" lon="9.327521646304193"><ele>235.0</ele><time>2026-04-30T10:04:37.22Z</time></trkpt><trkpt lat="39.52263391822118" lon="9.327310301602006"><ele>236.33333333333331</ele><time>2026-04-30T10:04:38.22Z</time></trkpt><trkpt lat="39.52259479356995" lon="9.327071645085095"><ele>237.66666666666669</ele><time>2026-04-30T10:04:39.22Z</time></trkpt><trkpt lat="39.52261248712374" lon="9.32680690779852"><ele>239.0</ele><time>2026-04-30T10:04:40.22Z</time></trkpt><trkpt lat="39.5226477401195" lon="9.3265405565018"><ele>239.0</ele><time>2026-04-30T10:04:41.22Z</time></trkpt><trkpt lat="39.522703442613015" lon="9.326278679000032"><ele>239.0</ele><time>2026-04-30T10:04:42.22Z</time></trkpt><trkpt lat="39.52278487661823" lon="9.32602413353109"><ele>239.0</ele><time>2026-04-30T10:04:43.22Z</time></trkpt><trkpt lat="39.5228713278358" lon="9.325758649131698"><ele>253.0</ele><time>2026-04-30T10:04:44.22Z</time></trkpt><trkpt lat="39.52294135644564" lon="9.325479054887989"><ele>267.0</ele><time>2026-04-30T10:04:45.22Z</time></trkpt><trkpt lat="39.523000864970015" lon="9.325194977220718"><ele>267.0</ele><time>2026-04-30T10:04:46.22Z</time></trkpt><trkpt lat="39.52306659647038" lon="9.324931761425049"><ele>267.0</ele><time>2026-04-30T10:04:47.22Z</time></trkpt><trkpt lat="39.52310147958677" lon="9.32471030522605"><ele>267.0</ele><time>2026-04-30T10:04:48.22Z</time></trkpt><trkpt lat="39.52305895550104" lon="9.324507409561404"><ele>269.3333333333333</ele><time>2026-04-30T10:04:49.22Z</time></trkpt><trkpt lat="39.522955740351904" lon="9.324304539643983"><ele>271.66666666666663</ele><time>2026-04-30T10:04:50.22Z</time></trkpt><trkpt lat="39.52291611145895" lon="9.324056810464976"><ele>274.0</ele><time>2026-04-30T10:04:51.22Z</time></trkpt><trkpt lat="39.52294352479823" lon="9.323815297135486"><ele>274.66666666666663</ele><time>2026-04-30T10:04:52.22Z</time></trkpt><trkpt lat="39.522924951411106" lon="9.323610971557326"><ele>275.3333333333333</ele><time>2026-04-30T10:04:53.22Z</time></trkpt><trkpt lat="39.52283593929176" lon="9.323437319042258"><ele>276.0</ele><time>2026-04-30T10:04:54.22Z</time></trkpt><trkpt lat="39.5226795938064" lon="9.323311396064183"><ele>274.6666666666667</ele><time>2026-04-30T10:04:55.22Z</time></trkpt><trkpt lat="39.52249673351969" lon="9.32317796825384"><ele>273.33333333333337</ele><time>2026-04-30T10:04:56.22Z</time></trkpt><trkpt lat="39.522302070677966" lon="9.323067287467836"><ele>272.0</ele><time>2026-04-30T10:04:57.22Z</time></trkpt><trkpt lat="39.52210111528466" lon="9.32299275525372"><ele>266.6666666666667</ele><time>2026-04-30T10:04:58.22Z</time></trkpt><trkpt lat="39.52191801427702" lon="9.322938529885004"><ele>261.3333333333333</ele><time>2026-04-30T10:04:59.22Z</time></trkpt><trkpt lat="39.52175245218831" lon="9.32288822429818"><ele>256.0</ele><time>2026-04-30T10:05:00.22Z</time></trkpt><trkpt lat="39.52162145162301" lon="9.322808807261842"><ele>256.0</ele><time>2026-04-30T10:05:01.22Z</time></trkpt><trkpt lat="39.52156297153269" lon="9.322664465171885"><ele>256.0</ele><time>2026-04-30T10:05:02.22Z</time></trkpt><trkpt lat="39.52158609412068" lon="9.322484769612725"><ele>256.0</ele><time>2026-04-30T10:05:03.22Z</time></trkpt><trkpt lat="39.52168781447342" lon="9.322306900394954"><ele>256.0</ele><time>2026-04-30T10:05:04.22Z</time></trkpt><trkpt lat="39.521824141460364" lon="9.322126168682988"><ele>255.0</ele><time>2026-04-30T10:05:05.22Z</time></trkpt><trkpt lat="39.521926327242745" lon="9.321912468897516"><ele>254.0</ele><time>2026-04-30T10:05:06.22Z</time></trkpt><trkpt lat="39.521976432123786" lon="9.321663543060787"><ele>253.0</ele><time>2026-04-30T10:05:07.22Z</time></trkpt><trkpt lat="39.52197987046845" lon="9.321408346041942"><ele>253.0</ele><time>2026-04-30T10:05:08.22Z</time></trkpt><trkpt lat="39.52200732612878" lon="9.321157763579974"><ele>253.0</ele><time>2026-04-30T10:05:09.22Z</time></trkpt><trkpt lat="39.52206404903355" lon="9.320935798200521"><ele>253.0</ele><time>2026-04-30T10:05:10.22Z</time></trkpt><trkpt lat="39.522063632286596" lon="9.320699486052007"><ele>255.33333333333331</ele><time>2026-04-30T10:05:11.22Z</time></trkpt><trkpt lat="39.52201260990366" lon="9.320473531578124"><ele>257.6666666666667</ele><time>2026-04-30T10:05:12.22Z</time></trkpt><trkpt lat="39.52192494227398" lon="9.32026084665456"><ele>260.0</ele><time>2026-04-30T10:05:13.22Z</time></trkpt><trkpt lat="39.521823916880024" lon="9.3200409519289"><ele>260.0</ele><time>2026-04-30T10:05:14.22Z</time></trkpt><trkpt lat="39.5217129319057" lon="9.31981961988152"><ele>260.0</ele><time>2026-04-30T10:05:15.22Z</time></trkpt><trkpt lat="39.52159543215601" lon="9.31959414959647"><ele>260.0</ele><time>2026-04-30T10:05:16.22Z</time></trkpt><trkpt lat="39.521485493556476" lon="9.319355835733255"><ele>260.33333333333337</ele><time>2026-04-30T10:05:17.22Z</time></trkpt><trkpt lat="39.52136977849581" lon="9.31910981831723"><ele>260.6666666666667</ele><time>2026-04-30T10:05:18.22Z</time></trkpt><trkpt lat="39.52126617054117" lon="9.318863301674744"><ele>261.0</ele><time>2026-04-30T10:05:19.22Z</time></trkpt><trkpt lat="39.52118118075681" lon="9.318622321005165"><ele>261.0</ele><time>2026-04-30T10:05:20.22Z</time></trkpt><trkpt lat="39.521115410188" lon="9.318402166528271"><ele>261.0</ele><time>2026-04-30T10:05:21.22Z</time></trkpt><trkpt lat="39.5210305533875" lon="9.318237608447056"><ele>261.0</ele><time>2026-04-30T10:05:22.22Z</time></trkpt><trkpt lat="39.52091735085678" lon="9.318143179022913"><ele>261.0</ele><time>2026-04-30T10:05:23.22Z</time></trkpt><trkpt lat="39.52077879847348" lon="9.318142973910806"><ele>261.0</ele><time>2026-04-30T10:05:24.22Z</time></trkpt><trkpt lat="39.52064212666491" lon="9.318246889681287"><ele>261.0</ele><time>2026-04-30T10:05:25.22Z</time></trkpt><trkpt lat="39.52051050578497" lon="9.318328082270579"><ele>261.0</ele><time>2026-04-30T10:05:26.22Z</time></trkpt><trkpt lat="39.520402113367744" lon="9.318283627464078"><ele>260.6666666666667</ele><time>2026-04-30T10:05:27.22Z</time></trkpt><trkpt lat="39.52033730539816" lon="9.3181258280005"><ele>260.33333333333337</ele><time>2026-04-30T10:05:28.22Z</time></trkpt><trkpt lat="39.52030249214113" lon="9.317888989250417"><ele>260.0</ele><time>2026-04-30T10:05:29.22Z</time></trkpt><trkpt lat="39.52025572121012" lon="9.317636102864492"><ele>262.6666666666667</ele><time>2026-04-30T10:05:30.22Z</time></trkpt><trkpt lat="39.52015349140683" lon="9.317427149224306"><ele>265.3333333333333</ele><time>2026-04-30T10:05:31.22Z</time></trkpt><trkpt lat="39.520007872250375" lon="9.317259863042286"><ele>268.0</ele><time>2026-04-30T10:05:32.22Z</time></trkpt><trkpt lat="39.519840120540785" lon="9.317108792842205"><ele>272.0</ele><time>2026-04-30T10:05:33.22Z</time></trkpt><trkpt lat="39.51965020310192" lon="9.316984556074766"><ele>276.0</ele><time>2026-04-30T10:05:34.22Z</time></trkpt><trkpt lat="39.51944141215064" lon="9.316920374133012"><ele>280.0</ele><time>2026-04-30T10:05:35.22Z</time></trkpt><trkpt lat="39.51922842381153" lon="9.316898017563116"><ele>280.0</ele><time>2026-04-30T10:05:36.22Z</time></trkpt><trkpt lat="39.519025734587935" lon="9.316869224158163"><ele>280.0</ele><time>2026-04-30T10:05:37.22Z</time></trkpt><trkpt lat="39.51883054364268" lon="9.316802936208449"><ele>280.0</ele><time>2026-04-30T10:05:38.22Z</time></trkpt><trkpt lat="39.51865664005605" lon="9.316665106134957"><ele>277.66666666666663</ele><time>2026-04-30T10:05:39.22Z</time></trkpt><trkpt lat="39.51849449512076" lon="9.316490246938308"><ele>275.3333333333333</ele><time>2026-04-30T10:05:40.22Z</time></trkpt><trkpt lat="39.51832847088307" lon="9.31631916058493"><ele>273.0</ele><time>2026-04-30T10:05:41.22Z</time></trkpt><trkpt lat="39.518153521742164" lon="9.316147821009919"><ele>274.5</ele><time>2026-04-30T10:05:42.22Z</time></trkpt><trkpt lat="39.5179746950693" lon="9.315963606720947"><ele>276.0</ele><time>2026-04-30T10:05:43.22Z</time></trkpt><trkpt lat="39.51779394590389" lon="9.315774363289732"><ele>276.0</ele><time>2026-04-30T10:05:44.22Z</time></trkpt><trkpt lat="39.51762096642732" lon="9.315597100392521"><ele>276.0</ele><time>2026-04-30T10:05:45.22Z</time></trkpt><trkpt lat="39.5174561966354" lon="9.315432745657969"><ele>276.0</ele><time>2026-04-30T10:05:46.22Z</time></trkpt><trkpt lat="39.51729421185204" lon="9.31526794263339"><ele>277.6666666666667</ele><time>2026-04-30T10:05:47.22Z</time></trkpt><trkpt lat="39.517152249501855" lon="9.315107996826493"><ele>279.33333333333337</ele><time>2026-04-30T10:05:48.22Z</time></trkpt><trkpt lat="39.51706162554328" lon="9.314904605850513"><ele>281.0</ele><time>2026-04-30T10:05:49.22Z</time></trkpt><trkpt lat="39.51700306587622" lon="9.314667823409648"><ele>284.25</ele><time>2026-04-30T10:05:50.22Z</time></trkpt><trkpt lat="39.51695407466051" lon="9.314457632019058"><ele>287.5</ele><time>2026-04-30T10:05:51.22Z</time></trkpt><trkpt lat="39.51690244469482" lon="9.31429556880339"><ele>290.75</ele><time>2026-04-30T10:05:52.22Z</time></trkpt><trkpt lat="39.516815202625416" lon="9.314196702329212"><ele>294.0</ele><time>2026-04-30T10:05:53.22Z</time></trkpt><trkpt lat="39.516700846753665" lon="9.314195940955326"><ele>294.0</ele><time>2026-04-30T10:05:54.22Z</time></trkpt><trkpt lat="39.51658435005763" lon="9.314294664810419"><ele>294.0</ele><time>2026-04-30T10:05:55.22Z</time></trkpt><trkpt lat="39.51651386817162" lon="9.314489534280913"><ele>294.0</ele><time>2026-04-30T10:05:56.221Z</time></trkpt><trkpt lat="39.51646856670199" lon="9.314684643425478"><ele>291.6666666666667</ele><time>2026-04-30T10:05:57.221Z</time></trkpt><trkpt lat="39.51635701024038" lon="9.31478741375876"><ele>289.33333333333337</ele><time>2026-04-30T10:05:58.221Z</time></trkpt><trkpt lat="39.51618866913157" lon="9.314828999385425"><ele>287.0</ele><time>2026-04-30T10:05:59.221Z</time></trkpt><trkpt lat="39.51599778766126" lon="9.314840721830064"><ele>287.0</ele><time>2026-04-30T10:06:00.221Z</time></trkpt><trkpt lat="39.51579269818625" lon="9.314821618592621"><ele>287.0</ele><time>2026-04-30T10:06:01.221Z</time></trkpt><trkpt lat="39.515585184672574" lon="9.314767270435816"><ele>287.0</ele><time>2026-04-30T10:06:02.221Z</time></trkpt><trkpt lat="39.515371236846036" lon="9.314677813425286"><ele>290.6666666666667</ele><time>2026-04-30T10:06:03.221Z</time></trkpt><trkpt lat="39.51516128075411" lon="9.31456832174906"><ele>294.3333333333333</ele><time>2026-04-30T10:06:04.221Z</time></trkpt><trkpt lat="39.51496256175325" lon="9.31444723192018"><ele>298.0</ele><time>2026-04-30T10:06:05.221Z</time></trkpt><trkpt lat="39.51477866437423" lon="9.3142918791988"><ele>298.0</ele><time>2026-04-30T10:06:06.221Z</time></trkpt><trkpt lat="39.5146263534425" lon="9.314085263127073"><ele>298.0</ele><time>2026-04-30T10:06:07.221Z</time></trkpt><trkpt lat="39.5144930054452" lon="9.313851025667137"><ele>298.0</ele><time>2026-04-30T10:06:08.221Z</time></trkpt><trkpt lat="39.514365988282336" lon="9.313629152092691"><ele>298.66666666666663</ele><time>2026-04-30T10:06:09.221Z</time></trkpt><trkpt lat="39.51424919872994" lon="9.31343445621333"><ele>299.3333333333333</ele><time>2026-04-30T10:06:10.221Z</time></trkpt><trkpt lat="39.514116191824805" lon="9.313302602277462"><ele>300.0</ele><time>2026-04-30T10:06:11.221Z</time></trkpt><trkpt lat="39.513936086605845" lon="9.313266572938609"><ele>300.0</ele><time>2026-04-30T10:06:12.221Z</time></trkpt><trkpt lat="39.51374770635073" lon="9.313300578883847"><ele>300.0</ele><time>2026-04-30T10:06:13.221Z</time></trkpt><trkpt lat="39.513584716233844" lon="9.31327809112343"><ele>300.0</ele><time>2026-04-30T10:06:14.221Z</time></trkpt><trkpt lat="39.513432321839716" lon="9.31315514567723"><ele>303.3333333333333</ele><time>2026-04-30T10:06:15.221Z</time></trkpt><trkpt lat="39.51329136631485" lon="9.312987831301013"><ele>306.66666666666663</ele><time>2026-04-30T10:06:16.221Z</time></trkpt><trkpt lat="39.51318391314206" lon="9.312773306240224"><ele>310.0</ele><time>2026-04-30T10:06:17.221Z</time></trkpt><trkpt lat="39.51309452413053" lon="9.312535593324366"><ele>310.0</ele><time>2026-04-30T10:06:18.221Z</time></trkpt><trkpt lat="39.51300477046134" lon="9.31230069395733"><ele>310.0</ele><time>2026-04-30T10:06:19.221Z</time></trkpt><trkpt lat="39.512906791792965" lon="9.312062782934618"><ele>310.0</ele><time>2026-04-30T10:06:20.222Z</time></trkpt><trkpt lat="39.51280755528288" lon="9.311818078808397"><ele>308.66666666666663</ele><time>2026-04-30T10:06:21.221Z</time></trkpt><trkpt lat="39.51270752602004" lon="9.311571903785755"><ele>307.3333333333333</ele><time>2026-04-30T10:06:22.221Z</time></trkpt><trkpt lat="39.51261970011911" lon="9.31133065079615"><ele>306.0</ele><time>2026-04-30T10:06:23.221Z</time></trkpt><trkpt lat="39.512564383347936" lon="9.31109333491591"><ele>306.0</ele><time>2026-04-30T10:06:24.22Z</time></trkpt><trkpt lat="39.51257389085634" lon="9.310845999148682"><ele>306.0</ele><time>2026-04-30T10:06:25.22Z</time></trkpt><trkpt lat="39.51262887460301" lon="9.310596994737313"><ele>306.0</ele><time>2026-04-30T10:06:26.221Z</time></trkpt><trkpt lat="39.51270422356144" lon="9.31036880103507"><ele>307.0</ele><time>2026-04-30T10:06:27.221Z</time></trkpt><trkpt lat="39.51276740727281" lon="9.310163602580987"><ele>308.0</ele><time>2026-04-30T10:06:28.221Z</time></trkpt><trkpt lat="39.51279437303255" lon="9.309979958285362"><ele>309.0</ele><time>2026-04-30T10:06:29.221Z</time></trkpt><trkpt lat="39.512766388655976" lon="9.309805623143697"><ele>309.0</ele><time>2026-04-30T10:06:30.221Z</time></trkpt><trkpt lat="39.51268670993277" lon="9.30967187945691"><ele>309.0</ele><time>2026-04-30T10:06:31.221Z</time></trkpt><trkpt lat="39.5125527636719" lon="9.3096149027748"><ele>309.0</ele><time>2026-04-30T10:06:32.221Z</time></trkpt><trkpt lat="39.512395239955175" lon="9.30964763372844"><ele>309.0</ele><time>2026-04-30T10:06:33.221Z</time></trkpt><trkpt lat="39.51222624256383" lon="9.309757933082205"><ele>312.3333333333333</ele><time>2026-04-30T10:06:34.221Z</time></trkpt><trkpt lat="39.512052753777844" lon="9.309910999531173"><ele>315.66666666666663</ele><time>2026-04-30T10:06:35.221Z</time></trkpt><trkpt lat="39.511877049506765" lon="9.31001945680424"><ele>319.0</ele><time>2026-04-30T10:06:36.221Z</time></trkpt><trkpt lat="39.51170515875104" lon="9.310080640581672"><ele>319.0</ele><time>2026-04-30T10:06:37.221Z</time></trkpt><trkpt lat="39.511553619168595" lon="9.310119108702061"><ele>319.0</ele><time>2026-04-30T10:06:38.221Z</time></trkpt><trkpt lat="39.51144658137804" lon="9.31019087451857"><ele>319.0</ele><time>2026-04-30T10:06:39.221Z</time></trkpt><trkpt lat="39.51139853019692" lon="9.310328568163225"><ele>319.0</ele><time>2026-04-30T10:06:40.221Z</time></trkpt><trkpt lat="39.51144338914377" lon="9.310517126847856"><ele>317.0</ele><time>2026-04-30T10:06:41.221Z</time></trkpt><trkpt lat="39.511573117821264" lon="9.310694627223212"><ele>315.0</ele><time>2026-04-30T10:06:42.221Z</time></trkpt><trkpt lat="39.511697120728016" lon="9.31088690598281"><ele>313.0</ele><time>2026-04-30T10:06:43.221Z</time></trkpt><trkpt lat="39.5117745033279" lon="9.311112986947872"><ele>313.0</ele><time>2026-04-30T10:06:44.221Z</time></trkpt><trkpt lat="39.51178157006465" lon="9.311378179813463"><ele>313.0</ele><time>2026-04-30T10:06:45.221Z</time></trkpt><trkpt lat="39.51176444179713" lon="9.311661338568324"><ele>313.0</ele><time>2026-04-30T10:06:46.221Z</time></trkpt><trkpt lat="39.51176339255569" lon="9.311940264645731"><ele>316.66666666666663</ele><time>2026-04-30T10:06:47.221Z</time></trkpt><trkpt lat="39.51179082618247" lon="9.312219744383114"><ele>320.3333333333333</ele><time>2026-04-30T10:06:48.221Z</time></trkpt><trkpt lat="39.51183620353911" lon="9.312488010104952"><ele>324.0</ele><time>2026-04-30T10:06:49.221Z</time></trkpt><trkpt lat="39.511882868362726" lon="9.312761819738219"><ele>325.6666666666667</ele><time>2026-04-30T10:06:50.221Z</time></trkpt><trkpt lat="39.511920429585665" lon="9.313016997386057"><ele>327.33333333333337</ele><time>2026-04-30T10:06:51.221Z</time></trkpt><trkpt lat="39.51194416816268" lon="9.313241968326533"><ele>329.0</ele><time>2026-04-30T10:06:52.221Z</time></trkpt><trkpt lat="39.51193251065251" lon="9.313435575356449"><ele>329.33333333333337</ele><time>2026-04-30T10:06:53.221Z</time></trkpt><trkpt lat="39.511858283006205" lon="9.313579076312461"><ele>329.6666666666667</ele><time>2026-04-30T10:06:54.221Z</time></trkpt><trkpt lat="39.51172134813085" lon="9.313639589606781"><ele>330.0</ele><time>2026-04-30T10:06:55.221Z</time></trkpt><trkpt lat="39.511545252575296" lon="9.31360098398744"><ele>330.0</ele><time>2026-04-30T10:06:56.221Z</time></trkpt><trkpt lat="39.511368210794316" lon="9.313526815852029"><ele>330.0</ele><time>2026-04-30T10:06:57.221Z</time></trkpt><trkpt lat="39.511171471661164" lon="9.31345350262541"><ele>330.0</ele><time>2026-04-30T10:06:58.221Z</time></trkpt><trkpt lat="39.51095470292437" lon="9.313405804047227"><ele>333.6666666666667</ele><time>2026-04-30T10:06:59.221Z</time></trkpt><trkpt lat="39.51074037091537" lon="9.313391794253466"><ele>337.33333333333337</ele><time>2026-04-30T10:07:00.221Z</time></trkpt><trkpt lat="39.51052827232263" lon="9.31342035542635"><ele>341.0</ele><time>2026-04-30T10:07:01.222Z</time></trkpt><trkpt lat="39.51031633069518" lon="9.313427420832236"><ele>341.0</ele><time>2026-04-30T10:07:02.222Z</time></trkpt><trkpt lat="39.51010587365773" lon="9.31337825810374"><ele>341.0</ele><time>2026-04-30T10:07:03.222Z</time></trkpt><trkpt lat="39.509910072087436" lon="9.313268586423717"><ele>341.0</ele><time>2026-04-30T10:07:04.222Z</time></trkpt><trkpt lat="39.509721520154315" lon="9.313138911258061"><ele>348.0</ele><time>2026-04-30T10:07:05.222Z</time></trkpt><trkpt lat="39.50952800977535" lon="9.313008703143309"><ele>355.0</ele><time>2026-04-30T10:07:06.222Z</time></trkpt><trkpt lat="39.509329545869136" lon="9.312888743181816"><ele>362.0</ele><time>2026-04-30T10:07:07.222Z</time></trkpt><trkpt lat="39.5091331036836" lon="9.312761516646292"><ele>362.0</ele><time>2026-04-30T10:07:08.222Z</time></trkpt><trkpt lat="39.508931139776486" lon="9.312643404849814"><ele>362.0</ele><time>2026-04-30T10:07:09.222Z</time></trkpt><trkpt lat="39.508724570636524" lon="9.312530689816613"><ele>362.0</ele><time>2026-04-30T10:07:10.222Z</time></trkpt><trkpt lat="39.50852410389378" lon="9.312443233741115"><ele>359.0</ele><time>2026-04-30T10:07:11.222Z</time></trkpt><trkpt lat="39.50831900963135" lon="9.312377427629281"><ele>356.0</ele><time>2026-04-30T10:07:12.222Z</time></trkpt><trkpt lat="39.50811520594222" lon="9.312358926115134"><ele>353.0</ele><time>2026-04-30T10:07:13.222Z</time></trkpt><trkpt lat="39.50790883416245" lon="9.312368340694455"><ele>352.33333333333337</ele><time>2026-04-30T10:07:14.222Z</time></trkpt><trkpt lat="39.50770195823324" lon="9.31233608243558"><ele>351.6666666666667</ele><time>2026-04-30T10:07:15.222Z</time></trkpt><trkpt lat="39.507501574879036" lon="9.312273170699163"><ele>351.0</ele><time>2026-04-30T10:07:16.222Z</time></trkpt><trkpt lat="39.50731305939302" lon="9.31217622506697"><ele>356.0</ele><time>2026-04-30T10:07:17.222Z</time></trkpt><trkpt lat="39.50712435503925" lon="9.31205955122336"><ele>361.0</ele><time>2026-04-30T10:07:18.222Z</time></trkpt><trkpt lat="39.5069354875749" lon="9.311938841634479"><ele>366.0</ele><time>2026-04-30T10:07:19.222Z</time></trkpt><trkpt lat="39.5067611424633" lon="9.311810386168549"><ele>366.0</ele><time>2026-04-30T10:07:20.222Z</time></trkpt><trkpt lat="39.50662050322095" lon="9.311674454606333"><ele>366.0</ele><time>2026-04-30T10:07:21.222Z</time></trkpt><trkpt lat="39.50651680185763" lon="9.311553352689089"><ele>366.0</ele><time>2026-04-30T10:07:22.222Z</time></trkpt><trkpt lat="39.50641125620549" lon="9.311500767509273"><ele>366.0</ele><time>2026-04-30T10:07:23.222Z</time></trkpt><trkpt lat="39.506311358837955" lon="9.311573193378948"><ele>368.6666666666667</ele><time>2026-04-30T10:07:24.222Z</time></trkpt><trkpt lat="39.50624328179087" lon="9.311739299007627"><ele>371.33333333333337</ele><time>2026-04-30T10:07:25.222Z</time></trkpt><trkpt lat="39.5062197082253" lon="9.311956312477193"><ele>374.0</ele><time>2026-04-30T10:07:26.222Z</time></trkpt><trkpt lat="39.5061597916659" lon="9.312168975161654"><ele>370.0</ele><time>2026-04-30T10:07:27.222Z</time></trkpt><trkpt lat="39.50603143001361" lon="9.312308862339709"><ele>366.0</ele><time>2026-04-30T10:07:28.222Z</time></trkpt><trkpt lat="39.50586009806928" lon="9.312369710934826"><ele>362.0</ele><time>2026-04-30T10:07:29.222Z</time></trkpt><trkpt lat="39.505662481462466" lon="9.312360153257146"><ele>362.0</ele><time>2026-04-30T10:07:30.222Z</time></trkpt><trkpt lat="39.505454493118734" lon="9.312331731779302"><ele>362.0</ele><time>2026-04-30T10:07:31.222Z</time></trkpt><trkpt lat="39.50524693575088" lon="9.312330620706186"><ele>362.0</ele><time>2026-04-30T10:07:32.222Z</time></trkpt><trkpt lat="39.505056520070156" lon="9.312361991188643"><ele>365.0</ele><time>2026-04-30T10:07:33.222Z</time></trkpt><trkpt lat="39.50486142368836" lon="9.312413040807236"><ele>368.0</ele><time>2026-04-30T10:07:34.222Z</time></trkpt><trkpt lat="39.50466560971687" lon="9.312475302658193"><ele>371.0</ele><time>2026-04-30T10:07:35.222Z</time></trkpt><trkpt lat="39.50446879622986" lon="9.31253650699105"><ele>373.0</ele><time>2026-04-30T10:07:36.222Z</time></trkpt><trkpt lat="39.50426331891547" lon="9.312580314490583"><ele>375.0</ele><time>2026-04-30T10:07:37.222Z</time></trkpt><trkpt lat="39.50405662912144" lon="9.312595332642296"><ele>377.0</ele><time>2026-04-30T10:07:38.222Z</time></trkpt><trkpt lat="39.50384465901343" lon="9.312590359742371"><ele>377.0</ele><time>2026-04-30T10:07:39.222Z</time></trkpt><trkpt lat="39.50366017944862" lon="9.312528435609119"><ele>377.0</ele><time>2026-04-30T10:07:40.222Z</time></trkpt><trkpt lat="39.50350746156126" lon="9.312393769217362"><ele>377.0</ele><time>2026-04-30T10:07:41.222Z</time></trkpt><trkpt lat="39.50340876974978" lon="9.312214246095412"><ele>378.33333333333337</ele><time>2026-04-30T10:07:42.222Z</time></trkpt><trkpt lat="39.5033834795253" lon="9.311967084823852"><ele>379.6666666666667</ele><time>2026-04-30T10:07:43.222Z</time></trkpt><trkpt lat="39.50339266463098" lon="9.311692134124874"><ele>381.0</ele><time>2026-04-30T10:07:44.222Z</time></trkpt><trkpt lat="39.503405559647575" lon="9.311408625147493"><ele>382.66666666666663</ele><time>2026-04-30T10:07:45.222Z</time></trkpt><trkpt lat="39.503384895649184" lon="9.311166866876718"><ele>384.3333333333333</ele><time>2026-04-30T10:07:46.222Z</time></trkpt><trkpt lat="39.503317197502696" lon="9.310977886376305"><ele>386.0</ele><time>2026-04-30T10:07:47.222Z</time></trkpt><trkpt lat="39.50318496442753" lon="9.310864356976309"><ele>386.0</ele><time>2026-04-30T10:07:48.222Z</time></trkpt><trkpt lat="39.50301679935172" lon="9.310828469574437"><ele>386.0</ele><time>2026-04-30T10:07:49.222Z</time></trkpt><trkpt lat="39.5028473244435" lon="9.310898566644676"><ele>386.0</ele><time>2026-04-30T10:07:50.222Z</time></trkpt><trkpt lat="39.502679040323265" lon="9.311044947365161"><ele>386.0</ele><time>2026-04-30T10:07:51.222Z</time></trkpt><trkpt lat="39.50251641891917" lon="9.311208773048085"><ele>386.0</ele><time>2026-04-30T10:07:52.222Z</time></trkpt><trkpt lat="39.502384776717406" lon="9.31141726385674"><ele>386.0</ele><time>2026-04-30T10:07:53.222Z</time></trkpt><trkpt lat="39.502289693254255" lon="9.311661217606886"><ele>386.0</ele><time>2026-04-30T10:07:54.222Z</time></trkpt><trkpt lat="39.502228564123996" lon="9.311916242616485"><ele>386.0</ele><time>2026-04-30T10:07:55.222Z</time></trkpt><trkpt lat="39.502177482134954" lon="9.312168646987542"><ele>386.0</ele><time>2026-04-30T10:07:56.222Z</time></trkpt><trkpt lat="39.502132359498695" lon="9.312394213203303"><ele>386.3333333333333</ele><time>2026-04-30T10:07:57.222Z</time></trkpt><trkpt lat="39.502095986203926" lon="9.312598104767781"><ele>386.66666666666663</ele><time>2026-04-30T10:07:58.222Z</time></trkpt><trkpt lat="39.502058078170684" lon="9.312796050308567"><ele>387.0</ele><time>2026-04-30T10:07:59.222Z</time></trkpt><trkpt lat="39.50201770328406" lon="9.312980039558619"><ele>388.75</ele><time>2026-04-30T10:08:00.222Z</time></trkpt><trkpt lat="39.50195550603424" lon="9.313147914585414"><ele>390.5</ele><time>2026-04-30T10:08:01.222Z</time></trkpt><trkpt lat="39.50184844190549" lon="9.31327118546647"><ele>392.25</ele><time>2026-04-30T10:08:02.222Z</time></trkpt><trkpt lat="39.501723710559304" lon="9.313352015592486"><ele>394.0</ele><time>2026-04-30T10:08:03.222Z</time></trkpt><trkpt lat="39.50158686980309" lon="9.313405549917759"><ele>394.0</ele><time>2026-04-30T10:08:04.222Z</time></trkpt><trkpt lat="39.50144534422969" lon="9.3134496648076"><ele>394.0</ele><time>2026-04-30T10:08:05.222Z</time></trkpt><trkpt lat="39.50131359606506" lon="9.313484493430309"><ele>394.0</ele><time>2026-04-30T10:08:06.222Z</time></trkpt><trkpt lat="39.5011914425529" lon="9.313511756850742"><ele>394.0</ele><time>2026-04-30T10:08:07.222Z</time></trkpt><trkpt lat="39.50107118651111" lon="9.31353052543435"><ele>393.33333333333337</ele><time>2026-04-30T10:08:08.222Z</time></trkpt><trkpt lat="39.50092626908642" lon="9.31352246618502"><ele>392.66666666666663</ele><time>2026-04-30T10:08:09.222Z</time></trkpt><trkpt lat="39.50077803190232" lon="9.313458707281736"><ele>392.0</ele><time>2026-04-30T10:08:10.222Z</time></trkpt><trkpt lat="39.50064375750435" lon="9.313340325636114"><ele>392.0</ele><time>2026-04-30T10:08:11.222Z</time></trkpt><trkpt lat="39.50054263372487" lon="9.31316708730894"><ele>392.0</ele><time>2026-04-30T10:08:12.222Z</time></trkpt><trkpt lat="39.50047050363078" lon="9.312960431700686"><ele>392.0</ele><time>2026-04-30T10:08:13.222Z</time></trkpt><trkpt lat="39.50038988253807" lon="9.312770399375774"><ele>390.66666666666663</ele><time>2026-04-30T10:08:14.222Z</time></trkpt><trkpt lat="39.500275748928395" lon="9.312605248224916"><ele>389.33333333333337</ele><time>2026-04-30T10:08:15.222Z</time></trkpt><trkpt lat="39.50013241940357" lon="9.312465494079548"><ele>388.0</ele><time>2026-04-30T10:08:16.222Z</time></trkpt><trkpt lat="39.49996312755588" lon="9.312343955033477"><ele>386.0</ele><time>2026-04-30T10:08:17.222Z</time></trkpt><trkpt lat="39.49979645758699" lon="9.312238023398573"><ele>384.0</ele><time>2026-04-30T10:08:18.222Z</time></trkpt><trkpt lat="39.49964357725516" lon="9.312148168063976"><ele>382.0</ele><time>2026-04-30T10:08:19.222Z</time></trkpt><trkpt lat="39.499509192333264" lon="9.312075601721828"><ele>382.0</ele><time>2026-04-30T10:08:20.222Z</time></trkpt><trkpt lat="39.49940413915996" lon="9.312014312259333"><ele>382.0</ele><time>2026-04-30T10:08:21.222Z</time></trkpt><trkpt lat="39.499340563104376" lon="9.311980173803214"><ele>382.0</ele><time>2026-04-30T10:08:22.222Z</time></trkpt><trkpt lat="39.49926215665578" lon="9.311978382583337"><ele>382.0</ele><time>2026-04-30T10:09:13.223Z</time></trkpt><trkpt lat="39.49920183060233" lon="9.311954442942083"><ele>382.0</ele><time>2026-04-30T10:09:14.223Z</time></trkpt><trkpt lat="39.49911249305068" lon="9.311905324765357"><ele>382.0</ele><time>2026-04-30T10:09:15.223Z</time></trkpt><trkpt lat="39.49899996621573" lon="9.311838222799409"><ele>382.0</ele><time>2026-04-30T10:09:16.223Z</time></trkpt><trkpt lat="39.49886414781014" lon="9.311761575624097"><ele>382.0</ele><time>2026-04-30T10:09:17.223Z</time></trkpt><trkpt lat="39.498706976604126" lon="9.311672564696687"><ele>382.0</ele><time>2026-04-30T10:09:18.223Z</time></trkpt><trkpt lat="39.49854235907755" lon="9.311570719056428"><ele>382.3333333333333</ele><time>2026-04-30T10:09:19.223Z</time></trkpt><trkpt lat="39.49835907275811" lon="9.311459482820268"><ele>382.6666666666667</ele><time>2026-04-30T10:09:20.223Z</time></trkpt><trkpt lat="39.498159424124225" lon="9.311339531230438"><ele>383.0</ele><time>2026-04-30T10:09:21.223Z</time></trkpt><trkpt lat="39.497948702850216" lon="9.311226731716031"><ele>382.5</ele><time>2026-04-30T10:09:22.223Z</time></trkpt><trkpt lat="39.49772881964478" lon="9.31110335722169"><ele>382.0</ele><time>2026-04-30T10:09:23.223Z</time></trkpt><trkpt lat="39.49751158763401" lon="9.310975238477834"><ele>382.0</ele><time>2026-04-30T10:09:24.223Z</time></trkpt><trkpt lat="39.49729698446411" lon="9.310846791283932"><ele>382.0</ele><time>2026-04-30T10:09:25.223Z</time></trkpt><trkpt lat="39.49710103510064" lon="9.310728827799158"><ele>378.0</ele><time>2026-04-30T10:09:26.223Z</time></trkpt><trkpt lat="39.496925501248796" lon="9.310606015116578"><ele>374.0</ele><time>2026-04-30T10:09:27.223Z</time></trkpt><trkpt lat="39.49678646506926" lon="9.31047452771236"><ele>370.0</ele><time>2026-04-30T10:09:28.223Z</time></trkpt><trkpt lat="39.49668915306801" lon="9.310312984084028"><ele>370.0</ele><time>2026-04-30T10:09:29.223Z</time></trkpt><trkpt lat="39.496642307093964" lon="9.310121497131309"><ele>370.0</ele><time>2026-04-30T10:09:30.223Z</time></trkpt><trkpt lat="39.49665035793148" lon="9.309917688964466"><ele>370.0</ele><time>2026-04-30T10:09:31.223Z</time></trkpt><trkpt lat="39.49666607255593" lon="9.309707442599667"><ele>369.3333333333333</ele><time>2026-04-30T10:09:32.223Z</time></trkpt><trkpt lat="39.49668668004448" lon="9.309500412285376"><ele>368.6666666666667</ele><time>2026-04-30T10:09:33.223Z</time></trkpt><trkpt lat="39.496714339478366" lon="9.309287333218046"><ele>368.0</ele><time>2026-04-30T10:09:34.223Z</time></trkpt><trkpt lat="39.49674936519462" lon="9.309081661004821"><ele>367.0</ele><time>2026-04-30T10:09:35.223Z</time></trkpt><trkpt lat="39.496785226448644" lon="9.308893180788584"><ele>366.0</ele><time>2026-04-30T10:09:36.223Z</time></trkpt><trkpt lat="39.496827405064394" lon="9.308720944159097"><ele>365.0</ele><time>2026-04-30T10:09:37.223Z</time></trkpt><trkpt lat="39.496873963404596" lon="9.308558949703464"><ele>364.0</ele><time>2026-04-30T10:09:38.223Z</time></trkpt><trkpt lat="39.49692123882726" lon="9.308404859277315"><ele>364.0</ele><time>2026-04-30T10:09:39.223Z</time></trkpt><trkpt lat="39.496988637407085" lon="9.308270606433553"><ele>364.0</ele><time>2026-04-30T10:09:40.223Z</time></trkpt><trkpt lat="39.497078696380655" lon="9.308160407146493"><ele>364.0</ele><time>2026-04-30T10:09:41.223Z</time></trkpt><trkpt lat="39.49716974015875" lon="9.308045673606292"><ele>364.0</ele><time>2026-04-30T10:09:42.223Z</time></trkpt><trkpt lat="39.49725111401463" lon="9.307916401861526"><ele>365.0</ele><time>2026-04-30T10:09:43.223Z</time></trkpt><trkpt lat="39.49733827039261" lon="9.307782855230478"><ele>366.0</ele><time>2026-04-30T10:09:44.223Z</time></trkpt><trkpt lat="39.49742101256098" lon="9.307646128433472"><ele>367.0</ele><time>2026-04-30T10:09:45.223Z</time></trkpt><trkpt lat="39.49749841999875" lon="9.307510798436807"><ele>368.0</ele><time>2026-04-30T10:09:46.223Z</time></trkpt><trkpt lat="39.49757950506501" lon="9.30738795961824"><ele>368.0</ele><time>2026-04-30T10:09:47.223Z</time></trkpt><trkpt lat="39.49765636780259" lon="9.307277131443485"><ele>368.0</ele><time>2026-04-30T10:09:48.223Z</time></trkpt><trkpt lat="39.49772248027205" lon="9.307165012545486"><ele>368.0</ele><time>2026-04-30T10:09:49.223Z</time></trkpt><trkpt lat="39.49777119375438" lon="9.307056932482563"><ele>368.0</ele><time>2026-04-30T10:09:50.223Z</time></trkpt><trkpt lat="39.49779241456136" lon="9.306944888139371"><ele>368.0</ele><time>2026-04-30T10:09:51.223Z</time></trkpt><trkpt lat="39.497781684375106" lon="9.30684538760411"><ele>368.5</ele><time>2026-04-30T10:09:52.223Z</time></trkpt><trkpt lat="39.497712887650614" lon="9.306714524307473"><ele>369.0</ele><time>2026-04-30T10:09:53.223Z</time></trkpt><trkpt lat="39.49762839721146" lon="9.306595001448986"><ele>369.5</ele><time>2026-04-30T10:09:54.223Z</time></trkpt><trkpt lat="39.49752972583751" lon="9.306472921752492"><ele>370.0</ele><time>2026-04-30T10:09:55.223Z</time></trkpt><trkpt lat="39.49744806348968" lon="9.306354506398998"><ele>371.25</ele><time>2026-04-30T10:09:56.223Z</time></trkpt><trkpt lat="39.49736560575092" lon="9.306234823212389"><ele>372.5</ele><time>2026-04-30T10:09:57.223Z</time></trkpt><trkpt lat="39.49728980891993" lon="9.306103762968124"><ele>373.75</ele><time>2026-04-30T10:09:58.223Z</time></trkpt><trkpt lat="39.49720813378607" lon="9.305978959868314"><ele>375.0</ele><time>2026-04-30T10:09:59.223Z</time></trkpt><trkpt lat="39.49712448304328" lon="9.305857091245695"><ele>374.75</ele><time>2026-04-30T10:10:00.223Z</time></trkpt><trkpt lat="39.49704010962692" lon="9.305731262751449"><ele>374.5</ele><time>2026-04-30T10:10:01.223Z</time></trkpt><trkpt lat="39.49696773054971" lon="9.305602930472348"><ele>374.25</ele><time>2026-04-30T10:10:02.223Z</time></trkpt><trkpt lat="39.49687440534351" lon="9.305484001831939"><ele>374.0</ele><time>2026-04-30T10:10:03.223Z</time></trkpt><trkpt lat="39.49678682444094" lon="9.305374936158174"><ele>374.0</ele><time>2026-04-30T10:10:04.223Z</time></trkpt><trkpt lat="39.49675157316947" lon="9.305213568204572"><ele>374.0</ele><time>2026-04-30T10:10:05.223Z</time></trkpt><trkpt lat="39.49673737081118" lon="9.305040588579738"><ele>374.0</ele><time>2026-04-30T10:10:06.223Z</time></trkpt><trkpt lat="39.496715582285205" lon="9.30486764761929"><ele>374.0</ele><time>2026-04-30T10:10:07.223Z</time></trkpt><trkpt lat="39.4967054690742" lon="9.304695669418459"><ele>374.75</ele><time>2026-04-30T10:10:08.223Z</time></trkpt><trkpt lat="39.496679818162704" lon="9.304522265266362"><ele>375.5</ele><time>2026-04-30T10:10:09.223Z</time></trkpt><trkpt lat="39.49664095433004" lon="9.304353632367295"><ele>376.25</ele><time>2026-04-30T10:10:10.223Z</time></trkpt><trkpt lat="39.49661802388676" lon="9.304167939969947"><ele>377.0</ele><time>2026-04-30T10:10:11.223Z</time></trkpt><trkpt lat="39.49658934977274" lon="9.30398826477567"><ele>378.25</ele><time>2026-04-30T10:10:12.223Z</time></trkpt><trkpt lat="39.49655281887705" lon="9.303810284564523"><ele>379.5</ele><time>2026-04-30T10:10:13.223Z</time></trkpt><trkpt lat="39.49650683721538" lon="9.303632795759613"><ele>380.75</ele><time>2026-04-30T10:10:14.223Z</time></trkpt><trkpt lat="39.49644239895439" lon="9.30346068612248"><ele>382.0</ele><time>2026-04-30T10:10:15.224Z</time></trkpt><trkpt lat="39.49636821673139" lon="9.30329922681503"><ele>382.0</ele><time>2026-04-30T10:10:16.224Z</time></trkpt><trkpt lat="39.49629141117098" lon="9.303140943997917"><ele>382.0</ele><time>2026-04-30T10:10:17.224Z</time></trkpt><trkpt lat="39.4962161377345" lon="9.30297940721029"><ele>382.0</ele><time>2026-04-30T10:10:18.224Z</time></trkpt><trkpt lat="39.49615264585095" lon="9.302823731749326"><ele>382.0</ele><time>2026-04-30T10:10:19.224Z</time></trkpt><trkpt lat="39.49609316981812" lon="9.302669002281645"><ele>383.0</ele><time>2026-04-30T10:10:20.224Z</time></trkpt><trkpt lat="39.49603342745224" lon="9.302515747864538"><ele>384.0</ele><time>2026-04-30T10:10:21.224Z</time></trkpt><trkpt lat="39.4959754735944" lon="9.30236447636654"><ele>385.0</ele><time>2026-04-30T10:10:22.224Z</time></trkpt><trkpt lat="39.49592082342842" lon="9.302219386565621"><ele>386.0</ele><time>2026-04-30T10:10:23.224Z</time></trkpt><trkpt lat="39.495882991089836" lon="9.302072842615441"><ele>386.66666666666663</ele><time>2026-04-30T10:10:24.224Z</time></trkpt><trkpt lat="39.495855915278995" lon="9.301757415934738"><ele>387.33333333333337</ele><time>2026-04-30T10:10:26.224Z</time></trkpt><trkpt lat="39.49586316562759" lon="9.301593798115228"><ele>388.0</ele><time>2026-04-30T10:10:27.224Z</time></trkpt><trkpt lat="39.49586751088332" lon="9.30142474647975"><ele>387.5</ele><time>2026-04-30T10:10:28.224Z</time></trkpt><trkpt lat="39.495874934526746" lon="9.301249374405137"><ele>387.0</ele><time>2026-04-30T10:10:29.224Z</time></trkpt><trkpt lat="39.49588353491155" lon="9.301071669538205"><ele>386.5</ele><time>2026-04-30T10:10:30.224Z</time></trkpt><trkpt lat="39.495891006113" lon="9.300888208535786"><ele>386.0</ele><time>2026-04-30T10:10:31.224Z</time></trkpt><trkpt lat="39.495903026710586" lon="9.300712328051443"><ele>386.75</ele><time>2026-04-30T10:10:32.224Z</time></trkpt><trkpt lat="39.495913678645586" lon="9.300532156652844"><ele>387.5</ele><time>2026-04-30T10:10:33.225Z</time></trkpt><trkpt lat="39.495931202535544" lon="9.300354834014911"><ele>388.25</ele><time>2026-04-30T10:10:34.225Z</time></trkpt><trkpt lat="39.49594658328617" lon="9.300177608745091"><ele>389.0</ele><time>2026-04-30T10:10:35.225Z</time></trkpt><trkpt lat="39.49596968054475" lon="9.300003826286597"><ele>389.0</ele><time>2026-04-30T10:10:36.224Z</time></trkpt><trkpt lat="39.49601378453355" lon="9.299837822075911"><ele>389.0</ele><time>2026-04-30T10:10:37.224Z</time></trkpt><trkpt lat="39.49607423680927" lon="9.299675409019914"><ele>389.0</ele><time>2026-04-30T10:10:38.225Z</time></trkpt><trkpt lat="39.49613401759562" lon="9.299513029903927"><ele>389.0</ele><time>2026-04-30T10:10:39.224Z</time></trkpt><trkpt lat="39.49619242768673" lon="9.299350732988305"><ele>392.0</ele><time>2026-04-30T10:10:40.224Z</time></trkpt><trkpt lat="39.49626232460225" lon="9.29919375522334"><ele>395.0</ele><time>2026-04-30T10:10:41.224Z</time></trkpt><trkpt lat="39.49633825155336" lon="9.299047780764369"><ele>398.0</ele><time>2026-04-30T10:10:42.224Z</time></trkpt><trkpt lat="39.496404900707844" lon="9.298892625361384"><ele>401.0</ele><time>2026-04-30T10:10:43.224Z</time></trkpt><trkpt lat="39.49644376121752" lon="9.298730662610016"><ele>401.75</ele><time>2026-04-30T10:10:44.224Z</time></trkpt><trkpt lat="39.49646427295298" lon="9.298563734970104"><ele>402.5</ele><time>2026-04-30T10:10:45.225Z</time></trkpt><trkpt lat="39.49644766773826" lon="9.298390711134418"><ele>403.25</ele><time>2026-04-30T10:10:46.225Z</time></trkpt><trkpt lat="39.49640769745348" lon="9.29822300192251"><ele>404.0</ele><time>2026-04-30T10:10:47.225Z</time></trkpt><trkpt lat="39.49635716105994" lon="9.298062761117677"><ele>404.75</ele><time>2026-04-30T10:10:48.225Z</time></trkpt><trkpt lat="39.49630589446579" lon="9.297904432503504"><ele>405.5</ele><time>2026-04-30T10:10:49.225Z</time></trkpt><trkpt lat="39.4962128156911" lon="9.297778593176197"><ele>406.25</ele><time>2026-04-30T10:10:50.225Z</time></trkpt><trkpt lat="39.49608451092902" lon="9.2977126536851"><ele>407.0</ele><time>2026-04-30T10:10:51.225Z</time></trkpt><trkpt lat="39.49595344207465" lon="9.297730310580096"><ele>408.0</ele><time>2026-04-30T10:10:52.225Z</time></trkpt><trkpt lat="39.495842253835896" lon="9.29784845305713"><ele>409.0</ele><time>2026-04-30T10:10:53.225Z</time></trkpt><trkpt lat="39.49573863101214" lon="9.298022315803964"><ele>410.0</ele><time>2026-04-30T10:10:54.225Z</time></trkpt><trkpt lat="39.49562560043347" lon="9.298179775626197"><ele>409.3333333333333</ele><time>2026-04-30T10:10:55.225Z</time></trkpt><trkpt lat="39.495480085130886" lon="9.298308243024747"><ele>408.66666666666663</ele><time>2026-04-30T10:10:56.225Z</time></trkpt><trkpt lat="39.49533198636348" lon="9.298393711140976"><ele>408.0</ele><time>2026-04-30T10:10:57.225Z</time></trkpt><trkpt lat="39.49519006915998" lon="9.298466669981423"><ele>408.0</ele><time>2026-04-30T10:10:58.225Z</time></trkpt><trkpt lat="39.49506613247567" lon="9.298523204512145"><ele>408.0</ele><time>2026-04-30T10:10:59.225Z</time></trkpt><trkpt lat="39.4949473551104" lon="9.29856141367814"><ele>408.0</ele><time>2026-04-30T10:11:00.225Z</time></trkpt><trkpt lat="39.49483200292854" lon="9.298567764548764"><ele>408.0</ele><time>2026-04-30T10:11:01.225Z</time></trkpt><trkpt lat="39.494712015050524" lon="9.298565187591583"><ele>407.75</ele><time>2026-04-30T10:11:02.225Z</time></trkpt><trkpt lat="39.49458657001665" lon="9.29854261615427"><ele>407.5</ele><time>2026-04-30T10:11:03.225Z</time></trkpt><trkpt lat="39.49446082529578" lon="9.29849114911627"><ele>407.25</ele><time>2026-04-30T10:11:04.225Z</time></trkpt><trkpt lat="39.49434681636658" lon="9.29839408175779"><ele>407.0</ele><time>2026-04-30T10:11:05.225Z</time></trkpt><trkpt lat="39.494245322748355" lon="9.298282768504471"><ele>407.0</ele><time>2026-04-30T10:11:06.225Z</time></trkpt><trkpt lat="39.494150817604236" lon="9.298163228663368"><ele>407.0</ele><time>2026-04-30T10:11:07.225Z</time></trkpt><trkpt lat="39.49406919035804" lon="9.298027441371266"><ele>407.0</ele><time>2026-04-30T10:11:08.225Z</time></trkpt><trkpt lat="39.4940201632013" lon="9.297873983035368"><ele>407.0</ele><time>2026-04-30T10:11:09.225Z</time></trkpt><trkpt lat="39.49399495236975" lon="9.29770162310418"><ele>406.66666666666663</ele><time>2026-04-30T10:11:10.225Z</time></trkpt><trkpt lat="39.49399960446138" lon="9.297512149195779"><ele>406.33333333333337</ele><time>2026-04-30T10:11:11.225Z</time></trkpt><trkpt lat="39.49404326931553" lon="9.297316504665483"><ele>406.0</ele><time>2026-04-30T10:11:12.225Z</time></trkpt><trkpt lat="39.49410866539171" lon="9.297121022121782"><ele>406.0</ele><time>2026-04-30T10:11:13.225Z</time></trkpt><trkpt lat="39.49418013665162" lon="9.296919240291992"><ele>406.0</ele><time>2026-04-30T10:11:14.225Z</time></trkpt><trkpt lat="39.494253888078745" lon="9.296700140339428"><ele>406.0</ele><time>2026-04-30T10:11:15.225Z</time></trkpt><trkpt lat="39.494327354146876" lon="9.296468656217463"><ele>405.0</ele><time>2026-04-30T10:11:16.225Z</time></trkpt><trkpt lat="39.49440188770221" lon="9.296249730989192"><ele>404.0</ele><time>2026-04-30T10:11:17.225Z</time></trkpt><trkpt lat="39.4944643644857" lon="9.296045281085675"><ele>403.0</ele><time>2026-04-30T10:11:18.225Z</time></trkpt><trkpt lat="39.49449438853846" lon="9.29585754549812"><ele>403.0</ele><time>2026-04-30T10:11:19.225Z</time></trkpt><trkpt lat="39.49446430129372" lon="9.295687206888903"><ele>403.0</ele><time>2026-04-30T10:11:20.225Z</time></trkpt><trkpt lat="39.49436525919291" lon="9.29554133085454"><ele>403.0</ele><time>2026-04-30T10:11:21.225Z</time></trkpt><trkpt lat="39.494201497516904" lon="9.295449712902036"><ele>404.33333333333337</ele><time>2026-04-30T10:11:22.225Z</time></trkpt><trkpt lat="39.494013242583996" lon="9.295398640041684"><ele>405.66666666666663</ele><time>2026-04-30T10:11:23.225Z</time></trkpt><trkpt lat="39.493824041891884" lon="9.295318546882907"><ele>407.0</ele><time>2026-04-30T10:11:24.225Z</time></trkpt><trkpt lat="39.49364035924342" lon="9.295195252580296"><ele>407.0</ele><time>2026-04-30T10:11:25.225Z</time></trkpt><trkpt lat="39.493465920473355" lon="9.295014125892061"><ele>407.0</ele><time>2026-04-30T10:11:26.225Z</time></trkpt><trkpt lat="39.49328513097578" lon="9.294802750243488"><ele>417.5</ele><time>2026-04-30T10:11:27.225Z</time></trkpt><trkpt lat="39.49309816216793" lon="9.294596030251052"><ele>428.0</ele><time>2026-04-30T10:11:28.225Z</time></trkpt><trkpt lat="39.49292495528408" lon="9.294401718150286"><ele>421.3333333333333</ele><time>2026-04-30T10:11:29.225Z</time></trkpt><trkpt lat="39.49277353195672" lon="9.29422251874597"><ele>414.66666666666663</ele><time>2026-04-30T10:11:30.225Z</time></trkpt><trkpt lat="39.49264525493067" lon="9.294050128947207"><ele>408.0</ele><time>2026-04-30T10:11:31.225Z</time></trkpt><trkpt lat="39.49254365132425" lon="9.293874262420571"><ele>407.0</ele><time>2026-04-30T10:11:32.225Z</time></trkpt><trkpt lat="39.4924981648683" lon="9.293649644636927"><ele>406.0</ele><time>2026-04-30T10:11:33.225Z</time></trkpt><trkpt lat="39.492506727655595" lon="9.293359440051843"><ele>405.0</ele><time>2026-04-30T10:11:34.225Z</time></trkpt><trkpt lat="39.49255926559617" lon="9.293055222728876"><ele>402.66666666666663</ele><time>2026-04-30T10:11:35.225Z</time></trkpt><trkpt lat="39.49263901001993" lon="9.2928152908542"><ele>400.3333333333333</ele><time>2026-04-30T10:11:36.225Z</time></trkpt><trkpt lat="39.4927842133708" lon="9.292588957367258"><ele>398.0</ele><time>2026-04-30T10:11:37.225Z</time></trkpt><trkpt lat="39.492982200510255" lon="9.292345710357187"><ele>402.5</ele><time>2026-04-30T10:11:38.225Z</time></trkpt><trkpt lat="39.493230408561324" lon="9.292103929186087"><ele>407.0</ele><time>2026-04-30T10:11:39.225Z</time></trkpt><trkpt lat="39.493490305263315" lon="9.291870350530898"><ele>407.0</ele><time>2026-04-30T10:11:40.225Z</time></trkpt><trkpt lat="39.4937097344268" lon="9.291705627282722"><ele>407.0</ele><time>2026-04-30T10:11:41.225Z</time></trkpt><trkpt lat="39.49388785863026" lon="9.291596069914652"><ele>410.5</ele><time>2026-04-30T10:11:42.225Z</time></trkpt><trkpt lat="39.49402909734577" lon="9.291534864636175"><ele>414.0</ele><time>2026-04-30T10:11:43.225Z</time></trkpt><trkpt lat="39.49411483797177" lon="9.291430830321437"><ele>417.5</ele><time>2026-04-30T10:11:44.225Z</time></trkpt><trkpt lat="39.49413615033046" lon="9.291271440025776"><ele>421.0</ele><time>2026-04-30T10:11:45.225Z</time></trkpt><trkpt lat="39.49401538625731" lon="9.291161853550435"><ele>421.6666666666667</ele><time>2026-04-30T10:11:46.225Z</time></trkpt><trkpt lat="39.493858602514635" lon="9.29109950922192"><ele>422.33333333333337</ele><time>2026-04-30T10:11:47.225Z</time></trkpt><trkpt lat="39.49358246950597" lon="9.291077401204348"><ele>423.0</ele><time>2026-04-30T10:11:48.225Z</time></trkpt><trkpt lat="39.49327881317749" lon="9.291044690998923"><ele>424.0</ele><time>2026-04-30T10:11:49.225Z</time></trkpt><trkpt lat="39.49301228399237" lon="9.290991342052592"><ele>425.0</ele><time>2026-04-30T10:11:50.225Z</time></trkpt><trkpt lat="39.492757229675846" lon="9.290951611259981"><ele>422.66666666666663</ele><time>2026-04-30T10:11:51.225Z</time></trkpt><trkpt lat="39.49256617657621" lon="9.29082878901563"><ele>420.33333333333337</ele><time>2026-04-30T10:11:52.225Z</time></trkpt><trkpt lat="39.49237906961487" lon="9.29065716490755"><ele>418.0</ele><time>2026-04-30T10:11:53.225Z</time></trkpt><trkpt lat="39.492257093827746" lon="9.290377639565955"><ele>424.0</ele><time>2026-04-30T10:11:54.225Z</time></trkpt><trkpt lat="39.492145010244734" lon="9.290022995889972"><ele>430.0</ele><time>2026-04-30T10:11:55.225Z</time></trkpt><trkpt lat="39.492085941160994" lon="9.28963948558971"><ele>430.0</ele><time>2026-04-30T10:11:56.225Z</time></trkpt><trkpt lat="39.49206743430036" lon="9.28930862020931"><ele>430.0</ele><time>2026-04-30T10:11:57.225Z</time></trkpt><trkpt lat="39.492062195753434" lon="9.289039591786842"><ele>434.25</ele><time>2026-04-30T10:11:58.225Z</time></trkpt><trkpt lat="39.492053355935305" lon="9.28886582473709"><ele>438.5</ele><time>2026-04-30T10:11:59.225Z</time></trkpt><trkpt lat="39.49196031869638" lon="9.288753356595612"><ele>442.75</ele><time>2026-04-30T10:12:00.225Z</time></trkpt><trkpt lat="39.491803540986375" lon="9.288735508532477"><ele>447.0</ele><time>2026-04-30T10:12:01.225Z</time></trkpt><trkpt lat="39.49163647717975" lon="9.288845065566813"><ele>438.5</ele><time>2026-04-30T10:12:02.225Z</time></trkpt><trkpt lat="39.49147860707678" lon="9.289078182018557"><ele>430.0</ele><time>2026-04-30T10:12:03.225Z</time></trkpt><trkpt lat="39.49131857976491" lon="9.289354173822728"><ele>433.6666666666667</ele><time>2026-04-30T10:12:04.225Z</time></trkpt><trkpt lat="39.491145139594146" lon="9.289596914057995"><ele>437.33333333333337</ele><time>2026-04-30T10:12:05.225Z</time></trkpt><trkpt lat="39.49099961451206" lon="9.289722676129458"><ele>441.0</ele><time>2026-04-30T10:12:06.225Z</time></trkpt><trkpt lat="39.49083955700974" lon="9.28974470401227"><ele>441.0</ele><time>2026-04-30T10:12:07.225Z</time></trkpt><trkpt lat="39.49063573222058" lon="9.289635009270919"><ele>441.0</ele><time>2026-04-30T10:12:08.225Z</time></trkpt><trkpt lat="39.49043015391092" lon="9.289432731032935"><ele>436.5</ele><time>2026-04-30T10:12:09.225Z</time></trkpt><trkpt lat="39.49025328680541" lon="9.289182466614172"><ele>432.0</ele><time>2026-04-30T10:12:10.225Z</time></trkpt><trkpt lat="39.490132651581426" lon="9.288864733724486"><ele>442.0</ele><time>2026-04-30T10:12:11.225Z</time></trkpt><trkpt lat="39.490002918637" lon="9.288592474399238"><ele>452.0</ele><time>2026-04-30T10:12:12.225Z</time></trkpt><trkpt lat="39.489786602301486" lon="9.288439322415064"><ele>447.66666666666663</ele><time>2026-04-30T10:12:13.225Z</time></trkpt><trkpt lat="39.48955481827296" lon="9.288340696976011"><ele>443.33333333333337</ele><time>2026-04-30T10:12:14.225Z</time></trkpt><trkpt lat="39.48939265159092" lon="9.288190831706737"><ele>439.0</ele><time>2026-04-30T10:12:15.225Z</time></trkpt><trkpt lat="39.48930883005928" lon="9.2879670954464"><ele>439.0</ele><time>2026-04-30T10:12:16.225Z</time></trkpt><trkpt lat="39.48931363511138" lon="9.287656156629682"><ele>439.0</ele><time>2026-04-30T10:12:17.225Z</time></trkpt><trkpt lat="39.48938031130191" lon="9.287286268509659"><ele>440.5</ele><time>2026-04-30T10:12:18.225Z</time></trkpt><trkpt lat="39.48948125248646" lon="9.286891695123929"><ele>442.0</ele><time>2026-04-30T10:12:19.225Z</time></trkpt><trkpt lat="39.48956484521405" lon="9.286494681497526"><ele>444.5</ele><time>2026-04-30T10:12:20.225Z</time></trkpt><trkpt lat="39.48957104895082" lon="9.286087065264256"><ele>447.0</ele><time>2026-04-30T10:12:21.225Z</time></trkpt><trkpt lat="39.48951894745556" lon="9.285727852149588"><ele>450.0</ele><time>2026-04-30T10:12:22.225Z</time></trkpt><trkpt lat="39.489507305778716" lon="9.28543170244842"><ele>453.0</ele><time>2026-04-30T10:12:23.225Z</time></trkpt><trkpt lat="39.489564446069686" lon="9.285121074061312"><ele>459.0</ele><time>2026-04-30T10:12:24.225Z</time></trkpt><trkpt lat="39.489697290522514" lon="9.284807643934474"><ele>465.0</ele><time>2026-04-30T10:12:25.225Z</time></trkpt><trkpt lat="39.48982190591884" lon="9.284561882508818"><ele>465.5</ele><time>2026-04-30T10:12:26.225Z</time></trkpt><trkpt lat="39.489895225813505" lon="9.284397645163686"><ele>466.0</ele><time>2026-04-30T10:12:27.225Z</time></trkpt><trkpt lat="39.48990246825356" lon="9.28424028094867"><ele>466.5</ele><time>2026-04-30T10:12:28.225Z</time></trkpt><trkpt lat="39.4898021795583" lon="9.284131323288554"><ele>467.0</ele><time>2026-04-30T10:12:29.225Z</time></trkpt><trkpt lat="39.489643884724266" lon="9.284089951425159"><ele>467.66666666666663</ele><time>2026-04-30T10:12:30.225Z</time></trkpt><trkpt lat="39.489454606774025" lon="9.284134017449952"><ele>468.33333333333337</ele><time>2026-04-30T10:12:31.225Z</time></trkpt><trkpt lat="39.489228453551284" lon="9.284287657231806"><ele>469.0</ele><time>2026-04-30T10:12:32.225Z</time></trkpt><trkpt lat="39.48899192825881" lon="9.284502001855428"><ele>470.0</ele><time>2026-04-30T10:12:33.225Z</time></trkpt><trkpt lat="39.48874951942834" lon="9.28475619800987"><ele>471.0</ele><time>2026-04-30T10:12:34.225Z</time></trkpt><trkpt lat="39.48855259480261" lon="9.284972374732245"><ele>471.0</ele><time>2026-04-30T10:12:35.225Z</time></trkpt><trkpt lat="39.488416547344066" lon="9.285179368912683"><ele>471.0</ele><time>2026-04-30T10:12:36.225Z</time></trkpt><trkpt lat="39.48831525419918" lon="9.28551119395086"><ele>467.5</ele><time>2026-04-30T10:12:37.225Z</time></trkpt><trkpt lat="39.488250355524706" lon="9.28589088500408"><ele>464.0</ele><time>2026-04-30T10:12:38.226Z</time></trkpt><trkpt lat="39.48819310979877" lon="9.286194649098555"><ele>464.0</ele><time>2026-04-30T10:12:39.226Z</time></trkpt><trkpt lat="39.48809311540016" lon="9.286406272524376"><ele>464.0</ele><time>2026-04-30T10:12:40.226Z</time></trkpt><trkpt lat="39.48791987749729" lon="9.286581568279836"><ele>464.0</ele><time>2026-04-30T10:12:41.226Z</time></trkpt><trkpt lat="39.48770364667104" lon="9.286714988701403"><ele>466.0</ele><time>2026-04-30T10:12:42.226Z</time></trkpt><trkpt lat="39.48749858886519" lon="9.28677110836967"><ele>468.0</ele><time>2026-04-30T10:12:43.226Z</time></trkpt><trkpt lat="39.48733489569354" lon="9.286740178885024"><ele>470.0</ele><time>2026-04-30T10:12:44.227Z</time></trkpt><trkpt lat="39.48718960329175" lon="9.286591419402724"><ele>465.3333333333333</ele><time>2026-04-30T10:12:45.226Z</time></trkpt><trkpt lat="39.48706821486001" lon="9.286378237803852"><ele>460.66666666666663</ele><time>2026-04-30T10:12:46.226Z</time></trkpt><trkpt lat="39.487003280126316" lon="9.286154811336667"><ele>456.0</ele><time>2026-04-30T10:12:47.227Z</time></trkpt><trkpt lat="39.48703437473561" lon="9.285877976292769"><ele>468.0</ele><time>2026-04-30T10:12:48.226Z</time></trkpt><trkpt lat="39.487103718640505" lon="9.285544300069498"><ele>480.0</ele><time>2026-04-30T10:12:49.226Z</time></trkpt><trkpt lat="39.48717392570116" lon="9.285170516911393"><ele>480.0</ele><time>2026-04-30T10:12:50.226Z</time></trkpt><trkpt lat="39.48718394559537" lon="9.284781674731779"><ele>480.0</ele><time>2026-04-30T10:12:51.226Z</time></trkpt><trkpt lat="39.48711376765112" lon="9.284399501437479"><ele>468.0</ele><time>2026-04-30T10:12:52.226Z</time></trkpt><trkpt lat="39.487026392233965" lon="9.284044894609165"><ele>456.0</ele><time>2026-04-30T10:12:53.226Z</time></trkpt><trkpt lat="39.48699365424205" lon="9.283685543679066"><ele>455.0</ele><time>2026-04-30T10:12:54.226Z</time></trkpt><trkpt lat="39.48700175724566" lon="9.283356102982019"><ele>454.0</ele><time>2026-04-30T10:12:55.226Z</time></trkpt><trkpt lat="39.48699714017952" lon="9.28310056867364"><ele>449.0</ele><time>2026-04-30T10:12:56.226Z</time></trkpt><trkpt lat="39.48698665386411" lon="9.282885959466256"><ele>444.0</ele><time>2026-04-30T10:12:57.226Z</time></trkpt><trkpt lat="39.48705645982079" lon="9.282687394680947"><ele>439.0</ele><time>2026-04-30T10:12:58.226Z</time></trkpt><trkpt lat="39.48722555704804" lon="9.282501279702606"><ele>446.0</ele><time>2026-04-30T10:12:59.226Z</time></trkpt><trkpt lat="39.48745876442323" lon="9.282321212485128"><ele>453.0</ele><time>2026-04-30T10:13:00.226Z</time></trkpt><trkpt lat="39.48764672130556" lon="9.282026459097914"><ele>453.0</ele><time>2026-04-30T10:13:01.226Z</time></trkpt><trkpt lat="39.48782876086129" lon="9.281674811546644"><ele>453.0</ele><time>2026-04-30T10:13:02.226Z</time></trkpt><trkpt lat="39.488040407833964" lon="9.28134430943299"><ele>461.5</ele><time>2026-04-30T10:13:03.226Z</time></trkpt><trkpt lat="39.48822830002079" lon="9.281074647991764"><ele>470.0</ele><time>2026-04-30T10:13:04.226Z</time></trkpt><trkpt lat="39.48837306070428" lon="9.280871727318129"><ele>470.0</ele><time>2026-04-30T10:13:05.226Z</time></trkpt><trkpt lat="39.48846950983557" lon="9.28069840077712"><ele>470.0</ele><time>2026-04-30T10:13:06.226Z</time></trkpt><trkpt lat="39.488511041638375" lon="9.280427267136158"><ele>470.0</ele><time>2026-04-30T10:13:07.226Z</time></trkpt><trkpt lat="39.488496922460385" lon="9.280062527769449"><ele>471.0</ele><time>2026-04-30T10:13:08.226Z</time></trkpt><trkpt lat="39.4884451485343" lon="9.27975425760933"><ele>472.0</ele><time>2026-04-30T10:13:09.226Z</time></trkpt><trkpt lat="39.48836047353957" lon="9.279498613564435"><ele>472.0</ele><time>2026-04-30T10:13:10.226Z</time></trkpt><trkpt lat="39.488200406342706" lon="9.279287618654482"><ele>472.0</ele><time>2026-04-30T10:13:11.226Z</time></trkpt><trkpt lat="39.48806934689446" lon="9.279113447689168"><ele>472.0</ele><time>2026-04-30T10:13:12.226Z</time></trkpt><trkpt lat="39.48804664951951" lon="9.278924781419812"><ele>472.75</ele><time>2026-04-30T10:13:13.226Z</time></trkpt><trkpt lat="39.488051680644105" lon="9.278734490428308"><ele>473.5</ele><time>2026-04-30T10:13:14.226Z</time></trkpt><trkpt lat="39.488012479427766" lon="9.278596254849987"><ele>474.25</ele><time>2026-04-30T10:13:15.226Z</time></trkpt><trkpt lat="39.487888372211636" lon="9.278591309222895"><ele>475.0</ele><time>2026-04-30T10:13:16.226Z</time></trkpt><trkpt lat="39.487700644649884" lon="9.27869984737808"><ele>473.0</ele><time>2026-04-30T10:13:17.226Z</time></trkpt><trkpt lat="39.487510768805336" lon="9.278886561857613"><ele>471.0</ele><time>2026-04-30T10:13:18.226Z</time></trkpt><trkpt lat="39.48738708223565" lon="9.279116903282322"><ele>471.0</ele><time>2026-04-30T10:13:19.226Z</time></trkpt><trkpt lat="39.487342946989145" lon="9.279383180578554"><ele>471.0</ele><time>2026-04-30T10:13:20.226Z</time></trkpt><trkpt lat="39.48739797611218" lon="9.279626550053443"><ele>471.0</ele><time>2026-04-30T10:13:21.226Z</time></trkpt><trkpt lat="39.487404842037684" lon="9.279822188386726"><ele>467.66666666666663</ele><time>2026-04-30T10:13:22.226Z</time></trkpt><trkpt lat="39.48732394095393" lon="9.279964318420406"><ele>464.3333333333333</ele><time>2026-04-30T10:13:23.226Z</time></trkpt><trkpt lat="39.487157685215365" lon="9.280027103831902"><ele>461.0</ele><time>2026-04-30T10:13:24.226Z</time></trkpt><trkpt lat="39.48694025128866" lon="9.27995623906123"><ele>461.0</ele><time>2026-04-30T10:13:25.226Z</time></trkpt><trkpt lat="39.486755218983966" lon="9.279801199781812"><ele>461.0</ele><time>2026-04-30T10:13:26.226Z</time></trkpt><trkpt lat="39.48662393498016" lon="9.27958131170758"><ele>461.0</ele><time>2026-04-30T10:13:27.226Z</time></trkpt><trkpt lat="39.48660169427489" lon="9.279348377674244"><ele>464.3333333333333</ele><time>2026-04-30T10:13:28.226Z</time></trkpt><trkpt lat="39.48666480150631" lon="9.27910854919859"><ele>467.66666666666663</ele><time>2026-04-30T10:13:29.226Z</time></trkpt><trkpt lat="39.486703332120356" lon="9.278831813297801"><ele>471.0</ele><time>2026-04-30T10:13:30.226Z</time></trkpt><trkpt lat="39.4866883183232" lon="9.278492761344078"><ele>477.0</ele><time>2026-04-30T10:13:31.226Z</time></trkpt><trkpt lat="39.48661871705738" lon="9.278186469773429"><ele>483.0</ele><time>2026-04-30T10:13:32.226Z</time></trkpt><trkpt lat="39.486502630847376" lon="9.277954392514106"><ele>477.0</ele><time>2026-04-30T10:13:33.226Z</time></trkpt><trkpt lat="39.48631039032102" lon="9.27774133867305"><ele>471.0</ele><time>2026-04-30T10:13:34.226Z</time></trkpt><trkpt lat="39.48611207074984" lon="9.277525824190327"><ele>471.0</ele><time>2026-04-30T10:13:35.226Z</time></trkpt><trkpt lat="39.48600531274091" lon="9.277313555851796"><ele>471.0</ele><time>2026-04-30T10:13:36.226Z</time></trkpt><trkpt lat="39.48600155466779" lon="9.277041907165918"><ele>471.0</ele><time>2026-04-30T10:13:37.226Z</time></trkpt><trkpt lat="39.48604533569508" lon="9.276717615115807"><ele>473.66666666666663</ele><time>2026-04-30T10:13:38.226Z</time></trkpt><trkpt lat="39.48606122987279" lon="9.276419231800013"><ele>476.3333333333333</ele><time>2026-04-30T10:13:39.226Z</time></trkpt><trkpt lat="39.486035367335525" lon="9.276153923748577"><ele>479.0</ele><time>2026-04-30T10:13:40.226Z</time></trkpt><trkpt lat="39.486021735997525" lon="9.275938997498391"><ele>479.0</ele><time>2026-04-30T10:13:41.226Z</time></trkpt><trkpt lat="39.48607769892326" lon="9.275737773859934"><ele>479.0</ele><time>2026-04-30T10:13:42.226Z</time></trkpt><trkpt lat="39.4862268629568" lon="9.275475734837432"><ele>479.0</ele><time>2026-04-30T10:13:43.226Z</time></trkpt><trkpt lat="39.48646199792363" lon="9.275203715200497"><ele>487.5</ele><time>2026-04-30T10:13:44.226Z</time></trkpt><trkpt lat="39.486681509253756" lon="9.274947799623716"><ele>496.0</ele><time>2026-04-30T10:13:45.226Z</time></trkpt><trkpt lat="39.4868069384961" lon="9.274688013070607"><ele>496.0</ele><time>2026-04-30T10:13:46.226Z</time></trkpt><trkpt lat="39.48686739942924" lon="9.274350084110477"><ele>496.0</ele><time>2026-04-30T10:13:47.226Z</time></trkpt><trkpt lat="39.48689018753075" lon="9.27401138509399"><ele>497.6666666666667</ele><time>2026-04-30T10:13:48.226Z</time></trkpt><trkpt lat="39.48688280337322" lon="9.27377507746933"><ele>499.33333333333337</ele><time>2026-04-30T10:13:49.226Z</time></trkpt><trkpt lat="39.486783054667164" lon="9.273563657393272"><ele>501.0</ele><time>2026-04-30T10:13:50.226Z</time></trkpt><trkpt lat="39.486646402226526" lon="9.273352079102482"><ele>501.0</ele><time>2026-04-30T10:13:51.226Z</time></trkpt><trkpt lat="39.486622919868076" lon="9.27312097017377"><ele>501.0</ele><time>2026-04-30T10:13:52.226Z</time></trkpt><trkpt lat="39.48669459050695" lon="9.272865794557369"><ele>501.0</ele><time>2026-04-30T10:13:53.226Z</time></trkpt><trkpt lat="39.486841448976755" lon="9.272545028705872"><ele>495.0</ele><time>2026-04-30T10:13:54.226Z</time></trkpt><trkpt lat="39.4870258401785" lon="9.272172489704031"><ele>489.0</ele><time>2026-04-30T10:13:55.226Z</time></trkpt><trkpt lat="39.487216791117824" lon="9.271781907081326"><ele>502.0</ele><time>2026-04-30T10:13:56.226Z</time></trkpt><trkpt lat="39.487381655747356" lon="9.271477736428132"><ele>515.0</ele><time>2026-04-30T10:13:57.226Z</time></trkpt><trkpt lat="39.48749353002157" lon="9.271222791260406"><ele>515.0</ele><time>2026-04-30T10:13:58.226Z</time></trkpt><trkpt lat="39.48756716670813" lon="9.270941887108638"><ele>515.0</ele><time>2026-04-30T10:13:59.226Z</time></trkpt><trkpt lat="39.48753937844767" lon="9.27055069975639"><ele>514.0</ele><time>2026-04-30T10:14:00.226Z</time></trkpt><trkpt lat="39.48749349632132" lon="9.270193799453994"><ele>513.0</ele><time>2026-04-30T10:14:01.226Z</time></trkpt><trkpt lat="39.487528713749114" lon="9.26987272252832"><ele>509.0</ele><time>2026-04-30T10:14:02.226Z</time></trkpt><trkpt lat="39.48766775188964" lon="9.269546580367287"><ele>505.0</ele><time>2026-04-30T10:14:03.226Z</time></trkpt><trkpt lat="39.487883244802006" lon="9.26921891525695"><ele>514.5</ele><time>2026-04-30T10:14:04.226Z</time></trkpt><trkpt lat="39.48815002944211" lon="9.268909457466206"><ele>524.0</ele><time>2026-04-30T10:14:05.226Z</time></trkpt><trkpt lat="39.48836743742629" lon="9.268627588677523"><ele>524.0</ele><time>2026-04-30T10:14:06.226Z</time></trkpt><trkpt lat="39.48852064613085" lon="9.268401361100453"><ele>524.0</ele><time>2026-04-30T10:14:07.226Z</time></trkpt><trkpt lat="39.48862509052918" lon="9.268222810681198"><ele>524.0</ele><time>2026-04-30T10:14:08.226Z</time></trkpt><trkpt lat="39.4886821527443" lon="9.26804407290504"><ele>528.0</ele><time>2026-04-30T10:14:09.226Z</time></trkpt><trkpt lat="39.48864112147885" lon="9.267741345489432"><ele>532.0</ele><time>2026-04-30T10:14:10.226Z</time></trkpt><trkpt lat="39.488563280054905" lon="9.26739452298936"><ele>536.0</ele><time>2026-04-30T10:14:11.226Z</time></trkpt><trkpt lat="39.48855087158363" lon="9.267091763204768"><ele>540.0</ele><time>2026-04-30T10:14:12.226Z</time></trkpt><trkpt lat="39.48856198348097" lon="9.266901199500483"><ele>544.0</ele><time>2026-04-30T10:14:13.226Z</time></trkpt><trkpt lat="39.488563247657254" lon="9.266793893383024"><ele>544.0</ele><time>2026-04-30T10:14:14.226Z</time></trkpt><trkpt lat="39.48849909602217" lon="9.266732920496938"><ele>544.0</ele><time>2026-04-30T10:14:15.226Z</time></trkpt><trkpt lat="39.488389089195124" lon="9.266758312958867"><ele>544.0</ele><time>2026-04-30T10:14:16.226Z</time></trkpt><trkpt lat="39.488255157691334" lon="9.266930729078005"><ele>544.0</ele><time>2026-04-30T10:14:17.226Z</time></trkpt><trkpt lat="39.488183311288125" lon="9.267182563051646"><ele>542.3333333333334</ele><time>2026-04-30T10:14:18.226Z</time></trkpt><trkpt lat="39.48804632298529" lon="9.267380993484025"><ele>540.6666666666666</ele><time>2026-04-30T10:14:19.226Z</time></trkpt><trkpt lat="39.48785215080135" lon="9.267511671669475"><ele>539.0</ele><time>2026-04-30T10:14:20.226Z</time></trkpt><trkpt lat="39.487618899278026" lon="9.267618825291281"><ele>539.0</ele><time>2026-04-30T10:14:21.226Z</time></trkpt><trkpt lat="39.487448940344656" lon="9.267645949773417"><ele>539.0</ele><time>2026-04-30T10:14:22.226Z</time></trkpt><trkpt lat="39.48731115469602" lon="9.267660736390495"><ele>539.0</ele><time>2026-04-30T10:14:23.226Z</time></trkpt><trkpt lat="39.48717877795224" lon="9.267612996036132"><ele>539.0</ele><time>2026-04-30T10:14:24.226Z</time></trkpt><trkpt lat="39.487081875437084" lon="9.267498320014296"><ele>536.3333333333333</ele><time>2026-04-30T10:14:25.226Z</time></trkpt><trkpt lat="39.48703420516792" lon="9.267299076946511"><ele>533.6666666666666</ele><time>2026-04-30T10:14:26.226Z</time></trkpt><trkpt lat="39.48705699004958" lon="9.267023128339394"><ele>531.0</ele><time>2026-04-30T10:14:27.227Z</time></trkpt><trkpt lat="39.48706224978243" lon="9.266740694354397"><ele>531.0</ele><time>2026-04-30T10:14:28.227Z</time></trkpt><trkpt lat="39.48698382521163" lon="9.26649462849625"><ele>531.0</ele><time>2026-04-30T10:14:29.227Z</time></trkpt><trkpt lat="39.48684039610761" lon="9.266267618866774"><ele>531.0</ele><time>2026-04-30T10:14:30.227Z</time></trkpt><trkpt lat="39.48674416523063" lon="9.265993028910628"><ele>536.0</ele><time>2026-04-30T10:14:31.227Z</time></trkpt><trkpt lat="39.486728024970716" lon="9.265691752296211"><ele>541.0</ele><time>2026-04-30T10:14:32.227Z</time></trkpt><trkpt lat="39.48676482173309" lon="9.265378063633056"><ele>541.0</ele><time>2026-04-30T10:14:33.227Z</time></trkpt><trkpt lat="39.48682391752184" lon="9.265110218732662"><ele>541.0</ele><time>2026-04-30T10:14:34.227Z</time></trkpt><trkpt lat="39.486906497281424" lon="9.264900004512622"><ele>541.0</ele><time>2026-04-30T10:14:35.227Z</time></trkpt><trkpt lat="39.48708029435097" lon="9.264721199343851"><ele>548.0</ele><time>2026-04-30T10:14:36.227Z</time></trkpt><trkpt lat="39.48730393732702" lon="9.264523369073508"><ele>555.0</ele><time>2026-04-30T10:14:37.227Z</time></trkpt><trkpt lat="39.48748871496155" lon="9.264290680300428"><ele>555.0</ele><time>2026-04-30T10:14:38.227Z</time></trkpt><trkpt lat="39.487614856130136" lon="9.264074271287921"><ele>555.0</ele><time>2026-04-30T10:14:39.227Z</time></trkpt><trkpt lat="39.487699211990325" lon="9.263815725890854"><ele>555.0</ele><time>2026-04-30T10:14:40.227Z</time></trkpt><trkpt lat="39.487733098599804" lon="9.263510192265546"><ele>554.0</ele><time>2026-04-30T10:14:41.227Z</time></trkpt><trkpt lat="39.48771153934663" lon="9.263173592328773"><ele>553.0</ele><time>2026-04-30T10:14:42.227Z</time></trkpt><trkpt lat="39.48766273429619" lon="9.26286949530562"><ele>556.0</ele><time>2026-04-30T10:14:43.227Z</time></trkpt><trkpt lat="39.48762324251993" lon="9.262601352216093"><ele>559.0</ele><time>2026-04-30T10:14:44.228Z</time></trkpt><trkpt lat="39.48755199903079" lon="9.262354146589068"><ele>562.0</ele><time>2026-04-30T10:14:45.228Z</time></trkpt><trkpt lat="39.48743146259792" lon="9.262143087388628"><ele>564.6666666666667</ele><time>2026-04-30T10:14:46.228Z</time></trkpt><trkpt lat="39.487298050621945" lon="9.261979724282792"><ele>567.3333333333334</ele><time>2026-04-30T10:14:47.229Z</time></trkpt><trkpt lat="39.487221443486284" lon="9.261824284392805"><ele>570.0</ele><time>2026-04-30T10:14:48.228Z</time></trkpt><trkpt lat="39.48724545435143" lon="9.261628037961982"><ele>570.5</ele><time>2026-04-30T10:14:49.228Z</time></trkpt><trkpt lat="39.48735161503944" lon="9.261392909271244"><ele>571.0</ele><time>2026-04-30T10:14:50.228Z</time></trkpt><trkpt lat="39.48749290503564" lon="9.261124646383196"><ele>571.0</ele><time>2026-04-30T10:14:51.228Z</time></trkpt><trkpt lat="39.487554121323505" lon="9.260818184857415"><ele>571.0</ele><time>2026-04-30T10:14:52.228Z</time></trkpt><trkpt lat="39.48755072328818" lon="9.2604316573658"><ele>572.5</ele><time>2026-04-30T10:14:53.228Z</time></trkpt><trkpt lat="39.48750382588252" lon="9.260021237362444"><ele>574.0</ele><time>2026-04-30T10:14:54.228Z</time></trkpt><trkpt lat="39.48751787706102" lon="9.259601962747281"><ele>574.5</ele><time>2026-04-30T10:14:55.228Z</time></trkpt><trkpt lat="39.487601547925706" lon="9.259170505442896"><ele>575.0</ele><time>2026-04-30T10:14:56.228Z</time></trkpt><trkpt lat="39.487700120242835" lon="9.258802065932711"><ele>575.0</ele><time>2026-04-30T10:14:57.228Z</time></trkpt><trkpt lat="39.48778771532968" lon="9.258512118170737"><ele>575.0</ele><time>2026-04-30T10:14:58.228Z</time></trkpt><trkpt lat="39.487890433409106" lon="9.258266939035995"><ele>579.6666666666666</ele><time>2026-04-30T10:14:59.228Z</time></trkpt><trkpt lat="39.488044279973415" lon="9.258093789651818"><ele>584.3333333333334</ele><time>2026-04-30T10:15:00.228Z</time></trkpt><trkpt lat="39.48819104109453" lon="9.257954518840743"><ele>589.0</ele><time>2026-04-30T10:15:01.228Z</time></trkpt><trkpt lat="39.48828675895427" lon="9.257796866847515"><ele>589.0</ele><time>2026-04-30T10:15:02.228Z</time></trkpt><trkpt lat="39.48826013121035" lon="9.257562921077339"><ele>589.0</ele><time>2026-04-30T10:15:03.228Z</time></trkpt><trkpt lat="39.488140843846" lon="9.257348007863778"><ele>589.0</ele><time>2026-04-30T10:15:04.228Z</time></trkpt><trkpt lat="39.487958579071645" lon="9.257166862272273"><ele>596.5</ele><time>2026-04-30T10:15:05.228Z</time></trkpt><trkpt lat="39.48772152561894" lon="9.257050135873275"><ele>604.0</ele><time>2026-04-30T10:15:06.228Z</time></trkpt><trkpt lat="39.487464276109925" lon="9.257036825816783"><ele>604.0</ele><time>2026-04-30T10:15:07.228Z</time></trkpt><trkpt lat="39.487250849962166" lon="9.257063732018654"><ele>604.0</ele><time>2026-04-30T10:15:08.228Z</time></trkpt><trkpt lat="39.487073869423725" lon="9.257000074641184"><ele>604.0</ele><time>2026-04-30T10:15:09.228Z</time></trkpt><trkpt lat="39.48689537234709" lon="9.256844453799884"><ele>601.5</ele><time>2026-04-30T10:15:10.228Z</time></trkpt><trkpt lat="39.48678824449725" lon="9.256580979289847"><ele>599.0</ele><time>2026-04-30T10:15:11.228Z</time></trkpt><trkpt lat="39.486749261602135" lon="9.256249349974961"><ele>599.0</ele><time>2026-04-30T10:15:12.228Z</time></trkpt><trkpt lat="39.486696600117575" lon="9.255916995080955"><ele>599.0</ele><time>2026-04-30T10:15:13.228Z</time></trkpt><trkpt lat="39.486584217090396" lon="9.255624826563674"><ele>604.5</ele><time>2026-04-30T10:15:14.228Z</time></trkpt><trkpt lat="39.48647032914711" lon="9.255373097709526"><ele>610.0</ele><time>2026-04-30T10:15:15.228Z</time></trkpt><trkpt lat="39.486447492431324" lon="9.255025985739717"><ele>611.0</ele><time>2026-04-30T10:15:16.228Z</time></trkpt><trkpt lat="39.48642487878004" lon="9.254689026459836"><ele>612.0</ele><time>2026-04-30T10:15:17.228Z</time></trkpt><trkpt lat="39.48644403890594" lon="9.25436954260066"><ele>612.0</ele><time>2026-04-30T10:15:18.228Z</time></trkpt><trkpt lat="39.48652041952807" lon="9.25409807954897"><ele>612.0</ele><time>2026-04-30T10:15:19.228Z</time></trkpt><trkpt lat="39.48658155697443" lon="9.25388902819883"><ele>612.0</ele><time>2026-04-30T10:15:20.228Z</time></trkpt><trkpt lat="39.48659275245245" lon="9.253708800954213"><ele>613.3333333333334</ele><time>2026-04-30T10:15:21.228Z</time></trkpt><trkpt lat="39.4865075934953" lon="9.253554554988984"><ele>614.6666666666667</ele><time>2026-04-30T10:15:22.228Z</time></trkpt><trkpt lat="39.48636377046098" lon="9.253395933742437"><ele>616.0</ele><time>2026-04-30T10:15:23.228Z</time></trkpt><trkpt lat="39.486300728841854" lon="9.253201843325241"><ele>616.6666666666667</ele><time>2026-04-30T10:15:24.228Z</time></trkpt><trkpt lat="39.48633049169444" lon="9.252952615360092"><ele>617.3333333333334</ele><time>2026-04-30T10:15:25.228Z</time></trkpt><trkpt lat="39.486405676657974" lon="9.252648314399226"><ele>618.0</ele><time>2026-04-30T10:15:26.228Z</time></trkpt><trkpt lat="39.4864854372624" lon="9.252295834404244"><ele>619.0</ele><time>2026-04-30T10:15:27.228Z</time></trkpt><trkpt lat="39.4865166686177" lon="9.251895228045587"><ele>620.0</ele><time>2026-04-30T10:15:28.228Z</time></trkpt><trkpt lat="39.48652231013015" lon="9.251457375011595"><ele>621.0</ele><time>2026-04-30T10:15:29.228Z</time></trkpt><trkpt lat="39.48653321004846" lon="9.251071193636664"><ele>622.0</ele><time>2026-04-30T10:15:30.228Z</time></trkpt><trkpt lat="39.48654109421107" lon="9.250778918180748"><ele>623.0</ele><time>2026-04-30T10:15:31.228Z</time></trkpt><trkpt lat="39.48653439849571" lon="9.25052437710912"><ele>624.0</ele><time>2026-04-30T10:15:32.228Z</time></trkpt><trkpt lat="39.48645506200214" lon="9.250300812602676"><ele>625.0</ele><time>2026-04-30T10:15:33.228Z</time></trkpt><trkpt lat="39.48631930276336" lon="9.2501010202144"><ele>624.0</ele><time>2026-04-30T10:15:34.228Z</time></trkpt><trkpt lat="39.48612631911874" lon="9.24997269481921"><ele>623.0</ele><time>2026-04-30T10:15:35.228Z</time></trkpt><trkpt lat="39.485941490256714" lon="9.249860264905024"><ele>622.0</ele><time>2026-04-30T10:15:36.228Z</time></trkpt><trkpt lat="39.48583337491295" lon="9.249628393098165"><ele>622.0</ele><time>2026-04-30T10:15:37.228Z</time></trkpt><trkpt lat="39.48577378420784" lon="9.249280568409885"><ele>622.0</ele><time>2026-04-30T10:15:38.228Z</time></trkpt><trkpt lat="39.485737965714314" lon="9.248860725100714"><ele>623.0</ele><time>2026-04-30T10:15:39.228Z</time></trkpt><trkpt lat="39.4856736935543" lon="9.248467708296621"><ele>624.0</ele><time>2026-04-30T10:15:40.228Z</time></trkpt><trkpt lat="39.485599303693625" lon="9.24815058981255"><ele>623.6666666666666</ele><time>2026-04-30T10:15:41.228Z</time></trkpt><trkpt lat="39.48551136412133" lon="9.247886824911214"><ele>623.3333333333333</ele><time>2026-04-30T10:15:42.228Z</time></trkpt><trkpt lat="39.48540639498185" lon="9.247658467527078"><ele>623.0</ele><time>2026-04-30T10:15:43.228Z</time></trkpt><trkpt lat="39.485288280076176" lon="9.247467279572216"><ele>622.75</ele><time>2026-04-30T10:15:44.228Z</time></trkpt><trkpt lat="39.485182947520464" lon="9.247292256700652"><ele>622.5</ele><time>2026-04-30T10:15:45.228Z</time></trkpt><trkpt lat="39.48510311764842" lon="9.247153937795428"><ele>622.25</ele><time>2026-04-30T10:15:46.228Z</time></trkpt><trkpt lat="39.485056561252236" lon="9.247086900497385"><ele>622.0</ele><time>2026-04-30T10:15:47.228Z</time></trkpt><trkpt lat="39.48499929889839" lon="9.247014764318921"><ele>622.0</ele><time>2026-04-30T10:15:49.228Z</time></trkpt><trkpt lat="39.484928710585834" lon="9.24694719137807"><ele>622.0</ele><time>2026-04-30T10:18:26.231Z</time></trkpt><trkpt lat="39.48485953299271" lon="9.246849488503903"><ele>622.0</ele><time>2026-04-30T10:18:29.231Z</time></trkpt><trkpt lat="39.484806695138495" lon="9.246772182262104"><ele>622.0</ele><time>2026-04-30T10:18:31.231Z</time></trkpt><trkpt lat="39.484752640112696" lon="9.246687746412002"><ele>622.0</ele><time>2026-04-30T10:18:33.231Z</time></trkpt><trkpt lat="39.48469007010782" lon="9.246597939175267"><ele>622.0</ele><time>2026-04-30T10:18:35.231Z</time></trkpt><trkpt lat="39.48462465952571" lon="9.246499934799886"><ele>622.6</ele><time>2026-04-30T10:18:37.231Z</time></trkpt><trkpt lat="39.48456188463761" lon="9.246401502573617"><ele>623.2</ele><time>2026-04-30T10:18:39.231Z</time></trkpt><trkpt lat="39.48449788051479" lon="9.246304117655422"><ele>623.8</ele><time>2026-04-30T10:18:41.231Z</time></trkpt><trkpt lat="39.48442950243521" lon="9.246199687877414"><ele>624.4</ele><time>2026-04-30T10:18:43.231Z</time></trkpt><trkpt lat="39.484355155719896" lon="9.246093366098014"><ele>625.0</ele><time>2026-04-30T10:18:45.231Z</time></trkpt><trkpt lat="39.48428342576014" lon="9.245990994572937"><ele>625.0</ele><time>2026-04-30T10:18:47.231Z</time></trkpt><trkpt lat="39.48421669285777" lon="9.245879889378237"><ele>625.0</ele><time>2026-04-30T10:18:49.231Z</time></trkpt><trkpt lat="39.484159718434995" lon="9.24578330984916"><ele>625.0</ele><time>2026-04-30T10:18:51.231Z</time></trkpt><trkpt lat="39.48408816970066" lon="9.245680560009575"><ele>625.0</ele><time>2026-04-30T10:18:53.231Z</time></trkpt><trkpt lat="39.484042544609686" lon="9.245611756390058"><ele>625.0</ele><time>2026-04-30T10:18:54.231Z</time></trkpt><trkpt lat="39.483996836791945" lon="9.245542095256493"><ele>625.0</ele><time>2026-04-30T10:18:55.231Z</time></trkpt><trkpt lat="39.48395455297711" lon="9.245470791814842"><ele>625.0</ele><time>2026-04-30T10:18:56.232Z</time></trkpt><trkpt lat="39.48390892756407" lon="9.245401227446358"><ele>625.0</ele><time>2026-04-30T10:18:57.232Z</time></trkpt><trkpt lat="39.483864463356326" lon="9.245340158000316"><ele>625.0</ele><time>2026-04-30T10:18:58.232Z</time></trkpt><trkpt lat="39.48381906182595" lon="9.245275327468686"><ele>625.0</ele><time>2026-04-30T10:18:59.233Z</time></trkpt><trkpt lat="39.48377465753997" lon="9.245212490588221"><ele>625.0</ele><time>2026-04-30T10:19:00.232Z</time></trkpt><trkpt lat="39.48369463873929" lon="9.245090579838141"><ele>625.8</ele><time>2026-04-30T10:19:02.232Z</time></trkpt><trkpt lat="39.4836187903205" lon="9.244976936721924"><ele>626.6</ele><time>2026-04-30T10:19:04.232Z</time></trkpt><trkpt lat="39.483550423195155" lon="9.244852137292048"><ele>627.4</ele><time>2026-04-30T10:19:06.232Z</time></trkpt><trkpt lat="39.483486983652" lon="9.24471020618971"><ele>628.2</ele><time>2026-04-30T10:19:08.233Z</time></trkpt><trkpt lat="39.48345638689755" lon="9.244633471769305"><ele>629.0</ele><time>2026-04-30T10:19:09.232Z</time></trkpt><trkpt lat="39.48343053704254" lon="9.244549318697187"><ele>629.0</ele><time>2026-04-30T10:19:10.232Z</time></trkpt><trkpt lat="39.48341077847825" lon="9.244461573885808"><ele>629.0</ele><time>2026-04-30T10:19:11.232Z</time></trkpt><trkpt lat="39.483402599315895" lon="9.244372328880813"><ele>629.0</ele><time>2026-04-30T10:19:12.232Z</time></trkpt><trkpt lat="39.48339969716806" lon="9.24428569046373"><ele>629.0</ele><time>2026-04-30T10:19:13.232Z</time></trkpt><trkpt lat="39.48340630730423" lon="9.24419070577427"><ele>629.0</ele><time>2026-04-30T10:19:14.232Z</time></trkpt><trkpt lat="39.48341760692761" lon="9.244094949569698"><ele>629.0</ele><time>2026-04-30T10:19:15.232Z</time></trkpt><trkpt lat="39.48343306821869" lon="9.243997625174561"><ele>629.0</ele><time>2026-04-30T10:19:16.232Z</time></trkpt><trkpt lat="39.483458087704356" lon="9.243898490453237"><ele>629.0</ele><time>2026-04-30T10:19:17.232Z</time></trkpt><trkpt lat="39.48348391399652" lon="9.24379857992678"><ele>629.0</ele><time>2026-04-30T10:19:18.232Z</time></trkpt><trkpt lat="39.48351341389427" lon="9.243692510179372"><ele>629.0</ele><time>2026-04-30T10:19:19.232Z</time></trkpt><trkpt lat="39.48354664603038" lon="9.243586335202737"><ele>629.0</ele><time>2026-04-30T10:19:20.232Z</time></trkpt><trkpt lat="39.48357732611574" lon="9.243478225264376"><ele>629.0</ele><time>2026-04-30T10:19:21.232Z</time></trkpt><trkpt lat="39.4836063389896" lon="9.243366314259926"><ele>629.0</ele><time>2026-04-30T10:19:22.232Z</time></trkpt><trkpt lat="39.483634838343704" lon="9.243252965457579"><ele>629.0</ele><time>2026-04-30T10:19:23.232Z</time></trkpt><trkpt lat="39.48366387270866" lon="9.24314421912861"><ele>629.0</ele><time>2026-04-30T10:19:24.232Z</time></trkpt><trkpt lat="39.483694739590455" lon="9.243033576123947"><ele>629.0</ele><time>2026-04-30T10:19:25.232Z</time></trkpt><trkpt lat="39.48372956162576" lon="9.242922508256076"><ele>629.0</ele><time>2026-04-30T10:19:26.232Z</time></trkpt><trkpt lat="39.483762624037425" lon="9.242811326279769"><ele>629.0</ele><time>2026-04-30T10:19:27.232Z</time></trkpt><trkpt lat="39.48379700240398" lon="9.242692454466722"><ele>629.25</ele><time>2026-04-30T10:19:28.232Z</time></trkpt><trkpt lat="39.48383445609922" lon="9.242559312560298"><ele>629.5</ele><time>2026-04-30T10:19:29.232Z</time></trkpt><trkpt lat="39.483871407760695" lon="9.242419638096441"><ele>629.75</ele><time>2026-04-30T10:19:30.232Z</time></trkpt><trkpt lat="39.48391132246343" lon="9.242275439683507"><ele>630.0</ele><time>2026-04-30T10:19:31.232Z</time></trkpt><trkpt lat="39.48395173588247" lon="9.242127796423892"><ele>630.0</ele><time>2026-04-30T10:19:32.232Z</time></trkpt><trkpt lat="39.48399774142326" lon="9.241977271313722"><ele>630.0</ele><time>2026-04-30T10:19:33.232Z</time></trkpt><trkpt lat="39.484044090147414" lon="9.241826311968405"><ele>630.0</ele><time>2026-04-30T10:19:34.232Z</time></trkpt><trkpt lat="39.48409175288185" lon="9.241667377788673"><ele>630.0</ele><time>2026-04-30T10:19:35.232Z</time></trkpt><trkpt lat="39.4841419138245" lon="9.241499988051741"><ele>629.25</ele><time>2026-04-30T10:19:36.232Z</time></trkpt><trkpt lat="39.48418898984042" lon="9.241336275324567"><ele>628.5</ele><time>2026-04-30T10:19:37.232Z</time></trkpt><trkpt lat="39.48423475739449" lon="9.241174905716845"><ele>627.75</ele><time>2026-04-30T10:19:38.232Z</time></trkpt><trkpt lat="39.48428060167092" lon="9.241019630700233"><ele>627.0</ele><time>2026-04-30T10:19:39.232Z</time></trkpt><trkpt lat="39.48432661301265" lon="9.240871797819429"><ele>627.0</ele><time>2026-04-30T10:19:40.232Z</time></trkpt><trkpt lat="39.48436899879802" lon="9.240722260186397"><ele>627.0</ele><time>2026-04-30T10:19:41.232Z</time></trkpt><trkpt lat="39.48440698247343" lon="9.240558883396538"><ele>627.0</ele><time>2026-04-30T10:19:42.232Z</time></trkpt><trkpt lat="39.4844573142787" lon="9.240391176011283"><ele>627.0</ele><time>2026-04-30T10:19:43.232Z</time></trkpt><trkpt lat="39.48450938104744" lon="9.24021718433586"><ele>626.75</ele><time>2026-04-30T10:19:44.232Z</time></trkpt><trkpt lat="39.484554562385895" lon="9.24005478260868"><ele>626.5</ele><time>2026-04-30T10:19:45.232Z</time></trkpt><trkpt lat="39.48460320650713" lon="9.239890683057665"><ele>626.25</ele><time>2026-04-30T10:19:46.232Z</time></trkpt><trkpt lat="39.48465633854626" lon="9.239724151174299"><ele>626.0</ele><time>2026-04-30T10:19:47.232Z</time></trkpt><trkpt lat="39.484704507378936" lon="9.239553946919704"><ele>624.25</ele><time>2026-04-30T10:19:48.232Z</time></trkpt><trkpt lat="39.484753723407046" lon="9.239379463466419"><ele>622.5</ele><time>2026-04-30T10:19:49.232Z</time></trkpt><trkpt lat="39.48480306240455" lon="9.239200404634305"><ele>620.75</ele><time>2026-04-30T10:19:50.232Z</time></trkpt><trkpt lat="39.484854282844566" lon="9.239018681982072"><ele>619.0</ele><time>2026-04-30T10:19:51.232Z</time></trkpt><trkpt lat="39.48491196120616" lon="9.238830259850705"><ele>618.3333333333334</ele><time>2026-04-30T10:19:52.232Z</time></trkpt><trkpt lat="39.48496348575086" lon="9.238633828158287"><ele>617.6666666666666</ele><time>2026-04-30T10:19:53.232Z</time></trkpt><trkpt lat="39.485019572814316" lon="9.238422362602389"><ele>617.0</ele><time>2026-04-30T10:19:54.232Z</time></trkpt><trkpt lat="39.48507696162784" lon="9.238204059546586"><ele>616.0</ele><time>2026-04-30T10:19:55.232Z</time></trkpt><trkpt lat="39.485143378123496" lon="9.23797659477981"><ele>615.0</ele><time>2026-04-30T10:19:56.232Z</time></trkpt><trkpt lat="39.48520953167304" lon="9.237739821456108"><ele>614.0</ele><time>2026-04-30T10:19:57.232Z</time></trkpt><trkpt lat="39.48527815822556" lon="9.237496276343142"><ele>613.3333333333333</ele><time>2026-04-30T10:19:58.232Z</time></trkpt><trkpt lat="39.48535481279154" lon="9.23723956813925"><ele>612.6666666666666</ele><time>2026-04-30T10:19:59.232Z</time></trkpt><trkpt lat="39.48542935563333" lon="9.236977898818768"><ele>612.0</ele><time>2026-04-30T10:20:00.232Z</time></trkpt><trkpt lat="39.48550564045539" lon="9.23671465689279"><ele>611.3333333333334</ele><time>2026-04-30T10:20:01.232Z</time></trkpt><trkpt lat="39.485577572419444" lon="9.23645386422768"><ele>610.6666666666667</ele><time>2026-04-30T10:20:02.232Z</time></trkpt><trkpt lat="39.485650308757585" lon="9.23619842644782"><ele>610.0</ele><time>2026-04-30T10:20:03.232Z</time></trkpt><trkpt lat="39.48572263361948" lon="9.235955374153122"><ele>610.0</ele><time>2026-04-30T10:20:04.232Z</time></trkpt><trkpt lat="39.485792000518934" lon="9.235722770077793"><ele>610.0</ele><time>2026-04-30T10:20:05.232Z</time></trkpt><trkpt lat="39.485864512648696" lon="9.235491560703212"><ele>610.0</ele><time>2026-04-30T10:20:06.232Z</time></trkpt><trkpt lat="39.48593304086187" lon="9.235261387062671"><ele>608.3333333333334</ele><time>2026-04-30T10:20:07.232Z</time></trkpt><trkpt lat="39.48599030548725" lon="9.235037795208415"><ele>606.6666666666666</ele><time>2026-04-30T10:20:08.232Z</time></trkpt><trkpt lat="39.48602284266843" lon="9.234807645075024"><ele>605.0</ele><time>2026-04-30T10:20:09.232Z</time></trkpt><trkpt lat="39.48602442973706" lon="9.23456691481457"><ele>605.0</ele><time>2026-04-30T10:20:10.232Z</time></trkpt><trkpt lat="39.48599192221371" lon="9.234331792800658"><ele>605.0</ele><time>2026-04-30T10:20:11.232Z</time></trkpt><trkpt lat="39.48592778469346" lon="9.23411550257157"><ele>605.0</ele><time>2026-04-30T10:20:12.232Z</time></trkpt><trkpt lat="39.48582164114804" lon="9.233903564233662"><ele>605.0</ele><time>2026-04-30T10:20:13.233Z</time></trkpt><trkpt lat="39.48569755532651" lon="9.23368928648003"><ele>605.0</ele><time>2026-04-30T10:20:14.233Z</time></trkpt><trkpt lat="39.48557915473675" lon="9.233463001161379"><ele>605.0</ele><time>2026-04-30T10:20:15.233Z</time></trkpt><trkpt lat="39.48549307969094" lon="9.233232159820298"><ele>604.0</ele><time>2026-04-30T10:20:16.233Z</time></trkpt><trkpt lat="39.48545940212448" lon="9.232988332801941"><ele>603.0</ele><time>2026-04-30T10:20:17.233Z</time></trkpt><trkpt lat="39.4854584344357" lon="9.23273324292015"><ele>602.0</ele><time>2026-04-30T10:20:18.233Z</time></trkpt><trkpt lat="39.485509930231665" lon="9.232478843853016"><ele>602.0</ele><time>2026-04-30T10:20:19.233Z</time></trkpt><trkpt lat="39.48556178560004" lon="9.232250560031956"><ele>602.0</ele><time>2026-04-30T10:20:20.233Z</time></trkpt><trkpt lat="39.48555022637481" lon="9.232026309358435"><ele>602.0</ele><time>2026-04-30T10:20:21.233Z</time></trkpt><trkpt lat="39.48548286483681" lon="9.231814166971263"><ele>598.6666666666666</ele><time>2026-04-30T10:20:22.233Z</time></trkpt><trkpt lat="39.48536357797688" lon="9.231617724410203"><ele>595.3333333333334</ele><time>2026-04-30T10:20:23.233Z</time></trkpt><trkpt lat="39.48521301697826" lon="9.231428181655433"><ele>592.0</ele><time>2026-04-30T10:20:24.233Z</time></trkpt><trkpt lat="39.48506627128196" lon="9.231221177462544"><ele>592.0</ele><time>2026-04-30T10:20:25.233Z</time></trkpt><trkpt lat="39.484939895388834" lon="9.230993844963711"><ele>592.0</ele><time>2026-04-30T10:20:26.233Z</time></trkpt><trkpt lat="39.48481442586341" lon="9.230780835350007"><ele>592.0</ele><time>2026-04-30T10:20:27.233Z</time></trkpt><trkpt lat="39.48466922286263" lon="9.230599022081048"><ele>587.6666666666667</ele><time>2026-04-30T10:20:28.233Z</time></trkpt><trkpt lat="39.4845041056278" lon="9.230452866565157"><ele>583.3333333333334</ele><time>2026-04-30T10:20:29.233Z</time></trkpt><trkpt lat="39.4843620054397" lon="9.230297493178407"><ele>579.0</ele><time>2026-04-30T10:20:30.233Z</time></trkpt><trkpt lat="39.48427956938312" lon="9.230099527373817"><ele>579.0</ele><time>2026-04-30T10:20:31.233Z</time></trkpt><trkpt lat="39.484216622438616" lon="9.229874589151565"><ele>579.0</ele><time>2026-04-30T10:20:32.233Z</time></trkpt><trkpt lat="39.48416336076324" lon="9.229622311414744"><ele>579.0</ele><time>2026-04-30T10:20:33.233Z</time></trkpt><trkpt lat="39.484126746937775" lon="9.2293462726097"><ele>579.0</ele><time>2026-04-30T10:20:34.233Z</time></trkpt><trkpt lat="39.484099106743976" lon="9.229081114717086"><ele>579.0</ele><time>2026-04-30T10:20:35.233Z</time></trkpt><trkpt lat="39.48405215114272" lon="9.228843971380128"><ele>579.0</ele><time>2026-04-30T10:20:36.233Z</time></trkpt><trkpt lat="39.484006719416556" lon="9.228625702085699"><ele>577.3333333333334</ele><time>2026-04-30T10:20:37.233Z</time></trkpt><trkpt lat="39.48401064319561" lon="9.22841552249583"><ele>575.6666666666667</ele><time>2026-04-30T10:20:38.233Z</time></trkpt><trkpt lat="39.48406925996988" lon="9.228226390009025"><ele>574.0</ele><time>2026-04-30T10:20:39.233Z</time></trkpt><trkpt lat="39.484172467276444" lon="9.228063004259557"><ele>573.3333333333334</ele><time>2026-04-30T10:20:40.233Z</time></trkpt><trkpt lat="39.48431250253295" lon="9.227941867951198"><ele>572.6666666666666</ele><time>2026-04-30T10:20:41.233Z</time></trkpt><trkpt lat="39.48446426433048" lon="9.227834271735563"><ele>572.0</ele><time>2026-04-30T10:20:42.233Z</time></trkpt><trkpt lat="39.48461534267772" lon="9.227718712206267"><ele>572.0</ele><time>2026-04-30T10:20:43.233Z</time></trkpt><trkpt lat="39.48475395098629" lon="9.227582184004396"><ele>572.0</ele><time>2026-04-30T10:20:44.233Z</time></trkpt><trkpt lat="39.48487426417376" lon="9.227424013131515"><ele>572.0</ele><time>2026-04-30T10:20:45.233Z</time></trkpt><trkpt lat="39.48498785396228" lon="9.227259774242569"><ele>564.0</ele><time>2026-04-30T10:20:46.233Z</time></trkpt><trkpt lat="39.485098776052176" lon="9.227089529354018"><ele>556.0</ele><time>2026-04-30T10:20:47.233Z</time></trkpt><trkpt lat="39.48520324971031" lon="9.22690477961408"><ele>548.0</ele><time>2026-04-30T10:20:48.233Z</time></trkpt><trkpt lat="39.48531505640866" lon="9.226734102629226"><ele>548.0</ele><time>2026-04-30T10:20:49.233Z</time></trkpt><trkpt lat="39.48542610234055" lon="9.226583334682518"><ele>548.0</ele><time>2026-04-30T10:20:50.233Z</time></trkpt><trkpt lat="39.48556193646761" lon="9.22644013550567"><ele>548.0</ele><time>2026-04-30T10:20:51.233Z</time></trkpt><trkpt lat="39.48567413726614" lon="9.226269190684077"><ele>549.0</ele><time>2026-04-30T10:20:52.233Z</time></trkpt><trkpt lat="39.485747492732685" lon="9.226055832641082"><ele>550.0</ele><time>2026-04-30T10:20:53.233Z</time></trkpt><trkpt lat="39.48580474005536" lon="9.225829026689366"><ele>551.0</ele><time>2026-04-30T10:20:54.233Z</time></trkpt><trkpt lat="39.48583661307501" lon="9.225589453441538"><ele>551.0</ele><time>2026-04-30T10:20:55.233Z</time></trkpt><trkpt lat="39.485849578247084" lon="9.225344619023351"><ele>551.0</ele><time>2026-04-30T10:20:56.233Z</time></trkpt><trkpt lat="39.485902290084326" lon="9.225109488720385"><ele>551.0</ele><time>2026-04-30T10:20:57.233Z</time></trkpt><trkpt lat="39.48601858167154" lon="9.22490789252157"><ele>550.6666666666666</ele><time>2026-04-30T10:20:58.233Z</time></trkpt><trkpt lat="39.486141260472614" lon="9.224709604258626"><ele>550.3333333333334</ele><time>2026-04-30T10:20:59.233Z</time></trkpt><trkpt lat="39.48622150893526" lon="9.224470027535835"><ele>550.0</ele><time>2026-04-30T10:21:00.233Z</time></trkpt><trkpt lat="39.486271670765866" lon="9.224197317549882"><ele>543.3333333333334</ele><time>2026-04-30T10:21:01.233Z</time></trkpt><trkpt lat="39.48631394681075" lon="9.223916327407153"><ele>536.6666666666666</ele><time>2026-04-30T10:21:02.233Z</time></trkpt><trkpt lat="39.4863550651392" lon="9.223634674394905"><ele>530.0</ele><time>2026-04-30T10:21:03.234Z</time></trkpt><trkpt lat="39.48639749750336" lon="9.22334722846663"><ele>528.0</ele><time>2026-04-30T10:21:04.234Z</time></trkpt><trkpt lat="39.486421738861644" lon="9.223065489356499"><ele>526.0</ele><time>2026-04-30T10:21:05.233Z</time></trkpt><trkpt lat="39.48639927671367" lon="9.222793092223473"><ele>524.0</ele><time>2026-04-30T10:21:06.234Z</time></trkpt><trkpt lat="39.48629505306214" lon="9.222563815678862"><ele>528.6666666666666</ele><time>2026-04-30T10:21:07.234Z</time></trkpt><trkpt lat="39.486142857083756" lon="9.222396709837614"><ele>533.3333333333334</ele><time>2026-04-30T10:21:08.234Z</time></trkpt><trkpt lat="39.48594320734047" lon="9.22232835864054"><ele>538.0</ele><time>2026-04-30T10:21:09.234Z</time></trkpt><trkpt lat="39.485722153746394" lon="9.222335466917187"><ele>538.0</ele><time>2026-04-30T10:21:10.234Z</time></trkpt><trkpt lat="39.485520250619814" lon="9.222331107723438"><ele>538.0</ele><time>2026-04-30T10:21:11.234Z</time></trkpt><trkpt lat="39.48532511465388" lon="9.222233157458763"><ele>538.0</ele><time>2026-04-30T10:21:12.234Z</time></trkpt><trkpt lat="39.48525301314213" lon="9.221984959970333"><ele>538.0</ele><time>2026-04-30T10:21:13.234Z</time></trkpt><trkpt lat="39.4852676186471" lon="9.221707086930577"><ele>538.0</ele><time>2026-04-30T10:21:14.234Z</time></trkpt><trkpt lat="39.48535164405325" lon="9.221429295141471"><ele>538.0</ele><time>2026-04-30T10:21:15.233Z</time></trkpt><trkpt lat="39.485503791408846" lon="9.221198273634457"><ele>536.5</ele><time>2026-04-30T10:21:16.233Z</time></trkpt><trkpt lat="39.48569488370127" lon="9.221024040760431"><ele>535.0</ele><time>2026-04-30T10:21:17.233Z</time></trkpt><trkpt lat="39.4858792300288" lon="9.220862478617715"><ele>535.0</ele><time>2026-04-30T10:21:18.233Z</time></trkpt><trkpt lat="39.486016830778524" lon="9.220689923257599"><ele>535.0</ele><time>2026-04-30T10:21:19.233Z</time></trkpt><trkpt lat="39.48612006074246" lon="9.220466030585667"><ele>535.0</ele><time>2026-04-30T10:21:20.233Z</time></trkpt><trkpt lat="39.48617791385383" lon="9.220204843176186"><ele>537.6666666666667</ele><time>2026-04-30T10:21:21.233Z</time></trkpt><trkpt lat="39.48624002620232" lon="9.219940520618263"><ele>540.3333333333334</ele><time>2026-04-30T10:21:22.233Z</time></trkpt><trkpt lat="39.48631974040315" lon="9.219687180336607"><ele>543.0</ele><time>2026-04-30T10:21:23.233Z</time></trkpt><trkpt lat="39.48641913377596" lon="9.219454090952144"><ele>543.0</ele><time>2026-04-30T10:21:24.233Z</time></trkpt><trkpt lat="39.48656498018697" lon="9.21927170720833"><ele>543.0</ele><time>2026-04-30T10:21:25.233Z</time></trkpt><trkpt lat="39.48675723248947" lon="9.21917495147524"><ele>543.0</ele><time>2026-04-30T10:21:26.233Z</time></trkpt><trkpt lat="39.48695907727509" lon="9.219122376004082"><ele>542.3333333333334</ele><time>2026-04-30T10:21:27.233Z</time></trkpt><trkpt lat="39.487152975581274" lon="9.219032621138677"><ele>541.6666666666667</ele><time>2026-04-30T10:21:28.233Z</time></trkpt><trkpt lat="39.48731932915272" lon="9.218885937360263"><ele>541.0</ele><time>2026-04-30T10:21:29.233Z</time></trkpt><trkpt lat="39.48745371138789" lon="9.21868770658406"><ele>541.0</ele><time>2026-04-30T10:21:30.233Z</time></trkpt><trkpt lat="39.4875521023993" lon="9.218447532245818"><ele>541.0</ele><time>2026-04-30T10:21:31.233Z</time></trkpt><trkpt lat="39.48766629834022" lon="9.218243240230315"><ele>541.0</ele><time>2026-04-30T10:21:32.233Z</time></trkpt><trkpt lat="39.48774251894057" lon="9.218047820879535"><ele>542.0</ele><time>2026-04-30T10:21:33.233Z</time></trkpt><trkpt lat="39.48775753584036" lon="9.21782432720687"><ele>543.0</ele><time>2026-04-30T10:21:34.233Z</time></trkpt><trkpt lat="39.48770176476444" lon="9.21757286360822"><ele>544.0</ele><time>2026-04-30T10:21:35.233Z</time></trkpt><trkpt lat="39.48762119047608" lon="9.217306127244271"><ele>542.0</ele><time>2026-04-30T10:21:36.233Z</time></trkpt><trkpt lat="39.48756663965847" lon="9.217032490269965"><ele>540.0</ele><time>2026-04-30T10:21:37.233Z</time></trkpt><trkpt lat="39.48752394883256" lon="9.21675924667649"><ele>538.0</ele><time>2026-04-30T10:21:38.233Z</time></trkpt><trkpt lat="39.48747574713708" lon="9.216486115331824"><ele>537.0</ele><time>2026-04-30T10:21:39.234Z</time></trkpt><trkpt lat="39.48741714773452" lon="9.216215019730738"><ele>536.0</ele><time>2026-04-30T10:21:40.234Z</time></trkpt><trkpt lat="39.4873458372112" lon="9.21594190826959"><ele>535.0</ele><time>2026-04-30T10:21:41.234Z</time></trkpt><trkpt lat="39.48727659900575" lon="9.215670505360908"><ele>534.0</ele><time>2026-04-30T10:21:42.234Z</time></trkpt><trkpt lat="39.487220502518014" lon="9.215390773865922"><ele>533.0</ele><time>2026-04-30T10:21:43.234Z</time></trkpt><trkpt lat="39.48719581952729" lon="9.21510764841573"><ele>532.0</ele><time>2026-04-30T10:21:44.234Z</time></trkpt><trkpt lat="39.48720201089561" lon="9.214815878987254"><ele>530.3333333333334</ele><time>2026-04-30T10:21:45.234Z</time></trkpt><trkpt lat="39.48720418200649" lon="9.214526621635772"><ele>528.6666666666666</ele><time>2026-04-30T10:21:46.234Z</time></trkpt><trkpt lat="39.48717340083729" lon="9.214257818872241"><ele>527.0</ele><time>2026-04-30T10:21:47.234Z</time></trkpt><trkpt lat="39.48707687618239" lon="9.214030619248923"><ele>525.0</ele><time>2026-04-30T10:21:48.234Z</time></trkpt><trkpt lat="39.48693750665275" lon="9.213823920901369"><ele>523.0</ele><time>2026-04-30T10:21:49.234Z</time></trkpt><trkpt lat="39.48684115855648" lon="9.213581647330129"><ele>521.0</ele><time>2026-04-30T10:21:50.234Z</time></trkpt><trkpt lat="39.486812636349164" lon="9.213303190948345"><ele>518.5</ele><time>2026-04-30T10:21:51.234Z</time></trkpt><trkpt lat="39.48684164290091" lon="9.213005104410128"><ele>516.0</ele><time>2026-04-30T10:21:52.234Z</time></trkpt><trkpt lat="39.486857225588565" lon="9.212704673416745"><ele>516.0</ele><time>2026-04-30T10:21:53.234Z</time></trkpt><trkpt lat="39.48685659734449" lon="9.212405510410456"><ele>516.0</ele><time>2026-04-30T10:21:54.234Z</time></trkpt><trkpt lat="39.48684535957761" lon="9.212116948572382"><ele>514.3333333333334</ele><time>2026-04-30T10:21:55.234Z</time></trkpt><trkpt lat="39.48679728600117" lon="9.211834151051729"><ele>512.6666666666667</ele><time>2026-04-30T10:21:56.234Z</time></trkpt><trkpt lat="39.48670395679368" lon="9.211576775951631"><ele>511.0</ele><time>2026-04-30T10:21:57.234Z</time></trkpt><trkpt lat="39.486583928180835" lon="9.211336328688555"><ele>509.33333333333337</ele><time>2026-04-30T10:21:58.234Z</time></trkpt><trkpt lat="39.48648467028622" lon="9.211076258227745"><ele>507.66666666666663</ele><time>2026-04-30T10:21:59.234Z</time></trkpt><trkpt lat="39.48644123749292" lon="9.21079166504593"><ele>506.0</ele><time>2026-04-30T10:22:00.234Z</time></trkpt><trkpt lat="39.48646026652378" lon="9.210502501164815"><ele>504.0</ele><time>2026-04-30T10:22:01.234Z</time></trkpt><trkpt lat="39.486514003866624" lon="9.210217676728256"><ele>502.0</ele><time>2026-04-30T10:22:02.234Z</time></trkpt><trkpt lat="39.48656975367597" lon="9.209928325196222"><ele>499.0</ele><time>2026-04-30T10:22:03.234Z</time></trkpt><trkpt lat="39.4866171546648" lon="9.209650448605496"><ele>496.0</ele><time>2026-04-30T10:22:04.234Z</time></trkpt><trkpt lat="39.48665346284577" lon="9.209382367179261"><ele>493.0</ele><time>2026-04-30T10:22:05.234Z</time></trkpt><trkpt lat="39.48669184691679" lon="9.209138407449567"><ele>489.6666666666667</ele><time>2026-04-30T10:22:06.234Z</time></trkpt><trkpt lat="39.48676637718536" lon="9.208952640517687"><ele>486.33333333333337</ele><time>2026-04-30T10:22:07.234Z</time></trkpt><trkpt lat="39.486895638582055" lon="9.208855560569754"><ele>483.0</ele><time>2026-04-30T10:22:08.234Z</time></trkpt><trkpt lat="39.487090006759196" lon="9.208872754631853"><ele>487.5</ele><time>2026-04-30T10:22:09.234Z</time></trkpt><trkpt lat="39.487307207525916" lon="9.208994628065488"><ele>492.0</ele><time>2026-04-30T10:22:10.234Z</time></trkpt><trkpt lat="39.48750104289502" lon="9.2091495092352"><ele>492.0</ele><time>2026-04-30T10:22:11.234Z</time></trkpt><trkpt lat="39.48767363380023" lon="9.20924807656946"><ele>492.0</ele><time>2026-04-30T10:22:12.234Z</time></trkpt><trkpt lat="39.487819770459886" lon="9.209236877512778"><ele>492.0</ele><time>2026-04-30T10:22:13.234Z</time></trkpt><trkpt lat="39.48793990130597" lon="9.20910801948691"><ele>491.0</ele><time>2026-04-30T10:22:14.234Z</time></trkpt><trkpt lat="39.48802498328469" lon="9.20887044662148"><ele>490.0</ele><time>2026-04-30T10:22:15.234Z</time></trkpt><trkpt lat="39.4880546919613" lon="9.208571647022987"><ele>489.0</ele><time>2026-04-30T10:22:16.234Z</time></trkpt><trkpt lat="39.48807345217456" lon="9.208260769537507"><ele>486.0</ele><time>2026-04-30T10:22:17.234Z</time></trkpt><trkpt lat="39.488101475998896" lon="9.207981130475487"><ele>483.0</ele><time>2026-04-30T10:22:18.234Z</time></trkpt><trkpt lat="39.488130652534736" lon="9.207714485731966"><ele>480.0</ele><time>2026-04-30T10:22:19.234Z</time></trkpt><trkpt lat="39.48814395395054" lon="9.207441461518984"><ele>477.0</ele><time>2026-04-30T10:22:20.234Z</time></trkpt><trkpt lat="39.488155536648854" lon="9.207174311182246"><ele>474.0</ele><time>2026-04-30T10:22:21.234Z</time></trkpt><trkpt lat="39.488164100887985" lon="9.206928902434477"><ele>471.0</ele><time>2026-04-30T10:22:22.234Z</time></trkpt><trkpt lat="39.4881907396327" lon="9.206705640250094"><ele>471.0</ele><time>2026-04-30T10:22:23.234Z</time></trkpt><trkpt lat="39.48826777810292" lon="9.20650535899391"><ele>471.0</ele><time>2026-04-30T10:22:24.234Z</time></trkpt><trkpt lat="39.48844299188496" lon="9.206372339024258"><ele>471.0</ele><time>2026-04-30T10:22:25.234Z</time></trkpt><trkpt lat="39.48862674425548" lon="9.20625271578313"><ele>471.33333333333337</ele><time>2026-04-30T10:22:26.234Z</time></trkpt><trkpt lat="39.48877797335092" lon="9.206079215584019"><ele>471.6666666666667</ele><time>2026-04-30T10:22:27.234Z</time></trkpt><trkpt lat="39.48889637667789" lon="9.20586222177877"><ele>472.0</ele><time>2026-04-30T10:22:28.234Z</time></trkpt><trkpt lat="39.48898568510757" lon="9.20561461877583"><ele>467.5</ele><time>2026-04-30T10:22:29.234Z</time></trkpt><trkpt lat="39.48906391468343" lon="9.205341635556998"><ele>463.0</ele><time>2026-04-30T10:22:30.234Z</time></trkpt><trkpt lat="39.48916547904912" lon="9.20507425930127"><ele>457.5</ele><time>2026-04-30T10:22:31.234Z</time></trkpt><trkpt lat="39.48929416246808" lon="9.204824525336234"><ele>452.0</ele><time>2026-04-30T10:22:32.234Z</time></trkpt><trkpt lat="39.489457065668034" lon="9.204620890912503"><ele>454.0</ele><time>2026-04-30T10:22:33.234Z</time></trkpt><trkpt lat="39.48965625749128" lon="9.204469495352107"><ele>456.0</ele><time>2026-04-30T10:22:34.234Z</time></trkpt><trkpt lat="39.4898625055537" lon="9.204374731785414"><ele>456.0</ele><time>2026-04-30T10:22:35.234Z</time></trkpt><trkpt lat="39.49004705179447" lon="9.204274586521613"><ele>456.0</ele><time>2026-04-30T10:22:36.234Z</time></trkpt><trkpt lat="39.49018832049693" lon="9.204105327745603"><ele>456.0</ele><time>2026-04-30T10:22:37.234Z</time></trkpt><trkpt lat="39.49026752427245" lon="9.203847934051023"><ele>451.5</ele><time>2026-04-30T10:22:38.234Z</time></trkpt><trkpt lat="39.490324095722826" lon="9.20354424749691"><ele>447.0</ele><time>2026-04-30T10:22:39.234Z</time></trkpt><trkpt lat="39.4904059386865" lon="9.203264659265226"><ele>449.0</ele><time>2026-04-30T10:22:40.234Z</time></trkpt><trkpt lat="39.49049091562512" lon="9.203002660006087"><ele>451.0</ele><time>2026-04-30T10:22:41.234Z</time></trkpt><trkpt lat="39.49055362681027" lon="9.202727327408105"><ele>453.0</ele><time>2026-04-30T10:22:42.234Z</time></trkpt><trkpt lat="39.49056363214727" lon="9.202439658145742"><ele>450.66666666666663</ele><time>2026-04-30T10:22:43.234Z</time></trkpt><trkpt lat="39.490518840578865" lon="9.202158473559901"><ele>448.3333333333333</ele><time>2026-04-30T10:22:44.234Z</time></trkpt><trkpt lat="39.49048670852361" lon="9.201874820339"><ele>446.0</ele><time>2026-04-30T10:22:45.234Z</time></trkpt><trkpt lat="39.49050373426749" lon="9.201599358872032"><ele>442.5</ele><time>2026-04-30T10:22:46.234Z</time></trkpt><trkpt lat="39.49058106863917" lon="9.201320991883994"><ele>439.0</ele><time>2026-04-30T10:22:47.234Z</time></trkpt><trkpt lat="39.49069302868693" lon="9.201047699243183"><ele>439.0</ele><time>2026-04-30T10:22:48.234Z</time></trkpt><trkpt lat="39.49075657648373" lon="9.200768296741927"><ele>439.0</ele><time>2026-04-30T10:22:49.234Z</time></trkpt><trkpt lat="39.49076304733158" lon="9.200454652006137"><ele>436.5</ele><time>2026-04-30T10:22:50.234Z</time></trkpt><trkpt lat="39.49076543278591" lon="9.200140292932675"><ele>434.0</ele><time>2026-04-30T10:22:51.234Z</time></trkpt><trkpt lat="39.4907604184048" lon="9.199834511782338"><ele>432.5</ele><time>2026-04-30T10:22:52.234Z</time></trkpt><trkpt lat="39.49072349640156" lon="9.199535565654978"><ele>431.0</ele><time>2026-04-30T10:22:53.234Z</time></trkpt><trkpt lat="39.49065020178036" lon="9.199249289488737"><ele>431.0</ele><time>2026-04-30T10:22:54.234Z</time></trkpt><trkpt lat="39.49055464663753" lon="9.198974372530017"><ele>431.0</ele><time>2026-04-30T10:22:55.234Z</time></trkpt><trkpt lat="39.49045614588808" lon="9.198702948062332"><ele>425.3333333333333</ele><time>2026-04-30T10:22:56.234Z</time></trkpt><trkpt lat="39.49038400434297" lon="9.198444687523828"><ele>419.66666666666663</ele><time>2026-04-30T10:22:57.234Z</time></trkpt><trkpt lat="39.49036472391014" lon="9.198184068805169"><ele>414.0</ele><time>2026-04-30T10:22:58.234Z</time></trkpt><trkpt lat="39.49040353505788" lon="9.197911962958562"><ele>414.66666666666663</ele><time>2026-04-30T10:22:59.234Z</time></trkpt><trkpt lat="39.4904698219161" lon="9.197636467681379"><ele>415.3333333333333</ele><time>2026-04-30T10:23:00.234Z</time></trkpt><trkpt lat="39.4905476935091" lon="9.197380414266352"><ele>416.0</ele><time>2026-04-30T10:23:01.234Z</time></trkpt><trkpt lat="39.490668701763816" lon="9.197166598783628"><ele>416.0</ele><time>2026-04-30T10:23:02.234Z</time></trkpt><trkpt lat="39.49082243282475" lon="9.196997472215333"><ele>416.0</ele><time>2026-04-30T10:23:03.234Z</time></trkpt><trkpt lat="39.49092163445803" lon="9.196811510035076"><ele>416.0</ele><time>2026-04-30T10:23:04.234Z</time></trkpt><trkpt lat="39.4909242457275" lon="9.196568762982476"><ele>415.0</ele><time>2026-04-30T10:23:05.234Z</time></trkpt><trkpt lat="39.49083361567704" lon="9.196286523947846"><ele>414.0</ele><time>2026-04-30T10:23:06.234Z</time></trkpt><trkpt lat="39.49071654358281" lon="9.196001966901537"><ele>414.0</ele><time>2026-04-30T10:23:07.234Z</time></trkpt><trkpt lat="39.49063774760034" lon="9.195703020533061"><ele>414.0</ele><time>2026-04-30T10:23:08.235Z</time></trkpt><trkpt lat="39.49059510586562" lon="9.195407234635862"><ele>412.5</ele><time>2026-04-30T10:23:09.235Z</time></trkpt><trkpt lat="39.49057734984377" lon="9.195102611544034"><ele>411.0</ele><time>2026-04-30T10:23:10.235Z</time></trkpt><trkpt lat="39.490587021316124" lon="9.194803466744892"><ele>408.0</ele><time>2026-04-30T10:23:11.235Z</time></trkpt><trkpt lat="39.49063333939817" lon="9.194529300379145"><ele>405.0</ele><time>2026-04-30T10:23:12.235Z</time></trkpt><trkpt lat="39.490718451085414" lon="9.194279734153453"><ele>402.0</ele><time>2026-04-30T10:23:13.235Z</time></trkpt><trkpt lat="39.49084625262092" lon="9.194043002695345"><ele>396.0</ele><time>2026-04-30T10:23:14.235Z</time></trkpt><trkpt lat="39.49101837778097" lon="9.1938269025765"><ele>390.0</ele><time>2026-04-30T10:23:15.235Z</time></trkpt><trkpt lat="39.49117862939073" lon="9.193633384865212"><ele>389.66666666666663</ele><time>2026-04-30T10:23:16.235Z</time></trkpt><trkpt lat="39.49133532753124" lon="9.193497714576027"><ele>389.3333333333333</ele><time>2026-04-30T10:23:17.236Z</time></trkpt><trkpt lat="39.49151932368627" lon="9.193461824422402"><ele>389.0</ele><time>2026-04-30T10:23:18.236Z</time></trkpt><trkpt lat="39.491739833518444" lon="9.193519240880695"><ele>389.0</ele><time>2026-04-30T10:23:19.236Z</time></trkpt><trkpt lat="39.491955263073905" lon="9.193600668383386"><ele>389.0</ele><time>2026-04-30T10:23:20.235Z</time></trkpt><trkpt lat="39.49214242192317" lon="9.193660641214304"><ele>389.0</ele><time>2026-04-30T10:23:21.235Z</time></trkpt><trkpt lat="39.492292258733805" lon="9.19371802549092"><ele>387.2</ele><time>2026-04-30T10:23:22.235Z</time></trkpt><trkpt lat="39.49240699149501" lon="9.193767736995353"><ele>385.4</ele><time>2026-04-30T10:23:23.235Z</time></trkpt><trkpt lat="39.49251224861354" lon="9.193767353974376"><ele>383.6</ele><time>2026-04-30T10:23:24.235Z</time></trkpt><trkpt lat="39.4925900340257" lon="9.193686121947428"><ele>381.8</ele><time>2026-04-30T10:23:25.235Z</time></trkpt><trkpt lat="39.49260730220863" lon="9.193558641734038"><ele>380.0</ele><time>2026-04-30T10:23:26.235Z</time></trkpt><trkpt lat="39.49254981385613" lon="9.19344849896855"><ele>380.0</ele><time>2026-04-30T10:23:27.235Z</time></trkpt><trkpt lat="39.492454450796885" lon="9.193397803575124"><ele>380.0</ele><time>2026-04-30T10:23:28.235Z</time></trkpt><trkpt lat="39.4923299039623" lon="9.193419012173464"><ele>380.0</ele><time>2026-04-30T10:23:29.235Z</time></trkpt><trkpt lat="39.492167808877475" lon="9.193414651002628"><ele>380.0</ele><time>2026-04-30T10:23:30.235Z</time></trkpt><trkpt lat="39.49199227986242" lon="9.19332782249606"><ele>378.6666666666667</ele><time>2026-04-30T10:23:31.235Z</time></trkpt><trkpt lat="39.49181027676604" lon="9.193203449995117"><ele>377.3333333333333</ele><time>2026-04-30T10:23:32.235Z</time></trkpt><trkpt lat="39.49163017573604" lon="9.193074591714382"><ele>376.0</ele><time>2026-04-30T10:23:33.236Z</time></trkpt><trkpt lat="39.49147040005124" lon="9.192963985522258"><ele>376.0</ele><time>2026-04-30T10:23:34.236Z</time></trkpt><trkpt lat="39.49133887239323" lon="9.192844827629882"><ele>376.0</ele><time>2026-04-30T10:23:35.236Z</time></trkpt><trkpt lat="39.491267131393336" lon="9.192668264853866"><ele>376.0</ele><time>2026-04-30T10:23:36.236Z</time></trkpt><trkpt lat="39.4912453276247" lon="9.192450987341791"><ele>375.66666666666663</ele><time>2026-04-30T10:23:37.236Z</time></trkpt><trkpt lat="39.49123837067829" lon="9.192204658142375"><ele>375.3333333333333</ele><time>2026-04-30T10:23:38.236Z</time></trkpt><trkpt lat="39.49121435456114" lon="9.191958280888773"><ele>375.0</ele><time>2026-04-30T10:23:39.236Z</time></trkpt><trkpt lat="39.491190345347306" lon="9.191725116822678"><ele>374.3333333333333</ele><time>2026-04-30T10:23:40.236Z</time></trkpt><trkpt lat="39.49113936970096" lon="9.19150051412915"><ele>373.66666666666663</ele><time>2026-04-30T10:23:41.236Z</time></trkpt><trkpt lat="39.49104658227393" lon="9.19129447317564"><ele>373.0</ele><time>2026-04-30T10:23:42.236Z</time></trkpt><trkpt lat="39.49091532052895" lon="9.191125640537853"><ele>373.0</ele><time>2026-04-30T10:23:43.236Z</time></trkpt><trkpt lat="39.49075430914754" lon="9.191008300148201"><ele>373.0</ele><time>2026-04-30T10:23:44.236Z</time></trkpt><trkpt lat="39.49057939378845" lon="9.190936651400694"><ele>373.0</ele><time>2026-04-30T10:23:45.236Z</time></trkpt><trkpt lat="39.490397521265095" lon="9.19087374633816"><ele>370.3333333333333</ele><time>2026-04-30T10:23:46.236Z</time></trkpt><trkpt lat="39.490225109368794" lon="9.190775620413438"><ele>367.6666666666667</ele><time>2026-04-30T10:23:47.236Z</time></trkpt><trkpt lat="39.49007139822462" lon="9.190629252408025"><ele>365.0</ele><time>2026-04-30T10:23:48.236Z</time></trkpt><trkpt lat="39.48994686050311" lon="9.190438864549082"><ele>365.0</ele><time>2026-04-30T10:23:49.236Z</time></trkpt><trkpt lat="39.48985333717834" lon="9.190212966942074"><ele>365.0</ele><time>2026-04-30T10:23:50.236Z</time></trkpt><trkpt lat="39.48979094732785" lon="9.189955477640657"><ele>365.0</ele><time>2026-04-30T10:23:51.236Z</time></trkpt><trkpt lat="39.48973153579835" lon="9.18967466271297"><ele>364.0</ele><time>2026-04-30T10:23:52.236Z</time></trkpt><trkpt lat="39.48966816460406" lon="9.189384250216548"><ele>363.0</ele><time>2026-04-30T10:23:53.236Z</time></trkpt><trkpt lat="39.48960219290274" lon="9.189088463694407"><ele>357.0</ele><time>2026-04-30T10:23:54.236Z</time></trkpt><trkpt lat="39.48953300511286" lon="9.188789727517028"><ele>351.0</ele><time>2026-04-30T10:23:55.236Z</time></trkpt><trkpt lat="39.48945677646583" lon="9.188500508905078"><ele>351.0</ele><time>2026-04-30T10:23:56.236Z</time></trkpt><trkpt lat="39.48934855852821" lon="9.188232430327366"><ele>351.0</ele><time>2026-04-30T10:23:57.236Z</time></trkpt><trkpt lat="39.48920358503498" lon="9.18798553994506"><ele>350.0</ele><time>2026-04-30T10:23:58.236Z</time></trkpt><trkpt lat="39.48903678389911" lon="9.187767544965677"><ele>349.0</ele><time>2026-04-30T10:23:59.236Z</time></trkpt><trkpt lat="39.48887714778341" lon="9.187570726468833"><ele>347.3333333333333</ele><time>2026-04-30T10:24:00.236Z</time></trkpt><trkpt lat="39.488721666161794" lon="9.187369962509193"><ele>345.6666666666667</ele><time>2026-04-30T10:24:01.236Z</time></trkpt><trkpt lat="39.48856957939924" lon="9.187171939854874"><ele>344.0</ele><time>2026-04-30T10:24:02.236Z</time></trkpt><trkpt lat="39.48841312899578" lon="9.186975225577527"><ele>343.6666666666667</ele><time>2026-04-30T10:24:03.236Z</time></trkpt><trkpt lat="39.48825519273402" lon="9.186781850730021"><ele>343.3333333333333</ele><time>2026-04-30T10:24:04.236Z</time></trkpt><trkpt lat="39.488099149464404" lon="9.186584633750753"><ele>343.0</ele><time>2026-04-30T10:24:05.236Z</time></trkpt><trkpt lat="39.48794534013643" lon="9.186387213458755"><ele>340.66666666666663</ele><time>2026-04-30T10:24:06.236Z</time></trkpt><trkpt lat="39.487788856023016" lon="9.186195461061647"><ele>338.3333333333333</ele><time>2026-04-30T10:24:07.236Z</time></trkpt><trkpt lat="39.48763411556515" lon="9.185997938699634"><ele>336.0</ele><time>2026-04-30T10:24:08.236Z</time></trkpt><trkpt lat="39.48748096860676" lon="9.185797848764604"><ele>335.6666666666667</ele><time>2026-04-30T10:24:09.236Z</time></trkpt><trkpt lat="39.48732726683906" lon="9.185603984082572"><ele>335.33333333333337</ele><time>2026-04-30T10:24:10.236Z</time></trkpt><trkpt lat="39.4871743336779" lon="9.185414051321427"><ele>335.0</ele><time>2026-04-30T10:24:11.236Z</time></trkpt><trkpt lat="39.48702263752228" lon="9.18522280381017"><ele>334.33333333333337</ele><time>2026-04-30T10:24:12.236Z</time></trkpt><trkpt lat="39.48687009666958" lon="9.185031880058533"><ele>333.6666666666667</ele><time>2026-04-30T10:24:13.236Z</time></trkpt><trkpt lat="39.48671464626435" lon="9.184839757970908"><ele>333.0</ele><time>2026-04-30T10:24:14.236Z</time></trkpt><trkpt lat="39.4865561464435" lon="9.184632870489413"><ele>331.0</ele><time>2026-04-30T10:24:15.236Z</time></trkpt><trkpt lat="39.48638919180477" lon="9.184415801834152"><ele>329.0</ele><time>2026-04-30T10:24:16.236Z</time></trkpt><trkpt lat="39.48623607099207" lon="9.184211307207397"><ele>328.33333333333337</ele><time>2026-04-30T10:24:17.236Z</time></trkpt><trkpt lat="39.48608009606314" lon="9.184008951168222"><ele>327.6666666666667</ele><time>2026-04-30T10:24:18.236Z</time></trkpt><trkpt lat="39.48592221248676" lon="9.1838047941986"><ele>327.0</ele><time>2026-04-30T10:24:19.236Z</time></trkpt><trkpt lat="39.48576217419281" lon="9.183602923146564"><ele>327.0</ele><time>2026-04-30T10:24:20.236Z</time></trkpt><trkpt lat="39.48560345895588" lon="9.183398396238154"><ele>327.0</ele><time>2026-04-30T10:24:21.236Z</time></trkpt><trkpt lat="39.48544650727659" lon="9.183200137020107"><ele>327.0</ele><time>2026-04-30T10:24:22.236Z</time></trkpt><trkpt lat="39.48529138803862" lon="9.183001842487208"><ele>327.0</ele><time>2026-04-30T10:24:23.236Z</time></trkpt><trkpt lat="39.485141757727035" lon="9.182801917134054"><ele>327.0</ele><time>2026-04-30T10:24:24.236Z</time></trkpt><trkpt lat="39.4849928003451" lon="9.182603127226766"><ele>327.0</ele><time>2026-04-30T10:24:25.236Z</time></trkpt><trkpt lat="39.48484071548479" lon="9.182407136503041"><ele>327.0</ele><time>2026-04-30T10:24:26.236Z</time></trkpt><trkpt lat="39.48468757828202" lon="9.18221159724563"><ele>327.0</ele><time>2026-04-30T10:24:27.236Z</time></trkpt><trkpt lat="39.48453768685325" lon="9.182020831997447"><ele>327.0</ele><time>2026-04-30T10:24:28.236Z</time></trkpt><trkpt lat="39.48438809127545" lon="9.18182964257074"><ele>327.0</ele><time>2026-04-30T10:24:29.236Z</time></trkpt><trkpt lat="39.48424407209912" lon="9.18163796236748"><ele>327.0</ele><time>2026-04-30T10:24:30.236Z</time></trkpt><trkpt lat="39.48409470239201" lon="9.181441264769655"><ele>327.0</ele><time>2026-04-30T10:24:31.236Z</time></trkpt><trkpt lat="39.48394127397905" lon="9.18124600252751"><ele>326.6666666666667</ele><time>2026-04-30T10:24:32.236Z</time></trkpt><trkpt lat="39.483788960685374" lon="9.181051009043122"><ele>326.33333333333337</ele><time>2026-04-30T10:24:33.236Z</time></trkpt><trkpt lat="39.48363341621909" lon="9.180854645684663"><ele>326.0</ele><time>2026-04-30T10:24:34.236Z</time></trkpt><trkpt lat="39.483482266277804" lon="9.180653722072798"><ele>326.6666666666667</ele><time>2026-04-30T10:24:35.236Z</time></trkpt><trkpt lat="39.48332687726137" lon="9.18044976247633"><ele>327.3333333333333</ele><time>2026-04-30T10:24:36.236Z</time></trkpt><trkpt lat="39.48317788135252" lon="9.180241334691535"><ele>328.0</ele><time>2026-04-30T10:24:37.236Z</time></trkpt><trkpt lat="39.48304402585047" lon="9.180040699520887"><ele>327.66666666666663</ele><time>2026-04-30T10:24:38.236Z</time></trkpt><trkpt lat="39.48291782331463" lon="9.179857981927665"><ele>327.3333333333333</ele><time>2026-04-30T10:24:39.236Z</time></trkpt><trkpt lat="39.48281035292514" lon="9.179708242018512"><ele>327.0</ele><time>2026-04-30T10:24:40.236Z</time></trkpt><trkpt lat="39.48272361786487" lon="9.179588228268852"><ele>327.3333333333333</ele><time>2026-04-30T10:24:41.236Z</time></trkpt><trkpt lat="39.48264536533541" lon="9.179495841962817"><ele>327.6666666666667</ele><time>2026-04-30T10:24:42.236Z</time></trkpt><trkpt lat="39.482582722480956" lon="9.179426884249432"><ele>328.0</ele><time>2026-04-30T10:24:43.236Z</time></trkpt><trkpt lat="39.48253532686825" lon="9.179371291489565"><ele>328.33333333333337</ele><time>2026-04-30T10:24:44.236Z</time></trkpt><trkpt lat="39.48244968589578" lon="9.179295330703294"><ele>328.6666666666667</ele><time>2026-04-30T10:24:46.236Z</time></trkpt><trkpt lat="39.482386382361824" lon="9.179244006001543"><ele>329.0</ele><time>2026-04-30T10:26:34.238Z</time></trkpt><trkpt lat="39.48227889724262" lon="9.17914289622958"><ele>329.0</ele><time>2026-04-30T10:26:36.238Z</time></trkpt><trkpt lat="39.482203788812996" lon="9.179065526142837"><ele>329.0</ele><time>2026-04-30T10:26:37.238Z</time></trkpt><trkpt lat="39.482114561934424" lon="9.178971793620727"><ele>329.0</ele><time>2026-04-30T10:26:38.238Z</time></trkpt><trkpt lat="39.48202574545118" lon="9.178874307430421"><ele>329.0</ele><time>2026-04-30T10:26:39.238Z</time></trkpt><trkpt lat="39.48193100040566" lon="9.178782347617298"><ele>329.0</ele><time>2026-04-30T10:26:40.238Z</time></trkpt><trkpt lat="39.48183281986347" lon="9.178690030568456"><ele>328.75</ele><time>2026-04-30T10:26:41.238Z</time></trkpt><trkpt lat="39.48173452911166" lon="9.17858951002301"><ele>328.5</ele><time>2026-04-30T10:26:42.238Z</time></trkpt><trkpt lat="39.48162973975717" lon="9.178488120619855"><ele>328.25</ele><time>2026-04-30T10:26:43.238Z</time></trkpt><trkpt lat="39.48152273277071" lon="9.178381125625735"><ele>328.0</ele><time>2026-04-30T10:26:44.238Z</time></trkpt><trkpt lat="39.48141297684228" lon="9.17826976176248"><ele>327.75</ele><time>2026-04-30T10:26:45.238Z</time></trkpt><trkpt lat="39.48130142502708" lon="9.178156521176648"><ele>327.5</ele><time>2026-04-30T10:26:46.238Z</time></trkpt><trkpt lat="39.481188427550634" lon="9.178035330390136"><ele>327.25</ele><time>2026-04-30T10:26:47.238Z</time></trkpt><trkpt lat="39.481070973425446" lon="9.177893207695726"><ele>327.0</ele><time>2026-04-30T10:26:48.238Z</time></trkpt><trkpt lat="39.480964111382576" lon="9.17773838930782"><ele>326.3333333333333</ele><time>2026-04-30T10:26:49.238Z</time></trkpt><trkpt lat="39.48086946496673" lon="9.177559635458927"><ele>325.66666666666663</ele><time>2026-04-30T10:26:50.238Z</time></trkpt><trkpt lat="39.480784347729006" lon="9.17736592611542"><ele>325.0</ele><time>2026-04-30T10:26:51.238Z</time></trkpt><trkpt lat="39.48070175401707" lon="9.17716544651274"><ele>324.3333333333333</ele><time>2026-04-30T10:26:52.238Z</time></trkpt><trkpt lat="39.48062049978743" lon="9.17695934917866"><ele>323.6666666666667</ele><time>2026-04-30T10:26:53.238Z</time></trkpt><trkpt lat="39.48053708071193" lon="9.176754242457896"><ele>323.0</ele><time>2026-04-30T10:26:54.238Z</time></trkpt><trkpt lat="39.48045643996171" lon="9.176545481801831"><ele>318.6666666666667</ele><time>2026-04-30T10:26:55.238Z</time></trkpt><trkpt lat="39.48038887367671" lon="9.176327559344154"><ele>314.3333333333333</ele><time>2026-04-30T10:26:56.238Z</time></trkpt><trkpt lat="39.480356117738935" lon="9.176104067113593"><ele>310.0</ele><time>2026-04-30T10:26:57.238Z</time></trkpt><trkpt lat="39.48036446234725" lon="9.175873825940167"><ele>309.0</ele><time>2026-04-30T10:26:58.238Z</time></trkpt><trkpt lat="39.48040815580841" lon="9.175644818086973"><ele>308.0</ele><time>2026-04-30T10:26:59.238Z</time></trkpt><trkpt lat="39.48045639596038" lon="9.17541115087736"><ele>307.0</ele><time>2026-04-30T10:27:00.238Z</time></trkpt><trkpt lat="39.48048634914868" lon="9.175169768539556"><ele>309.3333333333333</ele><time>2026-04-30T10:27:01.238Z</time></trkpt><trkpt lat="39.48049197521134" lon="9.174922924774675"><ele>311.6666666666667</ele><time>2026-04-30T10:27:02.238Z</time></trkpt><trkpt lat="39.48048888769724" lon="9.174675839218597"><ele>314.0</ele><time>2026-04-30T10:27:03.238Z</time></trkpt><trkpt lat="39.480482158252656" lon="9.17443902573693"><ele>314.0</ele><time>2026-04-30T10:27:04.238Z</time></trkpt><trkpt lat="39.48046570292987" lon="9.174216931117133"><ele>314.0</ele><time>2026-04-30T10:27:05.238Z</time></trkpt><trkpt lat="39.48042088601655" lon="9.174007763320468"><ele>314.0</ele><time>2026-04-30T10:27:06.238Z</time></trkpt><trkpt lat="39.48034409699349" lon="9.173815758669065"><ele>310.33333333333337</ele><time>2026-04-30T10:27:07.238Z</time></trkpt><trkpt lat="39.48025225423491" lon="9.173636268794581"><ele>306.6666666666667</ele><time>2026-04-30T10:27:08.238Z</time></trkpt><trkpt lat="39.48014438744221" lon="9.173464449135077"><ele>303.0</ele><time>2026-04-30T10:27:09.238Z</time></trkpt><trkpt lat="39.480040191904564" lon="9.173298938807088"><ele>303.3333333333333</ele><time>2026-04-30T10:27:10.238Z</time></trkpt><trkpt lat="39.47993008490952" lon="9.173136652020185"><ele>303.66666666666663</ele><time>2026-04-30T10:27:11.238Z</time></trkpt><trkpt lat="39.47982670367926" lon="9.172991381018234"><ele>304.0</ele><time>2026-04-30T10:27:12.238Z</time></trkpt><trkpt lat="39.479724710323396" lon="9.172852845556333"><ele>304.0</ele><time>2026-04-30T10:27:13.238Z</time></trkpt><trkpt lat="39.479626418530685" lon="9.172727975616695"><ele>304.0</ele><time>2026-04-30T10:27:14.238Z</time></trkpt><trkpt lat="39.479521764669926" lon="9.172615314857374"><ele>304.0</ele><time>2026-04-30T10:27:15.238Z</time></trkpt><trkpt lat="39.47940975310205" lon="9.17249958482673"><ele>304.0</ele><time>2026-04-30T10:27:16.238Z</time></trkpt><trkpt lat="39.479300864357285" lon="9.17238956962344"><ele>302.25</ele><time>2026-04-30T10:27:17.238Z</time></trkpt><trkpt lat="39.479194500076595" lon="9.172283273274488"><ele>300.5</ele><time>2026-04-30T10:27:18.238Z</time></trkpt><trkpt lat="39.47908951660662" lon="9.172180885089505"><ele>298.75</ele><time>2026-04-30T10:27:19.238Z</time></trkpt><trkpt lat="39.478989968026575" lon="9.172082292449433"><ele>297.0</ele><time>2026-04-30T10:27:20.24Z</time></trkpt><trkpt lat="39.47889826428624" lon="9.171985906938355"><ele>297.0</ele><time>2026-04-30T10:27:21.238Z</time></trkpt><trkpt lat="39.47880625951522" lon="9.17190085824936"><ele>297.0</ele><time>2026-04-30T10:27:22.238Z</time></trkpt><trkpt lat="39.47871377357732" lon="9.171821339288467"><ele>297.0</ele><time>2026-04-30T10:27:23.239Z</time></trkpt><trkpt lat="39.47862996251875" lon="9.171749539745349"><ele>297.0</ele><time>2026-04-30T10:27:24.239Z</time></trkpt><trkpt lat="39.478448931227405" lon="9.171586841534223"><ele>296.4</ele><time>2026-04-30T10:27:26.239Z</time></trkpt><trkpt lat="39.47836192959948" lon="9.171502381600325"><ele>295.79999999999995</ele><time>2026-04-30T10:27:27.24Z</time></trkpt><trkpt lat="39.478267680312186" lon="9.171424069993039"><ele>295.2</ele><time>2026-04-30T10:27:28.24Z</time></trkpt><trkpt lat="39.47818011402943" lon="9.171341434208323"><ele>294.59999999999997</ele><time>2026-04-30T10:27:29.24Z</time></trkpt><trkpt lat="39.47810385685759" lon="9.171261920380717"><ele>294.0</ele><time>2026-04-30T10:27:30.239Z</time></trkpt><trkpt lat="39.478027668048405" lon="9.17118855015257"><ele>294.0</ele><time>2026-04-30T10:27:31.239Z</time></trkpt><trkpt lat="39.47796059388125" lon="9.1711170802363"><ele>294.0</ele><time>2026-04-30T10:27:32.239Z</time></trkpt><trkpt lat="39.47789664397577" lon="9.171043884232189"><ele>294.0</ele><time>2026-04-30T10:27:33.239Z</time></trkpt><trkpt lat="39.47783140359515" lon="9.17096808643919"><ele>294.0</ele><time>2026-04-30T10:27:34.239Z</time></trkpt><trkpt lat="39.47777112826154" lon="9.17089404337028"><ele>294.0</ele><time>2026-04-30T10:27:35.239Z</time></trkpt><trkpt lat="39.47770490369586" lon="9.17081805410394"><ele>294.0</ele><time>2026-04-30T10:27:36.239Z</time></trkpt><trkpt lat="39.477635592972256" lon="9.170739625582362"><ele>293.2</ele><time>2026-04-30T10:27:37.239Z</time></trkpt><trkpt lat="39.477570032626566" lon="9.170657596352541"><ele>292.4</ele><time>2026-04-30T10:27:38.239Z</time></trkpt><trkpt lat="39.477498529997156" lon="9.1705675626765"><ele>291.6</ele><time>2026-04-30T10:27:39.239Z</time></trkpt><trkpt lat="39.47742677485421" lon="9.170492945908695"><ele>290.8</ele><time>2026-04-30T10:27:40.239Z</time></trkpt><trkpt lat="39.47736109747084" lon="9.170409629726574"><ele>290.0</ele><time>2026-04-30T10:27:41.239Z</time></trkpt><trkpt lat="39.477298161144745" lon="9.170322380426573"><ele>290.0</ele><time>2026-04-30T10:27:42.239Z</time></trkpt><trkpt lat="39.47723146884116" lon="9.170249212057584"><ele>290.0</ele><time>2026-04-30T10:27:43.239Z</time></trkpt><trkpt lat="39.477165902276134" lon="9.170176892909172"><ele>290.0</ele><time>2026-04-30T10:27:44.239Z</time></trkpt><trkpt lat="39.47710631864355" lon="9.170107654802232"><ele>290.0</ele><time>2026-04-30T10:27:45.239Z</time></trkpt><trkpt lat="39.47705205915565" lon="9.170041750543065"><ele>290.0</ele><time>2026-04-30T10:27:46.239Z</time></trkpt><trkpt lat="39.476995195767344" lon="9.16997140799639"><ele>290.0</ele><time>2026-04-30T10:27:47.239Z</time></trkpt><trkpt lat="39.47692207492283" lon="9.16990221627245"><ele>289.6666666666667</ele><time>2026-04-30T10:27:49.239Z</time></trkpt><trkpt lat="39.476840132923925" lon="9.16987537482477"><ele>289.33333333333337</ele><time>2026-04-30T10:27:51.239Z</time></trkpt><trkpt lat="39.47679320375221" lon="9.169820599892551"><ele>289.0</ele><time>2026-04-30T10:27:52.239Z</time></trkpt><trkpt lat="39.47672298948023" lon="9.16980926603085"><ele>288.6666666666667</ele><time>2026-04-30T10:27:53.24Z</time></trkpt><trkpt lat="39.47664582239409" lon="9.169815244717345"><ele>288.3333333333333</ele><time>2026-04-30T10:27:54.24Z</time></trkpt><trkpt lat="39.47656114420712" lon="9.169847193874897"><ele>288.0</ele><time>2026-04-30T10:27:55.24Z</time></trkpt><trkpt lat="39.476490160146774" lon="9.16989602514017"><ele>288.6666666666667</ele><time>2026-04-30T10:27:56.24Z</time></trkpt><trkpt lat="39.476410192776825" lon="9.169935482366604"><ele>289.3333333333333</ele><time>2026-04-30T10:27:57.24Z</time></trkpt><trkpt lat="39.476329149792704" lon="9.169967906901036"><ele>290.0</ele><time>2026-04-30T10:27:58.24Z</time></trkpt><trkpt lat="39.476238144987555" lon="9.169999688630163"><ele>290.66666666666663</ele><time>2026-04-30T10:27:59.24Z</time></trkpt><trkpt lat="39.47615056240881" lon="9.170040957357832"><ele>291.3333333333333</ele><time>2026-04-30T10:28:00.24Z</time></trkpt><trkpt lat="39.47606737659592" lon="9.170081260554282"><ele>292.0</ele><time>2026-04-30T10:28:01.24Z</time></trkpt><trkpt lat="39.47596805229045" lon="9.170122619217961"><ele>292.0</ele><time>2026-04-30T10:28:02.24Z</time></trkpt><trkpt lat="39.47586570589953" lon="9.170167593380784"><ele>292.0</ele><time>2026-04-30T10:28:03.24Z</time></trkpt><trkpt lat="39.47576615083564" lon="9.17021753444698"><ele>292.0</ele><time>2026-04-30T10:28:04.24Z</time></trkpt><trkpt lat="39.47566622925464" lon="9.170266531702529"><ele>292.0</ele><time>2026-04-30T10:28:05.24Z</time></trkpt><trkpt lat="39.47555803142737" lon="9.170299217914105"><ele>292.0</ele><time>2026-04-30T10:28:06.24Z</time></trkpt><trkpt lat="39.47545573147539" lon="9.170342391865887"><ele>292.0</ele><time>2026-04-30T10:28:07.24Z</time></trkpt><trkpt lat="39.47535133907462" lon="9.17039343552606"><ele>292.0</ele><time>2026-04-30T10:28:08.24Z</time></trkpt><trkpt lat="39.47524437035687" lon="9.170445774893476"><ele>292.0</ele><time>2026-04-30T10:28:09.24Z</time></trkpt><trkpt lat="39.47513940839222" lon="9.170481140688517"><ele>292.0</ele><time>2026-04-30T10:28:10.24Z</time></trkpt><trkpt lat="39.475030703196" lon="9.17052711563179"><ele>292.0</ele><time>2026-04-30T10:28:11.24Z</time></trkpt><trkpt lat="39.47491702508571" lon="9.170583934653713"><ele>292.0</ele><time>2026-04-30T10:28:12.24Z</time></trkpt><trkpt lat="39.47480237472925" lon="9.170647991354222"><ele>292.0</ele><time>2026-04-30T10:28:13.24Z</time></trkpt><trkpt lat="39.47469647007302" lon="9.170706416852461"><ele>292.0</ele><time>2026-04-30T10:28:14.24Z</time></trkpt><trkpt lat="39.474589771357685" lon="9.170767223245187"><ele>292.0</ele><time>2026-04-30T10:28:15.24Z</time></trkpt><trkpt lat="39.47448708873245" lon="9.170839916248719"><ele>292.5</ele><time>2026-04-30T10:28:16.24Z</time></trkpt><trkpt lat="39.47437817657594" lon="9.170914053592387"><ele>293.0</ele><time>2026-04-30T10:28:17.24Z</time></trkpt><trkpt lat="39.47428238033843" lon="9.17099211112191"><ele>293.5</ele><time>2026-04-30T10:28:18.24Z</time></trkpt><trkpt lat="39.474185035043355" lon="9.171081914712033"><ele>294.0</ele><time>2026-04-30T10:28:19.24Z</time></trkpt><trkpt lat="39.4740833108083" lon="9.171170967238332"><ele>294.0</ele><time>2026-04-30T10:28:20.24Z</time></trkpt><trkpt lat="39.47397637433038" lon="9.171262076509672"><ele>294.0</ele><time>2026-04-30T10:28:21.24Z</time></trkpt><trkpt lat="39.47386616691886" lon="9.171359708995924"><ele>294.0</ele><time>2026-04-30T10:28:22.24Z</time></trkpt><trkpt lat="39.47375089712284" lon="9.171457729795986"><ele>294.0</ele><time>2026-04-30T10:28:23.24Z</time></trkpt><trkpt lat="39.473631546121496" lon="9.17155475783306"><ele>292.75</ele><time>2026-04-30T10:28:24.24Z</time></trkpt><trkpt lat="39.47351094751738" lon="9.17164299402403"><ele>291.5</ele><time>2026-04-30T10:28:25.24Z</time></trkpt><trkpt lat="39.473381356301616" lon="9.171712287897424"><ele>290.25</ele><time>2026-04-30T10:28:26.24Z</time></trkpt><trkpt lat="39.473243836575925" lon="9.17177801763711"><ele>289.0</ele><time>2026-04-30T10:28:27.24Z</time></trkpt><trkpt lat="39.473091722144595" lon="9.171803638426182"><ele>288.0</ele><time>2026-04-30T10:28:28.24Z</time></trkpt><trkpt lat="39.47293575077167" lon="9.171799285786033"><ele>287.0</ele><time>2026-04-30T10:28:29.24Z</time></trkpt><trkpt lat="39.47278282723543" lon="9.17176875995792"><ele>286.0</ele><time>2026-04-30T10:28:30.24Z</time></trkpt><trkpt lat="39.472628185583154" lon="9.17170633186035"><ele>286.0</ele><time>2026-04-30T10:28:31.24Z</time></trkpt><trkpt lat="39.4724778014537" lon="9.171615667298033"><ele>286.0</ele><time>2026-04-30T10:28:32.24Z</time></trkpt><trkpt lat="39.47234385346129" lon="9.17149627632478"><ele>286.0</ele><time>2026-04-30T10:28:33.24Z</time></trkpt><trkpt lat="39.47223949450732" lon="9.171322788109897"><ele>286.0</ele><time>2026-04-30T10:28:34.24Z</time></trkpt><trkpt lat="39.4721424516052" lon="9.171159047265581"><ele>286.0</ele><time>2026-04-30T10:28:35.24Z</time></trkpt><trkpt lat="39.47204253464696" lon="9.170979070749764"><ele>286.0</ele><time>2026-04-30T10:28:36.24Z</time></trkpt><trkpt lat="39.47194443287439" lon="9.170797218820017"><ele>284.66666666666663</ele><time>2026-04-30T10:28:37.24Z</time></trkpt><trkpt lat="39.471837223533235" lon="9.170612103950877"><ele>283.3333333333333</ele><time>2026-04-30T10:28:38.24Z</time></trkpt><trkpt lat="39.47173559109825" lon="9.170421127318589"><ele>282.0</ele><time>2026-04-30T10:28:39.24Z</time></trkpt><trkpt lat="39.471639586951504" lon="9.170230540839126"><ele>282.0</ele><time>2026-04-30T10:28:40.24Z</time></trkpt><trkpt lat="39.4715247319126" lon="9.170057612125401"><ele>282.0</ele><time>2026-04-30T10:28:41.24Z</time></trkpt><trkpt lat="39.47139297485189" lon="9.169899514099685"><ele>282.0</ele><time>2026-04-30T10:28:42.24Z</time></trkpt><trkpt lat="39.471240818582984" lon="9.169757713665522"><ele>281.6666666666667</ele><time>2026-04-30T10:28:43.24Z</time></trkpt><trkpt lat="39.471076473864116" lon="9.169634921100494"><ele>281.33333333333337</ele><time>2026-04-30T10:28:44.24Z</time></trkpt><trkpt lat="39.470901353335094" lon="9.169524973177896"><ele>281.0</ele><time>2026-04-30T10:28:45.24Z</time></trkpt><trkpt lat="39.470710377006114" lon="9.169422816875638"><ele>281.0</ele><time>2026-04-30T10:28:46.24Z</time></trkpt><trkpt lat="39.47051786812494" lon="9.169314916740007"><ele>281.0</ele><time>2026-04-30T10:28:47.24Z</time></trkpt><trkpt lat="39.470315750988775" lon="9.169210526610001"><ele>281.0</ele><time>2026-04-30T10:28:48.24Z</time></trkpt><trkpt lat="39.470101673888045" lon="9.16910656974174"><ele>276.5</ele><time>2026-04-30T10:28:49.24Z</time></trkpt><trkpt lat="39.46988893065741" lon="9.169003594615067"><ele>272.0</ele><time>2026-04-30T10:28:50.24Z</time></trkpt><trkpt lat="39.46967238543198" lon="9.16889878504853"><ele>272.0</ele><time>2026-04-30T10:28:51.24Z</time></trkpt><trkpt lat="39.46945378874982" lon="9.168776131023414"><ele>272.0</ele><time>2026-04-30T10:28:52.24Z</time></trkpt><trkpt lat="39.46923166459865" lon="9.168659240793087"><ele>272.0</ele><time>2026-04-30T10:28:53.24Z</time></trkpt><trkpt lat="39.46900813479531" lon="9.168544888509661"><ele>272.0</ele><time>2026-04-30T10:28:54.24Z</time></trkpt><trkpt lat="39.468783486251425" lon="9.168436800333835"><ele>273.5</ele><time>2026-04-30T10:28:55.24Z</time></trkpt><trkpt lat="39.46856032822439" lon="9.168321036585983"><ele>275.0</ele><time>2026-04-30T10:28:56.24Z</time></trkpt><trkpt lat="39.468342240143265" lon="9.168209332071008"><ele>277.0</ele><time>2026-04-30T10:28:57.24Z</time></trkpt><trkpt lat="39.46812737196467" lon="9.168100279385547"><ele>279.0</ele><time>2026-04-30T10:28:58.24Z</time></trkpt><trkpt lat="39.4679191078531" lon="9.167992891036652"><ele>281.3333333333333</ele><time>2026-04-30T10:28:59.24Z</time></trkpt><trkpt lat="39.46771448833037" lon="9.167882578156823"><ele>283.66666666666663</ele><time>2026-04-30T10:29:00.24Z</time></trkpt><trkpt lat="39.46750920961964" lon="9.167772054474023"><ele>286.0</ele><time>2026-04-30T10:29:01.24Z</time></trkpt><trkpt lat="39.467299803340254" lon="9.167672793896763"><ele>287.3333333333333</ele><time>2026-04-30T10:29:02.24Z</time></trkpt><trkpt lat="39.467099746375034" lon="9.167570460680045"><ele>288.6666666666667</ele><time>2026-04-30T10:29:03.24Z</time></trkpt><trkpt lat="39.46689740563679" lon="9.167455819277183"><ele>290.0</ele><time>2026-04-30T10:29:04.24Z</time></trkpt><trkpt lat="39.466699849286194" lon="9.167327791998092"><ele>290.5</ele><time>2026-04-30T10:29:05.24Z</time></trkpt><trkpt lat="39.46651426009476" lon="9.167169228325873"><ele>291.0</ele><time>2026-04-30T10:29:06.24Z</time></trkpt><trkpt lat="39.46634123206382" lon="9.166976029680912"><ele>293.0</ele><time>2026-04-30T10:29:07.24Z</time></trkpt><trkpt lat="39.46618761430315" lon="9.166760545143982"><ele>295.0</ele><time>2026-04-30T10:29:08.24Z</time></trkpt><trkpt lat="39.46605073642936" lon="9.166525028545408"><ele>296.5</ele><time>2026-04-30T10:29:09.24Z</time></trkpt><trkpt lat="39.46592717493263" lon="9.166279033340214"><ele>298.0</ele><time>2026-04-30T10:29:10.24Z</time></trkpt><trkpt lat="39.46580722346775" lon="9.166027238466002"><ele>298.0</ele><time>2026-04-30T10:29:11.24Z</time></trkpt><trkpt lat="39.46568585776938" lon="9.16577039033176"><ele>298.0</ele><time>2026-04-30T10:29:12.24Z</time></trkpt><trkpt lat="39.46556368942798" lon="9.165519771483869"><ele>301.0</ele><time>2026-04-30T10:29:13.24Z</time></trkpt><trkpt lat="39.465442581491445" lon="9.165269765956575"><ele>304.0</ele><time>2026-04-30T10:29:14.24Z</time></trkpt><trkpt lat="39.46532560434156" lon="9.165019271189411"><ele>305.3333333333333</ele><time>2026-04-30T10:29:15.24Z</time></trkpt><trkpt lat="39.465209088216476" lon="9.164775811045038"><ele>306.6666666666667</ele><time>2026-04-30T10:29:16.24Z</time></trkpt><trkpt lat="39.46509058495308" lon="9.164532388037424"><ele>308.0</ele><time>2026-04-30T10:29:17.24Z</time></trkpt><trkpt lat="39.46497141117898" lon="9.164292491211082"><ele>308.0</ele><time>2026-04-30T10:29:18.24Z</time></trkpt><trkpt lat="39.46485222832004" lon="9.164045313703667"><ele>308.0</ele><time>2026-04-30T10:29:19.24Z</time></trkpt><trkpt lat="39.464730767409065" lon="9.163796870347381"><ele>312.0</ele><time>2026-04-30T10:29:20.24Z</time></trkpt><trkpt lat="39.464605713808645" lon="9.163547236129622"><ele>316.0</ele><time>2026-04-30T10:29:21.24Z</time></trkpt><trkpt lat="39.46447918943474" lon="9.163301090947508"><ele>314.0</ele><time>2026-04-30T10:29:22.24Z</time></trkpt><trkpt lat="39.46436080812612" lon="9.163049686619914"><ele>312.0</ele><time>2026-04-30T10:29:23.24Z</time></trkpt><trkpt lat="39.464241043191215" lon="9.162804902488784"><ele>312.0</ele><time>2026-04-30T10:29:24.24Z</time></trkpt><trkpt lat="39.464123256576386" lon="9.162555506047129"><ele>312.0</ele><time>2026-04-30T10:29:25Z</time></trkpt><trkpt lat="39.46400415459977" lon="9.162303602958518"><ele>310.3333333333333</ele><time>2026-04-30T10:29:25.999Z</time></trkpt><trkpt lat="39.46388175780194" lon="9.162060970198944"><ele>308.66666666666663</ele><time>2026-04-30T10:29:26.999Z</time></trkpt><trkpt lat="39.463761994970476" lon="9.16181508778005"><ele>307.0</ele><time>2026-04-30T10:29:28Z</time></trkpt><trkpt lat="39.46364799255938" lon="9.161579314648854"><ele>312.3333333333333</ele><time>2026-04-30T10:29:28.999Z</time></trkpt><trkpt lat="39.463535652004865" lon="9.161342234724444"><ele>317.6666666666667</ele><time>2026-04-30T10:29:29.999Z</time></trkpt><trkpt lat="39.463420503684205" lon="9.16110254624167"><ele>323.0</ele><time>2026-04-30T10:29:31Z</time></trkpt><trkpt lat="39.46330597143267" lon="9.160859636109407"><ele>323.0</ele><time>2026-04-30T10:29:32Z</time></trkpt><trkpt lat="39.4631863838874" lon="9.160614797922296"><ele>323.0</ele><time>2026-04-30T10:29:33Z</time></trkpt><trkpt lat="39.46306705570569" lon="9.160366132455328"><ele>322.0</ele><time>2026-04-30T10:29:34Z</time></trkpt><trkpt lat="39.462937595101906" lon="9.160123306811402"><ele>321.0</ele><time>2026-04-30T10:29:35Z</time></trkpt><trkpt lat="39.462794601945134" lon="9.159891006326863"><ele>327.0</ele><time>2026-04-30T10:29:36Z</time></trkpt><trkpt lat="39.462633106694064" lon="9.159676351323778"><ele>333.0</ele><time>2026-04-30T10:29:36.999Z</time></trkpt><trkpt lat="39.46245746770713" lon="9.159483425850441"><ele>333.0</ele><time>2026-04-30T10:29:37.999Z</time></trkpt><trkpt lat="39.46227728471074" lon="9.159304456013626"><ele>333.0</ele><time>2026-04-30T10:29:38.999Z</time></trkpt><trkpt lat="39.46208230573892" lon="9.159146605886052"><ele>337.5</ele><time>2026-04-30T10:29:39.999Z</time></trkpt><trkpt lat="39.46187479458128" lon="9.159011227850982"><ele>342.0</ele><time>2026-04-30T10:29:40.999Z</time></trkpt><trkpt lat="39.4616598932481" lon="9.158897069650195"><ele>342.0</ele><time>2026-04-30T10:29:41.999Z</time></trkpt><trkpt lat="39.461435814404865" lon="9.158803203071598"><ele>342.0</ele><time>2026-04-30T10:29:42.999Z</time></trkpt><trkpt lat="39.461205617263246" lon="9.15873255389836"><ele>341.0</ele><time>2026-04-30T10:29:43.999Z</time></trkpt><trkpt lat="39.46096934898627" lon="9.158675812411285"><ele>340.0</ele><time>2026-04-30T10:29:44.999Z</time></trkpt><trkpt lat="39.460730199265534" lon="9.158630536252451"><ele>340.0</ele><time>2026-04-30T10:29:45.999Z</time></trkpt><trkpt lat="39.46048975195233" lon="9.158582332458504"><ele>340.0</ele><time>2026-04-30T10:29:46.999Z</time></trkpt><trkpt lat="39.460253147255614" lon="9.158531864472367"><ele>339.0</ele><time>2026-04-30T10:29:47.999Z</time></trkpt><trkpt lat="39.460018967079755" lon="9.15848393358223"><ele>338.0</ele><time>2026-04-30T10:29:48.999Z</time></trkpt><trkpt lat="39.45978967973068" lon="9.158441961894574"><ele>338.0</ele><time>2026-04-30T10:29:49.999Z</time></trkpt><trkpt lat="39.45955986349949" lon="9.158420325343315"><ele>338.0</ele><time>2026-04-30T10:29:50.999Z</time></trkpt><trkpt lat="39.45933405808553" lon="9.158463085076388"><ele>338.0</ele><time>2026-04-30T10:29:51.999Z</time></trkpt><trkpt lat="39.45912270402647" lon="9.158562641306927"><ele>338.0</ele><time>2026-04-30T10:29:52.999Z</time></trkpt><trkpt lat="39.45892882125334" lon="9.158701132417603"><ele>338.0</ele><time>2026-04-30T10:29:53.999Z</time></trkpt><trkpt lat="39.45874621732989" lon="9.15884663085194"><ele>336.33333333333337</ele><time>2026-04-30T10:29:54.999Z</time></trkpt><trkpt lat="39.458554677804784" lon="9.158967356459822"><ele>334.6666666666667</ele><time>2026-04-30T10:29:55.999Z</time></trkpt><trkpt lat="39.4583458295924" lon="9.159054089355413"><ele>333.0</ele><time>2026-04-30T10:29:56.999Z</time></trkpt><trkpt lat="39.458120269409974" lon="9.159122238077902"><ele>333.0</ele><time>2026-04-30T10:29:57.999Z</time></trkpt><trkpt lat="39.45788327248174" lon="9.159158625127741"><ele>333.0</ele><time>2026-04-30T10:29:58.999Z</time></trkpt><trkpt lat="39.457637929555155" lon="9.159172736800379"><ele>333.0</ele><time>2026-04-30T10:29:59.999Z</time></trkpt><trkpt lat="39.45739173067048" lon="9.159188354871452"><ele>333.0</ele><time>2026-04-30T10:30:00.999Z</time></trkpt><trkpt lat="39.45714974189246" lon="9.159208151080172"><ele>330.0</ele><time>2026-04-30T10:30:01.999Z</time></trkpt><trkpt lat="39.45691391769207" lon="9.15922438748537"><ele>327.0</ele><time>2026-04-30T10:30:02.999Z</time></trkpt><trkpt lat="39.45667747152495" lon="9.159241348271026"><ele>327.0</ele><time>2026-04-30T10:30:03.999Z</time></trkpt><trkpt lat="39.45644186128517" lon="9.159261385442708"><ele>327.0</ele><time>2026-04-30T10:30:04.999Z</time></trkpt><trkpt lat="39.456206416261736" lon="9.159280400865121"><ele>324.5</ele><time>2026-04-30T10:30:05.999Z</time></trkpt><trkpt lat="39.45597234043239" lon="9.159298430661632"><ele>322.0</ele><time>2026-04-30T10:30:06.999Z</time></trkpt><trkpt lat="39.45573946175545" lon="9.159318138881554"><ele>322.0</ele><time>2026-04-30T10:30:07.999Z</time></trkpt><trkpt lat="39.45552109867547" lon="9.159337095087936"><ele>322.0</ele><time>2026-04-30T10:30:08.999Z</time></trkpt><trkpt lat="39.45531256248264" lon="9.159337349749046"><ele>322.0</ele><time>2026-04-30T10:30:09.999Z</time></trkpt><trkpt lat="39.455118983600144" lon="9.15926747915063"><ele>321.3333333333333</ele><time>2026-04-30T10:30:10.999Z</time></trkpt><trkpt lat="39.454942796375754" lon="9.159119758394562"><ele>320.6666666666667</ele><time>2026-04-30T10:30:11.999Z</time></trkpt><trkpt lat="39.45479466123636" lon="9.158910114811311"><ele>320.0</ele><time>2026-04-30T10:30:12.999Z</time></trkpt><trkpt lat="39.45469530088813" lon="9.158655154555168"><ele>318.5</ele><time>2026-04-30T10:30:13.999Z</time></trkpt><trkpt lat="39.45465984391655" lon="9.158388333868094"><ele>317.0</ele><time>2026-04-30T10:30:14.999Z</time></trkpt><trkpt lat="39.454637708970125" lon="9.158073686618987"><ele>313.33333333333337</ele><time>2026-04-30T10:30:15.999Z</time></trkpt><trkpt lat="39.45455199554306" lon="9.158040396722614"><ele>309.6666666666667</ele><time>2026-04-30T10:30:16.999Z</time></trkpt><trkpt lat="39.454629763105686" lon="9.157776258937245"><ele>306.0</ele><time>2026-04-30T10:30:17.999Z</time></trkpt><trkpt lat="39.45476347656646" lon="9.157546903268063"><ele>298.5</ele><time>2026-04-30T10:30:18.999Z</time></trkpt><trkpt lat="39.45494850508244" lon="9.1573618230312"><ele>291.0</ele><time>2026-04-30T10:30:19.999Z</time></trkpt><trkpt lat="39.45516975923503" lon="9.15724283629574"><ele>291.0</ele><time>2026-04-30T10:30:20.999Z</time></trkpt><trkpt lat="39.45540709342656" lon="9.15719152165507"><ele>291.0</ele><time>2026-04-30T10:30:21.999Z</time></trkpt><trkpt lat="39.45564745280481" lon="9.15716521753793"><ele>287.5</ele><time>2026-04-30T10:30:22.999Z</time></trkpt><trkpt lat="39.455875501253274" lon="9.157103176466652"><ele>284.0</ele><time>2026-04-30T10:30:23.999Z</time></trkpt><trkpt lat="39.456104447552924" lon="9.157031855427324"><ele>289.0</ele><time>2026-04-30T10:30:24.999Z</time></trkpt><trkpt lat="39.45632303058407" lon="9.15696427739239"><ele>294.0</ele><time>2026-04-30T10:30:25.999Z</time></trkpt><trkpt lat="39.45651109149356" lon="9.15683111574083"><ele>299.0</ele><time>2026-04-30T10:30:26.999Z</time></trkpt><trkpt lat="39.45667567528512" lon="9.156641375437514"><ele>294.6666666666667</ele><time>2026-04-30T10:30:27.999Z</time></trkpt><trkpt lat="39.45680132491911" lon="9.15640562448807"><ele>290.3333333333333</ele><time>2026-04-30T10:30:28.999Z</time></trkpt><trkpt lat="39.45689480664491" lon="9.156142608367547"><ele>286.0</ele><time>2026-04-30T10:30:29.999Z</time></trkpt><trkpt lat="39.45697948503303" lon="9.15587039134235"><ele>289.0</ele><time>2026-04-30T10:30:30.999Z</time></trkpt><trkpt lat="39.457069031348546" lon="9.155599563990739"><ele>292.0</ele><time>2026-04-30T10:30:31.999Z</time></trkpt><trkpt lat="39.45716275525948" lon="9.15532699360978"><ele>292.0</ele><time>2026-04-30T10:30:32.999Z</time></trkpt><trkpt lat="39.457259535621" lon="9.155058667672924"><ele>292.0</ele><time>2026-04-30T10:30:33.999Z</time></trkpt><trkpt lat="39.457350164391755" lon="9.154797794910717"><ele>288.66666666666663</ele><time>2026-04-30T10:30:34.999Z</time></trkpt><trkpt lat="39.4574372868427" lon="9.154549670790825"><ele>285.3333333333333</ele><time>2026-04-30T10:30:35.999Z</time></trkpt><trkpt lat="39.457522738657055" lon="9.154311334722692"><ele>282.0</ele><time>2026-04-30T10:30:36.999Z</time></trkpt><trkpt lat="39.45760312103927" lon="9.154080673044382"><ele>280.0</ele><time>2026-04-30T10:30:37.999Z</time></trkpt><trkpt lat="39.457661184654384" lon="9.153849217276187"><ele>278.0</ele><time>2026-04-30T10:30:38.999Z</time></trkpt><trkpt lat="39.45768791137989" lon="9.153620494415541"><ele>276.0</ele><time>2026-04-30T10:30:39.999Z</time></trkpt><trkpt lat="39.45767018179825" lon="9.153395447393393"><ele>274.3333333333333</ele><time>2026-04-30T10:30:40.999Z</time></trkpt><trkpt lat="39.45762014282337" lon="9.153180422806567"><ele>272.66666666666663</ele><time>2026-04-30T10:30:41.999Z</time></trkpt><trkpt lat="39.45754275230818" lon="9.152985859952679"><ele>271.0</ele><time>2026-04-30T10:30:42.999Z</time></trkpt><trkpt lat="39.457442125292474" lon="9.152814131722332"><ele>271.0</ele><time>2026-04-30T10:30:43.999Z</time></trkpt><trkpt lat="39.45732571963701" lon="9.152665016796098"><ele>271.0</ele><time>2026-04-30T10:30:44.999Z</time></trkpt><trkpt lat="39.457193200526405" lon="9.152552807478441"><ele>271.0</ele><time>2026-04-30T10:30:45.999Z</time></trkpt><trkpt lat="39.457042158139714" lon="9.152457424959012"><ele>268.0</ele><time>2026-04-30T10:30:46.999Z</time></trkpt><trkpt lat="39.45687130904775" lon="9.152406602011684"><ele>265.0</ele><time>2026-04-30T10:30:47.999Z</time></trkpt><trkpt lat="39.456711557939386" lon="9.152401381408259"><ele>262.0</ele><time>2026-04-30T10:30:48.999Z</time></trkpt><trkpt lat="39.45655108200171" lon="9.152433368685397"><ele>262.0</ele><time>2026-04-30T10:30:49.999Z</time></trkpt><trkpt lat="39.456398961096475" lon="9.15249636190932"><ele>262.0</ele><time>2026-04-30T10:30:50.999Z</time></trkpt><trkpt lat="39.45626571844753" lon="9.15258862357377"><ele>262.0</ele><time>2026-04-30T10:30:51.999Z</time></trkpt><trkpt lat="39.456152245338124" lon="9.152690614780767"><ele>262.0</ele><time>2026-04-30T10:30:52.999Z</time></trkpt><trkpt lat="39.45605859515791" lon="9.152824743702745"><ele>260.66666666666663</ele><time>2026-04-30T10:30:53.999Z</time></trkpt><trkpt lat="39.45597513239734" lon="9.152984094901857"><ele>259.3333333333333</ele><time>2026-04-30T10:30:54.998Z</time></trkpt><trkpt lat="39.455910438657746" lon="9.15316328281246"><ele>258.0</ele><time>2026-04-30T10:30:55.998Z</time></trkpt><trkpt lat="39.45586876319005" lon="9.153348502262643"><ele>258.0</ele><time>2026-04-30T10:30:56.998Z</time></trkpt><trkpt lat="39.455840639714516" lon="9.153528969955568"><ele>258.0</ele><time>2026-04-30T10:30:57.998Z</time></trkpt><trkpt lat="39.45583975063855" lon="9.153705146965086"><ele>258.0</ele><time>2026-04-30T10:30:58.998Z</time></trkpt><trkpt lat="39.45585275451348" lon="9.153878878339246"><ele>258.0</ele><time>2026-04-30T10:30:59.998Z</time></trkpt><trkpt lat="39.4558597078087" lon="9.154069189139845"><ele>258.25</ele><time>2026-04-30T10:31:00.998Z</time></trkpt><trkpt lat="39.45585136321691" lon="9.15426789062342"><ele>258.5</ele><time>2026-04-30T10:31:01.998Z</time></trkpt><trkpt lat="39.45584262632465" lon="9.15446039098801"><ele>258.75</ele><time>2026-04-30T10:31:02.998Z</time></trkpt><trkpt lat="39.455820971149556" lon="9.154630301317114"><ele>259.0</ele><time>2026-04-30T10:31:03.998Z</time></trkpt><trkpt lat="39.45576772769933" lon="9.154780544312734"><ele>258.75</ele><time>2026-04-30T10:31:04.998Z</time></trkpt><trkpt lat="39.45568691931687" lon="9.154912259123627"><ele>258.5</ele><time>2026-04-30T10:31:05.998Z</time></trkpt><trkpt lat="39.4555939255055" lon="9.155021389718613"><ele>258.25</ele><time>2026-04-30T10:31:06.998Z</time></trkpt><trkpt lat="39.45548800150089" lon="9.155107077304663"><ele>258.0</ele><time>2026-04-30T10:31:07.998Z</time></trkpt><trkpt lat="39.455358580052774" lon="9.155169300398608"><ele>256.0</ele><time>2026-04-30T10:31:08.998Z</time></trkpt><trkpt lat="39.45521426462079" lon="9.15519781695917"><ele>254.0</ele><time>2026-04-30T10:31:09.998Z</time></trkpt><trkpt lat="39.45504751980113" lon="9.155191459802444"><ele>252.0</ele><time>2026-04-30T10:31:10.998Z</time></trkpt><trkpt lat="39.45486209426156" lon="9.155148310104677"><ele>252.0</ele><time>2026-04-30T10:31:11.998Z</time></trkpt><trkpt lat="39.45465029836739" lon="9.155069019911284"><ele>252.0</ele><time>2026-04-30T10:31:12.998Z</time></trkpt><trkpt lat="39.45442344730983" lon="9.154988099550536"><ele>253.0</ele><time>2026-04-30T10:31:13.998Z</time></trkpt><trkpt lat="39.45417447319967" lon="9.154921140934334"><ele>254.0</ele><time>2026-04-30T10:31:14.998Z</time></trkpt><trkpt lat="39.45392540719528" lon="9.154870058047187"><ele>246.5</ele><time>2026-04-30T10:31:15.998Z</time></trkpt><trkpt lat="39.453669063442874" lon="9.154829929322679"><ele>239.0</ele><time>2026-04-30T10:31:16.998Z</time></trkpt><trkpt lat="39.45341530780542" lon="9.154788580540002"><ele>239.0</ele><time>2026-04-30T10:31:17.998Z</time></trkpt><trkpt lat="39.4531598044116" lon="9.15477065522468"><ele>239.0</ele><time>2026-04-30T10:31:18.998Z</time></trkpt><trkpt lat="39.452901003156185" lon="9.154761959057737"><ele>233.5</ele><time>2026-04-30T10:31:19.998Z</time></trkpt><trkpt lat="39.452637868397495" lon="9.154764416442722"><ele>228.0</ele><time>2026-04-30T10:31:20.998Z</time></trkpt><trkpt lat="39.45237375272729" lon="9.154792015103258"><ele>226.5</ele><time>2026-04-30T10:31:21.998Z</time></trkpt><trkpt lat="39.452112598214356" lon="9.15483854537477"><ele>225.0</ele><time>2026-04-30T10:31:22.998Z</time></trkpt><trkpt lat="39.4518543965366" lon="9.154903611895726"><ele>225.0</ele><time>2026-04-30T10:31:23.998Z</time></trkpt><trkpt lat="39.45159335709497" lon="9.154968153431167"><ele>225.0</ele><time>2026-04-30T10:31:24.998Z</time></trkpt><trkpt lat="39.451336450958784" lon="9.155043507893176"><ele>222.5</ele><time>2026-04-30T10:31:25.998Z</time></trkpt><trkpt lat="39.45108575505359" lon="9.15514505461743"><ele>220.0</ele><time>2026-04-30T10:31:26.998Z</time></trkpt><trkpt lat="39.45084268250625" lon="9.155270579081675"><ele>220.0</ele><time>2026-04-30T10:31:27.998Z</time></trkpt><trkpt lat="39.450609728716636" lon="9.155406292903852"><ele>220.0</ele><time>2026-04-30T10:31:28.998Z</time></trkpt><trkpt lat="39.450372247821456" lon="9.155540670191494"><ele>221.5</ele><time>2026-04-30T10:31:29.998Z</time></trkpt><trkpt lat="39.45013436540895" lon="9.15567427356072"><ele>223.0</ele><time>2026-04-30T10:31:30.999Z</time></trkpt><trkpt lat="39.44989860923764" lon="9.155801791035147"><ele>223.0</ele><time>2026-04-30T10:31:31.999Z</time></trkpt><trkpt lat="39.449662910357596" lon="9.155925682428023"><ele>223.0</ele><time>2026-04-30T10:31:32.999Z</time></trkpt><trkpt lat="39.44942895380877" lon="9.156051726514491"><ele>216.5</ele><time>2026-04-30T10:31:33.999Z</time></trkpt><trkpt lat="39.44919010837081" lon="9.156182721065704"><ele>210.0</ele><time>2026-04-30T10:31:34.999Z</time></trkpt><trkpt lat="39.44895351412745" lon="9.156307520678418"><ele>207.0</ele><time>2026-04-30T10:31:35.999Z</time></trkpt><trkpt lat="39.44870806988525" lon="9.156419174226697"><ele>204.0</ele><time>2026-04-30T10:31:36.999Z</time></trkpt><trkpt lat="39.4484605545379" lon="9.156500878134235"><ele>206.5</ele><time>2026-04-30T10:31:37.999Z</time></trkpt><trkpt lat="39.44820908573004" lon="9.15654600914426"><ele>209.0</ele><time>2026-04-30T10:31:38.999Z</time></trkpt><trkpt lat="39.44795808103243" lon="9.156569545249905"><ele>209.0</ele><time>2026-04-30T10:31:39.999Z</time></trkpt><trkpt lat="39.44772280760309" lon="9.156594295448624"><ele>209.0</ele><time>2026-04-30T10:31:40.999Z</time></trkpt><trkpt lat="39.44750815181156" lon="9.156593496684156"><ele>206.0</ele><time>2026-04-30T10:31:41.999Z</time></trkpt><trkpt lat="39.44731077556358" lon="9.15651363103868"><ele>203.0</ele><time>2026-04-30T10:31:42.999Z</time></trkpt><trkpt lat="39.4471474498653" lon="9.156338547846875"><ele>200.0</ele><time>2026-04-30T10:31:43.999Z</time></trkpt><trkpt lat="39.44701717574129" lon="9.156094366949604"><ele>199.0</ele><time>2026-04-30T10:31:44.999Z</time></trkpt><trkpt lat="39.44687998520701" lon="9.155890027575884"><ele>198.0</ele><time>2026-04-30T10:31:45.999Z</time></trkpt><trkpt lat="39.44669427375673" lon="9.15579853678601"><ele>197.0</ele><time>2026-04-30T10:31:46.999Z</time></trkpt><trkpt lat="39.4464730099457" lon="9.155825213128704"><ele>194.0</ele><time>2026-04-30T10:31:47.999Z</time></trkpt><trkpt lat="39.446252686727675" lon="9.155912857224841"><ele>191.0</ele><time>2026-04-30T10:31:48.999Z</time></trkpt><trkpt lat="39.44604161711618" lon="9.156048300171223"><ele>191.0</ele><time>2026-04-30T10:31:49.999Z</time></trkpt><trkpt lat="39.44582141344352" lon="9.15612864304453"><ele>191.0</ele><time>2026-04-30T10:31:50.999Z</time></trkpt><trkpt lat="39.445600263425035" lon="9.156093503160056"><ele>191.5</ele><time>2026-04-30T10:31:51.999Z</time></trkpt><trkpt lat="39.44538881891282" lon="9.155957435165536"><ele>192.0</ele><time>2026-04-30T10:31:52.999Z</time></trkpt><trkpt lat="39.445206708428124" lon="9.155750276030915"><ele>189.0</ele><time>2026-04-30T10:31:53.999Z</time></trkpt><trkpt lat="39.445024340250725" lon="9.155546158694527"><ele>186.0</ele><time>2026-04-30T10:31:54.999Z</time></trkpt><trkpt lat="39.4448484469867" lon="9.155343228886707"><ele>186.0</ele><time>2026-04-30T10:31:55.999Z</time></trkpt><trkpt lat="39.44469403640893" lon="9.155109656565568"><ele>186.0</ele><time>2026-04-30T10:31:56.999Z</time></trkpt><trkpt lat="39.44456630632867" lon="9.154849639827933"><ele>183.5</ele><time>2026-04-30T10:31:57.999Z</time></trkpt><trkpt lat="39.44443048662044" lon="9.154602946303866"><ele>181.0</ele><time>2026-04-30T10:31:58.999Z</time></trkpt><trkpt lat="39.44426555429323" lon="9.154397727404742"><ele>181.0</ele><time>2026-04-30T10:31:59.999Z</time></trkpt><trkpt lat="39.44407818735956" lon="9.15423197200912"><ele>181.0</ele><time>2026-04-30T10:32:00.999Z</time></trkpt><trkpt lat="39.44387516341872" lon="9.154102078770874"><ele>179.0</ele><time>2026-04-30T10:32:01.999Z</time></trkpt><trkpt lat="39.44366152479126" lon="9.1539973370419"><ele>177.0</ele><time>2026-04-30T10:32:02.999Z</time></trkpt><trkpt lat="39.4434476414541" lon="9.15389665338542"><ele>177.0</ele><time>2026-04-30T10:32:03.999Z</time></trkpt><trkpt lat="39.44323537347398" lon="9.153786215907896"><ele>177.0</ele><time>2026-04-30T10:32:04.999Z</time></trkpt><trkpt lat="39.44302879192899" lon="9.153667442293386"><ele>175.5</ele><time>2026-04-30T10:32:05.999Z</time></trkpt><trkpt lat="39.442823717794916" lon="9.153542806368586"><ele>174.0</ele><time>2026-04-30T10:32:06.999Z</time></trkpt><trkpt lat="39.442613899944504" lon="9.153427964270366"><ele>174.0</ele><time>2026-04-30T10:32:07.999Z</time></trkpt><trkpt lat="39.44239930414995" lon="9.153320862516017"><ele>174.0</ele><time>2026-04-30T10:32:08.999Z</time></trkpt><trkpt lat="39.442185242825644" lon="9.153218461509947"><ele>172.5</ele><time>2026-04-30T10:32:09.999Z</time></trkpt><trkpt lat="39.441969304073474" lon="9.15310634699464"><ele>171.0</ele><time>2026-04-30T10:32:10.999Z</time></trkpt><trkpt lat="39.441756910028246" lon="9.15298850611486"><ele>171.0</ele><time>2026-04-30T10:32:11.999Z</time></trkpt><trkpt lat="39.441546157694" lon="9.152864771115699"><ele>171.0</ele><time>2026-04-30T10:32:12.999Z</time></trkpt><trkpt lat="39.44134861907582" lon="9.152724218103316"><ele>168.5</ele><time>2026-04-30T10:32:13.999Z</time></trkpt><trkpt lat="39.44115860472939" lon="9.152557041675271"><ele>166.0</ele><time>2026-04-30T10:32:14.999Z</time></trkpt><trkpt lat="39.44097852938132" lon="9.152373664300393"><ele>166.5</ele><time>2026-04-30T10:32:15.999Z</time></trkpt><trkpt lat="39.44080452342625" lon="9.15216370551857"><ele>167.0</ele><time>2026-04-30T10:32:16.999Z</time></trkpt><trkpt lat="39.44064408695161" lon="9.151931612769598"><ele>167.0</ele><time>2026-04-30T10:32:17.999Z</time></trkpt><trkpt lat="39.44048421580137" lon="9.151681435580796"><ele>167.0</ele><time>2026-04-30T10:32:18.999Z</time></trkpt><trkpt lat="39.4403233491767" lon="9.151427052789336"><ele>164.5</ele><time>2026-04-30T10:32:19.999Z</time></trkpt><trkpt lat="39.44016122685425" lon="9.15116697839722"><ele>162.0</ele><time>2026-04-30T10:32:20.999Z</time></trkpt><trkpt lat="39.4399991189702" lon="9.150911708949032"><ele>161.0</ele><time>2026-04-30T10:32:21.999Z</time></trkpt><trkpt lat="39.43983635717998" lon="9.1506595939521"><ele>160.0</ele><time>2026-04-30T10:32:22.999Z</time></trkpt><trkpt lat="39.43967394781636" lon="9.150409778945987"><ele>160.5</ele><time>2026-04-30T10:32:23.999Z</time></trkpt><trkpt lat="39.439513236565105" lon="9.150159910264305"><ele>161.0</ele><time>2026-04-30T10:32:24.999Z</time></trkpt><trkpt lat="39.43934976222537" lon="9.149911817920302"><ele>160.0</ele><time>2026-04-30T10:32:25.999Z</time></trkpt><trkpt lat="39.4391775758091" lon="9.14968215985071"><ele>159.0</ele><time>2026-04-30T10:32:26.999Z</time></trkpt><trkpt lat="39.43898621459124" lon="9.149473238968381"><ele>160.5</ele><time>2026-04-30T10:32:27.999Z</time></trkpt><trkpt lat="39.43876984017562" lon="9.149295913732004"><ele>162.0</ele><time>2026-04-30T10:32:28.999Z</time></trkpt><trkpt lat="39.43853679527974" lon="9.149143717938497"><ele>160.5</ele><time>2026-04-30T10:32:29.999Z</time></trkpt><trkpt lat="39.43830341136936" lon="9.149011562547066"><ele>159.0</ele><time>2026-04-30T10:32:30.999Z</time></trkpt><trkpt lat="39.43807031522224" lon="9.148879414656394"><ele>158.5</ele><time>2026-04-30T10:32:31.999Z</time></trkpt><trkpt lat="39.43784369851968" lon="9.148737321547888"><ele>158.0</ele><time>2026-04-30T10:32:32.999Z</time></trkpt><trkpt lat="39.437617523058734" lon="9.148584797173891"><ele>158.0</ele><time>2026-04-30T10:32:33.999Z</time></trkpt><trkpt lat="39.43738770031925" lon="9.148433071527114"><ele>158.0</ele><time>2026-04-30T10:32:34.999Z</time></trkpt><trkpt lat="39.43715361392405" lon="9.148284161039859"><ele>158.5</ele><time>2026-04-30T10:32:35.999Z</time></trkpt><trkpt lat="39.43691817185775" lon="9.148140708817474"><ele>159.0</ele><time>2026-04-30T10:32:36.999Z</time></trkpt><trkpt lat="39.4366858812454" lon="9.147994701521075"><ele>159.0</ele><time>2026-04-30T10:32:37.999Z</time></trkpt><trkpt lat="39.436447806364136" lon="9.147847024002777"><ele>159.0</ele><time>2026-04-30T10:32:38.999Z</time></trkpt><trkpt lat="39.43621233434377" lon="9.147698920000309"><ele>159.5</ele><time>2026-04-30T10:32:39.999Z</time></trkpt><trkpt lat="39.43597898903964" lon="9.147555133449996"><ele>160.0</ele><time>2026-04-30T10:32:40.999Z</time></trkpt><trkpt lat="39.43574464730218" lon="9.147421222875828"><ele>160.0</ele><time>2026-04-30T10:32:41.999Z</time></trkpt><trkpt lat="39.43551463229347" lon="9.147289314011957"><ele>160.0</ele><time>2026-04-30T10:32:42.999Z</time></trkpt><trkpt lat="39.43529112916677" lon="9.147154598213461"><ele>159.0</ele><time>2026-04-30T10:32:43.999Z</time></trkpt><trkpt lat="39.43507495234261" lon="9.147026131879826"><ele>158.0</ele><time>2026-04-30T10:32:44.999Z</time></trkpt><trkpt lat="39.43484915731921" lon="9.146924533766107"><ele>156.5</ele><time>2026-04-30T10:32:45.999Z</time></trkpt><trkpt lat="39.434615210098585" lon="9.146873483046054"><ele>155.0</ele><time>2026-04-30T10:32:46.999Z</time></trkpt><trkpt lat="39.43437786258379" lon="9.14687655644687"><ele>155.0</ele><time>2026-04-30T10:32:47.999Z</time></trkpt><trkpt lat="39.43413290820239" lon="9.14691669305408"><ele>155.0</ele><time>2026-04-30T10:32:48.999Z</time></trkpt><trkpt lat="39.433893234215944" lon="9.147020583284478"><ele>155.5</ele><time>2026-04-30T10:32:49.999Z</time></trkpt><trkpt lat="39.43366842715223" lon="9.147159396573473"><ele>156.0</ele><time>2026-04-30T10:32:50.999Z</time></trkpt><trkpt lat="39.43346865193987" lon="9.147336938013261"><ele>157.0</ele><time>2026-04-30T10:32:51.999Z</time></trkpt><trkpt lat="39.43328460919232" lon="9.147540722285346"><ele>158.0</ele><time>2026-04-30T10:32:52.999Z</time></trkpt><trkpt lat="39.43310279729597" lon="9.147753393442159"><ele>158.5</ele><time>2026-04-30T10:32:53.999Z</time></trkpt><trkpt lat="39.432912449237904" lon="9.14796214683286"><ele>159.0</ele><time>2026-04-30T10:32:54.999Z</time></trkpt><trkpt lat="39.43272581414024" lon="9.148168009892855"><ele>159.0</ele><time>2026-04-30T10:32:55.999Z</time></trkpt><trkpt lat="39.43253833815467" lon="9.148352235292352"><ele>159.0</ele><time>2026-04-30T10:32:56.999Z</time></trkpt><trkpt lat="39.4323374587585" lon="9.148495534948347"><ele>159.0</ele><time>2026-04-30T10:32:57.999Z</time></trkpt><trkpt lat="39.432120199039936" lon="9.148607952895238"><ele>159.0</ele><time>2026-04-30T10:32:58.999Z</time></trkpt><trkpt lat="39.43189182895048" lon="9.14869036418615"><ele>159.0</ele><time>2026-04-30T10:32:59.999Z</time></trkpt><trkpt lat="39.43165257786384" lon="9.148748552923657"><ele>159.0</ele><time>2026-04-30T10:33:00.999Z</time></trkpt><trkpt lat="39.43141025942304" lon="9.14877346623913"><ele>158.5</ele><time>2026-04-30T10:33:01.999Z</time></trkpt><trkpt lat="39.4311709808985" lon="9.14877455808158"><ele>158.0</ele><time>2026-04-30T10:33:02.999Z</time></trkpt><trkpt lat="39.430925641342895" lon="9.148768761748245"><ele>158.0</ele><time>2026-04-30T10:33:03.999Z</time></trkpt><trkpt lat="39.43067688464603" lon="9.148775886047632"><ele>158.0</ele><time>2026-04-30T10:33:04.999Z</time></trkpt><trkpt lat="39.430425362335164" lon="9.148783921641913"><ele>158.0</ele><time>2026-04-30T10:33:05.999Z</time></trkpt><trkpt lat="39.43018111794409" lon="9.148786612907474"><ele>158.0</ele><time>2026-04-30T10:33:06.999Z</time></trkpt><trkpt lat="39.429933202267286" lon="9.148787682739012"><ele>158.0</ele><time>2026-04-30T10:33:07.999Z</time></trkpt><trkpt lat="39.429690225522755" lon="9.148797667256991"><ele>158.0</ele><time>2026-04-30T10:33:08.999Z</time></trkpt><trkpt lat="39.42944590329237" lon="9.148789934179623"><ele>159.0</ele><time>2026-04-30T10:33:09.999Z</time></trkpt><trkpt lat="39.429203737488116" lon="9.148756978867802"><ele>160.0</ele><time>2026-04-30T10:33:10.999Z</time></trkpt><trkpt lat="39.42896393006774" lon="9.148708099043711"><ele>161.5</ele><time>2026-04-30T10:33:11.999Z</time></trkpt><trkpt lat="39.428726150067696" lon="9.1486479510639"><ele>163.0</ele><time>2026-04-30T10:33:12.999Z</time></trkpt><trkpt lat="39.428482680680645" lon="9.14858424081441"><ele>163.0</ele><time>2026-04-30T10:33:13.999Z</time></trkpt><trkpt lat="39.428237145516086" lon="9.148521715567394"><ele>163.0</ele><time>2026-04-30T10:33:14.999Z</time></trkpt><trkpt lat="39.42799332463637" lon="9.148467730728083"><ele>163.5</ele><time>2026-04-30T10:33:15.999Z</time></trkpt><trkpt lat="39.42775025092863" lon="9.148404589549576"><ele>164.0</ele><time>2026-04-30T10:33:16.999Z</time></trkpt><trkpt lat="39.427505058095306" lon="9.148344643930413"><ele>164.0</ele><time>2026-04-30T10:33:17.999Z</time></trkpt><trkpt lat="39.42725783210397" lon="9.148286971272471"><ele>164.0</ele><time>2026-04-30T10:33:18.999Z</time></trkpt><trkpt lat="39.427017008488384" lon="9.148227209291898"><ele>162.5</ele><time>2026-04-30T10:33:19.999Z</time></trkpt><trkpt lat="39.426778156798086" lon="9.14816841533306"><ele>161.0</ele><time>2026-04-30T10:33:20.999Z</time></trkpt><trkpt lat="39.42653731739225" lon="9.148101835472826"><ele>161.5</ele><time>2026-04-30T10:33:21.999Z</time></trkpt><trkpt lat="39.426297312289286" lon="9.148037024851295"><ele>162.0</ele><time>2026-04-30T10:33:22.999Z</time></trkpt><trkpt lat="39.426059091856104" lon="9.147971931105198"><ele>162.0</ele><time>2026-04-30T10:33:23.999Z</time></trkpt><trkpt lat="39.42582514107171" lon="9.147908596791389"><ele>162.0</ele><time>2026-04-30T10:33:24.999Z</time></trkpt><trkpt lat="39.425588808456745" lon="9.147849619244598"><ele>165.5</ele><time>2026-04-30T10:33:25.999Z</time></trkpt><trkpt lat="39.42535411182881" lon="9.147793254414326"><ele>169.0</ele><time>2026-04-30T10:33:26.999Z</time></trkpt><trkpt lat="39.42512347949228" lon="9.147735334369203"><ele>169.0</ele><time>2026-04-30T10:33:27.999Z</time></trkpt><trkpt lat="39.424893094026885" lon="9.147676527906748"><ele>169.0</ele><time>2026-04-30T10:33:28.999Z</time></trkpt><trkpt lat="39.42465829841474" lon="9.147643822751185"><ele>170.0</ele><time>2026-04-30T10:33:29.999Z</time></trkpt><trkpt lat="39.4244200660376" lon="9.147636015681648"><ele>171.0</ele><time>2026-04-30T10:33:30.999Z</time></trkpt><trkpt lat="39.42418873549428" lon="9.147660800407309"><ele>171.0</ele><time>2026-04-30T10:33:31.999Z</time></trkpt><trkpt lat="39.423959768231406" lon="9.147697498938296"><ele>171.0</ele><time>2026-04-30T10:33:32.999Z</time></trkpt><trkpt lat="39.42372509151603" lon="9.147739327377083"><ele>173.0</ele><time>2026-04-30T10:33:33.998Z</time></trkpt><trkpt lat="39.42350943989505" lon="9.147769002235188"><ele>175.0</ele><time>2026-04-30T10:33:34.998Z</time></trkpt><trkpt lat="39.42331644641569" lon="9.147839892537839"><ele>177.0</ele><time>2026-04-30T10:33:35.998Z</time></trkpt><trkpt lat="39.42315115546351" lon="9.14799264199671"><ele>176.66666666666666</ele><time>2026-04-30T10:33:36.999Z</time></trkpt><trkpt lat="39.423008716679526" lon="9.148218823672936"><ele>176.33333333333331</ele><time>2026-04-30T10:33:37.999Z</time></trkpt><trkpt lat="39.422870195390246" lon="9.148444302780042"><ele>176.0</ele><time>2026-04-30T10:33:38.999Z</time></trkpt><trkpt lat="39.42271468287413" lon="9.148677509136258"><ele>179.0</ele><time>2026-04-30T10:33:39.999Z</time></trkpt><trkpt lat="39.422550068839364" lon="9.14890785119695"><ele>182.0</ele><time>2026-04-30T10:33:40.999Z</time></trkpt><trkpt lat="39.42238211828728" lon="9.14913868085318"><ele>182.0</ele><time>2026-04-30T10:33:41.999Z</time></trkpt><trkpt lat="39.422201948515806" lon="9.149347640860157"><ele>182.0</ele><time>2026-04-30T10:33:42.999Z</time></trkpt><trkpt lat="39.42200470226244" lon="9.149532113783492"><ele>183.5</ele><time>2026-04-30T10:33:43.999Z</time></trkpt><trkpt lat="39.421801797513766" lon="9.149706218565314"><ele>185.0</ele><time>2026-04-30T10:33:44.999Z</time></trkpt><trkpt lat="39.421600324156664" lon="9.149880746157036"><ele>185.0</ele><time>2026-04-30T10:33:45.999Z</time></trkpt><trkpt lat="39.42141997070034" lon="9.150046818513085"><ele>185.0</ele><time>2026-04-30T10:33:46.999Z</time></trkpt><trkpt lat="39.4212876641226" lon="9.15024727954614"><ele>185.0</ele><time>2026-04-30T10:33:47.999Z</time></trkpt><trkpt lat="39.42120600692167" lon="9.150508850913017"><ele>189.66666666666666</ele><time>2026-04-30T10:33:48.999Z</time></trkpt><trkpt lat="39.421195573310584" lon="9.150779854662096"><ele>194.33333333333331</ele><time>2026-04-30T10:33:49.999Z</time></trkpt><trkpt lat="39.421186206421005" lon="9.151031991231282"><ele>199.0</ele><time>2026-04-30T10:33:50.999Z</time></trkpt><trkpt lat="39.421155208339115" lon="9.151300380007562"><ele>198.0</ele><time>2026-04-30T10:33:51.999Z</time></trkpt><trkpt lat="39.4210713839756" lon="9.15156803591769"><ele>197.0</ele><time>2026-04-30T10:33:52.999Z</time></trkpt><trkpt lat="39.42097875181292" lon="9.151837428116464"><ele>197.0</ele><time>2026-04-30T10:33:53.999Z</time></trkpt><trkpt lat="39.420880223520356" lon="9.152109025123206"><ele>197.0</ele><time>2026-04-30T10:33:54.999Z</time></trkpt><trkpt lat="39.42080319021874" lon="9.152362187529071"><ele>197.0</ele><time>2026-04-30T10:33:55.999Z</time></trkpt><trkpt lat="39.42070094781483" lon="9.152584294911776"><ele>195.0</ele><time>2026-04-30T10:33:56.999Z</time></trkpt><trkpt lat="39.42054348246119" lon="9.152755666105458"><ele>193.0</ele><time>2026-04-30T10:33:57.999Z</time></trkpt><trkpt lat="39.42037903957058" lon="9.152923856228432"><ele>191.0</ele><time>2026-04-30T10:33:58.999Z</time></trkpt><trkpt lat="39.42023595078687" lon="9.153130669893942"><ele>195.66666666666666</ele><time>2026-04-30T10:33:59.999Z</time></trkpt><trkpt lat="39.42010103703188" lon="9.15336601901057"><ele>200.33333333333331</ele><time>2026-04-30T10:34:00.999Z</time></trkpt><trkpt lat="39.41997232657671" lon="9.153601878559568"><ele>205.0</ele><time>2026-04-30T10:34:01.999Z</time></trkpt><trkpt lat="39.41983359717896" lon="9.153833125842805"><ele>208.33333333333331</ele><time>2026-04-30T10:34:02.999Z</time></trkpt><trkpt lat="39.41968376466917" lon="9.154049508830683"><ele>211.66666666666669</ele><time>2026-04-30T10:34:03.999Z</time></trkpt><trkpt lat="39.41952756621424" lon="9.154254359567656"><ele>215.0</ele><time>2026-04-30T10:34:04.999Z</time></trkpt><trkpt lat="39.419360838928476" lon="9.154448499398146"><ele>215.0</ele><time>2026-04-30T10:34:05.999Z</time></trkpt><trkpt lat="39.419189647667665" lon="9.154635765919856"><ele>215.0</ele><time>2026-04-30T10:34:06.999Z</time></trkpt><trkpt lat="39.41900805512397" lon="9.154806893670086"><ele>215.0</ele><time>2026-04-30T10:34:07.999Z</time></trkpt><trkpt lat="39.418813645531486" lon="9.154977671539152"><ele>219.0</ele><time>2026-04-30T10:34:08.999Z</time></trkpt><trkpt lat="39.418608172650664" lon="9.155129792391927"><ele>223.0</ele><time>2026-04-30T10:34:09.999Z</time></trkpt><trkpt lat="39.41841732766374" lon="9.155291250521191"><ele>223.0</ele><time>2026-04-30T10:34:10.999Z</time></trkpt><trkpt lat="39.418223794885456" lon="9.155420850971728"><ele>223.0</ele><time>2026-04-30T10:34:11.999Z</time></trkpt><trkpt lat="39.417973198754936" lon="9.155513856634816"><ele>219.0</ele><time>2026-04-30T10:34:12.999Z</time></trkpt><trkpt lat="39.41835700959942" lon="9.15634805756712"><ele>219.0</ele><time>2026-04-30T10:34:13.999Z</time></trkpt><trkpt lat="39.41818389416794" lon="9.156526847634112"><ele>219.0</ele><time>2026-04-30T10:34:14.999Z</time></trkpt><trkpt lat="39.41799176627461" lon="9.156671873889012"><ele>219.0</ele><time>2026-04-30T10:34:15.999Z</time></trkpt><trkpt lat="39.41779250262949" lon="9.156792789370753"><ele>221.0</ele><time>2026-04-30T10:34:16.999Z</time></trkpt><trkpt lat="39.41756978151853" lon="9.156882898609119"><ele>223.0</ele><time>2026-04-30T10:34:17.999Z</time></trkpt><trkpt lat="39.41733793094551" lon="9.15692726379424"><ele>218.0</ele><time>2026-04-30T10:34:18.999Z</time></trkpt><trkpt lat="39.41709786432331" lon="9.156941422779576"><ele>213.0</ele><time>2026-04-30T10:34:19.999Z</time></trkpt><trkpt lat="39.41685947425409" lon="9.156956850414888"><ele>213.0</ele><time>2026-04-30T10:34:20.999Z</time></trkpt><trkpt lat="39.41661882701245" lon="9.156991005897098"><ele>213.0</ele><time>2026-04-30T10:34:21.999Z</time></trkpt><trkpt lat="39.41637762984152" lon="9.157025447576132"><ele>211.0</ele><time>2026-04-30T10:34:22.999Z</time></trkpt><trkpt lat="39.41612795718862" lon="9.157061618590868"><ele>209.0</ele><time>2026-04-30T10:34:23.999Z</time></trkpt><trkpt lat="39.41587593666546" lon="9.15710443277003"><ele>209.0</ele><time>2026-04-30T10:34:24.999Z</time></trkpt><trkpt lat="39.4156258279893" lon="9.15714358589258"><ele>209.0</ele><time>2026-04-30T10:34:25.999Z</time></trkpt><trkpt lat="39.41538000549884" lon="9.157181454526413"><ele>205.0</ele><time>2026-04-30T10:34:26.999Z</time></trkpt><trkpt lat="39.41513247214151" lon="9.157214390185093"><ele>201.0</ele><time>2026-04-30T10:34:27.999Z</time></trkpt><trkpt lat="39.41488934824892" lon="9.157252312457869"><ele>196.5</ele><time>2026-04-30T10:34:28.999Z</time></trkpt><trkpt lat="39.41464722640827" lon="9.157293049597351"><ele>192.0</ele><time>2026-04-30T10:34:29.999Z</time></trkpt><trkpt lat="39.414406269987815" lon="9.157329847463892"><ele>192.0</ele><time>2026-04-30T10:34:30.999Z</time></trkpt><trkpt lat="39.414165168008836" lon="9.15736822014024"><ele>192.0</ele><time>2026-04-30T10:34:31.999Z</time></trkpt><trkpt lat="39.41392427436873" lon="9.157408905393755"><ele>192.5</ele><time>2026-04-30T10:34:32.999Z</time></trkpt><trkpt lat="39.41368224812381" lon="9.157445468693625"><ele>193.0</ele><time>2026-04-30T10:34:33.999Z</time></trkpt><trkpt lat="39.41344664883619" lon="9.157483188811177"><ele>193.0</ele><time>2026-04-30T10:34:34.999Z</time></trkpt><trkpt lat="39.41321051247939" lon="9.15752557549113"><ele>193.0</ele><time>2026-04-30T10:34:35.999Z</time></trkpt><trkpt lat="39.412977967578264" lon="9.157573558516315"><ele>192.5</ele><time>2026-04-30T10:34:36.999Z</time></trkpt><trkpt lat="39.41273584977912" lon="9.157610642739616"><ele>192.0</ele><time>2026-04-30T10:34:37.999Z</time></trkpt><trkpt lat="39.41249550519714" lon="9.157653088788358"><ele>192.0</ele><time>2026-04-30T10:34:38.999Z</time></trkpt><trkpt lat="39.41224640915054" lon="9.157695744843679"><ele>192.0</ele><time>2026-04-30T10:34:39.999Z</time></trkpt><trkpt lat="39.41200497912972" lon="9.157742112902433"><ele>192.0</ele><time>2026-04-30T10:34:40.999Z</time></trkpt><trkpt lat="39.41176616982358" lon="9.157784367141003"><ele>192.0</ele><time>2026-04-30T10:34:41.999Z</time></trkpt><trkpt lat="39.41152855254223" lon="9.157822603423071"><ele>193.0</ele><time>2026-04-30T10:34:42.999Z</time></trkpt><trkpt lat="39.41129328106102" lon="9.157863225142044"><ele>194.0</ele><time>2026-04-30T10:34:43.999Z</time></trkpt><trkpt lat="39.411055371451084" lon="9.15790133942132"><ele>194.0</ele><time>2026-04-30T10:34:44.999Z</time></trkpt><trkpt lat="39.41082004203467" lon="9.157948969594505"><ele>194.0</ele><time>2026-04-30T10:34:45.999Z</time></trkpt><trkpt lat="39.41059396333606" lon="9.15802504990306"><ele>191.5</ele><time>2026-04-30T10:34:46.999Z</time></trkpt><trkpt lat="39.4103764273248" lon="9.158131346638681"><ele>189.0</ele><time>2026-04-30T10:34:47.999Z</time></trkpt><trkpt lat="39.41016189036619" lon="9.158251886242487"><ele>189.0</ele><time>2026-04-30T10:34:48.999Z</time></trkpt><trkpt lat="39.40995945569927" lon="9.158361268297995"><ele>189.0</ele><time>2026-04-30T10:34:49.999Z</time></trkpt><trkpt lat="39.40977480874249" lon="9.158455586587069"><ele>189.0</ele><time>2026-04-30T10:34:50.999Z</time></trkpt><trkpt lat="39.40959223288271" lon="9.15854871127118"><ele>186.66666666666666</ele><time>2026-04-30T10:34:51.999Z</time></trkpt><trkpt lat="39.409403847253024" lon="9.158643645936984"><ele>184.33333333333331</ele><time>2026-04-30T10:34:52.999Z</time></trkpt><trkpt lat="39.40921259671426" lon="9.158741310876964"><ele>182.0</ele><time>2026-04-30T10:34:53.999Z</time></trkpt><trkpt lat="39.40903025935547" lon="9.158835351596247"><ele>182.0</ele><time>2026-04-30T10:34:54.999Z</time></trkpt><trkpt lat="39.4088566497302" lon="9.158924170257777"><ele>182.0</ele><time>2026-04-30T10:34:55.999Z</time></trkpt><trkpt lat="39.40868350677619" lon="9.15901561134259"><ele>182.0</ele><time>2026-04-30T10:34:56.999Z</time></trkpt><trkpt lat="39.40851567874364" lon="9.159097091020211"><ele>182.33333333333331</ele><time>2026-04-30T10:34:57.999Z</time></trkpt><trkpt lat="39.40834950491734" lon="9.15918032476069"><ele>182.66666666666666</ele><time>2026-04-30T10:34:58.999Z</time></trkpt><trkpt lat="39.40817843865643" lon="9.159280807755247"><ele>183.0</ele><time>2026-04-30T10:34:59.999Z</time></trkpt><trkpt lat="39.407992921768376" lon="9.159371961333736"><ele>181.0</ele><time>2026-04-30T10:35:00.999Z</time></trkpt><trkpt lat="39.407800394008945" lon="9.15943883283542"><ele>179.0</ele><time>2026-04-30T10:35:01.999Z</time></trkpt><trkpt lat="39.407613101201584" lon="9.159478288039752"><ele>177.0</ele><time>2026-04-30T10:35:02.999Z</time></trkpt><trkpt lat="39.40742686516817" lon="9.159492602549706"><ele>177.0</ele><time>2026-04-30T10:35:03.999Z</time></trkpt><trkpt lat="39.407235188859495" lon="9.159481595768735"><ele>177.0</ele><time>2026-04-30T10:35:04.999Z</time></trkpt><trkpt lat="39.40703902919357" lon="9.159455403601113"><ele>177.0</ele><time>2026-04-30T10:35:05.999Z</time></trkpt><trkpt lat="39.40684176739856" lon="9.159406156613237"><ele>176.0</ele><time>2026-04-30T10:35:06.999Z</time></trkpt><trkpt lat="39.40663903566329" lon="9.1593338222013"><ele>175.0</ele><time>2026-04-30T10:35:07.999Z</time></trkpt><trkpt lat="39.40644744651656" lon="9.159239137274456"><ele>174.0</ele><time>2026-04-30T10:35:08.999Z</time></trkpt><trkpt lat="39.40625625235279" lon="9.159127068772026"><ele>174.33333333333334</ele><time>2026-04-30T10:35:09.999Z</time></trkpt><trkpt lat="39.40606675663043" lon="9.159014191360006"><ele>174.66666666666669</ele><time>2026-04-30T10:35:10.999Z</time></trkpt><trkpt lat="39.40587525971375" lon="9.15889689227528"><ele>175.0</ele><time>2026-04-30T10:35:11.999Z</time></trkpt><trkpt lat="39.40568299018176" lon="9.158777472002827"><ele>176.66666666666669</ele><time>2026-04-30T10:35:12.999Z</time></trkpt><trkpt lat="39.40549123645155" lon="9.158665571430053"><ele>178.33333333333334</ele><time>2026-04-30T10:35:13.999Z</time></trkpt><trkpt lat="39.405298249861836" lon="9.158559015634491"><ele>180.0</ele><time>2026-04-30T10:35:14.999Z</time></trkpt><trkpt lat="39.40510669344503" lon="9.158449708052181"><ele>180.0</ele><time>2026-04-30T10:35:15.999Z</time></trkpt><trkpt lat="39.40491787355461" lon="9.158339431083444"><ele>180.0</ele><time>2026-04-30T10:35:16.999Z</time></trkpt><trkpt lat="39.404738923717204" lon="9.158248580586093"><ele>180.0</ele><time>2026-04-30T10:35:17.999Z</time></trkpt><trkpt lat="39.404578492571886" lon="9.158147527233972"><ele>179.0</ele><time>2026-04-30T10:35:18.999Z</time></trkpt><trkpt lat="39.40443178060997" lon="9.158060730951"><ele>178.0</ele><time>2026-04-30T10:35:19.999Z</time></trkpt><trkpt lat="39.40429102776315" lon="9.157976450169949"><ele>177.0</ele><time>2026-04-30T10:35:20.999Z</time></trkpt><trkpt lat="39.404153544395705" lon="9.157890498844242"><ele>177.0</ele><time>2026-04-30T10:35:21.999Z</time></trkpt><trkpt lat="39.40401765964567" lon="9.157806838482212"><ele>177.0</ele><time>2026-04-30T10:35:22.999Z</time></trkpt><trkpt lat="39.4038797896691" lon="9.157724253368015"><ele>177.0</ele><time>2026-04-30T10:35:23.999Z</time></trkpt><trkpt lat="39.40374739658381" lon="9.157640007924494"><ele>176.5</ele><time>2026-04-30T10:35:24.999Z</time></trkpt><trkpt lat="39.40362250952399" lon="9.157563831674468"><ele>176.0</ele><time>2026-04-30T10:35:25.999Z</time></trkpt><trkpt lat="39.403499343914206" lon="9.157492930080945"><ele>175.5</ele><time>2026-04-30T10:35:26.999Z</time></trkpt><trkpt lat="39.40337228924458" lon="9.15742000211064"><ele>175.0</ele><time>2026-04-30T10:35:27.999Z</time></trkpt><trkpt lat="39.40324565119132" lon="9.157344147309223"><ele>175.0</ele><time>2026-04-30T10:35:28.999Z</time></trkpt><trkpt lat="39.40311090298535" lon="9.15727548301918"><ele>175.0</ele><time>2026-04-30T10:35:29.999Z</time></trkpt><trkpt lat="39.40296977042617" lon="9.157187645182507"><ele>175.0</ele><time>2026-04-30T10:35:30.999Z</time></trkpt><trkpt lat="39.40282049299993" lon="9.157082332310376"><ele>175.33333333333334</ele><time>2026-04-30T10:35:31.999Z</time></trkpt><trkpt lat="39.40265705566847" lon="9.156982385516526"><ele>175.66666666666666</ele><time>2026-04-30T10:35:32.999Z</time></trkpt><trkpt lat="39.40248018359799" lon="9.15688842277388"><ele>176.0</ele><time>2026-04-30T10:35:33.999Z</time></trkpt><trkpt lat="39.40229669704793" lon="9.15680682804143"><ele>174.66666666666666</ele><time>2026-04-30T10:35:34.999Z</time></trkpt><trkpt lat="39.40210637642281" lon="9.156736534535243"><ele>173.33333333333334</ele><time>2026-04-30T10:35:35.999Z</time></trkpt><trkpt lat="39.401918305898874" lon="9.156685862868164"><ele>172.0</ele><time>2026-04-30T10:35:36.999Z</time></trkpt><trkpt lat="39.40172575327973" lon="9.156649286132"><ele>172.0</ele><time>2026-04-30T10:35:37.999Z</time></trkpt><trkpt lat="39.401537002755134" lon="9.156631022602934"><ele>172.0</ele><time>2026-04-30T10:35:38.999Z</time></trkpt><trkpt lat="39.401346899292705" lon="9.156640138088742"><ele>172.0</ele><time>2026-04-30T10:35:39.999Z</time></trkpt><trkpt lat="39.40115648624919" lon="9.15666221428956"><ele>171.33333333333334</ele><time>2026-04-30T10:35:40.999Z</time></trkpt><trkpt lat="39.40096503717793" lon="9.156704911016206"><ele>170.66666666666666</ele><time>2026-04-30T10:35:41.999Z</time></trkpt><trkpt lat="39.400778563911025" lon="9.156765188488698"><ele>170.0</ele><time>2026-04-30T10:35:43Z</time></trkpt><trkpt lat="39.400597496545664" lon="9.156840958167727"><ele>168.66666666666666</ele><time>2026-04-30T10:35:44Z</time></trkpt><trkpt lat="39.40041034844395" lon="9.156932559457617"><ele>167.33333333333334</ele><time>2026-04-30T10:35:45Z</time></trkpt><trkpt lat="39.40023377936168" lon="9.157025826053292"><ele>166.0</ele><time>2026-04-30T10:35:46Z</time></trkpt><trkpt lat="39.40006239727897" lon="9.157122194340351"><ele>166.0</ele><time>2026-04-30T10:35:46.999Z</time></trkpt><trkpt lat="39.39989021939233" lon="9.157221182520773"><ele>166.0</ele><time>2026-04-30T10:35:47.999Z</time></trkpt><trkpt lat="39.39972593407984" lon="9.157307453789917"><ele>166.0</ele><time>2026-04-30T10:35:49Z</time></trkpt><trkpt lat="39.39957393931252" lon="9.157386993815548"><ele>166.0</ele><time>2026-04-30T10:35:49.999Z</time></trkpt><trkpt lat="39.39944145865488" lon="9.15743730296759"><ele>166.0</ele><time>2026-04-30T10:35:50.999Z</time></trkpt><trkpt lat="39.39933118687336" lon="9.157469523335227"><ele>166.0</ele><time>2026-04-30T10:35:52Z</time></trkpt><trkpt lat="39.3992425278603" lon="9.1574793037957"><ele>166.0</ele><time>2026-04-30T10:35:52.999Z</time></trkpt><trkpt lat="39.399171715489686" lon="9.15747872245817"><ele>166.0</ele><time>2026-04-30T10:35:53.999Z</time></trkpt><trkpt lat="39.39910818414514" lon="9.157461552332332"><ele>166.0</ele><time>2026-04-30T10:35:55Z</time></trkpt><trkpt lat="39.39900864457029" lon="9.157393464832408"><ele>166.0</ele><time>2026-04-30T10:35:56.999Z</time></trkpt><trkpt lat="39.39889876134125" lon="9.157410179447313"><ele>166.0</ele><time>2026-04-30T10:35:58.999Z</time></trkpt><trkpt lat="39.39883840870638" lon="9.15745404725582"><ele>166.0</ele><time>2026-04-30T10:35:59.999Z</time></trkpt><trkpt lat="39.39878487162274" lon="9.157511332992982"><ele>166.0</ele><time>2026-04-30T10:36:00.999Z</time></trkpt><trkpt lat="39.39872347810316" lon="9.157563647224313"><ele>166.0</ele><time>2026-04-30T10:36:01.999Z</time></trkpt><trkpt lat="39.39864540243778" lon="9.157595869424346"><ele>166.0</ele><time>2026-04-30T10:36:02.999Z</time></trkpt><trkpt lat="39.39855011822713" lon="9.157605954929807"><ele>166.0</ele><time>2026-04-30T10:36:03.999Z</time></trkpt><trkpt lat="39.3984509701611" lon="9.157600576056337"><ele>166.0</ele><time>2026-04-30T10:36:04.999Z</time></trkpt><trkpt lat="39.39833481607488" lon="9.157596002167278"><ele>166.0</ele><time>2026-04-30T10:36:05.999Z</time></trkpt><trkpt lat="39.39819640264264" lon="9.157587409456344"><ele>166.0</ele><time>2026-04-30T10:36:06.999Z</time></trkpt><trkpt lat="39.39804022081692" lon="9.157575554637878"><ele>166.0</ele><time>2026-04-30T10:36:07.999Z</time></trkpt><trkpt lat="39.39787818270912" lon="9.157546702565346"><ele>166.0</ele><time>2026-04-30T10:36:08.999Z</time></trkpt><trkpt lat="39.3977003200068" lon="9.157510529310242"><ele>166.0</ele><time>2026-04-30T10:36:09.999Z</time></trkpt><trkpt lat="39.39752377752831" lon="9.157453064262643"><ele>166.0</ele><time>2026-04-30T10:36:10.999Z</time></trkpt><trkpt lat="39.39733440990175" lon="9.157393676032365"><ele>166.0</ele><time>2026-04-30T10:36:11.999Z</time></trkpt><trkpt lat="39.39713130313015" lon="9.157344038104377"><ele>165.33333333333334</ele><time>2026-04-30T10:36:12.999Z</time></trkpt><trkpt lat="39.39692952985884" lon="9.157301129774625"><ele>164.66666666666666</ele><time>2026-04-30T10:36:13.999Z</time></trkpt><trkpt lat="39.39671498354892" lon="9.1572553506276"><ele>164.0</ele><time>2026-04-30T10:36:14.999Z</time></trkpt><trkpt lat="39.39649222204585" lon="9.15720401150657"><ele>163.5</ele><time>2026-04-30T10:36:15.999Z</time></trkpt><trkpt lat="39.3962692147253" lon="9.157157179683978"><ele>163.0</ele><time>2026-04-30T10:36:16.999Z</time></trkpt><trkpt lat="39.39604198076977" lon="9.157105283016245"><ele>163.0</ele><time>2026-04-30T10:36:17.999Z</time></trkpt><trkpt lat="39.39581347908453" lon="9.157052582570904"><ele>163.0</ele><time>2026-04-30T10:36:18.999Z</time></trkpt><trkpt lat="39.39558496013872" lon="9.157004276254888"><ele>162.5</ele><time>2026-04-30T10:36:19.999Z</time></trkpt><trkpt lat="39.39535536319773" lon="9.156955531233857"><ele>162.0</ele><time>2026-04-30T10:36:20.999Z</time></trkpt><trkpt lat="39.395128342714486" lon="9.156906383949629"><ele>162.0</ele><time>2026-04-30T10:36:21.999Z</time></trkpt><trkpt lat="39.394897827930336" lon="9.156847787568505"><ele>162.0</ele><time>2026-04-30T10:36:22.999Z</time></trkpt><trkpt lat="39.39466481254065" lon="9.156792829849563"><ele>162.5</ele><time>2026-04-30T10:36:23.999Z</time></trkpt><trkpt lat="39.39442512036058" lon="9.156744260696094"><ele>163.0</ele><time>2026-04-30T10:36:24.999Z</time></trkpt><trkpt lat="39.39418467079964" lon="9.156693162471655"><ele>163.0</ele><time>2026-04-30T10:36:25.999Z</time></trkpt><trkpt lat="39.39394191372964" lon="9.156641386034597"><ele>163.0</ele><time>2026-04-30T10:36:26.999Z</time></trkpt><trkpt lat="39.39370470405722" lon="9.156589041803516"><ele>162.5</ele><time>2026-04-30T10:36:27.999Z</time></trkpt><trkpt lat="39.39346480057768" lon="9.156536835826413"><ele>162.0</ele><time>2026-04-30T10:36:28.999Z</time></trkpt><trkpt lat="39.39322813203265" lon="9.156483206507506"><ele>162.0</ele><time>2026-04-30T10:36:29.999Z</time></trkpt><trkpt lat="39.39298637163686" lon="9.156432881342665"><ele>162.0</ele><time>2026-04-30T10:36:30.999Z</time></trkpt><trkpt lat="39.39274123301493" lon="9.156379205675911"><ele>162.0</ele><time>2026-04-30T10:36:31.999Z</time></trkpt><trkpt lat="39.392491814498" lon="9.156322607871118"><ele>162.0</ele><time>2026-04-30T10:36:32.999Z</time></trkpt><trkpt lat="39.39223968372625" lon="9.156271079889574"><ele>162.5</ele><time>2026-04-30T10:36:33.999Z</time></trkpt><trkpt lat="39.39198538059778" lon="9.156211874697844"><ele>163.0</ele><time>2026-04-30T10:36:34.999Z</time></trkpt><trkpt lat="39.39173361949497" lon="9.156153189272748"><ele>163.0</ele><time>2026-04-30T10:36:35.999Z</time></trkpt><trkpt lat="39.39147902822933" lon="9.156098039163616"><ele>163.0</ele><time>2026-04-30T10:36:36.999Z</time></trkpt><trkpt lat="39.39122421012372" lon="9.156039834923753"><ele>162.5</ele><time>2026-04-30T10:36:37.999Z</time></trkpt><trkpt lat="39.39096877220685" lon="9.155983209824488"><ele>162.0</ele><time>2026-04-30T10:36:38.999Z</time></trkpt><trkpt lat="39.39071488989752" lon="9.155917682312408"><ele>162.5</ele><time>2026-04-30T10:36:39.999Z</time></trkpt><trkpt lat="39.39045617176031" lon="9.155862266118913"><ele>163.0</ele><time>2026-04-30T10:36:40.999Z</time></trkpt><trkpt lat="39.39019875528653" lon="9.1558073455119"><ele>163.0</ele><time>2026-04-30T10:36:41.999Z</time></trkpt><trkpt lat="39.389942156842565" lon="9.15575004732811"><ele>163.0</ele><time>2026-04-30T10:36:42.999Z</time></trkpt><trkpt lat="39.38968649343988" lon="9.155690240876622"><ele>161.5</ele><time>2026-04-30T10:36:43.999Z</time></trkpt><trkpt lat="39.389430463085226" lon="9.155633711364331"><ele>160.0</ele><time>2026-04-30T10:36:44.999Z</time></trkpt><trkpt lat="39.38917773736905" lon="9.155580437418696"><ele>160.0</ele><time>2026-04-30T10:36:45.999Z</time></trkpt><trkpt lat="39.38891996019195" lon="9.155519188186835"><ele>160.0</ele><time>2026-04-30T10:36:46.999Z</time></trkpt><trkpt lat="39.38866921399314" lon="9.15546272393159"><ele>162.0</ele><time>2026-04-30T10:36:47.999Z</time></trkpt><trkpt lat="39.38841353894227" lon="9.155408103538036"><ele>164.0</ele><time>2026-04-30T10:36:48.999Z</time></trkpt><trkpt lat="39.38815916699639" lon="9.155354473127659"><ele>164.5</ele><time>2026-04-30T10:36:49.999Z</time></trkpt><trkpt lat="39.38790111231541" lon="9.155296099916466"><ele>165.0</ele><time>2026-04-30T10:36:50.999Z</time></trkpt><trkpt lat="39.38764458986128" lon="9.155237227732924"><ele>165.0</ele><time>2026-04-30T10:36:51.999Z</time></trkpt><trkpt lat="39.387387010171544" lon="9.1551780419483"><ele>165.0</ele><time>2026-04-30T10:36:52.999Z</time></trkpt><trkpt lat="39.38713027317875" lon="9.155121451757331"><ele>165.0</ele><time>2026-04-30T10:36:53.999Z</time></trkpt><trkpt lat="39.386871838037194" lon="9.155065021282386"><ele>165.0</ele><time>2026-04-30T10:36:54.999Z</time></trkpt><trkpt lat="39.38661298945492" lon="9.15500912785735"><ele>165.0</ele><time>2026-04-30T10:36:55.999Z</time></trkpt><trkpt lat="39.38635765717582" lon="9.15495214283583"><ele>165.0</ele><time>2026-04-30T10:36:56.999Z</time></trkpt><trkpt lat="39.38609616776804" lon="9.154897450689097"><ele>164.5</ele><time>2026-04-30T10:36:57.999Z</time></trkpt><trkpt lat="39.38583936165773" lon="9.154841954641892"><ele>164.0</ele><time>2026-04-30T10:36:58.999Z</time></trkpt><trkpt lat="39.38558500556382" lon="9.154782501315548"><ele>164.0</ele><time>2026-04-30T10:36:59.999Z</time></trkpt><trkpt lat="39.38533252816271" lon="9.154723118423403"><ele>164.0</ele><time>2026-04-30T10:37:00.999Z</time></trkpt><trkpt lat="39.38508544929842" lon="9.154665636309405"><ele>164.0</ele><time>2026-04-30T10:37:01.999Z</time></trkpt><trkpt lat="39.3848377878191" lon="9.154610684773063"><ele>164.0</ele><time>2026-04-30T10:37:02.999Z</time></trkpt><trkpt lat="39.38459355047191" lon="9.154556524160993"><ele>164.5</ele><time>2026-04-30T10:37:03.999Z</time></trkpt><trkpt lat="39.384349774678086" lon="9.154500951406572"><ele>165.0</ele><time>2026-04-30T10:37:04.999Z</time></trkpt><trkpt lat="39.38410450976578" lon="9.154443867239758"><ele>165.0</ele><time>2026-04-30T10:37:05.999Z</time></trkpt><trkpt lat="39.383860511914094" lon="9.154388592180885"><ele>165.0</ele><time>2026-04-30T10:37:06.999Z</time></trkpt><trkpt lat="39.38361393310685" lon="9.15433377541513"><ele>165.0</ele><time>2026-04-30T10:37:07.999Z</time></trkpt><trkpt lat="39.383368285249404" lon="9.154279635971195"><ele>165.0</ele><time>2026-04-30T10:37:08.999Z</time></trkpt><trkpt lat="39.38312143350953" lon="9.154233123491192"><ele>165.0</ele><time>2026-04-30T10:37:09.999Z</time></trkpt><trkpt lat="39.38287234479207" lon="9.154195049204485"><ele>165.0</ele><time>2026-04-30T10:37:10.999Z</time></trkpt><trkpt lat="39.38262553054049" lon="9.154165803407453"><ele>165.0</ele><time>2026-04-30T10:37:11.999Z</time></trkpt><trkpt lat="39.382378690982044" lon="9.154143075662668"><ele>165.0</ele><time>2026-04-30T10:37:12.999Z</time></trkpt><trkpt lat="39.38213223536476" lon="9.15412308177148"><ele>165.5</ele><time>2026-04-30T10:37:13.999Z</time></trkpt><trkpt lat="39.38188724130259" lon="9.154112682886602"><ele>166.0</ele><time>2026-04-30T10:37:14.999Z</time></trkpt><trkpt lat="39.38164554110433" lon="9.154112889756243"><ele>166.0</ele><time>2026-04-30T10:37:15.999Z</time></trkpt><trkpt lat="39.38140585849068" lon="9.15411761062638"><ele>166.0</ele><time>2026-04-30T10:37:16.999Z</time></trkpt><trkpt lat="39.381183881584306" lon="9.15413039614119"><ele>166.0</ele><time>2026-04-30T10:37:17.999Z</time></trkpt><trkpt lat="39.380970593154046" lon="9.154122458559346"><ele>166.0</ele><time>2026-04-30T10:37:18.999Z</time></trkpt><trkpt lat="39.38077062210012" lon="9.154123295201515"><ele>166.0</ele><time>2026-04-30T10:37:19.999Z</time></trkpt><trkpt lat="39.38057346318242" lon="9.154125119017731"><ele>165.66666666666669</ele><time>2026-04-30T10:37:20.999Z</time></trkpt><trkpt lat="39.380390715270224" lon="9.154129000663213"><ele>165.33333333333334</ele><time>2026-04-30T10:37:21.999Z</time></trkpt><trkpt lat="39.38022369726714" lon="9.154131770198768"><ele>165.0</ele><time>2026-04-30T10:37:22.999Z</time></trkpt><trkpt lat="39.38007829473004" lon="9.154140713374165"><ele>165.0</ele><time>2026-04-30T10:37:23.999Z</time></trkpt><trkpt lat="39.37996555641313" lon="9.154144739939408"><ele>165.0</ele><time>2026-04-30T10:37:24.999Z</time></trkpt><trkpt lat="39.379881435800456" lon="9.154124814656752"><ele>165.0</ele><time>2026-04-30T10:37:25.999Z</time></trkpt><trkpt lat="39.379808647605415" lon="9.154079532811737"><ele>165.0</ele><time>2026-04-30T10:37:26.999Z</time></trkpt><trkpt lat="39.379731851197754" lon="9.154015106980873"><ele>165.0</ele><time>2026-04-30T10:37:27.999Z</time></trkpt><trkpt lat="39.37963103160502" lon="9.153972507100056"><ele>165.75</ele><time>2026-04-30T10:37:28.999Z</time></trkpt><trkpt lat="39.37952267891792" lon="9.153973152553858"><ele>166.5</ele><time>2026-04-30T10:37:29.999Z</time></trkpt><trkpt lat="39.37940125735672" lon="9.154008083465138"><ele>167.25</ele><time>2026-04-30T10:37:30.999Z</time></trkpt><trkpt lat="39.37927937197764" lon="9.154034175813164"><ele>168.0</ele><time>2026-04-30T10:37:31.999Z</time></trkpt><trkpt lat="39.379143473052935" lon="9.154026854239207"><ele>168.0</ele><time>2026-04-30T10:37:32.999Z</time></trkpt><trkpt lat="39.3789917797154" lon="9.154001736683014"><ele>168.0</ele><time>2026-04-30T10:37:33.999Z</time></trkpt><trkpt lat="39.37883421776922" lon="9.15397711695846"><ele>168.0</ele><time>2026-04-30T10:37:34.999Z</time></trkpt><trkpt lat="39.378661763880785" lon="9.153953457406454"><ele>167.66666666666666</ele><time>2026-04-30T10:37:35.999Z</time></trkpt><trkpt lat="39.378477852830294" lon="9.153932637763932"><ele>167.33333333333331</ele><time>2026-04-30T10:37:36.999Z</time></trkpt><trkpt lat="39.378291148061344" lon="9.153913805157293"><ele>167.0</ele><time>2026-04-30T10:37:37.999Z</time></trkpt><trkpt lat="39.37809602633734" lon="9.153887953426063"><ele>166.33333333333331</ele><time>2026-04-30T10:37:38.999Z</time></trkpt><trkpt lat="39.377892824792795" lon="9.153858308073831"><ele>165.66666666666666</ele><time>2026-04-30T10:37:39.999Z</time></trkpt><trkpt lat="39.37768377326263" lon="9.153825080704783"><ele>165.0</ele><time>2026-04-30T10:37:40.999Z</time></trkpt><trkpt lat="39.37746766910629" lon="9.153787566046493"><ele>165.0</ele><time>2026-04-30T10:37:41.999Z</time></trkpt><trkpt lat="39.37724226914616" lon="9.153756092571598"><ele>165.0</ele><time>2026-04-30T10:37:42.999Z</time></trkpt><trkpt lat="39.37701388243742" lon="9.15372334568153"><ele>162.5</ele><time>2026-04-30T10:37:43.999Z</time></trkpt><trkpt lat="39.37678448533908" lon="9.15369563783233"><ele>160.0</ele><time>2026-04-30T10:37:44.999Z</time></trkpt><trkpt lat="39.37655256925999" lon="9.153663710448926"><ele>159.0</ele><time>2026-04-30T10:37:45.999Z</time></trkpt><trkpt lat="39.37631856802865" lon="9.153625239883583"><ele>158.0</ele><time>2026-04-30T10:37:46.999Z</time></trkpt><trkpt lat="39.376089074970714" lon="9.153587905759125"><ele>158.0</ele><time>2026-04-30T10:37:47.999Z</time></trkpt><trkpt lat="39.37585088243702" lon="9.153551618997405"><ele>158.0</ele><time>2026-04-30T10:37:49Z</time></trkpt><trkpt lat="39.375611306304016" lon="9.15352257212545"><ele>158.0</ele><time>2026-04-30T10:37:49.999Z</time></trkpt><trkpt lat="39.375372095165325" lon="9.153496320414389"><ele>158.0</ele><time>2026-04-30T10:37:50.999Z</time></trkpt><trkpt lat="39.37513260938425" lon="9.153485495580798"><ele>158.0</ele><time>2026-04-30T10:37:52Z</time></trkpt><trkpt lat="39.37489528102272" lon="9.153485530374436"><ele>158.0</ele><time>2026-04-30T10:37:52.999Z</time></trkpt><trkpt lat="39.37465432482338" lon="9.153494851868752"><ele>157.0</ele><time>2026-04-30T10:37:53.999Z</time></trkpt><trkpt lat="39.37440967021254" lon="9.153508969348657"><ele>156.0</ele><time>2026-04-30T10:37:55Z</time></trkpt><trkpt lat="39.37416642867083" lon="9.153529785504904"><ele>156.0</ele><time>2026-04-30T10:37:55.999Z</time></trkpt><trkpt lat="39.373924587907" lon="9.153558785885213"><ele>156.0</ele><time>2026-04-30T10:37:56.999Z</time></trkpt><trkpt lat="39.37368154806522" lon="9.153598946850286"><ele>154.0</ele><time>2026-04-30T10:37:58Z</time></trkpt><trkpt lat="39.37344088859492" lon="9.153644907402384"><ele>152.0</ele><time>2026-04-30T10:37:58.999Z</time></trkpt><trkpt lat="39.37319827091998" lon="9.153695412707085"><ele>151.0</ele><time>2026-04-30T10:37:59.999Z</time></trkpt><trkpt lat="39.37295515057302" lon="9.153747316471314"><ele>150.0</ele><time>2026-04-30T10:38:01Z</time></trkpt><trkpt lat="39.372709192482404" lon="9.153803594018116"><ele>150.0</ele><time>2026-04-30T10:38:01.999Z</time></trkpt><trkpt lat="39.37246713859356" lon="9.153859172629888"><ele>150.0</ele><time>2026-04-30T10:38:02.999Z</time></trkpt><trkpt lat="39.37222646079325" lon="9.153913354745596"><ele>149.5</ele><time>2026-04-30T10:38:03.999Z</time></trkpt><trkpt lat="39.37198535429096" lon="9.153967803515126"><ele>149.0</ele><time>2026-04-30T10:38:04.999Z</time></trkpt><trkpt lat="39.3717450439378" lon="9.154021342403897"><ele>149.5</ele><time>2026-04-30T10:38:05.999Z</time></trkpt><trkpt lat="39.3715032478679" lon="9.15407412240153"><ele>150.0</ele><time>2026-04-30T10:38:06.999Z</time></trkpt><trkpt lat="39.371261111757406" lon="9.154125582894606"><ele>150.0</ele><time>2026-04-30T10:38:07.999Z</time></trkpt><trkpt lat="39.37101812256554" lon="9.154178739858537"><ele>150.0</ele><time>2026-04-30T10:38:08.999Z</time></trkpt><trkpt lat="39.370777259581544" lon="9.154232830648645"><ele>150.0</ele><time>2026-04-30T10:38:09.999Z</time></trkpt><trkpt lat="39.37053489235886" lon="9.154285978702028"><ele>150.0</ele><time>2026-04-30T10:38:10.999Z</time></trkpt><trkpt lat="39.37028979366083" lon="9.154337602605247"><ele>148.5</ele><time>2026-04-30T10:38:11.999Z</time></trkpt><trkpt lat="39.370040465236094" lon="9.15438975639304"><ele>147.0</ele><time>2026-04-30T10:38:12.999Z</time></trkpt><trkpt lat="39.369793617492455" lon="9.154443591959229"><ele>146.0</ele><time>2026-04-30T10:38:13.999Z</time></trkpt><trkpt lat="39.369548552652184" lon="9.154501186185508"><ele>145.0</ele><time>2026-04-30T10:38:14.999Z</time></trkpt><trkpt lat="39.369310866560106" lon="9.154568311428037"><ele>145.0</ele><time>2026-04-30T10:38:15.999Z</time></trkpt><trkpt lat="39.36907576546997" lon="9.154641809583163"><ele>145.0</ele><time>2026-04-30T10:38:16.999Z</time></trkpt><trkpt lat="39.368845234613445" lon="9.154725218776024"><ele>144.0</ele><time>2026-04-30T10:38:17.999Z</time></trkpt><trkpt lat="39.368613161660925" lon="9.154816892484053"><ele>143.0</ele><time>2026-04-30T10:38:18.999Z</time></trkpt><trkpt lat="39.3683822614595" lon="9.15491548448964"><ele>143.5</ele><time>2026-04-30T10:38:19.999Z</time></trkpt><trkpt lat="39.36816331275713" lon="9.155014583783949"><ele>144.0</ele><time>2026-04-30T10:38:20.999Z</time></trkpt><trkpt lat="39.36795317716882" lon="9.155106791295145"><ele>144.0</ele><time>2026-04-30T10:38:21.999Z</time></trkpt><trkpt lat="39.36776261974391" lon="9.155199565350996"><ele>144.0</ele><time>2026-04-30T10:38:22.999Z</time></trkpt><trkpt lat="39.367592246125795" lon="9.15527859529949"><ele>144.0</ele><time>2026-04-30T10:38:23.999Z</time></trkpt><trkpt lat="39.3674402256596" lon="9.155356226522123"><ele>144.0</ele><time>2026-04-30T10:38:24.999Z</time></trkpt><trkpt lat="39.36731696334083" lon="9.155416739241153"><ele>144.0</ele><time>2026-04-30T10:38:25.999Z</time></trkpt><trkpt lat="39.36721413671857" lon="9.155442593838208"><ele>144.0</ele><time>2026-04-30T10:38:26.999Z</time></trkpt><trkpt lat="39.36711271067382" lon="9.155425475114864"><ele>144.0</ele><time>2026-04-30T10:38:27.999Z</time></trkpt><trkpt lat="39.36700390666499" lon="9.155428398146112"><ele>144.0</ele><time>2026-04-30T10:38:28.999Z</time></trkpt><trkpt lat="39.36690326953428" lon="9.155490206532859"><ele>143.5</ele><time>2026-04-30T10:38:29.999Z</time></trkpt><trkpt lat="39.36682209707212" lon="9.155598846590198"><ele>143.0</ele><time>2026-04-30T10:38:30.999Z</time></trkpt><trkpt lat="39.366739800522055" lon="9.155709689059982"><ele>142.5</ele><time>2026-04-30T10:38:31.999Z</time></trkpt><trkpt lat="39.36662077200377" lon="9.15578939707767"><ele>142.0</ele><time>2026-04-30T10:38:32.999Z</time></trkpt><trkpt lat="39.36647803810271" lon="9.1558554647125"><ele>141.33333333333334</ele><time>2026-04-30T10:38:33.999Z</time></trkpt><trkpt lat="39.36631689614031" lon="9.155942539622686"><ele>140.66666666666666</ele><time>2026-04-30T10:38:34.999Z</time></trkpt><trkpt lat="39.366144325131984" lon="9.156030536834688"><ele>140.0</ele><time>2026-04-30T10:38:35.999Z</time></trkpt><trkpt lat="39.36596308468648" lon="9.156121424195684"><ele>140.0</ele><time>2026-04-30T10:38:36.999Z</time></trkpt><trkpt lat="39.36577685859704" lon="9.156215755001755"><ele>140.0</ele><time>2026-04-30T10:38:37.999Z</time></trkpt><trkpt lat="39.36558041307576" lon="9.156319250883419"><ele>140.0</ele><time>2026-04-30T10:38:38.999Z</time></trkpt><trkpt lat="39.365384004787884" lon="9.156428346079027"><ele>141.66666666666666</ele><time>2026-04-30T10:38:39.999Z</time></trkpt><trkpt lat="39.36518438639869" lon="9.156537353133128"><ele>143.33333333333334</ele><time>2026-04-30T10:38:40.999Z</time></trkpt><trkpt lat="39.36498032745212" lon="9.156649373753611"><ele>145.0</ele><time>2026-04-30T10:38:41.999Z</time></trkpt><trkpt lat="39.36476887265821" lon="9.156757625465541"><ele>146.5</ele><time>2026-04-30T10:38:42.999Z</time></trkpt><trkpt lat="39.36455538933486" lon="9.15686216741688"><ele>148.0</ele><time>2026-04-30T10:38:43.999Z</time></trkpt><trkpt lat="39.36434326312945" lon="9.156958992753172"><ele>148.0</ele><time>2026-04-30T10:38:44.999Z</time></trkpt><trkpt lat="39.36413187966946" lon="9.157052931965147"><ele>148.0</ele><time>2026-04-30T10:38:45.999Z</time></trkpt><trkpt lat="39.36391157637593" lon="9.157154537966925"><ele>153.5</ele><time>2026-04-30T10:38:46.999Z</time></trkpt><trkpt lat="39.36369391662776" lon="9.157253198402664"><ele>159.0</ele><time>2026-04-30T10:38:47.999Z</time></trkpt><trkpt lat="39.36347895425823" lon="9.157364927484096"><ele>157.0</ele><time>2026-04-30T10:38:48.999Z</time></trkpt><trkpt lat="39.36326556911613" lon="9.157488232971412"><ele>155.0</ele><time>2026-04-30T10:38:49.999Z</time></trkpt><trkpt lat="39.36305272723599" lon="9.157625559015719"><ele>156.0</ele><time>2026-04-30T10:38:50.999Z</time></trkpt><trkpt lat="39.362839819031215" lon="9.157772382647694"><ele>157.0</ele><time>2026-04-30T10:38:51.999Z</time></trkpt><trkpt lat="39.362628254767294" lon="9.157928561983255"><ele>157.0</ele><time>2026-04-30T10:38:52.999Z</time></trkpt><trkpt lat="39.36241901031417" lon="9.158092325348578"><ele>157.0</ele><time>2026-04-30T10:38:53.999Z</time></trkpt><trkpt lat="39.36221164562622" lon="9.158263525285193"><ele>156.5</ele><time>2026-04-30T10:38:54.999Z</time></trkpt><trkpt lat="39.36200556240682" lon="9.15844971790407"><ele>156.0</ele><time>2026-04-30T10:38:55.999Z</time></trkpt><trkpt lat="39.361803769365174" lon="9.15864784940112"><ele>156.0</ele><time>2026-04-30T10:38:56.999Z</time></trkpt><trkpt lat="39.36160587404138" lon="9.158856607157082"><ele>156.0</ele><time>2026-04-30T10:38:57.999Z</time></trkpt><trkpt lat="39.361405561124066" lon="9.159065197793062"><ele>154.5</ele><time>2026-04-30T10:38:58.999Z</time></trkpt><trkpt lat="39.36120490571749" lon="9.159278922683903"><ele>153.0</ele><time>2026-04-30T10:38:59.999Z</time></trkpt><trkpt lat="39.36100092719419" lon="9.159490853991178"><ele>153.0</ele><time>2026-04-30T10:39:00.999Z</time></trkpt><trkpt lat="39.360800826186995" lon="9.159703632021724"><ele>153.0</ele><time>2026-04-30T10:39:01.999Z</time></trkpt><trkpt lat="39.36059861172467" lon="9.159917104227251"><ele>152.5</ele><time>2026-04-30T10:39:02.999Z</time></trkpt><trkpt lat="39.3603960730197" lon="9.160129787423454"><ele>152.0</ele><time>2026-04-30T10:39:03.999Z</time></trkpt><trkpt lat="39.36019503846806" lon="9.160343096629362"><ele>152.0</ele><time>2026-04-30T10:39:04.999Z</time></trkpt><trkpt lat="39.359994331783234" lon="9.16055584252669"><ele>152.0</ele><time>2026-04-30T10:39:05.999Z</time></trkpt><trkpt lat="39.35979186167575" lon="9.160767122453365"><ele>152.0</ele><time>2026-04-30T10:39:06.999Z</time></trkpt><trkpt lat="39.35959151069169" lon="9.160980173903784"><ele>152.0</ele><time>2026-04-30T10:39:07.999Z</time></trkpt><trkpt lat="39.35939201391597" lon="9.161195319019999"><ele>152.0</ele><time>2026-04-30T10:39:08.999Z</time></trkpt><trkpt lat="39.35918994360963" lon="9.161409287555959"><ele>152.0</ele><time>2026-04-30T10:39:09.999Z</time></trkpt><trkpt lat="39.35898434038776" lon="9.161622944371867"><ele>152.5</ele><time>2026-04-30T10:39:10.999Z</time></trkpt><trkpt lat="39.35878088981159" lon="9.161835569497772"><ele>153.0</ele><time>2026-04-30T10:39:11.999Z</time></trkpt><trkpt lat="39.35857718832251" lon="9.162045428793734"><ele>153.0</ele><time>2026-04-30T10:39:12.999Z</time></trkpt><trkpt lat="39.358379986807705" lon="9.16225400599107"><ele>153.0</ele><time>2026-04-30T10:39:13.999Z</time></trkpt><trkpt lat="39.35818713557101" lon="9.162456011238591"><ele>153.0</ele><time>2026-04-30T10:39:14.999Z</time></trkpt><trkpt lat="39.35799855350996" lon="9.16265810910545"><ele>153.0</ele><time>2026-04-30T10:39:15.999Z</time></trkpt><trkpt lat="39.35781930903327" lon="9.162843505004357"><ele>153.0</ele><time>2026-04-30T10:39:16.999Z</time></trkpt><trkpt lat="39.357649132258715" lon="9.163022597947798"><ele>153.0</ele><time>2026-04-30T10:39:17.999Z</time></trkpt><trkpt lat="39.35748179523845" lon="9.16318771583662"><ele>153.0</ele><time>2026-04-30T10:39:18.999Z</time></trkpt><trkpt lat="39.35732007307376" lon="9.163322865308174"><ele>152.33333333333334</ele><time>2026-04-30T10:39:19.999Z</time></trkpt><trkpt lat="39.35715814755292" lon="9.163437368780937"><ele>151.66666666666669</ele><time>2026-04-30T10:39:20.999Z</time></trkpt><trkpt lat="39.356987371578356" lon="9.163527140599808"><ele>151.0</ele><time>2026-04-30T10:39:21.999Z</time></trkpt><trkpt lat="39.35681205774469" lon="9.16361131521958"><ele>151.0</ele><time>2026-04-30T10:39:22.999Z</time></trkpt><trkpt lat="39.35662857851605" lon="9.163676808429498"><ele>151.0</ele><time>2026-04-30T10:39:23.999Z</time></trkpt><trkpt lat="39.356438274306846" lon="9.16372092690415"><ele>151.0</ele><time>2026-04-30T10:39:24.999Z</time></trkpt><trkpt lat="39.35624763063952" lon="9.163754389350451"><ele>151.0</ele><time>2026-04-30T10:39:25.999Z</time></trkpt><trkpt lat="39.356055745041076" lon="9.16376902978503"><ele>151.0</ele><time>2026-04-30T10:39:26.999Z</time></trkpt><trkpt lat="39.35585781688793" lon="9.163770126621248"><ele>151.0</ele><time>2026-04-30T10:39:27.999Z</time></trkpt><trkpt lat="39.35564998667442" lon="9.163748048323672"><ele>151.33333333333334</ele><time>2026-04-30T10:39:28.999Z</time></trkpt><trkpt lat="39.355443124087316" lon="9.163731000384857"><ele>151.66666666666666</ele><time>2026-04-30T10:39:29.999Z</time></trkpt><trkpt lat="39.35522874961729" lon="9.16370876061305"><ele>152.0</ele><time>2026-04-30T10:39:30.999Z</time></trkpt><trkpt lat="39.35500915728394" lon="9.163690988685888"><ele>152.0</ele><time>2026-04-30T10:39:31.999Z</time></trkpt><trkpt lat="39.35479083824751" lon="9.163678394381499"><ele>152.0</ele><time>2026-04-30T10:39:32.999Z</time></trkpt><trkpt lat="39.35456982605291" lon="9.163664024948277"><ele>152.0</ele><time>2026-04-30T10:39:33.999Z</time></trkpt><trkpt lat="39.35435389134563" lon="9.163649659643015"><ele>152.66666666666666</ele><time>2026-04-30T10:39:34.999Z</time></trkpt><trkpt lat="39.354141468906555" lon="9.163638535240134"><ele>153.33333333333334</ele><time>2026-04-30T10:39:35.999Z</time></trkpt><trkpt lat="39.3539321800953" lon="9.163629040714397"><ele>154.0</ele><time>2026-04-30T10:39:36.999Z</time></trkpt><trkpt lat="39.35372295339297" lon="9.163611585036556"><ele>154.66666666666669</ele><time>2026-04-30T10:39:37.999Z</time></trkpt><trkpt lat="39.35351940503053" lon="9.16356700500423"><ele>155.33333333333334</ele><time>2026-04-30T10:39:38.999Z</time></trkpt><trkpt lat="39.35331232833297" lon="9.163508638866505"><ele>156.0</ele><time>2026-04-30T10:39:39.999Z</time></trkpt><trkpt lat="39.35310443359852" lon="9.163440651715106"><ele>155.33333333333334</ele><time>2026-04-30T10:39:40.999Z</time></trkpt><trkpt lat="39.35289769799399" lon="9.163359886827555"><ele>154.66666666666669</ele><time>2026-04-30T10:39:41.999Z</time></trkpt><trkpt lat="39.35269419824835" lon="9.163268739714818"><ele>154.0</ele><time>2026-04-30T10:39:42.999Z</time></trkpt><trkpt lat="39.35248624853901" lon="9.163171373726561"><ele>153.0</ele><time>2026-04-30T10:39:43.999Z</time></trkpt><trkpt lat="39.35227698942497" lon="9.163073298261507"><ele>152.0</ele><time>2026-04-30T10:39:44.999Z</time></trkpt><trkpt lat="39.35206409901116" lon="9.162974231617127"><ele>151.0</ele><time>2026-04-30T10:39:45.999Z</time></trkpt><trkpt lat="39.35184543943514" lon="9.162878179499488"><ele>154.0</ele><time>2026-04-30T10:39:46.999Z</time></trkpt><trkpt lat="39.351625678519646" lon="9.162788447632325"><ele>157.0</ele><time>2026-04-30T10:39:47.999Z</time></trkpt><trkpt lat="39.351404991767225" lon="9.16269184781076"><ele>161.0</ele><time>2026-04-30T10:39:48.999Z</time></trkpt><trkpt lat="39.35118466086803" lon="9.162590571347456"><ele>165.0</ele><time>2026-04-30T10:39:49.999Z</time></trkpt><trkpt lat="39.350965980468004" lon="9.162485527414681"><ele>165.0</ele><time>2026-04-30T10:39:50.999Z</time></trkpt><trkpt lat="39.35074503102956" lon="9.162384077193307"><ele>165.0</ele><time>2026-04-30T10:39:51.999Z</time></trkpt><trkpt lat="39.35052163849707" lon="9.162284051390623"><ele>169.0</ele><time>2026-04-30T10:39:52.999Z</time></trkpt><trkpt lat="39.350299764850824" lon="9.16218047066205"><ele>173.0</ele><time>2026-04-30T10:39:54Z</time></trkpt><trkpt lat="39.35008103967776" lon="9.162078193917974"><ele>173.0</ele><time>2026-04-30T10:39:55Z</time></trkpt><trkpt lat="39.34987232232326" lon="9.161978091038888"><ele>173.0</ele><time>2026-04-30T10:39:56Z</time></trkpt><trkpt lat="39.34966116971912" lon="9.161870200446044"><ele>172.5</ele><time>2026-04-30T10:39:57Z</time></trkpt><trkpt lat="39.349439749280215" lon="9.161760130850219"><ele>172.0</ele><time>2026-04-30T10:39:58Z</time></trkpt><trkpt lat="39.34921087740525" lon="9.161655543213577"><ele>172.0</ele><time>2026-04-30T10:39:59Z</time></trkpt><trkpt lat="39.34897913408695" lon="9.161551476891272"><ele>172.0</ele><time>2026-04-30T10:40:00Z</time></trkpt><trkpt lat="39.34874807383248" lon="9.16144472003554"><ele>170.0</ele><time>2026-04-30T10:40:01Z</time></trkpt><trkpt lat="39.348521502714156" lon="9.16133322223025"><ele>168.0</ele><time>2026-04-30T10:40:02Z</time></trkpt><trkpt lat="39.3482962613038" lon="9.161209077959079"><ele>168.0</ele><time>2026-04-30T10:40:03Z</time></trkpt><trkpt lat="39.3480642165474" lon="9.161097957038487"><ele>168.0</ele><time>2026-04-30T10:40:04Z</time></trkpt><trkpt lat="39.34783818001074" lon="9.160976479686873"><ele>164.5</ele><time>2026-04-30T10:40:05Z</time></trkpt><trkpt lat="39.347605964896616" lon="9.160883995376183"><ele>161.0</ele><time>2026-04-30T10:40:06Z</time></trkpt><trkpt lat="39.347373081459295" lon="9.160786224790876"><ele>158.0</ele><time>2026-04-30T10:40:07Z</time></trkpt><trkpt lat="39.34713778182575" lon="9.160685586575507"><ele>155.0</ele><time>2026-04-30T10:40:08Z</time></trkpt><trkpt lat="39.34690736924444" lon="9.160579295764455"><ele>155.0</ele><time>2026-04-30T10:40:09Z</time></trkpt><trkpt lat="39.346684347226415" lon="9.160469052280627"><ele>155.0</ele><time>2026-04-30T10:40:10Z</time></trkpt><trkpt lat="39.34646231952564" lon="9.16035306404448"><ele>153.5</ele><time>2026-04-30T10:40:11Z</time></trkpt><trkpt lat="39.346252782026156" lon="9.16022503133196"><ele>152.0</ele><time>2026-04-30T10:40:12Z</time></trkpt><trkpt lat="39.34605364161216" lon="9.160103726923033"><ele>152.0</ele><time>2026-04-30T10:40:13Z</time></trkpt><trkpt lat="39.34586225128733" lon="9.159987884083577"><ele>152.0</ele><time>2026-04-30T10:40:14Z</time></trkpt><trkpt lat="39.34567291173116" lon="9.159871517519756"><ele>152.0</ele><time>2026-04-30T10:40:15Z</time></trkpt><trkpt lat="39.345492212722654" lon="9.159761374665472"><ele>151.0</ele><time>2026-04-30T10:40:16Z</time></trkpt><trkpt lat="39.34531460152413" lon="9.159647678927458"><ele>150.0</ele><time>2026-04-30T10:40:17Z</time></trkpt><trkpt lat="39.34514217536032" lon="9.159542475188502"><ele>149.0</ele><time>2026-04-30T10:40:18Z</time></trkpt><trkpt lat="39.3449765916096" lon="9.159438718310376"><ele>149.0</ele><time>2026-04-30T10:40:19Z</time></trkpt><trkpt lat="39.344818440020745" lon="9.159337299707424"><ele>149.0</ele><time>2026-04-30T10:40:20Z</time></trkpt><trkpt lat="39.34466698691758" lon="9.159242657284583"><ele>149.0</ele><time>2026-04-30T10:40:21Z</time></trkpt><trkpt lat="39.344521078158245" lon="9.159154248156522"><ele>148.25</ele><time>2026-04-30T10:40:22Z</time></trkpt><trkpt lat="39.34437808845216" lon="9.159064929798058"><ele>147.5</ele><time>2026-04-30T10:40:23Z</time></trkpt><trkpt lat="39.344255228555056" lon="9.15898562902245"><ele>146.75</ele><time>2026-04-30T10:40:24Z</time></trkpt><trkpt lat="39.34416644498874" lon="9.158929317642874"><ele>146.0</ele><time>2026-04-30T10:40:25Z</time></trkpt><trkpt lat="39.344096226202396" lon="9.158879636276275"><ele>145.6</ele><time>2026-04-30T10:40:26Z</time></trkpt><trkpt lat="39.34400431886424" lon="9.158813732486433"><ele>145.2</ele><time>2026-04-30T10:40:28Z</time></trkpt><trkpt lat="39.34394456778305" lon="9.158767816306955"><ele>144.8</ele><time>2026-04-30T10:40:30Z</time></trkpt><trkpt lat="39.343833871102404" lon="9.15869704511416"><ele>144.4</ele><time>2026-04-30T10:40:32Z</time></trkpt><trkpt lat="39.343753186213235" lon="9.158653050975772"><ele>144.0</ele><time>2026-04-30T10:40:33Z</time></trkpt><trkpt lat="39.343666884176905" lon="9.158608864545256"><ele>143.75</ele><time>2026-04-30T10:40:34Z</time></trkpt><trkpt lat="39.34356978712124" lon="9.158553221956456"><ele>143.5</ele><time>2026-04-30T10:40:35Z</time></trkpt><trkpt lat="39.343475249518214" lon="9.158477449716782"><ele>143.25</ele><time>2026-04-30T10:40:36Z</time></trkpt><trkpt lat="39.343368044425404" lon="9.15839713908731"><ele>143.0</ele><time>2026-04-30T10:40:37Z</time></trkpt><trkpt lat="39.34323897460472" lon="9.15831778031576"><ele>143.0</ele><time>2026-04-30T10:40:38Z</time></trkpt><trkpt lat="39.34309826556014" lon="9.15823831903111"><ele>143.0</ele><time>2026-04-30T10:40:39Z</time></trkpt><trkpt lat="39.34295078682739" lon="9.158153363503397"><ele>143.0</ele><time>2026-04-30T10:40:40Z</time></trkpt><trkpt lat="39.34279212046815" lon="9.15806175327512"><ele>143.0</ele><time>2026-04-30T10:40:41Z</time></trkpt><trkpt lat="39.34262210240092" lon="9.15796537765572"><ele>143.0</ele><time>2026-04-30T10:40:42Z</time></trkpt><trkpt lat="39.34244701563978" lon="9.157861672698282"><ele>143.0</ele><time>2026-04-30T10:40:43Z</time></trkpt><trkpt lat="39.34226759347934" lon="9.157752028300083"><ele>143.33333333333331</ele><time>2026-04-30T10:40:44Z</time></trkpt><trkpt lat="39.342086802804346" lon="9.157634749032555"><ele>143.66666666666666</ele><time>2026-04-30T10:40:45Z</time></trkpt><trkpt lat="39.34190104169348" lon="9.15751014427191"><ele>144.0</ele><time>2026-04-30T10:40:46Z</time></trkpt><trkpt lat="39.341711568960285" lon="9.157389273408633"><ele>143.33333333333334</ele><time>2026-04-30T10:40:47Z</time></trkpt><trkpt lat="39.3415159969022" lon="9.157278157006633"><ele>142.66666666666669</ele><time>2026-04-30T10:40:48Z</time></trkpt><trkpt lat="39.34131511343941" lon="9.15716779969411"><ele>142.0</ele><time>2026-04-30T10:40:49Z</time></trkpt><trkpt lat="39.341108638421865" lon="9.157045827577775"><ele>142.0</ele><time>2026-04-30T10:40:50Z</time></trkpt><trkpt lat="39.34089995527628" lon="9.156921597764342"><ele>142.0</ele><time>2026-04-30T10:40:51Z</time></trkpt><trkpt lat="39.34069100277124" lon="9.156793418447613"><ele>142.5</ele><time>2026-04-30T10:40:52Z</time></trkpt><trkpt lat="39.34048132308439" lon="9.156662840819346"><ele>143.0</ele><time>2026-04-30T10:40:53Z</time></trkpt><trkpt lat="39.34026287109505" lon="9.156529930089148"><ele>142.0</ele><time>2026-04-30T10:40:54Z</time></trkpt><trkpt lat="39.34004502372856" lon="9.156386630026425"><ele>141.0</ele><time>2026-04-30T10:40:55Z</time></trkpt><trkpt lat="39.33982174765529" lon="9.156246071366814"><ele>140.5</ele><time>2026-04-30T10:40:56Z</time></trkpt><trkpt lat="39.33960024082326" lon="9.156105587272958"><ele>140.0</ele><time>2026-04-30T10:40:57Z</time></trkpt><trkpt lat="39.33938131334929" lon="9.155964605965346"><ele>140.0</ele><time>2026-04-30T10:40:58Z</time></trkpt><trkpt lat="39.33916436022362" lon="9.155831546986606"><ele>140.0</ele><time>2026-04-30T10:40:59Z</time></trkpt><trkpt lat="39.338947057581684" lon="9.155695588220661"><ele>139.5</ele><time>2026-04-30T10:41:00Z</time></trkpt><trkpt lat="39.33873348372791" lon="9.155556012700474"><ele>139.0</ele><time>2026-04-30T10:41:01Z</time></trkpt><trkpt lat="39.33851547841316" lon="9.155415077704632"><ele>139.0</ele><time>2026-04-30T10:41:02Z</time></trkpt><trkpt lat="39.33829270290942" lon="9.155280535059093"><ele>139.0</ele><time>2026-04-30T10:41:03Z</time></trkpt><trkpt lat="39.33806817904844" lon="9.155146265160928"><ele>139.5</ele><time>2026-04-30T10:41:04Z</time></trkpt><trkpt lat="39.33784242299914" lon="9.155017268185405"><ele>140.0</ele><time>2026-04-30T10:41:05Z</time></trkpt><trkpt lat="39.33761090844803" lon="9.154902747127021"><ele>138.5</ele><time>2026-04-30T10:41:06Z</time></trkpt><trkpt lat="39.33737552996843" lon="9.154806159363938"><ele>137.0</ele><time>2026-04-30T10:41:07Z</time></trkpt><trkpt lat="39.33713534639935" lon="9.154715648751706"><ele>137.0</ele><time>2026-04-30T10:41:08Z</time></trkpt><trkpt lat="39.33689273176668" lon="9.154635737231551"><ele>137.0</ele><time>2026-04-30T10:41:09Z</time></trkpt><trkpt lat="39.336648010923156" lon="9.15456429294898"><ele>137.0</ele><time>2026-04-30T10:41:10Z</time></trkpt><trkpt lat="39.33640470210203" lon="9.15449719545068"><ele>137.0</ele><time>2026-04-30T10:41:11Z</time></trkpt><trkpt lat="39.336161031852775" lon="9.154427062829681"><ele>140.0</ele><time>2026-04-30T10:41:12Z</time></trkpt><trkpt lat="39.33591808896222" lon="9.154356802986396"><ele>143.0</ele><time>2026-04-30T10:41:13Z</time></trkpt><trkpt lat="39.33567676571348" lon="9.154286492406412"><ele>148.0</ele><time>2026-04-30T10:41:14Z</time></trkpt><trkpt lat="39.33543738158884" lon="9.154216275712368"><ele>153.0</ele><time>2026-04-30T10:41:15Z</time></trkpt><trkpt lat="39.33520169412955" lon="9.154149784498234"><ele>153.0</ele><time>2026-04-30T10:41:16Z</time></trkpt><trkpt lat="39.33496519128067" lon="9.15408173698062"><ele>153.0</ele><time>2026-04-30T10:41:17Z</time></trkpt><trkpt lat="39.334732015058016" lon="9.154009868771416"><ele>154.0</ele><time>2026-04-30T10:41:18Z</time></trkpt><trkpt lat="39.33449670551822" lon="9.153942264428116"><ele>155.0</ele><time>2026-04-30T10:41:19Z</time></trkpt><trkpt lat="39.33426159369155" lon="9.153871123253221"><ele>155.0</ele><time>2026-04-30T10:41:20Z</time></trkpt><trkpt lat="39.33402685694587" lon="9.153784091233083"><ele>155.0</ele><time>2026-04-30T10:41:21Z</time></trkpt><trkpt lat="39.33379589459829" lon="9.153671928836049"><ele>155.0</ele><time>2026-04-30T10:41:22Z</time></trkpt><trkpt lat="39.33356920690267" lon="9.153542302216147"><ele>155.0</ele><time>2026-04-30T10:41:23Z</time></trkpt><trkpt lat="39.33334690943142" lon="9.153391541349515"><ele>155.0</ele><time>2026-04-30T10:41:24Z</time></trkpt><trkpt lat="39.33312609951976" lon="9.153226906735139"><ele>155.0</ele><time>2026-04-30T10:41:25Z</time></trkpt><trkpt lat="39.332906802852804" lon="9.153060929576956"><ele>154.5</ele><time>2026-04-30T10:41:26Z</time></trkpt><trkpt lat="39.332685951398155" lon="9.152888422629005"><ele>154.0</ele><time>2026-04-30T10:41:27Z</time></trkpt><trkpt lat="39.33246420658372" lon="9.152716531689984"><ele>154.0</ele><time>2026-04-30T10:41:28Z</time></trkpt><trkpt lat="39.33224308327533" lon="9.152543398849946"><ele>154.0</ele><time>2026-04-30T10:41:28.999Z</time></trkpt><trkpt lat="39.332022665758934" lon="9.152377984445808"><ele>152.5</ele><time>2026-04-30T10:41:29.999Z</time></trkpt><trkpt lat="39.33179700921112" lon="9.152217907213814"><ele>151.0</ele><time>2026-04-30T10:41:30.999Z</time></trkpt><trkpt lat="39.33156874491854" lon="9.152054943375807"><ele>152.0</ele><time>2026-04-30T10:41:31.999Z</time></trkpt><trkpt lat="39.33134081951508" lon="9.151900292580805"><ele>153.0</ele><time>2026-04-30T10:41:32.999Z</time></trkpt><trkpt lat="39.33112377907969" lon="9.151735828904721"><ele>153.0</ele><time>2026-04-30T10:41:33.999Z</time></trkpt><trkpt lat="39.33091191467086" lon="9.151569809177968"><ele>153.0</ele><time>2026-04-30T10:41:34.999Z</time></trkpt><trkpt lat="39.330696739833726" lon="9.151400457325638"><ele>152.0</ele><time>2026-04-30T10:41:35.999Z</time></trkpt><trkpt lat="39.330478601486426" lon="9.15123721341578"><ele>151.0</ele><time>2026-04-30T10:41:36.999Z</time></trkpt><trkpt lat="39.33025711150582" lon="9.151087214990433"><ele>151.0</ele><time>2026-04-30T10:41:37.999Z</time></trkpt><trkpt lat="39.33003140448611" lon="9.150930990506955"><ele>151.0</ele><time>2026-04-30T10:41:38.999Z</time></trkpt><trkpt lat="39.329801189206215" lon="9.150769397362833"><ele>150.0</ele><time>2026-04-30T10:41:39.999Z</time></trkpt><trkpt lat="39.32956840741872" lon="9.15061204466655"><ele>149.0</ele><time>2026-04-30T10:41:40.999Z</time></trkpt><trkpt lat="39.32934079258035" lon="9.150447507554816"><ele>149.0</ele><time>2026-04-30T10:41:41.999Z</time></trkpt><trkpt lat="39.32910818446334" lon="9.150278454558377"><ele>149.0</ele><time>2026-04-30T10:41:42.999Z</time></trkpt><trkpt lat="39.328880726500635" lon="9.15010989683138"><ele>147.5</ele><time>2026-04-30T10:41:43.999Z</time></trkpt><trkpt lat="39.32865627248907" lon="9.149945117007018"><ele>146.0</ele><time>2026-04-30T10:41:44.999Z</time></trkpt><trkpt lat="39.32843410889386" lon="9.149779182674438"><ele>146.0</ele><time>2026-04-30T10:41:45.999Z</time></trkpt><trkpt lat="39.328209888705004" lon="9.149612050253221"><ele>146.0</ele><time>2026-04-30T10:41:46.999Z</time></trkpt><trkpt lat="39.32798558904191" lon="9.149447291327782"><ele>145.0</ele><time>2026-04-30T10:41:47.999Z</time></trkpt><trkpt lat="39.32776516729622" lon="9.149283193805628"><ele>144.0</ele><time>2026-04-30T10:41:48.999Z</time></trkpt><trkpt lat="39.327542525860636" lon="9.149119784477083"><ele>144.0</ele><time>2026-04-30T10:41:49.999Z</time></trkpt><trkpt lat="39.32732286851051" lon="9.148961724891622"><ele>144.0</ele><time>2026-04-30T10:41:50.999Z</time></trkpt><trkpt lat="39.32710014527339" lon="9.148795182278041"><ele>143.0</ele><time>2026-04-30T10:41:51.999Z</time></trkpt><trkpt lat="39.32687638564049" lon="9.148633368862447"><ele>142.0</ele><time>2026-04-30T10:41:52.999Z</time></trkpt><trkpt lat="39.326650632401694" lon="9.148466920038384"><ele>142.0</ele><time>2026-04-30T10:41:53.999Z</time></trkpt><trkpt lat="39.326424294177336" lon="9.148308901210244"><ele>142.0</ele><time>2026-04-30T10:41:54.999Z</time></trkpt><trkpt lat="39.32620662894334" lon="9.148141600895718"><ele>140.5</ele><time>2026-04-30T10:41:55.999Z</time></trkpt><trkpt lat="39.32598509616349" lon="9.147981278792233"><ele>139.0</ele><time>2026-04-30T10:41:56.999Z</time></trkpt><trkpt lat="39.325762153547" lon="9.147823274158025"><ele>139.0</ele><time>2026-04-30T10:41:57.999Z</time></trkpt><trkpt lat="39.32554032926092" lon="9.147659710199967"><ele>139.0</ele><time>2026-04-30T10:41:58.999Z</time></trkpt><trkpt lat="39.325319557195094" lon="9.147495520527775"><ele>138.5</ele><time>2026-04-30T10:42:00Z</time></trkpt><trkpt lat="39.32509828872061" lon="9.147327973741998"><ele>138.0</ele><time>2026-04-30T10:42:01Z</time></trkpt><trkpt lat="39.324875766194594" lon="9.14716214588001"><ele>138.0</ele><time>2026-04-30T10:42:02Z</time></trkpt><trkpt lat="39.32465498153978" lon="9.147002330195"><ele>138.0</ele><time>2026-04-30T10:42:03Z</time></trkpt><trkpt lat="39.3244328533311" lon="9.146843537919898"><ele>138.0</ele><time>2026-04-30T10:42:04Z</time></trkpt><trkpt lat="39.32421411855911" lon="9.146680093832437"><ele>138.0</ele><time>2026-04-30T10:42:05Z</time></trkpt><trkpt lat="39.3239943766974" lon="9.14652157512217"><ele>137.0</ele><time>2026-04-30T10:42:06Z</time></trkpt><trkpt lat="39.32377250578662" lon="9.146360648319153"><ele>136.0</ele><time>2026-04-30T10:42:07Z</time></trkpt><trkpt lat="39.32355352967101" lon="9.146196086644325"><ele>136.0</ele><time>2026-04-30T10:42:08Z</time></trkpt><trkpt lat="39.323336407260406" lon="9.146032050987403"><ele>136.0</ele><time>2026-04-30T10:42:09Z</time></trkpt><trkpt lat="39.3231193141684" lon="9.145867951073937"><ele>135.0</ele><time>2026-04-30T10:42:10Z</time></trkpt><trkpt lat="39.322899865258385" lon="9.145706241590988"><ele>134.0</ele><time>2026-04-30T10:42:11Z</time></trkpt><trkpt lat="39.32267778384061" lon="9.145547209492094"><ele>134.0</ele><time>2026-04-30T10:42:12Z</time></trkpt><trkpt lat="39.322457979829856" lon="9.145385531375373"><ele>134.0</ele><time>2026-04-30T10:42:13Z</time></trkpt><trkpt lat="39.32223844873161" lon="9.14522030069591"><ele>133.0</ele><time>2026-04-30T10:42:14Z</time></trkpt><trkpt lat="39.322018120472585" lon="9.145072151467415"><ele>132.0</ele><time>2026-04-30T10:42:15Z</time></trkpt><trkpt lat="39.32179698691479" lon="9.144947822362187"><ele>131.5</ele><time>2026-04-30T10:42:16Z</time></trkpt><trkpt lat="39.321569645259046" lon="9.144830853112706"><ele>131.0</ele><time>2026-04-30T10:42:17Z</time></trkpt><trkpt lat="39.3213317133232" lon="9.144728106964669"><ele>130.5</ele><time>2026-04-30T10:42:18Z</time></trkpt><trkpt lat="39.32108910824682" lon="9.144638613348524"><ele>130.0</ele><time>2026-04-30T10:42:19Z</time></trkpt><trkpt lat="39.32083755415179" lon="9.144560982007356"><ele>130.0</ele><time>2026-04-30T10:42:20Z</time></trkpt><trkpt lat="39.320586399302506" lon="9.144483661599377"><ele>130.0</ele><time>2026-04-30T10:42:21Z</time></trkpt><trkpt lat="39.32033206865021" lon="9.144408249822037"><ele>129.5</ele><time>2026-04-30T10:42:22Z</time></trkpt><trkpt lat="39.320080810317606" lon="9.14433064642519"><ele>129.0</ele><time>2026-04-30T10:42:23Z</time></trkpt><trkpt lat="39.31982696436359" lon="9.14425663758413"><ele>127.5</ele><time>2026-04-30T10:42:24Z</time></trkpt><trkpt lat="39.31957817697783" lon="9.144183128555454"><ele>126.0</ele><time>2026-04-30T10:42:25Z</time></trkpt><trkpt lat="39.31933733136582" lon="9.144097283654464"><ele>126.5</ele><time>2026-04-30T10:42:26Z</time></trkpt><trkpt lat="39.31911011950538" lon="9.144017192392285"><ele>127.0</ele><time>2026-04-30T10:42:27Z</time></trkpt><trkpt lat="39.318900708031656" lon="9.14394892287828"><ele>126.33333333333334</ele><time>2026-04-30T10:42:28Z</time></trkpt><trkpt lat="39.31869679518794" lon="9.14388198195927"><ele>125.66666666666666</ele><time>2026-04-30T10:42:29Z</time></trkpt><trkpt lat="39.31850144832277" lon="9.14382830948071"><ele>125.0</ele><time>2026-04-30T10:42:30Z</time></trkpt><trkpt lat="39.31831309700516" lon="9.14377076492439"><ele>125.0</ele><time>2026-04-30T10:42:31Z</time></trkpt><trkpt lat="39.31813530139043" lon="9.143712873825532"><ele>125.0</ele><time>2026-04-30T10:42:32Z</time></trkpt><trkpt lat="39.31795130943079" lon="9.143657565833033"><ele>125.0</ele><time>2026-04-30T10:42:33Z</time></trkpt><trkpt lat="39.31774766865026" lon="9.143601131102008"><ele>124.5</ele><time>2026-04-30T10:42:34Z</time></trkpt><trkpt lat="39.31752891652008" lon="9.143533793978213"><ele>124.0</ele><time>2026-04-30T10:42:35Z</time></trkpt><trkpt lat="39.317295741112396" lon="9.143461411276425"><ele>123.5</ele><time>2026-04-30T10:42:36Z</time></trkpt><trkpt lat="39.31705465500126" lon="9.143387355859641"><ele>123.0</ele><time>2026-04-30T10:42:37Z</time></trkpt><trkpt lat="39.31680379948745" lon="9.143314433266744"><ele>123.0</ele><time>2026-04-30T10:42:37.999Z</time></trkpt><trkpt lat="39.31654730325809" lon="9.143229841332976"><ele>123.0</ele><time>2026-04-30T10:42:38.999Z</time></trkpt><trkpt lat="39.316281512224926" lon="9.143143670116592"><ele>120.5</ele><time>2026-04-30T10:42:39.999Z</time></trkpt><trkpt lat="39.31602224862807" lon="9.143056132452259"><ele>118.0</ele><time>2026-04-30T10:42:40.999Z</time></trkpt><trkpt lat="39.31576817024453" lon="9.142962946456976"><ele>117.5</ele><time>2026-04-30T10:42:41.999Z</time></trkpt><trkpt lat="39.31551398611515" lon="9.142870332715004"><ele>117.0</ele><time>2026-04-30T10:42:42.999Z</time></trkpt><trkpt lat="39.31526252632699" lon="9.142786280864835"><ele>117.0</ele><time>2026-04-30T10:42:43.999Z</time></trkpt><trkpt lat="39.31501113123854" lon="9.142708960230266"><ele>117.0</ele><time>2026-04-30T10:42:44.999Z</time></trkpt><trkpt lat="39.314756192925365" lon="9.142637944164797"><ele>116.0</ele><time>2026-04-30T10:42:45.999Z</time></trkpt><trkpt lat="39.31450209511863" lon="9.142575220155145"><ele>115.0</ele><time>2026-04-30T10:42:46.999Z</time></trkpt><trkpt lat="39.3142497071653" lon="9.14252822740104"><ele>115.0</ele><time>2026-04-30T10:42:47.999Z</time></trkpt><trkpt lat="39.31400443371713" lon="9.142488737149916"><ele>115.0</ele><time>2026-04-30T10:42:48.999Z</time></trkpt><trkpt lat="39.31376239268554" lon="9.142447937411077"><ele>115.0</ele><time>2026-04-30T10:42:49.999Z</time></trkpt><trkpt lat="39.313520903477446" lon="9.142402010815248"><ele>115.0</ele><time>2026-04-30T10:42:50.999Z</time></trkpt><trkpt lat="39.31327579830201" lon="9.14235794700047"><ele>114.0</ele><time>2026-04-30T10:42:51.999Z</time></trkpt><trkpt lat="39.31303341070956" lon="9.142316113240492"><ele>113.0</ele><time>2026-04-30T10:42:52.999Z</time></trkpt><trkpt lat="39.312795536279005" lon="9.142272047822864"><ele>113.0</ele><time>2026-04-30T10:42:53.999Z</time></trkpt><trkpt lat="39.31254868371607" lon="9.142227054309291"><ele>113.0</ele><time>2026-04-30T10:42:54.999Z</time></trkpt><trkpt lat="39.31229660307003" lon="9.14218302073828"><ele>111.5</ele><time>2026-04-30T10:42:55.999Z</time></trkpt><trkpt lat="39.31204479405529" lon="9.14214248735754"><ele>110.0</ele><time>2026-04-30T10:42:56.999Z</time></trkpt><trkpt lat="39.31179523780899" lon="9.14209570958195"><ele>110.0</ele><time>2026-04-30T10:42:57.999Z</time></trkpt><trkpt lat="39.311537481036616" lon="9.142047426618799"><ele>110.0</ele><time>2026-04-30T10:42:58.999Z</time></trkpt><trkpt lat="39.311282398101156" lon="9.14200397896002"><ele>109.0</ele><time>2026-04-30T10:42:59.999Z</time></trkpt><trkpt lat="39.31102784656083" lon="9.141959883231161"><ele>108.0</ele><time>2026-04-30T10:43:00.999Z</time></trkpt><trkpt lat="39.310775547551444" lon="9.141921622396778"><ele>109.0</ele><time>2026-04-30T10:43:01.999Z</time></trkpt><trkpt lat="39.310528566799746" lon="9.14188218823718"><ele>110.0</ele><time>2026-04-30T10:43:02.999Z</time></trkpt><trkpt lat="39.3102896692607" lon="9.141841045357358"><ele>110.0</ele><time>2026-04-30T10:43:03.999Z</time></trkpt><trkpt lat="39.31005637585495" lon="9.141797753134552"><ele>110.0</ele><time>2026-04-30T10:43:04.999Z</time></trkpt><trkpt lat="39.309823554671944" lon="9.141756562967888"><ele>107.5</ele><time>2026-04-30T10:43:05.999Z</time></trkpt><trkpt lat="39.30958962062179" lon="9.141714237985708"><ele>105.0</ele><time>2026-04-30T10:43:06.999Z</time></trkpt><trkpt lat="39.30936188465737" lon="9.141674407328338"><ele>105.0</ele><time>2026-04-30T10:43:07.999Z</time></trkpt><trkpt lat="39.309124169437176" lon="9.14163864765162"><ele>105.0</ele><time>2026-04-30T10:43:08.999Z</time></trkpt><trkpt lat="39.30888570311733" lon="9.14159292199452"><ele>105.0</ele><time>2026-04-30T10:43:09.999Z</time></trkpt><trkpt lat="39.30864052138326" lon="9.141531616862487"><ele>105.0</ele><time>2026-04-30T10:43:10.999Z</time></trkpt><trkpt lat="39.308398084629445" lon="9.141446364513397"><ele>105.0</ele><time>2026-04-30T10:43:11.999Z</time></trkpt><trkpt lat="39.3081635000464" lon="9.141334546379422"><ele>105.0</ele><time>2026-04-30T10:43:12.999Z</time></trkpt><trkpt lat="39.30792761730401" lon="9.14118865799129"><ele>104.0</ele><time>2026-04-30T10:43:13.999Z</time></trkpt><trkpt lat="39.30769616211942" lon="9.141026863143178"><ele>103.0</ele><time>2026-04-30T10:43:14.999Z</time></trkpt><trkpt lat="39.30746477529432" lon="9.140872809221035"><ele>102.0</ele><time>2026-04-30T10:43:15.999Z</time></trkpt><trkpt lat="39.30723361792125" lon="9.140718149739918"><ele>101.0</ele><time>2026-04-30T10:43:16.999Z</time></trkpt><trkpt lat="39.3069996754514" lon="9.140569583153214"><ele>100.0</ele><time>2026-04-30T10:43:17.999Z</time></trkpt><trkpt lat="39.306771634917254" lon="9.140421014807776"><ele>99.0</ele><time>2026-04-30T10:43:18.999Z</time></trkpt><trkpt lat="39.3065471176854" lon="9.140276905488536"><ele>98.5</ele><time>2026-04-30T10:43:19.999Z</time></trkpt><trkpt lat="39.30632326029396" lon="9.140128361379102"><ele>98.0</ele><time>2026-04-30T10:43:20.999Z</time></trkpt><trkpt lat="39.30609905241383" lon="9.139982586827035"><ele>96.5</ele><time>2026-04-30T10:43:21.999Z</time></trkpt><trkpt lat="39.305887469739396" lon="9.139844510660293"><ele>95.0</ele><time>2026-04-30T10:43:22.999Z</time></trkpt><trkpt lat="39.30568662978421" lon="9.13971297849021"><ele>96.33333333333334</ele><time>2026-04-30T10:43:23.999Z</time></trkpt><trkpt lat="39.30549557775014" lon="9.139587319015737"><ele>97.66666666666667</ele><time>2026-04-30T10:43:24.999Z</time></trkpt><trkpt lat="39.30531240769966" lon="9.139463645913205"><ele>99.0</ele><time>2026-04-30T10:43:25.999Z</time></trkpt><trkpt lat="39.30512515001854" lon="9.139343619514134"><ele>99.0</ele><time>2026-04-30T10:43:26.999Z</time></trkpt><trkpt lat="39.30494417252726" lon="9.139225066796126"><ele>99.0</ele><time>2026-04-30T10:43:27.999Z</time></trkpt><trkpt lat="39.304761838652865" lon="9.139108961650434"><ele>99.0</ele><time>2026-04-30T10:43:28.999Z</time></trkpt><trkpt lat="39.30457121605929" lon="9.139009121298397"><ele>95.0</ele><time>2026-04-30T10:43:29.999Z</time></trkpt><trkpt lat="39.3043620705263" lon="9.138929460917678"><ele>91.0</ele><time>2026-04-30T10:43:30.999Z</time></trkpt><trkpt lat="39.30413004040938" lon="9.138887694347362"><ele>91.0</ele><time>2026-04-30T10:43:31.999Z</time></trkpt><trkpt lat="39.303887122083246" lon="9.138857355886783"><ele>91.0</ele><time>2026-04-30T10:43:32.999Z</time></trkpt><trkpt lat="39.303638484365344" lon="9.138824158041958"><ele>91.0</ele><time>2026-04-30T10:43:33.999Z</time></trkpt><trkpt lat="39.303379932104384" lon="9.138790862753632"><ele>91.0</ele><time>2026-04-30T10:43:34.999Z</time></trkpt><trkpt lat="39.3031193862403" lon="9.138763775849533"><ele>91.0</ele><time>2026-04-30T10:43:35.999Z</time></trkpt><trkpt lat="39.30285499926208" lon="9.138728946687792"><ele>91.0</ele><time>2026-04-30T10:43:36.999Z</time></trkpt><trkpt lat="39.30259401609271" lon="9.138699239427295"><ele>91.0</ele><time>2026-04-30T10:43:37.999Z</time></trkpt><trkpt lat="39.30233283622073" lon="9.138668874368465"><ele>91.0</ele><time>2026-04-30T10:43:38.999Z</time></trkpt><trkpt lat="39.30207239795489" lon="9.138637180582679"><ele>91.0</ele><time>2026-04-30T10:43:39.999Z</time></trkpt><trkpt lat="39.30181453245023" lon="9.13860886844089"><ele>91.0</ele><time>2026-04-30T10:43:40.999Z</time></trkpt><trkpt lat="39.3015571800377" lon="9.138581199254043"><ele>90.5</ele><time>2026-04-30T10:43:41.999Z</time></trkpt><trkpt lat="39.30130318595498" lon="9.138555726767821"><ele>90.0</ele><time>2026-04-30T10:43:42.999Z</time></trkpt><trkpt lat="39.30105119451644" lon="9.138529402815024"><ele>90.0</ele><time>2026-04-30T10:43:43.999Z</time></trkpt><trkpt lat="39.300803344127885" lon="9.138500612768203"><ele>90.0</ele><time>2026-04-30T10:43:44.999Z</time></trkpt><trkpt lat="39.300549845550236" lon="9.13846723390872"><ele>89.5</ele><time>2026-04-30T10:43:45.999Z</time></trkpt><trkpt lat="39.30029832704088" lon="9.138424892221662"><ele>89.0</ele><time>2026-04-30T10:43:46.999Z</time></trkpt><trkpt lat="39.300044513764455" lon="9.138366808514702"><ele>89.0</ele><time>2026-04-30T10:43:47.999Z</time></trkpt><trkpt lat="39.29978651556114" lon="9.13829844780048"><ele>89.0</ele><time>2026-04-30T10:43:48.999Z</time></trkpt><trkpt lat="39.29953500024901" lon="9.13822121915896"><ele>86.5</ele><time>2026-04-30T10:43:49.999Z</time></trkpt><trkpt lat="39.29928349448828" lon="9.138120758242515"><ele>84.0</ele><time>2026-04-30T10:43:50.999Z</time></trkpt><trkpt lat="39.29903808450351" lon="9.138005363403336"><ele>82.0</ele><time>2026-04-30T10:43:51.999Z</time></trkpt><trkpt lat="39.29878671735671" lon="9.137887106239216"><ele>80.0</ele><time>2026-04-30T10:43:52.999Z</time></trkpt><trkpt lat="39.29853402676062" lon="9.137766301628144"><ele>80.0</ele><time>2026-04-30T10:43:53.999Z</time></trkpt><trkpt lat="39.29828347459472" lon="9.137648683175271"><ele>80.0</ele><time>2026-04-30T10:43:54.999Z</time></trkpt><trkpt lat="39.29803026123145" lon="9.137534559450028"><ele>78.5</ele><time>2026-04-30T10:43:55.999Z</time></trkpt><trkpt lat="39.297775200106024" lon="9.13742425525699"><ele>77.0</ele><time>2026-04-30T10:43:56.999Z</time></trkpt><trkpt lat="39.29752477711439" lon="9.137308547013708"><ele>77.0</ele><time>2026-04-30T10:43:57.999Z</time></trkpt><trkpt lat="39.2972778864088" lon="9.137194691960106"><ele>77.0</ele><time>2026-04-30T10:43:58.999Z</time></trkpt><trkpt lat="39.297037396531955" lon="9.137087608742013"><ele>75.0</ele><time>2026-04-30T10:43:59.999Z</time></trkpt><trkpt lat="39.2967945591835" lon="9.136966757113408"><ele>73.0</ele><time>2026-04-30T10:44:00.999Z</time></trkpt><trkpt lat="39.29655724945751" lon="9.136853455336505"><ele>71.5</ele><time>2026-04-30T10:44:01.999Z</time></trkpt><trkpt lat="39.29632430711916" lon="9.136739134482232"><ele>70.0</ele><time>2026-04-30T10:44:02.999Z</time></trkpt><trkpt lat="39.296086433156134" lon="9.136627961705585"><ele>71.0</ele><time>2026-04-30T10:44:03.999Z</time></trkpt><trkpt lat="39.29584906887883" lon="9.136517144282948"><ele>72.0</ele><time>2026-04-30T10:44:04.999Z</time></trkpt><trkpt lat="39.295607571740724" lon="9.136406598242868"><ele>70.0</ele><time>2026-04-30T10:44:06Z</time></trkpt><trkpt lat="39.295362809026095" lon="9.136295079476197"><ele>68.0</ele><time>2026-04-30T10:44:07Z</time></trkpt><trkpt lat="39.295120469458105" lon="9.136179343563265"><ele>68.0</ele><time>2026-04-30T10:44:08Z</time></trkpt><trkpt lat="39.294880988200426" lon="9.136070017405137"><ele>68.0</ele><time>2026-04-30T10:44:09Z</time></trkpt><trkpt lat="39.29464087948284" lon="9.135960657546434"><ele>67.0</ele><time>2026-04-30T10:44:10Z</time></trkpt><trkpt lat="39.29439793637219" lon="9.135843664444694"><ele>66.0</ele><time>2026-04-30T10:44:11Z</time></trkpt><trkpt lat="39.2941529757264" lon="9.135733133041867"><ele>66.0</ele><time>2026-04-30T10:44:12Z</time></trkpt><trkpt lat="39.29391216632764" lon="9.135617360464659"><ele>66.0</ele><time>2026-04-30T10:44:13Z</time></trkpt><trkpt lat="39.29366745574358" lon="9.135503537518675"><ele>66.0</ele><time>2026-04-30T10:44:14Z</time></trkpt><trkpt lat="39.29342896748928" lon="9.135392369663327"><ele>66.0</ele><time>2026-04-30T10:44:15Z</time></trkpt><trkpt lat="39.293185438691154" lon="9.13528748954225"><ele>63.0</ele><time>2026-04-30T10:44:16Z</time></trkpt><trkpt lat="39.29294211209105" lon="9.135187437236828"><ele>60.0</ele><time>2026-04-30T10:44:17Z</time></trkpt><trkpt lat="39.292693909059736" lon="9.135098742988939"><ele>60.0</ele><time>2026-04-30T10:44:18Z</time></trkpt><trkpt lat="39.292442310502786" lon="9.135033142041934"><ele>60.0</ele><time>2026-04-30T10:44:19Z</time></trkpt><trkpt lat="39.29218607182078" lon="9.134971466248313"><ele>59.0</ele><time>2026-04-30T10:44:20Z</time></trkpt><trkpt lat="39.29192819864524" lon="9.134921063391351"><ele>58.0</ele><time>2026-04-30T10:44:21Z</time></trkpt><trkpt lat="39.291660966530536" lon="9.13487463758434"><ele>57.0</ele><time>2026-04-30T10:44:22Z</time></trkpt><trkpt lat="39.29140088024914" lon="9.134845886484529"><ele>56.0</ele><time>2026-04-30T10:44:23Z</time></trkpt><trkpt lat="39.2911466076239" lon="9.134821307210077"><ele>56.0</ele><time>2026-04-30T10:44:24Z</time></trkpt><trkpt lat="39.29089490045254" lon="9.134793700034123"><ele>56.0</ele><time>2026-04-30T10:44:25Z</time></trkpt><trkpt lat="39.290639638626594" lon="9.134763755067384"><ele>55.0</ele><time>2026-04-30T10:44:26Z</time></trkpt><trkpt lat="39.290384676801935" lon="9.134733996352834"><ele>54.0</ele><time>2026-04-30T10:44:27Z</time></trkpt><trkpt lat="39.290123412773966" lon="9.134705217063956"><ele>54.0</ele><time>2026-04-30T10:44:28Z</time></trkpt><trkpt lat="39.289863114816306" lon="9.134682937259575"><ele>54.0</ele><time>2026-04-30T10:44:29Z</time></trkpt><trkpt lat="39.289603495459566" lon="9.134657914774374"><ele>53.5</ele><time>2026-04-30T10:44:30Z</time></trkpt><trkpt lat="39.28934268547493" lon="9.134628521587551"><ele>53.0</ele><time>2026-04-30T10:44:31Z</time></trkpt><trkpt lat="39.28908294722533" lon="9.134600588776657"><ele>52.5</ele><time>2026-04-30T10:44:32Z</time></trkpt><trkpt lat="39.28881987611481" lon="9.134572531635444"><ele>52.0</ele><time>2026-04-30T10:44:33Z</time></trkpt><trkpt lat="39.28856009284735" lon="9.134544557455817"><ele>52.0</ele><time>2026-04-30T10:44:34Z</time></trkpt><trkpt lat="39.288297398655" lon="9.13451709491932"><ele>52.0</ele><time>2026-04-30T10:44:35Z</time></trkpt><trkpt lat="39.288039684611974" lon="9.134490871999986"><ele>51.0</ele><time>2026-04-30T10:44:36Z</time></trkpt><trkpt lat="39.287780713461046" lon="9.134458052512317"><ele>50.0</ele><time>2026-04-30T10:44:37Z</time></trkpt><trkpt lat="39.28751585334577" lon="9.134431088739314"><ele>48.5</ele><time>2026-04-30T10:44:37.999Z</time></trkpt><trkpt lat="39.2872483497552" lon="9.134405172136455"><ele>47.0</ele><time>2026-04-30T10:44:38.999Z</time></trkpt><trkpt lat="39.28697966815042" lon="9.134376395471925"><ele>47.0</ele><time>2026-04-30T10:44:39.999Z</time></trkpt><trkpt lat="39.28671546488892" lon="9.13435098299659"><ele>47.0</ele><time>2026-04-30T10:44:40.999Z</time></trkpt><trkpt lat="39.28645532403138" lon="9.134324155909976"><ele>45.5</ele><time>2026-04-30T10:44:41.999Z</time></trkpt><trkpt lat="39.2861943224968" lon="9.134297611818685"><ele>44.0</ele><time>2026-04-30T10:44:42.999Z</time></trkpt><trkpt lat="39.28593461548478" lon="9.1342744231759"><ele>44.0</ele><time>2026-04-30T10:44:43.999Z</time></trkpt><trkpt lat="39.285670535514036" lon="9.134252117993412"><ele>44.0</ele><time>2026-04-30T10:44:44.999Z</time></trkpt><trkpt lat="39.28540644457484" lon="9.13423227320929"><ele>43.0</ele><time>2026-04-30T10:44:45.999Z</time></trkpt><trkpt lat="39.28514007155978" lon="9.134212928387388"><ele>42.0</ele><time>2026-04-30T10:44:46.999Z</time></trkpt><trkpt lat="39.284881623968054" lon="9.134186702236724"><ele>40.5</ele><time>2026-04-30T10:44:47.999Z</time></trkpt><trkpt lat="39.28461995625139" lon="9.134156336819364"><ele>39.0</ele><time>2026-04-30T10:44:48.999Z</time></trkpt><trkpt lat="39.28435885553096" lon="9.134131893271583"><ele>39.0</ele><time>2026-04-30T10:44:49.999Z</time></trkpt><trkpt lat="39.284095849719" lon="9.13412368353882"><ele>39.0</ele><time>2026-04-30T10:44:50.999Z</time></trkpt><trkpt lat="39.283832550729265" lon="9.134135471357762"><ele>39.5</ele><time>2026-04-30T10:44:51.999Z</time></trkpt><trkpt lat="39.28356939970927" lon="9.134162520462455"><ele>40.0</ele><time>2026-04-30T10:44:52.999Z</time></trkpt><trkpt lat="39.28330328762681" lon="9.134205969581146"><ele>38.5</ele><time>2026-04-30T10:44:53.999Z</time></trkpt><trkpt lat="39.28304102728635" lon="9.13425175567377"><ele>37.0</ele><time>2026-04-30T10:44:54.999Z</time></trkpt><trkpt lat="39.28278035958875" lon="9.134295428292962"><ele>37.0</ele><time>2026-04-30T10:44:55.999Z</time></trkpt><trkpt lat="39.28251973994101" lon="9.134340855775893"><ele>37.0</ele><time>2026-04-30T10:44:56.999Z</time></trkpt><trkpt lat="39.28226699002738" lon="9.134383080668279"><ele>37.5</ele><time>2026-04-30T10:44:57.999Z</time></trkpt><trkpt lat="39.28201049616179" lon="9.134428259576435"><ele>38.0</ele><time>2026-04-30T10:44:58.999Z</time></trkpt><trkpt lat="39.28175454180595" lon="9.134474272809863"><ele>38.0</ele><time>2026-04-30T10:44:59.999Z</time></trkpt><trkpt lat="39.28150021764658" lon="9.134521717005358"><ele>38.0</ele><time>2026-04-30T10:45:00.999Z</time></trkpt><trkpt lat="39.281244076426596" lon="9.134568104373427"><ele>37.0</ele><time>2026-04-30T10:45:01.999Z</time></trkpt><trkpt lat="39.280989309508485" lon="9.134613370555998"><ele>36.0</ele><time>2026-04-30T10:45:02.999Z</time></trkpt><trkpt lat="39.2807314800888" lon="9.134661434950154"><ele>36.0</ele><time>2026-04-30T10:45:03.999Z</time></trkpt><trkpt lat="39.28046918131745" lon="9.134704174836017"><ele>36.0</ele><time>2026-04-30T10:45:04.999Z</time></trkpt><trkpt lat="39.28020148294427" lon="9.134757027141134"><ele>36.0</ele><time>2026-04-30T10:45:05.999Z</time></trkpt><trkpt lat="39.27993713294391" lon="9.134809532050973"><ele>36.0</ele><time>2026-04-30T10:45:06.999Z</time></trkpt><trkpt lat="39.279671293367684" lon="9.134859610401634"><ele>34.0</ele><time>2026-04-30T10:45:07.999Z</time></trkpt><trkpt lat="39.279410971596576" lon="9.134909620927163"><ele>32.0</ele><time>2026-04-30T10:45:08.999Z</time></trkpt><trkpt lat="39.27915602464059" lon="9.134958575481594"><ele>32.5</ele><time>2026-04-30T10:45:09.999Z</time></trkpt><trkpt lat="39.27890316314555" lon="9.135006295943306"><ele>33.0</ele><time>2026-04-30T10:45:10.999Z</time></trkpt><trkpt lat="39.27865342145149" lon="9.13505275489976"><ele>33.0</ele><time>2026-04-30T10:45:11.999Z</time></trkpt><trkpt lat="39.278408682635416" lon="9.135097342875753"><ele>33.0</ele><time>2026-04-30T10:45:12.999Z</time></trkpt><trkpt lat="39.27818575072231" lon="9.135138790672059"><ele>32.666666666666664</ele><time>2026-04-30T10:45:13.999Z</time></trkpt><trkpt lat="39.277975463885966" lon="9.135172735877035"><ele>32.33333333333333</ele><time>2026-04-30T10:45:14.999Z</time></trkpt><trkpt lat="39.27778076674112" lon="9.135204942614934"><ele>32.0</ele><time>2026-04-30T10:45:15.999Z</time></trkpt><trkpt lat="39.2775919747286" lon="9.135233969059154"><ele>32.0</ele><time>2026-04-30T10:45:16.999Z</time></trkpt><trkpt lat="39.277416956294196" lon="9.135264567785708"><ele>32.0</ele><time>2026-04-30T10:45:17.999Z</time></trkpt><trkpt lat="39.27725069453164" lon="9.135291336013712"><ele>32.0</ele><time>2026-04-30T10:45:18.999Z</time></trkpt><trkpt lat="39.27708665783126" lon="9.135314826322556"><ele>32.0</ele><time>2026-04-30T10:45:19.999Z</time></trkpt><trkpt lat="39.27692161729543" lon="9.135341984027022"><ele>32.0</ele><time>2026-04-30T10:45:20.999Z</time></trkpt><trkpt lat="39.27675737491503" lon="9.135375643738696"><ele>32.0</ele><time>2026-04-30T10:45:21.999Z</time></trkpt><trkpt lat="39.27659338487728" lon="9.135414497714734"><ele>31.666666666666664</ele><time>2026-04-30T10:45:22.999Z</time></trkpt><trkpt lat="39.27642818585967" lon="9.135453229434383"><ele>31.333333333333336</ele><time>2026-04-30T10:45:23.999Z</time></trkpt><trkpt lat="39.27626005032084" lon="9.135496704689054"><ele>31.0</ele><time>2026-04-30T10:45:24.999Z</time></trkpt><trkpt lat="39.27608664537772" lon="9.13554552023747"><ele>31.0</ele><time>2026-04-30T10:45:25.999Z</time></trkpt><trkpt lat="39.27591482558795" lon="9.135598142805485"><ele>31.0</ele><time>2026-04-30T10:45:26.999Z</time></trkpt><trkpt lat="39.275743882251234" lon="9.135653104059719"><ele>31.0</ele><time>2026-04-30T10:45:27.999Z</time></trkpt><trkpt lat="39.275573314620175" lon="9.135708821032905"><ele>29.333333333333336</ele><time>2026-04-30T10:45:28.999Z</time></trkpt><trkpt lat="39.2754024449482" lon="9.135767694720323"><ele>27.666666666666664</ele><time>2026-04-30T10:45:29.999Z</time></trkpt><trkpt lat="39.2752347048467" lon="9.135821959307483"><ele>26.0</ele><time>2026-04-30T10:45:30.999Z</time></trkpt><trkpt lat="39.27506944854159" lon="9.135873842549215"><ele>26.0</ele><time>2026-04-30T10:45:31.999Z</time></trkpt><trkpt lat="39.27490795748837" lon="9.135927847317634"><ele>26.0</ele><time>2026-04-30T10:45:32.999Z</time></trkpt><trkpt lat="39.27474640042097" lon="9.135981845837767"><ele>26.0</ele><time>2026-04-30T10:45:33.999Z</time></trkpt><trkpt lat="39.27458528247035" lon="9.136037947199569"><ele>25.666666666666664</ele><time>2026-04-30T10:45:34.999Z</time></trkpt><trkpt lat="39.274427817930494" lon="9.136091859459594"><ele>25.333333333333336</ele><time>2026-04-30T10:45:35.999Z</time></trkpt><trkpt lat="39.274274559917195" lon="9.13614269627535"><ele>25.0</ele><time>2026-04-30T10:45:36.999Z</time></trkpt><trkpt lat="39.27411997909463" lon="9.13619021283518"><ele>25.0</ele><time>2026-04-30T10:45:37.999Z</time></trkpt><trkpt lat="39.27397229571274" lon="9.136238284222086"><ele>25.0</ele><time>2026-04-30T10:45:38.999Z</time></trkpt><trkpt lat="39.273831903214926" lon="9.136286102779765"><ele>25.0</ele><time>2026-04-30T10:45:39.999Z</time></trkpt><trkpt lat="39.27369130963861" lon="9.136332815763401"><ele>25.0</ele><time>2026-04-30T10:45:40.999Z</time></trkpt><trkpt lat="39.27354946595148" lon="9.136380482445897"><ele>24.75</ele><time>2026-04-30T10:45:41.999Z</time></trkpt><trkpt lat="39.27340501729866" lon="9.136426029163253"><ele>24.5</ele><time>2026-04-30T10:45:42.999Z</time></trkpt><trkpt lat="39.27326158262427" lon="9.136473134673858"><ele>24.25</ele><time>2026-04-30T10:45:43.999Z</time></trkpt><trkpt lat="39.27312540561967" lon="9.136520638783518"><ele>24.0</ele><time>2026-04-30T10:45:44.999Z</time></trkpt><trkpt lat="39.27299404857734" lon="9.136565293686704"><ele>23.5</ele><time>2026-04-30T10:45:45.999Z</time></trkpt><trkpt lat="39.27286289570851" lon="9.136606905530503"><ele>23.0</ele><time>2026-04-30T10:45:46.999Z</time></trkpt><trkpt lat="39.272740461660106" lon="9.136647962991981"><ele>22.5</ele><time>2026-04-30T10:45:47.999Z</time></trkpt><trkpt lat="39.27261910386028" lon="9.136690141524628"><ele>22.0</ele><time>2026-04-30T10:45:48.999Z</time></trkpt><trkpt lat="39.272501579594994" lon="9.136729850317812"><ele>22.0</ele><time>2026-04-30T10:45:49.999Z</time></trkpt><trkpt lat="39.272388738191744" lon="9.136765803551786"><ele>22.0</ele><time>2026-04-30T10:45:50.999Z</time></trkpt><trkpt lat="39.27227514456353" lon="9.136801805930697"><ele>22.0</ele><time>2026-04-30T10:45:51.999Z</time></trkpt><trkpt lat="39.27216783381163" lon="9.136839573606398"><ele>22.0</ele><time>2026-04-30T10:45:52.999Z</time></trkpt><trkpt lat="39.27206166847633" lon="9.13687385673685"><ele>21.8</ele><time>2026-04-30T10:45:53.999Z</time></trkpt><trkpt lat="39.271957292465935" lon="9.13690557938623"><ele>21.6</ele><time>2026-04-30T10:45:54.999Z</time></trkpt><trkpt lat="39.27185194351868" lon="9.136937786001585"><ele>21.400000000000002</ele><time>2026-04-30T10:45:55.999Z</time></trkpt><trkpt lat="39.27174842303385" lon="9.136967903086521"><ele>21.200000000000003</ele><time>2026-04-30T10:45:56.999Z</time></trkpt><trkpt lat="39.271645843619886" lon="9.137001038217447"><ele>21.0</ele><time>2026-04-30T10:45:57.999Z</time></trkpt><trkpt lat="39.27154337405064" lon="9.137036929205136"><ele>21.0</ele><time>2026-04-30T10:45:58.999Z</time></trkpt><trkpt lat="39.271441657006314" lon="9.137070783423626"><ele>21.0</ele><time>2026-04-30T10:45:59.999Z</time></trkpt><trkpt lat="39.27133838138923" lon="9.13710453038697"><ele>21.0</ele><time>2026-04-30T10:46:00.999Z</time></trkpt><trkpt lat="39.27123156104193" lon="9.137142097930685"><ele>21.0</ele><time>2026-04-30T10:46:01.999Z</time></trkpt><trkpt lat="39.27112397540706" lon="9.137177166076965"><ele>21.0</ele><time>2026-04-30T10:46:02.999Z</time></trkpt><trkpt lat="39.271012395447606" lon="9.137209717834264"><ele>20.5</ele><time>2026-04-30T10:46:03.999Z</time></trkpt><trkpt lat="39.2708962841778" lon="9.137243899426478"><ele>20.0</ele><time>2026-04-30T10:46:04.999Z</time></trkpt><trkpt lat="39.27077137503401" lon="9.1372832017515"><ele>19.5</ele><time>2026-04-30T10:46:05.999Z</time></trkpt><trkpt lat="39.2706410007305" lon="9.137327794162683"><ele>19.0</ele><time>2026-04-30T10:46:06.999Z</time></trkpt><trkpt lat="39.27050905172818" lon="9.137373657914116"><ele>18.666666666666664</ele><time>2026-04-30T10:46:07.999Z</time></trkpt><trkpt lat="39.27036698382793" lon="9.13742011945951"><ele>18.333333333333332</ele><time>2026-04-30T10:46:08.999Z</time></trkpt><trkpt lat="39.27021134194265" lon="9.137469880333311"><ele>18.0</ele><time>2026-04-30T10:46:09.999Z</time></trkpt><trkpt lat="39.270048256005005" lon="9.137523403786867"><ele>18.0</ele><time>2026-04-30T10:46:10.999Z</time></trkpt><trkpt lat="39.26987662801926" lon="9.137577366653286"><ele>18.0</ele><time>2026-04-30T10:46:12Z</time></trkpt><trkpt lat="39.269699379117505" lon="9.137634711864553"><ele>18.0</ele><time>2026-04-30T10:46:13Z</time></trkpt><trkpt lat="39.2695137800323" lon="9.13769461194235"><ele>18.0</ele><time>2026-04-30T10:46:14Z</time></trkpt><trkpt lat="39.269320849558" lon="9.137757643652014"><ele>18.0</ele><time>2026-04-30T10:46:15Z</time></trkpt><trkpt lat="39.26912050391397" lon="9.13782811345833"><ele>18.0</ele><time>2026-04-30T10:46:16Z</time></trkpt><trkpt lat="39.26891714368771" lon="9.137900825717523"><ele>18.333333333333332</ele><time>2026-04-30T10:46:17Z</time></trkpt><trkpt lat="39.26871813278001" lon="9.13796773950761"><ele>18.666666666666664</ele><time>2026-04-30T10:46:18Z</time></trkpt><trkpt lat="39.2685180640943" lon="9.138035251140776"><ele>19.0</ele><time>2026-04-30T10:46:19Z</time></trkpt><trkpt lat="39.26832165267845" lon="9.138101812103685"><ele>19.0</ele><time>2026-04-30T10:46:20Z</time></trkpt><trkpt lat="39.268140413210205" lon="9.138169301844671"><ele>19.0</ele><time>2026-04-30T10:46:21Z</time></trkpt><trkpt lat="39.26796645975048" lon="9.138228172609216"><ele>19.0</ele><time>2026-04-30T10:46:22Z</time></trkpt><trkpt lat="39.2678062051436" lon="9.138279597804434"><ele>18.5</ele><time>2026-04-30T10:46:23Z</time></trkpt><trkpt lat="39.2676532897328" lon="9.138330706346975"><ele>18.0</ele><time>2026-04-30T10:46:24Z</time></trkpt><trkpt lat="39.26751198203175" lon="9.138379749339608"><ele>17.5</ele><time>2026-04-30T10:46:25Z</time></trkpt><trkpt lat="39.2673822055358" lon="9.138424314761465"><ele>17.0</ele><time>2026-04-30T10:46:26Z</time></trkpt><trkpt lat="39.267259805925654" lon="9.138461190602898"><ele>16.8</ele><time>2026-04-30T10:46:27Z</time></trkpt><trkpt lat="39.267150088929455" lon="9.138497147824271"><ele>16.6</ele><time>2026-04-30T10:46:28Z</time></trkpt><trkpt lat="39.26704596345079" lon="9.138530372763988"><ele>16.400000000000002</ele><time>2026-04-30T10:46:29Z</time></trkpt><trkpt lat="39.26695487332814" lon="9.138563060496764"><ele>16.2</ele><time>2026-04-30T10:46:30Z</time></trkpt><trkpt lat="39.266871580986994" lon="9.13858815617782"><ele>16.0</ele><time>2026-04-30T10:46:31Z</time></trkpt><trkpt lat="39.26678511792128" lon="9.13862733197285"><ele>16.0</ele><time>2026-04-30T10:46:33Z</time></trkpt><trkpt lat="39.26668957126503" lon="9.138656811007332"><ele>16.0</ele><time>2026-04-30T10:46:57.999Z</time></trkpt><trkpt lat="39.26662309347513" lon="9.13869759125789"><ele>16.0</ele><time>2026-04-30T10:46:59.999Z</time></trkpt><trkpt lat="39.26655381612987" lon="9.138777762799005"><ele>16.0</ele><time>2026-04-30T10:47:08.999Z</time></trkpt><trkpt lat="39.26657055920263" lon="9.138962360609574"><ele>16.0</ele><time>2026-04-30T10:47:10.999Z</time></trkpt><trkpt lat="39.266583090610986" lon="9.139083073819341"><ele>16.0</ele><time>2026-04-30T10:47:11.999Z</time></trkpt><trkpt lat="39.26659539668549" lon="9.13922426725028"><ele>16.0</ele><time>2026-04-30T10:47:12.999Z</time></trkpt><trkpt lat="39.266606287298956" lon="9.139371223994674"><ele>16.0</ele><time>2026-04-30T10:47:13.999Z</time></trkpt><trkpt lat="39.26662230736623" lon="9.139531455041384"><ele>16.0</ele><time>2026-04-30T10:47:14.999Z</time></trkpt><trkpt lat="39.26663969175028" lon="9.139697163028746"><ele>16.0</ele><time>2026-04-30T10:47:15.999Z</time></trkpt><trkpt lat="39.26665793244502" lon="9.139879250021885"><ele>16.0</ele><time>2026-04-30T10:47:16.999Z</time></trkpt><trkpt lat="39.26667544887961" lon="9.140066738224958"><ele>16.0</ele><time>2026-04-30T10:47:17.999Z</time></trkpt><trkpt lat="39.26668824410433" lon="9.14026722095314"><ele>16.0</ele><time>2026-04-30T10:47:18.999Z</time></trkpt><trkpt lat="39.2667040717969" lon="9.14047895749789"><ele>16.333333333333332</ele><time>2026-04-30T10:47:19.999Z</time></trkpt><trkpt lat="39.266722436251186" lon="9.1406983433876"><ele>16.666666666666668</ele><time>2026-04-30T10:47:20.999Z</time></trkpt><trkpt lat="39.26674189528773" lon="9.140928257310502"><ele>17.0</ele><time>2026-04-30T10:47:21.999Z</time></trkpt><trkpt lat="39.266767613307984" lon="9.141173845803891"><ele>16.333333333333336</ele><time>2026-04-30T10:47:22.999Z</time></trkpt><trkpt lat="39.26679083111912" lon="9.141429941346015"><ele>15.666666666666668</ele><time>2026-04-30T10:47:23.999Z</time></trkpt><trkpt lat="39.266812429141346" lon="9.141696864741485"><ele>15.0</ele><time>2026-04-30T10:47:24.999Z</time></trkpt><trkpt lat="39.266835516417146" lon="9.141965934594275"><ele>15.0</ele><time>2026-04-30T10:47:25.999Z</time></trkpt><trkpt lat="39.26686579034882" lon="9.142239277043634"><ele>15.0</ele><time>2026-04-30T10:47:26.999Z</time></trkpt><trkpt lat="39.26690318615669" lon="9.142518465681306"><ele>15.0</ele><time>2026-04-30T10:47:27.999Z</time></trkpt><trkpt lat="39.266938948448754" lon="9.142806369931295"><ele>15.0</ele><time>2026-04-30T10:47:28.999Z</time></trkpt><trkpt lat="39.26697248286077" lon="9.143100889398141"><ele>15.0</ele><time>2026-04-30T10:47:29.999Z</time></trkpt><trkpt lat="39.267004687546006" lon="9.143399831291493"><ele>16.0</ele><time>2026-04-30T10:47:30.999Z</time></trkpt><trkpt lat="39.26704233224998" lon="9.143700104939523"><ele>17.0</ele><time>2026-04-30T10:47:31.999Z</time></trkpt><trkpt lat="39.26708229306782" lon="9.144004425125223"><ele>17.5</ele><time>2026-04-30T10:47:32.999Z</time></trkpt><trkpt lat="39.26711556239401" lon="9.1443146221174"><ele>18.0</ele><time>2026-04-30T10:47:33.999Z</time></trkpt><trkpt lat="39.26714779700878" lon="9.144626026986098"><ele>18.5</ele><time>2026-04-30T10:47:34.999Z</time></trkpt><trkpt lat="39.267181215814176" lon="9.144933697061697"><ele>19.0</ele><time>2026-04-30T10:47:35.999Z</time></trkpt><trkpt lat="39.26720053106711" lon="9.145241994117711"><ele>19.0</ele><time>2026-04-30T10:47:36.999Z</time></trkpt><trkpt lat="39.26721707154937" lon="9.145548211533445"><ele>19.0</ele><time>2026-04-30T10:47:37.999Z</time></trkpt><trkpt lat="39.26724515188909" lon="9.145859590547031"><ele>19.0</ele><time>2026-04-30T10:47:38.999Z</time></trkpt><trkpt lat="39.26727367406844" lon="9.14617240429035"><ele>19.0</ele><time>2026-04-30T10:47:39.999Z</time></trkpt><trkpt lat="39.26730126039848" lon="9.146479442587559"><ele>18.5</ele><time>2026-04-30T10:47:40.999Z</time></trkpt><trkpt lat="39.26733117503356" lon="9.146783602216018"><ele>18.0</ele><time>2026-04-30T10:47:41.999Z</time></trkpt><trkpt lat="39.26735894167728" lon="9.147094572835313"><ele>19.0</ele><time>2026-04-30T10:47:42.999Z</time></trkpt><trkpt lat="39.26738555788485" lon="9.147406064772658"><ele>20.0</ele><time>2026-04-30T10:47:43.999Z</time></trkpt><trkpt lat="39.26741437991832" lon="9.147714743104926"><ele>20.0</ele><time>2026-04-30T10:47:44.999Z</time></trkpt><trkpt lat="39.26744239840861" lon="9.14801345670746"><ele>20.0</ele><time>2026-04-30T10:47:45.999Z</time></trkpt><trkpt lat="39.26747291468618" lon="9.148306240384235"><ele>19.333333333333336</ele><time>2026-04-30T10:47:46.999Z</time></trkpt><trkpt lat="39.26750000395017" lon="9.148593875552251"><ele>18.666666666666668</ele><time>2026-04-30T10:47:47.999Z</time></trkpt><trkpt lat="39.26752795531886" lon="9.148859007611653"><ele>18.0</ele><time>2026-04-30T10:47:48.999Z</time></trkpt><trkpt lat="39.26755306365771" lon="9.149108971172764"><ele>17.75</ele><time>2026-04-30T10:47:49.999Z</time></trkpt><trkpt lat="39.26757666154142" lon="9.14934184872556"><ele>17.5</ele><time>2026-04-30T10:47:50.999Z</time></trkpt><trkpt lat="39.26759624953279" lon="9.149515810051046"><ele>17.25</ele><time>2026-04-30T10:47:51.999Z</time></trkpt><trkpt lat="39.267610639607305" lon="9.149645640570377"><ele>17.0</ele><time>2026-04-30T10:47:52.999Z</time></trkpt><trkpt lat="39.26761893185493" lon="9.149749953423619"><ele>17.0</ele><time>2026-04-30T10:47:53.999Z</time></trkpt><trkpt lat="39.26762843021907" lon="9.149842442161265"><ele>17.0</ele><time>2026-04-30T10:47:54.999Z</time></trkpt><trkpt lat="39.26763319866621" lon="9.149927031193313"><ele>17.0</ele><time>2026-04-30T10:47:55.999Z</time></trkpt><trkpt lat="39.26765194383148" lon="9.150063267809655"><ele>17.0</ele><time>2026-04-30T10:47:57.999Z</time></trkpt><trkpt lat="39.26766678292126" lon="9.150155617068634"><ele>17.0</ele><time>2026-04-30T10:48:02.999Z</time></trkpt><trkpt lat="39.26768093804263" lon="9.150248560868492"><ele>17.0</ele><time>2026-04-30T10:48:10.999Z</time></trkpt><trkpt lat="39.26769383654328" lon="9.150337480595669"><ele>17.0</ele><time>2026-04-30T10:48:12.999Z</time></trkpt><trkpt lat="39.267701294681665" lon="9.15047199836256"><ele>17.0</ele><time>2026-04-30T10:48:14.999Z</time></trkpt><trkpt lat="39.26771509158129" lon="9.150594173728832"><ele>17.0</ele><time>2026-04-30T10:48:16.999Z</time></trkpt><trkpt lat="39.26772408894293" lon="9.150689561271202"><ele>17.0</ele><time>2026-04-30T10:48:19Z</time></trkpt><trkpt lat="39.26773630813194" lon="9.150828801953418"><ele>17.0</ele><time>2026-04-30T10:48:21Z</time></trkpt><trkpt lat="39.26775202283249" lon="9.15097137757854"><ele>17.0</ele><time>2026-04-30T10:48:23Z</time></trkpt><trkpt lat="39.267761133990085" lon="9.151073391768954"><ele>17.0</ele><time>2026-04-30T10:48:24Z</time></trkpt><trkpt lat="39.26777248210495" lon="9.151185052044719"><ele>17.0</ele><time>2026-04-30T10:48:25Z</time></trkpt><trkpt lat="39.267786877921566" lon="9.151305915714527"><ele>17.0</ele><time>2026-04-30T10:48:26Z</time></trkpt><trkpt lat="39.26780357727873" lon="9.151447877141026"><ele>17.0</ele><time>2026-04-30T10:48:27Z</time></trkpt><trkpt lat="39.26782078020053" lon="9.151597367251734"><ele>17.0</ele><time>2026-04-30T10:48:28Z</time></trkpt><trkpt lat="39.267840861239826" lon="9.151749067370563"><ele>17.0</ele><time>2026-04-30T10:48:29Z</time></trkpt><trkpt lat="39.26785883524653" lon="9.151916855414969"><ele>17.0</ele><time>2026-04-30T10:48:30Z</time></trkpt><trkpt lat="39.26787973478305" lon="9.152104997852309"><ele>17.0</ele><time>2026-04-30T10:48:31Z</time></trkpt><trkpt lat="39.267899128046395" lon="9.152297199890748"><ele>17.666666666666668</ele><time>2026-04-30T10:48:32Z</time></trkpt><trkpt lat="39.26791871056942" lon="9.152502561441203"><ele>18.333333333333332</ele><time>2026-04-30T10:48:33Z</time></trkpt><trkpt lat="39.267936174062676" lon="9.152702000115994"><ele>19.0</ele><time>2026-04-30T10:48:34Z</time></trkpt><trkpt lat="39.267953291974756" lon="9.152903290195146"><ele>19.0</ele><time>2026-04-30T10:48:35Z</time></trkpt><trkpt lat="39.267969976601535" lon="9.15310976014072"><ele>19.0</ele><time>2026-04-30T10:48:36Z</time></trkpt><trkpt lat="39.26798755933832" lon="9.1533188314502"><ele>19.0</ele><time>2026-04-30T10:48:37Z</time></trkpt><trkpt lat="39.26800593603293" lon="9.153526841924911"><ele>19.333333333333332</ele><time>2026-04-30T10:48:38Z</time></trkpt><trkpt lat="39.26802378758412" lon="9.153738510887157"><ele>19.666666666666668</ele><time>2026-04-30T10:48:39Z</time></trkpt><trkpt lat="39.268042508408456" lon="9.153948295492636"><ele>20.0</ele><time>2026-04-30T10:48:40Z</time></trkpt><trkpt lat="39.26806109571834" lon="9.154171325465038"><ele>20.0</ele><time>2026-04-30T10:48:41Z</time></trkpt><trkpt lat="39.26807570023178" lon="9.15441218383719"><ele>20.0</ele><time>2026-04-30T10:48:42Z</time></trkpt><trkpt lat="39.268084791206576" lon="9.154656205708699"><ele>20.0</ele><time>2026-04-30T10:48:43Z</time></trkpt><trkpt lat="39.26808391019448" lon="9.154905868786372"><ele>19.666666666666668</ele><time>2026-04-30T10:48:44Z</time></trkpt><trkpt lat="39.268075565629005" lon="9.155157742972838"><ele>19.333333333333332</ele><time>2026-04-30T10:48:45Z</time></trkpt><trkpt lat="39.26805771129173" lon="9.155401569642054"><ele>19.0</ele><time>2026-04-30T10:48:46Z</time></trkpt><trkpt lat="39.26803072753495" lon="9.1556424801339"><ele>18.666666666666664</ele><time>2026-04-30T10:48:47Z</time></trkpt><trkpt lat="39.26799037152943" lon="9.155876517197996"><ele>18.333333333333332</ele><time>2026-04-30T10:48:48Z</time></trkpt><trkpt lat="39.26794178035786" lon="9.156110245854094"><ele>18.0</ele><time>2026-04-30T10:48:49Z</time></trkpt><trkpt lat="39.26788298952415" lon="9.156344358095744"><ele>18.0</ele><time>2026-04-30T10:48:50Z</time></trkpt><trkpt lat="39.26781447642437" lon="9.156585103274443"><ele>18.0</ele><time>2026-04-30T10:48:51Z</time></trkpt><trkpt lat="39.26774685273068" lon="9.156827329738032"><ele>18.0</ele><time>2026-04-30T10:48:52Z</time></trkpt><trkpt lat="39.26768119999269" lon="9.157072932967415"><ele>18.0</ele><time>2026-04-30T10:48:53Z</time></trkpt><trkpt lat="39.267615392426286" lon="9.15732203508503"><ele>18.0</ele><time>2026-04-30T10:48:53.999Z</time></trkpt><trkpt lat="39.26754287504038" lon="9.157570574996951"><ele>18.0</ele><time>2026-04-30T10:48:54.999Z</time></trkpt><trkpt lat="39.267470496564115" lon="9.157822010138458"><ele>18.0</ele><time>2026-04-30T10:48:55.999Z</time></trkpt><trkpt lat="39.26739888870188" lon="9.158085407784812"><ele>18.0</ele><time>2026-04-30T10:48:56.999Z</time></trkpt><trkpt lat="39.267326410027316" lon="9.15834454734498"><ele>18.0</ele><time>2026-04-30T10:48:57.999Z</time></trkpt><trkpt lat="39.267249868408825" lon="9.158608387377546"><ele>17.666666666666668</ele><time>2026-04-30T10:48:58.999Z</time></trkpt><trkpt lat="39.26717567276438" lon="9.158875294267338"><ele>17.333333333333336</ele><time>2026-04-30T10:48:59.999Z</time></trkpt><trkpt lat="39.267101372765566" lon="9.159139405521964"><ele>17.0</ele><time>2026-04-30T10:49:00.999Z</time></trkpt><trkpt lat="39.267023687018074" lon="9.159402146690306"><ele>17.0</ele><time>2026-04-30T10:49:01.999Z</time></trkpt><trkpt lat="39.26694352054125" lon="9.159670453461061"><ele>17.0</ele><time>2026-04-30T10:49:02.999Z</time></trkpt><trkpt lat="39.266866223681475" lon="9.159936946467536"><ele>17.0</ele><time>2026-04-30T10:49:03.999Z</time></trkpt><trkpt lat="39.26679163899117" lon="9.160203439557932"><ele>16.0</ele><time>2026-04-30T10:49:04.999Z</time></trkpt><trkpt lat="39.266712892017544" lon="9.160473906966986"><ele>15.0</ele><time>2026-04-30T10:49:05.999Z</time></trkpt><trkpt lat="39.26662820563753" lon="9.160744295054705"><ele>15.0</ele><time>2026-04-30T10:49:06.999Z</time></trkpt><trkpt lat="39.26654547808834" lon="9.161015978029202"><ele>15.0</ele><time>2026-04-30T10:49:07.999Z</time></trkpt><trkpt lat="39.26646773532295" lon="9.161290781320025"><ele>14.333333333333332</ele><time>2026-04-30T10:49:08.999Z</time></trkpt><trkpt lat="39.266388277824674" lon="9.161562590663271"><ele>13.666666666666666</ele><time>2026-04-30T10:49:09.999Z</time></trkpt><trkpt lat="39.26630852002173" lon="9.161832533537575"><ele>13.0</ele><time>2026-04-30T10:49:10.999Z</time></trkpt><trkpt lat="39.26622883900541" lon="9.1621008157304"><ele>13.666666666666666</ele><time>2026-04-30T10:49:11.999Z</time></trkpt><trkpt lat="39.26615103299436" lon="9.162369874855312"><ele>14.333333333333332</ele><time>2026-04-30T10:49:12.999Z</time></trkpt><trkpt lat="39.266077209408024" lon="9.162641073262659"><ele>15.0</ele><time>2026-04-30T10:49:13.999Z</time></trkpt><trkpt lat="39.26600229500506" lon="9.162909756656006"><ele>15.0</ele><time>2026-04-30T10:49:14.999Z</time></trkpt><trkpt lat="39.26592633857915" lon="9.1631776787306"><ele>15.0</ele><time>2026-04-30T10:49:15.999Z</time></trkpt><trkpt lat="39.26584798256776" lon="9.163447526899333"><ele>15.0</ele><time>2026-04-30T10:49:16.999Z</time></trkpt><trkpt lat="39.265773720236055" lon="9.163719544152855"><ele>15.0</ele><time>2026-04-30T10:49:17.999Z</time></trkpt><trkpt lat="39.26569549079114" lon="9.163987404551444"><ele>15.0</ele><time>2026-04-30T10:49:18.999Z</time></trkpt><trkpt lat="39.26562064962942" lon="9.164258454563338"><ele>15.0</ele><time>2026-04-30T10:49:19.999Z</time></trkpt><trkpt lat="39.26554720128476" lon="9.164526749665692"><ele>14.666666666666668</ele><time>2026-04-30T10:49:20.999Z</time></trkpt><trkpt lat="39.26547220759828" lon="9.164791537179369"><ele>14.333333333333334</ele><time>2026-04-30T10:49:21.999Z</time></trkpt><trkpt lat="39.265394872220426" lon="9.165060625236244"><ele>14.0</ele><time>2026-04-30T10:49:22.999Z</time></trkpt><trkpt lat="39.26531670471948" lon="9.165329266679633"><ele>15.0</ele><time>2026-04-30T10:49:23.999Z</time></trkpt><trkpt lat="39.26523273236389" lon="9.165604190945396"><ele>16.0</ele><time>2026-04-30T10:49:24.999Z</time></trkpt><trkpt lat="39.26515049851141" lon="9.1658879596995"><ele>16.0</ele><time>2026-04-30T10:49:25.999Z</time></trkpt><trkpt lat="39.26506688231885" lon="9.166165163590858"><ele>16.0</ele><time>2026-04-30T10:49:26.999Z</time></trkpt><trkpt lat="39.264989034923175" lon="9.166437304086836"><ele>15.5</ele><time>2026-04-30T10:49:27.999Z</time></trkpt><trkpt lat="39.26490925018018" lon="9.166713386372516"><ele>15.0</ele><time>2026-04-30T10:49:28.999Z</time></trkpt><trkpt lat="39.26483006455992" lon="9.16698393635402"><ele>15.333333333333332</ele><time>2026-04-30T10:49:29.999Z</time></trkpt><trkpt lat="39.26475113664553" lon="9.16725594821554"><ele>15.666666666666666</ele><time>2026-04-30T10:49:30.999Z</time></trkpt><trkpt lat="39.26467325041866" lon="9.167521545489151"><ele>16.0</ele><time>2026-04-30T10:49:31.999Z</time></trkpt><trkpt lat="39.264595940788695" lon="9.167784661076928"><ele>16.333333333333332</ele><time>2026-04-30T10:49:32.999Z</time></trkpt><trkpt lat="39.2645203214892" lon="9.168052915040915"><ele>16.666666666666668</ele><time>2026-04-30T10:49:33.999Z</time></trkpt><trkpt lat="39.264449780102815" lon="9.168319709165164"><ele>17.0</ele><time>2026-04-30T10:49:34.999Z</time></trkpt><trkpt lat="39.264383202257704" lon="9.16858819809764"><ele>17.0</ele><time>2026-04-30T10:49:35.999Z</time></trkpt><trkpt lat="39.26431171807036" lon="9.168858950558766"><ele>17.0</ele><time>2026-04-30T10:49:36.999Z</time></trkpt><trkpt lat="39.26424997921509" lon="9.16910744718219"><ele>17.0</ele><time>2026-04-30T10:49:37.999Z</time></trkpt><trkpt lat="39.264187850483914" lon="9.169328140522131"><ele>17.333333333333336</ele><time>2026-04-30T10:49:38.999Z</time></trkpt><trkpt lat="39.264126346513784" lon="9.169534453580894"><ele>17.666666666666668</ele><time>2026-04-30T10:49:39.999Z</time></trkpt><trkpt lat="39.264068878639385" lon="9.169712028089423"><ele>18.0</ele><time>2026-04-30T10:49:40.999Z</time></trkpt><trkpt lat="39.26402087519917" lon="9.169872764674869"><ele>18.0</ele><time>2026-04-30T10:49:41.999Z</time></trkpt><trkpt lat="39.263973015092645" lon="9.170027101210023"><ele>18.0</ele><time>2026-04-30T10:49:42.999Z</time></trkpt><trkpt lat="39.263927407470895" lon="9.170164601831674"><ele>18.0</ele><time>2026-04-30T10:49:43.999Z</time></trkpt><trkpt lat="39.26389077823072" lon="9.17028046215258"><ele>18.0</ele><time>2026-04-30T10:49:44.999Z</time></trkpt><trkpt lat="39.26386058241958" lon="9.170392598861627"><ele>18.0</ele><time>2026-04-30T10:49:45.999Z</time></trkpt><trkpt lat="39.26383404635499" lon="9.1705129534276"><ele>18.0</ele><time>2026-04-30T10:49:46.999Z</time></trkpt><trkpt lat="39.26381140935426" lon="9.170638908718269"><ele>18.0</ele><time>2026-04-30T10:49:47.999Z</time></trkpt><trkpt lat="39.26378744011539" lon="9.170767728909656"><ele>18.0</ele><time>2026-04-30T10:49:48.999Z</time></trkpt><trkpt lat="39.26374946877238" lon="9.170900347621975"><ele>18.0</ele><time>2026-04-30T10:49:49.999Z</time></trkpt><trkpt lat="39.26371136941877" lon="9.171037822862244"><ele>18.0</ele><time>2026-04-30T10:49:50.999Z</time></trkpt><trkpt lat="39.26367215262184" lon="9.171179555734298"><ele>18.25</ele><time>2026-04-30T10:49:51.999Z</time></trkpt><trkpt lat="39.26363127846675" lon="9.171318862911836"><ele>18.5</ele><time>2026-04-30T10:49:52.999Z</time></trkpt><trkpt lat="39.2635933954143" lon="9.171463341154649"><ele>18.75</ele><time>2026-04-30T10:49:53.999Z</time></trkpt><trkpt lat="39.263554396086526" lon="9.171608324839545"><ele>19.0</ele><time>2026-04-30T10:49:54.999Z</time></trkpt><trkpt lat="39.26351336126652" lon="9.17175363229164"><ele>19.25</ele><time>2026-04-30T10:49:55.999Z</time></trkpt><trkpt lat="39.26347131467862" lon="9.171905213305244"><ele>19.5</ele><time>2026-04-30T10:49:56.999Z</time></trkpt><trkpt lat="39.26342698905186" lon="9.172054276932307"><ele>19.75</ele><time>2026-04-30T10:49:57.999Z</time></trkpt><trkpt lat="39.26338401524648" lon="9.172206467044603"><ele>20.0</ele><time>2026-04-30T10:49:58.999Z</time></trkpt><trkpt lat="39.263341815324544" lon="9.17235985913565"><ele>20.25</ele><time>2026-04-30T10:49:59.999Z</time></trkpt><trkpt lat="39.263298109412524" lon="9.172511759302918"><ele>20.5</ele><time>2026-04-30T10:50:00.999Z</time></trkpt><trkpt lat="39.263256038044084" lon="9.172659642906357"><ele>20.75</ele><time>2026-04-30T10:50:01.999Z</time></trkpt><trkpt lat="39.26321411782368" lon="9.172807331674235"><ele>21.0</ele><time>2026-04-30T10:50:02.999Z</time></trkpt><trkpt lat="39.26317223079133" lon="9.172959120001481"><ele>21.0</ele><time>2026-04-30T10:50:03.999Z</time></trkpt><trkpt lat="39.26312610526752" lon="9.173109915754843"><ele>21.0</ele><time>2026-04-30T10:50:04.999Z</time></trkpt><trkpt lat="39.263081893971815" lon="9.173257374332493"><ele>21.0</ele><time>2026-04-30T10:50:05.999Z</time></trkpt><trkpt lat="39.263038271800674" lon="9.17340268772227"><ele>21.0</ele><time>2026-04-30T10:50:06.999Z</time></trkpt><trkpt lat="39.2629988812697" lon="9.17354125317962"><ele>20.8</ele><time>2026-04-30T10:50:07.999Z</time></trkpt><trkpt lat="39.26296077996875" lon="9.17366867098932"><ele>20.6</ele><time>2026-04-30T10:50:08.999Z</time></trkpt><trkpt lat="39.262924209561376" lon="9.173788591008648"><ele>20.4</ele><time>2026-04-30T10:50:09.999Z</time></trkpt><trkpt lat="39.262888624500015" lon="9.173904395441527"><ele>20.2</ele><time>2026-04-30T10:50:10.999Z</time></trkpt><trkpt lat="39.262859354370306" lon="9.174012629101965"><ele>20.0</ele><time>2026-04-30T10:50:11.999Z</time></trkpt><trkpt lat="39.26283226864207" lon="9.174115237919942"><ele>20.0</ele><time>2026-04-30T10:50:12.999Z</time></trkpt><trkpt lat="39.262805747183364" lon="9.1742119444063"><ele>20.0</ele><time>2026-04-30T10:50:13.999Z</time></trkpt><trkpt lat="39.26278318795698" lon="9.174296396681891"><ele>20.0</ele><time>2026-04-30T10:50:14.999Z</time></trkpt><trkpt lat="39.26274185495251" lon="9.174403523145331"><ele>20.0</ele><time>2026-04-30T10:50:16.999Z</time></trkpt><trkpt lat="39.262731526113775" lon="9.17452415162479"><ele>20.0</ele><time>2026-04-30T10:50:55.999Z</time></trkpt><trkpt lat="39.26269545822592" lon="9.17465436362058"><ele>20.0</ele><time>2026-04-30T10:50:57.999Z</time></trkpt><trkpt lat="39.262670519166214" lon="9.174731545137314"><ele>20.0</ele><time>2026-04-30T10:50:58.999Z</time></trkpt><trkpt lat="39.26263851078607" lon="9.174830258557414"><ele>20.0</ele><time>2026-04-30T10:50:59.999Z</time></trkpt><trkpt lat="39.26260332609576" lon="9.174944608774066"><ele>20.0</ele><time>2026-04-30T10:51:00.999Z</time></trkpt><trkpt lat="39.26256439717599" lon="9.1750703485919"><ele>20.0</ele><time>2026-04-30T10:51:01.999Z</time></trkpt><trkpt lat="39.26252492185629" lon="9.17520817515243"><ele>20.0</ele><time>2026-04-30T10:51:02.999Z</time></trkpt><trkpt lat="39.262481504076014" lon="9.175366156653586"><ele>20.333333333333336</ele><time>2026-04-30T10:51:03.999Z</time></trkpt><trkpt lat="39.26243295587865" lon="9.175542379436775"><ele>20.666666666666668</ele><time>2026-04-30T10:51:04.999Z</time></trkpt><trkpt lat="39.26237494301189" lon="9.175745747841233"><ele>21.0</ele><time>2026-04-30T10:51:05.999Z</time></trkpt><trkpt lat="39.26231364427062" lon="9.17596118904856"><ele>21.0</ele><time>2026-04-30T10:51:06.999Z</time></trkpt><trkpt lat="39.262252468231885" lon="9.176189104048282"><ele>21.0</ele><time>2026-04-30T10:51:07.999Z</time></trkpt><trkpt lat="39.262187115997136" lon="9.176427918698485"><ele>21.0</ele><time>2026-04-30T10:51:08.999Z</time></trkpt><trkpt lat="39.26212077605419" lon="9.176670626191886"><ele>21.333333333333332</ele><time>2026-04-30T10:51:09.999Z</time></trkpt><trkpt lat="39.26205175147853" lon="9.17691349833872"><ele>21.666666666666664</ele><time>2026-04-30T10:51:10.999Z</time></trkpt><trkpt lat="39.261977111245166" lon="9.177157877707364"><ele>22.0</ele><time>2026-04-30T10:51:11.999Z</time></trkpt><trkpt lat="39.26190183084284" lon="9.17740271877571"><ele>22.333333333333332</ele><time>2026-04-30T10:51:12.999Z</time></trkpt><trkpt lat="39.26182369879992" lon="9.17765682444022"><ele>22.666666666666668</ele><time>2026-04-30T10:51:13.999Z</time></trkpt><trkpt lat="39.26174342332921" lon="9.177903528355392"><ele>23.0</ele><time>2026-04-30T10:51:14.999Z</time></trkpt><trkpt lat="39.26165569561368" lon="9.178151133048729"><ele>23.333333333333336</ele><time>2026-04-30T10:51:15.999Z</time></trkpt><trkpt lat="39.261575818255615" lon="9.178390844201186"><ele>23.666666666666668</ele><time>2026-04-30T10:51:16.999Z</time></trkpt><trkpt lat="39.261498734589686" lon="9.178629882116127"><ele>24.0</ele><time>2026-04-30T10:51:17.999Z</time></trkpt><trkpt lat="39.26142495001566" lon="9.178865665376327"><ele>23.0</ele><time>2026-04-30T10:51:18.999Z</time></trkpt><trkpt lat="39.26135634078469" lon="9.179097245211777"><ele>22.0</ele><time>2026-04-30T10:51:19.999Z</time></trkpt><trkpt lat="39.26129447052682" lon="9.179330133247436"><ele>21.0</ele><time>2026-04-30T10:51:20.999Z</time></trkpt><trkpt lat="39.26123287865923" lon="9.179559356234696"><ele>21.0</ele><time>2026-04-30T10:51:21.999Z</time></trkpt><trkpt lat="39.26117268671105" lon="9.179783163028077"><ele>21.0</ele><time>2026-04-30T10:51:22.999Z</time></trkpt><trkpt lat="39.26110844019289" lon="9.180004286810435"><ele>21.0</ele><time>2026-04-30T10:51:23.999Z</time></trkpt><trkpt lat="39.26104633299635" lon="9.18021894121369"><ele>21.0</ele><time>2026-04-30T10:51:24.999Z</time></trkpt><trkpt lat="39.26098299300055" lon="9.180434926074264"><ele>21.0</ele><time>2026-04-30T10:51:25.999Z</time></trkpt><trkpt lat="39.26092422582857" lon="9.180650696627165"><ele>21.0</ele><time>2026-04-30T10:51:26.999Z</time></trkpt><trkpt lat="39.26086658932034" lon="9.180863940412458"><ele>22.0</ele><time>2026-04-30T10:51:27.999Z</time></trkpt><trkpt lat="39.26080500823812" lon="9.181074279555238"><ele>23.0</ele><time>2026-04-30T10:51:28.999Z</time></trkpt><trkpt lat="39.2607457801748" lon="9.181277494620877"><ele>24.0</ele><time>2026-04-30T10:51:29.999Z</time></trkpt><trkpt lat="39.26068541509461" lon="9.181482066330943"><ele>24.0</ele><time>2026-04-30T10:51:30.999Z</time></trkpt><trkpt lat="39.2606242968588" lon="9.18168700495229"><ele>24.0</ele><time>2026-04-30T10:51:31.999Z</time></trkpt><trkpt lat="39.260566581865156" lon="9.181890216635841"><ele>24.0</ele><time>2026-04-30T10:51:32.999Z</time></trkpt><trkpt lat="39.260510106343865" lon="9.182091951942446"><ele>24.0</ele><time>2026-04-30T10:51:33.999Z</time></trkpt><trkpt lat="39.26045259738193" lon="9.182287329235688"><ele>24.0</ele><time>2026-04-30T10:51:34.999Z</time></trkpt><trkpt lat="39.260391687252024" lon="9.182481963862887"><ele>24.0</ele><time>2026-04-30T10:51:35.999Z</time></trkpt><trkpt lat="39.260330718943514" lon="9.182679247016305"><ele>24.0</ele><time>2026-04-30T10:51:36.999Z</time></trkpt><trkpt lat="39.260273124931985" lon="9.182878934420454"><ele>24.0</ele><time>2026-04-30T10:51:37.999Z</time></trkpt><trkpt lat="39.260218296337406" lon="9.183076419920479"><ele>24.0</ele><time>2026-04-30T10:51:38.999Z</time></trkpt><trkpt lat="39.260164082168544" lon="9.183274386318516"><ele>24.0</ele><time>2026-04-30T10:51:39.999Z</time></trkpt><trkpt lat="39.260106394585286" lon="9.183475176625457"><ele>24.0</ele><time>2026-04-30T10:51:40.999Z</time></trkpt><trkpt lat="39.2600507143652" lon="9.183671894187238"><ele>24.0</ele><time>2026-04-30T10:51:41.999Z</time></trkpt><trkpt lat="39.25999627743469" lon="9.18386695079653"><ele>24.333333333333336</ele><time>2026-04-30T10:51:42.999Z</time></trkpt><trkpt lat="39.25994433562055" lon="9.18405801805079"><ele>24.666666666666668</ele><time>2026-04-30T10:51:43.999Z</time></trkpt><trkpt lat="39.25988964573708" lon="9.1842475277216"><ele>25.0</ele><time>2026-04-30T10:51:44.999Z</time></trkpt><trkpt lat="39.259833801939436" lon="9.184440191568454"><ele>24.333333333333336</ele><time>2026-04-30T10:51:45.999Z</time></trkpt><trkpt lat="39.259777558888956" lon="9.18463283064862"><ele>23.666666666666668</ele><time>2026-04-30T10:51:46.999Z</time></trkpt><trkpt lat="39.2597255285998" lon="9.184818894894713"><ele>23.0</ele><time>2026-04-30T10:51:47.999Z</time></trkpt><trkpt lat="39.2596730742495" lon="9.185005255741146"><ele>23.0</ele><time>2026-04-30T10:51:48.999Z</time></trkpt><trkpt lat="39.259621579478136" lon="9.185181769004862"><ele>23.0</ele><time>2026-04-30T10:51:49.999Z</time></trkpt><trkpt lat="39.25956904981458" lon="9.185358883513873"><ele>23.0</ele><time>2026-04-30T10:51:50.999Z</time></trkpt><trkpt lat="39.25951451848358" lon="9.18553876174416"><ele>23.0</ele><time>2026-04-30T10:51:51.999Z</time></trkpt><trkpt lat="39.25946477187554" lon="9.185718549928994"><ele>23.25</ele><time>2026-04-30T10:51:52.999Z</time></trkpt><trkpt lat="39.25941247943409" lon="9.185894431249894"><ele>23.5</ele><time>2026-04-30T10:51:53.999Z</time></trkpt><trkpt lat="39.259363427570996" lon="9.186065408858761"><ele>23.75</ele><time>2026-04-30T10:51:54.999Z</time></trkpt><trkpt lat="39.25931329879284" lon="9.186221806348213"><ele>24.0</ele><time>2026-04-30T10:51:55.999Z</time></trkpt><trkpt lat="39.259269693097096" lon="9.186348571404915"><ele>24.0</ele><time>2026-04-30T10:51:56.999Z</time></trkpt><trkpt lat="39.259234255240465" lon="9.186455283478805"><ele>24.0</ele><time>2026-04-30T10:51:57.999Z</time></trkpt><trkpt lat="39.259202536543576" lon="9.186545500846535"><ele>24.0</ele><time>2026-04-30T10:51:58.999Z</time></trkpt><trkpt lat="39.25917473478629" lon="9.186623300745127"><ele>24.0</ele><time>2026-04-30T10:51:59.999Z</time></trkpt><trkpt lat="39.259125984862564" lon="9.186740002542582"><ele>24.0</ele><time>2026-04-30T10:52:01.999Z</time></trkpt><trkpt lat="39.259096340424755" lon="9.186818386713396"><ele>24.0</ele><time>2026-04-30T10:52:22.999Z</time></trkpt><trkpt lat="39.259043053262936" lon="9.186940751230972"><ele>24.333333333333332</ele><time>2026-04-30T10:52:25.999Z</time></trkpt><trkpt lat="39.25900150433983" lon="9.187028428075104"><ele>24.666666666666664</ele><time>2026-04-30T10:52:27.999Z</time></trkpt><trkpt lat="39.25896390029128" lon="9.187112316303333"><ele>25.0</ele><time>2026-04-30T10:52:29.999Z</time></trkpt><trkpt lat="39.25892445692145" lon="9.187188138283965"><ele>25.333333333333332</ele><time>2026-04-30T10:52:31.999Z</time></trkpt><trkpt lat="39.25887705908183" lon="9.187298809069695"><ele>25.666666666666664</ele><time>2026-04-30T10:52:34.999Z</time></trkpt><trkpt lat="39.258836922080384" lon="9.187361714458692"><ele>26.0</ele><time>2026-04-30T10:52:36.999Z</time></trkpt><trkpt lat="39.2587821001481" lon="9.187455943958252"><ele>25.0</ele><time>2026-04-30T10:53:01.998Z</time></trkpt><trkpt lat="39.258729615127294" lon="9.187539356303384"><ele>24.0</ele><time>2026-04-30T10:53:02.998Z</time></trkpt><trkpt lat="39.25864835973211" lon="9.187656394333642"><ele>23.0</ele><time>2026-04-30T10:53:03.998Z</time></trkpt><trkpt lat="39.258570118251434" lon="9.187770472533712"><ele>22.0</ele><time>2026-04-30T10:53:04.998Z</time></trkpt><trkpt lat="39.25847827768182" lon="9.187894751481434"><ele>22.0</ele><time>2026-04-30T10:53:05.998Z</time></trkpt><trkpt lat="39.25837455109873" lon="9.18802334554262"><ele>22.0</ele><time>2026-04-30T10:53:06.998Z</time></trkpt><trkpt lat="39.2582670667458" lon="9.188144324190297"><ele>22.0</ele><time>2026-04-30T10:53:07.998Z</time></trkpt><trkpt lat="39.25815878242739" lon="9.188257655644769"><ele>22.0</ele><time>2026-04-30T10:53:08.998Z</time></trkpt><trkpt lat="39.258056278792786" lon="9.18836000723841"><ele>22.0</ele><time>2026-04-30T10:53:09.998Z</time></trkpt><trkpt lat="39.25796585447738" lon="9.188456034300051"><ele>22.0</ele><time>2026-04-30T10:53:10.998Z</time></trkpt><trkpt lat="39.2578889007246" lon="9.18854249323065"><ele>22.0</ele><time>2026-04-30T10:53:11.998Z</time></trkpt><trkpt lat="39.2578276759501" lon="9.188615413169405"><ele>22.0</ele><time>2026-04-30T10:53:12.998Z</time></trkpt><trkpt lat="39.2577793817595" lon="9.1886719497447"><ele>22.0</ele><time>2026-04-30T10:53:13.998Z</time></trkpt><trkpt lat="39.25772074206763" lon="9.188740606611162"><ele>22.0</ele><time>2026-04-30T10:53:15.998Z</time></trkpt><trkpt lat="39.257665190498834" lon="9.1887948844743"><ele>22.0</ele><time>2026-04-30T10:53:47.998Z</time></trkpt><trkpt lat="39.25760128062205" lon="9.188895582833192"><ele>22.0</ele><time>2026-04-30T10:53:49.998Z</time></trkpt><trkpt lat="39.25753898085323" lon="9.188977034337293"><ele>22.0</ele><time>2026-04-30T10:53:50.998Z</time></trkpt><trkpt lat="39.257459988735164" lon="9.18907475841887"><ele>22.0</ele><time>2026-04-30T10:53:51.998Z</time></trkpt><trkpt lat="39.257377938097" lon="9.189167242480439"><ele>22.0</ele><time>2026-04-30T10:53:52.998Z</time></trkpt><trkpt lat="39.25728908907784" lon="9.189272764666299"><ele>21.0</ele><time>2026-04-30T10:53:53.998Z</time></trkpt><trkpt lat="39.257185587501624" lon="9.189381029262421"><ele>20.0</ele><time>2026-04-30T10:53:54.998Z</time></trkpt><trkpt lat="39.25706632088463" lon="9.189482455051944"><ele>19.0</ele><time>2026-04-30T10:53:55.998Z</time></trkpt><trkpt lat="39.25693447826642" lon="9.189558692415302"><ele>18.0</ele><time>2026-04-30T10:53:56.998Z</time></trkpt><trkpt lat="39.2567911431371" lon="9.189600899356233"><ele>18.0</ele><time>2026-04-30T10:53:57.998Z</time></trkpt><trkpt lat="39.256636553333614" lon="9.189610309611506"><ele>18.0</ele><time>2026-04-30T10:53:58.998Z</time></trkpt><trkpt lat="39.25647870752357" lon="9.189600082265176"><ele>18.0</ele><time>2026-04-30T10:53:59.998Z</time></trkpt><trkpt lat="39.25631180754941" lon="9.189585986280392"><ele>17.666666666666668</ele><time>2026-04-30T10:54:00.998Z</time></trkpt><trkpt lat="39.256134343594184" lon="9.189554915045814"><ele>17.333333333333336</ele><time>2026-04-30T10:54:01.998Z</time></trkpt><trkpt lat="39.25596251305216" lon="9.189537198991555"><ele>17.0</ele><time>2026-04-30T10:54:02.998Z</time></trkpt><trkpt lat="39.255789431336694" lon="9.189543334054209"><ele>17.0</ele><time>2026-04-30T10:54:03.998Z</time></trkpt><trkpt lat="39.2556211436173" lon="9.1895913135707"><ele>17.0</ele><time>2026-04-30T10:54:04.998Z</time></trkpt><trkpt lat="39.255459971831755" lon="9.189666249181755"><ele>17.0</ele><time>2026-04-30T10:54:05.998Z</time></trkpt><trkpt lat="39.255303861728756" lon="9.189770516381968"><ele>17.0</ele><time>2026-04-30T10:54:06.998Z</time></trkpt><trkpt lat="39.255165355826314" lon="9.189901782884471"><ele>17.0</ele><time>2026-04-30T10:54:07.998Z</time></trkpt><trkpt lat="39.255065494119265" lon="9.190052842229154"><ele>17.0</ele><time>2026-04-30T10:54:08.998Z</time></trkpt><trkpt lat="39.254996444850185" lon="9.190221967128956"><ele>17.0</ele><time>2026-04-30T10:54:09.998Z</time></trkpt><trkpt lat="39.254975118034025" lon="9.19039698768896"><ele>17.0</ele><time>2026-04-30T10:54:10.998Z</time></trkpt><trkpt lat="39.25499038499673" lon="9.190573474165788"><ele>17.0</ele><time>2026-04-30T10:54:11.998Z</time></trkpt><trkpt lat="39.25503215368679" lon="9.190732588930107"><ele>17.0</ele><time>2026-04-30T10:54:12.998Z</time></trkpt><trkpt lat="39.25508828838641" lon="9.19086383896798"><ele>17.0</ele><time>2026-04-30T10:54:13.998Z</time></trkpt><trkpt lat="39.255159167713174" lon="9.190995499524472"><ele>17.0</ele><time>2026-04-30T10:54:14.998Z</time></trkpt><trkpt lat="39.25523783655883" lon="9.191121419059796"><ele>17.0</ele><time>2026-04-30T10:54:15.998Z</time></trkpt><trkpt lat="39.25532636480218" lon="9.191245421281133"><ele>17.0</ele><time>2026-04-30T10:54:16.998Z</time></trkpt><trkpt lat="39.25542032122153" lon="9.191371669827726"><ele>17.0</ele><time>2026-04-30T10:54:17.998Z</time></trkpt><trkpt lat="39.25551465572708" lon="9.191498100383038"><ele>17.0</ele><time>2026-04-30T10:54:18.998Z</time></trkpt><trkpt lat="39.25560910572799" lon="9.191629881116933"><ele>17.0</ele><time>2026-04-30T10:54:19.998Z</time></trkpt><trkpt lat="39.25570817761449" lon="9.191769938307502"><ele>17.0</ele><time>2026-04-30T10:54:20.998Z</time></trkpt><trkpt lat="39.25580629513104" lon="9.191915366927802"><ele>18.0</ele><time>2026-04-30T10:54:21.998Z</time></trkpt><trkpt lat="39.25588790176632" lon="9.192042393636966"><ele>19.0</ele><time>2026-04-30T10:54:22.998Z</time></trkpt><trkpt lat="39.25599563511026" lon="9.192191832387898"><ele>20.0</ele><time>2026-04-30T10:54:23.998Z</time></trkpt><trkpt lat="39.25610764590607" lon="9.192337792929793"><ele>21.0</ele><time>2026-04-30T10:54:24.998Z</time></trkpt><trkpt lat="39.25622080731817" lon="9.192489704281932"><ele>21.666666666666668</ele><time>2026-04-30T10:54:25.998Z</time></trkpt><trkpt lat="39.25633392599179" lon="9.192648445715196"><ele>22.333333333333336</ele><time>2026-04-30T10:54:26.998Z</time></trkpt><trkpt lat="39.2564499408757" lon="9.19280063966118"><ele>23.0</ele><time>2026-04-30T10:54:27.998Z</time></trkpt><trkpt lat="39.2565706374319" lon="9.192944635741343"><ele>23.0</ele><time>2026-04-30T10:54:28.998Z</time></trkpt><trkpt lat="39.256692476403295" lon="9.193081462165289"><ele>23.0</ele><time>2026-04-30T10:54:29.998Z</time></trkpt><trkpt lat="39.256815584729054" lon="9.193210899670623"><ele>23.0</ele><time>2026-04-30T10:54:30.998Z</time></trkpt><trkpt lat="39.25693650457669" lon="9.193332171533127"><ele>23.333333333333336</ele><time>2026-04-30T10:54:31.998Z</time></trkpt><trkpt lat="39.25705715631356" lon="9.193442618235794"><ele>23.666666666666668</ele><time>2026-04-30T10:54:32.998Z</time></trkpt><trkpt lat="39.25718464177117" lon="9.193556990187785"><ele>24.0</ele><time>2026-04-30T10:54:33.998Z</time></trkpt><trkpt lat="39.25732058283731" lon="9.193668274275694"><ele>24.0</ele><time>2026-04-30T10:54:34.998Z</time></trkpt><trkpt lat="39.2574627511743" lon="9.193777199355159"><ele>24.0</ele><time>2026-04-30T10:54:35.998Z</time></trkpt><trkpt lat="39.25761273252494" lon="9.193883638322667"><ele>24.0</ele><time>2026-04-30T10:54:36.998Z</time></trkpt><trkpt lat="39.257769299097674" lon="9.193985487703763"><ele>25.333333333333336</ele><time>2026-04-30T10:54:37.998Z</time></trkpt><trkpt lat="39.2579290097025" lon="9.194081765906308"><ele>26.666666666666668</ele><time>2026-04-30T10:54:38.998Z</time></trkpt><trkpt lat="39.258109167412094" lon="9.194171308314877"><ele>28.0</ele><time>2026-04-30T10:54:39.998Z</time></trkpt><trkpt lat="39.25830501164901" lon="9.19425223987575"><ele>28.0</ele><time>2026-04-30T10:54:40.998Z</time></trkpt><trkpt lat="39.258512145928506" lon="9.194342176946451"><ele>28.0</ele><time>2026-04-30T10:54:41.998Z</time></trkpt><trkpt lat="39.25873019868739" lon="9.194434479637462"><ele>28.0</ele><time>2026-04-30T10:54:42.998Z</time></trkpt><trkpt lat="39.25896081825202" lon="9.194529834339495"><ele>29.5</ele><time>2026-04-30T10:54:43.998Z</time></trkpt><trkpt lat="39.25919321778578" lon="9.194622420475108"><ele>31.0</ele><time>2026-04-30T10:54:44.998Z</time></trkpt><trkpt lat="39.2594580359773" lon="9.194729386411499"><ele>31.0</ele><time>2026-04-30T10:54:45.998Z</time></trkpt><trkpt lat="39.25969157518691" lon="9.194835446368101"><ele>31.0</ele><time>2026-04-30T10:54:46.998Z</time></trkpt><trkpt lat="39.25990740158334" lon="9.194933678887304"><ele>31.0</ele><time>2026-04-30T10:54:47.998Z</time></trkpt><trkpt lat="39.260129951033754" lon="9.195026425133749"><ele>31.0</ele><time>2026-04-30T10:54:48.998Z</time></trkpt><trkpt lat="39.26035408125206" lon="9.195115303391576"><ele>31.0</ele><time>2026-04-30T10:54:49.998Z</time></trkpt><trkpt lat="39.26058103390899" lon="9.195212572655448"><ele>31.0</ele><time>2026-04-30T10:54:50.998Z</time></trkpt><trkpt lat="39.26081243022949" lon="9.195307668580265"><ele>31.5</ele><time>2026-04-30T10:54:51.998Z</time></trkpt><trkpt lat="39.26103800129558" lon="9.195399517764889"><ele>32.0</ele><time>2026-04-30T10:54:52.998Z</time></trkpt><trkpt lat="39.261259046301824" lon="9.195487224744955"><ele>32.5</ele><time>2026-04-30T10:54:53.998Z</time></trkpt><trkpt lat="39.26147740427651" lon="9.19557800219664"><ele>33.0</ele><time>2026-04-30T10:54:54.998Z</time></trkpt><trkpt lat="39.261701840650694" lon="9.195676665143147"><ele>34.5</ele><time>2026-04-30T10:54:55.998Z</time></trkpt><trkpt lat="39.26192239291353" lon="9.195772141412974"><ele>36.0</ele><time>2026-04-30T10:54:56.998Z</time></trkpt><trkpt lat="39.26213560386725" lon="9.195869000527262"><ele>36.5</ele><time>2026-04-30T10:54:57.998Z</time></trkpt><trkpt lat="39.26235329416095" lon="9.195958608521202"><ele>37.0</ele><time>2026-04-30T10:54:58.998Z</time></trkpt><trkpt lat="39.26257083132901" lon="9.19603987557174"><ele>37.0</ele><time>2026-04-30T10:54:59.998Z</time></trkpt><trkpt lat="39.26279065775522" lon="9.196134387803765"><ele>37.0</ele><time>2026-04-30T10:55:00.998Z</time></trkpt><trkpt lat="39.26301590667371" lon="9.196226920040512"><ele>37.5</ele><time>2026-04-30T10:55:01.998Z</time></trkpt><trkpt lat="39.26324200354719" lon="9.196315279202139"><ele>38.0</ele><time>2026-04-30T10:55:02.998Z</time></trkpt><trkpt lat="39.26346655801505" lon="9.196406715417332"><ele>38.0</ele><time>2026-04-30T10:55:03.998Z</time></trkpt><trkpt lat="39.263689243244436" lon="9.196498303385628"><ele>38.0</ele><time>2026-04-30T10:55:04.998Z</time></trkpt><trkpt lat="39.26390960938927" lon="9.196594580767021"><ele>41.0</ele><time>2026-04-30T10:55:05.998Z</time></trkpt><trkpt lat="39.26413519760281" lon="9.196690954177054"><ele>44.0</ele><time>2026-04-30T10:55:06.998Z</time></trkpt><trkpt lat="39.26436004787038" lon="9.196790196229104"><ele>44.0</ele><time>2026-04-30T10:55:07.998Z</time></trkpt><trkpt lat="39.26458843282581" lon="9.196885885183317"><ele>44.0</ele><time>2026-04-30T10:55:08.998Z</time></trkpt><trkpt lat="39.264816916135295" lon="9.196985247246024"><ele>43.5</ele><time>2026-04-30T10:55:09.998Z</time></trkpt><trkpt lat="39.2650478328042" lon="9.197081797103154"><ele>43.0</ele><time>2026-04-30T10:55:10.998Z</time></trkpt><trkpt lat="39.26527495496031" lon="9.197180644316154"><ele>43.0</ele><time>2026-04-30T10:55:11.998Z</time></trkpt><trkpt lat="39.26549550808857" lon="9.197279759620333"><ele>43.0</ele><time>2026-04-30T10:55:12.998Z</time></trkpt><trkpt lat="39.26571033271981" lon="9.197391993348011"><ele>44.66666666666667</ele><time>2026-04-30T10:55:13.998Z</time></trkpt><trkpt lat="39.26591895913401" lon="9.197503436634241"><ele>46.333333333333336</ele><time>2026-04-30T10:55:14.997Z</time></trkpt><trkpt lat="39.26611185845238" lon="9.197622991315441"><ele>48.0</ele><time>2026-04-30T10:55:15.997Z</time></trkpt><trkpt lat="39.26630778205967" lon="9.19775867466787"><ele>49.5</ele><time>2026-04-30T10:55:16.997Z</time></trkpt><trkpt lat="39.266497384937274" lon="9.197911138195739"><ele>51.0</ele><time>2026-04-30T10:55:17.997Z</time></trkpt><trkpt lat="39.266692943381955" lon="9.198076747046484"><ele>51.0</ele><time>2026-04-30T10:55:18.997Z</time></trkpt><trkpt lat="39.266889577694286" lon="9.19825925184736"><ele>51.0</ele><time>2026-04-30T10:55:19.997Z</time></trkpt><trkpt lat="39.26708190914981" lon="9.198460430569495"><ele>51.0</ele><time>2026-04-30T10:55:20.997Z</time></trkpt><trkpt lat="39.267269344157434" lon="9.198675642100847"><ele>51.0</ele><time>2026-04-30T10:55:21.997Z</time></trkpt><trkpt lat="39.26745199909949" lon="9.198893816178034"><ele>48.5</ele><time>2026-04-30T10:55:22.997Z</time></trkpt><trkpt lat="39.26762683196075" lon="9.199126736928092"><ele>46.0</ele><time>2026-04-30T10:55:23.997Z</time></trkpt><trkpt lat="39.267792390635215" lon="9.199366659573677"><ele>46.0</ele><time>2026-04-30T10:55:24.997Z</time></trkpt><trkpt lat="39.26795452114863" lon="9.199616355669404"><ele>46.0</ele><time>2026-04-30T10:55:25.997Z</time></trkpt><trkpt lat="39.26811259670975" lon="9.199872998858465"><ele>44.0</ele><time>2026-04-30T10:55:26.997Z</time></trkpt><trkpt lat="39.268262949496595" lon="9.200135189567176"><ele>42.0</ele><time>2026-04-30T10:55:27.997Z</time></trkpt><trkpt lat="39.26840823423334" lon="9.200400618486489"><ele>42.0</ele><time>2026-04-30T10:55:28.997Z</time></trkpt><trkpt lat="39.26853835945063" lon="9.200667610302798"><ele>42.0</ele><time>2026-04-30T10:55:29.997Z</time></trkpt><trkpt lat="39.268662574543676" lon="9.200947518285552"><ele>42.0</ele><time>2026-04-30T10:55:30.997Z</time></trkpt><trkpt lat="39.26877392685804" lon="9.201224874836566"><ele>42.0</ele><time>2026-04-30T10:55:31.997Z</time></trkpt><trkpt lat="39.26886579137993" lon="9.20148940231841"><ele>43.666666666666664</ele><time>2026-04-30T10:55:32.997Z</time></trkpt><trkpt lat="39.268948191260385" lon="9.20175614672187"><ele>45.33333333333333</ele><time>2026-04-30T10:55:33.997Z</time></trkpt><trkpt lat="39.269020677529994" lon="9.202019033094187"><ele>47.0</ele><time>2026-04-30T10:55:34.997Z</time></trkpt><trkpt lat="39.26908415158446" lon="9.202264680436487"><ele>46.33333333333333</ele><time>2026-04-30T10:55:35.997Z</time></trkpt><trkpt lat="39.26913518583423" lon="9.202499752396685"><ele>45.666666666666664</ele><time>2026-04-30T10:55:36.997Z</time></trkpt><trkpt lat="39.26918466885658" lon="9.20274346546121"><ele>45.0</ele><time>2026-04-30T10:55:37.997Z</time></trkpt><trkpt lat="39.269231765714046" lon="9.202991590795168"><ele>44.666666666666664</ele><time>2026-04-30T10:55:38.997Z</time></trkpt><trkpt lat="39.26927555299369" lon="9.203248615283966"><ele>44.33333333333333</ele><time>2026-04-30T10:55:39.997Z</time></trkpt><trkpt lat="39.269311060533695" lon="9.203509999149107"><ele>44.0</ele><time>2026-04-30T10:55:40.997Z</time></trkpt><trkpt lat="39.26934131624702" lon="9.203772557669685"><ele>44.33333333333333</ele><time>2026-04-30T10:55:41.997Z</time></trkpt><trkpt lat="39.26936548849006" lon="9.204028292469694"><ele>44.666666666666664</ele><time>2026-04-30T10:55:42.997Z</time></trkpt><trkpt lat="39.26937370473067" lon="9.204294410171741"><ele>45.0</ele><time>2026-04-30T10:55:43.997Z</time></trkpt><trkpt lat="39.269381265747704" lon="9.20455713385435"><ele>45.0</ele><time>2026-04-30T10:55:44.997Z</time></trkpt><trkpt lat="39.269384119662604" lon="9.20481943066239"><ele>45.0</ele><time>2026-04-30T10:55:45.997Z</time></trkpt><trkpt lat="39.269381281588565" lon="9.205080843222374"><ele>45.0</ele><time>2026-04-30T10:55:46.997Z</time></trkpt><trkpt lat="39.269365067557025" lon="9.205347475285919"><ele>46.33333333333333</ele><time>2026-04-30T10:55:47.997Z</time></trkpt><trkpt lat="39.26934520213123" lon="9.205615477406669"><ele>47.666666666666664</ele><time>2026-04-30T10:55:48.997Z</time></trkpt><trkpt lat="39.26932753185259" lon="9.205885260606488"><ele>49.0</ele><time>2026-04-30T10:55:49.997Z</time></trkpt><trkpt lat="39.26930731111357" lon="9.206158254313314"><ele>49.666666666666664</ele><time>2026-04-30T10:55:50.997Z</time></trkpt><trkpt lat="39.26928433232589" lon="9.206432376421409"><ele>50.33333333333333</ele><time>2026-04-30T10:55:51.997Z</time></trkpt><trkpt lat="39.26925533707532" lon="9.206719417902013"><ele>51.0</ele><time>2026-04-30T10:55:52.997Z</time></trkpt><trkpt lat="39.26923525849359" lon="9.207022576211731"><ele>53.0</ele><time>2026-04-30T10:55:53.997Z</time></trkpt><trkpt lat="39.269212315678885" lon="9.207337776660792"><ele>55.0</ele><time>2026-04-30T10:55:54.997Z</time></trkpt><trkpt lat="39.269185222896205" lon="9.207665675979253"><ele>55.0</ele><time>2026-04-30T10:55:55.997Z</time></trkpt><trkpt lat="39.26915908691652" lon="9.20800479241952"><ele>55.0</ele><time>2026-04-30T10:55:56.997Z</time></trkpt><trkpt lat="39.269128771910935" lon="9.20834790924426"><ele>54.5</ele><time>2026-04-30T10:55:57.997Z</time></trkpt><trkpt lat="39.26909025115014" lon="9.208696557995339"><ele>54.0</ele><time>2026-04-30T10:55:58.997Z</time></trkpt><trkpt lat="39.26905443244097" lon="9.209056043944011"><ele>54.0</ele><time>2026-04-30T10:55:59.997Z</time></trkpt><trkpt lat="39.26901846011263" lon="9.209410003913813"><ele>54.0</ele><time>2026-04-30T10:56:00.997Z</time></trkpt><trkpt lat="39.26898507344117" lon="9.20975164679371"><ele>54.5</ele><time>2026-04-30T10:56:01.997Z</time></trkpt><trkpt lat="39.268957133182695" lon="9.210081898575188"><ele>55.0</ele><time>2026-04-30T10:56:02.997Z</time></trkpt><trkpt lat="39.26893001372948" lon="9.210408857244751"><ele>51.5</ele><time>2026-04-30T10:56:03.997Z</time></trkpt><trkpt lat="39.26890403529487" lon="9.210724251594284"><ele>48.0</ele><time>2026-04-30T10:56:04.997Z</time></trkpt><trkpt lat="39.268876452267364" lon="9.211029848165886"><ele>48.0</ele><time>2026-04-30T10:56:05.997Z</time></trkpt><trkpt lat="39.268850267165455" lon="9.211334743232841"><ele>48.0</ele><time>2026-04-30T10:56:06.997Z</time></trkpt><trkpt lat="39.26882704879418" lon="9.211634929272156"><ele>48.0</ele><time>2026-04-30T10:56:07.997Z</time></trkpt><trkpt lat="39.26879934218549" lon="9.211935415652281"><ele>48.0</ele><time>2026-04-30T10:56:08.997Z</time></trkpt><trkpt lat="39.268768544522096" lon="9.212233291781363"><ele>48.5</ele><time>2026-04-30T10:56:09.997Z</time></trkpt><trkpt lat="39.26872824898393" lon="9.212531190889157"><ele>49.0</ele><time>2026-04-30T10:56:10.997Z</time></trkpt><trkpt lat="39.26867908113523" lon="9.212823370253483"><ele>49.0</ele><time>2026-04-30T10:56:11.997Z</time></trkpt><trkpt lat="39.26861962441439" lon="9.213113855297811"><ele>49.0</ele><time>2026-04-30T10:56:12.997Z</time></trkpt><trkpt lat="39.26855340149928" lon="9.21340067313455"><ele>50.0</ele><time>2026-04-30T10:56:13.997Z</time></trkpt><trkpt lat="39.268478380969434" lon="9.213682141716978"><ele>51.0</ele><time>2026-04-30T10:56:14.997Z</time></trkpt><trkpt lat="39.26839496166063" lon="9.213958779662725"><ele>51.5</ele><time>2026-04-30T10:56:15.997Z</time></trkpt><trkpt lat="39.26830698110091" lon="9.214227687121928"><ele>52.0</ele><time>2026-04-30T10:56:16.997Z</time></trkpt><trkpt lat="39.2682069079577" lon="9.21450344141643"><ele>49.0</ele><time>2026-04-30T10:56:17.997Z</time></trkpt><trkpt lat="39.26810240406212" lon="9.214768557410853"><ele>46.0</ele><time>2026-04-30T10:56:18.997Z</time></trkpt><trkpt lat="39.26799073299691" lon="9.215022127925952"><ele>46.0</ele><time>2026-04-30T10:56:19.997Z</time></trkpt><trkpt lat="39.2678705286819" lon="9.215260930601062"><ele>46.0</ele><time>2026-04-30T10:56:20.997Z</time></trkpt><trkpt lat="39.267749545958765" lon="9.215492759543382"><ele>46.0</ele><time>2026-04-30T10:56:21.997Z</time></trkpt><trkpt lat="39.26762545949617" lon="9.215722276988735"><ele>46.0</ele><time>2026-04-30T10:56:22.997Z</time></trkpt><trkpt lat="39.26749513150683" lon="9.215943024039452"><ele>46.0</ele><time>2026-04-30T10:56:23.997Z</time></trkpt><trkpt lat="39.267355824182665" lon="9.216166924595159"><ele>46.0</ele><time>2026-04-30T10:56:24.997Z</time></trkpt><trkpt lat="39.26721245615849" lon="9.216378712084751"><ele>45.5</ele><time>2026-04-30T10:56:25.997Z</time></trkpt><trkpt lat="39.26705689629067" lon="9.216590282639848"><ele>45.0</ele><time>2026-04-30T10:56:26.997Z</time></trkpt><trkpt lat="39.26688472869768" lon="9.216792018810086"><ele>45.0</ele><time>2026-04-30T10:56:27.997Z</time></trkpt><trkpt lat="39.26670938082574" lon="9.216988983716043"><ele>45.0</ele><time>2026-04-30T10:56:28.997Z</time></trkpt><trkpt lat="39.26653515406357" lon="9.21717693216266"><ele>44.0</ele><time>2026-04-30T10:56:29.997Z</time></trkpt><trkpt lat="39.266355238476045" lon="9.217354762611878"><ele>43.0</ele><time>2026-04-30T10:56:30.997Z</time></trkpt><trkpt lat="39.26617684508675" lon="9.217528593901417"><ele>43.0</ele><time>2026-04-30T10:56:31.997Z</time></trkpt><trkpt lat="39.266000358347604" lon="9.217705254944912"><ele>43.0</ele><time>2026-04-30T10:56:32.997Z</time></trkpt><trkpt lat="39.26582083352747" lon="9.21788029388231"><ele>43.0</ele><time>2026-04-30T10:56:33.997Z</time></trkpt><trkpt lat="39.26564367805528" lon="9.2180588498797"><ele>43.333333333333336</ele><time>2026-04-30T10:56:34.997Z</time></trkpt><trkpt lat="39.26546572197989" lon="9.218235876910546"><ele>43.666666666666664</ele><time>2026-04-30T10:56:35.997Z</time></trkpt><trkpt lat="39.26529257032929" lon="9.218413388622444"><ele>44.0</ele><time>2026-04-30T10:56:36.997Z</time></trkpt><trkpt lat="39.26511472799718" lon="9.218590557856892"><ele>44.0</ele><time>2026-04-30T10:56:37.997Z</time></trkpt><trkpt lat="39.264933481615785" lon="9.218763817677655"><ele>44.0</ele><time>2026-04-30T10:56:38.997Z</time></trkpt><trkpt lat="39.264756420751176" lon="9.218936463469845"><ele>44.0</ele><time>2026-04-30T10:56:39.997Z</time></trkpt><trkpt lat="39.26458210532289" lon="9.219108104984969"><ele>45.666666666666664</ele><time>2026-04-30T10:56:40.997Z</time></trkpt><trkpt lat="39.26441384160013" lon="9.219277888242578"><ele>47.33333333333333</ele><time>2026-04-30T10:56:41.997Z</time></trkpt><trkpt lat="39.26424812381037" lon="9.219440875093152"><ele>49.0</ele><time>2026-04-30T10:56:42.997Z</time></trkpt><trkpt lat="39.26408726052215" lon="9.219601387000854"><ele>49.666666666666664</ele><time>2026-04-30T10:56:43.997Z</time></trkpt><trkpt lat="39.26392259000049" lon="9.21976734363099"><ele>50.33333333333333</ele><time>2026-04-30T10:56:44.997Z</time></trkpt><trkpt lat="39.2637545883922" lon="9.219938148315958"><ele>51.0</ele><time>2026-04-30T10:56:45.997Z</time></trkpt><trkpt lat="39.26358040126876" lon="9.2201132725932"><ele>51.0</ele><time>2026-04-30T10:56:46.997Z</time></trkpt><trkpt lat="39.2634028313132" lon="9.220286276252052"><ele>51.0</ele><time>2026-04-30T10:56:47.997Z</time></trkpt><trkpt lat="39.263219565906496" lon="9.220464194258613"><ele>51.0</ele><time>2026-04-30T10:56:48.997Z</time></trkpt><trkpt lat="39.26304226465342" lon="9.220649496606466"><ele>51.0</ele><time>2026-04-30T10:56:49.997Z</time></trkpt><trkpt lat="39.262869176878716" lon="9.220833502036818"><ele>50.5</ele><time>2026-04-30T10:56:50.997Z</time></trkpt><trkpt lat="39.262699696920805" lon="9.221028241792888"><ele>50.0</ele><time>2026-04-30T10:56:51.997Z</time></trkpt><trkpt lat="39.26254190457576" lon="9.221235828064778"><ele>50.0</ele><time>2026-04-30T10:56:52.997Z</time></trkpt><trkpt lat="39.26239409318544" lon="9.221444545911885"><ele>50.0</ele><time>2026-04-30T10:56:53.997Z</time></trkpt><trkpt lat="39.262247681515646" lon="9.221664461946236"><ele>50.0</ele><time>2026-04-30T10:56:54.997Z</time></trkpt><trkpt lat="39.26210758557424" lon="9.221898835752558"><ele>48.5</ele><time>2026-04-30T10:56:55.997Z</time></trkpt><trkpt lat="39.261979044476014" lon="9.222144293779762"><ele>47.0</ele><time>2026-04-30T10:56:56.997Z</time></trkpt><trkpt lat="39.261849924885595" lon="9.222394848712065"><ele>47.0</ele><time>2026-04-30T10:56:57.997Z</time></trkpt><trkpt lat="39.26171573120757" lon="9.22265157829071"><ele>47.0</ele><time>2026-04-30T10:56:58.997Z</time></trkpt><trkpt lat="39.261590197259785" lon="9.222911668955424"><ele>44.5</ele><time>2026-04-30T10:56:59.997Z</time></trkpt><trkpt lat="39.26148426179338" lon="9.223177953338077"><ele>42.0</ele><time>2026-04-30T10:57:00.997Z</time></trkpt><trkpt lat="39.26138279477937" lon="9.22345081130655"><ele>42.0</ele><time>2026-04-30T10:57:01.997Z</time></trkpt><trkpt lat="39.26128900524453" lon="9.223734480294196"><ele>42.0</ele><time>2026-04-30T10:57:02.997Z</time></trkpt><trkpt lat="39.26120503817578" lon="9.224011064141994"><ele>44.0</ele><time>2026-04-30T10:57:03.997Z</time></trkpt><trkpt lat="39.2611370597562" lon="9.224298288298309"><ele>46.0</ele><time>2026-04-30T10:57:04.997Z</time></trkpt><trkpt lat="39.26107265270117" lon="9.224587853829748"><ele>46.0</ele><time>2026-04-30T10:57:05.997Z</time></trkpt><trkpt lat="39.261006631658304" lon="9.224882366534793"><ele>46.0</ele><time>2026-04-30T10:57:06.997Z</time></trkpt><trkpt lat="39.260952558617106" lon="9.225173487394185"><ele>46.0</ele><time>2026-04-30T10:57:07.997Z</time></trkpt><trkpt lat="39.26090948087024" lon="9.225473580958361"><ele>46.0</ele><time>2026-04-30T10:57:08.997Z</time></trkpt><trkpt lat="39.2608836051248" lon="9.225777509407"><ele>46.0</ele><time>2026-04-30T10:57:09.997Z</time></trkpt><trkpt lat="39.26086655738572" lon="9.226083885400582"><ele>46.0</ele><time>2026-04-30T10:57:10.997Z</time></trkpt><trkpt lat="39.26084669813585" lon="9.22639199777163"><ele>46.5</ele><time>2026-04-30T10:57:11.997Z</time></trkpt><trkpt lat="39.26083500133184" lon="9.226704144666364"><ele>47.0</ele><time>2026-04-30T10:57:12.997Z</time></trkpt><trkpt lat="39.26083453497474" lon="9.22701140717052"><ele>47.5</ele><time>2026-04-30T10:57:13.997Z</time></trkpt><trkpt lat="39.26084195056074" lon="9.227322940010119"><ele>48.0</ele><time>2026-04-30T10:57:14.997Z</time></trkpt><trkpt lat="39.26085691008226" lon="9.22763064067612"><ele>48.0</ele><time>2026-04-30T10:57:15.997Z</time></trkpt><trkpt lat="39.2608826452183" lon="9.227933453814394"><ele>48.0</ele><time>2026-04-30T10:57:16.997Z</time></trkpt><trkpt lat="39.260904043773756" lon="9.22823572623962"><ele>50.5</ele><time>2026-04-30T10:57:17.997Z</time></trkpt><trkpt lat="39.260926260963984" lon="9.228538278277096"><ele>53.0</ele><time>2026-04-30T10:57:18.997Z</time></trkpt><trkpt lat="39.26093782747716" lon="9.22883774149717"><ele>53.5</ele><time>2026-04-30T10:57:19.997Z</time></trkpt><trkpt lat="39.26095284963446" lon="9.229144203113885"><ele>54.0</ele><time>2026-04-30T10:57:20.997Z</time></trkpt><trkpt lat="39.26097539991448" lon="9.229449333032564"><ele>54.0</ele><time>2026-04-30T10:57:21.997Z</time></trkpt><trkpt lat="39.26099906222692" lon="9.229758834505535"><ele>54.0</ele><time>2026-04-30T10:57:22.997Z</time></trkpt><trkpt lat="39.2610215443151" lon="9.230064012797795"><ele>52.0</ele><time>2026-04-30T10:57:23.997Z</time></trkpt><trkpt lat="39.26105877366638" lon="9.230368483394809"><ele>50.0</ele><time>2026-04-30T10:57:24.997Z</time></trkpt><trkpt lat="39.26110062631539" lon="9.230678196689862"><ele>49.0</ele><time>2026-04-30T10:57:25.997Z</time></trkpt><trkpt lat="39.26113924407863" lon="9.230980802247188"><ele>48.0</ele><time>2026-04-30T10:57:26.997Z</time></trkpt><trkpt lat="39.26117530229394" lon="9.231282458373633"><ele>47.0</ele><time>2026-04-30T10:57:27.997Z</time></trkpt><trkpt lat="39.26121328468997" lon="9.231583914122963"><ele>46.0</ele><time>2026-04-30T10:57:28.997Z</time></trkpt><trkpt lat="39.261249496563245" lon="9.231880858185237"><ele>46.0</ele><time>2026-04-30T10:57:29.996Z</time></trkpt><trkpt lat="39.26128636052011" lon="9.232176646639264"><ele>46.0</ele><time>2026-04-30T10:57:30.996Z</time></trkpt><trkpt lat="39.26132113162499" lon="9.232467887051595"><ele>45.5</ele><time>2026-04-30T10:57:31.996Z</time></trkpt><trkpt lat="39.261358048775485" lon="9.232755046518491"><ele>45.0</ele><time>2026-04-30T10:57:32.996Z</time></trkpt><trkpt lat="39.26139453867475" lon="9.233048755980233"><ele>44.5</ele><time>2026-04-30T10:57:33.996Z</time></trkpt><trkpt lat="39.26142811195141" lon="9.23334102724138"><ele>44.0</ele><time>2026-04-30T10:57:34.996Z</time></trkpt><trkpt lat="39.26147120898063" lon="9.233623811269862"><ele>44.0</ele><time>2026-04-30T10:57:35.996Z</time></trkpt><trkpt lat="39.26151527969421" lon="9.23391279439913"><ele>44.0</ele><time>2026-04-30T10:57:36.996Z</time></trkpt><trkpt lat="39.26155540004468" lon="9.234205655935325"><ele>44.0</ele><time>2026-04-30T10:57:37.996Z</time></trkpt><trkpt lat="39.26159688073695" lon="9.234495580939186"><ele>44.0</ele><time>2026-04-30T10:57:38.996Z</time></trkpt><trkpt lat="39.261637394086776" lon="9.234786068852522"><ele>44.0</ele><time>2026-04-30T10:57:39.996Z</time></trkpt><trkpt lat="39.261671386294914" lon="9.235081110527602"><ele>44.0</ele><time>2026-04-30T10:57:40.996Z</time></trkpt><trkpt lat="39.261699042510955" lon="9.235382595856366"><ele>44.0</ele><time>2026-04-30T10:57:41.996Z</time></trkpt><trkpt lat="39.26173982257677" lon="9.235674526734416"><ele>44.0</ele><time>2026-04-30T10:57:42.996Z</time></trkpt><trkpt lat="39.261809611070525" lon="9.236237811641207"><ele>44.0</ele><time>2026-04-30T10:57:44.996Z</time></trkpt><trkpt lat="39.26185101810033" lon="9.236511680661128"><ele>44.0</ele><time>2026-04-30T10:57:45.996Z</time></trkpt><trkpt lat="39.26189060970204" lon="9.236781699907073"><ele>44.0</ele><time>2026-04-30T10:57:46.996Z</time></trkpt><trkpt lat="39.261915049466495" lon="9.237051993548349"><ele>44.0</ele><time>2026-04-30T10:57:47.996Z</time></trkpt><trkpt lat="39.26193108954898" lon="9.23729504617863"><ele>44.0</ele><time>2026-04-30T10:57:48.996Z</time></trkpt><trkpt lat="39.26195157361668" lon="9.237528997323635"><ele>44.0</ele><time>2026-04-30T10:57:49.996Z</time></trkpt><trkpt lat="39.26199160395508" lon="9.237743332190247"><ele>44.0</ele><time>2026-04-30T10:57:50.996Z</time></trkpt><trkpt lat="39.2620226326219" lon="9.237944103295032"><ele>44.0</ele><time>2026-04-30T10:57:51.996Z</time></trkpt><trkpt lat="39.26204943081791" lon="9.238119923049725"><ele>44.0</ele><time>2026-04-30T10:57:52.996Z</time></trkpt><trkpt lat="39.262064213942644" lon="9.23828117984074"><ele>44.0</ele><time>2026-04-30T10:57:53.996Z</time></trkpt><trkpt lat="39.26205987695152" lon="9.238434774149209"><ele>43.6</ele><time>2026-04-30T10:57:54.996Z</time></trkpt><trkpt lat="39.26203733716538" lon="9.238581276288796"><ele>43.2</ele><time>2026-04-30T10:57:55.996Z</time></trkpt><trkpt lat="39.26202271454579" lon="9.238702940869354"><ele>42.800000000000004</ele><time>2026-04-30T10:57:56.996Z</time></trkpt><trkpt lat="39.26204423784987" lon="9.238823404528993"><ele>42.400000000000006</ele><time>2026-04-30T10:57:57.996Z</time></trkpt><trkpt lat="39.26209947444595" lon="9.238953512386065"><ele>42.0</ele><time>2026-04-30T10:57:58.996Z</time></trkpt><trkpt lat="39.26216828523663" lon="9.23909583632864"><ele>41.333333333333336</ele><time>2026-04-30T10:57:59.996Z</time></trkpt><trkpt lat="39.2622151667641" lon="9.239270221290345"><ele>40.66666666666667</ele><time>2026-04-30T10:58:00.996Z</time></trkpt><trkpt lat="39.26223951131516" lon="9.239459568662463"><ele>40.0</ele><time>2026-04-30T10:58:01.996Z</time></trkpt><trkpt lat="39.262267741859624" lon="9.239661860659359"><ele>41.0</ele><time>2026-04-30T10:58:02.996Z</time></trkpt><trkpt lat="39.262297490485835" lon="9.239875672353937"><ele>42.0</ele><time>2026-04-30T10:58:03.996Z</time></trkpt><trkpt lat="39.262323244718054" lon="9.240086690359668"><ele>43.0</ele><time>2026-04-30T10:58:04.996Z</time></trkpt><trkpt lat="39.26234715292234" lon="9.240295063826883"><ele>43.0</ele><time>2026-04-30T10:58:05.996Z</time></trkpt><trkpt lat="39.26237670447348" lon="9.240516257349752"><ele>43.0</ele><time>2026-04-30T10:58:06.996Z</time></trkpt><trkpt lat="39.262408902553766" lon="9.240751579336326"><ele>43.0</ele><time>2026-04-30T10:58:07.996Z</time></trkpt><trkpt lat="39.26244385835816" lon="9.240995116165841"><ele>43.0</ele><time>2026-04-30T10:58:08.996Z</time></trkpt><trkpt lat="39.26248008759768" lon="9.241245951634186"><ele>43.0</ele><time>2026-04-30T10:58:09.996Z</time></trkpt><trkpt lat="39.26251616866133" lon="9.241499824797042"><ele>43.0</ele><time>2026-04-30T10:58:10.996Z</time></trkpt><trkpt lat="39.262546232765445" lon="9.241737364687646"><ele>43.0</ele><time>2026-04-30T10:58:11.996Z</time></trkpt><trkpt lat="39.262576222361936" lon="9.2419689833621"><ele>43.0</ele><time>2026-04-30T10:58:12.996Z</time></trkpt><trkpt lat="39.26261124332456" lon="9.24221357301827"><ele>43.0</ele><time>2026-04-30T10:58:13.996Z</time></trkpt><trkpt lat="39.262643384137704" lon="9.242462895520891"><ele>43.0</ele><time>2026-04-30T10:58:14.996Z</time></trkpt><trkpt lat="39.2626742085592" lon="9.242729334342098"><ele>43.0</ele><time>2026-04-30T10:58:15.996Z</time></trkpt><trkpt lat="39.26270868706715" lon="9.242996267874398"><ele>43.0</ele><time>2026-04-30T10:58:16.996Z</time></trkpt><trkpt lat="39.26275056244343" lon="9.243266948760446"><ele>43.333333333333336</ele><time>2026-04-30T10:58:17.996Z</time></trkpt><trkpt lat="39.26278166249866" lon="9.243515402756964"><ele>43.666666666666664</ele><time>2026-04-30T10:58:18.996Z</time></trkpt><trkpt lat="39.262813913309" lon="9.243757171639036"><ele>44.0</ele><time>2026-04-30T10:58:19.996Z</time></trkpt><trkpt lat="39.26284720559199" lon="9.244002489048126"><ele>44.0</ele><time>2026-04-30T10:58:20.996Z</time></trkpt><trkpt lat="39.2628845205838" lon="9.244260768672238"><ele>44.0</ele><time>2026-04-30T10:58:21.996Z</time></trkpt><trkpt lat="39.26291614731768" lon="9.244525567233103"><ele>44.0</ele><time>2026-04-30T10:58:22.996Z</time></trkpt><trkpt lat="39.26294579020762" lon="9.244788726752981"><ele>44.33333333333333</ele><time>2026-04-30T10:58:23.996Z</time></trkpt><trkpt lat="39.26297510444356" lon="9.245045457897675"><ele>44.666666666666664</ele><time>2026-04-30T10:58:24.996Z</time></trkpt><trkpt lat="39.26300875380313" lon="9.24530670834534"><ele>45.0</ele><time>2026-04-30T10:58:25.996Z</time></trkpt><trkpt lat="39.26304180461204" lon="9.245570267919142"><ele>46.0</ele><time>2026-04-30T10:58:26.996Z</time></trkpt><trkpt lat="39.26307316887275" lon="9.245843517679484"><ele>47.0</ele><time>2026-04-30T10:58:27.996Z</time></trkpt><trkpt lat="39.26310924652724" lon="9.246113706942518"><ele>48.0</ele><time>2026-04-30T10:58:28.996Z</time></trkpt><trkpt lat="39.263144767567034" lon="9.24638293545582"><ele>48.66666666666667</ele><time>2026-04-30T10:58:29.996Z</time></trkpt><trkpt lat="39.26318134599726" lon="9.246657221434551"><ele>49.333333333333336</ele><time>2026-04-30T10:58:30.996Z</time></trkpt><trkpt lat="39.26321523791352" lon="9.246937642806996"><ele>50.0</ele><time>2026-04-30T10:58:31.996Z</time></trkpt><trkpt lat="39.26324128535196" lon="9.247221523215627"><ele>49.66666666666667</ele><time>2026-04-30T10:58:32.996Z</time></trkpt><trkpt lat="39.26325664642007" lon="9.247500317154387"><ele>49.33333333333333</ele><time>2026-04-30T10:58:33.996Z</time></trkpt><trkpt lat="39.263251229261" lon="9.247776701129087"><ele>49.0</ele><time>2026-04-30T10:58:34.996Z</time></trkpt><trkpt lat="39.263217984989716" lon="9.248048909667194"><ele>49.0</ele><time>2026-04-30T10:58:35.996Z</time></trkpt><trkpt lat="39.26316370866513" lon="9.248309473382884"><ele>49.0</ele><time>2026-04-30T10:58:36.996Z</time></trkpt><trkpt lat="39.263098233534556" lon="9.248573943270568"><ele>49.0</ele><time>2026-04-30T10:58:37.996Z</time></trkpt><trkpt lat="39.2630336805249" lon="9.248844933049657"><ele>50.0</ele><time>2026-04-30T10:58:38.996Z</time></trkpt><trkpt lat="39.262972096623294" lon="9.249119794911214"><ele>51.0</ele><time>2026-04-30T10:58:39.996Z</time></trkpt><trkpt lat="39.26291021295832" lon="9.249394270703375"><ele>52.0</ele><time>2026-04-30T10:58:40.996Z</time></trkpt><trkpt lat="39.26284627225711" lon="9.249671849602727"><ele>54.0</ele><time>2026-04-30T10:58:41.996Z</time></trkpt><trkpt lat="39.262781718155196" lon="9.249942316759917"><ele>56.0</ele><time>2026-04-30T10:58:42.996Z</time></trkpt><trkpt lat="39.262720324724626" lon="9.250215646001875"><ele>58.0</ele><time>2026-04-30T10:58:43.996Z</time></trkpt><trkpt lat="39.262657769499654" lon="9.250486688034517"><ele>58.0</ele><time>2026-04-30T10:58:44.996Z</time></trkpt><trkpt lat="39.26259666333951" lon="9.250753357863534"><ele>58.0</ele><time>2026-04-30T10:58:45.996Z</time></trkpt><trkpt lat="39.262535099053586" lon="9.251019383457306"><ele>58.0</ele><time>2026-04-30T10:58:46.996Z</time></trkpt><trkpt lat="39.26245945896959" lon="9.251281131615134"><ele>58.0</ele><time>2026-04-30T10:58:47.996Z</time></trkpt><trkpt lat="39.26236073505825" lon="9.251525560144282"><ele>58.0</ele><time>2026-04-30T10:58:48.996Z</time></trkpt><trkpt lat="39.26223636407578" lon="9.251750818837085"><ele>58.0</ele><time>2026-04-30T10:58:49.996Z</time></trkpt><trkpt lat="39.26208968664283" lon="9.251956970985304"><ele>59.666666666666664</ele><time>2026-04-30T10:58:50.996Z</time></trkpt><trkpt lat="39.26193174352467" lon="9.25214641181475"><ele>61.33333333333333</ele><time>2026-04-30T10:58:51.996Z</time></trkpt><trkpt lat="39.261763530232066" lon="9.25233225721762"><ele>63.0</ele><time>2026-04-30T10:58:52.996Z</time></trkpt><trkpt lat="39.26159808229727" lon="9.252524845894554"><ele>62.66666666666667</ele><time>2026-04-30T10:58:53.996Z</time></trkpt><trkpt lat="39.26143370368651" lon="9.252714915616084"><ele>62.333333333333336</ele><time>2026-04-30T10:58:54.996Z</time></trkpt><trkpt lat="39.261276707418574" lon="9.25289704375609"><ele>62.0</ele><time>2026-04-30T10:58:55.996Z</time></trkpt><trkpt lat="39.26112271634713" lon="9.25307534835914"><ele>64.0</ele><time>2026-04-30T10:58:56.996Z</time></trkpt><trkpt lat="39.2609781910958" lon="9.2532433124594"><ele>66.0</ele><time>2026-04-30T10:58:57.996Z</time></trkpt><trkpt lat="39.26082369799848" lon="9.253419870952095"><ele>68.0</ele><time>2026-04-30T10:58:58.996Z</time></trkpt><trkpt lat="39.26067148550433" lon="9.25359857103449"><ele>68.33333333333334</ele><time>2026-04-30T10:58:59.996Z</time></trkpt><trkpt lat="39.26052173632492" lon="9.25377042531767"><ele>68.66666666666667</ele><time>2026-04-30T10:59:00.996Z</time></trkpt><trkpt lat="39.26037714393448" lon="9.25394106915578"><ele>69.0</ele><time>2026-04-30T10:59:01.996Z</time></trkpt><trkpt lat="39.26024509736532" lon="9.25411053140646"><ele>69.0</ele><time>2026-04-30T10:59:02.996Z</time></trkpt><trkpt lat="39.26011598237445" lon="9.254279187466713"><ele>69.0</ele><time>2026-04-30T10:59:03.996Z</time></trkpt><trkpt lat="39.25999830726269" lon="9.254448202819868"><ele>69.0</ele><time>2026-04-30T10:59:04.996Z</time></trkpt><trkpt lat="39.25989194142447" lon="9.254618901658514"><ele>69.33333333333333</ele><time>2026-04-30T10:59:05.996Z</time></trkpt><trkpt lat="39.25980099304491" lon="9.25480286627146"><ele>69.66666666666666</ele><time>2026-04-30T10:59:06.996Z</time></trkpt><trkpt lat="39.25972712070574" lon="9.254984595969482"><ele>70.0</ele><time>2026-04-30T10:59:07.996Z</time></trkpt><trkpt lat="39.259667747315" lon="9.255165595952642"><ele>70.0</ele><time>2026-04-30T10:59:08.996Z</time></trkpt><trkpt lat="39.259625328228964" lon="9.25535074593966"><ele>70.0</ele><time>2026-04-30T10:59:09.996Z</time></trkpt><trkpt lat="39.259580794482645" lon="9.255543060325026"><ele>70.0</ele><time>2026-04-30T10:59:10.996Z</time></trkpt><trkpt lat="39.25953293934204" lon="9.25573989909755"><ele>70.33333333333333</ele><time>2026-04-30T10:59:11.996Z</time></trkpt><trkpt lat="39.259482320812566" lon="9.255933034732154"><ele>70.66666666666667</ele><time>2026-04-30T10:59:12.996Z</time></trkpt><trkpt lat="39.259428224051916" lon="9.256134253623179"><ele>71.0</ele><time>2026-04-30T10:59:13.996Z</time></trkpt><trkpt lat="39.25937760016822" lon="9.25634193102912"><ele>71.33333333333334</ele><time>2026-04-30T10:59:14.996Z</time></trkpt><trkpt lat="39.25932669003116" lon="9.256552634767868"><ele>71.66666666666667</ele><time>2026-04-30T10:59:15.996Z</time></trkpt><trkpt lat="39.25927376159554" lon="9.256768750226989"><ele>72.0</ele><time>2026-04-30T10:59:16.996Z</time></trkpt><trkpt lat="39.25922761900502" lon="9.256985766179275"><ele>72.0</ele><time>2026-04-30T10:59:17.996Z</time></trkpt><trkpt lat="39.25917630760404" lon="9.257210105251076"><ele>72.0</ele><time>2026-04-30T10:59:18.996Z</time></trkpt><trkpt lat="39.259123888850205" lon="9.257438859138738"><ele>72.0</ele><time>2026-04-30T10:59:19.996Z</time></trkpt><trkpt lat="39.25906874695137" lon="9.257669328359263"><ele>72.66666666666667</ele><time>2026-04-30T10:59:20.996Z</time></trkpt><trkpt lat="39.25902273198456" lon="9.257898133568249"><ele>73.33333333333334</ele><time>2026-04-30T10:59:21.996Z</time></trkpt><trkpt lat="39.258986120226155" lon="9.258123654126285"><ele>74.0</ele><time>2026-04-30T10:59:22.996Z</time></trkpt><trkpt lat="39.25896601986908" lon="9.25833830514044"><ele>74.0</ele><time>2026-04-30T10:59:23.996Z</time></trkpt><trkpt lat="39.25896230137716" lon="9.258539280905051"><ele>74.0</ele><time>2026-04-30T10:59:24.996Z</time></trkpt><trkpt lat="39.25896134243214" lon="9.258731702940459"><ele>74.0</ele><time>2026-04-30T10:59:25.996Z</time></trkpt><trkpt lat="39.25895911143606" lon="9.258919470215972"><ele>73.33333333333334</ele><time>2026-04-30T10:59:26.996Z</time></trkpt><trkpt lat="39.258963711794614" lon="9.259116533307486"><ele>72.66666666666667</ele><time>2026-04-30T10:59:27.996Z</time></trkpt><trkpt lat="39.2589700324317" lon="9.259327889171033"><ele>72.0</ele><time>2026-04-30T10:59:28.996Z</time></trkpt><trkpt lat="39.25896624369575" lon="9.259550465695872"><ele>71.33333333333333</ele><time>2026-04-30T10:59:29.996Z</time></trkpt><trkpt lat="39.258966631873975" lon="9.259793309552014"><ele>70.66666666666666</ele><time>2026-04-30T10:59:30.996Z</time></trkpt><trkpt lat="39.258969771419395" lon="9.260042313638845"><ele>70.0</ele><time>2026-04-30T10:59:31.996Z</time></trkpt><trkpt lat="39.2589832732673" lon="9.260238781351003"><ele>70.0</ele><time>2026-04-30T10:59:32.996Z</time></trkpt><trkpt lat="39.25898175011404" lon="9.260402768624813"><ele>70.0</ele><time>2026-04-30T10:59:33.996Z</time></trkpt><trkpt lat="39.25900133384934" lon="9.26058294319831"><ele>70.0</ele><time>2026-04-30T10:59:34.996Z</time></trkpt><trkpt lat="39.25904648185733" lon="9.26079565270372"><ele>70.0</ele><time>2026-04-30T10:59:35.996Z</time></trkpt><trkpt lat="39.25907226252041" lon="9.261020177592924"><ele>69.66666666666666</ele><time>2026-04-30T10:59:36.996Z</time></trkpt><trkpt lat="39.25908797641178" lon="9.261249441650659"><ele>69.33333333333333</ele><time>2026-04-30T10:59:37.996Z</time></trkpt><trkpt lat="39.25910120035866" lon="9.261487185496147"><ele>69.0</ele><time>2026-04-30T10:59:38.996Z</time></trkpt><trkpt lat="39.259113994438714" lon="9.26172972629184"><ele>68.0</ele><time>2026-04-30T10:59:39.996Z</time></trkpt><trkpt lat="39.25912814109484" lon="9.26197671978038"><ele>67.0</ele><time>2026-04-30T10:59:40.996Z</time></trkpt><trkpt lat="39.25913985616915" lon="9.262224737085688"><ele>66.0</ele><time>2026-04-30T10:59:41.996Z</time></trkpt><trkpt lat="39.259147037703855" lon="9.262483401552998"><ele>65.66666666666667</ele><time>2026-04-30T10:59:42.996Z</time></trkpt><trkpt lat="39.25915762961939" lon="9.262742810172822"><ele>65.33333333333334</ele><time>2026-04-30T10:59:43.996Z</time></trkpt><trkpt lat="39.25917216180346" lon="9.262999682126273"><ele>65.0</ele><time>2026-04-30T10:59:44.995Z</time></trkpt><trkpt lat="39.2591869004397" lon="9.263258310707075"><ele>65.0</ele><time>2026-04-30T10:59:45.995Z</time></trkpt><trkpt lat="39.25921286355147" lon="9.263514376233136"><ele>65.0</ele><time>2026-04-30T10:59:46.995Z</time></trkpt><trkpt lat="39.25923896798008" lon="9.26377083001299"><ele>65.0</ele><time>2026-04-30T10:59:47.995Z</time></trkpt><trkpt lat="39.2592565844285" lon="9.2640251506133"><ele>64.33333333333334</ele><time>2026-04-30T10:59:48.995Z</time></trkpt><trkpt lat="39.25926988328566" lon="9.264258913674661"><ele>63.66666666666667</ele><time>2026-04-30T10:59:49.995Z</time></trkpt><trkpt lat="39.2592802131494" lon="9.264483113349845"><ele>63.0</ele><time>2026-04-30T10:59:50.995Z</time></trkpt><trkpt lat="39.25929054009134" lon="9.264698314665429"><ele>61.66666666666667</ele><time>2026-04-30T10:59:51.995Z</time></trkpt><trkpt lat="39.25930113116054" lon="9.264911236377756"><ele>60.333333333333336</ele><time>2026-04-30T10:59:52.995Z</time></trkpt><trkpt lat="39.259309200758715" lon="9.26513008742765"><ele>59.0</ele><time>2026-04-30T10:59:53.995Z</time></trkpt><trkpt lat="39.25932233895766" lon="9.26535531511675"><ele>59.0</ele><time>2026-04-30T10:59:54.995Z</time></trkpt><trkpt lat="39.25933062875724" lon="9.265584162177179"><ele>59.0</ele><time>2026-04-30T10:59:55.995Z</time></trkpt><trkpt lat="39.25934217711032" lon="9.265818789311266"><ele>59.0</ele><time>2026-04-30T10:59:56.995Z</time></trkpt><trkpt lat="39.25935301072131" lon="9.266055741272202"><ele>58.333333333333336</ele><time>2026-04-30T10:59:57.995Z</time></trkpt><trkpt lat="39.259364033310945" lon="9.266297569275729"><ele>57.66666666666667</ele><time>2026-04-30T10:59:58.995Z</time></trkpt><trkpt lat="39.25937677340267" lon="9.266547291248031"><ele>57.0</ele><time>2026-04-30T10:59:59.995Z</time></trkpt><trkpt lat="39.25938850674208" lon="9.266797006192798"><ele>56.0</ele><time>2026-04-30T11:00:00.995Z</time></trkpt><trkpt lat="39.25940140182603" lon="9.26705168522275"><ele>55.0</ele><time>2026-04-30T11:00:01.995Z</time></trkpt><trkpt lat="39.25941306280654" lon="9.267304870216398"><ele>54.0</ele><time>2026-04-30T11:00:02.995Z</time></trkpt><trkpt lat="39.259427208908185" lon="9.267560390189121"><ele>53.33333333333333</ele><time>2026-04-30T11:00:03.995Z</time></trkpt><trkpt lat="39.259438251554734" lon="9.267816918448442"><ele>52.666666666666664</ele><time>2026-04-30T11:00:04.995Z</time></trkpt><trkpt lat="39.25945037058352" lon="9.268079065041452"><ele>52.0</ele><time>2026-04-30T11:00:05.995Z</time></trkpt><trkpt lat="39.259461358764476" lon="9.268352506656083"><ele>52.0</ele><time>2026-04-30T11:00:06.995Z</time></trkpt><trkpt lat="39.2594723269332" lon="9.268619336394975"><ele>52.0</ele><time>2026-04-30T11:00:07.995Z</time></trkpt><trkpt lat="39.25948508272855" lon="9.268887074648353"><ele>52.0</ele><time>2026-04-30T11:00:08.995Z</time></trkpt><trkpt lat="39.25950422693449" lon="9.269153701713824"><ele>52.33333333333333</ele><time>2026-04-30T11:00:09.995Z</time></trkpt><trkpt lat="39.259519245857426" lon="9.269420940738772"><ele>52.66666666666667</ele><time>2026-04-30T11:00:10.995Z</time></trkpt><trkpt lat="39.25953722039245" lon="9.26968713762068"><ele>53.0</ele><time>2026-04-30T11:00:11.995Z</time></trkpt><trkpt lat="39.25955298670598" lon="9.269956066778331"><ele>53.0</ele><time>2026-04-30T11:00:12.995Z</time></trkpt><trkpt lat="39.25956585292145" lon="9.270226978649475"><ele>53.0</ele><time>2026-04-30T11:00:13.995Z</time></trkpt><trkpt lat="39.25957917411755" lon="9.270498981923973"><ele>53.0</ele><time>2026-04-30T11:00:14.995Z</time></trkpt><trkpt lat="39.259594628316925" lon="9.270772598192854"><ele>52.66666666666667</ele><time>2026-04-30T11:00:15.995Z</time></trkpt><trkpt lat="39.25960601877287" lon="9.271044197398854"><ele>52.33333333333333</ele><time>2026-04-30T11:00:16.995Z</time></trkpt><trkpt lat="39.25962020622353" lon="9.271316760126203"><ele>52.0</ele><time>2026-04-30T11:00:17.995Z</time></trkpt><trkpt lat="39.25963230820301" lon="9.271587048993933"><ele>52.666666666666664</ele><time>2026-04-30T11:00:18.995Z</time></trkpt><trkpt lat="39.2596473058487" lon="9.271858067790811"><ele>53.33333333333333</ele><time>2026-04-30T11:00:19.995Z</time></trkpt><trkpt lat="39.25966142471805" lon="9.272128550427244"><ele>54.0</ele><time>2026-04-30T11:00:20.995Z</time></trkpt><trkpt lat="39.25967692489603" lon="9.272399963180607"><ele>54.0</ele><time>2026-04-30T11:00:21.995Z</time></trkpt><trkpt lat="39.259693194039464" lon="9.27267079603579"><ele>54.0</ele><time>2026-04-30T11:00:22.995Z</time></trkpt><trkpt lat="39.25970716742707" lon="9.272937404995645"><ele>54.0</ele><time>2026-04-30T11:00:23.995Z</time></trkpt><trkpt lat="39.259719860022386" lon="9.273203548345816"><ele>54.0</ele><time>2026-04-30T11:00:24.995Z</time></trkpt><trkpt lat="39.25973110906245" lon="9.27347046771875"><ele>54.0</ele><time>2026-04-30T11:00:25.995Z</time></trkpt><trkpt lat="39.25974410847844" lon="9.27373441041989"><ele>54.0</ele><time>2026-04-30T11:00:26.995Z</time></trkpt><trkpt lat="39.259758731069596" lon="9.274001360918314"><ele>54.0</ele><time>2026-04-30T11:00:27.995Z</time></trkpt><trkpt lat="39.25977199874668" lon="9.274266995769207"><ele>54.0</ele><time>2026-04-30T11:00:28.995Z</time></trkpt><trkpt lat="39.259784348244274" lon="9.274529603012324"><ele>54.0</ele><time>2026-04-30T11:00:29.995Z</time></trkpt><trkpt lat="39.259797341761214" lon="9.274795030968264"><ele>54.0</ele><time>2026-04-30T11:00:30.995Z</time></trkpt><trkpt lat="39.25981045641786" lon="9.275062484870414"><ele>54.0</ele><time>2026-04-30T11:00:31.995Z</time></trkpt><trkpt lat="39.259820945852496" lon="9.275331099382619"><ele>54.0</ele><time>2026-04-30T11:00:32.995Z</time></trkpt><trkpt lat="39.25983815880576" lon="9.275594309877606"><ele>54.0</ele><time>2026-04-30T11:00:33.995Z</time></trkpt><trkpt lat="39.259847528666945" lon="9.275860379582832"><ele>54.0</ele><time>2026-04-30T11:00:34.995Z</time></trkpt><trkpt lat="39.259863998072824" lon="9.276126854997019"><ele>54.0</ele><time>2026-04-30T11:00:35.995Z</time></trkpt><trkpt lat="39.2598798598319" lon="9.276393868433901"><ele>53.66666666666667</ele><time>2026-04-30T11:00:36.995Z</time></trkpt><trkpt lat="39.25989403874989" lon="9.276662259278217"><ele>53.333333333333336</ele><time>2026-04-30T11:00:37.995Z</time></trkpt><trkpt lat="39.25990975550049" lon="9.276931071702787"><ele>53.0</ele><time>2026-04-30T11:00:38.995Z</time></trkpt><trkpt lat="39.259923119632006" lon="9.277202001366112"><ele>52.333333333333336</ele><time>2026-04-30T11:00:39.995Z</time></trkpt><trkpt lat="39.259936809952016" lon="9.277470575288442"><ele>51.66666666666667</ele><time>2026-04-30T11:00:40.995Z</time></trkpt><trkpt lat="39.25994862491682" lon="9.277735514154376"><ele>51.0</ele><time>2026-04-30T11:00:41.995Z</time></trkpt><trkpt lat="39.25995968533439" lon="9.278000821848758"><ele>50.33333333333333</ele><time>2026-04-30T11:00:42.995Z</time></trkpt><trkpt lat="39.25997255711553" lon="9.27826755708185"><ele>49.666666666666664</ele><time>2026-04-30T11:00:43.995Z</time></trkpt><trkpt lat="39.259985748426686" lon="9.278538398589836"><ele>49.0</ele><time>2026-04-30T11:00:44.995Z</time></trkpt><trkpt lat="39.25999889678733" lon="9.27880669362222"><ele>49.0</ele><time>2026-04-30T11:00:45.995Z</time></trkpt><trkpt lat="39.260016803253365" lon="9.279077816402038"><ele>49.0</ele><time>2026-04-30T11:00:46.995Z</time></trkpt><trkpt lat="39.26003397240756" lon="9.279349569871252"><ele>49.0</ele><time>2026-04-30T11:00:47.995Z</time></trkpt><trkpt lat="39.26004707453447" lon="9.279619809903117"><ele>49.666666666666664</ele><time>2026-04-30T11:00:48.995Z</time></trkpt><trkpt lat="39.260063690421724" lon="9.279886615315776"><ele>50.33333333333333</ele><time>2026-04-30T11:00:49.995Z</time></trkpt><trkpt lat="39.26007160960105" lon="9.280146975759404"><ele>51.0</ele><time>2026-04-30T11:00:50.995Z</time></trkpt><trkpt lat="39.26006702891213" lon="9.280390058151"><ele>52.33333333333333</ele><time>2026-04-30T11:00:51.995Z</time></trkpt><trkpt lat="39.26002287769447" lon="9.280631229921257"><ele>53.666666666666664</ele><time>2026-04-30T11:00:52.995Z</time></trkpt><trkpt lat="39.25994589422998" lon="9.28085225292321"><ele>55.0</ele><time>2026-04-30T11:00:53.995Z</time></trkpt><trkpt lat="39.25983998769524" lon="9.28106414101575"><ele>54.33333333333333</ele><time>2026-04-30T11:00:54.995Z</time></trkpt><trkpt lat="39.25972547244142" lon="9.281247056955287"><ele>53.66666666666667</ele><time>2026-04-30T11:00:55.995Z</time></trkpt><trkpt lat="39.259602757908446" lon="9.28143110279143"><ele>53.0</ele><time>2026-04-30T11:00:56.995Z</time></trkpt><trkpt lat="39.259499723775455" lon="9.281626275865305"><ele>54.333333333333336</ele><time>2026-04-30T11:00:57.995Z</time></trkpt><trkpt lat="39.25943826750923" lon="9.281838916990441"><ele>55.66666666666667</ele><time>2026-04-30T11:00:58.995Z</time></trkpt><trkpt lat="39.259419429601174" lon="9.282039323078113"><ele>57.0</ele><time>2026-04-30T11:00:59.995Z</time></trkpt><trkpt lat="39.259420437755914" lon="9.282248942145237"><ele>58.33333333333333</ele><time>2026-04-30T11:01:00.995Z</time></trkpt><trkpt lat="39.259452758933755" lon="9.282456173491964"><ele>59.666666666666664</ele><time>2026-04-30T11:01:01.995Z</time></trkpt><trkpt lat="39.25950129693893" lon="9.282664950857987"><ele>61.0</ele><time>2026-04-30T11:01:02.995Z</time></trkpt><trkpt lat="39.25955426876321" lon="9.28287640155508"><ele>61.0</ele><time>2026-04-30T11:01:03.995Z</time></trkpt><trkpt lat="39.259614531764775" lon="9.283090437096078"><ele>61.0</ele><time>2026-04-30T11:01:04.995Z</time></trkpt><trkpt lat="39.259668599076306" lon="9.2833157197631"><ele>61.0</ele><time>2026-04-30T11:01:05.995Z</time></trkpt><trkpt lat="39.25972534669458" lon="9.283549071151226"><ele>62.0</ele><time>2026-04-30T11:01:06.995Z</time></trkpt><trkpt lat="39.25978432603288" lon="9.28378455536384"><ele>63.0</ele><time>2026-04-30T11:01:07.995Z</time></trkpt><trkpt lat="39.259840008661826" lon="9.284023873952087"><ele>64.0</ele><time>2026-04-30T11:01:08.995Z</time></trkpt><trkpt lat="39.259899830042485" lon="9.284267353512925"><ele>65.33333333333333</ele><time>2026-04-30T11:01:09.995Z</time></trkpt><trkpt lat="39.2599606690391" lon="9.284512471151933"><ele>66.66666666666667</ele><time>2026-04-30T11:01:10.995Z</time></trkpt><trkpt lat="39.260021833740694" lon="9.284760155025225"><ele>68.0</ele><time>2026-04-30T11:01:11.995Z</time></trkpt><trkpt lat="39.2600829650813" lon="9.285008909789198"><ele>68.0</ele><time>2026-04-30T11:01:12.995Z</time></trkpt><trkpt lat="39.26014574379288" lon="9.285256913201895"><ele>68.0</ele><time>2026-04-30T11:01:13.995Z</time></trkpt><trkpt lat="39.26020831456262" lon="9.285505017194586"><ele>68.0</ele><time>2026-04-30T11:01:14.995Z</time></trkpt><trkpt lat="39.26026968558376" lon="9.285753831166888"><ele>68.33333333333334</ele><time>2026-04-30T11:01:15.995Z</time></trkpt><trkpt lat="39.26032735276923" lon="9.286003303248187"><ele>68.66666666666667</ele><time>2026-04-30T11:01:16.995Z</time></trkpt><trkpt lat="39.26038585308094" lon="9.286247524583104"><ele>69.0</ele><time>2026-04-30T11:01:17.995Z</time></trkpt><trkpt lat="39.26044732690724" lon="9.286487152534667"><ele>69.0</ele><time>2026-04-30T11:01:18.995Z</time></trkpt><trkpt lat="39.260496020241916" lon="9.286731511091693"><ele>69.0</ele><time>2026-04-30T11:01:19.995Z</time></trkpt><trkpt lat="39.2605198143356" lon="9.286980854043845"><ele>69.0</ele><time>2026-04-30T11:01:20.995Z</time></trkpt><trkpt lat="39.26051397223094" lon="9.287230802524306"><ele>68.33333333333333</ele><time>2026-04-30T11:01:21.995Z</time></trkpt><trkpt lat="39.26048231989872" lon="9.287486184352"><ele>67.66666666666666</ele><time>2026-04-30T11:01:22.995Z</time></trkpt><trkpt lat="39.26043939679684" lon="9.287741348205047"><ele>67.0</ele><time>2026-04-30T11:01:23.995Z</time></trkpt><trkpt lat="39.26039629884947" lon="9.288001706339507"><ele>67.33333333333333</ele><time>2026-04-30T11:01:24.995Z</time></trkpt><trkpt lat="39.26035488995937" lon="9.288269642218996"><ele>67.66666666666667</ele><time>2026-04-30T11:01:25.995Z</time></trkpt><trkpt lat="39.26031595956292" lon="9.288543143141048"><ele>68.0</ele><time>2026-04-30T11:01:26.995Z</time></trkpt><trkpt lat="39.260275299930846" lon="9.288821222636482"><ele>68.33333333333334</ele><time>2026-04-30T11:01:27.995Z</time></trkpt><trkpt lat="39.26023233370881" lon="9.28910229470653"><ele>68.66666666666667</ele><time>2026-04-30T11:01:28.995Z</time></trkpt><trkpt lat="39.26018823148585" lon="9.289375266793877"><ele>69.0</ele><time>2026-04-30T11:01:29.995Z</time></trkpt><trkpt lat="39.26014588134067" lon="9.28964643393996"><ele>69.66666666666667</ele><time>2026-04-30T11:01:30.995Z</time></trkpt><trkpt lat="39.26010800081467" lon="9.289910544003448"><ele>70.33333333333334</ele><time>2026-04-30T11:01:31.995Z</time></trkpt><trkpt lat="39.26007236946665" lon="9.290175603581227"><ele>71.0</ele><time>2026-04-30T11:01:32.995Z</time></trkpt><trkpt lat="39.26005339729587" lon="9.290444223556747"><ele>70.66666666666667</ele><time>2026-04-30T11:01:33.995Z</time></trkpt><trkpt lat="39.260054485949674" lon="9.290710248721643"><ele>70.33333333333333</ele><time>2026-04-30T11:01:34.995Z</time></trkpt><trkpt lat="39.260073628577715" lon="9.290976750928676"><ele>70.0</ele><time>2026-04-30T11:01:35.995Z</time></trkpt><trkpt lat="39.260107891418315" lon="9.291248424684033"><ele>69.0</ele><time>2026-04-30T11:01:36.995Z</time></trkpt><trkpt lat="39.26015260032071" lon="9.291524986496382"><ele>68.0</ele><time>2026-04-30T11:01:37.995Z</time></trkpt><trkpt lat="39.260201310522774" lon="9.291806385904273"><ele>67.0</ele><time>2026-04-30T11:01:38.995Z</time></trkpt><trkpt lat="39.26025413733604" lon="9.292093160722747"><ele>65.5</ele><time>2026-04-30T11:01:39.995Z</time></trkpt><trkpt lat="39.260303792171264" lon="9.292382892408538"><ele>64.0</ele><time>2026-04-30T11:01:40.995Z</time></trkpt><trkpt lat="39.26036023696509" lon="9.292675839154718"><ele>64.0</ele><time>2026-04-30T11:01:41.995Z</time></trkpt><trkpt lat="39.2604128830926" lon="9.292962517517818"><ele>64.0</ele><time>2026-04-30T11:01:42.995Z</time></trkpt><trkpt lat="39.26045929796139" lon="9.293237142634315"><ele>64.0</ele><time>2026-04-30T11:01:43.995Z</time></trkpt><trkpt lat="39.260501060622936" lon="9.293515191271435"><ele>64.0</ele><time>2026-04-30T11:01:44.995Z</time></trkpt><trkpt lat="39.2605356215857" lon="9.29379062728986"><ele>64.0</ele><time>2026-04-30T11:01:45.995Z</time></trkpt><trkpt lat="39.2605815725131" lon="9.294061489246605"><ele>64.0</ele><time>2026-04-30T11:01:46.995Z</time></trkpt><trkpt lat="39.26062204057718" lon="9.294335842039116"><ele>65.0</ele><time>2026-04-30T11:01:47.995Z</time></trkpt><trkpt lat="39.26066610587736" lon="9.294606512592503"><ele>66.0</ele><time>2026-04-30T11:01:48.995Z</time></trkpt><trkpt lat="39.260712435817226" lon="9.294874398017917"><ele>67.0</ele><time>2026-04-30T11:01:49.995Z</time></trkpt><trkpt lat="39.26075445095694" lon="9.295148773670682"><ele>67.0</ele><time>2026-04-30T11:01:50.995Z</time></trkpt><trkpt lat="39.26079889145202" lon="9.295421990897669"><ele>67.0</ele><time>2026-04-30T11:01:51.995Z</time></trkpt><trkpt lat="39.26083720781193" lon="9.29569772558531"><ele>67.0</ele><time>2026-04-30T11:01:52.995Z</time></trkpt><trkpt lat="39.26087712545114" lon="9.295966503556194"><ele>67.0</ele><time>2026-04-30T11:01:53.995Z</time></trkpt><trkpt lat="39.26091746850095" lon="9.296236501528625"><ele>67.0</ele><time>2026-04-30T11:01:54.995Z</time></trkpt><trkpt lat="39.26095403867142" lon="9.296504249697765"><ele>67.0</ele><time>2026-04-30T11:01:55.995Z</time></trkpt><trkpt lat="39.2609904305193" lon="9.296772563954987"><ele>66.66666666666666</ele><time>2026-04-30T11:01:56.995Z</time></trkpt><trkpt lat="39.26103057037475" lon="9.297035489801482"><ele>66.33333333333333</ele><time>2026-04-30T11:01:57.995Z</time></trkpt><trkpt lat="39.2610728048364" lon="9.297297111119212"><ele>66.0</ele><time>2026-04-30T11:01:58.995Z</time></trkpt><trkpt lat="39.261115021231774" lon="9.297558644184281"><ele>66.0</ele><time>2026-04-30T11:01:59.994Z</time></trkpt><trkpt lat="39.26115614009448" lon="9.297814420096548"><ele>66.0</ele><time>2026-04-30T11:02:00.994Z</time></trkpt><trkpt lat="39.26120177427393" lon="9.298066197923022"><ele>66.0</ele><time>2026-04-30T11:02:01.994Z</time></trkpt><trkpt lat="39.26124627872501" lon="9.298323588239306"><ele>65.0</ele><time>2026-04-30T11:02:02.994Z</time></trkpt><trkpt lat="39.26129469844688" lon="9.29858227231231"><ele>64.0</ele><time>2026-04-30T11:02:03.994Z</time></trkpt><trkpt lat="39.26135932209898" lon="9.298835545897695"><ele>63.0</ele><time>2026-04-30T11:02:04.994Z</time></trkpt><trkpt lat="39.26144772201553" lon="9.299077846156822"><ele>62.66666666666667</ele><time>2026-04-30T11:02:05.994Z</time></trkpt><trkpt lat="39.261562119806264" lon="9.29931117520861"><ele>62.333333333333336</ele><time>2026-04-30T11:02:06.994Z</time></trkpt><trkpt lat="39.261687907093986" lon="9.29953742474112"><ele>62.0</ele><time>2026-04-30T11:02:07.994Z</time></trkpt><trkpt lat="39.26181632018922" lon="9.299760041950979"><ele>61.0</ele><time>2026-04-30T11:02:08.994Z</time></trkpt><trkpt lat="39.26194038919409" lon="9.299984360186922"><ele>60.0</ele><time>2026-04-30T11:02:09.994Z</time></trkpt><trkpt lat="39.262063496835346" lon="9.300211933194825"><ele>59.0</ele><time>2026-04-30T11:02:10.994Z</time></trkpt><trkpt lat="39.262186115236354" lon="9.30043497341711"><ele>60.66666666666667</ele><time>2026-04-30T11:02:11.994Z</time></trkpt><trkpt lat="39.26231157274706" lon="9.30066126968091"><ele>62.33333333333333</ele><time>2026-04-30T11:02:12.994Z</time></trkpt><trkpt lat="39.262436746783195" lon="9.300892727542362"><ele>64.0</ele><time>2026-04-30T11:02:13.994Z</time></trkpt><trkpt lat="39.26256302522352" lon="9.301124488935837"><ele>64.0</ele><time>2026-04-30T11:02:14.994Z</time></trkpt><trkpt lat="39.26269142086655" lon="9.301353310854905"><ele>64.0</ele><time>2026-04-30T11:02:15.994Z</time></trkpt><trkpt lat="39.26281418049553" lon="9.30158050351013"><ele>64.0</ele><time>2026-04-30T11:02:16.994Z</time></trkpt><trkpt lat="39.262940929578036" lon="9.301804411081173"><ele>63.666666666666664</ele><time>2026-04-30T11:02:17.994Z</time></trkpt><trkpt lat="39.26306875759416" lon="9.302025199521129"><ele>63.33333333333333</ele><time>2026-04-30T11:02:18.994Z</time></trkpt><trkpt lat="39.263195502184786" lon="9.302244532383982"><ele>63.0</ele><time>2026-04-30T11:02:19.994Z</time></trkpt><trkpt lat="39.26331335542247" lon="9.302452523901792"><ele>61.0</ele><time>2026-04-30T11:02:20.994Z</time></trkpt><trkpt lat="39.263424173127454" lon="9.302657726913369"><ele>59.0</ele><time>2026-04-30T11:02:21.994Z</time></trkpt><trkpt lat="39.26353834007983" lon="9.30285728799916"><ele>57.0</ele><time>2026-04-30T11:02:22.994Z</time></trkpt><trkpt lat="39.26363933846095" lon="9.303067006388774"><ele>57.33333333333333</ele><time>2026-04-30T11:02:23.994Z</time></trkpt><trkpt lat="39.26370962838544" lon="9.303286015469101"><ele>57.666666666666664</ele><time>2026-04-30T11:02:24.994Z</time></trkpt><trkpt lat="39.26374264836375" lon="9.303514799291317"><ele>58.0</ele><time>2026-04-30T11:02:25.994Z</time></trkpt><trkpt lat="39.2637363929867" lon="9.303747325097206"><ele>57.666666666666664</ele><time>2026-04-30T11:02:26.994Z</time></trkpt><trkpt lat="39.26371858818871" lon="9.303983059681848"><ele>57.33333333333333</ele><time>2026-04-30T11:02:27.994Z</time></trkpt><trkpt lat="39.26370191934212" lon="9.304222634148278"><ele>57.0</ele><time>2026-04-30T11:02:28.994Z</time></trkpt><trkpt lat="39.263697522869805" lon="9.304455190455203"><ele>57.0</ele><time>2026-04-30T11:02:29.994Z</time></trkpt><trkpt lat="39.26372990088686" lon="9.304673407883628"><ele>57.0</ele><time>2026-04-30T11:02:30.994Z</time></trkpt><trkpt lat="39.26380320846822" lon="9.304862783401031"><ele>57.0</ele><time>2026-04-30T11:02:31.994Z</time></trkpt><trkpt lat="39.26391348123799" lon="9.305025323450998"><ele>57.33333333333333</ele><time>2026-04-30T11:02:32.994Z</time></trkpt><trkpt lat="39.264062191109616" lon="9.305158024909602"><ele>57.666666666666664</ele><time>2026-04-30T11:02:33.994Z</time></trkpt><trkpt lat="39.26422372571793" lon="9.305289957593043"><ele>58.0</ele><time>2026-04-30T11:02:34.994Z</time></trkpt><trkpt lat="39.26438561627855" lon="9.305435160451253"><ele>58.33333333333333</ele><time>2026-04-30T11:02:35.994Z</time></trkpt><trkpt lat="39.26454863332298" lon="9.30559013600814"><ele>58.66666666666667</ele><time>2026-04-30T11:02:36.994Z</time></trkpt><trkpt lat="39.26471828630283" lon="9.30574302010937"><ele>59.0</ele><time>2026-04-30T11:02:37.994Z</time></trkpt><trkpt lat="39.26489206303777" lon="9.30589949426152"><ele>59.0</ele><time>2026-04-30T11:02:38.994Z</time></trkpt><trkpt lat="39.26506507455593" lon="9.306062009455125"><ele>59.0</ele><time>2026-04-30T11:02:39.994Z</time></trkpt><trkpt lat="39.26524551816953" lon="9.306217439788506"><ele>59.0</ele><time>2026-04-30T11:02:40.994Z</time></trkpt><trkpt lat="39.26542985840047" lon="9.30637887569424"><ele>60.0</ele><time>2026-04-30T11:02:41.994Z</time></trkpt><trkpt lat="39.26561323710505" lon="9.306546924750208"><ele>61.0</ele><time>2026-04-30T11:02:42.994Z</time></trkpt><trkpt lat="39.26580037048655" lon="9.306720804482659"><ele>61.0</ele><time>2026-04-30T11:02:43.994Z</time></trkpt><trkpt lat="39.26598036160083" lon="9.306898208962421"><ele>61.0</ele><time>2026-04-30T11:02:44.994Z</time></trkpt><trkpt lat="39.26616363120414" lon="9.30707576491184"><ele>62.5</ele><time>2026-04-30T11:02:45.994Z</time></trkpt><trkpt lat="39.266355427716384" lon="9.307245252076994"><ele>64.0</ele><time>2026-04-30T11:02:46.994Z</time></trkpt><trkpt lat="39.26654790089891" lon="9.307418553362433"><ele>65.5</ele><time>2026-04-30T11:02:47.994Z</time></trkpt><trkpt lat="39.266746577415034" lon="9.307592022199188"><ele>67.0</ele><time>2026-04-30T11:02:48.994Z</time></trkpt><trkpt lat="39.266964392335886" lon="9.307748057538182"><ele>67.0</ele><time>2026-04-30T11:02:49.994Z</time></trkpt><trkpt lat="39.267184781094485" lon="9.307881735928126"><ele>67.0</ele><time>2026-04-30T11:02:50.994Z</time></trkpt><trkpt lat="39.26740669799557" lon="9.308004444138009"><ele>66.5</ele><time>2026-04-30T11:02:51.994Z</time></trkpt><trkpt lat="39.26762824611953" lon="9.30811265119864"><ele>66.0</ele><time>2026-04-30T11:02:52.994Z</time></trkpt><trkpt lat="39.26784257408235" lon="9.30821828279426"><ele>66.0</ele><time>2026-04-30T11:02:53.994Z</time></trkpt><trkpt lat="39.26805362257878" lon="9.308332502324173"><ele>66.0</ele><time>2026-04-30T11:02:54.994Z</time></trkpt><trkpt lat="39.26826144401127" lon="9.308453217376043"><ele>66.0</ele><time>2026-04-30T11:02:55.994Z</time></trkpt><trkpt lat="39.26846539675456" lon="9.30856927259231"><ele>66.0</ele><time>2026-04-30T11:02:56.994Z</time></trkpt><trkpt lat="39.26866668045342" lon="9.308676357468041"><ele>66.0</ele><time>2026-04-30T11:02:57.994Z</time></trkpt><trkpt lat="39.268876330763014" lon="9.30878175665575"><ele>66.33333333333333</ele><time>2026-04-30T11:02:58.994Z</time></trkpt><trkpt lat="39.26909066530838" lon="9.308875130598656"><ele>66.66666666666666</ele><time>2026-04-30T11:02:59.994Z</time></trkpt><trkpt lat="39.269304160732574" lon="9.308959636971188"><ele>67.0</ele><time>2026-04-30T11:03:00.994Z</time></trkpt><trkpt lat="39.269520548782914" lon="9.309045321152446"><ele>69.0</ele><time>2026-04-30T11:03:01.994Z</time></trkpt><trkpt lat="39.26973739679994" lon="9.30912315609798"><ele>71.0</ele><time>2026-04-30T11:03:02.994Z</time></trkpt><trkpt lat="39.26995659869876" lon="9.309199908096748"><ele>71.0</ele><time>2026-04-30T11:03:03.994Z</time></trkpt><trkpt lat="39.27017469837521" lon="9.30927049383659"><ele>71.0</ele><time>2026-04-30T11:03:04.994Z</time></trkpt><trkpt lat="39.270397825694864" lon="9.309340914449765"><ele>70.5</ele><time>2026-04-30T11:03:05.994Z</time></trkpt><trkpt lat="39.27061356283017" lon="9.30941744281561"><ele>70.0</ele><time>2026-04-30T11:03:06.994Z</time></trkpt><trkpt lat="39.27082750043583" lon="9.30951272847423"><ele>70.0</ele><time>2026-04-30T11:03:07.994Z</time></trkpt><trkpt lat="39.27102954369765" lon="9.30964037557975"><ele>70.0</ele><time>2026-04-30T11:03:08.994Z</time></trkpt><trkpt lat="39.27122217136875" lon="9.309786470506733"><ele>70.0</ele><time>2026-04-30T11:03:09.994Z</time></trkpt><trkpt lat="39.27139786966541" lon="9.309967429890234"><ele>72.5</ele><time>2026-04-30T11:03:10.994Z</time></trkpt><trkpt lat="39.271569146464245" lon="9.310161480809848"><ele>75.0</ele><time>2026-04-30T11:03:11.994Z</time></trkpt><trkpt lat="39.27173310838085" lon="9.310355054875105"><ele>75.0</ele><time>2026-04-30T11:03:12.994Z</time></trkpt><trkpt lat="39.27189799359557" lon="9.31054838928323"><ele>75.0</ele><time>2026-04-30T11:03:13.994Z</time></trkpt><trkpt lat="39.27206141731161" lon="9.31074406798368"><ele>75.0</ele><time>2026-04-30T11:03:14.994Z</time></trkpt><trkpt lat="39.27222555362321" lon="9.31094171446043"><ele>74.0</ele><time>2026-04-30T11:03:15.994Z</time></trkpt><trkpt lat="39.27238679390585" lon="9.311137304621706"><ele>73.0</ele><time>2026-04-30T11:03:16.994Z</time></trkpt><trkpt lat="39.27255204372611" lon="9.311314355353774"><ele>72.0</ele><time>2026-04-30T11:03:17.994Z</time></trkpt><trkpt lat="39.27271881897639" lon="9.311498668930366"><ele>73.0</ele><time>2026-04-30T11:03:18.994Z</time></trkpt><trkpt lat="39.272883056728375" lon="9.31168032415924"><ele>74.0</ele><time>2026-04-30T11:03:19.994Z</time></trkpt><trkpt lat="39.273047005858196" lon="9.31186727297078"><ele>75.0</ele><time>2026-04-30T11:03:20.994Z</time></trkpt><trkpt lat="39.27320114257836" lon="9.312069828239272"><ele>77.33333333333333</ele><time>2026-04-30T11:03:21.994Z</time></trkpt><trkpt lat="39.27335232794747" lon="9.312281775534922"><ele>79.66666666666666</ele><time>2026-04-30T11:03:22.994Z</time></trkpt><trkpt lat="39.27349962981495" lon="9.312494829029387"><ele>82.0</ele><time>2026-04-30T11:03:23.994Z</time></trkpt><trkpt lat="39.273646293361786" lon="9.312709801006113"><ele>82.0</ele><time>2026-04-30T11:03:24.994Z</time></trkpt><trkpt lat="39.273787651691336" lon="9.312937642144377"><ele>82.0</ele><time>2026-04-30T11:03:25.994Z</time></trkpt><trkpt lat="39.27391682201832" lon="9.313178084315297"><ele>80.0</ele><time>2026-04-30T11:03:26.994Z</time></trkpt><trkpt lat="39.274035350321185" lon="9.31342964856239"><ele>78.0</ele><time>2026-04-30T11:03:27.994Z</time></trkpt><trkpt lat="39.2741383113653" lon="9.313690959171995"><ele>81.0</ele><time>2026-04-30T11:03:28.994Z</time></trkpt><trkpt lat="39.27423356174274" lon="9.313947500903419"><ele>84.0</ele><time>2026-04-30T11:03:29.994Z</time></trkpt><trkpt lat="39.27433385948543" lon="9.314202951260278"><ele>87.0</ele><time>2026-04-30T11:03:30.994Z</time></trkpt><trkpt lat="39.2744466527973" lon="9.314458390760361"><ele>87.0</ele><time>2026-04-30T11:03:31.994Z</time></trkpt><trkpt lat="39.27457353467493" lon="9.314706566768448"><ele>87.0</ele><time>2026-04-30T11:03:32.994Z</time></trkpt><trkpt lat="39.27471634796548" lon="9.314950546245713"><ele>83.5</ele><time>2026-04-30T11:03:33.994Z</time></trkpt><trkpt lat="39.27487119806066" lon="9.315200487870811"><ele>80.0</ele><time>2026-04-30T11:03:34.994Z</time></trkpt><trkpt lat="39.27502547636975" lon="9.315438262013888"><ele>80.66666666666667</ele><time>2026-04-30T11:03:35.994Z</time></trkpt><trkpt lat="39.275184594467014" lon="9.315661812795403"><ele>81.33333333333333</ele><time>2026-04-30T11:03:36.994Z</time></trkpt><trkpt lat="39.27533325489266" lon="9.31585274954477"><ele>82.0</ele><time>2026-04-30T11:03:37.994Z</time></trkpt><trkpt lat="39.27549583149295" lon="9.316044562048505"><ele>81.66666666666666</ele><time>2026-04-30T11:03:38.994Z</time></trkpt><trkpt lat="39.27565923646344" lon="9.316250601825928"><ele>81.33333333333333</ele><time>2026-04-30T11:03:39.994Z</time></trkpt><trkpt lat="39.27581307632384" lon="9.316451064019658"><ele>81.0</ele><time>2026-04-30T11:03:40.994Z</time></trkpt><trkpt lat="39.275960807189314" lon="9.316673904495348"><ele>85.0</ele><time>2026-04-30T11:03:41.994Z</time></trkpt><trkpt lat="39.275509159365214" lon="9.317242839264086"><ele>84.33333333333333</ele><time>2026-04-30T11:03:42.994Z</time></trkpt><trkpt lat="39.27563268854002" lon="9.317480936237391"><ele>83.66666666666667</ele><time>2026-04-30T11:03:43.994Z</time></trkpt><trkpt lat="39.27574212611531" lon="9.31772659072358"><ele>83.0</ele><time>2026-04-30T11:03:44.994Z</time></trkpt><trkpt lat="39.27597963997883" lon="9.318222063115313"><ele>85.0</ele><time>2026-04-30T11:03:46.994Z</time></trkpt><trkpt lat="39.27609739025358" lon="9.318469322232525"><ele>87.0</ele><time>2026-04-30T11:03:47.994Z</time></trkpt><trkpt lat="39.276214931194346" lon="9.318717291116542"><ele>86.5</ele><time>2026-04-30T11:03:48.994Z</time></trkpt><trkpt lat="39.27633458473763" lon="9.318965044806623"><ele>86.0</ele><time>2026-04-30T11:03:49.994Z</time></trkpt><trkpt lat="39.27645759548969" lon="9.319208372095574"><ele>87.0</ele><time>2026-04-30T11:03:50.994Z</time></trkpt><trkpt lat="39.27657758394842" lon="9.319460094852136"><ele>88.0</ele><time>2026-04-30T11:03:51.994Z</time></trkpt><trkpt lat="39.27669318287962" lon="9.319708561376569"><ele>89.0</ele><time>2026-04-30T11:03:52.994Z</time></trkpt><trkpt lat="39.27680734097759" lon="9.319956632134243"><ele>90.0</ele><time>2026-04-30T11:03:53.994Z</time></trkpt><trkpt lat="39.2769244021574" lon="9.32019354662481"><ele>91.0</ele><time>2026-04-30T11:03:54.994Z</time></trkpt><trkpt lat="39.27703326148215" lon="9.320416139819752"><ele>90.66666666666666</ele><time>2026-04-30T11:03:55.994Z</time></trkpt><trkpt lat="39.27713583651901" lon="9.320623356341931"><ele>90.33333333333333</ele><time>2026-04-30T11:03:56.994Z</time></trkpt><trkpt lat="39.27722973096975" lon="9.320815679181989"><ele>90.0</ele><time>2026-04-30T11:03:57.994Z</time></trkpt><trkpt lat="39.27732033619666" lon="9.320997321759432"><ele>90.0</ele><time>2026-04-30T11:03:58.994Z</time></trkpt><trkpt lat="39.27740716953211" lon="9.321173774766635"><ele>90.0</ele><time>2026-04-30T11:03:59.994Z</time></trkpt><trkpt lat="39.277489433598745" lon="9.321350751427257"><ele>90.0</ele><time>2026-04-30T11:04:00.994Z</time></trkpt><trkpt lat="39.27757271302146" lon="9.321526422483366"><ele>91.0</ele><time>2026-04-30T11:04:01.994Z</time></trkpt><trkpt lat="39.27766325196847" lon="9.321702798367147"><ele>92.0</ele><time>2026-04-30T11:04:02.994Z</time></trkpt><trkpt lat="39.27775218997497" lon="9.32187594038961"><ele>93.0</ele><time>2026-04-30T11:04:03.994Z</time></trkpt><trkpt lat="39.27783925307373" lon="9.322055692291482"><ele>93.0</ele><time>2026-04-30T11:04:04.994Z</time></trkpt><trkpt lat="39.27792339272391" lon="9.322228614850339"><ele>93.0</ele><time>2026-04-30T11:04:05.994Z</time></trkpt><trkpt lat="39.278009189389245" lon="9.322407558487622"><ele>93.0</ele><time>2026-04-30T11:04:06.994Z</time></trkpt><trkpt lat="39.27810332106648" lon="9.322601343011227"><ele>93.0</ele><time>2026-04-30T11:04:07.994Z</time></trkpt><trkpt lat="39.278198044775365" lon="9.322802143340772"><ele>93.0</ele><time>2026-04-30T11:04:08.994Z</time></trkpt><trkpt lat="39.27829849217267" lon="9.323010304113303"><ele>93.0</ele><time>2026-04-30T11:04:09.994Z</time></trkpt><trkpt lat="39.27839668147079" lon="9.323222789512368"><ele>92.66666666666667</ele><time>2026-04-30T11:04:10.994Z</time></trkpt><trkpt lat="39.27850579128387" lon="9.323431104372167"><ele>92.33333333333334</ele><time>2026-04-30T11:04:11.994Z</time></trkpt><trkpt lat="39.27860802919354" lon="9.323639689628308"><ele>92.0</ele><time>2026-04-30T11:04:12.994Z</time></trkpt><trkpt lat="39.27868237783894" lon="9.323830320529053"><ele>92.83333333333334</ele><time>2026-04-30T11:04:13.994Z</time></trkpt><trkpt lat="39.27874358260443" lon="9.323980996803185"><ele>93.66666666666667</ele><time>2026-04-30T11:04:14.993Z</time></trkpt><trkpt lat="39.27880091544493" lon="9.324061253935072"><ele>94.5</ele><time>2026-04-30T11:04:15.993Z</time></trkpt><trkpt lat="39.27884950640055" lon="9.324146962287232"><ele>95.33333333333334</ele><time>2026-04-30T11:04:17.993Z</time></trkpt><trkpt lat="39.27888238907152" lon="9.324227805035086"><ele>96.16666666666667</ele><time>2026-04-30T11:04:21.993Z</time></trkpt><trkpt lat="39.27888489670923" lon="9.32412708812789"><ele>97.0</ele><time>2026-04-30T11:04:32.993Z</time></trkpt><trkpt lat="39.27883794096785" lon="9.32405494207285"><ele>97.0</ele><time>2026-04-30T11:04:33.993Z</time></trkpt><trkpt lat="39.278788384600794" lon="9.323965032446203"><ele>97.0</ele><time>2026-04-30T11:04:34.993Z</time></trkpt><trkpt lat="39.27873113284552" lon="9.323855232310445"><ele>97.0</ele><time>2026-04-30T11:04:35.993Z</time></trkpt><trkpt lat="39.278670590434324" lon="9.323736580223382"><ele>97.0</ele><time>2026-04-30T11:04:36.993Z</time></trkpt><trkpt lat="39.27860659465729" lon="9.323613851965515"><ele>97.0</ele><time>2026-04-30T11:04:37.993Z</time></trkpt><trkpt lat="39.278533211774565" lon="9.323468585893846"><ele>96.0</ele><time>2026-04-30T11:04:38.993Z</time></trkpt><trkpt lat="39.27845463370852" lon="9.323302965296632"><ele>95.0</ele><time>2026-04-30T11:04:39.993Z</time></trkpt><trkpt lat="39.278376796874255" lon="9.323139853237675"><ele>94.0</ele><time>2026-04-30T11:04:40.993Z</time></trkpt><trkpt lat="39.27829735132004" lon="9.322977238678305"><ele>93.0</ele><time>2026-04-30T11:04:41.993Z</time></trkpt><trkpt lat="39.27821101043055" lon="9.322809143108017"><ele>93.0</ele><time>2026-04-30T11:04:42.993Z</time></trkpt><trkpt lat="39.278125503523604" lon="9.322630577986642"><ele>93.0</ele><time>2026-04-30T11:04:43.993Z</time></trkpt><trkpt lat="39.27804376304602" lon="9.322448388901515"><ele>93.0</ele><time>2026-04-30T11:04:44.993Z</time></trkpt><trkpt lat="39.277965273877065" lon="9.322288498568312"><ele>93.0</ele><time>2026-04-30T11:04:45.993Z</time></trkpt><trkpt lat="39.27790870971015" lon="9.322161199064556"><ele>93.0</ele><time>2026-04-30T11:04:46.993Z</time></trkpt><trkpt lat="39.27787705555512" lon="9.32207944295168"><ele>93.0</ele><time>2026-04-30T11:04:47.993Z</time></trkpt><trkpt lat="39.2778140239656" lon="9.32194119260489"><ele>93.0</ele><time>2026-04-30T11:04:49.993Z</time></trkpt><trkpt lat="39.27774850122497" lon="9.321825077765103"><ele>93.0</ele><time>2026-04-30T11:04:50.993Z</time></trkpt><trkpt lat="39.27767609560423" lon="9.321683357789773"><ele>93.0</ele><time>2026-04-30T11:04:51.993Z</time></trkpt><trkpt lat="39.27760207819701" lon="9.321534830489846"><ele>93.0</ele><time>2026-04-30T11:04:52.993Z</time></trkpt><trkpt lat="39.27753244140112" lon="9.321396466341794"><ele>93.0</ele><time>2026-04-30T11:04:53.993Z</time></trkpt><trkpt lat="39.277467761490655" lon="9.321274532399555"><ele>93.0</ele><time>2026-04-30T11:04:54.993Z</time></trkpt><trkpt lat="39.277419452300535" lon="9.321175513151337"><ele>92.5</ele><time>2026-04-30T11:04:55.993Z</time></trkpt><trkpt lat="39.27740848456556" lon="9.321083493965713"><ele>92.0</ele><time>2026-04-30T11:04:57.993Z</time></trkpt><trkpt lat="39.27748297627041" lon="9.32106034169482"><ele>91.5</ele><time>2026-04-30T11:04:59.993Z</time></trkpt><trkpt lat="39.277586185686374" lon="9.321083947169111"><ele>91.0</ele><time>2026-04-30T11:05:01.993Z</time></trkpt><trkpt lat="39.27764548509931" lon="9.321157428408153"><ele>90.5</ele><time>2026-04-30T11:05:03.993Z</time></trkpt><trkpt lat="39.27764360930557" lon="9.321249592629936"><ele>90.0</ele><time>2026-04-30T11:05:20.993Z</time></trkpt><trkpt lat="39.27775442865335" lon="9.321310311717113"><ele>90.0</ele><time>2026-04-30T11:08:42.992Z</time></trkpt><trkpt lat="39.27782587930007" lon="9.321347046864568"><ele>90.0</ele><time>2026-04-30T11:09:15.991Z</time></trkpt><trkpt lat="39.277807136883624" lon="9.321265418503277"><ele>90.0</ele><time>2026-04-30T11:10:14.991Z</time></trkpt><trkpt lat="39.27784750450402" lon="9.321199500897535"><ele>90.0</ele><time>2026-04-30T11:10:21.991Z</time></trkpt></trkseg><trkseg><trkpt lat="39.27758342827683" lon="9.321211339998454"><ele>90.0</ele><time>2026-04-30T12:34:40.91Z</time></trkpt><trkpt lat="39.27762770125691" lon="9.321276324420907"><ele>90.0</ele><time>2026-04-30T12:34:46.759Z</time></trkpt><trkpt lat="39.27770664933339" lon="9.321366852372574"><ele>90.0</ele><time>2026-04-30T12:35:09.003Z</time></trkpt><trkpt lat="39.277726221407285" lon="9.32150352210015"><ele>90.0</ele><time>2026-04-30T12:35:11.003Z</time></trkpt><trkpt lat="39.277748322065264" lon="9.321626613531944"><ele>90.0</ele><time>2026-04-30T12:35:15.003Z</time></trkpt><trkpt lat="39.27781125509995" lon="9.321742131854078"><ele>90.6</ele><time>2026-04-30T12:35:17.003Z</time></trkpt><trkpt lat="39.27786341366237" lon="9.32185446303835"><ele>91.2</ele><time>2026-04-30T12:35:19.003Z</time></trkpt><trkpt lat="39.27790750629221" lon="9.321972707583711"><ele>91.80000000000001</ele><time>2026-04-30T12:35:21.003Z</time></trkpt><trkpt lat="39.277898521588156" lon="9.32206529320614"><ele>92.4</ele><time>2026-04-30T12:35:24.003Z</time></trkpt><trkpt lat="39.27792871013131" lon="9.322204497710421"><ele>93.0</ele><time>2026-04-30T12:35:27.003Z</time></trkpt><trkpt lat="39.27796611741519" lon="9.322289129609086"><ele>93.0</ele><time>2026-04-30T12:35:28.003Z</time></trkpt><trkpt lat="39.27801676718552" lon="9.322396592063885"><ele>93.0</ele><time>2026-04-30T12:35:29.002Z</time></trkpt><trkpt lat="39.27807268406102" lon="9.322510610272811"><ele>93.0</ele><time>2026-04-30T12:35:30.002Z</time></trkpt><trkpt lat="39.27812669901685" lon="9.322626607590829"><ele>93.0</ele><time>2026-04-30T12:35:31.002Z</time></trkpt><trkpt lat="39.27819090062443" lon="9.322752509598399"><ele>93.0</ele><time>2026-04-30T12:35:32.002Z</time></trkpt><trkpt lat="39.278256671673134" lon="9.322883927510931"><ele>93.0</ele><time>2026-04-30T12:35:33.002Z</time></trkpt><trkpt lat="39.27832848985096" lon="9.32302778873129"><ele>93.0</ele><time>2026-04-30T12:35:34.002Z</time></trkpt><trkpt lat="39.27840390240786" lon="9.323186106972022"><ele>93.0</ele><time>2026-04-30T12:35:35.002Z</time></trkpt><trkpt lat="39.27848510299088" lon="9.323350104044351"><ele>93.0</ele><time>2026-04-30T12:35:36.002Z</time></trkpt><trkpt lat="39.278563290703204" lon="9.323525455755668"><ele>92.66666666666667</ele><time>2026-04-30T12:35:37.002Z</time></trkpt><trkpt lat="39.278651753395394" lon="9.323706363126476"><ele>92.33333333333334</ele><time>2026-04-30T12:35:38.002Z</time></trkpt><trkpt lat="39.27874424938246" lon="9.323887865818559"><ele>92.0</ele><time>2026-04-30T12:35:39.002Z</time></trkpt><trkpt lat="39.27883310491025" lon="9.324085269628476"><ele>93.0</ele><time>2026-04-30T12:35:40.002Z</time></trkpt><trkpt lat="39.27893083726498" lon="9.324284313251601"><ele>94.0</ele><time>2026-04-30T12:35:41.002Z</time></trkpt><trkpt lat="39.27902782340617" lon="9.324494713350083"><ele>95.0</ele><time>2026-04-30T12:35:42.002Z</time></trkpt><trkpt lat="39.27913342073558" lon="9.324702363124697"><ele>96.33333333333334</ele><time>2026-04-30T12:35:43.002Z</time></trkpt><trkpt lat="39.279255809640006" lon="9.324940611857965"><ele>97.66666666666667</ele><time>2026-04-30T12:35:44.002Z</time></trkpt><trkpt lat="39.27935696628157" lon="9.325154463367845"><ele>99.0</ele><time>2026-04-30T12:35:45.002Z</time></trkpt><trkpt lat="39.279458045987006" lon="9.325363703944495"><ele>99.66666666666666</ele><time>2026-04-30T12:35:46.002Z</time></trkpt><trkpt lat="39.27955285796025" lon="9.325574497357687"><ele>100.33333333333333</ele><time>2026-04-30T12:35:47.002Z</time></trkpt><trkpt lat="39.279651112556834" lon="9.325772710650407"><ele>101.0</ele><time>2026-04-30T12:35:48.002Z</time></trkpt><trkpt lat="39.27974476380093" lon="9.32598501481718"><ele>101.0</ele><time>2026-04-30T12:35:49.002Z</time></trkpt><trkpt lat="39.27984570679777" lon="9.326191358526527"><ele>101.0</ele><time>2026-04-30T12:35:50.002Z</time></trkpt><trkpt lat="39.27994693127365" lon="9.326404965993284"><ele>101.0</ele><time>2026-04-30T12:35:51.002Z</time></trkpt><trkpt lat="39.28005679860002" lon="9.326617653966155"><ele>101.33333333333333</ele><time>2026-04-30T12:35:52.002Z</time></trkpt><trkpt lat="39.28016567275432" lon="9.326842327187913"><ele>101.66666666666666</ele><time>2026-04-30T12:35:53.002Z</time></trkpt><trkpt lat="39.28027691063663" lon="9.327056529570646"><ele>102.0</ele><time>2026-04-30T12:35:54.002Z</time></trkpt><trkpt lat="39.28038074859157" lon="9.327293114726826"><ele>102.66666666666666</ele><time>2026-04-30T12:35:55.002Z</time></trkpt><trkpt lat="39.28048865928032" lon="9.327509747852249"><ele>103.33333333333333</ele><time>2026-04-30T12:35:56.002Z</time></trkpt><trkpt lat="39.28059913112818" lon="9.327737222342167"><ele>104.0</ele><time>2026-04-30T12:35:57.002Z</time></trkpt><trkpt lat="39.28070946991277" lon="9.327966895228204"><ele>106.33333333333333</ele><time>2026-04-30T12:35:58.002Z</time></trkpt><trkpt lat="39.28082100187886" lon="9.32818785648071"><ele>108.66666666666666</ele><time>2026-04-30T12:35:59.002Z</time></trkpt><trkpt lat="39.28093438039601" lon="9.328405772188868"><ele>111.0</ele><time>2026-04-30T12:36:00.002Z</time></trkpt><trkpt lat="39.28104405751858" lon="9.328625757018283"><ele>111.0</ele><time>2026-04-30T12:36:01.002Z</time></trkpt><trkpt lat="39.281145771844415" lon="9.328849050564173"><ele>111.0</ele><time>2026-04-30T12:36:02.002Z</time></trkpt><trkpt lat="39.28125543639022" lon="9.329076621726493"><ele>111.0</ele><time>2026-04-30T12:36:03.002Z</time></trkpt><trkpt lat="39.28136753712777" lon="9.329304054579405"><ele>110.33333333333334</ele><time>2026-04-30T12:36:04.002Z</time></trkpt><trkpt lat="39.281476040071304" lon="9.32953215411848"><ele>109.66666666666667</ele><time>2026-04-30T12:36:05.002Z</time></trkpt><trkpt lat="39.28159231612758" lon="9.329757597692206"><ele>109.0</ele><time>2026-04-30T12:36:06.002Z</time></trkpt><trkpt lat="39.281695642094995" lon="9.329986452862082"><ele>110.66666666666667</ele><time>2026-04-30T12:36:07.002Z</time></trkpt><trkpt lat="39.28181057692959" lon="9.330215456565577"><ele>112.33333333333334</ele><time>2026-04-30T12:36:08.002Z</time></trkpt><trkpt lat="39.28193370212594" lon="9.330430754944524"><ele>114.0</ele><time>2026-04-30T12:36:09.002Z</time></trkpt><trkpt lat="39.282045293600696" lon="9.330662075297438"><ele>113.33333333333334</ele><time>2026-04-30T12:36:10.002Z</time></trkpt><trkpt lat="39.28215358984665" lon="9.330886486555341"><ele>112.66666666666667</ele><time>2026-04-30T12:36:11.002Z</time></trkpt><trkpt lat="39.28225265762987" lon="9.331106540698173"><ele>112.0</ele><time>2026-04-30T12:36:12.002Z</time></trkpt><trkpt lat="39.28235783573171" lon="9.33132369682271"><ele>112.66666666666667</ele><time>2026-04-30T12:36:13.002Z</time></trkpt><trkpt lat="39.282460914109386" lon="9.331536377541179"><ele>113.33333333333334</ele><time>2026-04-30T12:36:14.002Z</time></trkpt><trkpt lat="39.28256660081286" lon="9.331759073664857"><ele>114.0</ele><time>2026-04-30T12:36:15.002Z</time></trkpt><trkpt lat="39.28267459852794" lon="9.331979357026285"><ele>114.0</ele><time>2026-04-30T12:36:16.002Z</time></trkpt><trkpt lat="39.28278887053247" lon="9.332199149526062"><ele>114.0</ele><time>2026-04-30T12:36:17.002Z</time></trkpt><trkpt lat="39.28289875573233" lon="9.332424073531278"><ele>114.0</ele><time>2026-04-30T12:36:18.002Z</time></trkpt><trkpt lat="39.283003270491825" lon="9.332644147930747"><ele>114.0</ele><time>2026-04-30T12:36:19.002Z</time></trkpt><trkpt lat="39.2831023000881" lon="9.332872100059495"><ele>114.0</ele><time>2026-04-30T12:36:20.002Z</time></trkpt><trkpt lat="39.28318613837127" lon="9.333100213439478"><ele>114.0</ele><time>2026-04-30T12:36:21.002Z</time></trkpt><trkpt lat="39.28325815106673" lon="9.333350623063215"><ele>115.33333333333334</ele><time>2026-04-30T12:36:22.002Z</time></trkpt><trkpt lat="39.283315483911935" lon="9.3335941641316"><ele>116.66666666666667</ele><time>2026-04-30T12:36:23.002Z</time></trkpt><trkpt lat="39.283372105716914" lon="9.333849471002477"><ele>118.0</ele><time>2026-04-30T12:36:24.002Z</time></trkpt><trkpt lat="39.2834240664304" lon="9.334099485423437"><ele>119.33333333333334</ele><time>2026-04-30T12:36:25.002Z</time></trkpt><trkpt lat="39.28348526310209" lon="9.334358271485382"><ele>120.66666666666666</ele><time>2026-04-30T12:36:26.002Z</time></trkpt><trkpt lat="39.283538328622996" lon="9.334585788539494"><ele>122.0</ele><time>2026-04-30T12:36:27.002Z</time></trkpt><trkpt lat="39.28359201180813" lon="9.33480239368981"><ele>126.33333333333333</ele><time>2026-04-30T12:36:28.002Z</time></trkpt><trkpt lat="39.283644478550414" lon="9.335012262026725"><ele>130.66666666666666</ele><time>2026-04-30T12:36:29.002Z</time></trkpt><trkpt lat="39.283693614413004" lon="9.33520613088748"><ele>135.0</ele><time>2026-04-30T12:36:30.002Z</time></trkpt><trkpt lat="39.28373883856299" lon="9.335400891908614"><ele>130.66666666666666</ele><time>2026-04-30T12:36:31.002Z</time></trkpt><trkpt lat="39.283786909870514" lon="9.335602238782352"><ele>126.33333333333333</ele><time>2026-04-30T12:36:32.002Z</time></trkpt><trkpt lat="39.28386258859269" lon="9.335791446080304"><ele>122.0</ele><time>2026-04-30T12:36:33.002Z</time></trkpt><trkpt lat="39.283948521681445" lon="9.335976455858766"><ele>122.0</ele><time>2026-04-30T12:36:34.002Z</time></trkpt><trkpt lat="39.28403549981976" lon="9.33614997840886"><ele>122.0</ele><time>2026-04-30T12:36:35.002Z</time></trkpt><trkpt lat="39.28414040113757" lon="9.336306726959496"><ele>122.0</ele><time>2026-04-30T12:36:36.002Z</time></trkpt><trkpt lat="39.28423478573143" lon="9.336449899191678"><ele>123.5</ele><time>2026-04-30T12:36:37.002Z</time></trkpt><trkpt lat="39.284327434756285" lon="9.33659242911439"><ele>125.0</ele><time>2026-04-30T12:36:38.002Z</time></trkpt><trkpt lat="39.28441165942759" lon="9.33672298218851"><ele>126.5</ele><time>2026-04-30T12:36:39.002Z</time></trkpt><trkpt lat="39.28449999366469" lon="9.336855311734306"><ele>128.0</ele><time>2026-04-30T12:36:40.002Z</time></trkpt><trkpt lat="39.28457300560274" lon="9.336979050197742"><ele>128.0</ele><time>2026-04-30T12:36:41.002Z</time></trkpt><trkpt lat="39.284645967714305" lon="9.33709805541931"><ele>128.0</ele><time>2026-04-30T12:36:42.002Z</time></trkpt><trkpt lat="39.28472193080784" lon="9.337221359576207"><ele>128.0</ele><time>2026-04-30T12:36:43.002Z</time></trkpt><trkpt lat="39.28480102722243" lon="9.33734867564087"><ele>128.0</ele><time>2026-04-30T12:36:44.002Z</time></trkpt><trkpt lat="39.2848824285824" lon="9.337479293127242"><ele>127.25</ele><time>2026-04-30T12:36:45.002Z</time></trkpt><trkpt lat="39.284966441290884" lon="9.337605999172634"><ele>126.5</ele><time>2026-04-30T12:36:46.002Z</time></trkpt><trkpt lat="39.285052461578765" lon="9.33773940387223"><ele>125.75</ele><time>2026-04-30T12:36:47.002Z</time></trkpt><trkpt lat="39.28513518735574" lon="9.337875327874398"><ele>125.0</ele><time>2026-04-30T12:36:48.002Z</time></trkpt><trkpt lat="39.2852251187558" lon="9.338018542951078"><ele>128.66666666666666</ele><time>2026-04-30T12:36:49.002Z</time></trkpt><trkpt lat="39.28532330866369" lon="9.3381636968006"><ele>132.33333333333334</ele><time>2026-04-30T12:36:50.002Z</time></trkpt><trkpt lat="39.28541800901293" lon="9.33831395365215"><ele>136.0</ele><time>2026-04-30T12:36:51.003Z</time></trkpt><trkpt lat="39.2855162707599" lon="9.338472209205026"><ele>134.66666666666669</ele><time>2026-04-30T12:36:52.002Z</time></trkpt><trkpt lat="39.28561409817699" lon="9.338632714933244"><ele>133.33333333333334</ele><time>2026-04-30T12:36:53.002Z</time></trkpt><trkpt lat="39.28571208114588" lon="9.338794024916028"><ele>132.0</ele><time>2026-04-30T12:36:54.003Z</time></trkpt><trkpt lat="39.285814378816774" lon="9.338956664143522"><ele>132.0</ele><time>2026-04-30T12:36:55.002Z</time></trkpt><trkpt lat="39.285923957101716" lon="9.339128283984499"><ele>132.0</ele><time>2026-04-30T12:36:56.002Z</time></trkpt><trkpt lat="39.28602782450437" lon="9.339293100898242"><ele>132.0</ele><time>2026-04-30T12:36:57.002Z</time></trkpt><trkpt lat="39.28613022562036" lon="9.339468836269061"><ele>132.0</ele><time>2026-04-30T12:36:58.002Z</time></trkpt><trkpt lat="39.2862372524061" lon="9.339665000471696"><ele>132.0</ele><time>2026-04-30T12:36:59.002Z</time></trkpt><trkpt lat="39.28633927529078" lon="9.339856389668096"><ele>132.0</ele><time>2026-04-30T12:37:00.003Z</time></trkpt><trkpt lat="39.28643086080163" lon="9.340064042866635"><ele>132.0</ele><time>2026-04-30T12:37:01.002Z</time></trkpt><trkpt lat="39.28651644357716" lon="9.340269192138196"><ele>132.0</ele><time>2026-04-30T12:37:02.002Z</time></trkpt><trkpt lat="39.286597874237316" lon="9.340464830149767"><ele>132.0</ele><time>2026-04-30T12:37:03.002Z</time></trkpt><trkpt lat="39.28667434030441" lon="9.340655804304992"><ele>132.0</ele><time>2026-04-30T12:37:04.002Z</time></trkpt><trkpt lat="39.28674727635653" lon="9.340845904578606"><ele>132.0</ele><time>2026-04-30T12:37:05.002Z</time></trkpt><trkpt lat="39.28682315924875" lon="9.341031779036657"><ele>132.0</ele><time>2026-04-30T12:37:06.002Z</time></trkpt><trkpt lat="39.28690081152232" lon="9.34122101543271"><ele>132.33333333333334</ele><time>2026-04-30T12:37:07.002Z</time></trkpt><trkpt lat="39.286971742917785" lon="9.341415050455868"><ele>132.66666666666669</ele><time>2026-04-30T12:37:08.002Z</time></trkpt><trkpt lat="39.28704814603865" lon="9.341600604973408"><ele>133.0</ele><time>2026-04-30T12:37:09.002Z</time></trkpt><trkpt lat="39.28712407779779" lon="9.341795401762573"><ele>133.0</ele><time>2026-04-30T12:37:10.002Z</time></trkpt><trkpt lat="39.28720892493743" lon="9.341990891513325"><ele>133.0</ele><time>2026-04-30T12:37:11.002Z</time></trkpt><trkpt lat="39.28728329726752" lon="9.342186803090774"><ele>133.0</ele><time>2026-04-30T12:37:12.002Z</time></trkpt><trkpt lat="39.28736598208594" lon="9.342369442016656"><ele>133.66666666666669</ele><time>2026-04-30T12:37:13.002Z</time></trkpt><trkpt lat="39.287441085440896" lon="9.342572546596806"><ele>134.33333333333334</ele><time>2026-04-30T12:37:14.002Z</time></trkpt><trkpt lat="39.287514162138265" lon="9.34277015641442"><ele>135.0</ele><time>2026-04-30T12:37:15.002Z</time></trkpt><trkpt lat="39.28759877895488" lon="9.342971433374428"><ele>137.33333333333334</ele><time>2026-04-30T12:37:16.002Z</time></trkpt><trkpt lat="39.28768776741713" lon="9.343162346741103"><ele>139.66666666666669</ele><time>2026-04-30T12:37:17.002Z</time></trkpt><trkpt lat="39.2877860771735" lon="9.343348752138766"><ele>142.0</ele><time>2026-04-30T12:37:18.002Z</time></trkpt><trkpt lat="39.28789123361306" lon="9.343533415168773"><ele>142.0</ele><time>2026-04-30T12:37:19.002Z</time></trkpt><trkpt lat="39.28800028057843" lon="9.343712692694298"><ele>142.0</ele><time>2026-04-30T12:37:20.002Z</time></trkpt><trkpt lat="39.28810719317212" lon="9.343895606845553"><ele>142.0</ele><time>2026-04-30T12:37:21.002Z</time></trkpt><trkpt lat="39.2882160230945" lon="9.344083037640157"><ele>142.33333333333334</ele><time>2026-04-30T12:37:22.002Z</time></trkpt><trkpt lat="39.28831863819201" lon="9.344272052748721"><ele>142.66666666666666</ele><time>2026-04-30T12:37:23.002Z</time></trkpt><trkpt lat="39.28842279308249" lon="9.344469697695601"><ele>143.0</ele><time>2026-04-30T12:37:24.002Z</time></trkpt><trkpt lat="39.288525764790194" lon="9.344678590758452"><ele>144.33333333333331</ele><time>2026-04-30T12:37:25.002Z</time></trkpt><trkpt lat="39.28862308449688" lon="9.344890937577187"><ele>145.66666666666666</ele><time>2026-04-30T12:37:26.002Z</time></trkpt><trkpt lat="39.28873102769087" lon="9.345095036053454"><ele>147.0</ele><time>2026-04-30T12:37:27.002Z</time></trkpt><trkpt lat="39.288858200783274" lon="9.345294482870967"><ele>147.66666666666666</ele><time>2026-04-30T12:37:28.002Z</time></trkpt><trkpt lat="39.28899745809566" lon="9.34549022971881"><ele>148.33333333333331</ele><time>2026-04-30T12:37:29.002Z</time></trkpt><trkpt lat="39.28913299529059" lon="9.345692089185784"><ele>149.0</ele><time>2026-04-30T12:37:30.002Z</time></trkpt><trkpt lat="39.2892652253511" lon="9.345903557842977"><ele>149.0</ele><time>2026-04-30T12:37:31.002Z</time></trkpt><trkpt lat="39.289397602133" lon="9.346121144973372"><ele>149.0</ele><time>2026-04-30T12:37:32.002Z</time></trkpt><trkpt lat="39.28952014157386" lon="9.34634545468806"><ele>149.0</ele><time>2026-04-30T12:37:33.002Z</time></trkpt><trkpt lat="39.28962823535892" lon="9.346582646458494"><ele>149.0</ele><time>2026-04-30T12:37:34.002Z</time></trkpt><trkpt lat="39.289723646659255" lon="9.346831897810045"><ele>149.0</ele><time>2026-04-30T12:37:35.002Z</time></trkpt><trkpt lat="39.289807529685746" lon="9.347075415266733"><ele>149.0</ele><time>2026-04-30T12:37:36.002Z</time></trkpt><trkpt lat="39.28988472299092" lon="9.347320318364977"><ele>150.66666666666666</ele><time>2026-04-30T12:37:37.002Z</time></trkpt><trkpt lat="39.28995920493365" lon="9.347561571538993"><ele>152.33333333333334</ele><time>2026-04-30T12:37:38.002Z</time></trkpt><trkpt lat="39.29003239231109" lon="9.347789894719073"><ele>154.0</ele><time>2026-04-30T12:37:39.002Z</time></trkpt><trkpt lat="39.29008826914781" lon="9.348005010871994"><ele>154.75</ele><time>2026-04-30T12:37:40.002Z</time></trkpt><trkpt lat="39.2901206135807" lon="9.3481978404457"><ele>155.5</ele><time>2026-04-30T12:37:41.002Z</time></trkpt><trkpt lat="39.29014424239226" lon="9.348364629579022"><ele>156.25</ele><time>2026-04-30T12:37:42.002Z</time></trkpt><trkpt lat="39.29015354664642" lon="9.34847540526914"><ele>157.0</ele><time>2026-04-30T12:37:43.002Z</time></trkpt><trkpt lat="39.290157434187925" lon="9.348589254259023"><ele>157.0</ele><time>2026-04-30T12:37:45.002Z</time></trkpt><trkpt lat="39.29019023294814" lon="9.348667798339047"><ele>157.0</ele><time>2026-04-30T12:38:12.001Z</time></trkpt><trkpt lat="39.290222148151564" lon="9.348857918101116"><ele>157.0</ele><time>2026-04-30T12:38:14.001Z</time></trkpt><trkpt lat="39.29024149135772" lon="9.349002106714844"><ele>157.0</ele><time>2026-04-30T12:38:15.001Z</time></trkpt><trkpt lat="39.29028040941508" lon="9.349155242216046"><ele>159.33333333333334</ele><time>2026-04-30T12:38:16.001Z</time></trkpt><trkpt lat="39.290342968521315" lon="9.34930616683738"><ele>161.66666666666666</ele><time>2026-04-30T12:38:17.001Z</time></trkpt><trkpt lat="39.29044862062167" lon="9.349452246236861"><ele>164.0</ele><time>2026-04-30T12:38:18.001Z</time></trkpt><trkpt lat="39.290581519532495" lon="9.349592406820229"><ele>161.66666666666666</ele><time>2026-04-30T12:38:19.001Z</time></trkpt><trkpt lat="39.29074566572496" lon="9.34971718699338"><ele>159.33333333333334</ele><time>2026-04-30T12:38:20.001Z</time></trkpt><trkpt lat="39.29091095541316" lon="9.34983997246681"><ele>157.0</ele><time>2026-04-30T12:38:21.001Z</time></trkpt><trkpt lat="39.29106299171841" lon="9.349964207594182"><ele>157.0</ele><time>2026-04-30T12:38:22.001Z</time></trkpt><trkpt lat="39.29119096578338" lon="9.35008184185136"><ele>157.0</ele><time>2026-04-30T12:38:23.001Z</time></trkpt><trkpt lat="39.29127392490942" lon="9.350215229989642"><ele>157.0</ele><time>2026-04-30T12:38:24.001Z</time></trkpt><trkpt lat="39.29131520116379" lon="9.350369789788251"><ele>157.0</ele><time>2026-04-30T12:38:25.001Z</time></trkpt><trkpt lat="39.29133481287255" lon="9.350533035392546"><ele>158.0</ele><time>2026-04-30T12:38:26.001Z</time></trkpt><trkpt lat="39.291364454993584" lon="9.350692811805102"><ele>159.0</ele><time>2026-04-30T12:38:27.001Z</time></trkpt><trkpt lat="39.29142884277494" lon="9.35083397371978"><ele>160.0</ele><time>2026-04-30T12:38:28.001Z</time></trkpt><trkpt lat="39.291524100845294" lon="9.350976263817067"><ele>161.0</ele><time>2026-04-30T12:38:29.001Z</time></trkpt><trkpt lat="39.291637073696265" lon="9.351145037499695"><ele>161.66666666666666</ele><time>2026-04-30T12:38:30.001Z</time></trkpt><trkpt lat="39.291753964535324" lon="9.3513345889983"><ele>162.33333333333334</ele><time>2026-04-30T12:38:31.001Z</time></trkpt><trkpt lat="39.291868403210344" lon="9.351534984091199"><ele>163.0</ele><time>2026-04-30T12:38:32.001Z</time></trkpt><trkpt lat="39.291981690971134" lon="9.351749450157392"><ele>163.0</ele><time>2026-04-30T12:38:33.001Z</time></trkpt><trkpt lat="39.292095834569814" lon="9.351979209002108"><ele>163.0</ele><time>2026-04-30T12:38:34.001Z</time></trkpt><trkpt lat="39.29220823855279" lon="9.352225458891837"><ele>163.0</ele><time>2026-04-30T12:38:35.001Z</time></trkpt><trkpt lat="39.29232398975998" lon="9.352493793144031"><ele>163.5</ele><time>2026-04-30T12:38:36.001Z</time></trkpt><trkpt lat="39.292443906501305" lon="9.35276935372707"><ele>164.0</ele><time>2026-04-30T12:38:37.001Z</time></trkpt><trkpt lat="39.29255910276984" lon="9.3530463156949"><ele>164.0</ele><time>2026-04-30T12:38:38.001Z</time></trkpt><trkpt lat="39.29267535697104" lon="9.353325299771422"><ele>164.0</ele><time>2026-04-30T12:38:39.001Z</time></trkpt><trkpt lat="39.292803802158694" lon="9.353595377604114"><ele>164.0</ele><time>2026-04-30T12:38:40.001Z</time></trkpt><trkpt lat="39.29293482430131" lon="9.353860532136274"><ele>164.0</ele><time>2026-04-30T12:38:41.001Z</time></trkpt><trkpt lat="39.293077627611915" lon="9.354112261852835"><ele>168.0</ele><time>2026-04-30T12:38:42.001Z</time></trkpt><trkpt lat="39.29322453678344" lon="9.354358237418287"><ele>172.0</ele><time>2026-04-30T12:38:43.001Z</time></trkpt><trkpt lat="39.29336771047262" lon="9.354607724807444"><ele>172.66666666666669</ele><time>2026-04-30T12:38:44.001Z</time></trkpt><trkpt lat="39.29349499158069" lon="9.354843531850147"><ele>173.33333333333334</ele><time>2026-04-30T12:38:45.001Z</time></trkpt><trkpt lat="39.29362363162725" lon="9.355072419894165"><ele>174.0</ele><time>2026-04-30T12:38:46.001Z</time></trkpt><trkpt lat="39.29374500194925" lon="9.355309262772636"><ele>174.0</ele><time>2026-04-30T12:38:47.001Z</time></trkpt><trkpt lat="39.293891771181244" lon="9.355536220720673"><ele>174.0</ele><time>2026-04-30T12:38:48.001Z</time></trkpt><trkpt lat="39.29405385362716" lon="9.35576586385027"><ele>177.5</ele><time>2026-04-30T12:38:49.001Z</time></trkpt><trkpt lat="39.294241289081064" lon="9.355976408616057"><ele>181.0</ele><time>2026-04-30T12:38:50.001Z</time></trkpt><trkpt lat="39.29446050701226" lon="9.356173871267885"><ele>181.0</ele><time>2026-04-30T12:38:51.001Z</time></trkpt><trkpt lat="39.294682518184146" lon="9.356359939950412"><ele>181.0</ele><time>2026-04-30T12:38:52.001Z</time></trkpt><trkpt lat="39.29487136220504" lon="9.356538608711393"><ele>180.5</ele><time>2026-04-30T12:38:53.001Z</time></trkpt><trkpt lat="39.29507032114211" lon="9.356731910487545"><ele>180.0</ele><time>2026-04-30T12:38:54.001Z</time></trkpt><trkpt lat="39.29521664683828" lon="9.35695820346965"><ele>179.5</ele><time>2026-04-30T12:38:55.001Z</time></trkpt><trkpt lat="39.29529900840275" lon="9.357217902737398"><ele>179.0</ele><time>2026-04-30T12:38:56.001Z</time></trkpt><trkpt lat="39.29542229289556" lon="9.35747765500081"><ele>179.0</ele><time>2026-04-30T12:38:57.003Z</time></trkpt><trkpt lat="39.295525379501036" lon="9.357751203646405"><ele>179.0</ele><time>2026-04-30T12:38:58.002Z</time></trkpt><trkpt lat="39.29560683880683" lon="9.358049512542085"><ele>182.5</ele><time>2026-04-30T12:38:59.002Z</time></trkpt><trkpt lat="39.29568176626496" lon="9.358359840028617"><ele>186.0</ele><time>2026-04-30T12:39:00.002Z</time></trkpt><trkpt lat="39.29576290921416" lon="9.35866703208154"><ele>186.0</ele><time>2026-04-30T12:39:01.002Z</time></trkpt><trkpt lat="39.29587976062921" lon="9.35894120256048"><ele>186.0</ele><time>2026-04-30T12:39:02.002Z</time></trkpt><trkpt lat="39.29602445600171" lon="9.359189276684235"><ele>186.0</ele><time>2026-04-30T12:39:03.002Z</time></trkpt><trkpt lat="39.296184718893834" lon="9.35942232673494"><ele>186.0</ele><time>2026-04-30T12:39:04.002Z</time></trkpt><trkpt lat="39.296340186311504" lon="9.359660051865283"><ele>191.0</ele><time>2026-04-30T12:39:05.002Z</time></trkpt><trkpt lat="39.29649385922673" lon="9.35989331608956"><ele>196.0</ele><time>2026-04-30T12:39:06.002Z</time></trkpt><trkpt lat="39.29665798313086" lon="9.36010727907102"><ele>196.0</ele><time>2026-04-30T12:39:07.002Z</time></trkpt><trkpt lat="39.296830589707504" lon="9.360311151363964"><ele>196.0</ele><time>2026-04-30T12:39:08.002Z</time></trkpt><trkpt lat="39.29700137307349" lon="9.360503620994015"><ele>196.0</ele><time>2026-04-30T12:39:09.002Z</time></trkpt><trkpt lat="39.29717547438086" lon="9.360696275799805"><ele>196.0</ele><time>2026-04-30T12:39:10.002Z</time></trkpt><trkpt lat="39.297350421176795" lon="9.360886376748738"><ele>197.33333333333331</ele><time>2026-04-30T12:39:11.002Z</time></trkpt><trkpt lat="39.297508929216704" lon="9.361059361456116"><ele>198.66666666666669</ele><time>2026-04-30T12:39:12.002Z</time></trkpt><trkpt lat="39.297646456979635" lon="9.361186238909399"><ele>200.0</ele><time>2026-04-30T12:39:13.002Z</time></trkpt><trkpt lat="39.29778827740341" lon="9.361279196274351"><ele>200.0</ele><time>2026-04-30T12:39:14.002Z</time></trkpt><trkpt lat="39.29794483046895" lon="9.361344468217952"><ele>200.0</ele><time>2026-04-30T12:39:15.002Z</time></trkpt><trkpt lat="39.298086800619984" lon="9.361425628034365"><ele>200.0</ele><time>2026-04-30T12:39:16.002Z</time></trkpt><trkpt lat="39.29817537509546" lon="9.361581374118758"><ele>201.33333333333334</ele><time>2026-04-30T12:39:17.002Z</time></trkpt><trkpt lat="39.29822294433809" lon="9.361794559143238"><ele>202.66666666666669</ele><time>2026-04-30T12:39:18.002Z</time></trkpt><trkpt lat="39.29825548320215" lon="9.362045569266991"><ele>204.0</ele><time>2026-04-30T12:39:19.002Z</time></trkpt><trkpt lat="39.29830344230045" lon="9.362302680378212"><ele>204.66666666666669</ele><time>2026-04-30T12:39:20.002Z</time></trkpt><trkpt lat="39.298413940150056" lon="9.362518124379905"><ele>205.33333333333334</ele><time>2026-04-30T12:39:21.002Z</time></trkpt><trkpt lat="39.29856430256443" lon="9.362694383644433"><ele>206.0</ele><time>2026-04-30T12:39:22.002Z</time></trkpt><trkpt lat="39.2986928065947" lon="9.362898341793843"><ele>206.33333333333334</ele><time>2026-04-30T12:39:23.002Z</time></trkpt><trkpt lat="39.298797796881594" lon="9.363126618937338"><ele>206.66666666666669</ele><time>2026-04-30T12:39:24.002Z</time></trkpt><trkpt lat="39.29890576465718" lon="9.363363426162916"><ele>207.0</ele><time>2026-04-30T12:39:25.002Z</time></trkpt><trkpt lat="39.29901083128982" lon="9.363570746424477"><ele>210.0</ele><time>2026-04-30T12:39:26.002Z</time></trkpt><trkpt lat="39.299055864829754" lon="9.363758547346801"><ele>213.0</ele><time>2026-04-30T12:39:27.002Z</time></trkpt><trkpt lat="39.29902078840993" lon="9.363929161113049"><ele>216.0</ele><time>2026-04-30T12:39:28.002Z</time></trkpt><trkpt lat="39.29892558102687" lon="9.364135752387181"><ele>216.0</ele><time>2026-04-30T12:39:29.002Z</time></trkpt><trkpt lat="39.29895987717566" lon="9.364314566165907"><ele>216.0</ele><time>2026-04-30T12:39:30.002Z</time></trkpt><trkpt lat="39.299056906075755" lon="9.364444079914872"><ele>216.0</ele><time>2026-04-30T12:39:31.002Z</time></trkpt><trkpt lat="39.29920551665247" lon="9.364521356699157"><ele>216.0</ele><time>2026-04-30T12:39:32.002Z</time></trkpt><trkpt lat="39.299345406331675" lon="9.36454961045639"><ele>216.0</ele><time>2026-04-30T12:39:33.002Z</time></trkpt><trkpt lat="39.29949365814254" lon="9.364500264513065"><ele>216.0</ele><time>2026-04-30T12:39:34.002Z</time></trkpt><trkpt lat="39.29964141795873" lon="9.364390955092535"><ele>216.0</ele><time>2026-04-30T12:39:35.002Z</time></trkpt><trkpt lat="39.29980884904699" lon="9.36429977527021"><ele>219.33333333333331</ele><time>2026-04-30T12:39:36.002Z</time></trkpt><trkpt lat="39.29998339178208" lon="9.364291260796753"><ele>222.66666666666666</ele><time>2026-04-30T12:39:37.002Z</time></trkpt><trkpt lat="39.30015829320225" lon="9.364327769300068"><ele>226.0</ele><time>2026-04-30T12:39:38.002Z</time></trkpt><trkpt lat="39.30028716421585" lon="9.364401193825485"><ele>226.0</ele><time>2026-04-30T12:39:39.002Z</time></trkpt><trkpt lat="39.30037870311628" lon="9.3645236586654"><ele>226.0</ele><time>2026-04-30T12:39:40.002Z</time></trkpt><trkpt lat="39.30039224041987" lon="9.364723958953524"><ele>226.0</ele><time>2026-04-30T12:39:41.002Z</time></trkpt><trkpt lat="39.30034449158419" lon="9.364908119736972"><ele>226.0</ele><time>2026-04-30T12:39:42.002Z</time></trkpt><trkpt lat="39.30029201886978" lon="9.365105562510788"><ele>226.0</ele><time>2026-04-30T12:39:43.002Z</time></trkpt><trkpt lat="39.300248516399535" lon="9.36531669775746"><ele>226.0</ele><time>2026-04-30T12:39:44.002Z</time></trkpt><trkpt lat="39.300219353052825" lon="9.3655335827376"><ele>226.0</ele><time>2026-04-30T12:39:45.002Z</time></trkpt><trkpt lat="39.30018727529734" lon="9.36575132892443"><ele>227.0</ele><time>2026-04-30T12:39:46.002Z</time></trkpt><trkpt lat="39.30015411924329" lon="9.365981716927301"><ele>228.0</ele><time>2026-04-30T12:39:47.002Z</time></trkpt><trkpt lat="39.300116984901614" lon="9.366223042569016"><ele>229.0</ele><time>2026-04-30T12:39:48.002Z</time></trkpt><trkpt lat="39.30007134291588" lon="9.366490240669568"><ele>231.33333333333331</ele><time>2026-04-30T12:39:49.002Z</time></trkpt><trkpt lat="39.300019044722" lon="9.366761305850623"><ele>233.66666666666669</ele><time>2026-04-30T12:39:50.002Z</time></trkpt><trkpt lat="39.299979693170165" lon="9.367047459488292"><ele>236.0</ele><time>2026-04-30T12:39:51.002Z</time></trkpt><trkpt lat="39.299973808495636" lon="9.367329116436112"><ele>233.66666666666669</ele><time>2026-04-30T12:39:52.002Z</time></trkpt><trkpt lat="39.300038346327476" lon="9.367582129920086"><ele>231.33333333333331</ele><time>2026-04-30T12:39:53.002Z</time></trkpt><trkpt lat="39.30012179959468" lon="9.367823550034265"><ele>229.0</ele><time>2026-04-30T12:39:54.002Z</time></trkpt><trkpt lat="39.30025156831518" lon="9.368045207112806"><ele>229.0</ele><time>2026-04-30T12:39:55.002Z</time></trkpt><trkpt lat="39.300394261573835" lon="9.368204686512287"><ele>229.0</ele><time>2026-04-30T12:39:56.001Z</time></trkpt><trkpt lat="39.300573209424314" lon="9.368277318106447"><ele>229.0</ele><time>2026-04-30T12:39:57.001Z</time></trkpt><trkpt lat="39.30079185463553" lon="9.368293297469465"><ele>236.33333333333331</ele><time>2026-04-30T12:39:58.001Z</time></trkpt><trkpt lat="39.30102895803071" lon="9.36828776003111"><ele>243.66666666666669</ele><time>2026-04-30T12:39:59.001Z</time></trkpt><trkpt lat="39.30121841369628" lon="9.368295752503395"><ele>251.0</ele><time>2026-04-30T12:40:00.001Z</time></trkpt><trkpt lat="39.301366489651" lon="9.368312929941721"><ele>249.25</ele><time>2026-04-30T12:40:01.001Z</time></trkpt><trkpt lat="39.30145127980675" lon="9.36840124169426"><ele>247.5</ele><time>2026-04-30T12:40:02.001Z</time></trkpt><trkpt lat="39.30147125245864" lon="9.368578949937566"><ele>245.75</ele><time>2026-04-30T12:40:03.001Z</time></trkpt><trkpt lat="39.30143138347493" lon="9.368785607163938"><ele>244.0</ele><time>2026-04-30T12:40:04.001Z</time></trkpt><trkpt lat="39.30133202120006" lon="9.369004362823318"><ele>244.0</ele><time>2026-04-30T12:40:05.001Z</time></trkpt><trkpt lat="39.30124443978933" lon="9.369246047166156"><ele>244.0</ele><time>2026-04-30T12:40:06.001Z</time></trkpt><trkpt lat="39.30116339649818" lon="9.369510973573002"><ele>244.0</ele><time>2026-04-30T12:40:07.001Z</time></trkpt><trkpt lat="39.301073799217086" lon="9.369784092934083"><ele>247.66666666666666</ele><time>2026-04-30T12:40:08.001Z</time></trkpt><trkpt lat="39.30098865947175" lon="9.370062676047276"><ele>251.33333333333331</ele><time>2026-04-30T12:40:09.001Z</time></trkpt><trkpt lat="39.30089733722034" lon="9.37031280371013"><ele>255.0</ele><time>2026-04-30T12:40:10.001Z</time></trkpt><trkpt lat="39.30085501358628" lon="9.370492301732723"><ele>256.25</ele><time>2026-04-30T12:40:11.001Z</time></trkpt><trkpt lat="39.30088081011777" lon="9.370672684323559"><ele>257.5</ele><time>2026-04-30T12:40:12.001Z</time></trkpt><trkpt lat="39.30097550998562" lon="9.370806358112901"><ele>258.75</ele><time>2026-04-30T12:40:13.001Z</time></trkpt><trkpt lat="39.30109740251263" lon="9.370885118573625"><ele>260.0</ele><time>2026-04-30T12:40:14.001Z</time></trkpt><trkpt lat="39.3012069969071" lon="9.371137756652324"><ele>260.33333333333337</ele><time>2026-04-30T12:40:15.001Z</time></trkpt><trkpt lat="39.301225811053634" lon="9.37138721911436"><ele>260.6666666666667</ele><time>2026-04-30T12:40:16.001Z</time></trkpt><trkpt lat="39.30122947315802" lon="9.371669720478089"><ele>261.0</ele><time>2026-04-30T12:40:17.001Z</time></trkpt><trkpt lat="39.301223113457816" lon="9.37194685716801"><ele>263.6666666666667</ele><time>2026-04-30T12:40:18.001Z</time></trkpt><trkpt lat="39.301150928168916" lon="9.37220292493801"><ele>266.33333333333337</ele><time>2026-04-30T12:40:19.001Z</time></trkpt><trkpt lat="39.301049056446786" lon="9.372476778029238"><ele>269.0</ele><time>2026-04-30T12:40:20.001Z</time></trkpt><trkpt lat="39.30096293405694" lon="9.372765258881875"><ele>271.0</ele><time>2026-04-30T12:40:21.001Z</time></trkpt><trkpt lat="39.300889032608836" lon="9.373039047134693"><ele>273.0</ele><time>2026-04-30T12:40:22.001Z</time></trkpt><trkpt lat="39.30083498704896" lon="9.373292748636718"><ele>275.0</ele><time>2026-04-30T12:40:23.001Z</time></trkpt><trkpt lat="39.30083218337307" lon="9.373557523528518"><ele>275.0</ele><time>2026-04-30T12:40:24.001Z</time></trkpt><trkpt lat="39.30085374641318" lon="9.373833365023836"><ele>275.0</ele><time>2026-04-30T12:40:25.001Z</time></trkpt><trkpt lat="39.30090659580464" lon="9.374116821246055"><ele>275.0</ele><time>2026-04-30T12:40:26.001Z</time></trkpt><trkpt lat="39.300989351336455" lon="9.374401369421161"><ele>276.0</ele><time>2026-04-30T12:40:27.001Z</time></trkpt><trkpt lat="39.30110120028913" lon="9.374679687924163"><ele>277.0</ele><time>2026-04-30T12:40:28.001Z</time></trkpt><trkpt lat="39.3012078763351" lon="9.374935865250247"><ele>274.3333333333333</ele><time>2026-04-30T12:40:29.001Z</time></trkpt><trkpt lat="39.30128913837529" lon="9.37514018402901"><ele>271.6666666666667</ele><time>2026-04-30T12:40:30.001Z</time></trkpt><trkpt lat="39.30138644145028" lon="9.375286339625962"><ele>269.0</ele><time>2026-04-30T12:40:31.001Z</time></trkpt><trkpt lat="39.30153285885387" lon="9.375355973185096"><ele>282.33333333333337</ele><time>2026-04-30T12:40:32.001Z</time></trkpt><trkpt lat="39.30173488357565" lon="9.375370782626458"><ele>295.6666666666667</ele><time>2026-04-30T12:40:33.001Z</time></trkpt><trkpt lat="39.3019596450163" lon="9.375344600245091"><ele>309.0</ele><time>2026-04-30T12:40:34.001Z</time></trkpt><trkpt lat="39.30217892030475" lon="9.375350831276902"><ele>307.3333333333333</ele><time>2026-04-30T12:40:35.001Z</time></trkpt><trkpt lat="39.30238670802854" lon="9.375378604177763"><ele>305.66666666666663</ele><time>2026-04-30T12:40:36.001Z</time></trkpt><trkpt lat="39.30257755217178" lon="9.375431935404219"><ele>304.0</ele><time>2026-04-30T12:40:37.001Z</time></trkpt><trkpt lat="39.302744830723114" lon="9.375531451980983"><ele>304.0</ele><time>2026-04-30T12:40:38.001Z</time></trkpt><trkpt lat="39.30284685023737" lon="9.37567306399004"><ele>304.0</ele><time>2026-04-30T12:40:39.001Z</time></trkpt><trkpt lat="39.30287072116349" lon="9.37581455227964"><ele>304.0</ele><time>2026-04-30T12:40:40.001Z</time></trkpt><trkpt lat="39.302807855477496" lon="9.375970441627423"><ele>304.0</ele><time>2026-04-30T12:40:41.001Z</time></trkpt><trkpt lat="39.30267611306596" lon="9.376097633922969"><ele>304.0</ele><time>2026-04-30T12:40:42.001Z</time></trkpt><trkpt lat="39.30258518555623" lon="9.376212635227057"><ele>304.0</ele><time>2026-04-30T12:40:43.001Z</time></trkpt><trkpt lat="39.302566188242736" lon="9.376345544393114"><ele>304.0</ele><time>2026-04-30T12:40:44.001Z</time></trkpt><trkpt lat="39.30266997182568" lon="9.376503173140454"><ele>304.0</ele><time>2026-04-30T12:40:45.001Z</time></trkpt><trkpt lat="39.302844296106315" lon="9.376631593072101"><ele>304.3333333333333</ele><time>2026-04-30T12:40:46.001Z</time></trkpt><trkpt lat="39.302996978314184" lon="9.376800669282947"><ele>304.6666666666667</ele><time>2026-04-30T12:40:47.001Z</time></trkpt><trkpt lat="39.30308636190498" lon="9.376970349431131"><ele>305.0</ele><time>2026-04-30T12:40:48.001Z</time></trkpt><trkpt lat="39.303090002813846" lon="9.377135750834464"><ele>307.6666666666667</ele><time>2026-04-30T12:40:49.001Z</time></trkpt><trkpt lat="39.30298560049869" lon="9.377284064747158"><ele>310.3333333333333</ele><time>2026-04-30T12:40:50.001Z</time></trkpt><trkpt lat="39.302821547518306" lon="9.377385004278752"><ele>313.0</ele><time>2026-04-30T12:40:51.001Z</time></trkpt><trkpt lat="39.30263429187593" lon="9.377488850523005"><ele>313.0</ele><time>2026-04-30T12:40:52.001Z</time></trkpt><trkpt lat="39.302489523116414" lon="9.377638371205238"><ele>313.0</ele><time>2026-04-30T12:40:53.001Z</time></trkpt><trkpt lat="39.30244485671915" lon="9.377819475739129"><ele>313.0</ele><time>2026-04-30T12:40:54.001Z</time></trkpt><trkpt lat="39.30249954686438" lon="9.378008823538538"><ele>315.66666666666663</ele><time>2026-04-30T12:40:55.001Z</time></trkpt><trkpt lat="39.302583741363456" lon="9.378212825328289"><ele>318.3333333333333</ele><time>2026-04-30T12:40:56.001Z</time></trkpt><trkpt lat="39.30262627939834" lon="9.37844781671336"><ele>321.0</ele><time>2026-04-30T12:40:57.001Z</time></trkpt><trkpt lat="39.30258439290308" lon="9.378691222820603"><ele>320.0</ele><time>2026-04-30T12:40:58.001Z</time></trkpt><trkpt lat="39.30252958425758" lon="9.378865315660859"><ele>319.0</ele><time>2026-04-30T12:40:59.001Z</time></trkpt><trkpt lat="39.30257004668276" lon="9.37902504738227"><ele>318.0</ele><time>2026-04-30T12:41:00.001Z</time></trkpt><trkpt lat="39.30269911605034" lon="9.379124386376002"><ele>317.0</ele><time>2026-04-30T12:41:01.001Z</time></trkpt><trkpt lat="39.30288657353671" lon="9.379182346927104"><ele>317.0</ele><time>2026-04-30T12:41:02.001Z</time></trkpt><trkpt lat="39.30304552476791" lon="9.37928064254747"><ele>317.0</ele><time>2026-04-30T12:41:03.002Z</time></trkpt><trkpt lat="39.30311861413116" lon="9.379495551875443"><ele>317.0</ele><time>2026-04-30T12:41:04.001Z</time></trkpt><trkpt lat="39.30313915284139" lon="9.379718886067959"><ele>319.33333333333337</ele><time>2026-04-30T12:41:05.001Z</time></trkpt><trkpt lat="39.303116458692294" lon="9.379889767139092"><ele>321.6666666666667</ele><time>2026-04-30T12:41:06.001Z</time></trkpt><trkpt lat="39.303014555690325" lon="9.380012278593366"><ele>324.0</ele><time>2026-04-30T12:41:07.001Z</time></trkpt><trkpt lat="39.3028418889803" lon="9.380085030153541"><ele>324.0</ele><time>2026-04-30T12:41:08.001Z</time></trkpt><trkpt lat="39.30270505622589" lon="9.380181134129804"><ele>324.0</ele><time>2026-04-30T12:41:09.002Z</time></trkpt><trkpt lat="39.30264625654796" lon="9.38034553281506"><ele>324.0</ele><time>2026-04-30T12:41:10.001Z</time></trkpt><trkpt lat="39.302686960265355" lon="9.380550989777952"><ele>324.3333333333333</ele><time>2026-04-30T12:41:11.001Z</time></trkpt><trkpt lat="39.30281286132427" lon="9.380741547148322"><ele>324.66666666666663</ele><time>2026-04-30T12:41:12.001Z</time></trkpt><trkpt lat="39.302979137406155" lon="9.380930719898933"><ele>325.0</ele><time>2026-04-30T12:41:13.001Z</time></trkpt><trkpt lat="39.303157058333476" lon="9.381133378477106"><ele>334.5</ele><time>2026-04-30T12:41:14.001Z</time></trkpt><trkpt lat="39.30332286333936" lon="9.381339166862443"><ele>344.0</ele><time>2026-04-30T12:41:15.001Z</time></trkpt><trkpt lat="39.30351016654939" lon="9.38148821694668"><ele>344.0</ele><time>2026-04-30T12:41:16.001Z</time></trkpt><trkpt lat="39.303676400846484" lon="9.381578618473466"><ele>344.0</ele><time>2026-04-30T12:41:17.001Z</time></trkpt><trkpt lat="39.30377476176285" lon="9.381693193435899"><ele>344.0</ele><time>2026-04-30T12:41:18.001Z</time></trkpt><trkpt lat="39.303785454009564" lon="9.381918487825125"><ele>341.33333333333337</ele><time>2026-04-30T12:41:19.001Z</time></trkpt><trkpt lat="39.30374631912646" lon="9.38219444274581"><ele>338.6666666666667</ele><time>2026-04-30T12:41:20.001Z</time></trkpt><trkpt lat="39.303765818805914" lon="9.382401601158673"><ele>336.0</ele><time>2026-04-30T12:41:21.001Z</time></trkpt><trkpt lat="39.303861169680204" lon="9.382532173617264"><ele>343.5</ele><time>2026-04-30T12:41:22.001Z</time></trkpt><trkpt lat="39.30402234135482" lon="9.382604681028454"><ele>351.0</ele><time>2026-04-30T12:41:23.001Z</time></trkpt><trkpt lat="39.30409348582775" lon="9.38274701290987"><ele>358.5</ele><time>2026-04-30T12:41:24.001Z</time></trkpt><trkpt lat="39.304088816244374" lon="9.382930161481985"><ele>366.0</ele><time>2026-04-30T12:41:25.001Z</time></trkpt><trkpt lat="39.30395804915229" lon="9.383141550703769"><ele>357.0</ele><time>2026-04-30T12:41:26.001Z</time></trkpt><trkpt lat="39.303806399967776" lon="9.383322444298656"><ele>348.0</ele><time>2026-04-30T12:41:27.001Z</time></trkpt><trkpt lat="39.303709864818124" lon="9.383476693871955"><ele>339.0</ele><time>2026-04-30T12:41:28.001Z</time></trkpt><trkpt lat="39.303699709244974" lon="9.38360404394885"><ele>339.0</ele><time>2026-04-30T12:41:29.001Z</time></trkpt><trkpt lat="39.30379024977126" lon="9.383735689757847"><ele>339.0</ele><time>2026-04-30T12:41:30.001Z</time></trkpt><trkpt lat="39.30394402828676" lon="9.383843301333686"><ele>339.0</ele><time>2026-04-30T12:41:31.001Z</time></trkpt><trkpt lat="39.30412905280987" lon="9.38395908767827"><ele>345.75</ele><time>2026-04-30T12:41:32.001Z</time></trkpt><trkpt lat="39.304269145305746" lon="9.384083963240299"><ele>352.5</ele><time>2026-04-30T12:41:33.001Z</time></trkpt><trkpt lat="39.30437041582671" lon="9.384212398010217"><ele>359.25</ele><time>2026-04-30T12:41:34.001Z</time></trkpt><trkpt lat="39.304407930256076" lon="9.384359760104847"><ele>366.0</ele><time>2026-04-30T12:41:35.001Z</time></trkpt><trkpt lat="39.304353923118526" lon="9.384521977121688"><ele>366.0</ele><time>2026-04-30T12:41:36.001Z</time></trkpt><trkpt lat="39.304255282840764" lon="9.384632438038464"><ele>366.0</ele><time>2026-04-30T12:41:37.001Z</time></trkpt><trkpt lat="39.304139443748056" lon="9.384708348217286"><ele>366.0</ele><time>2026-04-30T12:41:38.001Z</time></trkpt><trkpt lat="39.30404798565553" lon="9.384823596977473"><ele>366.0</ele><time>2026-04-30T12:41:39.001Z</time></trkpt><trkpt lat="39.304026114688874" lon="9.384971713972565"><ele>365.5</ele><time>2026-04-30T12:41:40.001Z</time></trkpt><trkpt lat="39.30409625355663" lon="9.385108816204593"><ele>365.0</ele><time>2026-04-30T12:41:41.001Z</time></trkpt><trkpt lat="39.30422830219305" lon="9.385205771503514"><ele>364.5</ele><time>2026-04-30T12:41:42.001Z</time></trkpt><trkpt lat="39.30438375575001" lon="9.385264861536395"><ele>364.0</ele><time>2026-04-30T12:41:43.001Z</time></trkpt><trkpt lat="39.304566395104075" lon="9.385291743229061"><ele>372.66666666666663</ele><time>2026-04-30T12:41:44.001Z</time></trkpt><trkpt lat="39.30477362485115" lon="9.385275500794501"><ele>381.3333333333333</ele><time>2026-04-30T12:41:45.001Z</time></trkpt><trkpt lat="39.30493046673966" lon="9.385288122224573"><ele>390.0</ele><time>2026-04-30T12:41:46.001Z</time></trkpt><trkpt lat="39.30505776523484" lon="9.385356185218988"><ele>390.0</ele><time>2026-04-30T12:41:47.001Z</time></trkpt><trkpt lat="39.305138461057375" lon="9.38547913435417"><ele>390.0</ele><time>2026-04-30T12:41:48.001Z</time></trkpt><trkpt lat="39.3051688657992" lon="9.385655523703809"><ele>390.0</ele><time>2026-04-30T12:41:49.001Z</time></trkpt><trkpt lat="39.30514938848397" lon="9.385823477345573"><ele>390.0</ele><time>2026-04-30T12:41:50.001Z</time></trkpt><trkpt lat="39.30506035147861" lon="9.385949781176341"><ele>388.5</ele><time>2026-04-30T12:41:51.001Z</time></trkpt><trkpt lat="39.30497529057797" lon="9.38606003083618"><ele>387.0</ele><time>2026-04-30T12:41:52.001Z</time></trkpt><trkpt lat="39.304940644168575" lon="9.386200275202722"><ele>385.5</ele><time>2026-04-30T12:41:53.001Z</time></trkpt><trkpt lat="39.30499190870394" lon="9.386343842230891"><ele>384.0</ele><time>2026-04-30T12:41:54.001Z</time></trkpt><trkpt lat="39.305078909706396" lon="9.386446623177923"><ele>384.0</ele><time>2026-04-30T12:41:55.001Z</time></trkpt><trkpt lat="39.30519617499558" lon="9.38653201696048"><ele>384.0</ele><time>2026-04-30T12:41:56.001Z</time></trkpt><trkpt lat="39.305318076059116" lon="9.386635583393286"><ele>384.0</ele><time>2026-04-30T12:41:57.001Z</time></trkpt><trkpt lat="39.305352422905194" lon="9.386792137114623"><ele>384.0</ele><time>2026-04-30T12:41:58.001Z</time></trkpt><trkpt lat="39.30530874920143" lon="9.386942609814552"><ele>384.0</ele><time>2026-04-30T12:41:59.001Z</time></trkpt><trkpt lat="39.30520375140695" lon="9.387062844651334"><ele>384.0</ele><time>2026-04-30T12:42:00.001Z</time></trkpt><trkpt lat="39.30507827070135" lon="9.387192126922434"><ele>384.0</ele><time>2026-04-30T12:42:01.001Z</time></trkpt><trkpt lat="39.304995237167205" lon="9.387352592072865"><ele>386.33333333333337</ele><time>2026-04-30T12:42:02.001Z</time></trkpt><trkpt lat="39.304998373685436" lon="9.387529933381883"><ele>388.6666666666667</ele><time>2026-04-30T12:42:03.001Z</time></trkpt><trkpt lat="39.30508014299288" lon="9.387696019543831"><ele>391.0</ele><time>2026-04-30T12:42:04.001Z</time></trkpt><trkpt lat="39.30519960285602" lon="9.38783397158696"><ele>391.0</ele><time>2026-04-30T12:42:05.001Z</time></trkpt><trkpt lat="39.30528630591409" lon="9.387986685537768"><ele>391.0</ele><time>2026-04-30T12:42:06.001Z</time></trkpt><trkpt lat="39.30526584772986" lon="9.388153100958666"><ele>391.0</ele><time>2026-04-30T12:42:07.001Z</time></trkpt><trkpt lat="39.30518747671068" lon="9.388330171610248"><ele>391.0</ele><time>2026-04-30T12:42:08Z</time></trkpt><trkpt lat="39.305131133081154" lon="9.388527260579133"><ele>393.33333333333337</ele><time>2026-04-30T12:42:09Z</time></trkpt><trkpt lat="39.30515377651787" lon="9.388736923507636"><ele>395.66666666666663</ele><time>2026-04-30T12:42:10Z</time></trkpt><trkpt lat="39.305206878126775" lon="9.388919744897311"><ele>398.0</ele><time>2026-04-30T12:42:11Z</time></trkpt><trkpt lat="39.305217007438344" lon="9.389096188698371"><ele>399.5</ele><time>2026-04-30T12:42:12Z</time></trkpt><trkpt lat="39.30516901149233" lon="9.389248381392637"><ele>401.0</ele><time>2026-04-30T12:42:13Z</time></trkpt><trkpt lat="39.30504917044363" lon="9.389325495529235"><ele>402.5</ele><time>2026-04-30T12:42:14Z</time></trkpt><trkpt lat="39.30489383779668" lon="9.389288380484942"><ele>404.0</ele><time>2026-04-30T12:42:15Z</time></trkpt><trkpt lat="39.30474458076446" lon="9.389188651846144"><ele>404.0</ele><time>2026-04-30T12:42:16Z</time></trkpt><trkpt lat="39.30458862606326" lon="9.38908725694405"><ele>404.0</ele><time>2026-04-30T12:42:17Z</time></trkpt><trkpt lat="39.30445297846444" lon="9.38900341081445"><ele>404.0</ele><time>2026-04-30T12:42:18Z</time></trkpt><trkpt lat="39.30432301776563" lon="9.389018700308869"><ele>404.0</ele><time>2026-04-30T12:42:19Z</time></trkpt><trkpt lat="39.304227165574076" lon="9.389121761875217"><ele>404.0</ele><time>2026-04-30T12:42:20Z</time></trkpt><trkpt lat="39.30420762397424" lon="9.389271356606345"><ele>404.0</ele><time>2026-04-30T12:42:21Z</time></trkpt><trkpt lat="39.30426367775494" lon="9.389450092253494"><ele>404.0</ele><time>2026-04-30T12:42:22Z</time></trkpt><trkpt lat="39.304348635401304" lon="9.389655526903129"><ele>404.3333333333333</ele><time>2026-04-30T12:42:23Z</time></trkpt><trkpt lat="39.30442938066151" lon="9.389888814103585"><ele>404.66666666666663</ele><time>2026-04-30T12:42:24Z</time></trkpt><trkpt lat="39.30450719594812" lon="9.390103590427435"><ele>405.0</ele><time>2026-04-30T12:42:25Z</time></trkpt><trkpt lat="39.30461481285468" lon="9.390261979828914"><ele>410.33333333333337</ele><time>2026-04-30T12:42:26Z</time></trkpt><trkpt lat="39.304765244688596" lon="9.39038511909168"><ele>415.6666666666667</ele><time>2026-04-30T12:42:27Z</time></trkpt><trkpt lat="39.30493868747468" lon="9.390486308542503"><ele>421.0</ele><time>2026-04-30T12:42:28Z</time></trkpt><trkpt lat="39.30512084324411" lon="9.390547260002618"><ele>421.0</ele><time>2026-04-30T12:42:29Z</time></trkpt><trkpt lat="39.30528081242909" lon="9.39059845326691"><ele>421.0</ele><time>2026-04-30T12:42:30Z</time></trkpt><trkpt lat="39.30540235385083" lon="9.390688991271954"><ele>421.0</ele><time>2026-04-30T12:42:31Z</time></trkpt><trkpt lat="39.305488214467424" lon="9.390810000842823"><ele>421.0</ele><time>2026-04-30T12:42:32Z</time></trkpt><trkpt lat="39.30556657309004" lon="9.390940153638846"><ele>423.75</ele><time>2026-04-30T12:42:33Z</time></trkpt><trkpt lat="39.30563915568427" lon="9.391081387998913"><ele>426.5</ele><time>2026-04-30T12:42:34Z</time></trkpt><trkpt lat="39.305678631462555" lon="9.391233470848913"><ele>429.25</ele><time>2026-04-30T12:42:35Z</time></trkpt><trkpt lat="39.30569976687428" lon="9.391402479044565"><ele>432.0</ele><time>2026-04-30T12:42:36Z</time></trkpt><trkpt lat="39.305725688158866" lon="9.391622629477643"><ele>432.0</ele><time>2026-04-30T12:42:37Z</time></trkpt><trkpt lat="39.30575128398523" lon="9.391872622844627"><ele>432.0</ele><time>2026-04-30T12:42:38Z</time></trkpt><trkpt lat="39.305800369174875" lon="9.392126909267839"><ele>432.0</ele><time>2026-04-30T12:42:39Z</time></trkpt><trkpt lat="39.30588215799379" lon="9.392368336419507"><ele>432.33333333333337</ele><time>2026-04-30T12:42:40Z</time></trkpt><trkpt lat="39.3059752731105" lon="9.392621630858422"><ele>432.6666666666667</ele><time>2026-04-30T12:42:41Z</time></trkpt><trkpt lat="39.30605751479428" lon="9.392876761056097"><ele>433.0</ele><time>2026-04-30T12:42:42Z</time></trkpt><trkpt lat="39.30612430930278" lon="9.393123674194822"><ele>433.33333333333337</ele><time>2026-04-30T12:42:43Z</time></trkpt><trkpt lat="39.30617164768725" lon="9.393364959442522"><ele>433.66666666666663</ele><time>2026-04-30T12:42:44Z</time></trkpt><trkpt lat="39.30617919896923" lon="9.393601036456907"><ele>434.0</ele><time>2026-04-30T12:42:45Z</time></trkpt><trkpt lat="39.30619423536173" lon="9.393838206964663"><ele>435.0</ele><time>2026-04-30T12:42:46Z</time></trkpt><trkpt lat="39.306231884269764" lon="9.394066559832455"><ele>436.0</ele><time>2026-04-30T12:42:47Z</time></trkpt><trkpt lat="39.30626934158769" lon="9.394282128156926"><ele>437.0</ele><time>2026-04-30T12:42:48Z</time></trkpt><trkpt lat="39.306294651128376" lon="9.39448142267649"><ele>437.0</ele><time>2026-04-30T12:42:49Z</time></trkpt><trkpt lat="39.30629955675933" lon="9.394662223819042"><ele>437.0</ele><time>2026-04-30T12:42:50Z</time></trkpt><trkpt lat="39.30626044947311" lon="9.394831954710323"><ele>437.0</ele><time>2026-04-30T12:42:51Z</time></trkpt><trkpt lat="39.30619783149639" lon="9.394984665681916"><ele>437.0</ele><time>2026-04-30T12:42:52Z</time></trkpt><trkpt lat="39.30617439825672" lon="9.395138553662214"><ele>436.0</ele><time>2026-04-30T12:42:53Z</time></trkpt><trkpt lat="39.306218733190015" lon="9.395289944216307"><ele>435.0</ele><time>2026-04-30T12:42:54Z</time></trkpt><trkpt lat="39.306318029596554" lon="9.395387966560284"><ele>434.0</ele><time>2026-04-30T12:42:55Z</time></trkpt><trkpt lat="39.30646982876702" lon="9.395457166032879"><ele>433.0</ele><time>2026-04-30T12:42:56Z</time></trkpt><trkpt lat="39.3066389945788" lon="9.395495981391843"><ele>427.0</ele><time>2026-04-30T12:42:57Z</time></trkpt><trkpt lat="39.306786608398646" lon="9.395540236932101"><ele>421.0</ele><time>2026-04-30T12:42:58Z</time></trkpt><trkpt lat="39.30696639170333" lon="9.395586172684828"><ele>415.0</ele><time>2026-04-30T12:42:59Z</time></trkpt><trkpt lat="39.30715743779255" lon="9.395642407462429"><ele>411.33333333333337</ele><time>2026-04-30T12:43:00Z</time></trkpt><trkpt lat="39.30734905300509" lon="9.395704491918352"><ele>407.66666666666663</ele><time>2026-04-30T12:43:01Z</time></trkpt><trkpt lat="39.30751325831475" lon="9.395781340902001"><ele>404.0</ele><time>2026-04-30T12:43:02Z</time></trkpt><trkpt lat="39.30768284874959" lon="9.39584829250844"><ele>404.0</ele><time>2026-04-30T12:43:03Z</time></trkpt><trkpt lat="39.307843890185346" lon="9.395933386663925"><ele>404.0</ele><time>2026-04-30T12:43:04Z</time></trkpt><trkpt lat="39.30799238050523" lon="9.39603644561128"><ele>404.0</ele><time>2026-04-30T12:43:05Z</time></trkpt><trkpt lat="39.30810623178586" lon="9.39617376133648"><ele>399.66666666666663</ele><time>2026-04-30T12:43:06Z</time></trkpt><trkpt lat="39.308165551858394" lon="9.396377224683953"><ele>395.33333333333337</ele><time>2026-04-30T12:43:07Z</time></trkpt><trkpt lat="39.3082118281638" lon="9.396601284002028"><ele>391.0</ele><time>2026-04-30T12:43:08Z</time></trkpt><trkpt lat="39.30826702054063" lon="9.39682672983424"><ele>391.0</ele><time>2026-04-30T12:43:09.001Z</time></trkpt><trkpt lat="39.308328701248854" lon="9.397029244753377"><ele>391.0</ele><time>2026-04-30T12:43:10.001Z</time></trkpt><trkpt lat="39.308367784423965" lon="9.397222532514919"><ele>391.0</ele><time>2026-04-30T12:43:11.001Z</time></trkpt><trkpt lat="39.30837522890332" lon="9.397413555139948"><ele>391.5</ele><time>2026-04-30T12:43:12.001Z</time></trkpt><trkpt lat="39.30836474402444" lon="9.397597519071411"><ele>392.0</ele><time>2026-04-30T12:43:13.001Z</time></trkpt><trkpt lat="39.30834445375407" lon="9.397787603642099"><ele>392.5</ele><time>2026-04-30T12:43:14.001Z</time></trkpt><trkpt lat="39.308326807970765" lon="9.39796415456057"><ele>393.0</ele><time>2026-04-30T12:43:15.001Z</time></trkpt><trkpt lat="39.30831717656244" lon="9.398135198934831"><ele>392.0</ele><time>2026-04-30T12:43:16.002Z</time></trkpt><trkpt lat="39.30830210628805" lon="9.39830913258227"><ele>391.0</ele><time>2026-04-30T12:43:17.001Z</time></trkpt><trkpt lat="39.30830351692379" lon="9.39849192481232"><ele>390.0</ele><time>2026-04-30T12:43:18.001Z</time></trkpt><trkpt lat="39.308331857866925" lon="9.398686378667012"><ele>389.0</ele><time>2026-04-30T12:43:19.001Z</time></trkpt><trkpt lat="39.30839654056835" lon="9.398871298893532"><ele>387.75</ele><time>2026-04-30T12:43:20.001Z</time></trkpt><trkpt lat="39.3084992057674" lon="9.399036158820376"><ele>386.5</ele><time>2026-04-30T12:43:21.001Z</time></trkpt><trkpt lat="39.308594046140634" lon="9.399169448628987"><ele>385.25</ele><time>2026-04-30T12:43:22.001Z</time></trkpt><trkpt lat="39.30867036963051" lon="9.399286988331351"><ele>384.0</ele><time>2026-04-30T12:43:23.001Z</time></trkpt><trkpt lat="39.30873767109238" lon="9.399397151611046"><ele>384.0</ele><time>2026-04-30T12:43:24.001Z</time></trkpt><trkpt lat="39.30881020658154" lon="9.39950161978159"><ele>384.0</ele><time>2026-04-30T12:43:25.001Z</time></trkpt><trkpt lat="39.30890702624374" lon="9.399591019389874"><ele>384.0</ele><time>2026-04-30T12:43:26.001Z</time></trkpt><trkpt lat="39.309005915299736" lon="9.399618371718592"><ele>384.0</ele><time>2026-04-30T12:43:27.001Z</time></trkpt><trkpt lat="39.309109601850075" lon="9.399599309342184"><ele>384.0</ele><time>2026-04-30T12:43:28.001Z</time></trkpt><trkpt lat="39.30922027628964" lon="9.399534051607398"><ele>382.3333333333333</ele><time>2026-04-30T12:43:29.001Z</time></trkpt><trkpt lat="39.30934121920794" lon="9.39942766764261"><ele>380.66666666666663</ele><time>2026-04-30T12:43:30.001Z</time></trkpt><trkpt lat="39.30948403631882" lon="9.399300265821038"><ele>379.0</ele><time>2026-04-30T12:43:31.001Z</time></trkpt><trkpt lat="39.309644203345385" lon="9.399163950117526"><ele>380.66666666666663</ele><time>2026-04-30T12:43:32.001Z</time></trkpt><trkpt lat="39.309798397603146" lon="9.399044195308791"><ele>382.3333333333333</ele><time>2026-04-30T12:43:33.001Z</time></trkpt><trkpt lat="39.30996060444071" lon="9.39901121835835"><ele>384.0</ele><time>2026-04-30T12:43:34.001Z</time></trkpt><trkpt lat="39.310144134393205" lon="9.399028667044467"><ele>384.0</ele><time>2026-04-30T12:43:35.001Z</time></trkpt><trkpt lat="39.310352192524235" lon="9.399052920018194"><ele>384.0</ele><time>2026-04-30T12:43:36.001Z</time></trkpt><trkpt lat="39.31056593921847" lon="9.399071287855078"><ele>384.0</ele><time>2026-04-30T12:43:37.001Z</time></trkpt><trkpt lat="39.310756056735784" lon="9.399094098818384"><ele>383.0</ele><time>2026-04-30T12:43:38.001Z</time></trkpt><trkpt lat="39.31091254535606" lon="9.39915358999099"><ele>382.0</ele><time>2026-04-30T12:43:39.001Z</time></trkpt><trkpt lat="39.311030348094526" lon="9.399311602355827"><ele>381.0</ele><time>2026-04-30T12:43:40.001Z</time></trkpt><trkpt lat="39.311148132177365" lon="9.399517640305096"><ele>384.33333333333337</ele><time>2026-04-30T12:43:41.001Z</time></trkpt><trkpt lat="39.311218302905424" lon="9.399737848712093"><ele>387.6666666666667</ele><time>2026-04-30T12:43:42.001Z</time></trkpt><trkpt lat="39.31120283494523" lon="9.399949215376292"><ele>391.0</ele><time>2026-04-30T12:43:43.001Z</time></trkpt><trkpt lat="39.31116273869061" lon="9.400193785701143"><ele>391.0</ele><time>2026-04-30T12:43:44.001Z</time></trkpt><trkpt lat="39.311139317544686" lon="9.400452276582971"><ele>391.0</ele><time>2026-04-30T12:43:45.001Z</time></trkpt><trkpt lat="39.311147557187525" lon="9.400663049357886"><ele>391.0</ele><time>2026-04-30T12:43:46.001Z</time></trkpt><trkpt lat="39.31122734657162" lon="9.400819518670653"><ele>392.33333333333337</ele><time>2026-04-30T12:43:47.001Z</time></trkpt><trkpt lat="39.31138652868998" lon="9.400917656439791"><ele>393.66666666666663</ele><time>2026-04-30T12:43:48.001Z</time></trkpt><trkpt lat="39.31156716914866" lon="9.40099868403947"><ele>395.0</ele><time>2026-04-30T12:43:49.001Z</time></trkpt><trkpt lat="39.3117592227036" lon="9.40110468437909"><ele>396.0</ele><time>2026-04-30T12:43:50.001Z</time></trkpt><trkpt lat="39.31190500491409" lon="9.40124845493785"><ele>397.0</ele><time>2026-04-30T12:43:51.001Z</time></trkpt><trkpt lat="39.31200515776316" lon="9.401446024532317"><ele>398.0</ele><time>2026-04-30T12:43:52.001Z</time></trkpt><trkpt lat="39.31208740669481" lon="9.40167568659552"><ele>398.0</ele><time>2026-04-30T12:43:53.001Z</time></trkpt><trkpt lat="39.31216929373575" lon="9.40192223743083"><ele>398.0</ele><time>2026-04-30T12:43:54.001Z</time></trkpt><trkpt lat="39.312257975341446" lon="9.402164031300869"><ele>398.0</ele><time>2026-04-30T12:43:55.001Z</time></trkpt><trkpt lat="39.312358009336705" lon="9.402361210889838"><ele>394.3333333333333</ele><time>2026-04-30T12:43:56.001Z</time></trkpt><trkpt lat="39.31250083175061" lon="9.402474602743178"><ele>390.66666666666663</ele><time>2026-04-30T12:43:57.001Z</time></trkpt><trkpt lat="39.312671736629625" lon="9.402513340982855"><ele>387.0</ele><time>2026-04-30T12:43:58.001Z</time></trkpt><trkpt lat="39.31284652275991" lon="9.40246155801136"><ele>387.0</ele><time>2026-04-30T12:43:59.001Z</time></trkpt><trkpt lat="39.31303773482771" lon="9.402348129255568"><ele>387.0</ele><time>2026-04-30T12:44:00.001Z</time></trkpt><trkpt lat="39.31323705185665" lon="9.40218743670556"><ele>387.0</ele><time>2026-04-30T12:44:01.001Z</time></trkpt><trkpt lat="39.31343556677728" lon="9.402018882202304"><ele>386.66666666666663</ele><time>2026-04-30T12:44:02.001Z</time></trkpt><trkpt lat="39.31361924133273" lon="9.401848631837428"><ele>386.3333333333333</ele><time>2026-04-30T12:44:03.001Z</time></trkpt><trkpt lat="39.31379842739389" lon="9.401730993014377"><ele>386.0</ele><time>2026-04-30T12:44:04.001Z</time></trkpt><trkpt lat="39.31399944225941" lon="9.401702112298036"><ele>386.0</ele><time>2026-04-30T12:44:05.001Z</time></trkpt><trkpt lat="39.31421031128369" lon="9.401683300757027"><ele>386.0</ele><time>2026-04-30T12:44:06.001Z</time></trkpt><trkpt lat="39.314435083012015" lon="9.401661196222937"><ele>386.0</ele><time>2026-04-30T12:44:07.001Z</time></trkpt><trkpt lat="39.31466103675477" lon="9.401604760399568"><ele>394.5</ele><time>2026-04-30T12:44:08.001Z</time></trkpt><trkpt lat="39.31488541835656" lon="9.401490751325067"><ele>403.0</ele><time>2026-04-30T12:44:09.001Z</time></trkpt><trkpt lat="39.31509174331774" lon="9.401367182649423"><ele>398.6666666666667</ele><time>2026-04-30T12:44:10.001Z</time></trkpt><trkpt lat="39.315273540450455" lon="9.40127400619342"><ele>394.33333333333337</ele><time>2026-04-30T12:44:11.001Z</time></trkpt><trkpt lat="39.31544930583367" lon="9.401251365062482"><ele>390.0</ele><time>2026-04-30T12:44:12.001Z</time></trkpt><trkpt lat="39.31564056648201" lon="9.401298506465194"><ele>396.0</ele><time>2026-04-30T12:44:13.001Z</time></trkpt><trkpt lat="39.31584586767658" lon="9.401353253642291"><ele>402.0</ele><time>2026-04-30T12:44:14.001Z</time></trkpt><trkpt lat="39.31606706378296" lon="9.401412832101231"><ele>408.0</ele><time>2026-04-30T12:44:15.001Z</time></trkpt><trkpt lat="39.316285652429606" lon="9.401469502134798"><ele>407.0</ele><time>2026-04-30T12:44:16.001Z</time></trkpt><trkpt lat="39.3164925040598" lon="9.401526595022327"><ele>406.0</ele><time>2026-04-30T12:44:17.001Z</time></trkpt><trkpt lat="39.31668763045339" lon="9.401550701365503"><ele>405.0</ele><time>2026-04-30T12:44:18.001Z</time></trkpt><trkpt lat="39.31688274345473" lon="9.40150827846511"><ele>405.0</ele><time>2026-04-30T12:44:19.001Z</time></trkpt><trkpt lat="39.31709482530993" lon="9.40145876135139"><ele>405.0</ele><time>2026-04-30T12:44:20.001Z</time></trkpt><trkpt lat="39.31731732368287" lon="9.40145539179091"><ele>405.0</ele><time>2026-04-30T12:44:21.001Z</time></trkpt><trkpt lat="39.31753143356711" lon="9.401457987917818"><ele>405.0</ele><time>2026-04-30T12:44:22.001Z</time></trkpt><trkpt lat="39.31773909970459" lon="9.401455753197034"><ele>405.0</ele><time>2026-04-30T12:44:23.001Z</time></trkpt><trkpt lat="39.317944359695545" lon="9.401470902665153"><ele>405.0</ele><time>2026-04-30T12:44:24.001Z</time></trkpt><trkpt lat="39.31813530974292" lon="9.401536648716895"><ele>403.0</ele><time>2026-04-30T12:44:25.001Z</time></trkpt><trkpt lat="39.31830697807011" lon="9.401619340443432"><ele>401.0</ele><time>2026-04-30T12:44:26.001Z</time></trkpt><trkpt lat="39.31846367637127" lon="9.401671770275719"><ele>399.0</ele><time>2026-04-30T12:44:27.001Z</time></trkpt><trkpt lat="39.318608562264835" lon="9.40161066498008"><ele>399.0</ele><time>2026-04-30T12:44:28.001Z</time></trkpt><trkpt lat="39.31873795351995" lon="9.401456359541116"><ele>399.0</ele><time>2026-04-30T12:44:29.001Z</time></trkpt><trkpt lat="39.31889292855987" lon="9.401284224155585"><ele>399.0</ele><time>2026-04-30T12:44:30.001Z</time></trkpt><trkpt lat="39.31905290680063" lon="9.401163515607353"><ele>392.0</ele><time>2026-04-30T12:44:31.001Z</time></trkpt><trkpt lat="39.31922938383739" lon="9.401090250571766"><ele>385.0</ele><time>2026-04-30T12:44:32.001Z</time></trkpt><trkpt lat="39.31942443196808" lon="9.401073735332655"><ele>378.0</ele><time>2026-04-30T12:44:33.001Z</time></trkpt><trkpt lat="39.319620621066626" lon="9.40110937130068"><ele>375.0</ele><time>2026-04-30T12:44:34.001Z</time></trkpt><trkpt lat="39.31981226723089" lon="9.401201381580732"><ele>372.0</ele><time>2026-04-30T12:44:35.001Z</time></trkpt><trkpt lat="39.31998371771073" lon="9.40133369374937"><ele>369.0</ele><time>2026-04-30T12:44:36.001Z</time></trkpt><trkpt lat="39.320151156440154" lon="9.401470134732456"><ele>375.33333333333337</ele><time>2026-04-30T12:44:37.001Z</time></trkpt><trkpt lat="39.32030991110478" lon="9.401610281699433"><ele>381.6666666666667</ele><time>2026-04-30T12:44:38.001Z</time></trkpt><trkpt lat="39.32045159206743" lon="9.401744971748316"><ele>388.0</ele><time>2026-04-30T12:44:39.001Z</time></trkpt><trkpt lat="39.320599226446596" lon="9.401802548185614"><ele>388.0</ele><time>2026-04-30T12:44:40.001Z</time></trkpt><trkpt lat="39.320768075442935" lon="9.401751602676134"><ele>388.0</ele><time>2026-04-30T12:44:41Z</time></trkpt><trkpt lat="39.320952478925626" lon="9.401652792765303"><ele>388.0</ele><time>2026-04-30T12:44:42Z</time></trkpt><trkpt lat="39.321158614837934" lon="9.401625051967983"><ele>388.0</ele><time>2026-04-30T12:44:43Z</time></trkpt><trkpt lat="39.32134664845316" lon="9.401651434063803"><ele>388.0</ele><time>2026-04-30T12:44:44Z</time></trkpt><trkpt lat="39.32151663543512" lon="9.401609060087063"><ele>388.0</ele><time>2026-04-30T12:44:45Z</time></trkpt><trkpt lat="39.321676351439635" lon="9.401485420907195"><ele>376.0</ele><time>2026-04-30T12:44:46Z</time></trkpt><trkpt lat="39.321837415528144" lon="9.40131328752658"><ele>364.0</ele><time>2026-04-30T12:44:47Z</time></trkpt><trkpt lat="39.32201508087467" lon="9.401154115284513"><ele>352.0</ele><time>2026-04-30T12:44:48Z</time></trkpt><trkpt lat="39.3221883361436" lon="9.400996698742615"><ele>354.66666666666663</ele><time>2026-04-30T12:44:49Z</time></trkpt><trkpt lat="39.322350668468104" lon="9.400851179460128"><ele>357.3333333333333</ele><time>2026-04-30T12:44:50Z</time></trkpt><trkpt lat="39.322475799660054" lon="9.400678533242125"><ele>360.0</ele><time>2026-04-30T12:44:51Z</time></trkpt><trkpt lat="39.32255941648735" lon="9.400464102062488"><ele>360.0</ele><time>2026-04-30T12:44:52Z</time></trkpt><trkpt lat="39.32263599022764" lon="9.400223058186201"><ele>360.0</ele><time>2026-04-30T12:44:53Z</time></trkpt><trkpt lat="39.32273916473921" lon="9.399990841595042"><ele>360.0</ele><time>2026-04-30T12:44:54Z</time></trkpt><trkpt lat="39.32284929616459" lon="9.399786056055374"><ele>359.0</ele><time>2026-04-30T12:44:55Z</time></trkpt><trkpt lat="39.322961421804436" lon="9.399606255229603"><ele>358.0</ele><time>2026-04-30T12:44:56Z</time></trkpt><trkpt lat="39.32302511705417" lon="9.399407441884783"><ele>357.0</ele><time>2026-04-30T12:44:57Z</time></trkpt><trkpt lat="39.323016096993875" lon="9.39918522111034"><ele>357.0</ele><time>2026-04-30T12:44:58Z</time></trkpt><trkpt lat="39.322927857519566" lon="9.398950038612627"><ele>357.0</ele><time>2026-04-30T12:44:59Z</time></trkpt><trkpt lat="39.32279356996118" lon="9.398731093985273"><ele>357.0</ele><time>2026-04-30T12:45:00Z</time></trkpt><trkpt lat="39.32265588489001" lon="9.398513046031884"><ele>361.0</ele><time>2026-04-30T12:45:01Z</time></trkpt><trkpt lat="39.3225329039231" lon="9.398265567768055"><ele>365.0</ele><time>2026-04-30T12:45:02Z</time></trkpt><trkpt lat="39.32242699205794" lon="9.39803139023639"><ele>369.0</ele><time>2026-04-30T12:45:03Z</time></trkpt><trkpt lat="39.32231437699203" lon="9.397837523091322"><ele>363.3333333333333</ele><time>2026-04-30T12:45:04Z</time></trkpt><trkpt lat="39.32217870236211" lon="9.397694850312172"><ele>357.66666666666663</ele><time>2026-04-30T12:45:05Z</time></trkpt><trkpt lat="39.32206928373818" lon="9.397577840083235"><ele>352.0</ele><time>2026-04-30T12:45:06Z</time></trkpt><trkpt lat="39.322038070303684" lon="9.397407577521019"><ele>352.0</ele><time>2026-04-30T12:45:07Z</time></trkpt><trkpt lat="39.32209018861375" lon="9.397233759333718"><ele>352.0</ele><time>2026-04-30T12:45:08Z</time></trkpt><trkpt lat="39.32219301409441" lon="9.397053079406309"><ele>352.0</ele><time>2026-04-30T12:45:09Z</time></trkpt><trkpt lat="39.32231457652818" lon="9.396853675454752"><ele>351.0</ele><time>2026-04-30T12:45:10Z</time></trkpt><trkpt lat="39.322451235497276" lon="9.396641130599274"><ele>350.0</ele><time>2026-04-30T12:45:11Z</time></trkpt><trkpt lat="39.322574163033266" lon="9.39643572315242"><ele>349.0</ele><time>2026-04-30T12:45:12Z</time></trkpt><trkpt lat="39.32269574737965" lon="9.396238281741617"><ele>349.0</ele><time>2026-04-30T12:45:13Z</time></trkpt><trkpt lat="39.322820891114304" lon="9.396053437069439"><ele>349.0</ele><time>2026-04-30T12:45:14Z</time></trkpt><trkpt lat="39.32298004823771" lon="9.395925885154837"><ele>349.0</ele><time>2026-04-30T12:45:15.001Z</time></trkpt><trkpt lat="39.3231555452282" lon="9.395828560261661"><ele>354.66666666666663</ele><time>2026-04-30T12:45:16Z</time></trkpt><trkpt lat="39.323322220847366" lon="9.39575467942379"><ele>360.3333333333333</ele><time>2026-04-30T12:45:17Z</time></trkpt><trkpt lat="39.323488795523495" lon="9.39573517151577"><ele>366.0</ele><time>2026-04-30T12:45:18.001Z</time></trkpt><trkpt lat="39.32365654784094" lon="9.395784383315705"><ele>366.0</ele><time>2026-04-30T12:45:19.001Z</time></trkpt><trkpt lat="39.32380442327191" lon="9.395884613935765"><ele>366.0</ele><time>2026-04-30T12:45:20Z</time></trkpt><trkpt lat="39.32392374787034" lon="9.396043975593264"><ele>366.0</ele><time>2026-04-30T12:45:21.001Z</time></trkpt><trkpt lat="39.32402520124763" lon="9.396237455613736"><ele>366.3333333333333</ele><time>2026-04-30T12:45:22.001Z</time></trkpt><trkpt lat="39.324144880988804" lon="9.396413828388132"><ele>366.66666666666663</ele><time>2026-04-30T12:45:23.001Z</time></trkpt><trkpt lat="39.32429703064679" lon="9.39654355697562"><ele>367.0</ele><time>2026-04-30T12:45:24.001Z</time></trkpt><trkpt lat="39.32445529557377" lon="9.396641319162413"><ele>367.0</ele><time>2026-04-30T12:45:25.001Z</time></trkpt><trkpt lat="39.32460907144404" lon="9.396743681098945"><ele>367.0</ele><time>2026-04-30T12:45:26.001Z</time></trkpt><trkpt lat="39.32471974794533" lon="9.396872750974406"><ele>367.0</ele><time>2026-04-30T12:45:27Z</time></trkpt><trkpt lat="39.324771184624346" lon="9.397063598574304"><ele>361.66666666666663</ele><time>2026-04-30T12:45:28.001Z</time></trkpt><trkpt lat="39.3248009292917" lon="9.3972868454223"><ele>356.3333333333333</ele><time>2026-04-30T12:45:29.001Z</time></trkpt><trkpt lat="39.32484060517091" lon="9.397524178672198"><ele>351.0</ele><time>2026-04-30T12:45:30.001Z</time></trkpt><trkpt lat="39.32488437031505" lon="9.397777669918046"><ele>352.6666666666667</ele><time>2026-04-30T12:45:31.001Z</time></trkpt><trkpt lat="39.32492586807634" lon="9.398054736603983"><ele>354.33333333333337</ele><time>2026-04-30T12:45:32.001Z</time></trkpt><trkpt lat="39.32492153337796" lon="9.398333003261504"><ele>356.0</ele><time>2026-04-30T12:45:33.001Z</time></trkpt><trkpt lat="39.324908604694464" lon="9.398602686752232"><ele>356.33333333333337</ele><time>2026-04-30T12:45:34.001Z</time></trkpt><trkpt lat="39.324930773310584" lon="9.398855026460247"><ele>356.6666666666667</ele><time>2026-04-30T12:45:35.001Z</time></trkpt><trkpt lat="39.325011648378265" lon="9.399085605514436"><ele>357.0</ele><time>2026-04-30T12:45:36.001Z</time></trkpt><trkpt lat="39.32509247794282" lon="9.399316493679509"><ele>357.0</ele><time>2026-04-30T12:45:37.001Z</time></trkpt><trkpt lat="39.32513992226417" lon="9.399556298534163"><ele>357.0</ele><time>2026-04-30T12:45:38.001Z</time></trkpt><trkpt lat="39.32517608570876" lon="9.39981089231794"><ele>357.0</ele><time>2026-04-30T12:45:39.001Z</time></trkpt><trkpt lat="39.325251266057585" lon="9.400049776297596"><ele>354.3333333333333</ele><time>2026-04-30T12:45:40.001Z</time></trkpt><trkpt lat="39.32536917477294" lon="9.400264779524715"><ele>351.66666666666663</ele><time>2026-04-30T12:45:41.001Z</time></trkpt><trkpt lat="39.32552470447043" lon="9.400451313775841"><ele>349.0</ele><time>2026-04-30T12:45:42.001Z</time></trkpt><trkpt lat="39.32569823512537" lon="9.400626778481922"><ele>349.0</ele><time>2026-04-30T12:45:43.001Z</time></trkpt><trkpt lat="39.32586593194469" lon="9.400799674735946"><ele>349.0</ele><time>2026-04-30T12:45:44.001Z</time></trkpt><trkpt lat="39.32600508728397" lon="9.400952741097038"><ele>349.0</ele><time>2026-04-30T12:45:45.001Z</time></trkpt><trkpt lat="39.32609173446785" lon="9.401090906155634"><ele>349.0</ele><time>2026-04-30T12:45:46.001Z</time></trkpt><trkpt lat="39.32609835266353" lon="9.401248800909796"><ele>349.0</ele><time>2026-04-30T12:45:47.001Z</time></trkpt><trkpt lat="39.32600295751417" lon="9.401385456182837"><ele>349.0</ele><time>2026-04-30T12:45:48.001Z</time></trkpt><trkpt lat="39.32583122077433" lon="9.40149350088583"><ele>346.3333333333333</ele><time>2026-04-30T12:45:49.001Z</time></trkpt><trkpt lat="39.32564837125685" lon="9.401609608887261"><ele>343.6666666666667</ele><time>2026-04-30T12:45:50.001Z</time></trkpt><trkpt lat="39.32549763656486" lon="9.40177530267371"><ele>341.0</ele><time>2026-04-30T12:45:51.001Z</time></trkpt><trkpt lat="39.32536873238543" lon="9.4019862954112"><ele>341.6666666666667</ele><time>2026-04-30T12:45:52.001Z</time></trkpt><trkpt lat="39.32524891781273" lon="9.402200667050941"><ele>342.3333333333333</ele><time>2026-04-30T12:45:53.001Z</time></trkpt><trkpt lat="39.32512217730141" lon="9.402382890889765"><ele>343.0</ele><time>2026-04-30T12:45:54.001Z</time></trkpt><trkpt lat="39.32497592905815" lon="9.402493241979288"><ele>343.0</ele><time>2026-04-30T12:45:55.001Z</time></trkpt><trkpt lat="39.324800880285075" lon="9.40251828218535"><ele>343.0</ele><time>2026-04-30T12:45:56.001Z</time></trkpt><trkpt lat="39.32463280918459" lon="9.402544037968097"><ele>343.0</ele><time>2026-04-30T12:45:57.001Z</time></trkpt><trkpt lat="39.324491241527895" lon="9.402590053841392"><ele>341.66666666666663</ele><time>2026-04-30T12:45:58.001Z</time></trkpt><trkpt lat="39.32440138121448" lon="9.402719441521976"><ele>340.3333333333333</ele><time>2026-04-30T12:45:59.001Z</time></trkpt><trkpt lat="39.32434741298118" lon="9.402920648822914"><ele>339.0</ele><time>2026-04-30T12:46:00.001Z</time></trkpt><trkpt lat="39.324306875369246" lon="9.40313138624706"><ele>339.0</ele><time>2026-04-30T12:46:01.001Z</time></trkpt><trkpt lat="39.324204721810474" lon="9.403296400859524"><ele>339.0</ele><time>2026-04-30T12:46:02.001Z</time></trkpt><trkpt lat="39.32404758464084" lon="9.403445331020745"><ele>339.0</ele><time>2026-04-30T12:46:03.001Z</time></trkpt><trkpt lat="39.323895093188185" lon="9.40356014549448"><ele>347.0</ele><time>2026-04-30T12:46:04.001Z</time></trkpt><trkpt lat="39.323766972768" lon="9.403676058350102"><ele>355.0</ele><time>2026-04-30T12:46:05.001Z</time></trkpt><trkpt lat="39.32369761257376" lon="9.403844031372849"><ele>363.0</ele><time>2026-04-30T12:46:06.001Z</time></trkpt><trkpt lat="39.323710967474824" lon="9.404059070275526"><ele>363.0</ele><time>2026-04-30T12:46:07.001Z</time></trkpt><trkpt lat="39.323800149803375" lon="9.40424213975832"><ele>363.0</ele><time>2026-04-30T12:46:08.001Z</time></trkpt><trkpt lat="39.32393189760422" lon="9.404407831487017"><ele>363.0</ele><time>2026-04-30T12:46:09.001Z</time></trkpt><trkpt lat="39.32408091674689" lon="9.404598487897637"><ele>355.0</ele><time>2026-04-30T12:46:10.001Z</time></trkpt><trkpt lat="39.32421496453239" lon="9.404780610659763"><ele>347.0</ele><time>2026-04-30T12:46:11.001Z</time></trkpt><trkpt lat="39.32432272150065" lon="9.404956043294527"><ele>339.0</ele><time>2026-04-30T12:46:12.001Z</time></trkpt><trkpt lat="39.32437126094538" lon="9.405166918495981"><ele>339.0</ele><time>2026-04-30T12:46:13.001Z</time></trkpt><trkpt lat="39.32439631999755" lon="9.405365062183934"><ele>339.0</ele><time>2026-04-30T12:46:14.001Z</time></trkpt><trkpt lat="39.32449551635606" lon="9.4055348690719"><ele>339.0</ele><time>2026-04-30T12:46:15.001Z</time></trkpt><trkpt lat="39.32463699482728" lon="9.405682079655671"><ele>330.0</ele><time>2026-04-30T12:46:16Z</time></trkpt><trkpt lat="39.324782580031105" lon="9.405814086045826"><ele>321.0</ele><time>2026-04-30T12:46:17Z</time></trkpt><trkpt lat="39.324903325682726" lon="9.405967597886502"><ele>312.0</ele><time>2026-04-30T12:46:18Z</time></trkpt><trkpt lat="39.3249533395738" lon="9.406157046565783"><ele>311.0</ele><time>2026-04-30T12:46:19Z</time></trkpt><trkpt lat="39.32491429704366" lon="9.406335965879068"><ele>310.0</ele><time>2026-04-30T12:46:20Z</time></trkpt><trkpt lat="39.32480407809" lon="9.406522852588633"><ele>309.0</ele><time>2026-04-30T12:46:21Z</time></trkpt><trkpt lat="39.324694820691555" lon="9.406727785381868"><ele>316.0</ele><time>2026-04-30T12:46:22Z</time></trkpt><trkpt lat="39.32460054039723" lon="9.40695303059369"><ele>323.0</ele><time>2026-04-30T12:46:23Z</time></trkpt><trkpt lat="39.32452104368297" lon="9.4071735451218"><ele>330.0</ele><time>2026-04-30T12:46:24Z</time></trkpt><trkpt lat="39.32442758870825" lon="9.40736345830847"><ele>330.0</ele><time>2026-04-30T12:46:25Z</time></trkpt><trkpt lat="39.32427915555839" lon="9.407481629252949"><ele>330.0</ele><time>2026-04-30T12:46:26Z</time></trkpt><trkpt lat="39.32413197671118" lon="9.407582628902574"><ele>330.0</ele><time>2026-04-30T12:46:27Z</time></trkpt><trkpt lat="39.32400550949241" lon="9.407690326980182"><ele>330.0</ele><time>2026-04-30T12:46:28Z</time></trkpt><trkpt lat="39.32395523603573" lon="9.407852473416387"><ele>330.0</ele><time>2026-04-30T12:46:29Z</time></trkpt><trkpt lat="39.32397858042935" lon="9.408025398620362"><ele>330.0</ele><time>2026-04-30T12:46:30Z</time></trkpt><trkpt lat="39.32408710225951" lon="9.408139989366969"><ele>330.0</ele><time>2026-04-30T12:46:31Z</time></trkpt><trkpt lat="39.32421844679619" lon="9.408197297522088"><ele>326.0</ele><time>2026-04-30T12:46:32Z</time></trkpt><trkpt lat="39.32430245249257" lon="9.408319994587345"><ele>322.0</ele><time>2026-04-30T12:46:33Z</time></trkpt><trkpt lat="39.324309752616195" lon="9.40845978682045"><ele>318.0</ele><time>2026-04-30T12:46:34Z</time></trkpt><trkpt lat="39.3242677046782" lon="9.408622696464823"><ele>314.0</ele><time>2026-04-30T12:46:35Z</time></trkpt><trkpt lat="39.32419433340991" lon="9.40882092651477"><ele>310.33333333333337</ele><time>2026-04-30T12:46:36Z</time></trkpt><trkpt lat="39.32410012885169" lon="9.409047061682196"><ele>306.6666666666667</ele><time>2026-04-30T12:46:37Z</time></trkpt><trkpt lat="39.324021904886685" lon="9.409245268398527"><ele>303.0</ele><time>2026-04-30T12:46:38Z</time></trkpt><trkpt lat="39.32395439920844" lon="9.40943324877857"><ele>303.0</ele><time>2026-04-30T12:46:39Z</time></trkpt><trkpt lat="39.323985683276966" lon="9.409654409702226"><ele>303.0</ele><time>2026-04-30T12:46:40Z</time></trkpt><trkpt lat="39.32406059751182" lon="9.40990645120132"><ele>303.0</ele><time>2026-04-30T12:46:41Z</time></trkpt><trkpt lat="39.324083412288886" lon="9.410162155470639"><ele>302.0</ele><time>2026-04-30T12:46:42Z</time></trkpt><trkpt lat="39.32409160417128" lon="9.410391630705238"><ele>301.0</ele><time>2026-04-30T12:46:43Z</time></trkpt><trkpt lat="39.324144353847544" lon="9.410575243510985"><ele>300.0</ele><time>2026-04-30T12:46:44Z</time></trkpt><trkpt lat="39.32426679635862" lon="9.410697880612926"><ele>296.0</ele><time>2026-04-30T12:46:45Z</time></trkpt><trkpt lat="39.32441969123897" lon="9.410771641744217"><ele>292.0</ele><time>2026-04-30T12:46:46Z</time></trkpt><trkpt lat="39.324600253920934" lon="9.410822944433246"><ele>288.0</ele><time>2026-04-30T12:46:47Z</time></trkpt><trkpt lat="39.32475121206072" lon="9.410878410071035"><ele>288.0</ele><time>2026-04-30T12:46:48Z</time></trkpt><trkpt lat="39.32486100701395" lon="9.410998279306256"><ele>288.0</ele><time>2026-04-30T12:46:49Z</time></trkpt><trkpt lat="39.32492826834434" lon="9.411192725948318"><ele>288.0</ele><time>2026-04-30T12:46:50Z</time></trkpt><trkpt lat="39.32500021712701" lon="9.411396136355329"><ele>293.0</ele><time>2026-04-30T12:46:51Z</time></trkpt><trkpt lat="39.32510073448495" lon="9.411568958694843"><ele>298.0</ele><time>2026-04-30T12:46:52Z</time></trkpt><trkpt lat="39.32519859957841" lon="9.41171776648344"><ele>303.0</ele><time>2026-04-30T12:46:53Z</time></trkpt><trkpt lat="39.32528650186762" lon="9.411860373060804"><ele>303.0</ele><time>2026-04-30T12:46:54Z</time></trkpt><trkpt lat="39.32534793793718" lon="9.412011316203072"><ele>303.0</ele><time>2026-04-30T12:46:55Z</time></trkpt><trkpt lat="39.32531515863516" lon="9.4121620970581"><ele>303.0</ele><time>2026-04-30T12:46:56Z</time></trkpt><trkpt lat="39.32522001663278" lon="9.412246391408578"><ele>303.0</ele><time>2026-04-30T12:46:57Z</time></trkpt><trkpt lat="39.32508640782216" lon="9.412284478347413"><ele>301.25</ele><time>2026-04-30T12:46:58Z</time></trkpt><trkpt lat="39.32493189313556" lon="9.412334843606427"><ele>299.5</ele><time>2026-04-30T12:46:59Z</time></trkpt><trkpt lat="39.32480119036781" lon="9.412408267329079"><ele>297.75</ele><time>2026-04-30T12:47:00Z</time></trkpt><trkpt lat="39.32469953552917" lon="9.412487813878954"><ele>296.0</ele><time>2026-04-30T12:47:01Z</time></trkpt><trkpt lat="39.32465841907766" lon="9.41262389723106"><ele>296.0</ele><time>2026-04-30T12:47:02Z</time></trkpt><trkpt lat="39.32467988664708" lon="9.412791625584259"><ele>296.0</ele><time>2026-04-30T12:47:03Z</time></trkpt><trkpt lat="39.324787164220034" lon="9.412976125661427"><ele>296.0</ele><time>2026-04-30T12:47:04Z</time></trkpt><trkpt lat="39.32490559700512" lon="9.413154435772649"><ele>296.0</ele><time>2026-04-30T12:47:05Z</time></trkpt><trkpt lat="39.324983193761135" lon="9.413390437501006"><ele>296.0</ele><time>2026-04-30T12:47:06Z</time></trkpt><trkpt lat="39.3250135091075" lon="9.41365857275823"><ele>296.0</ele><time>2026-04-30T12:47:07Z</time></trkpt><trkpt lat="39.325010937233856" lon="9.413916229323991"><ele>296.0</ele><time>2026-04-30T12:47:08Z</time></trkpt><trkpt lat="39.32502820255042" lon="9.414149638171953"><ele>296.0</ele><time>2026-04-30T12:47:09Z</time></trkpt><trkpt lat="39.32510838680989" lon="9.414349536699048"><ele>296.0</ele><time>2026-04-30T12:47:10Z</time></trkpt><trkpt lat="39.32523846843274" lon="9.414519617612145"><ele>298.33333333333337</ele><time>2026-04-30T12:47:11Z</time></trkpt><trkpt lat="39.3253851263609" lon="9.414663520257644"><ele>300.6666666666667</ele><time>2026-04-30T12:47:12Z</time></trkpt><trkpt lat="39.32543452842423" lon="9.4148523090662"><ele>303.0</ele><time>2026-04-30T12:47:13Z</time></trkpt><trkpt lat="39.32539883959797" lon="9.415040601737712"><ele>303.0</ele><time>2026-04-30T12:47:14Z</time></trkpt><trkpt lat="39.32532959821162" lon="9.415192815399623"><ele>303.0</ele><time>2026-04-30T12:47:15Z</time></trkpt><trkpt lat="39.32529959379735" lon="9.415376739324996"><ele>303.0</ele><time>2026-04-30T12:47:16Z</time></trkpt><trkpt lat="39.32536286687999" lon="9.415583176325148"><ele>304.6666666666667</ele><time>2026-04-30T12:47:17Z</time></trkpt><trkpt lat="39.325453775902496" lon="9.41580760830405"><ele>306.33333333333337</ele><time>2026-04-30T12:47:18Z</time></trkpt><trkpt lat="39.32554247684827" lon="9.416047769760793"><ele>308.0</ele><time>2026-04-30T12:47:19Z</time></trkpt><trkpt lat="39.32566106658343" lon="9.416277809882686"><ele>296.0</ele><time>2026-04-30T12:47:20Z</time></trkpt><trkpt lat="39.325820125800824" lon="9.41649341293998"><ele>284.0</ele><time>2026-04-30T12:47:21Z</time></trkpt><trkpt lat="39.32598219046726" lon="9.416710194351758"><ele>284.0</ele><time>2026-04-30T12:47:22Z</time></trkpt><trkpt lat="39.32612714647077" lon="9.416912361502042"><ele>284.0</ele><time>2026-04-30T12:47:23Z</time></trkpt><trkpt lat="39.32626816833247" lon="9.417093247647488"><ele>284.0</ele><time>2026-04-30T12:47:24Z</time></trkpt><trkpt lat="39.326411604752785" lon="9.417255899579741"><ele>281.6666666666667</ele><time>2026-04-30T12:47:25Z</time></trkpt><trkpt lat="39.32658580704619" lon="9.417330220001736"><ele>279.3333333333333</ele><time>2026-04-30T12:47:26Z</time></trkpt><trkpt lat="39.32678661392454" lon="9.417322940309766"><ele>277.0</ele><time>2026-04-30T12:47:27.001Z</time></trkpt><trkpt lat="39.32699204741843" lon="9.417297786832723"><ele>277.0</ele><time>2026-04-30T12:47:28Z</time></trkpt><trkpt lat="39.32717564659847" lon="9.417285228719233"><ele>277.0</ele><time>2026-04-30T12:47:29Z</time></trkpt><trkpt lat="39.32733331518171" lon="9.417306986494804"><ele>277.0</ele><time>2026-04-30T12:47:30Z</time></trkpt><trkpt lat="39.32742778661787" lon="9.417428936512664"><ele>271.0</ele><time>2026-04-30T12:47:31Z</time></trkpt><trkpt lat="39.32747119140899" lon="9.417623530337515"><ele>265.0</ele><time>2026-04-30T12:47:32Z</time></trkpt><trkpt lat="39.32744015144893" lon="9.417877821475134"><ele>259.0</ele><time>2026-04-30T12:47:33Z</time></trkpt><trkpt lat="39.3273599317808" lon="9.418115040282748"><ele>258.66666666666663</ele><time>2026-04-30T12:47:34.001Z</time></trkpt><trkpt lat="39.32723238649516" lon="9.418337190191838"><ele>258.3333333333333</ele><time>2026-04-30T12:47:35.001Z</time></trkpt><trkpt lat="39.3270786303207" lon="9.418557243403875"><ele>258.0</ele><time>2026-04-30T12:47:36.001Z</time></trkpt><trkpt lat="39.32692181095403" lon="9.418777197529387"><ele>260.0</ele><time>2026-04-30T12:47:37Z</time></trkpt><trkpt lat="39.32677141153642" lon="9.418983054168871"><ele>262.0</ele><time>2026-04-30T12:47:38Z</time></trkpt><trkpt lat="39.32662850671785" lon="9.41917912606117"><ele>264.0</ele><time>2026-04-30T12:47:39Z</time></trkpt><trkpt lat="39.32650388844674" lon="9.419375287241492"><ele>264.0</ele><time>2026-04-30T12:47:40Z</time></trkpt><trkpt lat="39.32641688298024" lon="9.419586396557664"><ele>264.0</ele><time>2026-04-30T12:47:41Z</time></trkpt><trkpt lat="39.32638082940858" lon="9.419808379093652"><ele>264.0</ele><time>2026-04-30T12:47:42Z</time></trkpt><trkpt lat="39.32638273075409" lon="9.420018857979155"><ele>263.3333333333333</ele><time>2026-04-30T12:47:43Z</time></trkpt><trkpt lat="39.32641684537966" lon="9.420211553380998"><ele>262.66666666666663</ele><time>2026-04-30T12:47:44Z</time></trkpt><trkpt lat="39.326467574996016" lon="9.42039605488125"><ele>262.0</ele><time>2026-04-30T12:47:45Z</time></trkpt><trkpt lat="39.326521994777345" lon="9.420588191378878"><ele>262.0</ele><time>2026-04-30T12:47:46Z</time></trkpt><trkpt lat="39.32658373970092" lon="9.420782022870988"><ele>262.0</ele><time>2026-04-30T12:47:47Z</time></trkpt><trkpt lat="39.32666603911505" lon="9.42097193777847"><ele>262.0</ele><time>2026-04-30T12:47:48Z</time></trkpt><trkpt lat="39.32680055205208" lon="9.42113611473551"><ele>262.0</ele><time>2026-04-30T12:47:49Z</time></trkpt><trkpt lat="39.32695864442763" lon="9.4212917695899"><ele>262.0</ele><time>2026-04-30T12:47:50Z</time></trkpt><trkpt lat="39.32709809914722" lon="9.42143847748715"><ele>262.0</ele><time>2026-04-30T12:47:51Z</time></trkpt><trkpt lat="39.32723185032699" lon="9.421581723622232"><ele>259.75</ele><time>2026-04-30T12:47:52Z</time></trkpt><trkpt lat="39.32732255592069" lon="9.421730315484497"><ele>257.5</ele><time>2026-04-30T12:47:53Z</time></trkpt><trkpt lat="39.32734303615781" lon="9.421903388525951"><ele>255.25</ele><time>2026-04-30T12:47:54Z</time></trkpt><trkpt lat="39.32727365738683" lon="9.422054619764074"><ele>253.0</ele><time>2026-04-30T12:47:55Z</time></trkpt><trkpt lat="39.32713838683047" lon="9.422181749303563"><ele>253.0</ele><time>2026-04-30T12:47:56Z</time></trkpt><trkpt lat="39.32699278388026" lon="9.42230457435897"><ele>253.0</ele><time>2026-04-30T12:47:57Z</time></trkpt><trkpt lat="39.32681395493089" lon="9.42242477624152"><ele>253.0</ele><time>2026-04-30T12:47:58Z</time></trkpt><trkpt lat="39.326630073635414" lon="9.422556992615085"><ele>253.0</ele><time>2026-04-30T12:47:59Z</time></trkpt><trkpt lat="39.32643908286285" lon="9.422711226257194"><ele>253.0</ele><time>2026-04-30T12:48:00Z</time></trkpt><trkpt lat="39.32625597244429" lon="9.422873605467721"><ele>253.0</ele><time>2026-04-30T12:48:01Z</time></trkpt><trkpt lat="39.32608584477906" lon="9.423016551598758"><ele>255.66666666666666</ele><time>2026-04-30T12:48:02Z</time></trkpt><trkpt lat="39.32592928005444" lon="9.4231537261886"><ele>258.3333333333333</ele><time>2026-04-30T12:48:03Z</time></trkpt><trkpt lat="39.325817305784255" lon="9.423314290903255"><ele>261.0</ele><time>2026-04-30T12:48:04Z</time></trkpt><trkpt lat="39.325757111252315" lon="9.423495492952021"><ele>261.0</ele><time>2026-04-30T12:48:05Z</time></trkpt><trkpt lat="39.3257573414507" lon="9.423655883050504"><ele>261.0</ele><time>2026-04-30T12:48:06Z</time></trkpt><trkpt lat="39.32579714040723" lon="9.423790566008694"><ele>261.0</ele><time>2026-04-30T12:48:07Z</time></trkpt><trkpt lat="39.32587178445084" lon="9.423889356519384"><ele>261.0</ele><time>2026-04-30T12:48:08Z</time></trkpt><trkpt lat="39.32594414382489" lon="9.423972465708388"><ele>261.0</ele><time>2026-04-30T12:48:09Z</time></trkpt><trkpt lat="39.326003616548896" lon="9.424056108061995"><ele>258.40000000000003</ele><time>2026-04-30T12:48:10Z</time></trkpt><trkpt lat="39.326058429596316" lon="9.424160924554622"><ele>255.8</ele><time>2026-04-30T12:48:11Z</time></trkpt><trkpt lat="39.32610655699242" lon="9.424279282623463"><ele>253.20000000000002</ele><time>2026-04-30T12:48:12Z</time></trkpt><trkpt lat="39.32614169998922" lon="9.424414100381272"><ele>250.60000000000002</ele><time>2026-04-30T12:48:13Z</time></trkpt><trkpt lat="39.32616423910839" lon="9.42456747550691"><ele>248.0</ele><time>2026-04-30T12:48:14Z</time></trkpt><trkpt lat="39.32618044391447" lon="9.424737997717736"><ele>246.0</ele><time>2026-04-30T12:48:15Z</time></trkpt><trkpt lat="39.3261930520297" lon="9.424922082022118"><ele>244.0</ele><time>2026-04-30T12:48:16Z</time></trkpt><trkpt lat="39.3261968269434" lon="9.425123216045423"><ele>242.0</ele><time>2026-04-30T12:48:17Z</time></trkpt><trkpt lat="39.32619537265123" lon="9.425323540215343"><ele>240.66666666666669</ele><time>2026-04-30T12:48:18Z</time></trkpt><trkpt lat="39.3261905627813" lon="9.42556591284452"><ele>239.33333333333331</ele><time>2026-04-30T12:48:19Z</time></trkpt><trkpt lat="39.32617429647218" lon="9.425793177226753"><ele>238.0</ele><time>2026-04-30T12:48:20Z</time></trkpt><trkpt lat="39.326173177889004" lon="9.42599827512157"><ele>238.0</ele><time>2026-04-30T12:48:21Z</time></trkpt><trkpt lat="39.32621413033423" lon="9.426182500409592"><ele>238.0</ele><time>2026-04-30T12:48:22Z</time></trkpt><trkpt lat="39.326315074577884" lon="9.42631575892049"><ele>238.0</ele><time>2026-04-30T12:48:23Z</time></trkpt><trkpt lat="39.32645072576448" lon="9.42635767627334"><ele>238.0</ele><time>2026-04-30T12:48:24Z</time></trkpt><trkpt lat="39.32660501907944" lon="9.426284820435873"><ele>242.66666666666666</ele><time>2026-04-30T12:48:25Z</time></trkpt><trkpt lat="39.32676735307287" lon="9.426141969200758"><ele>247.33333333333331</ele><time>2026-04-30T12:48:26Z</time></trkpt><trkpt lat="39.32694692844644" lon="9.426063591296197"><ele>252.0</ele><time>2026-04-30T12:48:27Z</time></trkpt><trkpt lat="39.32714704637987" lon="9.426093657212661"><ele>256.0</ele><time>2026-04-30T12:48:28Z</time></trkpt><trkpt lat="39.32737635751237" lon="9.426216837748008"><ele>260.0</ele><time>2026-04-30T12:48:29Z</time></trkpt><trkpt lat="39.327603480621214" lon="9.426324306340447"><ele>253.66666666666669</ele><time>2026-04-30T12:48:30Z</time></trkpt><trkpt lat="39.32782905784595" lon="9.426386722055017"><ele>247.33333333333331</ele><time>2026-04-30T12:48:31Z</time></trkpt><trkpt lat="39.32802560760946" lon="9.426462211630312"><ele>241.0</ele><time>2026-04-30T12:48:32Z</time></trkpt><trkpt lat="39.328179742876735" lon="9.426598270902115"><ele>241.0</ele><time>2026-04-30T12:48:33Z</time></trkpt><trkpt lat="39.32829308243785" lon="9.426805292830974"><ele>241.0</ele><time>2026-04-30T12:48:34Z</time></trkpt><trkpt lat="39.32835021857773" lon="9.427080153960912"><ele>241.0</ele><time>2026-04-30T12:48:35Z</time></trkpt><trkpt lat="39.32840389434164" lon="9.427342875073684"><ele>239.0</ele><time>2026-04-30T12:48:36Z</time></trkpt><trkpt lat="39.328528619917435" lon="9.427512995840484"><ele>237.0</ele><time>2026-04-30T12:48:37Z</time></trkpt><trkpt lat="39.328710609600975" lon="9.427639669078571"><ele>235.0</ele><time>2026-04-30T12:48:38Z</time></trkpt><trkpt lat="39.328947425330476" lon="9.42775260939514"><ele>235.0</ele><time>2026-04-30T12:48:39Z</time></trkpt><trkpt lat="39.32920957172197" lon="9.427856958171716"><ele>235.0</ele><time>2026-04-30T12:48:40Z</time></trkpt><trkpt lat="39.329463084829484" lon="9.428010089003493"><ele>229.0</ele><time>2026-04-30T12:48:41Z</time></trkpt><trkpt lat="39.32968267231457" lon="9.428212515716638"><ele>223.0</ele><time>2026-04-30T12:48:42Z</time></trkpt><trkpt lat="39.32989914671111" lon="9.428403535082504"><ele>222.0</ele><time>2026-04-30T12:48:43Z</time></trkpt><trkpt lat="39.33011050725416" lon="9.428590675470275"><ele>221.0</ele><time>2026-04-30T12:48:44Z</time></trkpt><trkpt lat="39.33031008221978" lon="9.428765895271015"><ele>220.66666666666669</ele><time>2026-04-30T12:48:45Z</time></trkpt><trkpt lat="39.33050320063813" lon="9.42890638409548"><ele>220.33333333333331</ele><time>2026-04-30T12:48:46Z</time></trkpt><trkpt lat="39.330709087475405" lon="9.429007304873716"><ele>220.0</ele><time>2026-04-30T12:48:47Z</time></trkpt><trkpt lat="39.33095139375738" lon="9.429018548459029"><ele>218.0</ele><time>2026-04-30T12:48:48Z</time></trkpt><trkpt lat="39.331212764997936" lon="9.429030047120817"><ele>216.0</ele><time>2026-04-30T12:48:49Z</time></trkpt><trkpt lat="39.331476243270984" lon="9.429053620314539"><ele>216.0</ele><time>2026-04-30T12:48:50Z</time></trkpt><trkpt lat="39.33173411038081" lon="9.429091476985263"><ele>216.0</ele><time>2026-04-30T12:48:51Z</time></trkpt><trkpt lat="39.33199030597658" lon="9.429121759747305"><ele>215.5</ele><time>2026-04-30T12:48:52Z</time></trkpt><trkpt lat="39.33222909568298" lon="9.429150280577499"><ele>215.0</ele><time>2026-04-30T12:48:53Z</time></trkpt><trkpt lat="39.33244478515331" lon="9.429181175479343"><ele>215.0</ele><time>2026-04-30T12:48:54Z</time></trkpt><trkpt lat="39.33264986920079" lon="9.429215508805507"><ele>215.0</ele><time>2026-04-30T12:48:55Z</time></trkpt><trkpt lat="39.33282234851113" lon="9.429279228994428"><ele>215.0</ele><time>2026-04-30T12:48:56Z</time></trkpt><trkpt lat="39.33293814599168" lon="9.429411435497286"><ele>212.66666666666669</ele><time>2026-04-30T12:48:57Z</time></trkpt><trkpt lat="39.33297572446722" lon="9.42964357236223"><ele>210.33333333333331</ele><time>2026-04-30T12:48:58Z</time></trkpt><trkpt lat="39.33297801016425" lon="9.429918725076565"><ele>208.0</ele><time>2026-04-30T12:48:59Z</time></trkpt><trkpt lat="39.33291679425365" lon="9.430223114785601"><ele>211.0</ele><time>2026-04-30T12:49:00Z</time></trkpt><trkpt lat="39.332813602434015" lon="9.43054366554453"><ele>214.0</ele><time>2026-04-30T12:49:01Z</time></trkpt><trkpt lat="39.3327148029489" lon="9.430824692994644"><ele>214.0</ele><time>2026-04-30T12:49:02Z</time></trkpt><trkpt lat="39.332658920075296" lon="9.43108535779624"><ele>214.0</ele><time>2026-04-30T12:49:03Z</time></trkpt><trkpt lat="39.33263780498718" lon="9.431349398965883"><ele>214.0</ele><time>2026-04-30T12:49:04Z</time></trkpt><trkpt lat="39.33264150780889" lon="9.431610585514168"><ele>215.0</ele><time>2026-04-30T12:49:05Z</time></trkpt><trkpt lat="39.33265668635929" lon="9.431877585401688"><ele>216.0</ele><time>2026-04-30T12:49:06Z</time></trkpt><trkpt lat="39.33262221849678" lon="9.432115666096111"><ele>217.0</ele><time>2026-04-30T12:49:07Z</time></trkpt><trkpt lat="39.33255958807779" lon="9.432335911561943"><ele>217.0</ele><time>2026-04-30T12:49:08Z</time></trkpt><trkpt lat="39.33254296468603" lon="9.432545231609268"><ele>217.0</ele><time>2026-04-30T12:49:09Z</time></trkpt><trkpt lat="39.332642584489314" lon="9.432729063807939"><ele>217.0</ele><time>2026-04-30T12:49:09.999Z</time></trkpt><trkpt lat="39.332823737948715" lon="9.432918552368246"><ele>211.5</ele><time>2026-04-30T12:49:10.999Z</time></trkpt><trkpt lat="39.33304662565573" lon="9.433154314982028"><ele>206.0</ele><time>2026-04-30T12:49:11.999Z</time></trkpt><trkpt lat="39.33321167160327" lon="9.43341481358923"><ele>209.0</ele><time>2026-04-30T12:49:12.999Z</time></trkpt><trkpt lat="39.33333334392466" lon="9.433683692758207"><ele>212.0</ele><time>2026-04-30T12:49:13.999Z</time></trkpt><trkpt lat="39.33345266529872" lon="9.433974087931782"><ele>212.0</ele><time>2026-04-30T12:49:14.999Z</time></trkpt><trkpt lat="39.33363558169451" lon="9.434260711796533"><ele>212.0</ele><time>2026-04-30T12:49:15.999Z</time></trkpt><trkpt lat="39.33384067229903" lon="9.434516483122682"><ele>220.0</ele><time>2026-04-30T12:49:16.999Z</time></trkpt><trkpt lat="39.33398653311357" lon="9.434712502929708"><ele>228.0</ele><time>2026-04-30T12:49:17.999Z</time></trkpt><trkpt lat="39.334051156319845" lon="9.4349250448359"><ele>236.0</ele><time>2026-04-30T12:49:18.999Z</time></trkpt><trkpt lat="39.33404242161235" lon="9.43515970483492"><ele>236.0</ele><time>2026-04-30T12:49:19.999Z</time></trkpt><trkpt lat="39.33396705546737" lon="9.43540582515"><ele>236.0</ele><time>2026-04-30T12:49:20.999Z</time></trkpt><trkpt lat="39.333832229450024" lon="9.435666952079474"><ele>236.0</ele><time>2026-04-30T12:49:21.999Z</time></trkpt><trkpt lat="39.33373609817996" lon="9.435926089358292"><ele>233.33333333333334</ele><time>2026-04-30T12:49:22.999Z</time></trkpt><trkpt lat="39.33371599430258" lon="9.436205397034602"><ele>230.66666666666669</ele><time>2026-04-30T12:49:23.999Z</time></trkpt><trkpt lat="39.33377641753513" lon="9.436476393104375"><ele>228.0</ele><time>2026-04-30T12:49:24.999Z</time></trkpt><trkpt lat="39.33390167213478" lon="9.436730975415943"><ele>228.0</ele><time>2026-04-30T12:49:25.999Z</time></trkpt><trkpt lat="39.3340683102954" lon="9.436965200696275"><ele>228.0</ele><time>2026-04-30T12:49:27Z</time></trkpt><trkpt lat="39.3342580054232" lon="9.437189330451682"><ele>218.0</ele><time>2026-04-30T12:49:28Z</time></trkpt><trkpt lat="39.334398834354516" lon="9.437412644746068"><ele>208.0</ele><time>2026-04-30T12:49:29Z</time></trkpt><trkpt lat="39.334510292723834" lon="9.437636028922356"><ele>198.0</ele><time>2026-04-30T12:49:30Z</time></trkpt><trkpt lat="39.334580645778836" lon="9.437873671077051"><ele>194.0</ele><time>2026-04-30T12:49:31Z</time></trkpt><trkpt lat="39.334599499107476" lon="9.438144861243654"><ele>190.0</ele><time>2026-04-30T12:49:32Z</time></trkpt><trkpt lat="39.33459999524477" lon="9.438420785730223"><ele>186.0</ele><time>2026-04-30T12:49:33Z</time></trkpt><trkpt lat="39.33460598702388" lon="9.438654886035483"><ele>184.5</ele><time>2026-04-30T12:49:34Z</time></trkpt><trkpt lat="39.33462356122019" lon="9.438830084104803"><ele>183.0</ele><time>2026-04-30T12:49:35Z</time></trkpt><trkpt lat="39.33469115827022" lon="9.438950604353238"><ele>181.5</ele><time>2026-04-30T12:49:36Z</time></trkpt><trkpt lat="39.33482919939834" lon="9.438980022619553"><ele>180.0</ele><time>2026-04-30T12:49:37Z</time></trkpt><trkpt lat="39.33503493826283" lon="9.438971819866657"><ele>177.0</ele><time>2026-04-30T12:49:38Z</time></trkpt><trkpt lat="39.33528559729695" lon="9.438902289951104"><ele>174.0</ele><time>2026-04-30T12:49:39Z</time></trkpt><trkpt lat="39.33551686482385" lon="9.438901047580982"><ele>174.33333333333334</ele><time>2026-04-30T12:49:40Z</time></trkpt><trkpt lat="39.33570665140812" lon="9.438964350187748"><ele>174.66666666666669</ele><time>2026-04-30T12:49:41Z</time></trkpt><trkpt lat="39.3358992014684" lon="9.43899512802921"><ele>175.0</ele><time>2026-04-30T12:49:42Z</time></trkpt><trkpt lat="39.3361253633765" lon="9.438942246103716"><ele>175.0</ele><time>2026-04-30T12:49:43Z</time></trkpt><trkpt lat="39.336359754361375" lon="9.438893833212258"><ele>175.0</ele><time>2026-04-30T12:49:44Z</time></trkpt><trkpt lat="39.33659527580853" lon="9.438875450154395"><ele>174.66666666666669</ele><time>2026-04-30T12:49:45Z</time></trkpt><trkpt lat="39.33682115892955" lon="9.438875814482971"><ele>174.33333333333334</ele><time>2026-04-30T12:49:46Z</time></trkpt><trkpt lat="39.337042842417425" lon="9.438892113124828"><ele>174.0</ele><time>2026-04-30T12:49:47Z</time></trkpt><trkpt lat="39.33725923797991" lon="9.43894527089718"><ele>176.0</ele><time>2026-04-30T12:49:48Z</time></trkpt><trkpt lat="39.337463688864055" lon="9.439012371357114"><ele>178.0</ele><time>2026-04-30T12:49:49Z</time></trkpt><trkpt lat="39.33766786129544" lon="9.439060065715767"><ele>180.0</ele><time>2026-04-30T12:49:50Z</time></trkpt><trkpt lat="39.33788342856004" lon="9.4390908324218"><ele>182.33333333333334</ele><time>2026-04-30T12:49:51Z</time></trkpt><trkpt lat="39.33809691874497" lon="9.439140836003215"><ele>184.66666666666669</ele><time>2026-04-30T12:49:52Z</time></trkpt><trkpt lat="39.338294472555745" lon="9.439247750867452"><ele>187.0</ele><time>2026-04-30T12:49:53Z</time></trkpt><trkpt lat="39.33846377981611" lon="9.43943882735139"><ele>187.0</ele><time>2026-04-30T12:49:54Z</time></trkpt><trkpt lat="39.3386306882735" lon="9.439625182628875"><ele>187.0</ele><time>2026-04-30T12:49:55Z</time></trkpt><trkpt lat="39.33883259243736" lon="9.43977359942486"><ele>179.66666666666669</ele><time>2026-04-30T12:49:56Z</time></trkpt><trkpt lat="39.33904123741857" lon="9.439843754733865"><ele>172.33333333333334</ele><time>2026-04-30T12:49:57Z</time></trkpt><trkpt lat="39.33926369972547" lon="9.439870943789957"><ele>165.0</ele><time>2026-04-30T12:49:58Z</time></trkpt><trkpt lat="39.339490650636996" lon="9.439860318636379"><ele>165.0</ele><time>2026-04-30T12:49:59Z</time></trkpt><trkpt lat="39.33971266534268" lon="9.439816429456984"><ele>165.0</ele><time>2026-04-30T12:50:00Z</time></trkpt><trkpt lat="39.339922340389904" lon="9.439711492050135"><ele>165.0</ele><time>2026-04-30T12:50:01Z</time></trkpt><trkpt lat="39.34012417734209" lon="9.439596069485003"><ele>167.33333333333334</ele><time>2026-04-30T12:50:02Z</time></trkpt><trkpt lat="39.340310762485196" lon="9.439509844013841"><ele>169.66666666666669</ele><time>2026-04-30T12:50:03Z</time></trkpt><trkpt lat="39.34045555960843" lon="9.4394623696494"><ele>172.0</ele><time>2026-04-30T12:50:04Z</time></trkpt><trkpt lat="39.34059626357655" lon="9.439518983543682"><ele>170.66666666666669</ele><time>2026-04-30T12:50:05Z</time></trkpt><trkpt lat="39.34073262503031" lon="9.43970313423362"><ele>169.33333333333334</ele><time>2026-04-30T12:50:06Z</time></trkpt><trkpt lat="39.34083095984857" lon="9.439948565291235"><ele>168.0</ele><time>2026-04-30T12:50:07Z</time></trkpt><trkpt lat="39.34095081763269" lon="9.440179363105504"><ele>168.0</ele><time>2026-04-30T12:50:08Z</time></trkpt><trkpt lat="39.3411051663467" lon="9.440368187015128"><ele>168.0</ele><time>2026-04-30T12:50:09Z</time></trkpt><trkpt lat="39.3412795533307" lon="9.440502643300631"><ele>168.0</ele><time>2026-04-30T12:50:09.999Z</time></trkpt><trkpt lat="39.34150741990909" lon="9.440555041557557"><ele>165.66666666666666</ele><time>2026-04-30T12:50:10.999Z</time></trkpt><trkpt lat="39.341729923291524" lon="9.440584405930972"><ele>163.33333333333331</ele><time>2026-04-30T12:50:11.999Z</time></trkpt><trkpt lat="39.341948762321564" lon="9.440627445342276"><ele>161.0</ele><time>2026-04-30T12:50:12.999Z</time></trkpt><trkpt lat="39.34217818830621" lon="9.440679830343539"><ele>159.5</ele><time>2026-04-30T12:50:13.999Z</time></trkpt><trkpt lat="39.342399707309" lon="9.44074110740378"><ele>158.0</ele><time>2026-04-30T12:50:14.999Z</time></trkpt><trkpt lat="39.342625939885465" lon="9.440790906481977"><ele>158.0</ele><time>2026-04-30T12:50:15.999Z</time></trkpt><trkpt lat="39.34284258503778" lon="9.440865029464563"><ele>158.0</ele><time>2026-04-30T12:50:16.999Z</time></trkpt><trkpt lat="39.34302555183104" lon="9.440953922025857"><ele>158.0</ele><time>2026-04-30T12:50:17.999Z</time></trkpt><trkpt lat="39.34315734662409" lon="9.441112860431971"><ele>160.0</ele><time>2026-04-30T12:50:18.999Z</time></trkpt><trkpt lat="39.34325033919175" lon="9.441351412402804"><ele>162.0</ele><time>2026-04-30T12:50:19.999Z</time></trkpt><trkpt lat="39.34330266744679" lon="9.441652247341509"><ele>164.0</ele><time>2026-04-30T12:50:20.999Z</time></trkpt><trkpt lat="39.34338496235896" lon="9.441880007068063"><ele>164.0</ele><time>2026-04-30T12:50:21.999Z</time></trkpt><trkpt lat="39.34354548510123" lon="9.442021857469499"><ele>164.0</ele><time>2026-04-30T12:50:22.999Z</time></trkpt><trkpt lat="39.343750176196075" lon="9.442142114068462"><ele>164.0</ele><time>2026-04-30T12:50:23.999Z</time></trkpt><trkpt lat="39.34394230378345" lon="9.442316825641784"><ele>162.5</ele><time>2026-04-30T12:50:24.999Z</time></trkpt><trkpt lat="39.34409913352189" lon="9.442563412717462"><ele>161.0</ele><time>2026-04-30T12:50:25.999Z</time></trkpt><trkpt lat="39.3442324791536" lon="9.442800622708443"><ele>159.5</ele><time>2026-04-30T12:50:26.999Z</time></trkpt><trkpt lat="39.344385881900315" lon="9.443017562981094"><ele>158.0</ele><time>2026-04-30T12:50:27.999Z</time></trkpt><trkpt lat="39.3445430751314" lon="9.443230040057584"><ele>158.0</ele><time>2026-04-30T12:50:28.999Z</time></trkpt><trkpt lat="39.34470348937447" lon="9.443405166004364"><ele>158.0</ele><time>2026-04-30T12:50:29.999Z</time></trkpt><trkpt lat="39.34486922732762" lon="9.443513758581352"><ele>158.0</ele><time>2026-04-30T12:50:30.999Z</time></trkpt><trkpt lat="39.34503571728182" lon="9.443562829648869"><ele>158.0</ele><time>2026-04-30T12:50:31.999Z</time></trkpt><trkpt lat="39.34516293220716" lon="9.443666540964172"><ele>158.0</ele><time>2026-04-30T12:50:32.999Z</time></trkpt><trkpt lat="39.345211330443405" lon="9.443862090465379"><ele>158.0</ele><time>2026-04-30T12:50:33.999Z</time></trkpt><trkpt lat="39.34520857045349" lon="9.44410881265958"><ele>157.33333333333331</ele><time>2026-04-30T12:50:34.999Z</time></trkpt><trkpt lat="39.345225057336485" lon="9.444367162374364"><ele>156.66666666666666</ele><time>2026-04-30T12:50:35.999Z</time></trkpt><trkpt lat="39.34526503526499" lon="9.444582419543096"><ele>156.0</ele><time>2026-04-30T12:50:36.999Z</time></trkpt><trkpt lat="39.34525636773388" lon="9.444780363891715"><ele>156.0</ele><time>2026-04-30T12:50:37.999Z</time></trkpt><trkpt lat="39.34517182447105" lon="9.444996403366346"><ele>156.0</ele><time>2026-04-30T12:50:38.999Z</time></trkpt><trkpt lat="39.34512929788685" lon="9.445245298631454"><ele>156.0</ele><time>2026-04-30T12:50:39.999Z</time></trkpt><trkpt lat="39.34505684972169" lon="9.445466820445468"><ele>157.66666666666666</ele><time>2026-04-30T12:50:40.999Z</time></trkpt><trkpt lat="39.34495290793247" lon="9.445633110218647"><ele>159.33333333333331</ele><time>2026-04-30T12:50:41.999Z</time></trkpt><trkpt lat="39.34487329465089" lon="9.445791841849426"><ele>161.0</ele><time>2026-04-30T12:50:42.999Z</time></trkpt><trkpt lat="39.34487945442444" lon="9.446005662504383"><ele>161.0</ele><time>2026-04-30T12:50:43.999Z</time></trkpt><trkpt lat="39.34492791906212" lon="9.44624600324146"><ele>161.0</ele><time>2026-04-30T12:50:44.999Z</time></trkpt><trkpt lat="39.34498888159766" lon="9.44652415267143"><ele>161.0</ele><time>2026-04-30T12:50:45.999Z</time></trkpt><trkpt lat="39.34505063910686" lon="9.446815999124416"><ele>161.0</ele><time>2026-04-30T12:50:46.999Z</time></trkpt><trkpt lat="39.34509397682031" lon="9.44710282852388"><ele>161.0</ele><time>2026-04-30T12:50:47.999Z</time></trkpt><trkpt lat="39.34509354176728" lon="9.447403383321186"><ele>160.5</ele><time>2026-04-30T12:50:48.999Z</time></trkpt><trkpt lat="39.3450551337966" lon="9.447699502839512"><ele>160.0</ele><time>2026-04-30T12:50:49.999Z</time></trkpt><trkpt lat="39.344980716544825" lon="9.447985551091948"><ele>163.66666666666669</ele><time>2026-04-30T12:50:50.999Z</time></trkpt><trkpt lat="39.34489094401444" lon="9.448267469462671"><ele>167.33333333333334</ele><time>2026-04-30T12:50:51.999Z</time></trkpt><trkpt lat="39.34481101058093" lon="9.448520003424417"><ele>171.0</ele><time>2026-04-30T12:50:52.999Z</time></trkpt><trkpt lat="39.34468698925941" lon="9.448715951131938"><ele>162.5</ele><time>2026-04-30T12:50:53.999Z</time></trkpt><trkpt lat="39.3445013718972" lon="9.448875400627324"><ele>154.0</ele><time>2026-04-30T12:50:54.999Z</time></trkpt><trkpt lat="39.34431184303685" lon="9.449040940099804"><ele>154.0</ele><time>2026-04-30T12:50:55.999Z</time></trkpt><trkpt lat="39.34412484860934" lon="9.449239533281967"><ele>154.0</ele><time>2026-04-30T12:50:56.999Z</time></trkpt><trkpt lat="39.34393366152175" lon="9.44943025453979"><ele>152.0</ele><time>2026-04-30T12:50:57.999Z</time></trkpt><trkpt lat="39.34375033238292" lon="9.44957979641799"><ele>150.0</ele><time>2026-04-30T12:50:58.999Z</time></trkpt><trkpt lat="39.343609695354104" lon="9.44969869713507"><ele>148.0</ele><time>2026-04-30T12:50:59.999Z</time></trkpt><trkpt lat="39.34351783419044" lon="9.449826990552458"><ele>148.0</ele><time>2026-04-30T12:51:00.999Z</time></trkpt><trkpt lat="39.34348678486532" lon="9.450002211705993"><ele>148.0</ele><time>2026-04-30T12:51:01.999Z</time></trkpt><trkpt lat="39.34352547021757" lon="9.450260996149419"><ele>148.0</ele><time>2026-04-30T12:51:02.999Z</time></trkpt><trkpt lat="39.34360754584833" lon="9.45057755136819"><ele>146.5</ele><time>2026-04-30T12:51:03.999Z</time></trkpt><trkpt lat="39.34366355817174" lon="9.450917719174905"><ele>145.0</ele><time>2026-04-30T12:51:04.999Z</time></trkpt><trkpt lat="39.34370719985165" lon="9.451244777411583"><ele>142.5</ele><time>2026-04-30T12:51:05.999Z</time></trkpt><trkpt lat="39.34377416255845" lon="9.451568457928051"><ele>140.0</ele><time>2026-04-30T12:51:06.999Z</time></trkpt><trkpt lat="39.34386477083177" lon="9.451874029225785"><ele>141.5</ele><time>2026-04-30T12:51:07.999Z</time></trkpt><trkpt lat="39.343971912255284" lon="9.452165608132276"><ele>143.0</ele><time>2026-04-30T12:51:08.999Z</time></trkpt><trkpt lat="39.34410135505512" lon="9.452401341418614"><ele>143.0</ele><time>2026-04-30T12:51:09.999Z</time></trkpt><trkpt lat="39.344219733477736" lon="9.452590939207472"><ele>143.0</ele><time>2026-04-30T12:51:10.999Z</time></trkpt><trkpt lat="39.34431938035813" lon="9.45272493670081"><ele>143.0</ele><time>2026-04-30T12:51:11.999Z</time></trkpt><trkpt lat="39.344461992877186" lon="9.452792526653196"><ele>143.0</ele><time>2026-04-30T12:51:12.999Z</time></trkpt><trkpt lat="39.3446765214843" lon="9.452796323933475"><ele>143.0</ele><time>2026-04-30T12:51:13.999Z</time></trkpt><trkpt lat="39.34494648138865" lon="9.452731015218479"><ele>145.5</ele><time>2026-04-30T12:51:14.999Z</time></trkpt><trkpt lat="39.34514083284438" lon="9.452645251692022"><ele>148.0</ele><time>2026-04-30T12:51:15.999Z</time></trkpt><trkpt lat="39.34536910241425" lon="9.452500090463577"><ele>142.0</ele><time>2026-04-30T12:51:16.999Z</time></trkpt><trkpt lat="39.3456048206675" lon="9.452367320847292"><ele>136.0</ele><time>2026-04-30T12:51:17.999Z</time></trkpt><trkpt lat="39.34584797848635" lon="9.452288916277762"><ele>136.0</ele><time>2026-04-30T12:51:18.999Z</time></trkpt><trkpt lat="39.34607285611583" lon="9.452198755157202"><ele>136.0</ele><time>2026-04-30T12:51:19.999Z</time></trkpt><trkpt lat="39.34629248492443" lon="9.452111148984622"><ele>150.0</ele><time>2026-04-30T12:51:20.999Z</time></trkpt><trkpt lat="39.346509361006476" lon="9.452026321759545"><ele>164.0</ele><time>2026-04-30T12:51:21.999Z</time></trkpt><trkpt lat="39.34677598724328" lon="9.452029630530202"><ele>164.0</ele><time>2026-04-30T12:51:22.999Z</time></trkpt><trkpt lat="39.34705096455437" lon="9.452035423229052"><ele>164.0</ele><time>2026-04-30T12:51:23.999Z</time></trkpt><trkpt lat="39.34729913921221" lon="9.452019665365777"><ele>163.66666666666666</ele><time>2026-04-30T12:51:24.999Z</time></trkpt><trkpt lat="39.347504201711345" lon="9.452008916149007"><ele>163.33333333333334</ele><time>2026-04-30T12:51:25.999Z</time></trkpt><trkpt lat="39.34766163603156" lon="9.452028137494207"><ele>163.0</ele><time>2026-04-30T12:51:26.999Z</time></trkpt><trkpt lat="39.347819385615516" lon="9.452141098147298"><ele>155.33333333333334</ele><time>2026-04-30T12:51:27.999Z</time></trkpt><trkpt lat="39.34796860023277" lon="9.452300677870412"><ele>147.66666666666666</ele><time>2026-04-30T12:51:28.999Z</time></trkpt><trkpt lat="39.348143576101556" lon="9.452462890909631"><ele>140.0</ele><time>2026-04-30T12:51:29.999Z</time></trkpt><trkpt lat="39.34830551131625" lon="9.452597981093934"><ele>140.0</ele><time>2026-04-30T12:51:30.999Z</time></trkpt><trkpt lat="39.3484247052279" lon="9.452708061330892"><ele>140.0</ele><time>2026-04-30T12:51:32Z</time></trkpt><trkpt lat="39.34848040042438" lon="9.452844060537258"><ele>140.0</ele><time>2026-04-30T12:51:33Z</time></trkpt><trkpt lat="39.348430829976635" lon="9.45301384637411"><ele>140.0</ele><time>2026-04-30T12:51:34Z</time></trkpt><trkpt lat="39.34829708178659" lon="9.45321800801769"><ele>140.33333333333331</ele><time>2026-04-30T12:51:34.999Z</time></trkpt><trkpt lat="39.34813313561225" lon="9.453437864312866"><ele>140.66666666666666</ele><time>2026-04-30T12:51:36Z</time></trkpt><trkpt lat="39.34799696830436" lon="9.453625424239243"><ele>141.0</ele><time>2026-04-30T12:51:37Z</time></trkpt><trkpt lat="39.34792306449585" lon="9.45380978083915"><ele>142.66666666666666</ele><time>2026-04-30T12:51:37.999Z</time></trkpt><trkpt lat="39.34791112269967" lon="9.454022415393753"><ele>144.33333333333331</ele><time>2026-04-30T12:51:38.999Z</time></trkpt><trkpt lat="39.34798491595803" lon="9.45426715925762"><ele>146.0</ele><time>2026-04-30T12:51:39.999Z</time></trkpt><trkpt lat="39.3480723112418" lon="9.454525643454572"><ele>141.33333333333331</ele><time>2026-04-30T12:51:40.999Z</time></trkpt><trkpt lat="39.34816174693037" lon="9.454751337760136"><ele>136.66666666666666</ele><time>2026-04-30T12:51:41.999Z</time></trkpt><trkpt lat="39.34825250496475" lon="9.454888312407808"><ele>132.0</ele><time>2026-04-30T12:51:42.999Z</time></trkpt><trkpt lat="39.34840297578692" lon="9.454971202646826"><ele>132.0</ele><time>2026-04-30T12:51:43.999Z</time></trkpt><trkpt lat="39.34863652859469" lon="9.45505411371103"><ele>132.0</ele><time>2026-04-30T12:51:45Z</time></trkpt><trkpt lat="39.348841381087055" lon="9.455209779483736"><ele>138.0</ele><time>2026-04-30T12:51:46Z</time></trkpt><trkpt lat="39.34898928193847" lon="9.455445511909097"><ele>144.0</ele><time>2026-04-30T12:51:47Z</time></trkpt><trkpt lat="39.34910671694806" lon="9.455736151722869"><ele>144.0</ele><time>2026-04-30T12:51:48Z</time></trkpt><trkpt lat="39.34924948043299" lon="9.456016942550947"><ele>144.0</ele><time>2026-04-30T12:51:49Z</time></trkpt><trkpt lat="39.349408451938295" lon="9.45625454931991"><ele>151.0</ele><time>2026-04-30T12:51:50Z</time></trkpt><trkpt lat="39.34956939878353" lon="9.456482280509702"><ele>158.0</ele><time>2026-04-30T12:51:51Z</time></trkpt><trkpt lat="39.34973724824796" lon="9.456670089015805"><ele>158.0</ele><time>2026-04-30T12:51:52Z</time></trkpt><trkpt lat="39.34987778948487" lon="9.45682532425831"><ele>158.0</ele><time>2026-04-30T12:51:53Z</time></trkpt><trkpt lat="39.349974981455105" lon="9.457038721545999"><ele>158.0</ele><time>2026-04-30T12:51:54Z</time></trkpt><trkpt lat="39.35001167494294" lon="9.457263428308728"><ele>157.33333333333331</ele><time>2026-04-30T12:51:55Z</time></trkpt><trkpt lat="39.35000285900907" lon="9.457474526895354"><ele>156.66666666666666</ele><time>2026-04-30T12:51:56Z</time></trkpt><trkpt lat="39.349953118089175" lon="9.45772190689396"><ele>156.0</ele><time>2026-04-30T12:51:57Z</time></trkpt><trkpt lat="39.34987424138152" lon="9.457995150570838"><ele>156.0</ele><time>2026-04-30T12:51:58Z</time></trkpt><trkpt lat="39.349793095917626" lon="9.458288710576399"><ele>156.0</ele><time>2026-04-30T12:51:59Z</time></trkpt><trkpt lat="39.34970497939955" lon="9.458569991458171"><ele>142.5</ele><time>2026-04-30T12:52:00Z</time></trkpt><trkpt lat="39.34958866237266" lon="9.45883223341695"><ele>129.0</ele><time>2026-04-30T12:52:01Z</time></trkpt><trkpt lat="39.34945417310536" lon="9.459075983256371"><ele>129.0</ele><time>2026-04-30T12:52:02Z</time></trkpt><trkpt lat="39.34935783086289" lon="9.459313847098189"><ele>129.0</ele><time>2026-04-30T12:52:03Z</time></trkpt><trkpt lat="39.34933554813539" lon="9.459583402637415"><ele>129.0</ele><time>2026-04-30T12:52:04Z</time></trkpt><trkpt lat="39.34938117243501" lon="9.459876641038738"><ele>129.0</ele><time>2026-04-30T12:52:05Z</time></trkpt><trkpt lat="39.34938904540544" lon="9.460151477054037"><ele>129.0</ele><time>2026-04-30T12:52:06Z</time></trkpt><trkpt lat="39.34939022797504" lon="9.460373431455062"><ele>129.0</ele><time>2026-04-30T12:52:07Z</time></trkpt><trkpt lat="39.34942829848609" lon="9.460629403684111"><ele>126.66666666666666</ele><time>2026-04-30T12:52:08Z</time></trkpt><trkpt lat="39.34950946097725" lon="9.460858644387901"><ele>124.33333333333333</ele><time>2026-04-30T12:52:09Z</time></trkpt><trkpt lat="39.34960176630449" lon="9.461025323855122"><ele>122.0</ele><time>2026-04-30T12:52:10Z</time></trkpt><trkpt lat="39.34976097385298" lon="9.461112481589717"><ele>125.5</ele><time>2026-04-30T12:52:11Z</time></trkpt><trkpt lat="39.34997149158569" lon="9.461205865843702"><ele>129.0</ele><time>2026-04-30T12:52:12Z</time></trkpt><trkpt lat="39.350194916977344" lon="9.461327801929105"><ele>129.0</ele><time>2026-04-30T12:52:13Z</time></trkpt><trkpt lat="39.35036769124624" lon="9.461489757768728"><ele>129.0</ele><time>2026-04-30T12:52:13.999Z</time></trkpt><trkpt lat="39.350479164690036" lon="9.461683421794545"><ele>129.0</ele><time>2026-04-30T12:52:14.999Z</time></trkpt><trkpt lat="39.35055038477712" lon="9.461943287050387"><ele>142.0</ele><time>2026-04-30T12:52:15.999Z</time></trkpt><trkpt lat="39.35059997733971" lon="9.462250966409814"><ele>155.0</ele><time>2026-04-30T12:52:16.999Z</time></trkpt><trkpt lat="39.350659977106154" lon="9.462542107489382"><ele>155.0</ele><time>2026-04-30T12:52:17.999Z</time></trkpt><trkpt lat="39.35074336528662" lon="9.462773731232714"><ele>155.0</ele><time>2026-04-30T12:52:18.999Z</time></trkpt><trkpt lat="39.350863351803504" lon="9.462946482975067"><ele>155.0</ele><time>2026-04-30T12:52:19.999Z</time></trkpt><trkpt lat="39.35088904377286" lon="9.463114381140084"><ele>155.66666666666666</ele><time>2026-04-30T12:52:20.999Z</time></trkpt><trkpt lat="39.350831164097684" lon="9.463322845422416"><ele>156.33333333333334</ele><time>2026-04-30T12:52:21.999Z</time></trkpt><trkpt lat="39.3507175608164" lon="9.463578561278581"><ele>157.0</ele><time>2026-04-30T12:52:22.999Z</time></trkpt><trkpt lat="39.350635206003005" lon="9.463866422803601"><ele>157.0</ele><time>2026-04-30T12:52:23.999Z</time></trkpt><trkpt lat="39.35056858392654" lon="9.464165778575303"><ele>157.0</ele><time>2026-04-30T12:52:24.999Z</time></trkpt><trkpt lat="39.350523149639756" lon="9.46445973748315"><ele>147.33333333333334</ele><time>2026-04-30T12:52:25.999Z</time></trkpt><trkpt lat="39.35047084627632" lon="9.464700697310827"><ele>137.66666666666666</ele><time>2026-04-30T12:52:26.999Z</time></trkpt><trkpt lat="39.35037143192514" lon="9.464888877790933"><ele>128.0</ele><time>2026-04-30T12:52:27.999Z</time></trkpt><trkpt lat="39.35019713378827" lon="9.465031044999211"><ele>128.0</ele><time>2026-04-30T12:52:28.999Z</time></trkpt><trkpt lat="39.34996537020101" lon="9.465128750213934"><ele>128.0</ele><time>2026-04-30T12:52:29.999Z</time></trkpt><trkpt lat="39.349751094861624" lon="9.465233763468332"><ele>130.33333333333331</ele><time>2026-04-30T12:52:30.999Z</time></trkpt><trkpt lat="39.349546125224585" lon="9.46536882411424"><ele>132.66666666666666</ele><time>2026-04-30T12:52:31.999Z</time></trkpt><trkpt lat="39.349351548803355" lon="9.46549027361678"><ele>135.0</ele><time>2026-04-30T12:52:32.999Z</time></trkpt><trkpt lat="39.349166445240805" lon="9.465618257642596"><ele>135.0</ele><time>2026-04-30T12:52:33.999Z</time></trkpt><trkpt lat="39.34898960508034" lon="9.465786248002242"><ele>135.0</ele><time>2026-04-30T12:52:34.999Z</time></trkpt><trkpt lat="39.3488449074364" lon="9.465985293383916"><ele>135.0</ele><time>2026-04-30T12:52:35.999Z</time></trkpt><trkpt lat="39.34868257490298" lon="9.466141049206003"><ele>139.0</ele><time>2026-04-30T12:52:36.999Z</time></trkpt><trkpt lat="39.34848919603873" lon="9.466256969138207"><ele>143.0</ele><time>2026-04-30T12:52:37.999Z</time></trkpt><trkpt lat="39.348294897436155" lon="9.466362606421708"><ele>147.0</ele><time>2026-04-30T12:52:38.999Z</time></trkpt><trkpt lat="39.34811987678385" lon="9.466464847795061"><ele>149.0</ele><time>2026-04-30T12:52:39.999Z</time></trkpt><trkpt lat="39.347965474233106" lon="9.46649088449409"><ele>151.0</ele><time>2026-04-30T12:52:40.999Z</time></trkpt><trkpt lat="39.34778791591119" lon="9.466431344476323"><ele>153.0</ele><time>2026-04-30T12:52:41.999Z</time></trkpt><trkpt lat="39.34763013047313" lon="9.46625752007198"><ele>144.66666666666666</ele><time>2026-04-30T12:52:42.999Z</time></trkpt><trkpt lat="39.34754120319248" lon="9.466035404035956"><ele>136.33333333333331</ele><time>2026-04-30T12:52:43.999Z</time></trkpt><trkpt lat="39.34748545676521" lon="9.46581384926248"><ele>128.0</ele><time>2026-04-30T12:52:44.999Z</time></trkpt><trkpt lat="39.34736672105405" lon="9.465682840894063"><ele>132.66666666666666</ele><time>2026-04-30T12:52:45.999Z</time></trkpt><trkpt lat="39.34718049075139" lon="9.465639631268369"><ele>137.33333333333334</ele><time>2026-04-30T12:52:46.999Z</time></trkpt><trkpt lat="39.346955492886025" lon="9.465657191287695"><ele>142.0</ele><time>2026-04-30T12:52:47.999Z</time></trkpt><trkpt lat="39.34672908022137" lon="9.465626472750422"><ele>142.0</ele><time>2026-04-30T12:52:48.999Z</time></trkpt><trkpt lat="39.34653919799377" lon="9.465509496397612"><ele>142.0</ele><time>2026-04-30T12:52:49.999Z</time></trkpt><trkpt lat="39.34636046102898" lon="9.46537092253027"><ele>142.0</ele><time>2026-04-30T12:52:50.999Z</time></trkpt><trkpt lat="39.34621759903779" lon="9.465218567046685"><ele>139.33333333333334</ele><time>2026-04-30T12:52:51.999Z</time></trkpt><trkpt lat="39.346153015122475" lon="9.465003100022178"><ele>136.66666666666666</ele><time>2026-04-30T12:52:52.999Z</time></trkpt><trkpt lat="39.34612756775955" lon="9.464776713247941"><ele>134.0</ele><time>2026-04-30T12:52:53.999Z</time></trkpt><trkpt lat="39.346087890591896" lon="9.464596409971044"><ele>134.0</ele><time>2026-04-30T12:52:54.999Z</time></trkpt><trkpt lat="39.345996409020415" lon="9.46447643893108"><ele>134.0</ele><time>2026-04-30T12:52:55.999Z</time></trkpt><trkpt lat="39.34586737772109" lon="9.464456798895654"><ele>134.0</ele><time>2026-04-30T12:52:56.999Z</time></trkpt><trkpt lat="39.34570924764101" lon="9.46456025962681"><ele>134.0</ele><time>2026-04-30T12:52:57.999Z</time></trkpt><trkpt lat="39.345562113041126" lon="9.46473940501685"><ele>125.33333333333333</ele><time>2026-04-30T12:52:58.999Z</time></trkpt><trkpt lat="39.345441610128695" lon="9.46498563623311"><ele>116.66666666666666</ele><time>2026-04-30T12:52:59.999Z</time></trkpt><trkpt lat="39.34531478604498" lon="9.46516869337498"><ele>108.0</ele><time>2026-04-30T12:53:00.999Z</time></trkpt><trkpt lat="39.34527108502403" lon="9.46532778434198"><ele>105.33333333333334</ele><time>2026-04-30T12:53:01.999Z</time></trkpt><trkpt lat="39.3453145909079" lon="9.465517996158283"><ele>102.66666666666667</ele><time>2026-04-30T12:53:02.999Z</time></trkpt><trkpt lat="39.34542794114263" lon="9.465727773072855"><ele>100.0</ele><time>2026-04-30T12:53:03.999Z</time></trkpt><trkpt lat="39.345599100034526" lon="9.465912429670626"><ele>111.66666666666667</ele><time>2026-04-30T12:53:04.999Z</time></trkpt><trkpt lat="39.34571659963405" lon="9.466124963519759"><ele>123.33333333333334</ele><time>2026-04-30T12:53:05.999Z</time></trkpt><trkpt lat="39.3457680980069" lon="9.466372755091811"><ele>135.0</ele><time>2026-04-30T12:53:06.999Z</time></trkpt><trkpt lat="39.34576883575898" lon="9.466653269159453"><ele>135.0</ele><time>2026-04-30T12:53:07.999Z</time></trkpt><trkpt lat="39.3457562699631" lon="9.466928262935776"><ele>135.0</ele><time>2026-04-30T12:53:08.999Z</time></trkpt><trkpt lat="39.34580305322113" lon="9.467156538898942"><ele>135.0</ele><time>2026-04-30T12:53:09.999Z</time></trkpt><trkpt lat="39.34592085878032" lon="9.467339766930216"><ele>131.33333333333334</ele><time>2026-04-30T12:53:10.999Z</time></trkpt><trkpt lat="39.346036705939866" lon="9.467512096656709"><ele>127.66666666666667</ele><time>2026-04-30T12:53:11.999Z</time></trkpt><trkpt lat="39.3460536653136" lon="9.467686114797045"><ele>124.0</ele><time>2026-04-30T12:53:12.999Z</time></trkpt><trkpt lat="39.34597116592932" lon="9.467853741018073"><ele>128.0</ele><time>2026-04-30T12:53:13.999Z</time></trkpt><trkpt lat="39.34580933756555" lon="9.467995226990265"><ele>132.0</ele><time>2026-04-30T12:53:14.999Z</time></trkpt><trkpt lat="39.34562268070819" lon="9.468125585403778"><ele>136.0</ele><time>2026-04-30T12:53:15.999Z</time></trkpt><trkpt lat="39.34545615974143" lon="9.46829203819215"><ele>125.0</ele><time>2026-04-30T12:53:16.999Z</time></trkpt><trkpt lat="39.3453019523258" lon="9.468463850128318"><ele>114.0</ele><time>2026-04-30T12:53:17.999Z</time></trkpt><trkpt lat="39.34519442153392" lon="9.468656751375853"><ele>103.0</ele><time>2026-04-30T12:53:18.999Z</time></trkpt><trkpt lat="39.345134477392534" lon="9.46887101064725"><ele>103.0</ele><time>2026-04-30T12:53:19.999Z</time></trkpt><trkpt lat="39.34513175142961" lon="9.469062152254278"><ele>103.0</ele><time>2026-04-30T12:53:20.999Z</time></trkpt><trkpt lat="39.345209463340986" lon="9.469216966692322"><ele>103.0</ele><time>2026-04-30T12:53:21.999Z</time></trkpt><trkpt lat="39.34535029799896" lon="9.469329516950495"><ele>122.5</ele><time>2026-04-30T12:53:22.999Z</time></trkpt><trkpt lat="39.345554322239266" lon="9.469421610564497"><ele>142.0</ele><time>2026-04-30T12:53:23.999Z</time></trkpt><trkpt lat="39.34578807209667" lon="9.469544935753541"><ele>131.33333333333334</ele><time>2026-04-30T12:53:24.999Z</time></trkpt><trkpt lat="39.34595938220666" lon="9.469679595924822"><ele>120.66666666666666</ele><time>2026-04-30T12:53:25.999Z</time></trkpt><trkpt lat="39.34609500625129" lon="9.469887170717904"><ele>110.0</ele><time>2026-04-30T12:53:26.999Z</time></trkpt><trkpt lat="39.346201659131346" lon="9.470139147952981"><ele>110.0</ele><time>2026-04-30T12:53:27.999Z</time></trkpt><trkpt lat="39.34630673311059" lon="9.47042365665335"><ele>110.0</ele><time>2026-04-30T12:53:28.999Z</time></trkpt><trkpt lat="39.3464130082609" lon="9.470696497141182"><ele>112.33333333333333</ele><time>2026-04-30T12:53:29.999Z</time></trkpt><trkpt lat="39.34649720333249" lon="9.470935805409773"><ele>114.66666666666666</ele><time>2026-04-30T12:53:30.999Z</time></trkpt><trkpt lat="39.34652061240903" lon="9.471209798284155"><ele>117.0</ele><time>2026-04-30T12:53:31.999Z</time></trkpt><trkpt lat="39.346516031038036" lon="9.471510050785723"><ele>117.0</ele><time>2026-04-30T12:53:32.999Z</time></trkpt><trkpt lat="39.34651151397426" lon="9.471811514549298"><ele>117.0</ele><time>2026-04-30T12:53:33.999Z</time></trkpt><trkpt lat="39.346479863241704" lon="9.472082380134285"><ele>117.0</ele><time>2026-04-30T12:53:34.999Z</time></trkpt><trkpt lat="39.34640945096703" lon="9.472348647218693"><ele>106.33333333333333</ele><time>2026-04-30T12:53:35.999Z</time></trkpt><trkpt lat="39.34633875698307" lon="9.472588867658814"><ele>95.66666666666666</ele><time>2026-04-30T12:53:36.999Z</time></trkpt><trkpt lat="39.34628565652789" lon="9.472779848363073"><ele>85.0</ele><time>2026-04-30T12:53:37.999Z</time></trkpt><trkpt lat="39.34627786605987" lon="9.47293973440096"><ele>87.33333333333333</ele><time>2026-04-30T12:53:38.999Z</time></trkpt><trkpt lat="39.34635519888941" lon="9.473096142871348"><ele>89.66666666666667</ele><time>2026-04-30T12:53:39.999Z</time></trkpt><trkpt lat="39.34651579117551" lon="9.473252239345118"><ele>92.0</ele><time>2026-04-30T12:53:40.999Z</time></trkpt><trkpt lat="39.34672278417692" lon="9.47340026828984"><ele>92.0</ele><time>2026-04-30T12:53:41.998Z</time></trkpt><trkpt lat="39.34689307294267" lon="9.473571318122099"><ele>92.0</ele><time>2026-04-30T12:53:42.998Z</time></trkpt><trkpt lat="39.347054330437295" lon="9.473729654340746"><ele>92.0</ele><time>2026-04-30T12:53:43.999Z</time></trkpt><trkpt lat="39.34721158960097" lon="9.473773719952865"><ele>99.0</ele><time>2026-04-30T12:53:44.999Z</time></trkpt><trkpt lat="39.34742929229478" lon="9.47375993026833"><ele>106.0</ele><time>2026-04-30T12:53:45.999Z</time></trkpt><trkpt lat="39.347668087573794" lon="9.473668804256436"><ele>106.0</ele><time>2026-04-30T12:53:47Z</time></trkpt><trkpt lat="39.34790743851816" lon="9.473619231442607"><ele>106.0</ele><time>2026-04-30T12:53:47.999Z</time></trkpt><trkpt lat="39.34811335374651" lon="9.473590839450976"><ele>106.0</ele><time>2026-04-30T12:53:48.999Z</time></trkpt><trkpt lat="39.34830304115464" lon="9.47357104849328"><ele>104.66666666666667</ele><time>2026-04-30T12:53:49.999Z</time></trkpt><trkpt lat="39.348489149143006" lon="9.473615049340465"><ele>103.33333333333334</ele><time>2026-04-30T12:53:51Z</time></trkpt><trkpt lat="39.3486692515028" lon="9.473765211834131"><ele>102.0</ele><time>2026-04-30T12:53:52Z</time></trkpt><trkpt lat="39.34883291292249" lon="9.473973511606617"><ele>93.0</ele><time>2026-04-30T12:53:53Z</time></trkpt><trkpt lat="39.34903831838591" lon="9.474152419457258"><ele>84.0</ele><time>2026-04-30T12:53:54Z</time></trkpt><trkpt lat="39.349277051513745" lon="9.474288335402282"><ele>84.0</ele><time>2026-04-30T12:53:55Z</time></trkpt><trkpt lat="39.349504357609995" lon="9.474418277442705"><ele>84.0</ele><time>2026-04-30T12:53:56Z</time></trkpt><trkpt lat="39.34969979543208" lon="9.474535236063588"><ele>80.0</ele><time>2026-04-30T12:53:57Z</time></trkpt><trkpt lat="39.349856446601805" lon="9.474655349535583"><ele>76.0</ele><time>2026-04-30T12:53:58Z</time></trkpt><trkpt lat="39.349974382456615" lon="9.474835673812139"><ele>72.0</ele><time>2026-04-30T12:53:59Z</time></trkpt><trkpt lat="39.35005039683486" lon="9.47510041201241"><ele>72.0</ele><time>2026-04-30T12:54:00Z</time></trkpt><trkpt lat="39.350158809953456" lon="9.475353028965467"><ele>72.0</ele><time>2026-04-30T12:54:01Z</time></trkpt><trkpt lat="39.35029936486829" lon="9.47560243209165"><ele>68.66666666666667</ele><time>2026-04-30T12:54:02Z</time></trkpt><trkpt lat="39.35044080490718" lon="9.4758313539107"><ele>65.33333333333334</ele><time>2026-04-30T12:54:03Z</time></trkpt><trkpt lat="39.350619274833804" lon="9.476003693128204"><ele>62.0</ele><time>2026-04-30T12:54:04Z</time></trkpt><trkpt lat="39.350820298846116" lon="9.476152065461154"><ele>60.5</ele><time>2026-04-30T12:54:04.999Z</time></trkpt><trkpt lat="39.35104178141664" lon="9.476274779827872"><ele>59.0</ele><time>2026-04-30T12:54:05.999Z</time></trkpt><trkpt lat="39.35125292417849" lon="9.476406786055529"><ele>58.66666666666667</ele><time>2026-04-30T12:54:06.999Z</time></trkpt><trkpt lat="39.351437223825485" lon="9.476535047485571"><ele>58.33333333333333</ele><time>2026-04-30T12:54:07.999Z</time></trkpt><trkpt lat="39.3516078342795" lon="9.476657862459122"><ele>58.0</ele><time>2026-04-30T12:54:08.999Z</time></trkpt><trkpt lat="39.351771000486096" lon="9.476767814615561"><ele>58.0</ele><time>2026-04-30T12:54:09.999Z</time></trkpt><trkpt lat="39.35192232894775" lon="9.476875620044796"><ele>58.0</ele><time>2026-04-30T12:54:10.999Z</time></trkpt><trkpt lat="39.3520601642357" lon="9.476991276184409"><ele>58.0</ele><time>2026-04-30T12:54:11.999Z</time></trkpt><trkpt lat="39.35218250770697" lon="9.477146920261807"><ele>55.666666666666664</ele><time>2026-04-30T12:54:12.999Z</time></trkpt><trkpt lat="39.35227426413117" lon="9.477359574320245"><ele>53.33333333333333</ele><time>2026-04-30T12:54:13.999Z</time></trkpt><trkpt lat="39.35231211585719" lon="9.477617305763884"><ele>51.0</ele><time>2026-04-30T12:54:14.999Z</time></trkpt><trkpt lat="39.352305290122864" lon="9.477879327248786"><ele>49.333333333333336</ele><time>2026-04-30T12:54:15.999Z</time></trkpt><trkpt lat="39.35222592925071" lon="9.478134479033255"><ele>47.66666666666667</ele><time>2026-04-30T12:54:16.999Z</time></trkpt><trkpt lat="39.35211229851734" lon="9.478370321675104"><ele>46.0</ele><time>2026-04-30T12:54:17.999Z</time></trkpt><trkpt lat="39.351986178185086" lon="9.47860646689665"><ele>53.0</ele><time>2026-04-30T12:54:18.999Z</time></trkpt><trkpt lat="39.351851435967845" lon="9.478841826813321"><ele>60.0</ele><time>2026-04-30T12:54:19.999Z</time></trkpt><trkpt lat="39.351725666476945" lon="9.479085361139852"><ele>60.0</ele><time>2026-04-30T12:54:20.999Z</time></trkpt><trkpt lat="39.35160626591128" lon="9.479339102270533"><ele>60.0</ele><time>2026-04-30T12:54:21.999Z</time></trkpt><trkpt lat="39.35148247710901" lon="9.47959113424546"><ele>65.0</ele><time>2026-04-30T12:54:22.999Z</time></trkpt><trkpt lat="39.35136051531744" lon="9.479844895521907"><ele>70.0</ele><time>2026-04-30T12:54:23.999Z</time></trkpt><trkpt lat="39.35122693796824" lon="9.480105293154065"><ele>70.0</ele><time>2026-04-30T12:54:24.999Z</time></trkpt><trkpt lat="39.351101051078835" lon="9.480358512691534"><ele>70.0</ele><time>2026-04-30T12:54:25.999Z</time></trkpt><trkpt lat="39.350993474864026" lon="9.480609317936798"><ele>64.0</ele><time>2026-04-30T12:54:26.999Z</time></trkpt><trkpt lat="39.35089930331897" lon="9.48087902536434"><ele>58.0</ele><time>2026-04-30T12:54:27.999Z</time></trkpt><trkpt lat="39.35080957929481" lon="9.48115852113832"><ele>53.0</ele><time>2026-04-30T12:54:28.999Z</time></trkpt><trkpt lat="39.350729751727684" lon="9.481453872592699"><ele>48.0</ele><time>2026-04-30T12:54:29.999Z</time></trkpt><trkpt lat="39.35065007602714" lon="9.481761071841298"><ele>48.0</ele><time>2026-04-30T12:54:30.999Z</time></trkpt><trkpt lat="39.35056186737379" lon="9.482071646446817"><ele>48.0</ele><time>2026-04-30T12:54:31.999Z</time></trkpt><trkpt lat="39.35047020986397" lon="9.482374190964535"><ele>51.0</ele><time>2026-04-30T12:54:32.999Z</time></trkpt><trkpt lat="39.35037723812083" lon="9.482670599226642"><ele>54.0</ele><time>2026-04-30T12:54:33.999Z</time></trkpt><trkpt lat="39.350294410062716" lon="9.482968038093691"><ele>54.0</ele><time>2026-04-30T12:54:34.999Z</time></trkpt><trkpt lat="39.3502144835133" lon="9.483259937395365"><ele>54.0</ele><time>2026-04-30T12:54:35.999Z</time></trkpt><trkpt lat="39.35013155285707" lon="9.483551150764251"><ele>52.0</ele><time>2026-04-30T12:54:36.999Z</time></trkpt><trkpt lat="39.350044008373274" lon="9.483837869194693"><ele>50.0</ele><time>2026-04-30T12:54:37.999Z</time></trkpt><trkpt lat="39.349958314442816" lon="9.484120934341073"><ele>50.0</ele><time>2026-04-30T12:54:38.999Z</time></trkpt><trkpt lat="39.34987451636193" lon="9.484404026926503"><ele>50.0</ele><time>2026-04-30T12:54:39.999Z</time></trkpt><trkpt lat="39.349793409951324" lon="9.4846849669605"><ele>47.0</ele><time>2026-04-30T12:54:40.999Z</time></trkpt><trkpt lat="39.34972127548287" lon="9.484964769621797"><ele>44.0</ele><time>2026-04-30T12:54:41.999Z</time></trkpt><trkpt lat="39.349663850588" lon="9.485484043254335"><ele>42.666666666666664</ele><time>2026-04-30T12:54:43.999Z</time></trkpt><trkpt lat="39.34968216645303" lon="9.485729473415134"><ele>41.333333333333336</ele><time>2026-04-30T12:54:44.999Z</time></trkpt><trkpt lat="39.3497556790337" lon="9.485965051175068"><ele>40.0</ele><time>2026-04-30T12:54:45.999Z</time></trkpt><trkpt lat="39.34988517517637" lon="9.486174751168848"><ele>42.333333333333336</ele><time>2026-04-30T12:54:46.999Z</time></trkpt><trkpt lat="39.350027262614006" lon="9.486372058801116"><ele>44.666666666666664</ele><time>2026-04-30T12:54:47.999Z</time></trkpt><trkpt lat="39.35018242268784" lon="9.48658103137007"><ele>47.0</ele><time>2026-04-30T12:54:48.999Z</time></trkpt><trkpt lat="39.35032543568828" lon="9.486792889441489"><ele>47.0</ele><time>2026-04-30T12:54:49.999Z</time></trkpt><trkpt lat="39.350467288053984" lon="9.487006392054456"><ele>47.0</ele><time>2026-04-30T12:54:50.999Z</time></trkpt><trkpt lat="39.350613355019135" lon="9.487231240267802"><ele>47.0</ele><time>2026-04-30T12:54:51.999Z</time></trkpt><trkpt lat="39.35076233610864" lon="9.487455602799555"><ele>45.5</ele><time>2026-04-30T12:54:52.999Z</time></trkpt><trkpt lat="39.35091222324218" lon="9.487673996876788"><ele>44.0</ele><time>2026-04-30T12:54:53.999Z</time></trkpt><trkpt lat="39.3510655919876" lon="9.487895085716138"><ele>41.0</ele><time>2026-04-30T12:54:54.999Z</time></trkpt><trkpt lat="39.35122263958136" lon="9.4881267718285"><ele>38.0</ele><time>2026-04-30T12:54:55.999Z</time></trkpt><trkpt lat="39.35138167328393" lon="9.488358763498226"><ele>38.0</ele><time>2026-04-30T12:54:56.999Z</time></trkpt><trkpt lat="39.35153088417758" lon="9.488584517487729"><ele>38.0</ele><time>2026-04-30T12:54:57.999Z</time></trkpt><trkpt lat="39.35168101233005" lon="9.488803561512647"><ele>44.5</ele><time>2026-04-30T12:54:58.999Z</time></trkpt><trkpt lat="39.351829450700954" lon="9.489022935316576"><ele>51.0</ele><time>2026-04-30T12:54:59.999Z</time></trkpt><trkpt lat="39.35197806975183" lon="9.489241603796941"><ele>51.0</ele><time>2026-04-30T12:55:00.999Z</time></trkpt><trkpt lat="39.35212695983654" lon="9.489458318014629"><ele>51.0</ele><time>2026-04-30T12:55:01.999Z</time></trkpt><trkpt lat="39.35227639881293" lon="9.489673783321857"><ele>51.0</ele><time>2026-04-30T12:55:02.999Z</time></trkpt><trkpt lat="39.35242665583876" lon="9.489891616633876"><ele>47.666666666666664</ele><time>2026-04-30T12:55:03.999Z</time></trkpt><trkpt lat="39.35257636168693" lon="9.49010931153057"><ele>44.33333333333333</ele><time>2026-04-30T12:55:04.999Z</time></trkpt><trkpt lat="39.352721731285975" lon="9.490327781636092"><ele>41.0</ele><time>2026-04-30T12:55:05.999Z</time></trkpt><trkpt lat="39.3528648171399" lon="9.490539827106852"><ele>39.0</ele><time>2026-04-30T12:55:06.999Z</time></trkpt><trkpt lat="39.352992823091355" lon="9.490737535847202"><ele>37.0</ele><time>2026-04-30T12:55:07.999Z</time></trkpt><trkpt lat="39.3531142003469" lon="9.490922935176703"><ele>35.0</ele><time>2026-04-30T12:55:08.999Z</time></trkpt><trkpt lat="39.35321054088715" lon="9.49110108978661"><ele>36.25</ele><time>2026-04-30T12:55:09.999Z</time></trkpt><trkpt lat="39.35327992906119" lon="9.491278308727843"><ele>37.5</ele><time>2026-04-30T12:55:10.999Z</time></trkpt><trkpt lat="39.35334344990057" lon="9.491435910553188"><ele>38.75</ele><time>2026-04-30T12:55:11.999Z</time></trkpt><trkpt lat="39.35341228283737" lon="9.4915496291655"><ele>40.0</ele><time>2026-04-30T12:55:12.999Z</time></trkpt><trkpt lat="39.353506741302326" lon="9.491624295413736"><ele>40.0</ele><time>2026-04-30T12:55:13.999Z</time></trkpt><trkpt lat="39.35361882439415" lon="9.491638772979623"><ele>40.0</ele><time>2026-04-30T12:55:14.999Z</time></trkpt><trkpt lat="39.35369751897016" lon="9.491599767185216"><ele>40.0</ele><time>2026-04-30T12:55:15.999Z</time></trkpt><trkpt lat="39.35376887111265" lon="9.491538277883503"><ele>40.0</ele><time>2026-04-30T12:55:16.999Z</time></trkpt><trkpt lat="39.35384284266304" lon="9.491475003460174"><ele>40.0</ele><time>2026-04-30T12:55:17.999Z</time></trkpt><trkpt lat="39.353904628001374" lon="9.491436144132864"><ele>40.0</ele><time>2026-04-30T12:55:18.999Z</time></trkpt><trkpt lat="39.35398670101858" lon="9.491380126961955"><ele>39.66666666666667</ele><time>2026-04-30T12:55:20.999Z</time></trkpt><trkpt lat="39.35404601493943" lon="9.491345347155514"><ele>39.333333333333336</ele><time>2026-04-30T12:55:23.999Z</time></trkpt><trkpt lat="39.35413605735449" lon="9.491247185725042"><ele>39.0</ele><time>2026-04-30T13:07:37.997Z</time></trkpt><trkpt lat="39.354199610961864" lon="9.491209195189832"><ele>38.666666666666664</ele><time>2026-04-30T13:07:38.997Z</time></trkpt><trkpt lat="39.35426475894357" lon="9.491162876610023"><ele>38.33333333333333</ele><time>2026-04-30T13:07:39.997Z</time></trkpt><trkpt lat="39.35433602497283" lon="9.49112556615321"><ele>38.0</ele><time>2026-04-30T13:07:40.997Z</time></trkpt><trkpt lat="39.354413855122445" lon="9.491138140341231"><ele>38.0</ele><time>2026-04-30T13:07:41.997Z</time></trkpt><trkpt lat="39.35448612760952" lon="9.49121841896893"><ele>38.0</ele><time>2026-04-30T13:07:42.997Z</time></trkpt><trkpt lat="39.354548722533934" lon="9.49133634148166"><ele>38.0</ele><time>2026-04-30T13:07:43.997Z</time></trkpt><trkpt lat="39.35461017900745" lon="9.491480263124913"><ele>38.0</ele><time>2026-04-30T13:07:44.997Z</time></trkpt><trkpt lat="39.354690947633536" lon="9.491627335656473"><ele>37.0</ele><time>2026-04-30T13:07:45.997Z</time></trkpt><trkpt lat="39.35478246314154" lon="9.4918060997634"><ele>36.0</ele><time>2026-04-30T13:07:46.997Z</time></trkpt><trkpt lat="39.35487845805263" lon="9.491994032235148"><ele>35.0</ele><time>2026-04-30T13:07:47.997Z</time></trkpt><trkpt lat="39.354983905090975" lon="9.492197131140713"><ele>35.0</ele><time>2026-04-30T13:07:48.997Z</time></trkpt><trkpt lat="39.35509716823101" lon="9.492412169197888"><ele>35.0</ele><time>2026-04-30T13:07:49.997Z</time></trkpt><trkpt lat="39.355216297650095" lon="9.492627718396445"><ele>35.0</ele><time>2026-04-30T13:07:50.997Z</time></trkpt><trkpt lat="39.355334159539034" lon="9.492867868885408"><ele>32.5</ele><time>2026-04-30T13:07:51.997Z</time></trkpt><trkpt lat="39.35546536612189" lon="9.493101638101987"><ele>30.0</ele><time>2026-04-30T13:07:52.997Z</time></trkpt><trkpt lat="39.35559923179898" lon="9.49334779634391"><ele>33.0</ele><time>2026-04-30T13:07:53.997Z</time></trkpt><trkpt lat="39.35573577369921" lon="9.493597830730131"><ele>36.0</ele><time>2026-04-30T13:07:54.997Z</time></trkpt><trkpt lat="39.35587775509834" lon="9.493850786838646"><ele>36.0</ele><time>2026-04-30T13:07:55.997Z</time></trkpt><trkpt lat="39.35602338163382" lon="9.49409746003674"><ele>36.0</ele><time>2026-04-30T13:07:56.997Z</time></trkpt><trkpt lat="39.356191288605324" lon="9.49431927621208"><ele>37.5</ele><time>2026-04-30T13:07:57.997Z</time></trkpt><trkpt lat="39.35639617786153" lon="9.494504638101295"><ele>39.0</ele><time>2026-04-30T13:07:58.997Z</time></trkpt><trkpt lat="39.356603274196615" lon="9.494660290754453"><ele>39.0</ele><time>2026-04-30T13:07:59.997Z</time></trkpt><trkpt lat="39.35681979532535" lon="9.494817150153251"><ele>39.0</ele><time>2026-04-30T13:08:00.997Z</time></trkpt><trkpt lat="39.35703656586185" lon="9.494974312903501"><ele>41.5</ele><time>2026-04-30T13:08:01.997Z</time></trkpt><trkpt lat="39.35725700140698" lon="9.495122628844271"><ele>44.0</ele><time>2026-04-30T13:08:02.997Z</time></trkpt><trkpt lat="39.35748940584081" lon="9.495228909365846"><ele>44.0</ele><time>2026-04-30T13:08:03.997Z</time></trkpt><trkpt lat="39.357732870280046" lon="9.495311992781058"><ele>44.0</ele><time>2026-04-30T13:08:04.997Z</time></trkpt><trkpt lat="39.35798308001576" lon="9.495366373631644"><ele>46.5</ele><time>2026-04-30T13:08:05.997Z</time></trkpt><trkpt lat="39.358234504548356" lon="9.495376311376475"><ele>49.0</ele><time>2026-04-30T13:08:06.997Z</time></trkpt><trkpt lat="39.358486948594084" lon="9.495336918648634"><ele>49.0</ele><time>2026-04-30T13:08:07.997Z</time></trkpt><trkpt lat="39.35872767850443" lon="9.495255481237457"><ele>49.0</ele><time>2026-04-30T13:08:08.996Z</time></trkpt><trkpt lat="39.35897687195999" lon="9.495164352887778"><ele>46.5</ele><time>2026-04-30T13:08:09.996Z</time></trkpt><trkpt lat="39.35922852184677" lon="9.495087420473613"><ele>44.0</ele><time>2026-04-30T13:08:10.996Z</time></trkpt><trkpt lat="39.359470751676646" lon="9.49502516220875"><ele>44.0</ele><time>2026-04-30T13:08:11.996Z</time></trkpt><trkpt lat="39.35967453169191" lon="9.494961131844866"><ele>44.0</ele><time>2026-04-30T13:08:12.996Z</time></trkpt><trkpt lat="39.35985199853149" lon="9.494908095915655"><ele>44.0</ele><time>2026-04-30T13:08:13.996Z</time></trkpt><trkpt lat="39.36001127714142" lon="9.494893894713584"><ele>43.33333333333333</ele><time>2026-04-30T13:08:14.996Z</time></trkpt><trkpt lat="39.360141154107076" lon="9.49495394809792"><ele>42.666666666666664</ele><time>2026-04-30T13:08:15.996Z</time></trkpt><trkpt lat="39.36022492374957" lon="9.495115078528455"><ele>42.0</ele><time>2026-04-30T13:08:16.996Z</time></trkpt><trkpt lat="39.36029506724297" lon="9.495345885062202"><ele>42.0</ele><time>2026-04-30T13:08:17.996Z</time></trkpt><trkpt lat="39.360378847702314" lon="9.49558404739664"><ele>42.0</ele><time>2026-04-30T13:08:18.998Z</time></trkpt><trkpt lat="39.360477160599956" lon="9.495820685703562"><ele>42.0</ele><time>2026-04-30T13:08:19.997Z</time></trkpt><trkpt lat="39.36057407628375" lon="9.496058747882032"><ele>43.666666666666664</ele><time>2026-04-30T13:08:20.997Z</time></trkpt><trkpt lat="39.36063057593127" lon="9.496306922231144"><ele>45.33333333333333</ele><time>2026-04-30T13:08:21.997Z</time></trkpt><trkpt lat="39.36063726719494" lon="9.496581338260626"><ele>47.0</ele><time>2026-04-30T13:08:22.997Z</time></trkpt><trkpt lat="39.360594915777654" lon="9.496869887818209"><ele>47.0</ele><time>2026-04-30T13:08:23.997Z</time></trkpt><trkpt lat="39.360536130938726" lon="9.497158143948884"><ele>47.0</ele><time>2026-04-30T13:08:24.997Z</time></trkpt><trkpt lat="39.36049067360081" lon="9.49746375389989"><ele>43.0</ele><time>2026-04-30T13:08:25.997Z</time></trkpt><trkpt lat="39.36044405776727" lon="9.497770707007248"><ele>39.0</ele><time>2026-04-30T13:08:26.997Z</time></trkpt><trkpt lat="39.36040119627807" lon="9.498089190063515"><ele>39.0</ele><time>2026-04-30T13:08:27.997Z</time></trkpt><trkpt lat="39.360375302019" lon="9.498412064370132"><ele>39.0</ele><time>2026-04-30T13:08:28.997Z</time></trkpt><trkpt lat="39.36039783575491" lon="9.49873080451623"><ele>38.5</ele><time>2026-04-30T13:08:29.997Z</time></trkpt><trkpt lat="39.360457320422874" lon="9.499038872521039"><ele>38.0</ele><time>2026-04-30T13:08:30.997Z</time></trkpt><trkpt lat="39.360554690443806" lon="9.499342167992399"><ele>40.5</ele><time>2026-04-30T13:08:31.997Z</time></trkpt><trkpt lat="39.36068947414901" lon="9.499627131463804"><ele>43.0</ele><time>2026-04-30T13:08:32.997Z</time></trkpt><trkpt lat="39.36084472318096" lon="9.49990582957808"><ele>43.0</ele><time>2026-04-30T13:08:33.997Z</time></trkpt><trkpt lat="39.360989549039715" lon="9.50019240129271"><ele>43.0</ele><time>2026-04-30T13:08:34.997Z</time></trkpt><trkpt lat="39.36113613563857" lon="9.500483231482683"><ele>42.0</ele><time>2026-04-30T13:08:35.997Z</time></trkpt><trkpt lat="39.36128211359703" lon="9.5007798893471"><ele>41.0</ele><time>2026-04-30T13:08:36.997Z</time></trkpt><trkpt lat="39.36143050117801" lon="9.501079226815072"><ele>38.5</ele><time>2026-04-30T13:08:37.997Z</time></trkpt><trkpt lat="39.36158165568461" lon="9.501387814484975"><ele>36.0</ele><time>2026-04-30T13:08:38.997Z</time></trkpt><trkpt lat="39.361732056501765" lon="9.501687019005391"><ele>36.0</ele><time>2026-04-30T13:08:39.997Z</time></trkpt><trkpt lat="39.36189023448787" lon="9.501976390833235"><ele>36.0</ele><time>2026-04-30T13:08:40.997Z</time></trkpt><trkpt lat="39.362054705276066" lon="9.502248884487841"><ele>38.0</ele><time>2026-04-30T13:08:41.997Z</time></trkpt><trkpt lat="39.3622411419942" lon="9.502497996137217"><ele>40.0</ele><time>2026-04-30T13:08:42.997Z</time></trkpt><trkpt lat="39.362443374154964" lon="9.50272783711475"><ele>38.0</ele><time>2026-04-30T13:08:43.997Z</time></trkpt><trkpt lat="39.362671037604244" lon="9.502944216633702"><ele>36.0</ele><time>2026-04-30T13:08:44.997Z</time></trkpt><trkpt lat="39.36290602502837" lon="9.503150443723689"><ele>39.0</ele><time>2026-04-30T13:08:45.997Z</time></trkpt><trkpt lat="39.36314231211278" lon="9.503351156321061"><ele>42.0</ele><time>2026-04-30T13:08:46.997Z</time></trkpt><trkpt lat="39.36337206494973" lon="9.503554785792033"><ele>41.0</ele><time>2026-04-30T13:08:47.997Z</time></trkpt><trkpt lat="39.36359978699897" lon="9.503753928410799"><ele>40.0</ele><time>2026-04-30T13:08:48.997Z</time></trkpt><trkpt lat="39.36383703290193" lon="9.503914492944324"><ele>41.0</ele><time>2026-04-30T13:08:49.997Z</time></trkpt><trkpt lat="39.36408806347586" lon="9.504024499937936"><ele>42.0</ele><time>2026-04-30T13:08:50.997Z</time></trkpt><trkpt lat="39.36435113090521" lon="9.50410827200003"><ele>42.0</ele><time>2026-04-30T13:08:51.997Z</time></trkpt><trkpt lat="39.36462004349314" lon="9.504193572542208"><ele>42.0</ele><time>2026-04-30T13:08:52.997Z</time></trkpt><trkpt lat="39.36489123831075" lon="9.504276657841897"><ele>43.5</ele><time>2026-04-30T13:08:53.997Z</time></trkpt><trkpt lat="39.36516372185397" lon="9.50434322829923"><ele>45.0</ele><time>2026-04-30T13:08:54.997Z</time></trkpt><trkpt lat="39.36543752679859" lon="9.504380620055018"><ele>46.5</ele><time>2026-04-30T13:08:55.997Z</time></trkpt><trkpt lat="39.36568988264029" lon="9.504402545906627"><ele>48.0</ele><time>2026-04-30T13:08:56.997Z</time></trkpt><trkpt lat="39.365929825563015" lon="9.504419958173717"><ele>48.0</ele><time>2026-04-30T13:08:57.997Z</time></trkpt><trkpt lat="39.36614613437029" lon="9.50443851618881"><ele>48.0</ele><time>2026-04-30T13:08:58.997Z</time></trkpt><trkpt lat="39.36631536025952" lon="9.50445870039273"><ele>48.0</ele><time>2026-04-30T13:08:59.997Z</time></trkpt><trkpt lat="39.366457195354464" lon="9.504532631124883"><ele>46.0</ele><time>2026-04-30T13:09:00.997Z</time></trkpt><trkpt lat="39.36658434032186" lon="9.504685699314232"><ele>44.0</ele><time>2026-04-30T13:09:01.997Z</time></trkpt><trkpt lat="39.366682412367545" lon="9.504910976672521"><ele>42.0</ele><time>2026-04-30T13:09:02.997Z</time></trkpt><trkpt lat="39.36678070900794" lon="9.5051576917152"><ele>42.333333333333336</ele><time>2026-04-30T13:09:03.997Z</time></trkpt><trkpt lat="39.366842855798254" lon="9.505418985076323"><ele>42.66666666666667</ele><time>2026-04-30T13:09:04.997Z</time></trkpt><trkpt lat="39.36686208100356" lon="9.505714797363332"><ele>43.0</ele><time>2026-04-30T13:09:05.997Z</time></trkpt><trkpt lat="39.3668708032315" lon="9.506024587201585"><ele>43.0</ele><time>2026-04-30T13:09:06.997Z</time></trkpt><trkpt lat="39.3668772725955" lon="9.506348280444891"><ele>43.0</ele><time>2026-04-30T13:09:07.997Z</time></trkpt><trkpt lat="39.36689264415775" lon="9.5066811988239"><ele>43.0</ele><time>2026-04-30T13:09:08.997Z</time></trkpt><trkpt lat="39.36690930790443" lon="9.507020043548803"><ele>43.0</ele><time>2026-04-30T13:09:09.997Z</time></trkpt><trkpt lat="39.36693094913258" lon="9.507364042192805"><ele>43.0</ele><time>2026-04-30T13:09:10.997Z</time></trkpt><trkpt lat="39.36695044744897" lon="9.507716602182054"><ele>43.0</ele><time>2026-04-30T13:09:11.997Z</time></trkpt><trkpt lat="39.36696969995111" lon="9.508081802747467"><ele>42.5</ele><time>2026-04-30T13:09:12.997Z</time></trkpt><trkpt lat="39.366987059646384" lon="9.508450733197922"><ele>42.0</ele><time>2026-04-30T13:09:13.997Z</time></trkpt><trkpt lat="39.36700443957383" lon="9.508819385949852"><ele>42.0</ele><time>2026-04-30T13:09:14.996Z</time></trkpt><trkpt lat="39.36702559758638" lon="9.509192654949784"><ele>42.0</ele><time>2026-04-30T13:09:15.996Z</time></trkpt><trkpt lat="39.36704292216314" lon="9.509570976360951"><ele>42.0</ele><time>2026-04-30T13:09:16.996Z</time></trkpt><trkpt lat="39.36706763245641" lon="9.509952646346667"><ele>42.0</ele><time>2026-04-30T13:09:17.996Z</time></trkpt><trkpt lat="39.36708798215562" lon="9.510336453013288"><ele>41.5</ele><time>2026-04-30T13:09:18.996Z</time></trkpt><trkpt lat="39.367104492931695" lon="9.510727127797693"><ele>41.0</ele><time>2026-04-30T13:09:19.996Z</time></trkpt><trkpt lat="39.367124060043125" lon="9.511117964569547"><ele>40.5</ele><time>2026-04-30T13:09:20.996Z</time></trkpt><trkpt lat="39.367147807302295" lon="9.511511638033424"><ele>40.0</ele><time>2026-04-30T13:09:21.996Z</time></trkpt><trkpt lat="39.36716908970656" lon="9.511908049331707"><ele>40.0</ele><time>2026-04-30T13:09:22.996Z</time></trkpt><trkpt lat="39.36719360905581" lon="9.512305909134556"><ele>40.0</ele><time>2026-04-30T13:09:23.996Z</time></trkpt><trkpt lat="39.36721853962333" lon="9.512704894775519"><ele>39.0</ele><time>2026-04-30T13:09:24.996Z</time></trkpt><trkpt lat="39.367242395642634" lon="9.513107905262132"><ele>38.0</ele><time>2026-04-30T13:09:25.996Z</time></trkpt><trkpt lat="39.367265617522115" lon="9.51351307836752"><ele>36.0</ele><time>2026-04-30T13:09:26.996Z</time></trkpt><trkpt lat="39.367286151158794" lon="9.513920055787267"><ele>34.0</ele><time>2026-04-30T13:09:27.996Z</time></trkpt><trkpt lat="39.36730913358207" lon="9.514329839947038"><ele>33.5</ele><time>2026-04-30T13:09:28.996Z</time></trkpt><trkpt lat="39.367331742237006" lon="9.514739173116924"><ele>33.0</ele><time>2026-04-30T13:09:29.996Z</time></trkpt><trkpt lat="39.36735071771441" lon="9.515150353551423"><ele>34.0</ele><time>2026-04-30T13:09:30.996Z</time></trkpt><trkpt lat="39.36737366744173" lon="9.515554201639151"><ele>35.0</ele><time>2026-04-30T13:09:31.996Z</time></trkpt><trkpt lat="39.367400456657" lon="9.51595071455227"><ele>35.5</ele><time>2026-04-30T13:09:32.996Z</time></trkpt><trkpt lat="39.36741651123541" lon="9.516343580288163"><ele>36.0</ele><time>2026-04-30T13:09:33.996Z</time></trkpt><trkpt lat="39.36743955067404" lon="9.516735528887272"><ele>36.0</ele><time>2026-04-30T13:09:34.996Z</time></trkpt><trkpt lat="39.36746263727454" lon="9.517126696515481"><ele>36.0</ele><time>2026-04-30T13:09:35.996Z</time></trkpt><trkpt lat="39.367479891490454" lon="9.517519495356256"><ele>35.5</ele><time>2026-04-30T13:09:36.996Z</time></trkpt><trkpt lat="39.367501221448386" lon="9.517908864919043"><ele>35.0</ele><time>2026-04-30T13:09:37.996Z</time></trkpt><trkpt lat="39.36752559483215" lon="9.518298745315793"><ele>35.0</ele><time>2026-04-30T13:09:38.996Z</time></trkpt><trkpt lat="39.367549043034835" lon="9.518681225502855"><ele>35.0</ele><time>2026-04-30T13:09:39.996Z</time></trkpt><trkpt lat="39.36757097660833" lon="9.519059489301876"><ele>35.0</ele><time>2026-04-30T13:09:40.996Z</time></trkpt><trkpt lat="39.367590797825095" lon="9.519442338968254"><ele>35.0</ele><time>2026-04-30T13:09:41.996Z</time></trkpt><trkpt lat="39.367613317618904" lon="9.519820211898551"><ele>34.0</ele><time>2026-04-30T13:09:42.996Z</time></trkpt><trkpt lat="39.36762924597329" lon="9.520206586799517"><ele>33.0</ele><time>2026-04-30T13:09:43.996Z</time></trkpt><trkpt lat="39.367650316744424" lon="9.520588955654604"><ele>33.0</ele><time>2026-04-30T13:09:44.996Z</time></trkpt><trkpt lat="39.367672516591284" lon="9.520973250621616"><ele>33.0</ele><time>2026-04-30T13:09:45.996Z</time></trkpt><trkpt lat="39.36769295977938" lon="9.521356134634852"><ele>33.5</ele><time>2026-04-30T13:09:46.996Z</time></trkpt><trkpt lat="39.36772019071366" lon="9.521747419205052"><ele>34.0</ele><time>2026-04-30T13:09:47.996Z</time></trkpt><trkpt lat="39.36773693720348" lon="9.52213415662097"><ele>33.0</ele><time>2026-04-30T13:09:48.996Z</time></trkpt><trkpt lat="39.36775725802184" lon="9.522520564082926"><ele>32.0</ele><time>2026-04-30T13:09:49.996Z</time></trkpt><trkpt lat="39.36778068840634" lon="9.522909992072526"><ele>31.0</ele><time>2026-04-30T13:09:50.996Z</time></trkpt><trkpt lat="39.367803500667904" lon="9.523295042839006"><ele>30.0</ele><time>2026-04-30T13:09:51.996Z</time></trkpt><trkpt lat="39.36782523534344" lon="9.523681068444196"><ele>29.5</ele><time>2026-04-30T13:09:52.996Z</time></trkpt><trkpt lat="39.367849023497996" lon="9.524071517569359"><ele>29.0</ele><time>2026-04-30T13:09:53.996Z</time></trkpt><trkpt lat="39.36786913267945" lon="9.524467021364753"><ele>29.5</ele><time>2026-04-30T13:09:54.996Z</time></trkpt><trkpt lat="39.367893961084874" lon="9.524856215119595"><ele>30.0</ele><time>2026-04-30T13:09:55.996Z</time></trkpt><trkpt lat="39.367913687367526" lon="9.525236414577874"><ele>30.5</ele><time>2026-04-30T13:09:56.996Z</time></trkpt><trkpt lat="39.36793104641096" lon="9.525615297915113"><ele>31.0</ele><time>2026-04-30T13:09:57.996Z</time></trkpt><trkpt lat="39.36795131105368" lon="9.525997119807904"><ele>30.5</ele><time>2026-04-30T13:09:58.996Z</time></trkpt><trkpt lat="39.367973175394624" lon="9.526372831485167"><ele>30.0</ele><time>2026-04-30T13:09:59.996Z</time></trkpt><trkpt lat="39.36798947145721" lon="9.526753009121894"><ele>29.5</ele><time>2026-04-30T13:10:00.996Z</time></trkpt><trkpt lat="39.368008034750225" lon="9.527134855079476"><ele>29.0</ele><time>2026-04-30T13:10:01.996Z</time></trkpt><trkpt lat="39.36802747638734" lon="9.527515886655367"><ele>31.0</ele><time>2026-04-30T13:10:02.996Z</time></trkpt><trkpt lat="39.36805347928812" lon="9.527896723427503"><ele>33.0</ele><time>2026-04-30T13:10:03.996Z</time></trkpt><trkpt lat="39.368074708048304" lon="9.52828261926265"><ele>33.0</ele><time>2026-04-30T13:10:04.996Z</time></trkpt><trkpt lat="39.36809698330175" lon="9.528670705163913"><ele>33.0</ele><time>2026-04-30T13:10:05.996Z</time></trkpt><trkpt lat="39.36811905110734" lon="9.52905815138858"><ele>32.0</ele><time>2026-04-30T13:10:06.996Z</time></trkpt><trkpt lat="39.36814399421815" lon="9.529443529525519"><ele>31.0</ele><time>2026-04-30T13:10:07.996Z</time></trkpt><trkpt lat="39.36816682674063" lon="9.52983491387149"><ele>30.5</ele><time>2026-04-30T13:10:08.996Z</time></trkpt><trkpt lat="39.36819046141349" lon="9.530224472961491"><ele>30.0</ele><time>2026-04-30T13:10:09.996Z</time></trkpt><trkpt lat="39.368212265894606" lon="9.5306076572895"><ele>29.0</ele><time>2026-04-30T13:10:10.996Z</time></trkpt><trkpt lat="39.36823023236424" lon="9.530976824269432"><ele>28.0</ele><time>2026-04-30T13:10:11.996Z</time></trkpt><trkpt lat="39.368247893144655" lon="9.53133963937111"><ele>26.5</ele><time>2026-04-30T13:10:12.996Z</time></trkpt><trkpt lat="39.368265701159764" lon="9.531709350906716"><ele>25.0</ele><time>2026-04-30T13:10:13.996Z</time></trkpt><trkpt lat="39.36828717307849" lon="9.532084030879915"><ele>24.0</ele><time>2026-04-30T13:10:14.996Z</time></trkpt><trkpt lat="39.36830812583842" lon="9.532471768325074"><ele>23.0</ele><time>2026-04-30T13:10:15.996Z</time></trkpt><trkpt lat="39.368326013890346" lon="9.532852056849555"><ele>24.5</ele><time>2026-04-30T13:10:16.996Z</time></trkpt><trkpt lat="39.36834777781717" lon="9.533223682062081"><ele>26.0</ele><time>2026-04-30T13:10:17.996Z</time></trkpt><trkpt lat="39.36837002377443" lon="9.53359422112121"><ele>27.0</ele><time>2026-04-30T13:10:18.996Z</time></trkpt><trkpt lat="39.36838884964442" lon="9.533966253619965"><ele>28.0</ele><time>2026-04-30T13:10:19.996Z</time></trkpt><trkpt lat="39.36840508577672" lon="9.534341408114399"><ele>29.0</ele><time>2026-04-30T13:10:20.996Z</time></trkpt><trkpt lat="39.368413313927576" lon="9.534715627694464"><ele>30.0</ele><time>2026-04-30T13:10:21.996Z</time></trkpt><trkpt lat="39.36841622185372" lon="9.535088900287125"><ele>29.5</ele><time>2026-04-30T13:10:22.996Z</time></trkpt><trkpt lat="39.36841481681497" lon="9.535455797652402"><ele>29.0</ele><time>2026-04-30T13:10:23.996Z</time></trkpt><trkpt lat="39.36841305511986" lon="9.535822502551937"><ele>29.0</ele><time>2026-04-30T13:10:24.996Z</time></trkpt><trkpt lat="39.368413800205786" lon="9.536191225216497"><ele>29.0</ele><time>2026-04-30T13:10:25.995Z</time></trkpt><trkpt lat="39.36842040362126" lon="9.536553772945267"><ele>29.5</ele><time>2026-04-30T13:10:26.995Z</time></trkpt><trkpt lat="39.36842105391902" lon="9.536922010332354"><ele>30.0</ele><time>2026-04-30T13:10:27.996Z</time></trkpt><trkpt lat="39.3684220741584" lon="9.537286705666792"><ele>30.0</ele><time>2026-04-30T13:10:28.995Z</time></trkpt><trkpt lat="39.36842697289849" lon="9.537623203765675"><ele>30.0</ele><time>2026-04-30T13:10:29.995Z</time></trkpt><trkpt lat="39.368436363715595" lon="9.537956540307306"><ele>29.5</ele><time>2026-04-30T13:10:30.996Z</time></trkpt><trkpt lat="39.36844192211493" lon="9.538280668445601"><ele>29.0</ele><time>2026-04-30T13:10:31.995Z</time></trkpt><trkpt lat="39.36844018423958" lon="9.538584375786414"><ele>29.333333333333332</ele><time>2026-04-30T13:10:32.995Z</time></trkpt><trkpt lat="39.36843895758244" lon="9.538860072845182"><ele>29.666666666666664</ele><time>2026-04-30T13:10:33.996Z</time></trkpt><trkpt lat="39.36844020967898" lon="9.539094775236032"><ele>30.0</ele><time>2026-04-30T13:10:34.995Z</time></trkpt><trkpt lat="39.36843008951814" lon="9.539315543598592"><ele>30.0</ele><time>2026-04-30T13:10:35.995Z</time></trkpt><trkpt lat="39.36843859651125" lon="9.539485577911515"><ele>30.0</ele><time>2026-04-30T13:10:36.995Z</time></trkpt><trkpt lat="39.368489499172036" lon="9.539622312308307"><ele>30.0</ele><time>2026-04-30T13:10:37.996Z</time></trkpt><trkpt lat="39.36859445222207" lon="9.53972356309087"><ele>30.0</ele><time>2026-04-30T13:10:38.996Z</time></trkpt><trkpt lat="39.36873473183107" lon="9.539775634142785"><ele>30.0</ele><time>2026-04-30T13:10:39.996Z</time></trkpt><trkpt lat="39.36893023812496" lon="9.539729239033191"><ele>30.0</ele><time>2026-04-30T13:10:40.996Z</time></trkpt><trkpt lat="39.36910132256647" lon="9.539641327609388"><ele>30.0</ele><time>2026-04-30T13:10:41.996Z</time></trkpt><trkpt lat="39.36925394339795" lon="9.53950954694024"><ele>30.0</ele><time>2026-04-30T13:10:42.996Z</time></trkpt><trkpt lat="39.36937012846898" lon="9.539346945746306"><ele>30.0</ele><time>2026-04-30T13:10:43.996Z</time></trkpt><trkpt lat="39.36942205621796" lon="9.539180131771156"><ele>30.0</ele><time>2026-04-30T13:10:44.996Z</time></trkpt><trkpt lat="39.369442367955315" lon="9.539028387402931"><ele>30.0</ele><time>2026-04-30T13:10:45.996Z</time></trkpt><trkpt lat="39.36944090995979" lon="9.53888287555944"><ele>30.0</ele><time>2026-04-30T13:10:46.996Z</time></trkpt><trkpt lat="39.3694365727448" lon="9.538757338565288"><ele>30.0</ele><time>2026-04-30T13:10:47.996Z</time></trkpt><trkpt lat="39.36944478145698" lon="9.538648106996893"><ele>30.0</ele><time>2026-04-30T13:10:48.996Z</time></trkpt><trkpt lat="39.36945879860547" lon="9.53855077918141"><ele>30.0</ele><time>2026-04-30T13:10:49.996Z</time></trkpt><trkpt lat="39.369476032805906" lon="9.5384451861838"><ele>30.0</ele><time>2026-04-30T13:10:50.995Z</time></trkpt><trkpt lat="39.3695094231647" lon="9.538337287615683"><ele>30.0</ele><time>2026-04-30T13:10:51.995Z</time></trkpt><trkpt lat="39.3695607398061" lon="9.538224358634483"><ele>30.25</ele><time>2026-04-30T13:10:52.995Z</time></trkpt><trkpt lat="39.36962567751909" lon="9.538118763792948"><ele>30.5</ele><time>2026-04-30T13:10:53.995Z</time></trkpt><trkpt lat="39.36971035708224" lon="9.53802250792372"><ele>30.75</ele><time>2026-04-30T13:10:54.995Z</time></trkpt><trkpt lat="39.36981490882901" lon="9.53794361252214"><ele>31.0</ele><time>2026-04-30T13:10:55.995Z</time></trkpt><trkpt lat="39.369936064523905" lon="9.537884908188474"><ele>32.0</ele><time>2026-04-30T13:10:56.995Z</time></trkpt><trkpt lat="39.37007024364556" lon="9.537851264284463"><ele>33.0</ele><time>2026-04-30T13:10:57.995Z</time></trkpt><trkpt lat="39.370216849472044" lon="9.53782189207229"><ele>34.0</ele><time>2026-04-30T13:10:58.995Z</time></trkpt><trkpt lat="39.37037057526959" lon="9.537791645056787"><ele>35.0</ele><time>2026-04-30T13:10:59.995Z</time></trkpt><trkpt lat="39.37052303340685" lon="9.537758465511684"><ele>35.33333333333333</ele><time>2026-04-30T13:11:00.995Z</time></trkpt><trkpt lat="39.37068416852461" lon="9.537720815914842"><ele>35.666666666666664</ele><time>2026-04-30T13:11:01.995Z</time></trkpt><trkpt lat="39.370848198057175" lon="9.537678505816409"><ele>36.0</ele><time>2026-04-30T13:11:02.995Z</time></trkpt><trkpt lat="39.371017642966706" lon="9.537641091295704"><ele>36.0</ele><time>2026-04-30T13:11:03.995Z</time></trkpt><trkpt lat="39.371196183365704" lon="9.537605253205871"><ele>36.0</ele><time>2026-04-30T13:11:04.995Z</time></trkpt><trkpt lat="39.37138086020158" lon="9.537567450341395"><ele>36.0</ele><time>2026-04-30T13:11:05.995Z</time></trkpt><trkpt lat="39.37156682879499" lon="9.537530585078873"><ele>36.666666666666664</ele><time>2026-04-30T13:11:06.995Z</time></trkpt><trkpt lat="39.37175287752249" lon="9.537491878167302"><ele>37.33333333333333</ele><time>2026-04-30T13:11:07.995Z</time></trkpt><trkpt lat="39.37194010411448" lon="9.537453594357087"><ele>38.0</ele><time>2026-04-30T13:11:08.995Z</time></trkpt><trkpt lat="39.3721306652807" lon="9.537419732049495"><ele>39.0</ele><time>2026-04-30T13:11:09.995Z</time></trkpt><trkpt lat="39.37231923141804" lon="9.537385382069564"><ele>40.0</ele><time>2026-04-30T13:11:10.995Z</time></trkpt><trkpt lat="39.37250898024991" lon="9.537344137015385"><ele>41.0</ele><time>2026-04-30T13:11:11.995Z</time></trkpt><trkpt lat="39.37270733762992" lon="9.537307824237228"><ele>41.0</ele><time>2026-04-30T13:11:12.995Z</time></trkpt><trkpt lat="39.372910334643144" lon="9.537270288290332"><ele>41.0</ele><time>2026-04-30T13:11:13.995Z</time></trkpt><trkpt lat="39.37311732160756" lon="9.537229368831445"><ele>41.0</ele><time>2026-04-30T13:11:14.995Z</time></trkpt><trkpt lat="39.37332733980741" lon="9.5371898516037"><ele>41.0</ele><time>2026-04-30T13:11:15.995Z</time></trkpt><trkpt lat="39.37354240031649" lon="9.537151459969103"><ele>41.0</ele><time>2026-04-30T13:11:16.995Z</time></trkpt><trkpt lat="39.373761276627974" lon="9.537112990289431"><ele>41.0</ele><time>2026-04-30T13:11:17.995Z</time></trkpt><trkpt lat="39.373981170132886" lon="9.537074251174506"><ele>41.666666666666664</ele><time>2026-04-30T13:11:18.995Z</time></trkpt><trkpt lat="39.374199968226584" lon="9.5370315916924"><ele>42.333333333333336</ele><time>2026-04-30T13:11:19.995Z</time></trkpt><trkpt lat="39.37441601014799" lon="9.536988511728117"><ele>43.0</ele><time>2026-04-30T13:11:20.995Z</time></trkpt><trkpt lat="39.37463014579131" lon="9.536946617243805"><ele>43.66666666666667</ele><time>2026-04-30T13:11:21.995Z</time></trkpt><trkpt lat="39.374841291741035" lon="9.536907827296739"><ele>44.333333333333336</ele><time>2026-04-30T13:11:22.995Z</time></trkpt><trkpt lat="39.3750502417938" lon="9.536866941777543"><ele>45.0</ele><time>2026-04-30T13:11:23.995Z</time></trkpt><trkpt lat="39.37526168253394" lon="9.536828308885545"><ele>45.0</ele><time>2026-04-30T13:11:24.995Z</time></trkpt><trkpt lat="39.37546968666085" lon="9.536799699356504"><ele>45.0</ele><time>2026-04-30T13:11:25.995Z</time></trkpt><trkpt lat="39.375682342294894" lon="9.536766178707905"><ele>45.0</ele><time>2026-04-30T13:11:26.995Z</time></trkpt><trkpt lat="39.3758988047248" lon="9.53672485523716"><ele>46.0</ele><time>2026-04-30T13:11:27.995Z</time></trkpt><trkpt lat="39.3761148466685" lon="9.53668219995933"><ele>47.0</ele><time>2026-04-30T13:11:28.995Z</time></trkpt><trkpt lat="39.376332448517275" lon="9.53664104780233"><ele>48.0</ele><time>2026-04-30T13:11:29.995Z</time></trkpt><trkpt lat="39.37655285027961" lon="9.536599733708636"><ele>49.0</ele><time>2026-04-30T13:11:30.995Z</time></trkpt><trkpt lat="39.3767750140311" lon="9.536557452320839"><ele>50.0</ele><time>2026-04-30T13:11:31.995Z</time></trkpt><trkpt lat="39.37699807908089" lon="9.536513214669425"><ele>50.0</ele><time>2026-04-30T13:11:32.995Z</time></trkpt><trkpt lat="39.37722152709455" lon="9.536467935448275"><ele>50.0</ele><time>2026-04-30T13:11:33.995Z</time></trkpt><trkpt lat="39.377446246740014" lon="9.536425532373936"><ele>50.0</ele><time>2026-04-30T13:11:34.995Z</time></trkpt><trkpt lat="39.37766901785091" lon="9.53638214472434"><ele>50.0</ele><time>2026-04-30T13:11:35.995Z</time></trkpt><trkpt lat="39.37789426218284" lon="9.536343530962485"><ele>52.0</ele><time>2026-04-30T13:11:36.995Z</time></trkpt><trkpt lat="39.37812252689528" lon="9.536299456218083"><ele>54.0</ele><time>2026-04-30T13:11:37.995Z</time></trkpt><trkpt lat="39.378349517390554" lon="9.536253801106126"><ele>54.0</ele><time>2026-04-30T13:11:38.995Z</time></trkpt><trkpt lat="39.37857576129907" lon="9.536219334415748"><ele>54.0</ele><time>2026-04-30T13:11:39.995Z</time></trkpt><trkpt lat="39.37880230590123" lon="9.536188616555323"><ele>55.5</ele><time>2026-04-30T13:11:40.995Z</time></trkpt><trkpt lat="39.37902754102709" lon="9.536161260371161"><ele>57.0</ele><time>2026-04-30T13:11:41.995Z</time></trkpt><trkpt lat="39.37925223338798" lon="9.53614560500038"><ele>57.0</ele><time>2026-04-30T13:11:42.995Z</time></trkpt><trkpt lat="39.37947399982075" lon="9.536126937737809"><ele>57.0</ele><time>2026-04-30T13:11:43.995Z</time></trkpt><trkpt lat="39.379694342183" lon="9.536110685218643"><ele>57.0</ele><time>2026-04-30T13:11:44.995Z</time></trkpt><trkpt lat="39.379916982690105" lon="9.536106593259175"><ele>58.0</ele><time>2026-04-30T13:11:45.995Z</time></trkpt><trkpt lat="39.380137077752515" lon="9.536125325260574"><ele>59.0</ele><time>2026-04-30T13:11:46.995Z</time></trkpt><trkpt lat="39.38034545361857" lon="9.536166151625071"><ele>60.0</ele><time>2026-04-30T13:11:47.995Z</time></trkpt><trkpt lat="39.380564413604326" lon="9.536226727942173"><ele>62.0</ele><time>2026-04-30T13:11:48.995Z</time></trkpt><trkpt lat="39.380792130116305" lon="9.536293615633506"><ele>64.0</ele><time>2026-04-30T13:11:49.995Z</time></trkpt><trkpt lat="39.381021037697366" lon="9.536368058300848"><ele>64.0</ele><time>2026-04-30T13:11:50.995Z</time></trkpt><trkpt lat="39.3812828900096" lon="9.536442950639387"><ele>64.0</ele><time>2026-04-30T13:11:51.995Z</time></trkpt><trkpt lat="39.381528408040744" lon="9.536527689711372"><ele>66.5</ele><time>2026-04-30T13:11:52.995Z</time></trkpt><trkpt lat="39.38179825545808" lon="9.536597182286153"><ele>69.0</ele><time>2026-04-30T13:11:53.995Z</time></trkpt><trkpt lat="39.382051970183255" lon="9.536637620378887"><ele>71.0</ele><time>2026-04-30T13:11:54.995Z</time></trkpt><trkpt lat="39.382295050049265" lon="9.53665204136865"><ele>73.0</ele><time>2026-04-30T13:11:55.995Z</time></trkpt><trkpt lat="39.38252968988845" lon="9.536608203543157"><ele>73.0</ele><time>2026-04-30T13:11:56.995Z</time></trkpt><trkpt lat="39.3827685617481" lon="9.536560356995126"><ele>73.0</ele><time>2026-04-30T13:11:57.995Z</time></trkpt><trkpt lat="39.38300949316434" lon="9.536578469276026"><ele>74.5</ele><time>2026-04-30T13:11:58.995Z</time></trkpt><trkpt lat="39.3832443936054" lon="9.536632888328102"><ele>76.0</ele><time>2026-04-30T13:11:59.995Z</time></trkpt><trkpt lat="39.38347696150265" lon="9.536698097352073"><ele>76.0</ele><time>2026-04-30T13:12:00.995Z</time></trkpt><trkpt lat="39.383707368688164" lon="9.536771329069538"><ele>76.0</ele><time>2026-04-30T13:12:01.995Z</time></trkpt><trkpt lat="39.38393138584368" lon="9.536853467198336"><ele>79.0</ele><time>2026-04-30T13:12:02.995Z</time></trkpt><trkpt lat="39.38415445169786" lon="9.536936894250818"><ele>82.0</ele><time>2026-04-30T13:12:03.995Z</time></trkpt><trkpt lat="39.384373780776485" lon="9.537029090702283"><ele>82.5</ele><time>2026-04-30T13:12:04.995Z</time></trkpt><trkpt lat="39.38459504696549" lon="9.537130402642148"><ele>83.0</ele><time>2026-04-30T13:12:05.995Z</time></trkpt><trkpt lat="39.38481125260215" lon="9.537233936464638"><ele>83.0</ele><time>2026-04-30T13:12:06.995Z</time></trkpt><trkpt lat="39.38502550849623" lon="9.537351532656837"><ele>83.0</ele><time>2026-04-30T13:12:07.995Z</time></trkpt><trkpt lat="39.38523736358529" lon="9.537479613917304"><ele>83.0</ele><time>2026-04-30T13:12:08.995Z</time></trkpt><trkpt lat="39.385447310026045" lon="9.537614254413452"><ele>83.0</ele><time>2026-04-30T13:12:09.995Z</time></trkpt><trkpt lat="39.38566005605386" lon="9.537758987665656"><ele>79.5</ele><time>2026-04-30T13:12:10.995Z</time></trkpt><trkpt lat="39.38587416266965" lon="9.537909952549782"><ele>76.0</ele><time>2026-04-30T13:12:11.995Z</time></trkpt><trkpt lat="39.38608776995827" lon="9.538067756306726"><ele>76.0</ele><time>2026-04-30T13:12:12.995Z</time></trkpt><trkpt lat="39.386300032859076" lon="9.538229250672691"><ele>76.0</ele><time>2026-04-30T13:12:13.995Z</time></trkpt><trkpt lat="39.38650985103245" lon="9.538396190400157"><ele>77.5</ele><time>2026-04-30T13:12:14.995Z</time></trkpt><trkpt lat="39.38672027854959" lon="9.538574108586843"><ele>79.0</ele><time>2026-04-30T13:12:15.995Z</time></trkpt><trkpt lat="39.38693086340091" lon="9.538757131886458"><ele>79.0</ele><time>2026-04-30T13:12:16.995Z</time></trkpt><trkpt lat="39.38714164350006" lon="9.538943941075406"><ele>79.0</ele><time>2026-04-30T13:12:17.995Z</time></trkpt><trkpt lat="39.38734751993233" lon="9.539130648687605"><ele>84.0</ele><time>2026-04-30T13:12:18.995Z</time></trkpt><trkpt lat="39.38755545107542" lon="9.539320501962179"><ele>89.0</ele><time>2026-04-30T13:12:19.995Z</time></trkpt><trkpt lat="39.38776360131671" lon="9.539515794026235"><ele>89.5</ele><time>2026-04-30T13:12:20.995Z</time></trkpt><trkpt lat="39.38797461387826" lon="9.539713603869982"><ele>90.0</ele><time>2026-04-30T13:12:21.995Z</time></trkpt><trkpt lat="39.388186597831215" lon="9.539907847238428"><ele>90.0</ele><time>2026-04-30T13:12:22.995Z</time></trkpt><trkpt lat="39.388397181912694" lon="9.540106568766845"><ele>90.0</ele><time>2026-04-30T13:12:23.995Z</time></trkpt><trkpt lat="39.38860996032462" lon="9.540310214794287"><ele>91.5</ele><time>2026-04-30T13:12:24.994Z</time></trkpt><trkpt lat="39.38882453689438" lon="9.540515542503607"><ele>93.0</ele><time>2026-04-30T13:12:25.994Z</time></trkpt><trkpt lat="39.38904123892253" lon="9.540720812208058"><ele>95.0</ele><time>2026-04-30T13:12:26.994Z</time></trkpt><trkpt lat="39.389257104994044" lon="9.540923791713533"><ele>97.0</ele><time>2026-04-30T13:12:27.994Z</time></trkpt><trkpt lat="39.38947022260396" lon="9.541126145709274"><ele>105.0</ele><time>2026-04-30T13:12:28.994Z</time></trkpt><trkpt lat="39.389683180407175" lon="9.541324304378021"><ele>113.0</ele><time>2026-04-30T13:12:29.994Z</time></trkpt><trkpt lat="39.38989037963222" lon="9.541528279846748"><ele>113.0</ele><time>2026-04-30T13:12:30.995Z</time></trkpt><trkpt lat="39.39009828521383" lon="9.541728040760866"><ele>113.0</ele><time>2026-04-30T13:12:31.994Z</time></trkpt><trkpt lat="39.39030771139874" lon="9.541929003385432"><ele>112.5</ele><time>2026-04-30T13:12:32.994Z</time></trkpt><trkpt lat="39.39051817571941" lon="9.542132990608408"><ele>112.0</ele><time>2026-04-30T13:12:33.995Z</time></trkpt><trkpt lat="39.390729360182824" lon="9.542335645842032"><ele>112.0</ele><time>2026-04-30T13:12:34.994Z</time></trkpt><trkpt lat="39.39094085229642" lon="9.542540524136676"><ele>112.0</ele><time>2026-04-30T13:12:35.994Z</time></trkpt><trkpt lat="39.39115291890636" lon="9.542743066076136"><ele>123.0</ele><time>2026-04-30T13:12:36.995Z</time></trkpt><trkpt lat="39.39136508687012" lon="9.54294739194075"><ele>134.0</ele><time>2026-04-30T13:12:37.995Z</time></trkpt><trkpt lat="39.39157875384098" lon="9.54315586070869"><ele>134.0</ele><time>2026-04-30T13:12:38.995Z</time></trkpt><trkpt lat="39.39179364751516" lon="9.543366558113695"><ele>134.0</ele><time>2026-04-30T13:12:39.994Z</time></trkpt><trkpt lat="39.39201094050937" lon="9.543582230396288"><ele>142.5</ele><time>2026-04-30T13:12:40.994Z</time></trkpt><trkpt lat="39.392231852254916" lon="9.543804482989591"><ele>151.0</ele><time>2026-04-30T13:12:41.994Z</time></trkpt><trkpt lat="39.39245914618323" lon="9.544030298847956"><ele>151.0</ele><time>2026-04-30T13:12:42.995Z</time></trkpt><trkpt lat="39.39255857719362" lon="9.544262080062728"><ele>151.0</ele><time>2026-04-30T13:12:44.137Z</time></trkpt><trkpt lat="39.40590814958088" lon="9.55690456446496"><ele>111.0</ele><time>2026-04-30T13:13:44.994Z</time></trkpt><trkpt lat="39.406119839298775" lon="9.557096779484246"><ele>71.0</ele><time>2026-04-30T13:13:45.994Z</time></trkpt><trkpt lat="39.40639496476518" lon="9.557323121211509"><ele>70.5</ele><time>2026-04-30T13:13:46.994Z</time></trkpt><trkpt lat="39.40658921871368" lon="9.557501087905388"><ele>70.0</ele><time>2026-04-30T13:13:47.994Z</time></trkpt><trkpt lat="39.406817576683366" lon="9.557672560690511"><ele>70.0</ele><time>2026-04-30T13:13:48.994Z</time></trkpt><trkpt lat="39.40704787029914" lon="9.55784655405926"><ele>70.0</ele><time>2026-04-30T13:13:49.994Z</time></trkpt><trkpt lat="39.40727770199082" lon="9.558011488901013"><ele>65.5</ele><time>2026-04-30T13:13:50.994Z</time></trkpt><trkpt lat="39.40751085314115" lon="9.558168242187334"><ele>61.0</ele><time>2026-04-30T13:13:51.994Z</time></trkpt><trkpt lat="39.407746100479194" lon="9.55831449002093"><ele>61.0</ele><time>2026-04-30T13:13:52.994Z</time></trkpt><trkpt lat="39.40798495441125" lon="9.558455782823067"><ele>61.0</ele><time>2026-04-30T13:13:53.994Z</time></trkpt><trkpt lat="39.4082227557745" lon="9.558589210331613"><ele>58.0</ele><time>2026-04-30T13:13:54.994Z</time></trkpt><trkpt lat="39.408472115627134" lon="9.55869401682091"><ele>55.0</ele><time>2026-04-30T13:13:55.994Z</time></trkpt><trkpt lat="39.40872075683606" lon="9.55878819662762"><ele>58.0</ele><time>2026-04-30T13:13:56.994Z</time></trkpt><trkpt lat="39.408972744737774" lon="9.558872226305875"><ele>61.0</ele><time>2026-04-30T13:13:57.994Z</time></trkpt><trkpt lat="39.4092285405525" lon="9.558954393281546"><ele>61.0</ele><time>2026-04-30T13:13:58.994Z</time></trkpt><trkpt lat="39.40948225475663" lon="9.559016174584194"><ele>61.0</ele><time>2026-04-30T13:13:59.994Z</time></trkpt><trkpt lat="39.409743410406904" lon="9.559054269724584"><ele>61.5</ele><time>2026-04-30T13:14:00.994Z</time></trkpt><trkpt lat="39.41000622525709" lon="9.559083709865458"><ele>62.0</ele><time>2026-04-30T13:14:01.994Z</time></trkpt><trkpt lat="39.41027056072159" lon="9.55910742167522"><ele>60.0</ele><time>2026-04-30T13:14:02.994Z</time></trkpt><trkpt lat="39.41052992387234" lon="9.559110514379292"><ele>58.0</ele><time>2026-04-30T13:14:03.994Z</time></trkpt><trkpt lat="39.41079613747983" lon="9.559108155974767"><ele>58.0</ele><time>2026-04-30T13:14:04.994Z</time></trkpt><trkpt lat="39.411060399916266" lon="9.559090862088098"><ele>58.0</ele><time>2026-04-30T13:14:05.994Z</time></trkpt><trkpt lat="39.41132241823107" lon="9.559055324627009"><ele>55.5</ele><time>2026-04-30T13:14:06.994Z</time></trkpt><trkpt lat="39.411581145258936" lon="9.559008806267274"><ele>53.0</ele><time>2026-04-30T13:14:07.994Z</time></trkpt><trkpt lat="39.411839611896184" lon="9.55895749586354"><ele>53.0</ele><time>2026-04-30T13:14:08.994Z</time></trkpt><trkpt lat="39.41209876429383" lon="9.55889183155155"><ele>53.0</ele><time>2026-04-30T13:14:09.994Z</time></trkpt><trkpt lat="39.41236559149855" lon="9.55881474564036"><ele>52.0</ele><time>2026-04-30T13:14:10.994Z</time></trkpt><trkpt lat="39.41266650658958" lon="9.558709222066854"><ele>51.0</ele><time>2026-04-30T13:14:11.994Z</time></trkpt><trkpt lat="39.412994816175946" lon="9.558600213266464"><ele>51.0</ele><time>2026-04-30T13:14:12.994Z</time></trkpt><trkpt lat="39.41331622046742" lon="9.558486473971527"><ele>51.0</ele><time>2026-04-30T13:14:13.994Z</time></trkpt><trkpt lat="39.413620453536375" lon="9.558363640378154"><ele>51.0</ele><time>2026-04-30T13:14:14.994Z</time></trkpt><trkpt lat="39.41391240668198" lon="9.558225078981174"><ele>51.0</ele><time>2026-04-30T13:14:15.994Z</time></trkpt><trkpt lat="39.41419935108995" lon="9.558085858300998"><ele>51.0</ele><time>2026-04-30T13:14:16.994Z</time></trkpt><trkpt lat="39.41447323938363" lon="9.557947647486586"><ele>51.0</ele><time>2026-04-30T13:14:17.994Z</time></trkpt><trkpt lat="39.4147414506709" lon="9.55781347320518"><ele>52.0</ele><time>2026-04-30T13:14:18.994Z</time></trkpt><trkpt lat="39.41500537561603" lon="9.55769036587806"><ele>53.0</ele><time>2026-04-30T13:14:19.994Z</time></trkpt><trkpt lat="39.41525634880124" lon="9.557574373067904"><ele>50.0</ele><time>2026-04-30T13:14:20.994Z</time></trkpt><trkpt lat="39.41550758956989" lon="9.557462343916827"><ele>47.0</ele><time>2026-04-30T13:14:21.994Z</time></trkpt><trkpt lat="39.415752725256" lon="9.55735663978547"><ele>47.0</ele><time>2026-04-30T13:14:22.994Z</time></trkpt><trkpt lat="39.41599977415799" lon="9.557261287754343"><ele>47.0</ele><time>2026-04-30T13:14:23.994Z</time></trkpt><trkpt lat="39.416247033591915" lon="9.557177406404858"><ele>43.5</ele><time>2026-04-30T13:14:24.994Z</time></trkpt><trkpt lat="39.41649389322169" lon="9.557103261382485"><ele>40.0</ele><time>2026-04-30T13:14:25.994Z</time></trkpt><trkpt lat="39.41674066561455" lon="9.557038283401173"><ele>41.0</ele><time>2026-04-30T13:14:26.994Z</time></trkpt><trkpt lat="39.41699091217131" lon="9.556984368851365"><ele>42.0</ele><time>2026-04-30T13:14:27.994Z</time></trkpt><trkpt lat="39.41724011216024" lon="9.556941659204584"><ele>42.0</ele><time>2026-04-30T13:14:28.994Z</time></trkpt><trkpt lat="39.417493733934286" lon="9.55691894344311"><ele>42.0</ele><time>2026-04-30T13:14:29.994Z</time></trkpt><trkpt lat="39.41774782075087" lon="9.556917437439438"><ele>40.5</ele><time>2026-04-30T13:14:30.994Z</time></trkpt><trkpt lat="39.418001092787" lon="9.556925164738772"><ele>39.0</ele><time>2026-04-30T13:14:31.994Z</time></trkpt><trkpt lat="39.41825372309408" lon="9.556937629971335"><ele>39.0</ele><time>2026-04-30T13:14:32.994Z</time></trkpt><trkpt lat="39.41850565542511" lon="9.55695922603292"><ele>39.0</ele><time>2026-04-30T13:14:33.994Z</time></trkpt><trkpt lat="39.4187551856714" lon="9.556995680451458"><ele>35.5</ele><time>2026-04-30T13:14:34.994Z</time></trkpt><trkpt lat="39.41900449296438" lon="9.557045961348352"><ele>32.0</ele><time>2026-04-30T13:14:35.994Z</time></trkpt><trkpt lat="39.41924908597091" lon="9.557115416900723"><ele>32.0</ele><time>2026-04-30T13:14:36.995Z</time></trkpt><trkpt lat="39.419489161084186" lon="9.557202429363425"><ele>32.0</ele><time>2026-04-30T13:14:37.994Z</time></trkpt><trkpt lat="39.41972938874915" lon="9.557295253765258"><ele>31.5</ele><time>2026-04-30T13:14:38.994Z</time></trkpt><trkpt lat="39.419969334976265" lon="9.557386597579503"><ele>31.0</ele><time>2026-04-30T13:14:39.994Z</time></trkpt><trkpt lat="39.42020841371896" lon="9.557480376464637"><ele>31.0</ele><time>2026-04-30T13:14:40.994Z</time></trkpt><trkpt lat="39.42045233417148" lon="9.55757623757492"><ele>31.0</ele><time>2026-04-30T13:14:41.994Z</time></trkpt><trkpt lat="39.420691937790004" lon="9.557678891759005"><ele>32.5</ele><time>2026-04-30T13:14:42.995Z</time></trkpt><trkpt lat="39.420932664561875" lon="9.557783993556429"><ele>34.0</ele><time>2026-04-30T13:14:43.995Z</time></trkpt><trkpt lat="39.42117758999306" lon="9.557890441469507"><ele>30.0</ele><time>2026-04-30T13:14:44.995Z</time></trkpt><trkpt lat="39.42141876506159" lon="9.557991542817371"><ele>26.0</ele><time>2026-04-30T13:14:45.995Z</time></trkpt><trkpt lat="39.42166022638805" lon="9.558093645928567"><ele>26.0</ele><time>2026-04-30T13:14:46.994Z</time></trkpt><trkpt lat="39.42189967579247" lon="9.558187760658761"><ele>26.0</ele><time>2026-04-30T13:14:47.994Z</time></trkpt><trkpt lat="39.42213778753828" lon="9.558290072471449"><ele>27.5</ele><time>2026-04-30T13:14:48.994Z</time></trkpt><trkpt lat="39.42237141464706" lon="9.55839534027633"><ele>29.0</ele><time>2026-04-30T13:14:49.994Z</time></trkpt><trkpt lat="39.42260330401096" lon="9.558501248859367"><ele>29.0</ele><time>2026-04-30T13:14:50.994Z</time></trkpt><trkpt lat="39.42283250735061" lon="9.558606665136818"><ele>29.0</ele><time>2026-04-30T13:14:51.994Z</time></trkpt><trkpt lat="39.42306813746146" lon="9.558708166674075"><ele>26.5</ele><time>2026-04-30T13:14:52.994Z</time></trkpt><trkpt lat="39.42330114846082" lon="9.558802687908457"><ele>24.0</ele><time>2026-04-30T13:14:53.994Z</time></trkpt><trkpt lat="39.42353218697904" lon="9.558894633209684"><ele>24.0</ele><time>2026-04-30T13:14:54.994Z</time></trkpt><trkpt lat="39.423759184434324" lon="9.558981193992755"><ele>24.0</ele><time>2026-04-30T13:14:55.994Z</time></trkpt><trkpt lat="39.423987480320875" lon="9.559061153856172"><ele>25.5</ele><time>2026-04-30T13:14:56.994Z</time></trkpt><trkpt lat="39.424215788460714" lon="9.559135834976015"><ele>27.0</ele><time>2026-04-30T13:14:57.994Z</time></trkpt><trkpt lat="39.424440989142695" lon="9.559201389976177"><ele>28.0</ele><time>2026-04-30T13:14:58.994Z</time></trkpt><trkpt lat="39.42467268397119" lon="9.559267029612258"><ele>29.0</ele><time>2026-04-30T13:14:59.994Z</time></trkpt><trkpt lat="39.42489846510508" lon="9.559322434228037"><ele>29.0</ele><time>2026-04-30T13:15:00.994Z</time></trkpt><trkpt lat="39.425123942469654" lon="9.559372579572665"><ele>29.0</ele><time>2026-04-30T13:15:01.994Z</time></trkpt><trkpt lat="39.42535205821633" lon="9.559419614931185"><ele>25.0</ele><time>2026-04-30T13:15:02.994Z</time></trkpt><trkpt lat="39.42557513382445" lon="9.559451285334703"><ele>21.0</ele><time>2026-04-30T13:15:03.994Z</time></trkpt><trkpt lat="39.425802950524414" lon="9.559478080100543"><ele>21.0</ele><time>2026-04-30T13:15:04.994Z</time></trkpt><trkpt lat="39.426024940950114" lon="9.55949093970746"><ele>21.0</ele><time>2026-04-30T13:15:05.994Z</time></trkpt><trkpt lat="39.426245520345184" lon="9.559504361894154"><ele>21.0</ele><time>2026-04-30T13:15:06.994Z</time></trkpt><trkpt lat="39.42646769433222" lon="9.559517970741707"><ele>17.0</ele><time>2026-04-30T13:15:07.994Z</time></trkpt><trkpt lat="39.426684004134515" lon="9.559526355681944"><ele>13.0</ele><time>2026-04-30T13:15:08.994Z</time></trkpt><trkpt lat="39.42689700800248" lon="9.55953072006844"><ele>9.0</ele><time>2026-04-30T13:15:09.994Z</time></trkpt><trkpt lat="39.42711235197477" lon="9.559529306600242"><ele>8.666666666666666</ele><time>2026-04-30T13:15:10.994Z</time></trkpt><trkpt lat="39.42733058645191" lon="9.55952467482952"><ele>8.333333333333332</ele><time>2026-04-30T13:15:11.994Z</time></trkpt><trkpt lat="39.427547869895086" lon="9.559517313789668"><ele>8.0</ele><time>2026-04-30T13:15:12.994Z</time></trkpt><trkpt lat="39.427764137239976" lon="9.559511012407869"><ele>8.0</ele><time>2026-04-30T13:15:13.994Z</time></trkpt><trkpt lat="39.427969459065906" lon="9.559503208334759"><ele>8.0</ele><time>2026-04-30T13:15:14.994Z</time></trkpt><trkpt lat="39.42815777634701" lon="9.55948618734687"><ele>8.0</ele><time>2026-04-30T13:15:15.994Z</time></trkpt><trkpt lat="39.42834336399498" lon="9.559469279063755"><ele>8.0</ele><time>2026-04-30T13:15:16.994Z</time></trkpt><trkpt lat="39.428517639040734" lon="9.559457559816648"><ele>8.0</ele><time>2026-04-30T13:15:17.994Z</time></trkpt><trkpt lat="39.42868136022689" lon="9.559437162690363"><ele>8.0</ele><time>2026-04-30T13:15:18.994Z</time></trkpt><trkpt lat="39.428831818421074" lon="9.559416525010484"><ele>7.75</ele><time>2026-04-30T13:15:19.994Z</time></trkpt><trkpt lat="39.428970488449835" lon="9.559400668004065"><ele>7.5</ele><time>2026-04-30T13:15:20.994Z</time></trkpt><trkpt lat="39.429099041982305" lon="9.55938748794884"><ele>7.25</ele><time>2026-04-30T13:15:21.994Z</time></trkpt><trkpt lat="39.42921492423857" lon="9.559376655915134"><ele>7.0</ele><time>2026-04-30T13:15:22.994Z</time></trkpt><trkpt lat="39.429322692322145" lon="9.559379258970623"><ele>7.0</ele><time>2026-04-30T13:15:23.994Z</time></trkpt><trkpt lat="39.429424125834345" lon="9.559409857448143"><ele>6.999999999999999</ele><time>2026-04-30T13:15:24.994Z</time></trkpt><trkpt lat="39.429520110642656" lon="9.559476005736117"><ele>6.999999999999999</ele><time>2026-04-30T13:15:25.994Z</time></trkpt><trkpt lat="39.42960671226266" lon="9.559570860092318"><ele>7.0</ele><time>2026-04-30T13:15:26.994Z</time></trkpt><trkpt lat="39.429684047203246" lon="9.559688713352255"><ele>7.0</ele><time>2026-04-30T13:15:27.993Z</time></trkpt><trkpt lat="39.42972739756083" lon="9.559841491171133"><ele>7.0</ele><time>2026-04-30T13:15:28.993Z</time></trkpt><trkpt lat="39.429744244700785" lon="9.560008946225276"><ele>7.0</ele><time>2026-04-30T13:15:29.993Z</time></trkpt><trkpt lat="39.42972340860731" lon="9.560183132193863"><ele>7.0</ele><time>2026-04-30T13:15:30.993Z</time></trkpt><trkpt lat="39.42966713433401" lon="9.56034137052911"><ele>7.0</ele><time>2026-04-30T13:15:31.993Z</time></trkpt><trkpt lat="39.42957953498535" lon="9.560477352183504"><ele>7.75</ele><time>2026-04-30T13:15:32.993Z</time></trkpt><trkpt lat="39.429467287884755" lon="9.560572362526052"><ele>8.5</ele><time>2026-04-30T13:15:33.993Z</time></trkpt><trkpt lat="39.429338142498416" lon="9.56062083995489"><ele>9.25</ele><time>2026-04-30T13:15:34.993Z</time></trkpt><trkpt lat="39.429207623032966" lon="9.56061844394456"><ele>10.0</ele><time>2026-04-30T13:15:35.993Z</time></trkpt><trkpt lat="39.42908033901091" lon="9.5605694557414"><ele>10.0</ele><time>2026-04-30T13:15:36.993Z</time></trkpt><trkpt lat="39.42896761335155" lon="9.560475843204667"><ele>10.0</ele><time>2026-04-30T13:15:37.993Z</time></trkpt><trkpt lat="39.4288837136232" lon="9.560350394470658"><ele>10.0</ele><time>2026-04-30T13:15:38.993Z</time></trkpt><trkpt lat="39.428826492005705" lon="9.560201536290572"><ele>10.0</ele><time>2026-04-30T13:15:39.993Z</time></trkpt><trkpt lat="39.42880396939279" lon="9.560041422168261"><ele>9.25</ele><time>2026-04-30T13:15:40.993Z</time></trkpt><trkpt lat="39.42881761438863" lon="9.559879231523633"><ele>8.5</ele><time>2026-04-30T13:15:41.993Z</time></trkpt><trkpt lat="39.42886169677563" lon="9.559732221815231"><ele>7.75</ele><time>2026-04-30T13:15:42.993Z</time></trkpt><trkpt lat="39.42892825928301" lon="9.559589299781319"><ele>7.0</ele><time>2026-04-30T13:15:43.993Z</time></trkpt><trkpt lat="39.4290155956532" lon="9.559443985369787"><ele>7.0</ele><time>2026-04-30T13:15:44.993Z</time></trkpt><trkpt lat="39.42911093899313" lon="9.559292138687315"><ele>7.0</ele><time>2026-04-30T13:15:45.993Z</time></trkpt><trkpt lat="39.429213337701995" lon="9.559123893879665"><ele>7.0</ele><time>2026-04-30T13:15:46.993Z</time></trkpt><trkpt lat="39.42932110480064" lon="9.558950380425086"><ele>7.0</ele><time>2026-04-30T13:15:47.993Z</time></trkpt><trkpt lat="39.42941816133085" lon="9.558777516224898"><ele>7.0</ele><time>2026-04-30T13:15:48.993Z</time></trkpt><trkpt lat="39.4294911090988" lon="9.558690202548835"><ele>7.0</ele><time>2026-04-30T13:15:49.993Z</time></trkpt><trkpt lat="39.429573037295874" lon="9.558562290621104"><ele>7.0</ele><time>2026-04-30T13:15:50.993Z</time></trkpt><trkpt lat="39.42965657852148" lon="9.55841605002519"><ele>7.666666666666667</ele><time>2026-04-30T13:15:51.993Z</time></trkpt><trkpt lat="39.429758815473384" lon="9.558255851762572"><ele>8.333333333333334</ele><time>2026-04-30T13:15:52.993Z</time></trkpt><trkpt lat="39.42986417753741" lon="9.558095524190964"><ele>9.0</ele><time>2026-04-30T13:15:53.993Z</time></trkpt><trkpt lat="39.42997235711294" lon="9.557935813600533"><ele>9.333333333333334</ele><time>2026-04-30T13:15:54.993Z</time></trkpt><trkpt lat="39.43007859319258" lon="9.557775016047287"><ele>9.666666666666668</ele><time>2026-04-30T13:15:55.993Z</time></trkpt><trkpt lat="39.43018489713223" lon="9.557606667046613"><ele>10.0</ele><time>2026-04-30T13:15:56.993Z</time></trkpt><trkpt lat="39.43029783385786" lon="9.557435486480065"><ele>10.0</ele><time>2026-04-30T13:15:57.993Z</time></trkpt><trkpt lat="39.43041649978042" lon="9.557264155129207"><ele>10.0</ele><time>2026-04-30T13:15:58.993Z</time></trkpt><trkpt lat="39.430533594615106" lon="9.557089588282878"><ele>10.0</ele><time>2026-04-30T13:15:59.993Z</time></trkpt><trkpt lat="39.43065141219274" lon="9.556912817644701"><ele>9.666666666666668</ele><time>2026-04-30T13:16:00.993Z</time></trkpt><trkpt lat="39.4307690586991" lon="9.556730428459213"><ele>9.333333333333334</ele><time>2026-04-30T13:16:01.993Z</time></trkpt><trkpt lat="39.430889900922104" lon="9.556547945366091"><ele>9.0</ele><time>2026-04-30T13:16:02.993Z</time></trkpt><trkpt lat="39.43101250711251" lon="9.556366442995461"><ele>9.666666666666666</ele><time>2026-04-30T13:16:03.993Z</time></trkpt><trkpt lat="39.43113406279005" lon="9.556182380381776"><ele>10.333333333333332</ele><time>2026-04-30T13:16:04.993Z</time></trkpt><trkpt lat="39.431255215739924" lon="9.555995463097792"><ele>11.0</ele><time>2026-04-30T13:16:05.993Z</time></trkpt><trkpt lat="39.43149984278405" lon="9.555615748336269"><ele>11.0</ele><time>2026-04-30T13:16:07.993Z</time></trkpt><trkpt lat="39.43162650731507" lon="9.555423925780069"><ele>11.0</ele><time>2026-04-30T13:16:08.993Z</time></trkpt><trkpt lat="39.43175219411627" lon="9.555231157103378"><ele>11.0</ele><time>2026-04-30T13:16:09.993Z</time></trkpt><trkpt lat="39.431878735592946" lon="9.555045598092912"><ele>11.333333333333332</ele><time>2026-04-30T13:16:10.993Z</time></trkpt><trkpt lat="39.43200791259666" lon="9.554857837817753"><ele>11.666666666666666</ele><time>2026-04-30T13:16:11.993Z</time></trkpt><trkpt lat="39.43213888737446" lon="9.554679223702433"><ele>12.0</ele><time>2026-04-30T13:16:12.993Z</time></trkpt><trkpt lat="39.43227469418604" lon="9.55450609053362"><ele>12.0</ele><time>2026-04-30T13:16:13.993Z</time></trkpt><trkpt lat="39.43241158052692" lon="9.554335847818455"><ele>12.0</ele><time>2026-04-30T13:16:14.993Z</time></trkpt><trkpt lat="39.432544572674026" lon="9.554161580968909"><ele>12.0</ele><time>2026-04-30T13:16:15.993Z</time></trkpt><trkpt lat="39.432681476937326" lon="9.553987495694331"><ele>12.0</ele><time>2026-04-30T13:16:16.993Z</time></trkpt><trkpt lat="39.432821829392715" lon="9.553807311029889"><ele>12.0</ele><time>2026-04-30T13:16:17.993Z</time></trkpt><trkpt lat="39.432963511410684" lon="9.553632596268583"><ele>12.0</ele><time>2026-04-30T13:16:18.993Z</time></trkpt><trkpt lat="39.43310629432439" lon="9.553459496777101"><ele>12.0</ele><time>2026-04-30T13:16:19.993Z</time></trkpt><trkpt lat="39.43325034202253" lon="9.55328492760335"><ele>12.0</ele><time>2026-04-30T13:16:20.993Z</time></trkpt><trkpt lat="39.43339584891508" lon="9.553108365265336"><ele>12.0</ele><time>2026-04-30T13:16:21.993Z</time></trkpt><trkpt lat="39.43353521184629" lon="9.552933973918536"><ele>12.333333333333332</ele><time>2026-04-30T13:16:22.993Z</time></trkpt><trkpt lat="39.43367560693808" lon="9.552762575155532"><ele>12.666666666666666</ele><time>2026-04-30T13:16:23.993Z</time></trkpt><trkpt lat="39.43380877517762" lon="9.55259192890315"><ele>13.0</ele><time>2026-04-30T13:16:24.993Z</time></trkpt><trkpt lat="39.43394406460069" lon="9.552422050307708"><ele>13.0</ele><time>2026-04-30T13:16:25.993Z</time></trkpt><trkpt lat="39.43408174431219" lon="9.552248925665442"><ele>13.0</ele><time>2026-04-30T13:16:26.993Z</time></trkpt><trkpt lat="39.4342184448509" lon="9.552073387257687"><ele>13.0</ele><time>2026-04-30T13:16:27.993Z</time></trkpt><trkpt lat="39.434356315908644" lon="9.551900367363581"><ele>13.0</ele><time>2026-04-30T13:16:28.993Z</time></trkpt><trkpt lat="39.434491365550905" lon="9.55173970418574"><ele>13.0</ele><time>2026-04-30T13:16:29.993Z</time></trkpt><trkpt lat="39.43461865203189" lon="9.55158931807296"><ele>13.0</ele><time>2026-04-30T13:16:30.993Z</time></trkpt><trkpt lat="39.43473794987875" lon="9.55144769890139"><ele>12.666666666666666</ele><time>2026-04-30T13:16:31.993Z</time></trkpt><trkpt lat="39.43485353639639" lon="9.551309819495911"><ele>12.333333333333332</ele><time>2026-04-30T13:16:32.993Z</time></trkpt><trkpt lat="39.43496463958132" lon="9.551188328916135"><ele>12.0</ele><time>2026-04-30T13:16:33.993Z</time></trkpt><trkpt lat="39.4350731545529" lon="9.551053853450567"><ele>12.0</ele><time>2026-04-30T13:16:34.993Z</time></trkpt><trkpt lat="39.435178440970766" lon="9.550898790985043"><ele>12.0</ele><time>2026-04-30T13:16:35.993Z</time></trkpt><trkpt lat="39.4352705695733" lon="9.550722068757686"><ele>12.0</ele><time>2026-04-30T13:16:36.993Z</time></trkpt><trkpt lat="39.43534627630808" lon="9.550528401122296"><ele>11.666666666666666</ele><time>2026-04-30T13:16:37.993Z</time></trkpt><trkpt lat="39.435409063812486" lon="9.550313082439168"><ele>11.333333333333332</ele><time>2026-04-30T13:16:38.993Z</time></trkpt><trkpt lat="39.435463817644546" lon="9.55008233947411"><ele>11.0</ele><time>2026-04-30T13:16:39.993Z</time></trkpt><trkpt lat="39.43551753868105" lon="9.54984774397711"><ele>11.0</ele><time>2026-04-30T13:16:40.993Z</time></trkpt><trkpt lat="39.43557231815318" lon="9.549608050585253"><ele>11.0</ele><time>2026-04-30T13:16:41.993Z</time></trkpt><trkpt lat="39.43563320059315" lon="9.5493641098309"><ele>11.0</ele><time>2026-04-30T13:16:42.995Z</time></trkpt><trkpt lat="39.435690856092506" lon="9.549114060472407"><ele>11.0</ele><time>2026-04-30T13:16:43.995Z</time></trkpt><trkpt lat="39.43574874201594" lon="9.548864088952193"><ele>11.0</ele><time>2026-04-30T13:16:44.995Z</time></trkpt><trkpt lat="39.43580520551886" lon="9.548611012883017"><ele>11.0</ele><time>2026-04-30T13:16:45.994Z</time></trkpt><trkpt lat="39.435866215820475" lon="9.548359136356313"><ele>11.333333333333332</ele><time>2026-04-30T13:16:46.995Z</time></trkpt><trkpt lat="39.43592279024113" lon="9.548107207297718"><ele>11.666666666666666</ele><time>2026-04-30T13:16:47.995Z</time></trkpt><trkpt lat="39.43597549310239" lon="9.547860575228066"><ele>12.0</ele><time>2026-04-30T13:16:48.994Z</time></trkpt><trkpt lat="39.43602917882969" lon="9.547612868678986"><ele>12.0</ele><time>2026-04-30T13:16:49.994Z</time></trkpt><trkpt lat="39.43608259225205" lon="9.547373038736012"><ele>12.0</ele><time>2026-04-30T13:16:50.994Z</time></trkpt><trkpt lat="39.436135031382236" lon="9.5471251075011"><ele>12.0</ele><time>2026-04-30T13:16:51.994Z</time></trkpt><trkpt lat="39.436184988926655" lon="9.546881164541055"><ele>12.0</ele><time>2026-04-30T13:16:52.994Z</time></trkpt><trkpt lat="39.43623494004955" lon="9.546644521350014"><ele>12.0</ele><time>2026-04-30T13:16:53.994Z</time></trkpt><trkpt lat="39.436291075286356" lon="9.546397949681417"><ele>12.0</ele><time>2026-04-30T13:16:54.994Z</time></trkpt><trkpt lat="39.43634766136641" lon="9.546156873097635"><ele>12.0</ele><time>2026-04-30T13:16:55.994Z</time></trkpt><trkpt lat="39.43639978936245" lon="9.545906441448086"><ele>12.0</ele><time>2026-04-30T13:16:56.994Z</time></trkpt><trkpt lat="39.43644942903812" lon="9.54566538096173"><ele>12.0</ele><time>2026-04-30T13:16:57.994Z</time></trkpt><trkpt lat="39.43649748778796" lon="9.545429794707916"><ele>12.333333333333332</ele><time>2026-04-30T13:16:58.994Z</time></trkpt><trkpt lat="39.43654394489968" lon="9.54519820934594"><ele>12.666666666666666</ele><time>2026-04-30T13:16:59.993Z</time></trkpt><trkpt lat="39.43658275669342" lon="9.544967037817296"><ele>13.0</ele><time>2026-04-30T13:17:00.993Z</time></trkpt><trkpt lat="39.43661101169653" lon="9.54473232646102"><ele>13.0</ele><time>2026-04-30T13:17:01.993Z</time></trkpt><trkpt lat="39.43663087319743" lon="9.54450400445426"><ele>13.0</ele><time>2026-04-30T13:17:02.993Z</time></trkpt><trkpt lat="39.436647650141104" lon="9.544275649918465"><ele>13.0</ele><time>2026-04-30T13:17:03.993Z</time></trkpt><trkpt lat="39.43666942274001" lon="9.544054163547663"><ele>13.0</ele><time>2026-04-30T13:17:04.993Z</time></trkpt><trkpt lat="39.43669577862806" lon="9.543842792225153"><ele>13.0</ele><time>2026-04-30T13:17:05.993Z</time></trkpt><trkpt lat="39.43675886206872" lon="9.543654969731229"><ele>13.0</ele><time>2026-04-30T13:17:06.993Z</time></trkpt><trkpt lat="39.436861961197046" lon="9.543502331967645"><ele>13.0</ele><time>2026-04-30T13:17:07.993Z</time></trkpt><trkpt lat="39.43698120316777" lon="9.543379631341585"><ele>13.0</ele><time>2026-04-30T13:17:08.993Z</time></trkpt><trkpt lat="39.43710855496187" lon="9.543260175572083"><ele>13.0</ele><time>2026-04-30T13:17:09.993Z</time></trkpt><trkpt lat="39.43723087164797" lon="9.543148881916224"><ele>13.0</ele><time>2026-04-30T13:17:10.993Z</time></trkpt><trkpt lat="39.437343314631235" lon="9.543041566831132"><ele>13.0</ele><time>2026-04-30T13:17:11.993Z</time></trkpt><trkpt lat="39.43744925562509" lon="9.542940491734985"><ele>13.0</ele><time>2026-04-30T13:17:12.993Z</time></trkpt><trkpt lat="39.43755291202383" lon="9.542842190495374"><ele>13.0</ele><time>2026-04-30T13:17:13.993Z</time></trkpt><trkpt lat="39.437650715382006" lon="9.542742864168801"><ele>13.5</ele><time>2026-04-30T13:17:14.993Z</time></trkpt><trkpt lat="39.43775618405509" lon="9.542664413398368"><ele>14.0</ele><time>2026-04-30T13:17:15.993Z</time></trkpt><trkpt lat="39.43787359428374" lon="9.54261650414439"><ele>14.5</ele><time>2026-04-30T13:17:16.993Z</time></trkpt><trkpt lat="39.43798890596392" lon="9.542577481969012"><ele>15.0</ele><time>2026-04-30T13:17:17.993Z</time></trkpt><trkpt lat="39.43811355050025" lon="9.542553418841097"><ele>15.25</ele><time>2026-04-30T13:17:18.993Z</time></trkpt><trkpt lat="39.43823767900809" lon="9.542534245504546"><ele>15.5</ele><time>2026-04-30T13:17:19.993Z</time></trkpt><trkpt lat="39.438354108770916" lon="9.542509023561779"><ele>15.75</ele><time>2026-04-30T13:17:20.993Z</time></trkpt><trkpt lat="39.43846286376843" lon="9.542488756180115"><ele>16.0</ele><time>2026-04-30T13:17:21.993Z</time></trkpt><trkpt lat="39.43857442873668" lon="9.542469756207137"><ele>16.0</ele><time>2026-04-30T13:17:22.993Z</time></trkpt><trkpt lat="39.438676040487714" lon="9.542454810259846"><ele>16.0</ele><time>2026-04-30T13:17:23.993Z</time></trkpt><trkpt lat="39.43877093391827" lon="9.542441138019798"><ele>16.0</ele><time>2026-04-30T13:17:24.993Z</time></trkpt><trkpt lat="39.43885485942368" lon="9.542436894422513"><ele>16.0</ele><time>2026-04-30T13:17:25.993Z</time></trkpt><trkpt lat="39.43894872578763" lon="9.542423851236624"><ele>16.0</ele><time>2026-04-30T13:17:26.993Z</time></trkpt><trkpt lat="39.43904888530377" lon="9.542411897944099"><ele>15.8</ele><time>2026-04-30T13:17:27.993Z</time></trkpt><trkpt lat="39.43914990619463" lon="9.542397946807215"><ele>15.600000000000001</ele><time>2026-04-30T13:17:28.993Z</time></trkpt><trkpt lat="39.43925290312914" lon="9.54238334141097"><ele>15.4</ele><time>2026-04-30T13:17:29.993Z</time></trkpt><trkpt lat="39.43935607878175" lon="9.542372157015079"><ele>15.2</ele><time>2026-04-30T13:17:30.993Z</time></trkpt><trkpt lat="39.439457323405215" lon="9.54235789634733"><ele>15.0</ele><time>2026-04-30T13:17:31.993Z</time></trkpt><trkpt lat="39.4395600044749" lon="9.542344114817892"><ele>15.0</ele><time>2026-04-30T13:17:32.993Z</time></trkpt><trkpt lat="39.43966716813677" lon="9.542333379376753"><ele>15.0</ele><time>2026-04-30T13:17:33.993Z</time></trkpt><trkpt lat="39.43977295500574" lon="9.54232170259216"><ele>15.0</ele><time>2026-04-30T13:17:34.993Z</time></trkpt><trkpt lat="39.4398797025177" lon="9.542307238509583"><ele>15.0</ele><time>2026-04-30T13:17:35.993Z</time></trkpt><trkpt lat="39.43998840088268" lon="9.542282617541744"><ele>15.0</ele><time>2026-04-30T13:17:36.993Z</time></trkpt><trkpt lat="39.440096438113244" lon="9.542263541177432"><ele>15.0</ele><time>2026-04-30T13:17:37.993Z</time></trkpt><trkpt lat="39.440203712277096" lon="9.542260256081294"><ele>15.0</ele><time>2026-04-30T13:17:38.993Z</time></trkpt><trkpt lat="39.44031630281145" lon="9.542279296428108"><ele>15.0</ele><time>2026-04-30T13:17:39.993Z</time></trkpt><trkpt lat="39.440404815285085" lon="9.542317079156025"><ele>15.0</ele><time>2026-04-30T13:17:40.993Z</time></trkpt><trkpt lat="39.44049172013874" lon="9.542358926976174"><ele>15.0</ele><time>2026-04-30T13:17:41.993Z</time></trkpt><trkpt lat="39.440572865039655" lon="9.542407263348105"><ele>15.0</ele><time>2026-04-30T13:17:42.993Z</time></trkpt><trkpt lat="39.440661844000786" lon="9.542459163438968"><ele>15.0</ele><time>2026-04-30T13:17:43.993Z</time></trkpt><trkpt lat="39.440745917927586" lon="9.542507806049972"><ele>15.0</ele><time>2026-04-30T13:17:44.993Z</time></trkpt><trkpt lat="39.44083801985899" lon="9.542567200050867"><ele>15.0</ele><time>2026-04-30T13:17:45.993Z</time></trkpt><trkpt lat="39.440928408538454" lon="9.542622844983427"><ele>15.0</ele><time>2026-04-30T13:17:46.993Z</time></trkpt><trkpt lat="39.441024410487906" lon="9.542670675612886"><ele>15.0</ele><time>2026-04-30T13:17:47.993Z</time></trkpt><trkpt lat="39.441114213384594" lon="9.542722135556863"><ele>15.0</ele><time>2026-04-30T13:17:48.993Z</time></trkpt><trkpt lat="39.44121227815802" lon="9.542771682525881"><ele>15.0</ele><time>2026-04-30T13:17:49.993Z</time></trkpt><trkpt lat="39.4413030944801" lon="9.542819774733003"><ele>15.0</ele><time>2026-04-30T13:17:50.993Z</time></trkpt><trkpt lat="39.441398079045484" lon="9.542875003211062"><ele>15.0</ele><time>2026-04-30T13:17:51.993Z</time></trkpt><trkpt lat="39.44148853429702" lon="9.542925669470382"><ele>14.833333333333334</ele><time>2026-04-30T13:17:52.993Z</time></trkpt><trkpt lat="39.44157155852089" lon="9.542955048147071"><ele>14.666666666666668</ele><time>2026-04-30T13:17:53.993Z</time></trkpt><trkpt lat="39.441658381285585" lon="9.542953165512968"><ele>14.5</ele><time>2026-04-30T13:17:54.993Z</time></trkpt><trkpt lat="39.44173723787132" lon="9.542938282610432"><ele>14.333333333333334</ele><time>2026-04-30T13:17:55.993Z</time></trkpt><trkpt lat="39.44181068697711" lon="9.542904218804376"><ele>14.166666666666668</ele><time>2026-04-30T13:17:56.993Z</time></trkpt><trkpt lat="39.44189034036567" lon="9.54285728540179"><ele>14.0</ele><time>2026-04-30T13:17:57.993Z</time></trkpt><trkpt lat="39.441973015352495" lon="9.542777575213105"><ele>14.333333333333334</ele><time>2026-04-30T13:17:58.993Z</time></trkpt><trkpt lat="39.44204186058571" lon="9.542708955056959"><ele>14.666666666666668</ele><time>2026-04-30T13:17:59.993Z</time></trkpt><trkpt lat="39.44211842196785" lon="9.542675262176818"><ele>15.0</ele><time>2026-04-30T13:18:00.993Z</time></trkpt><trkpt lat="39.44218960229578" lon="9.542622578861788"><ele>15.333333333333332</ele><time>2026-04-30T13:18:01.993Z</time></trkpt><trkpt lat="39.44225695738217" lon="9.542540376756518"><ele>15.666666666666666</ele><time>2026-04-30T13:18:02.993Z</time></trkpt><trkpt lat="39.442313708556426" lon="9.542453329110232"><ele>16.0</ele><time>2026-04-30T13:18:03.993Z</time></trkpt><trkpt lat="39.4423775509005" lon="9.542366449964845"><ele>16.166666666666664</ele><time>2026-04-30T13:18:04.993Z</time></trkpt><trkpt lat="39.44244430739955" lon="9.542301607558995"><ele>16.333333333333332</ele><time>2026-04-30T13:18:05.993Z</time></trkpt><trkpt lat="39.44253178963627" lon="9.542257593471568"><ele>16.5</ele><time>2026-04-30T13:18:06.993Z</time></trkpt><trkpt lat="39.44260504846007" lon="9.542199160278274"><ele>16.666666666666668</ele><time>2026-04-30T13:18:07.993Z</time></trkpt><trkpt lat="39.442686600027294" lon="9.542155709290903"><ele>16.833333333333336</ele><time>2026-04-30T13:18:08.993Z</time></trkpt><trkpt lat="39.44276191857784" lon="9.54210535168493"><ele>17.0</ele><time>2026-04-30T13:18:09.993Z</time></trkpt><trkpt lat="39.442840339180236" lon="9.542047741733859"><ele>17.0</ele><time>2026-04-30T13:18:10.993Z</time></trkpt><trkpt lat="39.442915980958006" lon="9.541976714204107"><ele>17.0</ele><time>2026-04-30T13:18:11.993Z</time></trkpt><trkpt lat="39.4429954731381" lon="9.541915495913088"><ele>17.0</ele><time>2026-04-30T13:18:12.993Z</time></trkpt><trkpt lat="39.44307148493867" lon="9.541865076616135"><ele>17.0</ele><time>2026-04-30T13:18:13.993Z</time></trkpt><trkpt lat="39.443144892356386" lon="9.541816095852482"><ele>17.0</ele><time>2026-04-30T13:18:14.993Z</time></trkpt><trkpt lat="39.443228450161406" lon="9.541788637521465"><ele>17.0</ele><time>2026-04-30T13:18:15.993Z</time></trkpt><trkpt lat="39.44330257831147" lon="9.541756599562781"><ele>17.166666666666668</ele><time>2026-04-30T13:18:16.993Z</time></trkpt><trkpt lat="39.443389071505635" lon="9.541726711876757"><ele>17.333333333333336</ele><time>2026-04-30T13:18:17.993Z</time></trkpt><trkpt lat="39.44346738081547" lon="9.541686826889313"><ele>17.5</ele><time>2026-04-30T13:18:18.993Z</time></trkpt><trkpt lat="39.44354946967002" lon="9.541634750780522"><ele>17.666666666666668</ele><time>2026-04-30T13:18:19.993Z</time></trkpt><trkpt lat="39.443629626345654" lon="9.541582297731905"><ele>17.833333333333332</ele><time>2026-04-30T13:18:20.993Z</time></trkpt><trkpt lat="39.44371134402437" lon="9.541534878779862"><ele>18.0</ele><time>2026-04-30T13:18:21.993Z</time></trkpt><trkpt lat="39.443802797067875" lon="9.541491212842908"><ele>17.4</ele><time>2026-04-30T13:18:22.993Z</time></trkpt><trkpt lat="39.44391151074857" lon="9.541421504949204"><ele>16.8</ele><time>2026-04-30T13:18:23.993Z</time></trkpt><trkpt lat="39.44399150185374" lon="9.541354740294016"><ele>16.2</ele><time>2026-04-30T13:18:24.993Z</time></trkpt><trkpt lat="39.44405679082175" lon="9.541269024579899"><ele>15.6</ele><time>2026-04-30T13:18:25.993Z</time></trkpt><trkpt lat="39.444142547867465" lon="9.54121743888472"><ele>15.0</ele><time>2026-04-30T13:18:26.993Z</time></trkpt><trkpt lat="39.44423312760813" lon="9.541166660851605"><ele>15.0</ele><time>2026-04-30T13:18:27.993Z</time></trkpt><trkpt lat="39.44431331810832" lon="9.54109909095125"><ele>15.0</ele><time>2026-04-30T13:18:28.993Z</time></trkpt><trkpt lat="39.44437130774035" lon="9.5410044285948"><ele>15.0</ele><time>2026-04-30T13:18:29.993Z</time></trkpt><trkpt lat="39.4444190416428" lon="9.540903292422565"><ele>15.0</ele><time>2026-04-30T13:18:30.993Z</time></trkpt><trkpt lat="39.4444513208453" lon="9.540806285519956"><ele>15.0</ele><time>2026-04-30T13:18:31.993Z</time></trkpt><trkpt lat="39.444487634260014" lon="9.540690236454127"><ele>15.0</ele><time>2026-04-30T13:18:32.992Z</time></trkpt><trkpt lat="39.44453894283974" lon="9.540584289137803"><ele>15.0</ele><time>2026-04-30T13:18:33.992Z</time></trkpt><trkpt lat="39.444595259614495" lon="9.54048982643919"><ele>15.0</ele><time>2026-04-30T13:18:34.992Z</time></trkpt><trkpt lat="39.44467148355316" lon="9.540408789909804"><ele>15.0</ele><time>2026-04-30T13:18:35.992Z</time></trkpt><trkpt lat="39.444751065329015" lon="9.540337531726735"><ele>15.0</ele><time>2026-04-30T13:18:36.992Z</time></trkpt><trkpt lat="39.44481806232314" lon="9.540261041345445"><ele>15.6</ele><time>2026-04-30T13:18:37.992Z</time></trkpt><trkpt lat="39.44488317594093" lon="9.540178109063563"><ele>16.2</ele><time>2026-04-30T13:18:38.992Z</time></trkpt><trkpt lat="39.444936790506084" lon="9.540120469555498"><ele>16.8</ele><time>2026-04-30T13:18:39.992Z</time></trkpt><trkpt lat="39.44504366318483" lon="9.54015863604182"><ele>17.4</ele><time>2026-04-30T13:18:40.992Z</time></trkpt><trkpt lat="39.44513438279233" lon="9.540196738631385"><ele>18.0</ele><time>2026-04-30T13:18:41.992Z</time></trkpt><trkpt lat="39.44523530892905" lon="9.540222339229073"><ele>18.0</ele><time>2026-04-30T13:18:42.992Z</time></trkpt><trkpt lat="39.445333155644676" lon="9.540236758478224"><ele>18.0</ele><time>2026-04-30T13:18:43.992Z</time></trkpt><trkpt lat="39.44542707985073" lon="9.540240738155651"><ele>18.0</ele><time>2026-04-30T13:18:44.992Z</time></trkpt><trkpt lat="39.445521574884005" lon="9.540250685751724"><ele>18.0</ele><time>2026-04-30T13:18:45.992Z</time></trkpt><trkpt lat="39.44560647269855" lon="9.54027333687767"><ele>18.0</ele><time>2026-04-30T13:18:46.992Z</time></trkpt><trkpt lat="39.445697521437474" lon="9.540278842500902"><ele>18.0</ele><time>2026-04-30T13:18:47.992Z</time></trkpt><trkpt lat="39.445792917228424" lon="9.540288897832285"><ele>18.0</ele><time>2026-04-30T13:18:48.994Z</time></trkpt><trkpt lat="39.445897188410086" lon="9.540307497320752"><ele>18.0</ele><time>2026-04-30T13:18:49.994Z</time></trkpt><trkpt lat="39.44600033245963" lon="9.540317931581141"><ele>18.0</ele><time>2026-04-30T13:18:50.994Z</time></trkpt><trkpt lat="39.44609773601719" lon="9.540372169421861"><ele>18.0</ele><time>2026-04-30T13:18:51.994Z</time></trkpt><trkpt lat="39.446191955064144" lon="9.54041809024425"><ele>17.6</ele><time>2026-04-30T13:18:52.994Z</time></trkpt><trkpt lat="39.44628575457181" lon="9.540462047267077"><ele>17.200000000000003</ele><time>2026-04-30T13:18:53.994Z</time></trkpt><trkpt lat="39.44637607666855" lon="9.540503107040868"><ele>16.8</ele><time>2026-04-30T13:18:54.994Z</time></trkpt><trkpt lat="39.446463333781054" lon="9.540552234289208"><ele>16.400000000000002</ele><time>2026-04-30T13:18:55.994Z</time></trkpt><trkpt lat="39.446546555200065" lon="9.54059821396071"><ele>16.0</ele><time>2026-04-30T13:18:56.994Z</time></trkpt><trkpt lat="39.44663658413134" lon="9.540619932334746"><ele>16.0</ele><time>2026-04-30T13:18:57.994Z</time></trkpt><trkpt lat="39.44673470319397" lon="9.540620653864918"><ele>16.0</ele><time>2026-04-30T13:18:58.994Z</time></trkpt><trkpt lat="39.44684810442548" lon="9.54061765897192"><ele>16.0</ele><time>2026-04-30T13:18:59.994Z</time></trkpt><trkpt lat="39.44694349218106" lon="9.540602713837593"><ele>16.0</ele><time>2026-04-30T13:19:00.994Z</time></trkpt><trkpt lat="39.44704373550584" lon="9.54059412509163"><ele>16.0</ele><time>2026-04-30T13:19:01.994Z</time></trkpt><trkpt lat="39.4471482638009" lon="9.540592787388658"><ele>16.0</ele><time>2026-04-30T13:19:02.994Z</time></trkpt><trkpt lat="39.447247141207676" lon="9.54059172828398"><ele>16.0</ele><time>2026-04-30T13:19:03.994Z</time></trkpt><trkpt lat="39.44734494646131" lon="9.540589734560788"><ele>16.0</ele><time>2026-04-30T13:19:04.994Z</time></trkpt><trkpt lat="39.44744215469928" lon="9.540581060427252"><ele>16.0</ele><time>2026-04-30T13:19:05.994Z</time></trkpt><trkpt lat="39.44754220008146" lon="9.540598356197103"><ele>16.0</ele><time>2026-04-30T13:19:06.994Z</time></trkpt><trkpt lat="39.44764093041463" lon="9.540624352078023"><ele>16.0</ele><time>2026-04-30T13:19:07.994Z</time></trkpt><trkpt lat="39.44773760338652" lon="9.540645893808717"><ele>16.0</ele><time>2026-04-30T13:19:08.994Z</time></trkpt><trkpt lat="39.44783570517754" lon="9.540671513556514"><ele>16.0</ele><time>2026-04-30T13:19:09.994Z</time></trkpt><trkpt lat="39.447933797921806" lon="9.540688720552497"><ele>16.0</ele><time>2026-04-30T13:19:10.994Z</time></trkpt><trkpt lat="39.44803300983556" lon="9.54070160232963"><ele>16.0</ele><time>2026-04-30T13:19:11.994Z</time></trkpt><trkpt lat="39.44813196793229" lon="9.540719252131993"><ele>16.6</ele><time>2026-04-30T13:19:12.994Z</time></trkpt><trkpt lat="39.44823096284777" lon="9.540745722377219"><ele>17.200000000000003</ele><time>2026-04-30T13:19:13.994Z</time></trkpt><trkpt lat="39.44833136945612" lon="9.540776798059042"><ele>17.799999999999997</ele><time>2026-04-30T13:19:14.994Z</time></trkpt><trkpt lat="39.44842673392938" lon="9.54080705521809"><ele>18.4</ele><time>2026-04-30T13:19:15.994Z</time></trkpt><trkpt lat="39.44852923797055" lon="9.54082595545332"><ele>19.0</ele><time>2026-04-30T13:19:16.994Z</time></trkpt><trkpt lat="39.44863219072077" lon="9.540808939522995"><ele>19.0</ele><time>2026-04-30T13:19:17.994Z</time></trkpt><trkpt lat="39.44873535737125" lon="9.540796902550234"><ele>19.0</ele><time>2026-04-30T13:19:18.994Z</time></trkpt><trkpt lat="39.448843754660224" lon="9.5407924101749"><ele>19.0</ele><time>2026-04-30T13:19:19.994Z</time></trkpt><trkpt lat="39.44894041756675" lon="9.540795306731582"><ele>19.0</ele><time>2026-04-30T13:19:20.994Z</time></trkpt><trkpt lat="39.44904962769291" lon="9.540778134919748"><ele>19.0</ele><time>2026-04-30T13:19:21.994Z</time></trkpt><trkpt lat="39.44915577482597" lon="9.540770633671913"><ele>19.0</ele><time>2026-04-30T13:19:22.993Z</time></trkpt><trkpt lat="39.449258145999906" lon="9.540766634026957"><ele>19.0</ele><time>2026-04-30T13:19:23.993Z</time></trkpt><trkpt lat="39.44936445585064" lon="9.54075480106808"><ele>19.0</ele><time>2026-04-30T13:19:24.993Z</time></trkpt><trkpt lat="39.44946760570045" lon="9.54075014022409"><ele>19.0</ele><time>2026-04-30T13:19:25.993Z</time></trkpt><trkpt lat="39.44957167903711" lon="9.540750292571888"><ele>19.0</ele><time>2026-04-30T13:19:26.993Z</time></trkpt><trkpt lat="39.44967297954665" lon="9.540750406536143"><ele>18.599999999999998</ele><time>2026-04-30T13:19:27.993Z</time></trkpt><trkpt lat="39.44977871319498" lon="9.540739023583566"><ele>18.2</ele><time>2026-04-30T13:19:28.993Z</time></trkpt><trkpt lat="39.449888702335755" lon="9.540736192617105"><ele>17.799999999999997</ele><time>2026-04-30T13:19:29.993Z</time></trkpt><trkpt lat="39.45000003779728" lon="9.540743931488336"><ele>17.4</ele><time>2026-04-30T13:19:30.993Z</time></trkpt><trkpt lat="39.45011179718859" lon="9.540744867113364"><ele>17.0</ele><time>2026-04-30T13:19:31.993Z</time></trkpt><trkpt lat="39.4502186352565" lon="9.540758575069061"><ele>17.0</ele><time>2026-04-30T13:19:32.993Z</time></trkpt><trkpt lat="39.45032250444188" lon="9.540776523855609"><ele>17.0</ele><time>2026-04-30T13:19:33.993Z</time></trkpt><trkpt lat="39.4504335804251" lon="9.540797237959167"><ele>17.0</ele><time>2026-04-30T13:19:34.993Z</time></trkpt><trkpt lat="39.450540504850785" lon="9.540813854418925"><ele>17.0</ele><time>2026-04-30T13:19:35.993Z</time></trkpt><trkpt lat="39.450647510906286" lon="9.540834721452631"><ele>17.0</ele><time>2026-04-30T13:19:36.993Z</time></trkpt><trkpt lat="39.450754167114795" lon="9.540859005112619"><ele>16.8</ele><time>2026-04-30T13:19:37.993Z</time></trkpt><trkpt lat="39.45085740772055" lon="9.540880861975435"><ele>16.6</ele><time>2026-04-30T13:19:38.993Z</time></trkpt><trkpt lat="39.450956528162564" lon="9.54090124287676"><ele>16.400000000000002</ele><time>2026-04-30T13:19:39.993Z</time></trkpt><trkpt lat="39.45105163450286" lon="9.540929243398228"><ele>16.2</ele><time>2026-04-30T13:19:40.993Z</time></trkpt><trkpt lat="39.45114775647496" lon="9.540942406506183"><ele>16.0</ele><time>2026-04-30T13:19:41.993Z</time></trkpt><trkpt lat="39.45125037574552" lon="9.540912656525853"><ele>16.0</ele><time>2026-04-30T13:19:42.993Z</time></trkpt><trkpt lat="39.45134746241242" lon="9.540859015595283"><ele>16.0</ele><time>2026-04-30T13:19:43.993Z</time></trkpt><trkpt lat="39.45145511185633" lon="9.54080642335535"><ele>16.0</ele><time>2026-04-30T13:19:44.993Z</time></trkpt><trkpt lat="39.451562223540435" lon="9.540754389977085"><ele>16.0</ele><time>2026-04-30T13:19:45.993Z</time></trkpt><trkpt lat="39.45168628982128" lon="9.540703210307784"><ele>16.0</ele><time>2026-04-30T13:19:46.993Z</time></trkpt><trkpt lat="39.45180727059323" lon="9.54064396530667"><ele>16.0</ele><time>2026-04-30T13:19:47.993Z</time></trkpt><trkpt lat="39.45194006652316" lon="9.540586412230843"><ele>16.0</ele><time>2026-04-30T13:19:48.993Z</time></trkpt><trkpt lat="39.45207777421149" lon="9.54053033844019"><ele>16.0</ele><time>2026-04-30T13:19:49.993Z</time></trkpt><trkpt lat="39.45222245075673" lon="9.540487073910748"><ele>15.0</ele><time>2026-04-30T13:19:50.993Z</time></trkpt><trkpt lat="39.45236790389165" lon="9.54046236557923"><ele>14.0</ele><time>2026-04-30T13:19:51.993Z</time></trkpt><trkpt lat="39.452526086642855" lon="9.540463477689967"><ele>13.0</ele><time>2026-04-30T13:19:52.993Z</time></trkpt><trkpt lat="39.45268505258485" lon="9.54046613444066"><ele>13.0</ele><time>2026-04-30T13:19:53.993Z</time></trkpt><trkpt lat="39.452849899417615" lon="9.540464283917302"><ele>13.0</ele><time>2026-04-30T13:19:54.993Z</time></trkpt><trkpt lat="39.45301983248295" lon="9.540470077985734"><ele>13.0</ele><time>2026-04-30T13:19:55.993Z</time></trkpt><trkpt lat="39.45319371269267" lon="9.54047764115339"><ele>14.0</ele><time>2026-04-30T13:19:56.993Z</time></trkpt><trkpt lat="39.45336940668725" lon="9.540496875962656"><ele>15.0</ele><time>2026-04-30T13:19:57.993Z</time></trkpt><trkpt lat="39.45355332594068" lon="9.540499882102939"><ele>16.0</ele><time>2026-04-30T13:19:58.993Z</time></trkpt><trkpt lat="39.45374451537858" lon="9.540508527650417"><ele>17.0</ele><time>2026-04-30T13:19:59.993Z</time></trkpt><trkpt lat="39.45393865845407" lon="9.540516490271312"><ele>18.0</ele><time>2026-04-30T13:20:00.993Z</time></trkpt><trkpt lat="39.45413359943358" lon="9.540523300702485"><ele>19.0</ele><time>2026-04-30T13:20:01.993Z</time></trkpt><trkpt lat="39.45433946585871" lon="9.540530110361564"><ele>19.0</ele><time>2026-04-30T13:20:02.993Z</time></trkpt><trkpt lat="39.454544903175595" lon="9.540536496723806"><ele>19.0</ele><time>2026-04-30T13:20:03.993Z</time></trkpt><trkpt lat="39.45474783354771" lon="9.540550631542274"><ele>19.0</ele><time>2026-04-30T13:20:04.993Z</time></trkpt><trkpt lat="39.454947168606" lon="9.540584856276208"><ele>19.333333333333332</ele><time>2026-04-30T13:20:05.993Z</time></trkpt><trkpt lat="39.455142965219096" lon="9.540655218699973"><ele>19.666666666666668</ele><time>2026-04-30T13:20:06.993Z</time></trkpt><trkpt lat="39.45533230243224" lon="9.540767570317488"><ele>20.0</ele><time>2026-04-30T13:20:07.993Z</time></trkpt><trkpt lat="39.455515904108715" lon="9.540909153661113"><ele>20.333333333333336</ele><time>2026-04-30T13:20:08.993Z</time></trkpt><trkpt lat="39.45567576699199" lon="9.541087639645477"><ele>20.666666666666668</ele><time>2026-04-30T13:20:09.993Z</time></trkpt><trkpt lat="39.45583515969333" lon="9.541277924108243"><ele>21.0</ele><time>2026-04-30T13:20:10.993Z</time></trkpt><trkpt lat="39.45600398251961" lon="9.541458269176507"><ele>21.0</ele><time>2026-04-30T13:20:11.993Z</time></trkpt><trkpt lat="39.4561897238514" lon="9.541623215838108"><ele>21.0</ele><time>2026-04-30T13:20:12.993Z</time></trkpt><trkpt lat="39.456387868891966" lon="9.541764891312448"><ele>25.5</ele><time>2026-04-30T13:20:13.993Z</time></trkpt><trkpt lat="39.45660500725435" lon="9.54186074911238"><ele>30.0</ele><time>2026-04-30T13:20:14.993Z</time></trkpt><trkpt lat="39.45683753677402" lon="9.541905646856309"><ele>30.0</ele><time>2026-04-30T13:20:15.993Z</time></trkpt><trkpt lat="39.457068130930324" lon="9.54191469392317"><ele>30.0</ele><time>2026-04-30T13:20:16.993Z</time></trkpt><trkpt lat="39.4572897819711" lon="9.541879525854219"><ele>32.666666666666664</ele><time>2026-04-30T13:20:17.993Z</time></trkpt><trkpt lat="39.45750196333854" lon="9.541814765250548"><ele>35.33333333333333</ele><time>2026-04-30T13:20:18.993Z</time></trkpt><trkpt lat="39.457710540152014" lon="9.541760682948723"><ele>38.0</ele><time>2026-04-30T13:20:19.993Z</time></trkpt><trkpt lat="39.45794668487673" lon="9.541748545341552"><ele>39.666666666666664</ele><time>2026-04-30T13:20:20.993Z</time></trkpt><trkpt lat="39.45817650857779" lon="9.541749143347038"><ele>41.333333333333336</ele><time>2026-04-30T13:20:21.993Z</time></trkpt><trkpt lat="39.45838706130704" lon="9.541799195510846"><ele>43.0</ele><time>2026-04-30T13:20:22.993Z</time></trkpt><trkpt lat="39.45859478966668" lon="9.541837122855828"><ele>43.0</ele><time>2026-04-30T13:20:23.993Z</time></trkpt><trkpt lat="39.45877644483506" lon="9.541877672411841"><ele>43.0</ele><time>2026-04-30T13:20:24.993Z</time></trkpt><trkpt lat="39.45895627684086" lon="9.541942412687325"><ele>43.0</ele><time>2026-04-30T13:20:25.993Z</time></trkpt><trkpt lat="39.45917358617444" lon="9.541954843443245"><ele>41.66666666666667</ele><time>2026-04-30T13:20:26.993Z</time></trkpt><trkpt lat="39.45939269809629" lon="9.541952956594505"><ele>40.333333333333336</ele><time>2026-04-30T13:20:27.993Z</time></trkpt><trkpt lat="39.459611964513684" lon="9.541951175723893"><ele>39.0</ele><time>2026-04-30T13:20:28.993Z</time></trkpt><trkpt lat="39.45983160532429" lon="9.541944813843774"><ele>39.0</ele><time>2026-04-30T13:20:29.993Z</time></trkpt><trkpt lat="39.46005616167281" lon="9.541915304573132"><ele>39.0</ele><time>2026-04-30T13:20:30.993Z</time></trkpt><trkpt lat="39.46027856000527" lon="9.541859658579337"><ele>32.0</ele><time>2026-04-30T13:20:31.993Z</time></trkpt><trkpt lat="39.460499819238265" lon="9.541782346372838"><ele>25.0</ele><time>2026-04-30T13:20:32.993Z</time></trkpt><trkpt lat="39.460712369769425" lon="9.541691499482226"><ele>25.0</ele><time>2026-04-30T13:20:33.993Z</time></trkpt><trkpt lat="39.460913487204245" lon="9.541582816807303"><ele>25.0</ele><time>2026-04-30T13:20:34.993Z</time></trkpt><trkpt lat="39.461112959356385" lon="9.54146448498743"><ele>25.0</ele><time>2026-04-30T13:20:35.993Z</time></trkpt><trkpt lat="39.4613086235425" lon="9.541337123477101"><ele>28.0</ele><time>2026-04-30T13:20:36.993Z</time></trkpt><trkpt lat="39.46149725438621" lon="9.541196284829853"><ele>31.0</ele><time>2026-04-30T13:20:37.993Z</time></trkpt><trkpt lat="39.461678379753366" lon="9.541042241739417"><ele>34.0</ele><time>2026-04-30T13:20:38.993Z</time></trkpt><trkpt lat="39.46184754221679" lon="9.540865959402446"><ele>34.0</ele><time>2026-04-30T13:20:39.993Z</time></trkpt><trkpt lat="39.462005698328625" lon="9.540668883310499"><ele>34.0</ele><time>2026-04-30T13:20:40.993Z</time></trkpt><trkpt lat="39.46214856467741" lon="9.540456880750094"><ele>34.0</ele><time>2026-04-30T13:20:41.993Z</time></trkpt><trkpt lat="39.462284999275575" lon="9.540238290986423"><ele>33.333333333333336</ele><time>2026-04-30T13:20:42.993Z</time></trkpt><trkpt lat="39.46243016982496" lon="9.540029572803808"><ele>32.666666666666664</ele><time>2026-04-30T13:20:43.993Z</time></trkpt><trkpt lat="39.46258756856577" lon="9.539831605002428"><ele>32.0</ele><time>2026-04-30T13:20:44.993Z</time></trkpt><trkpt lat="39.4627497026075" lon="9.539635850861174"><ele>32.5</ele><time>2026-04-30T13:20:45.993Z</time></trkpt><trkpt lat="39.46291651984338" lon="9.539441383974662"><ele>33.0</ele><time>2026-04-30T13:20:46.993Z</time></trkpt><trkpt lat="39.46310359907835" lon="9.5392756854823"><ele>33.0</ele><time>2026-04-30T13:20:47.993Z</time></trkpt><trkpt lat="39.46329683001466" lon="9.53915136583201"><ele>33.0</ele><time>2026-04-30T13:20:48.993Z</time></trkpt><trkpt lat="39.46349999576463" lon="9.539096201643366"><ele>33.0</ele><time>2026-04-30T13:20:49.993Z</time></trkpt><trkpt lat="39.46370203888762" lon="9.539088015076802"><ele>35.0</ele><time>2026-04-30T13:20:50.993Z</time></trkpt><trkpt lat="39.46391144304185" lon="9.539118731398617"><ele>37.0</ele><time>2026-04-30T13:20:51.993Z</time></trkpt><trkpt lat="39.46412397449362" lon="9.539145631697258"><ele>39.0</ele><time>2026-04-30T13:20:52.993Z</time></trkpt><trkpt lat="39.46432644954855" lon="9.539141019494625"><ele>39.0</ele><time>2026-04-30T13:20:53.993Z</time></trkpt><trkpt lat="39.46454031372334" lon="9.539128919676891"><ele>39.0</ele><time>2026-04-30T13:20:54.994Z</time></trkpt><trkpt lat="39.46475229332427" lon="9.539113415698804"><ele>39.0</ele><time>2026-04-30T13:20:55.993Z</time></trkpt><trkpt lat="39.46496941786784" lon="9.539116671796545"><ele>38.333333333333336</ele><time>2026-04-30T13:20:56.993Z</time></trkpt><trkpt lat="39.46518421265067" lon="9.539111140103683"><ele>37.66666666666667</ele><time>2026-04-30T13:20:57.994Z</time></trkpt><trkpt lat="39.465395720541714" lon="9.539107039040507"><ele>37.0</ele><time>2026-04-30T13:20:58.993Z</time></trkpt><trkpt lat="39.46560662458676" lon="9.539102902106544"><ele>36.66666666666667</ele><time>2026-04-30T13:20:59.993Z</time></trkpt><trkpt lat="39.465814037813985" lon="9.539101517744912"><ele>36.333333333333336</ele><time>2026-04-30T13:21:00.994Z</time></trkpt><trkpt lat="39.466017626809425" lon="9.539107425483115"><ele>36.0</ele><time>2026-04-30T13:21:01.993Z</time></trkpt><trkpt lat="39.466222045742846" lon="9.53912229552589"><ele>36.666666666666664</ele><time>2026-04-30T13:21:02.993Z</time></trkpt><trkpt lat="39.466423728921356" lon="9.539149597198062"><ele>37.33333333333333</ele><time>2026-04-30T13:21:03.993Z</time></trkpt><trkpt lat="39.46663025027361" lon="9.53918322541538"><ele>38.0</ele><time>2026-04-30T13:21:04.993Z</time></trkpt><trkpt lat="39.4668353466607" lon="9.539231145430929"><ele>38.0</ele><time>2026-04-30T13:21:05.993Z</time></trkpt><trkpt lat="39.46704470325013" lon="9.539277154993142"><ele>38.0</ele><time>2026-04-30T13:21:06.993Z</time></trkpt><trkpt lat="39.467256924993755" lon="9.539315067318515"><ele>38.0</ele><time>2026-04-30T13:21:07.993Z</time></trkpt><trkpt lat="39.467472699310285" lon="9.539327981578047"><ele>38.0</ele><time>2026-04-30T13:21:08.993Z</time></trkpt><trkpt lat="39.46768612804112" lon="9.539291395634834"><ele>38.0</ele><time>2026-04-30T13:21:09.993Z</time></trkpt><trkpt lat="39.46789097536011" lon="9.539210318364272"><ele>38.0</ele><time>2026-04-30T13:21:10.993Z</time></trkpt><trkpt lat="39.46809377823909" lon="9.539114629719233"><ele>34.666666666666664</ele><time>2026-04-30T13:21:11.993Z</time></trkpt><trkpt lat="39.46830118227339" lon="9.53903116216861"><ele>31.333333333333336</ele><time>2026-04-30T13:21:12.993Z</time></trkpt><trkpt lat="39.4685070056152" lon="9.538956009622199"><ele>28.0</ele><time>2026-04-30T13:21:13.993Z</time></trkpt><trkpt lat="39.46871164855122" lon="9.538878784100108"><ele>26.0</ele><time>2026-04-30T13:21:14.993Z</time></trkpt><trkpt lat="39.46891047804703" lon="9.53880596287205"><ele>24.0</ele><time>2026-04-30T13:21:15.993Z</time></trkpt><trkpt lat="39.46911131686806" lon="9.538754895057346"><ele>22.0</ele><time>2026-04-30T13:21:16.993Z</time></trkpt><trkpt lat="39.46931058768169" lon="9.53871953619071"><ele>27.666666666666664</ele><time>2026-04-30T13:21:17.993Z</time></trkpt><trkpt lat="39.46949721146185" lon="9.538701669012706"><ele>33.333333333333336</ele><time>2026-04-30T13:21:18.993Z</time></trkpt><trkpt lat="39.46969300474609" lon="9.538638557423345"><ele>39.0</ele><time>2026-04-30T13:21:19.993Z</time></trkpt><trkpt lat="39.469892145694" lon="9.53856729730982"><ele>39.0</ele><time>2026-04-30T13:21:20.993Z</time></trkpt><trkpt lat="39.47008923297148" lon="9.53848083215385"><ele>39.0</ele><time>2026-04-30T13:21:21.993Z</time></trkpt><trkpt lat="39.470285692455164" lon="9.53838739133564"><ele>39.0</ele><time>2026-04-30T13:21:22.993Z</time></trkpt><trkpt lat="39.470481121938384" lon="9.538306115102596"><ele>38.333333333333336</ele><time>2026-04-30T13:21:23.993Z</time></trkpt><trkpt lat="39.47068948084045" lon="9.538229355095298"><ele>37.66666666666667</ele><time>2026-04-30T13:21:24.993Z</time></trkpt><trkpt lat="39.47090100664823" lon="9.538193134828939"><ele>37.0</ele><time>2026-04-30T13:21:25.993Z</time></trkpt><trkpt lat="39.47107345127188" lon="9.538310369216681"><ele>37.0</ele><time>2026-04-30T13:21:26.993Z</time></trkpt><trkpt lat="39.47122539969832" lon="9.538356022176416"><ele>37.0</ele><time>2026-04-30T13:21:27.993Z</time></trkpt><trkpt lat="39.47137937616474" lon="9.538377773862909"><ele>37.0</ele><time>2026-04-30T13:21:28.993Z</time></trkpt><trkpt lat="39.47161669580538" lon="9.538349807716203"><ele>35.5</ele><time>2026-04-30T13:21:29.993Z</time></trkpt><trkpt lat="39.471864809484956" lon="9.538241029729972"><ele>34.0</ele><time>2026-04-30T13:21:30.993Z</time></trkpt><trkpt lat="39.472078496821105" lon="9.53824388957865"><ele>36.333333333333336</ele><time>2026-04-30T13:21:31.993Z</time></trkpt><trkpt lat="39.47226485531757" lon="9.538321704832454"><ele>38.666666666666664</ele><time>2026-04-30T13:21:32.993Z</time></trkpt><trkpt lat="39.472449402918436" lon="9.538394119675434"><ele>41.0</ele><time>2026-04-30T13:21:33.993Z</time></trkpt><trkpt lat="39.47264650458709" lon="9.538456390731348"><ele>41.0</ele><time>2026-04-30T13:21:34.993Z</time></trkpt><trkpt lat="39.472858161514885" lon="9.538502445263825"><ele>41.0</ele><time>2026-04-30T13:21:35.993Z</time></trkpt><trkpt lat="39.473071986034995" lon="9.538548142160149"><ele>41.0</ele><time>2026-04-30T13:21:36.993Z</time></trkpt><trkpt lat="39.473279557994665" lon="9.538596948922358"><ele>40.0</ele><time>2026-04-30T13:21:37.993Z</time></trkpt><trkpt lat="39.47348615408327" lon="9.538656172435894"><ele>39.0</ele><time>2026-04-30T13:21:38.993Z</time></trkpt><trkpt lat="39.473689463966764" lon="9.538729689364082"><ele>38.0</ele><time>2026-04-30T13:21:39.993Z</time></trkpt><trkpt lat="39.473890000207895" lon="9.538818516281069"><ele>38.0</ele><time>2026-04-30T13:21:40.993Z</time></trkpt><trkpt lat="39.47409241707335" lon="9.538916517172169"><ele>38.0</ele><time>2026-04-30T13:21:41.993Z</time></trkpt><trkpt lat="39.47428725023215" lon="9.539009347187507"><ele>38.0</ele><time>2026-04-30T13:21:42.993Z</time></trkpt><trkpt lat="39.47446359455604" lon="9.539081722206072"><ele>43.666666666666664</ele><time>2026-04-30T13:21:43.993Z</time></trkpt><trkpt lat="39.4746214619776" lon="9.539152684954818"><ele>49.33333333333333</ele><time>2026-04-30T13:21:44.993Z</time></trkpt><trkpt lat="39.474780394646885" lon="9.53924098548733"><ele>55.0</ele><time>2026-04-30T13:21:45.993Z</time></trkpt><trkpt lat="39.47493590726626" lon="9.539362816602756"><ele>55.0</ele><time>2026-04-30T13:21:46.993Z</time></trkpt><trkpt lat="39.475094038532184" lon="9.539504109279017"><ele>55.0</ele><time>2026-04-30T13:21:47.993Z</time></trkpt><trkpt lat="39.47525422824289" lon="9.539653683987115"><ele>55.0</ele><time>2026-04-30T13:21:48.992Z</time></trkpt><trkpt lat="39.47542121457057" lon="9.539759580546828"><ele>50.666666666666664</ele><time>2026-04-30T13:21:49.992Z</time></trkpt><trkpt lat="39.475598998685406" lon="9.539820474539093"><ele>46.33333333333333</ele><time>2026-04-30T13:21:50.992Z</time></trkpt><trkpt lat="39.4757624293072" lon="9.53982186053483"><ele>42.0</ele><time>2026-04-30T13:21:51.992Z</time></trkpt><trkpt lat="39.47589836848647" lon="9.539761641695144"><ele>42.0</ele><time>2026-04-30T13:21:52.992Z</time></trkpt><trkpt lat="39.47599068192119" lon="9.539639212299251"><ele>42.0</ele><time>2026-04-30T13:21:53.992Z</time></trkpt><trkpt lat="39.47603821344786" lon="9.539467079758568"><ele>42.0</ele><time>2026-04-30T13:21:54.992Z</time></trkpt><trkpt lat="39.47603672323293" lon="9.539253586389554"><ele>42.0</ele><time>2026-04-30T13:21:55.992Z</time></trkpt><trkpt lat="39.47597398909732" lon="9.53900631818427"><ele>42.333333333333336</ele><time>2026-04-30T13:21:56.992Z</time></trkpt><trkpt lat="39.47593737306205" lon="9.538779295065908"><ele>42.66666666666667</ele><time>2026-04-30T13:21:57.992Z</time></trkpt><trkpt lat="39.47588160100347" lon="9.538553002860239"><ele>43.0</ele><time>2026-04-30T13:21:58.992Z</time></trkpt><trkpt lat="39.47580759910868" lon="9.538320875461526"><ele>40.66666666666667</ele><time>2026-04-30T13:21:59.992Z</time></trkpt><trkpt lat="39.47573324555491" lon="9.538087046645485"><ele>38.333333333333336</ele><time>2026-04-30T13:22:00.992Z</time></trkpt><trkpt lat="39.47565679115716" lon="9.537855914425533"><ele>36.0</ele><time>2026-04-30T13:22:01.992Z</time></trkpt><trkpt lat="39.47557994498938" lon="9.537625596941089"><ele>39.666666666666664</ele><time>2026-04-30T13:22:02.992Z</time></trkpt><trkpt lat="39.47548587760993" lon="9.537392432031764"><ele>43.33333333333333</ele><time>2026-04-30T13:22:03.992Z</time></trkpt><trkpt lat="39.47538059923815" lon="9.537163600398895"><ele>47.0</ele><time>2026-04-30T13:22:04.992Z</time></trkpt><trkpt lat="39.475283742808045" lon="9.53692344057445"><ele>47.0</ele><time>2026-04-30T13:22:05.992Z</time></trkpt><trkpt lat="39.475202405657136" lon="9.536674820564095"><ele>47.0</ele><time>2026-04-30T13:22:06.992Z</time></trkpt><trkpt lat="39.47515505309034" lon="9.536410441852265"><ele>47.0</ele><time>2026-04-30T13:22:07.992Z</time></trkpt><trkpt lat="39.47513579548685" lon="9.536138682638457"><ele>46.33333333333333</ele><time>2026-04-30T13:22:08.992Z</time></trkpt><trkpt lat="39.47513304468698" lon="9.535873028850729"><ele>45.666666666666664</ele><time>2026-04-30T13:22:09.992Z</time></trkpt><trkpt lat="39.47514489612402" lon="9.535608537634829"><ele>45.0</ele><time>2026-04-30T13:22:10.992Z</time></trkpt><trkpt lat="39.475175178946245" lon="9.535353055202094"><ele>45.0</ele><time>2026-04-30T13:22:11.992Z</time></trkpt><trkpt lat="39.475225374406975" lon="9.535102416181536"><ele>45.0</ele><time>2026-04-30T13:22:12.992Z</time></trkpt><trkpt lat="39.47528990757761" lon="9.534846038008515"><ele>45.0</ele><time>2026-04-30T13:22:13.992Z</time></trkpt><trkpt lat="39.475367299344896" lon="9.5345962873269"><ele>38.0</ele><time>2026-04-30T13:22:14.992Z</time></trkpt><trkpt lat="39.47546336438594" lon="9.534348038217303"><ele>31.0</ele><time>2026-04-30T13:22:15.992Z</time></trkpt><trkpt lat="39.47555640638465" lon="9.534109520625611"><ele>24.0</ele><time>2026-04-30T13:22:16.992Z</time></trkpt><trkpt lat="39.475641646316845" lon="9.533861702861827"><ele>27.333333333333336</ele><time>2026-04-30T13:22:17.992Z</time></trkpt><trkpt lat="39.475724124497006" lon="9.533616322543232"><ele>30.666666666666668</ele><time>2026-04-30T13:22:18.992Z</time></trkpt><trkpt lat="39.47580469805657" lon="9.533375873532144"><ele>34.0</ele><time>2026-04-30T13:22:19.992Z</time></trkpt><trkpt lat="39.47588647032321" lon="9.533131324298333"><ele>34.0</ele><time>2026-04-30T13:22:20.992Z</time></trkpt><trkpt lat="39.475966541275646" lon="9.532891250892654"><ele>34.0</ele><time>2026-04-30T13:22:21.992Z</time></trkpt><trkpt lat="39.47605190024144" lon="9.53265396677475"><ele>34.0</ele><time>2026-04-30T13:22:22.992Z</time></trkpt><trkpt lat="39.47613869816832" lon="9.532411671705148"><ele>36.333333333333336</ele><time>2026-04-30T13:22:23.992Z</time></trkpt><trkpt lat="39.47622514819147" lon="9.532163654303343"><ele>38.666666666666664</ele><time>2026-04-30T13:22:24.992Z</time></trkpt><trkpt lat="39.47630658259522" lon="9.531919427898503"><ele>41.0</ele><time>2026-04-30T13:22:25.992Z</time></trkpt><trkpt lat="39.47639048256716" lon="9.531669166191698"><ele>36.0</ele><time>2026-04-30T13:22:26.992Z</time></trkpt><trkpt lat="39.47647634852834" lon="9.531413861315247"><ele>31.0</ele><time>2026-04-30T13:22:27.992Z</time></trkpt><trkpt lat="39.47654959002833" lon="9.531153284729127"><ele>26.0</ele><time>2026-04-30T13:22:28.992Z</time></trkpt><trkpt lat="39.47661012292883" lon="9.53088149398968"><ele>26.0</ele><time>2026-04-30T13:22:29.992Z</time></trkpt><trkpt lat="39.47665743163259" lon="9.53060500773075"><ele>26.0</ele><time>2026-04-30T13:22:30.992Z</time></trkpt><trkpt lat="39.476697509424014" lon="9.530332456045807"><ele>26.0</ele><time>2026-04-30T13:22:31.992Z</time></trkpt><trkpt lat="39.47672819998965" lon="9.530064064538934"><ele>27.333333333333332</ele><time>2026-04-30T13:22:32.992Z</time></trkpt><trkpt lat="39.47675982100881" lon="9.529794349170228"><ele>28.666666666666664</ele><time>2026-04-30T13:22:33.992Z</time></trkpt><trkpt lat="39.476791975170265" lon="9.52952567519812"><ele>30.0</ele><time>2026-04-30T13:22:34.992Z</time></trkpt><trkpt lat="39.47682144649577" lon="9.529259033478203"><ele>34.0</ele><time>2026-04-30T13:22:35.992Z</time></trkpt><trkpt lat="39.4768461343762" lon="9.528990033511509"><ele>38.0</ele><time>2026-04-30T13:22:36.992Z</time></trkpt><trkpt lat="39.4768734400611" lon="9.528719549439499"><ele>42.0</ele><time>2026-04-30T13:22:37.992Z</time></trkpt><trkpt lat="39.476906525197" lon="9.52845018892051"><ele>45.0</ele><time>2026-04-30T13:22:38.992Z</time></trkpt><trkpt lat="39.47694453973228" lon="9.52818265549281"><ele>48.0</ele><time>2026-04-30T13:22:39.992Z</time></trkpt><trkpt lat="39.47699178163496" lon="9.527912368070599"><ele>51.0</ele><time>2026-04-30T13:22:40.992Z</time></trkpt><trkpt lat="39.47703222236614" lon="9.527650410496426"><ele>53.33333333333333</ele><time>2026-04-30T13:22:41.992Z</time></trkpt><trkpt lat="39.47706393166438" lon="9.527387307333965"><ele>55.666666666666664</ele><time>2026-04-30T13:22:42.992Z</time></trkpt><trkpt lat="39.47708646944568" lon="9.527127864251318"><ele>58.0</ele><time>2026-04-30T13:22:43.992Z</time></trkpt><trkpt lat="39.477096934999125" lon="9.526859344806574"><ele>58.33333333333333</ele><time>2026-04-30T13:22:44.992Z</time></trkpt><trkpt lat="39.47709580826701" lon="9.526581091659661"><ele>58.66666666666667</ele><time>2026-04-30T13:22:45.992Z</time></trkpt><trkpt lat="39.477104247242345" lon="9.526305218418011"><ele>59.0</ele><time>2026-04-30T13:22:46.992Z</time></trkpt><trkpt lat="39.477118248519524" lon="9.52603821789664"><ele>48.333333333333336</ele><time>2026-04-30T13:22:47.992Z</time></trkpt><trkpt lat="39.47713777456853" lon="9.52576957808276"><ele>37.66666666666667</ele><time>2026-04-30T13:22:48.992Z</time></trkpt><trkpt lat="39.477164266282855" lon="9.52549588857584"><ele>27.0</ele><time>2026-04-30T13:22:49.992Z</time></trkpt><trkpt lat="39.477216359229665" lon="9.525220590026306"><ele>27.0</ele><time>2026-04-30T13:22:50.992Z</time></trkpt><trkpt lat="39.47728527351919" lon="9.524953767804245"><ele>27.0</ele><time>2026-04-30T13:22:51.992Z</time></trkpt><trkpt lat="39.47737394785879" lon="9.524689780471395"><ele>27.0</ele><time>2026-04-30T13:22:52.992Z</time></trkpt><trkpt lat="39.477463059368304" lon="9.52443934923342"><ele>32.666666666666664</ele><time>2026-04-30T13:22:53.992Z</time></trkpt><trkpt lat="39.47755939746844" lon="9.52418264738397"><ele>38.33333333333333</ele><time>2026-04-30T13:22:54.992Z</time></trkpt><trkpt lat="39.47765283680853" lon="9.5239253034876"><ele>44.0</ele><time>2026-04-30T13:22:55.992Z</time></trkpt><trkpt lat="39.47773739516288" lon="9.523666235678464"><ele>50.33333333333333</ele><time>2026-04-30T13:22:56.992Z</time></trkpt><trkpt lat="39.47780397639416" lon="9.523400429221871"><ele>56.666666666666664</ele><time>2026-04-30T13:22:57.992Z</time></trkpt><trkpt lat="39.47786521578545" lon="9.523131967946018"><ele>63.0</ele><time>2026-04-30T13:22:58.992Z</time></trkpt><trkpt lat="39.4779239772235" lon="9.522860393803784"><ele>53.666666666666664</ele><time>2026-04-30T13:22:59.992Z</time></trkpt><trkpt lat="39.47799717397166" lon="9.522588979524315"><ele>44.33333333333333</ele><time>2026-04-30T13:23:00.994Z</time></trkpt><trkpt lat="39.47807887831463" lon="9.522321599119785"><ele>35.0</ele><time>2026-04-30T13:23:01.993Z</time></trkpt><trkpt lat="39.478157450622824" lon="9.522058040107815"><ele>35.0</ele><time>2026-04-30T13:23:02.993Z</time></trkpt><trkpt lat="39.47823028742334" lon="9.521798811312946"><ele>35.0</ele><time>2026-04-30T13:23:03.993Z</time></trkpt><trkpt lat="39.478296713240944" lon="9.521542151023374"><ele>35.0</ele><time>2026-04-30T13:23:04.993Z</time></trkpt><trkpt lat="39.47836530479918" lon="9.521290911759701"><ele>37.666666666666664</ele><time>2026-04-30T13:23:05.993Z</time></trkpt><trkpt lat="39.47845562799133" lon="9.521055299956604"><ele>40.333333333333336</ele><time>2026-04-30T13:23:06.993Z</time></trkpt><trkpt lat="39.47856779175584" lon="9.520836271942088"><ele>43.0</ele><time>2026-04-30T13:23:07.994Z</time></trkpt><trkpt lat="39.478702155379715" lon="9.520649750984646"><ele>38.66666666666667</ele><time>2026-04-30T13:23:08.994Z</time></trkpt><trkpt lat="39.47884405953694" lon="9.520465876239872"><ele>34.333333333333336</ele><time>2026-04-30T13:23:09.993Z</time></trkpt><trkpt lat="39.478970433510035" lon="9.520269081279283"><ele>30.0</ele><time>2026-04-30T13:23:10.993Z</time></trkpt><trkpt lat="39.47908617861201" lon="9.520047164492185"><ele>30.0</ele><time>2026-04-30T13:23:11.993Z</time></trkpt><trkpt lat="39.4791784532813" lon="9.519807212149948"><ele>30.0</ele><time>2026-04-30T13:23:12.993Z</time></trkpt><trkpt lat="39.47925233346485" lon="9.519554757759929"><ele>30.0</ele><time>2026-04-30T13:23:13.993Z</time></trkpt><trkpt lat="39.4793127640618" lon="9.51928833984018"><ele>29.333333333333336</ele><time>2026-04-30T13:23:14.993Z</time></trkpt><trkpt lat="39.47936878116632" lon="9.519026118286579"><ele>28.666666666666668</ele><time>2026-04-30T13:23:15.993Z</time></trkpt><trkpt lat="39.47943138742027" lon="9.518766159183343"><ele>28.0</ele><time>2026-04-30T13:23:16.993Z</time></trkpt><trkpt lat="39.479489946885565" lon="9.518512869773332"><ele>28.0</ele><time>2026-04-30T13:23:17.993Z</time></trkpt><trkpt lat="39.479552075007604" lon="9.518263018409053"><ele>28.0</ele><time>2026-04-30T13:23:18.993Z</time></trkpt><trkpt lat="39.47962113783585" lon="9.518010762223975"><ele>28.0</ele><time>2026-04-30T13:23:19.993Z</time></trkpt><trkpt lat="39.479691280015615" lon="9.517758321268744"><ele>26.666666666666668</ele><time>2026-04-30T13:23:20.993Z</time></trkpt><trkpt lat="39.47976740540164" lon="9.517516076931894"><ele>25.333333333333336</ele><time>2026-04-30T13:23:21.993Z</time></trkpt><trkpt lat="39.47984980139041" lon="9.517281603023724"><ele>24.0</ele><time>2026-04-30T13:23:22.993Z</time></trkpt><trkpt lat="39.47993849145805" lon="9.517044381091274"><ele>27.333333333333336</ele><time>2026-04-30T13:23:23.993Z</time></trkpt><trkpt lat="39.48003335203763" lon="9.516818330807192"><ele>30.666666666666668</ele><time>2026-04-30T13:23:24.993Z</time></trkpt><trkpt lat="39.48012947767541" lon="9.516583742481986"><ele>34.0</ele><time>2026-04-30T13:23:25.992Z</time></trkpt><trkpt lat="39.480226355725314" lon="9.516348929855688"><ele>37.0</ele><time>2026-04-30T13:23:26.992Z</time></trkpt><trkpt lat="39.48031631382402" lon="9.516112927409768"><ele>40.0</ele><time>2026-04-30T13:23:27.992Z</time></trkpt><trkpt lat="39.48038964884129" lon="9.515860872684605"><ele>43.0</ele><time>2026-04-30T13:23:28.992Z</time></trkpt><trkpt lat="39.48043679091477" lon="9.515599082384435"><ele>36.0</ele><time>2026-04-30T13:23:29.992Z</time></trkpt><trkpt lat="39.48046865236553" lon="9.515337823867513"><ele>29.0</ele><time>2026-04-30T13:23:30.992Z</time></trkpt><trkpt lat="39.48049289214247" lon="9.515069395378768"><ele>22.0</ele><time>2026-04-30T13:23:31.992Z</time></trkpt><trkpt lat="39.48052002030252" lon="9.514797329154296"><ele>23.666666666666664</ele><time>2026-04-30T13:23:32.992Z</time></trkpt><trkpt lat="39.48053573149335" lon="9.514522117332985"><ele>25.333333333333332</ele><time>2026-04-30T13:23:33.992Z</time></trkpt><trkpt lat="39.48054029295602" lon="9.514256360058356"><ele>27.0</ele><time>2026-04-30T13:23:34.992Z</time></trkpt><trkpt lat="39.48053389823829" lon="9.513985528904772"><ele>27.0</ele><time>2026-04-30T13:23:35.992Z</time></trkpt><trkpt lat="39.48052089824423" lon="9.513713458921474"><ele>27.0</ele><time>2026-04-30T13:23:36.992Z</time></trkpt><trkpt lat="39.480504446996754" lon="9.51344207530561"><ele>27.0</ele><time>2026-04-30T13:23:37.992Z</time></trkpt><trkpt lat="39.4804867059141" lon="9.51317602133228"><ele>27.0</ele><time>2026-04-30T13:23:38.992Z</time></trkpt><trkpt lat="39.4804647804017" lon="9.512917533355697"><ele>27.0</ele><time>2026-04-30T13:23:39.992Z</time></trkpt><trkpt lat="39.480445911930225" lon="9.512659207881166"><ele>27.0</ele><time>2026-04-30T13:23:40.992Z</time></trkpt><trkpt lat="39.480431755549304" lon="9.512398674699638"><ele>34.33333333333333</ele><time>2026-04-30T13:23:41.992Z</time></trkpt><trkpt lat="39.48041158566039" lon="9.512138785829466"><ele>41.666666666666664</ele><time>2026-04-30T13:23:42.992Z</time></trkpt><trkpt lat="39.48036949718635" lon="9.511883563352036"><ele>49.0</ele><time>2026-04-30T13:23:43.992Z</time></trkpt><trkpt lat="39.48029574522719" lon="9.511641762829276"><ele>49.0</ele><time>2026-04-30T13:23:44.992Z</time></trkpt><trkpt lat="39.48020723659601" lon="9.51141615077056"><ele>49.0</ele><time>2026-04-30T13:23:45.992Z</time></trkpt><trkpt lat="39.48010931300704" lon="9.511189460105497"><ele>49.0</ele><time>2026-04-30T13:23:46.992Z</time></trkpt><trkpt lat="39.48001533467351" lon="9.510963225255514"><ele>43.0</ele><time>2026-04-30T13:23:47.992Z</time></trkpt><trkpt lat="39.47991951815233" lon="9.510733910039047"><ele>37.0</ele><time>2026-04-30T13:23:48.992Z</time></trkpt><trkpt lat="39.479818242107676" lon="9.51050288204286"><ele>31.0</ele><time>2026-04-30T13:23:49.992Z</time></trkpt><trkpt lat="39.479715832944926" lon="9.510267757911846"><ele>30.666666666666668</ele><time>2026-04-30T13:23:50.992Z</time></trkpt><trkpt lat="39.4796195394413" lon="9.510030068734908"><ele>30.333333333333336</ele><time>2026-04-30T13:23:51.992Z</time></trkpt><trkpt lat="39.4795330659719" lon="9.50978693685203"><ele>30.0</ele><time>2026-04-30T13:23:52.992Z</time></trkpt><trkpt lat="39.47945624831315" lon="9.509534968410625"><ele>30.0</ele><time>2026-04-30T13:23:53.992Z</time></trkpt><trkpt lat="39.479399591784016" lon="9.509272089452944"><ele>30.0</ele><time>2026-04-30T13:23:54.992Z</time></trkpt><trkpt lat="39.479350117991565" lon="9.50900546836897"><ele>30.0</ele><time>2026-04-30T13:23:55.992Z</time></trkpt><trkpt lat="39.47930643542228" lon="9.508741542109751"><ele>32.0</ele><time>2026-04-30T13:23:56.992Z</time></trkpt><trkpt lat="39.479263043957445" lon="9.508483788656404"><ele>34.0</ele><time>2026-04-30T13:23:57.992Z</time></trkpt><trkpt lat="39.47922195579997" lon="9.508229468066913"><ele>36.0</ele><time>2026-04-30T13:23:58.992Z</time></trkpt><trkpt lat="39.47918409694789" lon="9.507972722700224"><ele>36.666666666666664</ele><time>2026-04-30T13:23:59.992Z</time></trkpt><trkpt lat="39.479143397739215" lon="9.50771374919499"><ele>37.33333333333333</ele><time>2026-04-30T13:24:00.992Z</time></trkpt><trkpt lat="39.47910211966072" lon="9.50745672024027"><ele>38.0</ele><time>2026-04-30T13:24:01.992Z</time></trkpt><trkpt lat="39.47906051029501" lon="9.50720034566624"><ele>39.0</ele><time>2026-04-30T13:24:02.992Z</time></trkpt><trkpt lat="39.47902133328077" lon="9.506945744092345"><ele>40.0</ele><time>2026-04-30T13:24:03.992Z</time></trkpt><trkpt lat="39.478982026174506" lon="9.506691917719865"><ele>41.0</ele><time>2026-04-30T13:24:04.992Z</time></trkpt><trkpt lat="39.47895087551036" lon="9.506438424927198"><ele>41.666666666666664</ele><time>2026-04-30T13:24:05.992Z</time></trkpt><trkpt lat="39.47892610189056" lon="9.50619643908202"><ele>42.333333333333336</ele><time>2026-04-30T13:24:06.992Z</time></trkpt><trkpt lat="39.47891390309905" lon="9.505943639541881"><ele>43.0</ele><time>2026-04-30T13:24:07.992Z</time></trkpt><trkpt lat="39.47890430862762" lon="9.50569566514389"><ele>43.0</ele><time>2026-04-30T13:24:08.992Z</time></trkpt><trkpt lat="39.478888841434966" lon="9.505443695575632"><ele>43.0</ele><time>2026-04-30T13:24:09.992Z</time></trkpt><trkpt lat="39.478873328356336" lon="9.505204334164036"><ele>43.0</ele><time>2026-04-30T13:24:10.992Z</time></trkpt><trkpt lat="39.478852385003094" lon="9.504958051468048"><ele>41.66666666666667</ele><time>2026-04-30T13:24:11.992Z</time></trkpt><trkpt lat="39.47883410766458" lon="9.504708181105274"><ele>40.333333333333336</ele><time>2026-04-30T13:24:12.992Z</time></trkpt><trkpt lat="39.47881840869978" lon="9.504455480348877"><ele>39.0</ele><time>2026-04-30T13:24:13.992Z</time></trkpt><trkpt lat="39.47880499564355" lon="9.504203084157478"><ele>37.0</ele><time>2026-04-30T13:24:14.992Z</time></trkpt><trkpt lat="39.47879460559484" lon="9.503949125228608"><ele>35.0</ele><time>2026-04-30T13:24:15.992Z</time></trkpt><trkpt lat="39.4787880888104" lon="9.503687617113483"><ele>33.0</ele><time>2026-04-30T13:24:16.992Z</time></trkpt><trkpt lat="39.47878385168777" lon="9.503432511489425"><ele>33.0</ele><time>2026-04-30T13:24:17.992Z</time></trkpt><trkpt lat="39.47878909626333" lon="9.50318216603704"><ele>33.0</ele><time>2026-04-30T13:24:18.992Z</time></trkpt><trkpt lat="39.478812479033074" lon="9.502936009459633"><ele>33.0</ele><time>2026-04-30T13:24:19.992Z</time></trkpt><trkpt lat="39.4788583797562" lon="9.502692864960963"><ele>33.333333333333336</ele><time>2026-04-30T13:24:20.992Z</time></trkpt><trkpt lat="39.47892145813107" lon="9.50245737698602"><ele>33.66666666666667</ele><time>2026-04-30T13:24:21.992Z</time></trkpt><trkpt lat="39.4789988019599" lon="9.502227145002923"><ele>34.0</ele><time>2026-04-30T13:24:22.992Z</time></trkpt><trkpt lat="39.47908302955295" lon="9.502003008942015"><ele>35.66666666666667</ele><time>2026-04-30T13:24:23.992Z</time></trkpt><trkpt lat="39.47916767569302" lon="9.501778539390278"><ele>37.333333333333336</ele><time>2026-04-30T13:24:24.992Z</time></trkpt><trkpt lat="39.479244333086285" lon="9.501558486898944"><ele>39.0</ele><time>2026-04-30T13:24:25.992Z</time></trkpt><trkpt lat="39.47932811609581" lon="9.50133045403802"><ele>40.333333333333336</ele><time>2026-04-30T13:24:26.992Z</time></trkpt><trkpt lat="39.47941366448604" lon="9.501106512248104"><ele>41.66666666666667</ele><time>2026-04-30T13:24:27.992Z</time></trkpt><trkpt lat="39.47949082034609" lon="9.500880240839553"><ele>43.0</ele><time>2026-04-30T13:24:28.992Z</time></trkpt><trkpt lat="39.47956695192699" lon="9.500657403699417"><ele>40.0</ele><time>2026-04-30T13:24:29.992Z</time></trkpt><trkpt lat="39.479636675831" lon="9.500429471553282"><ele>37.0</ele><time>2026-04-30T13:24:30.992Z</time></trkpt><trkpt lat="39.47969157714994" lon="9.500196134637326"><ele>34.0</ele><time>2026-04-30T13:24:31.992Z</time></trkpt><trkpt lat="39.47973390610575" lon="9.499955029937693"><ele>34.0</ele><time>2026-04-30T13:24:32.992Z</time></trkpt><trkpt lat="39.47975882365782" lon="9.499710580686376"><ele>34.0</ele><time>2026-04-30T13:24:33.992Z</time></trkpt><trkpt lat="39.479762768653764" lon="9.499463622838995"><ele>34.0</ele><time>2026-04-30T13:24:34.992Z</time></trkpt><trkpt lat="39.47975383845359" lon="9.499213814435024"><ele>34.66666666666667</ele><time>2026-04-30T13:24:35.992Z</time></trkpt><trkpt lat="39.47973711002548" lon="9.498964670817683"><ele>35.333333333333336</ele><time>2026-04-30T13:24:36.992Z</time></trkpt><trkpt lat="39.47971717314288" lon="9.498719868069044"><ele>36.0</ele><time>2026-04-30T13:24:37.992Z</time></trkpt><trkpt lat="39.479696535276936" lon="9.498471788559792"><ele>36.0</ele><time>2026-04-30T13:24:38.992Z</time></trkpt><trkpt lat="39.479681934712204" lon="9.498222662625555"><ele>36.0</ele><time>2026-04-30T13:24:39.992Z</time></trkpt><trkpt lat="39.479679067208366" lon="9.497976570414245"><ele>36.0</ele><time>2026-04-30T13:24:40.992Z</time></trkpt><trkpt lat="39.47968638627789" lon="9.497723395804927"><ele>36.333333333333336</ele><time>2026-04-30T13:24:41.992Z</time></trkpt><trkpt lat="39.47970163327335" lon="9.497464870969468"><ele>36.66666666666667</ele><time>2026-04-30T13:24:42.992Z</time></trkpt><trkpt lat="39.47972112905792" lon="9.497209325068455"><ele>37.0</ele><time>2026-04-30T13:24:43.992Z</time></trkpt><trkpt lat="39.47974434606087" lon="9.496957751197083"><ele>37.66666666666667</ele><time>2026-04-30T13:24:44.992Z</time></trkpt><trkpt lat="39.47976528058828" lon="9.49670267092289"><ele>38.333333333333336</ele><time>2026-04-30T13:24:45.992Z</time></trkpt><trkpt lat="39.47978979198634" lon="9.496449939469114"><ele>39.0</ele><time>2026-04-30T13:24:46.992Z</time></trkpt><trkpt lat="39.47980896081431" lon="9.496198499703814"><ele>40.333333333333336</ele><time>2026-04-30T13:24:47.992Z</time></trkpt><trkpt lat="39.47983484895711" lon="9.495946258947864"><ele>41.66666666666667</ele><time>2026-04-30T13:24:48.992Z</time></trkpt><trkpt lat="39.479859380835364" lon="9.495692935530784"><ele>43.0</ele><time>2026-04-30T13:24:49.992Z</time></trkpt><trkpt lat="39.47988353768557" lon="9.495436721131309"><ele>43.66666666666667</ele><time>2026-04-30T13:24:50.992Z</time></trkpt><trkpt lat="39.47990212877983" lon="9.495188875689461"><ele>44.333333333333336</ele><time>2026-04-30T13:24:51.992Z</time></trkpt><trkpt lat="39.479922152613995" lon="9.494937118342994"><ele>45.0</ele><time>2026-04-30T13:24:52.992Z</time></trkpt><trkpt lat="39.47994557980502" lon="9.494691237300305"><ele>45.666666666666664</ele><time>2026-04-30T13:24:53.992Z</time></trkpt><trkpt lat="39.47996360656399" lon="9.494439099400726"><ele>46.33333333333333</ele><time>2026-04-30T13:24:54.992Z</time></trkpt><trkpt lat="39.47997814020421" lon="9.494192291217352"><ele>47.0</ele><time>2026-04-30T13:24:55.992Z</time></trkpt><trkpt lat="39.48000019767883" lon="9.493947180986476"><ele>48.33333333333333</ele><time>2026-04-30T13:24:56.992Z</time></trkpt><trkpt lat="39.48001174210478" lon="9.493704636431081"><ele>49.666666666666664</ele><time>2026-04-30T13:24:57.992Z</time></trkpt><trkpt lat="39.480014403335076" lon="9.49344811667967"><ele>51.0</ele><time>2026-04-30T13:24:58.992Z</time></trkpt><trkpt lat="39.47999204215317" lon="9.493193380027611"><ele>51.0</ele><time>2026-04-30T13:24:59.991Z</time></trkpt><trkpt lat="39.479948403113745" lon="9.49294719102434"><ele>51.0</ele><time>2026-04-30T13:25:00.991Z</time></trkpt><trkpt lat="39.479890005594704" lon="9.492717374001598"><ele>51.0</ele><time>2026-04-30T13:25:01.991Z</time></trkpt><trkpt lat="39.4798274208788" lon="9.492464850537708"><ele>50.66666666666667</ele><time>2026-04-30T13:25:02.991Z</time></trkpt><trkpt lat="39.47975561656674" lon="9.492219998972606"><ele>50.333333333333336</ele><time>2026-04-30T13:25:03.991Z</time></trkpt><trkpt lat="39.47968575255663" lon="9.491973723770972"><ele>50.0</ele><time>2026-04-30T13:25:04.991Z</time></trkpt><trkpt lat="39.479620041295725" lon="9.491731771169858"><ele>51.0</ele><time>2026-04-30T13:25:05.991Z</time></trkpt><trkpt lat="39.479568636282224" lon="9.491493800052364"><ele>52.0</ele><time>2026-04-30T13:25:06.993Z</time></trkpt><trkpt lat="39.479532736123325" lon="9.491248465485468"><ele>53.0</ele><time>2026-04-30T13:25:07.993Z</time></trkpt><trkpt lat="39.47950793063508" lon="9.490997745222693"><ele>52.0</ele><time>2026-04-30T13:25:08.993Z</time></trkpt><trkpt lat="39.47949709240663" lon="9.490753312191295"><ele>51.0</ele><time>2026-04-30T13:25:09.993Z</time></trkpt><trkpt lat="39.47951357526467" lon="9.490501993399473"><ele>50.0</ele><time>2026-04-30T13:25:10.993Z</time></trkpt><trkpt lat="39.47954592585179" lon="9.49025446796215"><ele>48.333333333333336</ele><time>2026-04-30T13:25:11.993Z</time></trkpt><trkpt lat="39.47960504442811" lon="9.490016060704448"><ele>46.66666666666667</ele><time>2026-04-30T13:25:12.993Z</time></trkpt><trkpt lat="39.47968698116115" lon="9.489787206992993"><ele>45.0</ele><time>2026-04-30T13:25:13.993Z</time></trkpt><trkpt lat="39.47977846027637" lon="9.489560320744195"><ele>49.0</ele><time>2026-04-30T13:25:14.993Z</time></trkpt><trkpt lat="39.47989363916709" lon="9.489352018800188"><ele>53.0</ele><time>2026-04-30T13:25:15.993Z</time></trkpt><trkpt lat="39.480029334380625" lon="9.489154356692739"><ele>57.0</ele><time>2026-04-30T13:25:16.992Z</time></trkpt><trkpt lat="39.48016221193849" lon="9.488956896630544"><ele>54.0</ele><time>2026-04-30T13:25:17.992Z</time></trkpt><trkpt lat="39.4802948506961" lon="9.488757461097642"><ele>51.0</ele><time>2026-04-30T13:25:18.993Z</time></trkpt><trkpt lat="39.480428278621005" lon="9.488554791222008"><ele>48.0</ele><time>2026-04-30T13:25:19.993Z</time></trkpt><trkpt lat="39.480557140202" lon="9.488343840785273"><ele>48.0</ele><time>2026-04-30T13:25:20.992Z</time></trkpt><trkpt lat="39.48068027118823" lon="9.488113244264163"><ele>48.0</ele><time>2026-04-30T13:25:21.992Z</time></trkpt><trkpt lat="39.4807847508737" lon="9.487870081807793"><ele>48.0</ele><time>2026-04-30T13:25:22.992Z</time></trkpt><trkpt lat="39.48086738108095" lon="9.487620305539972"><ele>50.33333333333333</ele><time>2026-04-30T13:25:23.992Z</time></trkpt><trkpt lat="39.48094312139052" lon="9.487360757544074"><ele>52.666666666666664</ele><time>2026-04-30T13:25:24.992Z</time></trkpt><trkpt lat="39.48100067679123" lon="9.487094742021933"><ele>55.0</ele><time>2026-04-30T13:25:25.992Z</time></trkpt><trkpt lat="39.481048744392275" lon="9.48681899772119"><ele>58.33333333333333</ele><time>2026-04-30T13:25:26.992Z</time></trkpt><trkpt lat="39.48108729440184" lon="9.486544343897949"><ele>61.66666666666667</ele><time>2026-04-30T13:25:27.992Z</time></trkpt><trkpt lat="39.481124931912255" lon="9.486271383127425"><ele>65.0</ele><time>2026-04-30T13:25:28.992Z</time></trkpt><trkpt lat="39.48117699929168" lon="9.486002430167261"><ele>67.33333333333334</ele><time>2026-04-30T13:25:29.992Z</time></trkpt><trkpt lat="39.48125478755295" lon="9.485739959552092"><ele>69.66666666666667</ele><time>2026-04-30T13:25:30.992Z</time></trkpt><trkpt lat="39.48134598981059" lon="9.485486827145676"><ele>72.0</ele><time>2026-04-30T13:25:31.992Z</time></trkpt><trkpt lat="39.48145050875108" lon="9.485237303141835"><ele>72.66666666666667</ele><time>2026-04-30T13:25:32.992Z</time></trkpt><trkpt lat="39.481568132212644" lon="9.485002884311985"><ele>73.33333333333334</ele><time>2026-04-30T13:25:33.992Z</time></trkpt><trkpt lat="39.4817013064981" lon="9.48477948599021"><ele>74.0</ele><time>2026-04-30T13:25:34.992Z</time></trkpt><trkpt lat="39.481849143198986" lon="9.484574999222543"><ele>74.0</ele><time>2026-04-30T13:25:35.992Z</time></trkpt><trkpt lat="39.48200859979994" lon="9.484391634114091"><ele>74.0</ele><time>2026-04-30T13:25:36.992Z</time></trkpt><trkpt lat="39.482179583814975" lon="9.48422236651007"><ele>74.0</ele><time>2026-04-30T13:25:37.992Z</time></trkpt><trkpt lat="39.482358346754374" lon="9.484068218683108"><ele>70.66666666666667</ele><time>2026-04-30T13:25:38.992Z</time></trkpt><trkpt lat="39.48255012488084" lon="9.483933023091428"><ele>67.33333333333333</ele><time>2026-04-30T13:25:39.992Z</time></trkpt><trkpt lat="39.48274504703694" lon="9.483801339143481"><ele>64.0</ele><time>2026-04-30T13:25:40.992Z</time></trkpt><trkpt lat="39.48294083864116" lon="9.48365816772016"><ele>64.0</ele><time>2026-04-30T13:25:41.992Z</time></trkpt><trkpt lat="39.4831254876126" lon="9.483518309936917"><ele>64.0</ele><time>2026-04-30T13:25:42.992Z</time></trkpt><trkpt lat="39.483317723465056" lon="9.483366249559696"><ele>64.0</ele><time>2026-04-30T13:25:43.992Z</time></trkpt><trkpt lat="39.48349765146348" lon="9.48320286707982"><ele>64.0</ele><time>2026-04-30T13:25:44.992Z</time></trkpt><trkpt lat="39.48366296926871" lon="9.482998407202372"><ele>64.0</ele><time>2026-04-30T13:25:45.992Z</time></trkpt><trkpt lat="39.483824346373524" lon="9.482825540185885"><ele>64.0</ele><time>2026-04-30T13:25:46.992Z</time></trkpt><trkpt lat="39.48394855086469" lon="9.482611769775547"><ele>67.5</ele><time>2026-04-30T13:25:47.992Z</time></trkpt><trkpt lat="39.484039117580195" lon="9.482309778225943"><ele>71.0</ele><time>2026-04-30T13:25:48.992Z</time></trkpt><trkpt lat="39.484103114272386" lon="9.482010348385682"><ele>71.0</ele><time>2026-04-30T13:25:49.992Z</time></trkpt><trkpt lat="39.48420388775108" lon="9.481900538781924"><ele>71.0</ele><time>2026-04-30T13:25:50.992Z</time></trkpt><trkpt lat="39.48426995384714" lon="9.481742973969883"><ele>71.0</ele><time>2026-04-30T13:25:51.992Z</time></trkpt><trkpt lat="39.48428434404429" lon="9.481355374853363"><ele>75.5</ele><time>2026-04-30T13:25:52.992Z</time></trkpt><trkpt lat="39.48426879213879" lon="9.481029523610347"><ele>80.0</ele><time>2026-04-30T13:25:53.992Z</time></trkpt><trkpt lat="39.48422625391865" lon="9.480739490304643"><ele>79.0</ele><time>2026-04-30T13:25:54.992Z</time></trkpt><trkpt lat="39.48419930973552" lon="9.48043068153222"><ele>78.0</ele><time>2026-04-30T13:25:55.992Z</time></trkpt><trkpt lat="39.48415495987944" lon="9.480146024463174"><ele>78.0</ele><time>2026-04-30T13:25:56.992Z</time></trkpt><trkpt lat="39.484094996773926" lon="9.479873336456466"><ele>78.0</ele><time>2026-04-30T13:25:57.992Z</time></trkpt><trkpt lat="39.48402990962716" lon="9.479614078724515"><ele>78.0</ele><time>2026-04-30T13:25:58.992Z</time></trkpt><trkpt lat="39.483963501853765" lon="9.479353528199132"><ele>76.0</ele><time>2026-04-30T13:25:59.992Z</time></trkpt><trkpt lat="39.483894848240034" lon="9.479088426223356"><ele>74.0</ele><time>2026-04-30T13:26:00.992Z</time></trkpt><trkpt lat="39.48383029497406" lon="9.478823730178478"><ele>72.0</ele><time>2026-04-30T13:26:01.992Z</time></trkpt><trkpt lat="39.48378008700516" lon="9.478551943179596"><ele>74.33333333333333</ele><time>2026-04-30T13:26:02.992Z</time></trkpt><trkpt lat="39.48375373529525" lon="9.478276551747681"><ele>76.66666666666666</ele><time>2026-04-30T13:26:03.992Z</time></trkpt><trkpt lat="39.483743496947675" lon="9.478004030715931"><ele>79.0</ele><time>2026-04-30T13:26:04.992Z</time></trkpt><trkpt lat="39.48376614672779" lon="9.477731553248343"><ele>79.0</ele><time>2026-04-30T13:26:05.992Z</time></trkpt><trkpt lat="39.48381457283624" lon="9.477470535999213"><ele>79.0</ele><time>2026-04-30T13:26:06.992Z</time></trkpt><trkpt lat="39.483884516403755" lon="9.47721731658988"><ele>79.0</ele><time>2026-04-30T13:26:07.992Z</time></trkpt><trkpt lat="39.48397905117406" lon="9.47697761442239"><ele>85.33333333333333</ele><time>2026-04-30T13:26:08.992Z</time></trkpt><trkpt lat="39.48409287292574" lon="9.476749388022979"><ele>91.66666666666666</ele><time>2026-04-30T13:26:09.992Z</time></trkpt><trkpt lat="39.484221358892945" lon="9.476533939476347"><ele>98.0</ele><time>2026-04-30T13:26:10.992Z</time></trkpt><trkpt lat="39.48435079442127" lon="9.476323883125117"><ele>93.66666666666666</ele><time>2026-04-30T13:26:11.992Z</time></trkpt><trkpt lat="39.48448335306065" lon="9.476105231528402"><ele>89.33333333333333</ele><time>2026-04-30T13:26:12.992Z</time></trkpt><trkpt lat="39.48461960225326" lon="9.475893167566918"><ele>85.0</ele><time>2026-04-30T13:26:13.992Z</time></trkpt><trkpt lat="39.48474678149518" lon="9.475678615479966"><ele>85.0</ele><time>2026-04-30T13:26:14.992Z</time></trkpt><trkpt lat="39.4848825168473" lon="9.475466890569228"><ele>85.0</ele><time>2026-04-30T13:26:15.992Z</time></trkpt><trkpt lat="39.48501612900491" lon="9.475255318674474"><ele>85.0</ele><time>2026-04-30T13:26:16.992Z</time></trkpt><trkpt lat="39.4851457517878" lon="9.475053734957498"><ele>90.33333333333333</ele><time>2026-04-30T13:26:17.992Z</time></trkpt><trkpt lat="39.48527631515287" lon="9.474851844669512"><ele>95.66666666666666</ele><time>2026-04-30T13:26:18.992Z</time></trkpt><trkpt lat="39.48541356692608" lon="9.474645777147051"><ele>101.0</ele><time>2026-04-30T13:26:19.992Z</time></trkpt><trkpt lat="39.485541365802824" lon="9.474430549895324"><ele>101.0</ele><time>2026-04-30T13:26:20.992Z</time></trkpt><trkpt lat="39.48563829575145" lon="9.474187920466086"><ele>101.0</ele><time>2026-04-30T13:26:21.992Z</time></trkpt><trkpt lat="39.48569571684022" lon="9.473920700010867"><ele>101.0</ele><time>2026-04-30T13:26:22.992Z</time></trkpt><trkpt lat="39.48571912170494" lon="9.473647758797833"><ele>100.33333333333333</ele><time>2026-04-30T13:26:23.992Z</time></trkpt><trkpt lat="39.4856986678142" lon="9.47337177472276"><ele>99.66666666666666</ele><time>2026-04-30T13:26:24.992Z</time></trkpt><trkpt lat="39.48563282600591" lon="9.473110854920668"><ele>99.0</ele><time>2026-04-30T13:26:25.992Z</time></trkpt><trkpt lat="39.48553442833065" lon="9.47287399537439"><ele>99.33333333333334</ele><time>2026-04-30T13:26:26.992Z</time></trkpt><trkpt lat="39.4854009068513" lon="9.472667729059896"><ele>99.66666666666667</ele><time>2026-04-30T13:26:27.992Z</time></trkpt><trkpt lat="39.48524701957314" lon="9.472491739824203"><ele>100.0</ele><time>2026-04-30T13:26:28.992Z</time></trkpt><trkpt lat="39.485089846541534" lon="9.472325340600664"><ele>100.0</ele><time>2026-04-30T13:26:29.992Z</time></trkpt><trkpt lat="39.48496957194163" lon="9.472135344687278"><ele>100.0</ele><time>2026-04-30T13:26:30.992Z</time></trkpt><trkpt lat="39.48489034129486" lon="9.47190671871948"><ele>100.0</ele><time>2026-04-30T13:26:31.992Z</time></trkpt><trkpt lat="39.48484766255816" lon="9.471659274375705"><ele>96.33333333333334</ele><time>2026-04-30T13:26:32.992Z</time></trkpt><trkpt lat="39.48485928502332" lon="9.471402050658948"><ele>92.66666666666667</ele><time>2026-04-30T13:26:33.992Z</time></trkpt><trkpt lat="39.484922116146286" lon="9.471150494710178"><ele>89.0</ele><time>2026-04-30T13:26:34.992Z</time></trkpt><trkpt lat="39.48500953620173" lon="9.470908651718595"><ele>89.0</ele><time>2026-04-30T13:26:35.992Z</time></trkpt><trkpt lat="39.485102294379246" lon="9.470666224541926"><ele>89.0</ele><time>2026-04-30T13:26:36.992Z</time></trkpt><trkpt lat="39.485188318225376" lon="9.470432567403243"><ele>89.0</ele><time>2026-04-30T13:26:37.992Z</time></trkpt><trkpt lat="39.485259052719414" lon="9.470210179581455"><ele>89.0</ele><time>2026-04-30T13:26:38.992Z</time></trkpt><trkpt lat="39.48532638198239" lon="9.469986410359763"><ele>89.0</ele><time>2026-04-30T13:26:39.992Z</time></trkpt><trkpt lat="39.485378917395124" lon="9.46973325682366"><ele>89.0</ele><time>2026-04-30T13:26:40.992Z</time></trkpt><trkpt lat="39.48541714514799" lon="9.469463808630346"><ele>83.33333333333334</ele><time>2026-04-30T13:26:41.992Z</time></trkpt><trkpt lat="39.485443307835105" lon="9.469177688577075"><ele>77.66666666666667</ele><time>2026-04-30T13:26:42.992Z</time></trkpt><trkpt lat="39.48545932474292" lon="9.468888847025926"><ele>72.0</ele><time>2026-04-30T13:26:43.992Z</time></trkpt><trkpt lat="39.485467931155796" lon="9.468600078507425"><ele>69.5</ele><time>2026-04-30T13:26:44.992Z</time></trkpt><trkpt lat="39.48547288787079" lon="9.468310562880744"><ele>67.0</ele><time>2026-04-30T13:26:45.992Z</time></trkpt><trkpt lat="39.48547605337748" lon="9.468017286158092"><ele>67.0</ele><time>2026-04-30T13:26:46.992Z</time></trkpt><trkpt lat="39.48548133691122" lon="9.467726342945559"><ele>67.0</ele><time>2026-04-30T13:26:47.992Z</time></trkpt><trkpt lat="39.48548056191868" lon="9.467428086745002"><ele>67.0</ele><time>2026-04-30T13:26:48.992Z</time></trkpt><trkpt lat="39.48545999122873" lon="9.467122361803314"><ele>67.0</ele><time>2026-04-30T13:26:49.992Z</time></trkpt><trkpt lat="39.485420219547564" lon="9.466815927016537"><ele>65.0</ele><time>2026-04-30T13:26:50.992Z</time></trkpt><trkpt lat="39.485370644294235" lon="9.4665050115476"><ele>63.0</ele><time>2026-04-30T13:26:51.992Z</time></trkpt><trkpt lat="39.48532194611072" lon="9.466189920894456"><ele>63.0</ele><time>2026-04-30T13:26:52.992Z</time></trkpt><trkpt lat="39.48526574553753" lon="9.465875675964831"><ele>63.0</ele><time>2026-04-30T13:26:53.992Z</time></trkpt><trkpt lat="39.485207448559066" lon="9.465556580255361"><ele>59.0</ele><time>2026-04-30T13:26:54.991Z</time></trkpt><trkpt lat="39.48514893080618" lon="9.465234689113254"><ele>55.0</ele><time>2026-04-30T13:26:55.991Z</time></trkpt><trkpt lat="39.4850930051881" lon="9.464910558661938"><ele>52.5</ele><time>2026-04-30T13:26:56.991Z</time></trkpt><trkpt lat="39.48503709383863" lon="9.464586179083254"><ele>50.0</ele><time>2026-04-30T13:26:57.991Z</time></trkpt><trkpt lat="39.48498151218167" lon="9.464261806705398"><ele>50.0</ele><time>2026-04-30T13:26:58.991Z</time></trkpt><trkpt lat="39.48493242526944" lon="9.46393046698026"><ele>50.0</ele><time>2026-04-30T13:26:59.991Z</time></trkpt><trkpt lat="39.48490128548582" lon="9.463598047287354"><ele>47.5</ele><time>2026-04-30T13:27:00.991Z</time></trkpt><trkpt lat="39.48488476275344" lon="9.463266940730328"><ele>45.0</ele><time>2026-04-30T13:27:01.991Z</time></trkpt><trkpt lat="39.48489015350073" lon="9.462936223302107"><ele>44.0</ele><time>2026-04-30T13:27:02.991Z</time></trkpt><trkpt lat="39.484904890289734" lon="9.462605987724976"><ele>43.0</ele><time>2026-04-30T13:27:03.991Z</time></trkpt><trkpt lat="39.484926368087905" lon="9.462276533995041"><ele>45.0</ele><time>2026-04-30T13:27:04.991Z</time></trkpt><trkpt lat="39.48494756546687" lon="9.461939596122292"><ele>47.0</ele><time>2026-04-30T13:27:05.991Z</time></trkpt><trkpt lat="39.484965110186" lon="9.461604166399988"><ele>46.0</ele><time>2026-04-30T13:27:06.991Z</time></trkpt><trkpt lat="39.48498386647264" lon="9.461271087465153"><ele>45.0</ele><time>2026-04-30T13:27:07.991Z</time></trkpt><trkpt lat="39.48500395028794" lon="9.460942391443531"><ele>45.0</ele><time>2026-04-30T13:27:08.991Z</time></trkpt><trkpt lat="39.48503270359773" lon="9.460627476155393"><ele>45.0</ele><time>2026-04-30T13:27:09.991Z</time></trkpt><trkpt lat="39.48506789040876" lon="9.46032333271575"><ele>47.0</ele><time>2026-04-30T13:27:10.991Z</time></trkpt><trkpt lat="39.48513122792525" lon="9.46003144768554"><ele>49.0</ele><time>2026-04-30T13:27:11.991Z</time></trkpt><trkpt lat="39.485221690049094" lon="9.459744870236532"><ele>58.5</ele><time>2026-04-30T13:27:12.993Z</time></trkpt><trkpt lat="39.48532170245315" lon="9.459468773616901"><ele>68.0</ele><time>2026-04-30T13:27:13.993Z</time></trkpt><trkpt lat="39.48542683740606" lon="9.45919122676448"><ele>59.0</ele><time>2026-04-30T13:27:14.993Z</time></trkpt><trkpt lat="39.485529001339756" lon="9.458915086479953"><ele>50.0</ele><time>2026-04-30T13:27:15.993Z</time></trkpt><trkpt lat="39.485631487956276" lon="9.458651489802222"><ele>50.0</ele><time>2026-04-30T13:27:16.993Z</time></trkpt><trkpt lat="39.485726373263034" lon="9.458369110508544"><ele>50.0</ele><time>2026-04-30T13:27:17.993Z</time></trkpt><trkpt lat="39.48582012777792" lon="9.45808500600973"><ele>52.0</ele><time>2026-04-30T13:27:18.993Z</time></trkpt><trkpt lat="39.48591588451833" lon="9.457801333437395"><ele>54.0</ele><time>2026-04-30T13:27:19.993Z</time></trkpt><trkpt lat="39.48599446906264" lon="9.45751194102303"><ele>54.0</ele><time>2026-04-30T13:27:20.993Z</time></trkpt><trkpt lat="39.486037488905886" lon="9.457207464328006"><ele>54.0</ele><time>2026-04-30T13:27:21.992Z</time></trkpt><trkpt lat="39.48604981969064" lon="9.456899238738002"><ele>50.5</ele><time>2026-04-30T13:27:22.993Z</time></trkpt><trkpt lat="39.48603156422637" lon="9.456582531797535"><ele>47.0</ele><time>2026-04-30T13:27:23.993Z</time></trkpt><trkpt lat="39.48602275338386" lon="9.456268791650835"><ele>44.5</ele><time>2026-04-30T13:27:24.992Z</time></trkpt><trkpt lat="39.48601348443553" lon="9.455958180190772"><ele>42.0</ele><time>2026-04-30T13:27:25.993Z</time></trkpt><trkpt lat="39.48600529736584" lon="9.455649944792011"><ele>42.0</ele><time>2026-04-30T13:27:26.993Z</time></trkpt><trkpt lat="39.48600225658623" lon="9.45533537037598"><ele>42.0</ele><time>2026-04-30T13:27:27.993Z</time></trkpt><trkpt lat="39.48599631678347" lon="9.455032269629049"><ele>42.0</ele><time>2026-04-30T13:27:28.993Z</time></trkpt><trkpt lat="39.48599191267612" lon="9.454731974505465"><ele>42.0</ele><time>2026-04-30T13:27:29.993Z</time></trkpt><trkpt lat="39.48599272122432" lon="9.454435005248982"><ele>41.5</ele><time>2026-04-30T13:27:30.993Z</time></trkpt><trkpt lat="39.48602396224555" lon="9.454149914661572"><ele>41.0</ele><time>2026-04-30T13:27:31.993Z</time></trkpt><trkpt lat="39.4860991712896" lon="9.453865588994175"><ele>41.0</ele><time>2026-04-30T13:27:32.993Z</time></trkpt><trkpt lat="39.48619644249529" lon="9.45361212337877"><ele>41.0</ele><time>2026-04-30T13:27:33.993Z</time></trkpt><trkpt lat="39.48632709885503" lon="9.45338051848298"><ele>41.0</ele><time>2026-04-30T13:27:34.993Z</time></trkpt><trkpt lat="39.48648658198588" lon="9.4531865825422"><ele>41.0</ele><time>2026-04-30T13:27:35.993Z</time></trkpt><trkpt lat="39.486669607841584" lon="9.453026323175319"><ele>41.0</ele><time>2026-04-30T13:27:36.993Z</time></trkpt><trkpt lat="39.48686639479472" lon="9.452888478757087"><ele>41.0</ele><time>2026-04-30T13:27:37.993Z</time></trkpt><trkpt lat="39.48707358553237" lon="9.452783225746636"><ele>45.5</ele><time>2026-04-30T13:27:38.993Z</time></trkpt><trkpt lat="39.48730101951564" lon="9.452745844706602"><ele>50.0</ele><time>2026-04-30T13:27:39.993Z</time></trkpt><trkpt lat="39.48753164304999" lon="9.452764625077553"><ele>50.0</ele><time>2026-04-30T13:27:40.993Z</time></trkpt><trkpt lat="39.4877539445076" lon="9.45280115953742"><ele>50.0</ele><time>2026-04-30T13:27:41.993Z</time></trkpt><trkpt lat="39.48797566127275" lon="9.452834783502595"><ele>50.0</ele><time>2026-04-30T13:27:42.993Z</time></trkpt><trkpt lat="39.48818273977576" lon="9.45286220783549"><ele>50.333333333333336</ele><time>2026-04-30T13:27:43.993Z</time></trkpt><trkpt lat="39.4883871982905" lon="9.45288152524675"><ele>50.66666666666667</ele><time>2026-04-30T13:27:44.993Z</time></trkpt><trkpt lat="39.4885982923227" lon="9.452900456441798"><ele>51.0</ele><time>2026-04-30T13:27:45.993Z</time></trkpt><trkpt lat="39.488839972684715" lon="9.452915985816063"><ele>51.0</ele><time>2026-04-30T13:27:46.993Z</time></trkpt><trkpt lat="39.489105964205656" lon="9.452938700930648"><ele>51.0</ele><time>2026-04-30T13:27:47.993Z</time></trkpt><trkpt lat="39.48931974915414" lon="9.452928412069083"><ele>51.0</ele><time>2026-04-30T13:27:48.993Z</time></trkpt><trkpt lat="39.48954259888756" lon="9.452916919776934"><ele>51.0</ele><time>2026-04-30T13:27:49.993Z</time></trkpt><trkpt lat="39.4897776349941" lon="9.452887592462623"><ele>50.5</ele><time>2026-04-30T13:27:50.993Z</time></trkpt><trkpt lat="39.490021803822266" lon="9.452842459766499"><ele>50.0</ele><time>2026-04-30T13:27:51.993Z</time></trkpt><trkpt lat="39.49026656963113" lon="9.4528355588191"><ele>47.0</ele><time>2026-04-30T13:27:52.993Z</time></trkpt><trkpt lat="39.490477842651075" lon="9.452526864618774"><ele>44.0</ele><time>2026-04-30T13:27:53.993Z</time></trkpt><trkpt lat="39.49070830945733" lon="9.452444423096763"><ele>44.0</ele><time>2026-04-30T13:27:54.993Z</time></trkpt><trkpt lat="39.49093794424623" lon="9.452357239313947"><ele>44.0</ele><time>2026-04-30T13:27:55.993Z</time></trkpt><trkpt lat="39.49117285600174" lon="9.452279813404193"><ele>42.5</ele><time>2026-04-30T13:27:56.993Z</time></trkpt><trkpt lat="39.491408981234066" lon="9.452221176583448"><ele>41.0</ele><time>2026-04-30T13:27:57.993Z</time></trkpt><trkpt lat="39.49165158548257" lon="9.452175806717364"><ele>41.0</ele><time>2026-04-30T13:27:58.993Z</time></trkpt><trkpt lat="39.4918989861285" lon="9.452143079908819"><ele>41.0</ele><time>2026-04-30T13:27:59.993Z</time></trkpt><trkpt lat="39.492148495264026" lon="9.452122942793142"><ele>54.0</ele><time>2026-04-30T13:28:00.993Z</time></trkpt><trkpt lat="39.492388820104956" lon="9.452098129429354"><ele>67.0</ele><time>2026-04-30T13:28:01.993Z</time></trkpt><trkpt lat="39.49262042444285" lon="9.452069872326895"><ele>67.0</ele><time>2026-04-30T13:28:02.993Z</time></trkpt><trkpt lat="39.49285160707115" lon="9.452043011353291"><ele>67.0</ele><time>2026-04-30T13:28:03.993Z</time></trkpt><trkpt lat="39.493079919808736" lon="9.451998557522824"><ele>59.5</ele><time>2026-04-30T13:28:04.993Z</time></trkpt><trkpt lat="39.493309742577765" lon="9.451960126996667"><ele>52.0</ele><time>2026-04-30T13:28:05.993Z</time></trkpt><trkpt lat="39.493533985997246" lon="9.451907078178836"><ele>52.0</ele><time>2026-04-30T13:28:06.993Z</time></trkpt><trkpt lat="39.49374872115979" lon="9.451843496406196"><ele>52.0</ele><time>2026-04-30T13:28:07.993Z</time></trkpt><trkpt lat="39.49396468031384" lon="9.4517705314121"><ele>52.0</ele><time>2026-04-30T13:28:08.993Z</time></trkpt><trkpt lat="39.49418168509247" lon="9.451694246856139"><ele>50.0</ele><time>2026-04-30T13:28:09.993Z</time></trkpt><trkpt lat="39.49440025634517" lon="9.451617140522622"><ele>48.0</ele><time>2026-04-30T13:28:10.993Z</time></trkpt><trkpt lat="39.494625269018556" lon="9.451559577769743"><ele>48.0</ele><time>2026-04-30T13:28:11.993Z</time></trkpt><trkpt lat="39.49485578012522" lon="9.451533442438702"><ele>48.0</ele><time>2026-04-30T13:28:12.993Z</time></trkpt><trkpt lat="39.49508775203521" lon="9.451528685908919"><ele>48.0</ele><time>2026-04-30T13:28:13.993Z</time></trkpt><trkpt lat="39.49532356508673" lon="9.45154594164444"><ele>48.0</ele><time>2026-04-30T13:28:14.993Z</time></trkpt><trkpt lat="39.495551988780235" lon="9.451614216362309"><ele>48.5</ele><time>2026-04-30T13:28:15.992Z</time></trkpt><trkpt lat="39.49577682635149" lon="9.451662193341114"><ele>49.0</ele><time>2026-04-30T13:28:16.992Z</time></trkpt><trkpt lat="39.49601268980936" lon="9.451713852499115"><ele>49.0</ele><time>2026-04-30T13:28:17.992Z</time></trkpt><trkpt lat="39.496242164015875" lon="9.451798258712747"><ele>49.0</ele><time>2026-04-30T13:28:18.992Z</time></trkpt><trkpt lat="39.496457825283656" lon="9.45188161674299"><ele>52.0</ele><time>2026-04-30T13:28:19.992Z</time></trkpt><trkpt lat="39.49664467320572" lon="9.451946785131195"><ele>55.0</ele><time>2026-04-30T13:28:20.992Z</time></trkpt><trkpt lat="39.49681731707" lon="9.452002339670198"><ele>58.0</ele><time>2026-04-30T13:28:21.992Z</time></trkpt><trkpt lat="39.49701749416513" lon="9.452056658409006"><ele>60.666666666666664</ele><time>2026-04-30T13:28:22.992Z</time></trkpt><trkpt lat="39.497234051093486" lon="9.45208392632607"><ele>63.33333333333333</ele><time>2026-04-30T13:28:23.992Z</time></trkpt><trkpt lat="39.4974576924776" lon="9.452107744435482"><ele>66.0</ele><time>2026-04-30T13:28:24.992Z</time></trkpt><trkpt lat="39.49769008812458" lon="9.452138672287274"><ele>59.0</ele><time>2026-04-30T13:28:25.992Z</time></trkpt><trkpt lat="39.49792374653215" lon="9.452160595225072"><ele>52.0</ele><time>2026-04-30T13:28:26.992Z</time></trkpt><trkpt lat="39.49816261788124" lon="9.452179455768368"><ele>52.0</ele><time>2026-04-30T13:28:27.992Z</time></trkpt><trkpt lat="39.498409318317904" lon="9.452187398661337"><ele>52.0</ele><time>2026-04-30T13:28:28.992Z</time></trkpt><trkpt lat="39.49865723266881" lon="9.452189251827354"><ele>54.5</ele><time>2026-04-30T13:28:29.992Z</time></trkpt><trkpt lat="39.498904024091864" lon="9.452179506344878"><ele>57.0</ele><time>2026-04-30T13:28:30.992Z</time></trkpt><trkpt lat="39.49915126226193" lon="9.452145828394858"><ele>62.5</ele><time>2026-04-30T13:28:31.992Z</time></trkpt><trkpt lat="39.49939513139997" lon="9.452090447922588"><ele>68.0</ele><time>2026-04-30T13:28:32.992Z</time></trkpt><trkpt lat="39.49963194421276" lon="9.452005769683772"><ele>68.0</ele><time>2026-04-30T13:28:33.992Z</time></trkpt><trkpt lat="39.49986800611389" lon="9.451894070226063"><ele>68.0</ele><time>2026-04-30T13:28:34.992Z</time></trkpt><trkpt lat="39.50009467996417" lon="9.451763050471184"><ele>68.0</ele><time>2026-04-30T13:28:35.992Z</time></trkpt><trkpt lat="39.50031637667886" lon="9.451604248594938"><ele>68.0</ele><time>2026-04-30T13:28:36.992Z</time></trkpt><trkpt lat="39.50052352619387" lon="9.45142698866794"><ele>71.0</ele><time>2026-04-30T13:28:37.992Z</time></trkpt><trkpt lat="39.50071390679978" lon="9.451221445965489"><ele>74.0</ele><time>2026-04-30T13:28:38.992Z</time></trkpt><trkpt lat="39.50089610584851" lon="9.451001800283878"><ele>74.0</ele><time>2026-04-30T13:28:39.992Z</time></trkpt><trkpt lat="39.50107015871146" lon="9.450770924975659"><ele>74.0</ele><time>2026-04-30T13:28:40.992Z</time></trkpt><trkpt lat="39.50122720534022" lon="9.450520900532183"><ele>68.5</ele><time>2026-04-30T13:28:41.992Z</time></trkpt><trkpt lat="39.50136845513852" lon="9.450251709304485"><ele>63.0</ele><time>2026-04-30T13:28:42.992Z</time></trkpt><trkpt lat="39.50148787358792" lon="9.449972921630064"><ele>63.0</ele><time>2026-04-30T13:28:43.992Z</time></trkpt><trkpt lat="39.501594324330085" lon="9.449676962523023"><ele>63.0</ele><time>2026-04-30T13:28:44.992Z</time></trkpt><trkpt lat="39.50168398421402" lon="9.449382632040663"><ele>68.0</ele><time>2026-04-30T13:28:45.992Z</time></trkpt><trkpt lat="39.50175320227839" lon="9.449075925557688"><ele>73.0</ele><time>2026-04-30T13:28:46.992Z</time></trkpt><trkpt lat="39.50179656062264" lon="9.44877711910516"><ele>79.5</ele><time>2026-04-30T13:28:47.992Z</time></trkpt><trkpt lat="39.501824774212324" lon="9.4484730074371"><ele>86.0</ele><time>2026-04-30T13:28:48.992Z</time></trkpt><trkpt lat="39.501854166095285" lon="9.448170303664424"><ele>87.5</ele><time>2026-04-30T13:28:49.992Z</time></trkpt><trkpt lat="39.50188857453302" lon="9.447871477132253"><ele>89.0</ele><time>2026-04-30T13:28:50.992Z</time></trkpt><trkpt lat="39.50192149237815" lon="9.447572500474957"><ele>89.0</ele><time>2026-04-30T13:28:51.992Z</time></trkpt><trkpt lat="39.50195578219375" lon="9.447272264447012"><ele>89.0</ele><time>2026-04-30T13:28:52.992Z</time></trkpt><trkpt lat="39.50199012714485" lon="9.446969899306799"><ele>92.0</ele><time>2026-04-30T13:28:53.992Z</time></trkpt><trkpt lat="39.50202250311295" lon="9.446663921131416"><ele>95.0</ele><time>2026-04-30T13:28:54.992Z</time></trkpt><trkpt lat="39.502055923199116" lon="9.446355924461017"><ele>83.5</ele><time>2026-04-30T13:28:55.992Z</time></trkpt><trkpt lat="39.50208920258207" lon="9.446043950975296"><ele>72.0</ele><time>2026-04-30T13:28:56.992Z</time></trkpt><trkpt lat="39.50212518124334" lon="9.445729524233517"><ele>73.5</ele><time>2026-04-30T13:28:57.992Z</time></trkpt><trkpt lat="39.50216495058109" lon="9.445411707322158"><ele>75.0</ele><time>2026-04-30T13:28:58.992Z</time></trkpt><trkpt lat="39.502204025533736" lon="9.445103689039163"><ele>75.0</ele><time>2026-04-30T13:28:59.992Z</time></trkpt><trkpt lat="39.50224559261373" lon="9.444795715056951"><ele>75.0</ele><time>2026-04-30T13:29:00.992Z</time></trkpt><trkpt lat="39.502274836693225" lon="9.444488085373388"><ele>78.5</ele><time>2026-04-30T13:29:01.992Z</time></trkpt><trkpt lat="39.50230352726476" lon="9.444181383862128"><ele>82.0</ele><time>2026-04-30T13:29:02.992Z</time></trkpt><trkpt lat="39.50234029157235" lon="9.443880391025726"><ele>83.0</ele><time>2026-04-30T13:29:03.992Z</time></trkpt><trkpt lat="39.50237483606191" lon="9.443589299251093"><ele>84.0</ele><time>2026-04-30T13:29:04.992Z</time></trkpt><trkpt lat="39.502408445508856" lon="9.443291867593835"><ele>84.0</ele><time>2026-04-30T13:29:05.992Z</time></trkpt><trkpt lat="39.50243932893479" lon="9.442987087440674"><ele>84.0</ele><time>2026-04-30T13:29:06.992Z</time></trkpt><trkpt lat="39.502474034187635" lon="9.442681258995332"><ele>85.0</ele><time>2026-04-30T13:29:07.992Z</time></trkpt><trkpt lat="39.50250566118759" lon="9.442370555096478"><ele>86.0</ele><time>2026-04-30T13:29:08.992Z</time></trkpt><trkpt lat="39.502539771532554" lon="9.442063089346"><ele>89.5</ele><time>2026-04-30T13:29:09.992Z</time></trkpt><trkpt lat="39.50257529678886" lon="9.441754899528807"><ele>93.0</ele><time>2026-04-30T13:29:10.992Z</time></trkpt><trkpt lat="39.50261304383841" lon="9.44145174047086"><ele>94.0</ele><time>2026-04-30T13:29:11.992Z</time></trkpt><trkpt lat="39.5026526831356" lon="9.441150068357537"><ele>95.0</ele><time>2026-04-30T13:29:12.992Z</time></trkpt><trkpt lat="39.50269965603975" lon="9.440835297093416"><ele>95.0</ele><time>2026-04-30T13:29:13.992Z</time></trkpt><trkpt lat="39.50273823519694" lon="9.44053731066187"><ele>95.0</ele><time>2026-04-30T13:29:14.992Z</time></trkpt><trkpt lat="39.50278515991697" lon="9.440232828941841"><ele>94.5</ele><time>2026-04-30T13:29:15.992Z</time></trkpt><trkpt lat="39.502849554716995" lon="9.439932288014319"><ele>94.0</ele><time>2026-04-30T13:29:16.992Z</time></trkpt><trkpt lat="39.50289573635985" lon="9.439630541370313"><ele>89.0</ele><time>2026-04-30T13:29:17.992Z</time></trkpt><trkpt lat="39.50295089098513" lon="9.439328153334694"><ele>84.0</ele><time>2026-04-30T13:29:18.993Z</time></trkpt><trkpt lat="39.50301623197663" lon="9.439025579835663"><ele>93.0</ele><time>2026-04-30T13:29:19.993Z</time></trkpt><trkpt lat="39.50308424434396" lon="9.43872144021011"><ele>102.0</ele><time>2026-04-30T13:29:20.993Z</time></trkpt><trkpt lat="39.50314985254707" lon="9.43842473565629"><ele>102.0</ele><time>2026-04-30T13:29:21.992Z</time></trkpt><trkpt lat="39.50321822788702" lon="9.438125721327994"><ele>102.0</ele><time>2026-04-30T13:29:22.992Z</time></trkpt><trkpt lat="39.50329081023571" lon="9.437822420480263"><ele>106.5</ele><time>2026-04-30T13:29:23.992Z</time></trkpt><trkpt lat="39.503360396758374" lon="9.437521026816968"><ele>111.0</ele><time>2026-04-30T13:29:24.993Z</time></trkpt><trkpt lat="39.50342918012678" lon="9.4372166481703"><ele>102.0</ele><time>2026-04-30T13:29:25.992Z</time></trkpt><trkpt lat="39.50350828453308" lon="9.436919031847674"><ele>93.0</ele><time>2026-04-30T13:29:26.992Z</time></trkpt><trkpt lat="39.50359126558004" lon="9.436610764981172"><ele>93.0</ele><time>2026-04-30T13:29:27.993Z</time></trkpt><trkpt lat="39.50344941150147" lon="9.43636342814857"><ele>93.0</ele><time>2026-04-30T13:29:28.992Z</time></trkpt><trkpt lat="39.50325156793568" lon="9.436040256661283"><ele>85.0</ele><time>2026-04-30T13:29:29.992Z</time></trkpt><trkpt lat="39.50319019998277" lon="9.435758121480577"><ele>77.0</ele><time>2026-04-30T13:29:30.993Z</time></trkpt><trkpt lat="39.50313610634807" lon="9.43546743115527"><ele>75.0</ele><time>2026-04-30T13:29:31.993Z</time></trkpt><trkpt lat="39.5031022243946" lon="9.435171358961032"><ele>73.0</ele><time>2026-04-30T13:29:32.993Z</time></trkpt><trkpt lat="39.503107413208966" lon="9.434860970841196"><ele>75.0</ele><time>2026-04-30T13:29:33.993Z</time></trkpt><trkpt lat="39.50314664391778" lon="9.434561355165274"><ele>77.0</ele><time>2026-04-30T13:29:34.993Z</time></trkpt><trkpt lat="39.50321654648845" lon="9.434263194666107"><ele>77.0</ele><time>2026-04-30T13:29:35.993Z</time></trkpt><trkpt lat="39.50330055676519" lon="9.433967398798199"><ele>77.0</ele><time>2026-04-30T13:29:36.993Z</time></trkpt><trkpt lat="39.503393837010655" lon="9.433678171546095"><ele>82.0</ele><time>2026-04-30T13:29:37.993Z</time></trkpt><trkpt lat="39.50348810150065" lon="9.433381638912563"><ele>87.0</ele><time>2026-04-30T13:29:38.993Z</time></trkpt><trkpt lat="39.503570087610086" lon="9.433085771733696"><ele>91.0</ele><time>2026-04-30T13:29:39.993Z</time></trkpt><trkpt lat="39.50364473233389" lon="9.432783984748278"><ele>95.0</ele><time>2026-04-30T13:29:40.993Z</time></trkpt><trkpt lat="39.50370361096248" lon="9.432476462599652"><ele>95.0</ele><time>2026-04-30T13:29:41.993Z</time></trkpt><trkpt lat="39.50373371499415" lon="9.432164811801108"><ele>95.0</ele><time>2026-04-30T13:29:42.992Z</time></trkpt><trkpt lat="39.50373318483474" lon="9.431843217017281"><ele>92.5</ele><time>2026-04-30T13:29:43.992Z</time></trkpt><trkpt lat="39.503709275200684" lon="9.431519122963609"><ele>90.0</ele><time>2026-04-30T13:29:44.992Z</time></trkpt><trkpt lat="39.50367324049124" lon="9.431204538890327"><ele>84.0</ele><time>2026-04-30T13:29:45.992Z</time></trkpt><trkpt lat="39.50364600432277" lon="9.430875967590808"><ele>78.0</ele><time>2026-04-30T13:29:46.992Z</time></trkpt><trkpt lat="39.503619544071704" lon="9.43055911554627"><ele>76.5</ele><time>2026-04-30T13:29:47.992Z</time></trkpt><trkpt lat="39.50359059893168" lon="9.430237988554483"><ele>75.0</ele><time>2026-04-30T13:29:48.992Z</time></trkpt><trkpt lat="39.50356502396299" lon="9.429907262893943"><ele>77.5</ele><time>2026-04-30T13:29:49.992Z</time></trkpt><trkpt lat="39.50354228321743" lon="9.429576079128543"><ele>80.0</ele><time>2026-04-30T13:29:50.992Z</time></trkpt><trkpt lat="39.503518831601674" lon="9.4292511390338"><ele>80.0</ele><time>2026-04-30T13:29:51.992Z</time></trkpt><trkpt lat="39.50349596038627" lon="9.428924339249399"><ele>80.0</ele><time>2026-04-30T13:29:52.992Z</time></trkpt><trkpt lat="39.503486630327444" lon="9.428602226152416"><ele>83.5</ele><time>2026-04-30T13:29:53.992Z</time></trkpt><trkpt lat="39.50348334716388" lon="9.42827337368924"><ele>87.0</ele><time>2026-04-30T13:29:54.992Z</time></trkpt><trkpt lat="39.503494513925915" lon="9.42795970911516"><ele>87.5</ele><time>2026-04-30T13:29:55.992Z</time></trkpt><trkpt lat="39.50352255113943" lon="9.42764743785519"><ele>88.0</ele><time>2026-04-30T13:29:56.992Z</time></trkpt><trkpt lat="39.503580113010784" lon="9.427346844885959"><ele>85.0</ele><time>2026-04-30T13:29:57.992Z</time></trkpt><trkpt lat="39.50365545386821" lon="9.427043721505411"><ele>82.0</ele><time>2026-04-30T13:29:58.992Z</time></trkpt><trkpt lat="39.50377682765237" lon="9.426743755126408"><ele>74.0</ele><time>2026-04-30T13:29:59.992Z</time></trkpt><trkpt lat="39.50390310893958" lon="9.42645534845696"><ele>66.0</ele><time>2026-04-30T13:30:00.992Z</time></trkpt><trkpt lat="39.5040307489457" lon="9.426173455322603"><ele>65.0</ele><time>2026-04-30T13:30:01.992Z</time></trkpt><trkpt lat="39.504157569268074" lon="9.425889687138463"><ele>64.0</ele><time>2026-04-30T13:30:02.992Z</time></trkpt><trkpt lat="39.504279658301535" lon="9.425603182809132"><ele>62.0</ele><time>2026-04-30T13:30:03.992Z</time></trkpt><trkpt lat="39.50440384292205" lon="9.42531280297974"><ele>60.0</ele><time>2026-04-30T13:30:04.992Z</time></trkpt><trkpt lat="39.504526527361485" lon="9.425029821997802"><ele>61.0</ele><time>2026-04-30T13:30:05.992Z</time></trkpt><trkpt lat="39.50464737385601" lon="9.424744318781428"><ele>62.0</ele><time>2026-04-30T13:30:06.992Z</time></trkpt><trkpt lat="39.504766278914914" lon="9.42445606426701"><ele>71.0</ele><time>2026-04-30T13:30:07.992Z</time></trkpt><trkpt lat="39.504888930706706" lon="9.424177008626481"><ele>80.0</ele><time>2026-04-30T13:30:08.992Z</time></trkpt><trkpt lat="39.505011349357034" lon="9.423895356685703"><ele>88.0</ele><time>2026-04-30T13:30:09.992Z</time></trkpt><trkpt lat="39.505133276253105" lon="9.423613779322702"><ele>96.0</ele><time>2026-04-30T13:30:10.992Z</time></trkpt><trkpt lat="39.50524716602338" lon="9.423332513569278"><ele>96.0</ele><time>2026-04-30T13:30:11.992Z</time></trkpt><trkpt lat="39.50536138769268" lon="9.42304855737726"><ele>96.0</ele><time>2026-04-30T13:30:12.992Z</time></trkpt><trkpt lat="39.505478403542426" lon="9.422764473010222"><ele>83.5</ele><time>2026-04-30T13:30:13.992Z</time></trkpt><trkpt lat="39.50559305427683" lon="9.422478802793325"><ele>71.0</ele><time>2026-04-30T13:30:14.992Z</time></trkpt><trkpt lat="39.50570565252577" lon="9.422190864423063"><ele>73.0</ele><time>2026-04-30T13:30:15.992Z</time></trkpt><trkpt lat="39.505806276464554" lon="9.421874169210659"><ele>75.0</ele><time>2026-04-30T13:30:16.992Z</time></trkpt><trkpt lat="39.505866174015246" lon="9.421567706777438"><ele>85.5</ele><time>2026-04-30T13:30:17.992Z</time></trkpt><trkpt lat="39.50597131160984" lon="9.421269588565703"><ele>96.0</ele><time>2026-04-30T13:30:18.992Z</time></trkpt><trkpt lat="39.50607684463587" lon="9.420975338910376"><ele>96.0</ele><time>2026-04-30T13:30:19.992Z</time></trkpt><trkpt lat="39.506179972204166" lon="9.420684613808954"><ele>96.0</ele><time>2026-04-30T13:30:20.992Z</time></trkpt><trkpt lat="39.50629031565495" lon="9.420382761894514"><ele>83.5</ele><time>2026-04-30T13:30:21.992Z</time></trkpt><trkpt lat="39.506418731653625" lon="9.420094075050324"><ele>71.0</ele><time>2026-04-30T13:30:22.992Z</time></trkpt><trkpt lat="39.506551660421444" lon="9.419813955755119"><ele>79.0</ele><time>2026-04-30T13:30:23.992Z</time></trkpt><trkpt lat="39.50668476247895" lon="9.419540175429066"><ele>87.0</ele><time>2026-04-30T13:30:24.992Z</time></trkpt><trkpt lat="39.5068227354183" lon="9.419274047396067"><ele>87.0</ele><time>2026-04-30T13:30:25.992Z</time></trkpt><trkpt lat="39.50696410708356" lon="9.419037662895786"><ele>87.0</ele><time>2026-04-30T13:30:26.992Z</time></trkpt><trkpt lat="39.507102307079805" lon="9.418824054503334"><ele>87.0</ele><time>2026-04-30T13:30:27.992Z</time></trkpt><trkpt lat="39.507276788351604" lon="9.418637974166005"><ele>84.33333333333333</ele><time>2026-04-30T13:30:28.992Z</time></trkpt><trkpt lat="39.50747035807634" lon="9.418493198294641"><ele>81.66666666666666</ele><time>2026-04-30T13:30:29.992Z</time></trkpt><trkpt lat="39.50767693622276" lon="9.418379645872308"><ele>79.0</ele><time>2026-04-30T13:30:30.992Z</time></trkpt><trkpt lat="39.50788888415756" lon="9.418290495014364"><ele>77.33333333333333</ele><time>2026-04-30T13:30:31.992Z</time></trkpt><trkpt lat="39.50809751401229" lon="9.418207733623015"><ele>75.66666666666667</ele><time>2026-04-30T13:30:32.992Z</time></trkpt><trkpt lat="39.508278699164464" lon="9.418121926911276"><ele>74.0</ele><time>2026-04-30T13:30:33.992Z</time></trkpt><trkpt lat="39.50845878103326" lon="9.418035485487332"><ele>86.0</ele><time>2026-04-30T13:30:34.992Z</time></trkpt><trkpt lat="39.50865421456998" lon="9.417937444407698"><ele>98.0</ele><time>2026-04-30T13:30:35.992Z</time></trkpt><trkpt lat="39.508843040084855" lon="9.41781364542638"><ele>110.0</ele><time>2026-04-30T13:30:36.992Z</time></trkpt><trkpt lat="39.50902839358121" lon="9.417657310114032"><ele>110.33333333333333</ele><time>2026-04-30T13:30:37.992Z</time></trkpt><trkpt lat="39.509185360805155" lon="9.41748075740208"><ele>110.66666666666666</ele><time>2026-04-30T13:30:38.992Z</time></trkpt><trkpt lat="39.50933225471256" lon="9.417289258992016"><ele>111.0</ele><time>2026-04-30T13:30:39.992Z</time></trkpt><trkpt lat="39.50946966956154" lon="9.417081238311873"><ele>128.0</ele><time>2026-04-30T13:30:40.992Z</time></trkpt><trkpt lat="39.509607482801115" lon="9.416864531921343"><ele>145.0</ele><time>2026-04-30T13:30:41.992Z</time></trkpt><trkpt lat="39.50974668829689" lon="9.416635363917038"><ele>162.0</ele><time>2026-04-30T13:30:42.992Z</time></trkpt><trkpt lat="39.509897503687476" lon="9.416412495878658"><ele>86.0</ele><time>2026-04-30T13:30:43.992Z</time></trkpt><trkpt lat="39.51081447462947" lon="9.413765692275561"><ele>86.0</ele><time>2026-04-30T13:30:53.992Z</time></trkpt><trkpt lat="39.51084822686788" lon="9.413444977521026"><ele>86.0</ele><time>2026-04-30T13:30:54.992Z</time></trkpt><trkpt lat="39.51090652793113" lon="9.413171709851925"><ele>89.0</ele><time>2026-04-30T13:30:55.992Z</time></trkpt><trkpt lat="39.510972386402145" lon="9.412876698831518"><ele>92.0</ele><time>2026-04-30T13:30:56.992Z</time></trkpt><trkpt lat="39.51103121296951" lon="9.412582605995803"><ele>92.0</ele><time>2026-04-30T13:30:57.992Z</time></trkpt><trkpt lat="39.51108941851011" lon="9.412295183169292"><ele>92.0</ele><time>2026-04-30T13:30:58.992Z</time></trkpt><trkpt lat="39.51114354257728" lon="9.412002894312906"><ele>93.0</ele><time>2026-04-30T13:30:59.992Z</time></trkpt><trkpt lat="39.511195528673674" lon="9.411709402326798"><ele>94.0</ele><time>2026-04-30T13:31:00.992Z</time></trkpt><trkpt lat="39.51125018915848" lon="9.41141523955207"><ele>86.0</ele><time>2026-04-30T13:31:01.992Z</time></trkpt><trkpt lat="39.51130348229717" lon="9.411119609605155"><ele>78.0</ele><time>2026-04-30T13:31:02.992Z</time></trkpt><trkpt lat="39.51136256101277" lon="9.410829921538067"><ele>78.0</ele><time>2026-04-30T13:31:03.992Z</time></trkpt><trkpt lat="39.51143411252492" lon="9.410543309841122"><ele>78.0</ele><time>2026-04-30T13:31:04.992Z</time></trkpt><trkpt lat="39.511529721285996" lon="9.410262751529478"><ele>81.0</ele><time>2026-04-30T13:31:05.992Z</time></trkpt><trkpt lat="39.511650379573695" lon="9.410002799236265"><ele>84.0</ele><time>2026-04-30T13:31:06.992Z</time></trkpt><trkpt lat="39.51180684135632" lon="9.409770288116423"><ele>88.0</ele><time>2026-04-30T13:31:07.992Z</time></trkpt><trkpt lat="39.51199008841688" lon="9.409574768264228"><ele>92.0</ele><time>2026-04-30T13:31:08.992Z</time></trkpt><trkpt lat="39.512189920665854" lon="9.409407513136639"><ele>92.0</ele><time>2026-04-30T13:31:09.992Z</time></trkpt><trkpt lat="39.51240288361484" lon="9.409271350870162"><ele>92.0</ele><time>2026-04-30T13:31:10.992Z</time></trkpt><trkpt lat="39.51262567201416" lon="9.409156744650092"><ele>92.0</ele><time>2026-04-30T13:31:11.992Z</time></trkpt><trkpt lat="39.51284547468848" lon="9.409043760720332"><ele>92.0</ele><time>2026-04-30T13:31:12.992Z</time></trkpt><trkpt lat="39.513064114565445" lon="9.408928228008646"><ele>94.0</ele><time>2026-04-30T13:31:13.992Z</time></trkpt><trkpt lat="39.5132780887867" lon="9.408794828008299"><ele>96.0</ele><time>2026-04-30T13:31:14.992Z</time></trkpt><trkpt lat="39.51347762062227" lon="9.40864241870753"><ele>96.0</ele><time>2026-04-30T13:31:15.992Z</time></trkpt><trkpt lat="39.51368341154144" lon="9.408466875912165"><ele>96.0</ele><time>2026-04-30T13:31:16.991Z</time></trkpt><trkpt lat="39.5138667107189" lon="9.40826123604425"><ele>95.5</ele><time>2026-04-30T13:31:17.991Z</time></trkpt><trkpt lat="39.51404049701603" lon="9.408048439650674"><ele>95.0</ele><time>2026-04-30T13:31:18.991Z</time></trkpt><trkpt lat="39.514218270234394" lon="9.407827068081906"><ele>95.0</ele><time>2026-04-30T13:31:19.991Z</time></trkpt><trkpt lat="39.51440287258486" lon="9.407609545055395"><ele>95.0</ele><time>2026-04-30T13:31:20.991Z</time></trkpt><trkpt lat="39.51459588114122" lon="9.40741342947763"><ele>96.0</ele><time>2026-04-30T13:31:21.991Z</time></trkpt><trkpt lat="39.51479511285981" lon="9.407236414973953"><ele>97.0</ele><time>2026-04-30T13:31:22.991Z</time></trkpt><trkpt lat="39.51499846533762" lon="9.407072931895412"><ele>97.0</ele><time>2026-04-30T13:31:23.991Z</time></trkpt><trkpt lat="39.51520482235577" lon="9.40691563216496"><ele>97.0</ele><time>2026-04-30T13:31:24.992Z</time></trkpt><trkpt lat="39.51541679839541" lon="9.406761191658791"><ele>106.0</ele><time>2026-04-30T13:31:25.992Z</time></trkpt><trkpt lat="39.51562938489177" lon="9.406603183019229"><ele>115.0</ele><time>2026-04-30T13:31:26.992Z</time></trkpt><trkpt lat="39.51584353952565" lon="9.406442478283587"><ele>126.0</ele><time>2026-04-30T13:31:27.992Z</time></trkpt><trkpt lat="39.51604968744624" lon="9.406282470378311"><ele>137.0</ele><time>2026-04-30T13:31:28.992Z</time></trkpt><trkpt lat="39.516259890163646" lon="9.40612258633379"><ele>137.0</ele><time>2026-04-30T13:31:29.992Z</time></trkpt><trkpt lat="39.516474832074415" lon="9.405962791562578"><ele>137.0</ele><time>2026-04-30T13:31:30.993Z</time></trkpt><trkpt lat="39.516691241290914" lon="9.405799988982452"><ele>137.0</ele><time>2026-04-30T13:31:31.993Z</time></trkpt><trkpt lat="39.516934437160714" lon="9.40561552606145"><ele>137.0</ele><time>2026-04-30T13:31:33.134Z</time></trkpt><trkpt lat="39.51818790100867" lon="9.404734709560424"><ele>109.5</ele><time>2026-04-30T13:31:38.992Z</time></trkpt><trkpt lat="39.51838702545375" lon="9.404591177437164"><ele>82.0</ele><time>2026-04-30T13:31:39.992Z</time></trkpt><trkpt lat="39.518609928201236" lon="9.404451992246733"><ele>73.5</ele><time>2026-04-30T13:31:40.992Z</time></trkpt><trkpt lat="39.518825345724544" lon="9.404329605347515"><ele>65.0</ele><time>2026-04-30T13:31:41.992Z</time></trkpt><trkpt lat="39.51903675261618" lon="9.404218290631665"><ele>65.0</ele><time>2026-04-30T13:31:42.992Z</time></trkpt><trkpt lat="39.51925873558437" lon="9.404118917289493"><ele>65.0</ele><time>2026-04-30T13:31:43.992Z</time></trkpt><trkpt lat="39.519491537322324" lon="9.404032251144747"><ele>63.5</ele><time>2026-04-30T13:31:44.992Z</time></trkpt><trkpt lat="39.519727113244855" lon="9.403957964633495"><ele>62.0</ele><time>2026-04-30T13:31:45.992Z</time></trkpt><trkpt lat="39.51996356086143" lon="9.403896605856609"><ele>62.0</ele><time>2026-04-30T13:31:46.992Z</time></trkpt><trkpt lat="39.5202043776828" lon="9.403836025143622"><ele>62.0</ele><time>2026-04-30T13:31:47.992Z</time></trkpt><trkpt lat="39.520449138242505" lon="9.403789562890369"><ele>68.0</ele><time>2026-04-30T13:31:48.992Z</time></trkpt><trkpt lat="39.52069459854935" lon="9.403747904625796"><ele>74.0</ele><time>2026-04-30T13:31:49.992Z</time></trkpt><trkpt lat="39.5209350426941" lon="9.40371082837252"><ele>74.0</ele><time>2026-04-30T13:31:50.992Z</time></trkpt><trkpt lat="39.521157499900795" lon="9.403674571492246"><ele>74.0</ele><time>2026-04-30T13:31:51.992Z</time></trkpt><trkpt lat="39.521393314993894" lon="9.403628908963764"><ele>77.0</ele><time>2026-04-30T13:31:52.992Z</time></trkpt><trkpt lat="39.52163514564365" lon="9.40358151684841"><ele>80.0</ele><time>2026-04-30T13:31:53.992Z</time></trkpt><trkpt lat="39.52187505549791" lon="9.403531531868552"><ele>77.5</ele><time>2026-04-30T13:31:54.992Z</time></trkpt><trkpt lat="39.522123880713394" lon="9.403488933124198"><ele>75.0</ele><time>2026-04-30T13:31:55.992Z</time></trkpt><trkpt lat="39.52237178185177" lon="9.403446933447478"><ele>75.0</ele><time>2026-04-30T13:31:56.992Z</time></trkpt><trkpt lat="39.52262543526424" lon="9.40340380658134"><ele>75.0</ele><time>2026-04-30T13:31:57.992Z</time></trkpt><trkpt lat="39.52287342873805" lon="9.403357362760016"><ele>73.0</ele><time>2026-04-30T13:31:58.992Z</time></trkpt><trkpt lat="39.523113617689084" lon="9.403315662350405"><ele>71.0</ele><time>2026-04-30T13:31:59.992Z</time></trkpt><trkpt lat="39.523349950814776" lon="9.403276419337436"><ele>71.0</ele><time>2026-04-30T13:32:00.992Z</time></trkpt><trkpt lat="39.52358110565567" lon="9.403242818013316"><ele>71.0</ele><time>2026-04-30T13:32:01.992Z</time></trkpt><trkpt lat="39.52381074368676" lon="9.403213780361256"><ele>72.5</ele><time>2026-04-30T13:32:02.992Z</time></trkpt><trkpt lat="39.52403579328092" lon="9.403187472996567"><ele>74.0</ele><time>2026-04-30T13:32:03.992Z</time></trkpt><trkpt lat="39.52426460938325" lon="9.403168318459958"><ele>74.0</ele><time>2026-04-30T13:32:04.992Z</time></trkpt><trkpt lat="39.52449695153048" lon="9.403159681609157"><ele>74.0</ele><time>2026-04-30T13:32:05.992Z</time></trkpt><trkpt lat="39.52473141321013" lon="9.403162993283313"><ele>76.5</ele><time>2026-04-30T13:32:06.992Z</time></trkpt><trkpt lat="39.524963143023676" lon="9.403175535573174"><ele>79.0</ele><time>2026-04-30T13:32:07.992Z</time></trkpt><trkpt lat="39.52519169100725" lon="9.403192852391891"><ele>80.5</ele><time>2026-04-30T13:32:08.992Z</time></trkpt><trkpt lat="39.52542032454308" lon="9.403218772632894"><ele>82.0</ele><time>2026-04-30T13:32:09.992Z</time></trkpt><trkpt lat="39.52564672517663" lon="9.403257240654765"><ele>82.0</ele><time>2026-04-30T13:32:10.992Z</time></trkpt><trkpt lat="39.52586299783182" lon="9.403312943858172"><ele>82.0</ele><time>2026-04-30T13:32:11.992Z</time></trkpt><trkpt lat="39.526082522017624" lon="9.403368308010752"><ele>82.0</ele><time>2026-04-30T13:32:12.992Z</time></trkpt><trkpt lat="39.526301623086404" lon="9.403428400332492"><ele>84.0</ele><time>2026-04-30T13:32:13.992Z</time></trkpt><trkpt lat="39.52652563460938" lon="9.403479690736317"><ele>86.0</ele><time>2026-04-30T13:32:14.992Z</time></trkpt><trkpt lat="39.526750349719855" lon="9.403521392644102"><ele>86.0</ele><time>2026-04-30T13:32:15.992Z</time></trkpt><trkpt lat="39.52698071009799" lon="9.403575475051237"><ele>86.0</ele><time>2026-04-30T13:32:16.992Z</time></trkpt><trkpt lat="39.5272043268538" lon="9.403622510937245"><ele>87.0</ele><time>2026-04-30T13:32:17.992Z</time></trkpt><trkpt lat="39.52743661790784" lon="9.403671495006657"><ele>88.0</ele><time>2026-04-30T13:32:18.992Z</time></trkpt><trkpt lat="39.527669553407094" lon="9.403709252980915"><ele>89.5</ele><time>2026-04-30T13:32:19.992Z</time></trkpt><trkpt lat="39.52790497190124" lon="9.403740131043696"><ele>91.0</ele><time>2026-04-30T13:32:20.992Z</time></trkpt><trkpt lat="39.528139069135484" lon="9.403748289763827"><ele>91.0</ele><time>2026-04-30T13:32:21.992Z</time></trkpt><trkpt lat="39.52837482915175" lon="9.403748737682575"><ele>91.0</ele><time>2026-04-30T13:32:22.992Z</time></trkpt><trkpt lat="39.52860979474622" lon="9.403741072601273"><ele>94.5</ele><time>2026-04-30T13:32:23.992Z</time></trkpt><trkpt lat="39.5288465614551" lon="9.403723381034306"><ele>98.0</ele><time>2026-04-30T13:32:24.992Z</time></trkpt><trkpt lat="39.52907899210743" lon="9.403689813775534"><ele>98.0</ele><time>2026-04-30T13:32:25.992Z</time></trkpt><trkpt lat="39.529310510346555" lon="9.403639346080743"><ele>98.0</ele><time>2026-04-30T13:32:26.992Z</time></trkpt><trkpt lat="39.52953818982858" lon="9.403578019574939"><ele>93.5</ele><time>2026-04-30T13:32:27.992Z</time></trkpt><trkpt lat="39.52976779619826" lon="9.403500825371523"><ele>89.0</ele><time>2026-04-30T13:32:28.992Z</time></trkpt><trkpt lat="39.5299935326826" lon="9.403410726479041"><ele>89.0</ele><time>2026-04-30T13:32:29.992Z</time></trkpt><trkpt lat="39.53021787020486" lon="9.40331029207435"><ele>89.0</ele><time>2026-04-30T13:32:30.992Z</time></trkpt><trkpt lat="39.53043887792937" lon="9.40320098248484"><ele>79.5</ele><time>2026-04-30T13:32:31.992Z</time></trkpt><trkpt lat="39.53065009352743" lon="9.403076486388"><ele>70.0</ele><time>2026-04-30T13:32:32.992Z</time></trkpt><trkpt lat="39.530868032591435" lon="9.40293430123551"><ele>70.0</ele><time>2026-04-30T13:32:33.992Z</time></trkpt><trkpt lat="39.53107699067381" lon="9.40278332443003"><ele>70.0</ele><time>2026-04-30T13:32:34.992Z</time></trkpt><trkpt lat="39.53128052387882" lon="9.40261979085005"><ele>73.0</ele><time>2026-04-30T13:32:35.992Z</time></trkpt><trkpt lat="39.531476970429914" lon="9.402444145667355"><ele>76.0</ele><time>2026-04-30T13:32:36.992Z</time></trkpt><trkpt lat="39.531667018263136" lon="9.40225814357472"><ele>74.5</ele><time>2026-04-30T13:32:37.992Z</time></trkpt><trkpt lat="39.53184873399334" lon="9.402065021286816"><ele>73.0</ele><time>2026-04-30T13:32:38.992Z</time></trkpt><trkpt lat="39.53202590185606" lon="9.40186184952715"><ele>77.0</ele><time>2026-04-30T13:32:39.992Z</time></trkpt><trkpt lat="39.53219405445177" lon="9.401650746492013"><ele>81.0</ele><time>2026-04-30T13:32:40.992Z</time></trkpt><trkpt lat="39.532362688826225" lon="9.401431604621719"><ele>80.0</ele><time>2026-04-30T13:32:41.992Z</time></trkpt><trkpt lat="39.53252788324386" lon="9.401211968423373"><ele>79.0</ele><time>2026-04-30T13:32:42.992Z</time></trkpt><trkpt lat="39.53268781079739" lon="9.40098711589154"><ele>79.0</ele><time>2026-04-30T13:32:43.992Z</time></trkpt><trkpt lat="39.53284991177241" lon="9.400750590760877"><ele>79.0</ele><time>2026-04-30T13:32:44.992Z</time></trkpt><trkpt lat="39.5330026872692" lon="9.40052243524805"><ele>81.5</ele><time>2026-04-30T13:32:45.992Z</time></trkpt><trkpt lat="39.533164164105216" lon="9.400275796631579"><ele>84.0</ele><time>2026-04-30T13:32:46.992Z</time></trkpt><trkpt lat="39.533314741129466" lon="9.400037324261962"><ele>84.0</ele><time>2026-04-30T13:32:47.992Z</time></trkpt><trkpt lat="39.53347028858062" lon="9.39979140090988"><ele>84.0</ele><time>2026-04-30T13:32:48.992Z</time></trkpt><trkpt lat="39.53362265686656" lon="9.399562507499837"><ele>80.5</ele><time>2026-04-30T13:32:49.992Z</time></trkpt><trkpt lat="39.53377671505797" lon="9.399332196188675"><ele>77.0</ele><time>2026-04-30T13:32:50.992Z</time></trkpt><trkpt lat="39.533928695733046" lon="9.399105483020392"><ele>77.0</ele><time>2026-04-30T13:32:51.992Z</time></trkpt><trkpt lat="39.5340769175141" lon="9.398881463282729"><ele>77.0</ele><time>2026-04-30T13:32:52.992Z</time></trkpt><trkpt lat="39.534221683765814" lon="9.398657328847653"><ele>74.0</ele><time>2026-04-30T13:32:53.992Z</time></trkpt><trkpt lat="39.53436596746383" lon="9.398436504031693"><ele>71.0</ele><time>2026-04-30T13:32:54.992Z</time></trkpt><trkpt lat="39.53451252744153" lon="9.398214449755727"><ele>68.0</ele><time>2026-04-30T13:32:55.992Z</time></trkpt><trkpt lat="39.53466431283372" lon="9.397995995133071"><ele>68.0</ele><time>2026-04-30T13:32:56.992Z</time></trkpt><trkpt lat="39.534814161949974" lon="9.397774797870028"><ele>68.0</ele><time>2026-04-30T13:32:57.992Z</time></trkpt><trkpt lat="39.53496400283865" lon="9.397551345505459"><ele>68.0</ele><time>2026-04-30T13:32:58.992Z</time></trkpt><trkpt lat="39.53511264588312" lon="9.39732578142287"><ele>68.0</ele><time>2026-04-30T13:32:59.992Z</time></trkpt><trkpt lat="39.53526407440954" lon="9.39709544871932"><ele>72.0</ele><time>2026-04-30T13:33:00.992Z</time></trkpt><trkpt lat="39.535405478623865" lon="9.396874648085781"><ele>76.0</ele><time>2026-04-30T13:33:01.992Z</time></trkpt><trkpt lat="39.53554861847692" lon="9.396647846804449"><ele>80.0</ele><time>2026-04-30T13:33:02.992Z</time></trkpt><trkpt lat="39.53569749203739" lon="9.396420923861843"><ele>89.5</ele><time>2026-04-30T13:33:03.992Z</time></trkpt><trkpt lat="39.53584411966259" lon="9.396197093130649"><ele>99.0</ele><time>2026-04-30T13:33:04.992Z</time></trkpt><trkpt lat="39.53598818695611" lon="9.395975548359717"><ele>99.0</ele><time>2026-04-30T13:33:05.992Z</time></trkpt><trkpt lat="39.53613216037542" lon="9.395755253035883"><ele>99.0</ele><time>2026-04-30T13:33:06.992Z</time></trkpt><trkpt lat="39.53628001941677" lon="9.39554092747255"><ele>99.0</ele><time>2026-04-30T13:33:07.992Z</time></trkpt><trkpt lat="39.53643554537304" lon="9.395338623656126"><ele>105.66666666666666</ele><time>2026-04-30T13:33:08.992Z</time></trkpt><trkpt lat="39.53660325802883" lon="9.395153530379027"><ele>112.33333333333333</ele><time>2026-04-30T13:33:09.992Z</time></trkpt><trkpt lat="39.53678500384606" lon="9.394998015320667"><ele>119.0</ele><time>2026-04-30T13:33:10.992Z</time></trkpt><trkpt lat="39.536967064392314" lon="9.394849212413137"><ele>120.33333333333333</ele><time>2026-04-30T13:33:11.992Z</time></trkpt><trkpt lat="39.537148807087355" lon="9.394705429829843"><ele>121.66666666666666</ele><time>2026-04-30T13:33:12.991Z</time></trkpt><trkpt lat="39.53733724486942" lon="9.394551824232039"><ele>123.0</ele><time>2026-04-30T13:33:13.991Z</time></trkpt><trkpt lat="39.53752108207048" lon="9.394398662945692"><ele>123.0</ele><time>2026-04-30T13:33:14.991Z</time></trkpt><trkpt lat="39.53770561545913" lon="9.394241829398322"><ele>123.0</ele><time>2026-04-30T13:33:15.991Z</time></trkpt><trkpt lat="39.537887498407514" lon="9.39408508712532"><ele>123.0</ele><time>2026-04-30T13:33:16.991Z</time></trkpt><trkpt lat="39.53807382189542" lon="9.393923118421124"><ele>127.66666666666666</ele><time>2026-04-30T13:33:17.991Z</time></trkpt><trkpt lat="39.538249512223345" lon="9.39376117602289"><ele>132.33333333333331</ele><time>2026-04-30T13:33:18.991Z</time></trkpt><trkpt lat="39.53842405484086" lon="9.393586986139168"><ele>137.0</ele><time>2026-04-30T13:33:19.991Z</time></trkpt><trkpt lat="39.53858365708406" lon="9.393395985065416"><ele>137.0</ele><time>2026-04-30T13:33:20.991Z</time></trkpt><trkpt lat="39.538711201596854" lon="9.39318115522"><ele>137.0</ele><time>2026-04-30T13:33:21.991Z</time></trkpt><trkpt lat="39.5388215719961" lon="9.39292235071614"><ele>137.0</ele><time>2026-04-30T13:33:22.991Z</time></trkpt><trkpt lat="39.538882272476016" lon="9.392648969673004"><ele>131.0</ele><time>2026-04-30T13:33:23.991Z</time></trkpt><trkpt lat="39.538927311885786" lon="9.392355598310617"><ele>125.0</ele><time>2026-04-30T13:33:24.991Z</time></trkpt><trkpt lat="39.53896494609145" lon="9.392066022114886"><ele>125.0</ele><time>2026-04-30T13:33:25.991Z</time></trkpt><trkpt lat="39.53900499413329" lon="9.391779213611084"><ele>125.0</ele><time>2026-04-30T13:33:26.991Z</time></trkpt><trkpt lat="39.539048071986954" lon="9.39149522283498"><ele>125.0</ele><time>2026-04-30T13:33:27.991Z</time></trkpt><trkpt lat="39.53909016896316" lon="9.391217745585024"><ele>126.0</ele><time>2026-04-30T13:33:28.991Z</time></trkpt><trkpt lat="39.53913479692114" lon="9.390938948267669"><ele>127.0</ele><time>2026-04-30T13:33:29.991Z</time></trkpt><trkpt lat="39.53918538239346" lon="9.390658449973738"><ele>128.0</ele><time>2026-04-30T13:33:30.993Z</time></trkpt><trkpt lat="39.53923152182501" lon="9.390372048614292"><ele>130.0</ele><time>2026-04-30T13:33:31.992Z</time></trkpt><trkpt lat="39.53927811553478" lon="9.390089864116439"><ele>132.0</ele><time>2026-04-30T13:33:32.992Z</time></trkpt><trkpt lat="39.53932614125309" lon="9.389804556863568"><ele>134.0</ele><time>2026-04-30T13:33:33.993Z</time></trkpt><trkpt lat="39.539361321999095" lon="9.389519715313613"><ele>145.0</ele><time>2026-04-30T13:33:34.992Z</time></trkpt><trkpt lat="39.53940556235928" lon="9.389224749203295"><ele>156.0</ele><time>2026-04-30T13:33:35.992Z</time></trkpt><trkpt lat="39.53945815827327" lon="9.388938497005556"><ele>162.0</ele><time>2026-04-30T13:33:36.992Z</time></trkpt><trkpt lat="39.53949711748444" lon="9.388650666860332"><ele>168.0</ele><time>2026-04-30T13:33:37.992Z</time></trkpt><trkpt lat="39.53951077536712" lon="9.388353780764369"><ele>168.0</ele><time>2026-04-30T13:33:38.992Z</time></trkpt><trkpt lat="39.539533099556735" lon="9.388067461023077"><ele>168.0</ele><time>2026-04-30T13:33:39.992Z</time></trkpt><trkpt lat="39.53955368347249" lon="9.38780020039919"><ele>168.0</ele><time>2026-04-30T13:33:40.992Z</time></trkpt><trkpt lat="39.539571330737544" lon="9.387526914466463"><ele>172.0</ele><time>2026-04-30T13:33:41.992Z</time></trkpt><trkpt lat="39.539628291039236" lon="9.38725852348253"><ele>176.0</ele><time>2026-04-30T13:33:42.992Z</time></trkpt><trkpt lat="39.53948478823306" lon="9.386893646123939"><ele>176.0</ele><time>2026-04-30T13:33:43.991Z</time></trkpt><trkpt lat="39.539489543649246" lon="9.386602580549958"><ele>176.0</ele><time>2026-04-30T13:33:44.991Z</time></trkpt><trkpt lat="39.53949824670552" lon="9.386312257785892"><ele>176.0</ele><time>2026-04-30T13:33:45.991Z</time></trkpt><trkpt lat="39.53952118878083" lon="9.386017385337077"><ele>165.0</ele><time>2026-04-30T13:33:46.991Z</time></trkpt><trkpt lat="39.53956487600923" lon="9.385727220649777"><ele>154.0</ele><time>2026-04-30T13:33:47.991Z</time></trkpt><trkpt lat="39.539644206507454" lon="9.385450198167065"><ele>154.0</ele><time>2026-04-30T13:33:48.991Z</time></trkpt><trkpt lat="39.53975346591458" lon="9.385194715037938"><ele>154.0</ele><time>2026-04-30T13:33:49.991Z</time></trkpt><trkpt lat="39.539871211112136" lon="9.384951086121989"><ele>154.0</ele><time>2026-04-30T13:33:50.991Z</time></trkpt><trkpt lat="39.5399901291473" lon="9.384705698776866"><ele>163.0</ele><time>2026-04-30T13:33:51.991Z</time></trkpt><trkpt lat="39.540111655565056" lon="9.38444970318124"><ele>172.0</ele><time>2026-04-30T13:33:52.991Z</time></trkpt><trkpt lat="39.54022641055821" lon="9.384200600689518"><ele>172.0</ele><time>2026-04-30T13:33:53.991Z</time></trkpt><trkpt lat="39.54033534803797" lon="9.383960467938557"><ele>172.0</ele><time>2026-04-30T13:33:54.991Z</time></trkpt><trkpt lat="39.54042098143745" lon="9.383707792168329"><ele>172.0</ele><time>2026-04-30T13:33:55.991Z</time></trkpt><trkpt lat="39.54047619755547" lon="9.383449265148197"><ele>159.0</ele><time>2026-04-30T13:33:56.991Z</time></trkpt><trkpt lat="39.540438812355625" lon="9.383148647867023"><ele>146.0</ele><time>2026-04-30T13:33:57.991Z</time></trkpt><trkpt lat="39.540439560757676" lon="9.382870395273825"><ele>133.0</ele><time>2026-04-30T13:33:58.991Z</time></trkpt><trkpt lat="39.54045513327338" lon="9.382581910209355"><ele>133.0</ele><time>2026-04-30T13:33:59.991Z</time></trkpt><trkpt lat="39.540472452646114" lon="9.382296232243876"><ele>133.0</ele><time>2026-04-30T13:34:00.991Z</time></trkpt><trkpt lat="39.54048626522936" lon="9.382012397190842"><ele>133.0</ele><time>2026-04-30T13:34:01.991Z</time></trkpt><trkpt lat="39.54050163970958" lon="9.381724964276945"><ele>136.33333333333334</ele><time>2026-04-30T13:34:02.991Z</time></trkpt><trkpt lat="39.54050630206324" lon="9.381431363518947"><ele>139.66666666666666</ele><time>2026-04-30T13:34:03.991Z</time></trkpt><trkpt lat="39.54051991738713" lon="9.38114370954648"><ele>143.0</ele><time>2026-04-30T13:34:04.991Z</time></trkpt><trkpt lat="39.54057906850055" lon="9.380870224092956"><ele>146.66666666666666</ele><time>2026-04-30T13:34:05.991Z</time></trkpt><trkpt lat="39.54068602816142" lon="9.380620944187555"><ele>150.33333333333334</ele><time>2026-04-30T13:34:06.991Z</time></trkpt><trkpt lat="39.54083533553149" lon="9.380413068461122"><ele>154.0</ele><time>2026-04-30T13:34:07.991Z</time></trkpt><trkpt lat="39.54100337583786" lon="9.380231844904081"><ele>157.0</ele><time>2026-04-30T13:34:08.991Z</time></trkpt><trkpt lat="39.54119927839674" lon="9.380085068213882"><ele>160.0</ele><time>2026-04-30T13:34:09.991Z</time></trkpt><trkpt lat="39.54140439034865" lon="9.3799704906286"><ele>160.0</ele><time>2026-04-30T13:34:10.991Z</time></trkpt><trkpt lat="39.54160453554886" lon="9.379855330799494"><ele>160.0</ele><time>2026-04-30T13:34:11.991Z</time></trkpt><trkpt lat="39.54180371070768" lon="9.37971290851828"><ele>160.0</ele><time>2026-04-30T13:34:12.991Z</time></trkpt><trkpt lat="39.5419767964718" lon="9.379535155656603"><ele>156.5</ele><time>2026-04-30T13:34:13.991Z</time></trkpt><trkpt lat="39.542120615710104" lon="9.379315800213982"><ele>153.0</ele><time>2026-04-30T13:34:14.991Z</time></trkpt><trkpt lat="39.542245758695614" lon="9.379067692513178"><ele>152.5</ele><time>2026-04-30T13:34:15.991Z</time></trkpt><trkpt lat="39.54233170487955" lon="9.378797375061884"><ele>152.0</ele><time>2026-04-30T13:34:16.991Z</time></trkpt><trkpt lat="39.54236188616203" lon="9.378490137820444"><ele>152.0</ele><time>2026-04-30T13:34:17.991Z</time></trkpt><trkpt lat="39.5423474921675" lon="9.378193445723984"><ele>152.0</ele><time>2026-04-30T13:34:18.991Z</time></trkpt><trkpt lat="39.54230897138482" lon="9.377899275658416"><ele>153.0</ele><time>2026-04-30T13:34:19.991Z</time></trkpt><trkpt lat="39.54223166576958" lon="9.377628086428377"><ele>154.0</ele><time>2026-04-30T13:34:20.991Z</time></trkpt><trkpt lat="39.542124351224494" lon="9.377383769064261"><ele>155.0</ele><time>2026-04-30T13:34:21.991Z</time></trkpt><trkpt lat="39.54198270880698" lon="9.377166117561922"><ele>155.0</ele><time>2026-04-30T13:34:22.991Z</time></trkpt><trkpt lat="39.54182827254169" lon="9.376978055708632"><ele>155.0</ele><time>2026-04-30T13:34:23.991Z</time></trkpt><trkpt lat="39.541646066934085" lon="9.37681861007146"><ele>155.0</ele><time>2026-04-30T13:34:24.991Z</time></trkpt><trkpt lat="39.541443697196925" lon="9.376695574032324"><ele>155.0</ele><time>2026-04-30T13:34:25.991Z</time></trkpt><trkpt lat="39.5412343827847" lon="9.376600408939556"><ele>155.0</ele><time>2026-04-30T13:34:26.991Z</time></trkpt><trkpt lat="39.541036154841706" lon="9.376481776564015"><ele>155.0</ele><time>2026-04-30T13:34:27.991Z</time></trkpt><trkpt lat="39.54085062311832" lon="9.376327856380723"><ele>157.33333333333331</ele><time>2026-04-30T13:34:28.991Z</time></trkpt><trkpt lat="39.54069568426378" lon="9.376125462888112"><ele>159.66666666666666</ele><time>2026-04-30T13:34:29.991Z</time></trkpt><trkpt lat="39.54058212547391" lon="9.375892446869544"><ele>162.0</ele><time>2026-04-30T13:34:30.991Z</time></trkpt><trkpt lat="39.540499521295914" lon="9.375632953276106"><ele>159.33333333333334</ele><time>2026-04-30T13:34:31.991Z</time></trkpt><trkpt lat="39.540458385124474" lon="9.375357702213742"><ele>156.66666666666669</ele><time>2026-04-30T13:34:32.991Z</time></trkpt><trkpt lat="39.54046037594613" lon="9.375066304866527"><ele>154.0</ele><time>2026-04-30T13:34:33.991Z</time></trkpt><trkpt lat="39.540517495379746" lon="9.37478490107918"><ele>158.0</ele><time>2026-04-30T13:34:34.991Z</time></trkpt><trkpt lat="39.540604706065054" lon="9.374510522717365"><ele>162.0</ele><time>2026-04-30T13:34:35.991Z</time></trkpt><trkpt lat="39.54069593929226" lon="9.374241542281501"><ele>162.0</ele><time>2026-04-30T13:34:36.991Z</time></trkpt><trkpt lat="39.54077046093184" lon="9.373975419253995"><ele>162.0</ele><time>2026-04-30T13:34:37.991Z</time></trkpt><trkpt lat="39.54081706213001" lon="9.37369814429524"><ele>162.0</ele><time>2026-04-30T13:34:38.991Z</time></trkpt><trkpt lat="39.54082731069808" lon="9.37340847942147"><ele>163.0</ele><time>2026-04-30T13:34:39.991Z</time></trkpt><trkpt lat="39.54080372366072" lon="9.373120937541032"><ele>164.0</ele><time>2026-04-30T13:34:40.991Z</time></trkpt><trkpt lat="39.5407448368682" lon="9.372837733578946"><ele>165.0</ele><time>2026-04-30T13:34:41.991Z</time></trkpt><trkpt lat="39.54067593837404" lon="9.372557680669715"><ele>162.0</ele><time>2026-04-30T13:34:42.991Z</time></trkpt><trkpt lat="39.540616675848135" lon="9.3722751200293"><ele>159.0</ele><time>2026-04-30T13:34:43.991Z</time></trkpt><trkpt lat="39.54055738955364" lon="9.371987112100392"><ele>159.0</ele><time>2026-04-30T13:34:44.991Z</time></trkpt><trkpt lat="39.54050181865614" lon="9.371711091738417"><ele>159.0</ele><time>2026-04-30T13:34:45.991Z</time></trkpt><trkpt lat="39.54045361914495" lon="9.37142167060839"><ele>159.0</ele><time>2026-04-30T13:34:46.991Z</time></trkpt><trkpt lat="39.54040300121355" lon="9.37114226745618"><ele>168.0</ele><time>2026-04-30T13:34:47.991Z</time></trkpt><trkpt lat="39.54034943090522" lon="9.370872552388812"><ele>177.0</ele><time>2026-04-30T13:34:48.991Z</time></trkpt><trkpt lat="39.54029323786598" lon="9.370602105104863"><ele>186.0</ele><time>2026-04-30T13:34:49.991Z</time></trkpt><trkpt lat="39.54024725496329" lon="9.370345153747126"><ele>186.0</ele><time>2026-04-30T13:34:50.991Z</time></trkpt><trkpt lat="39.54021544554818" lon="9.370077132169284"><ele>186.0</ele><time>2026-04-30T13:34:51.991Z</time></trkpt><trkpt lat="39.54021273633831" lon="9.369791036004603"><ele>186.0</ele><time>2026-04-30T13:34:52.991Z</time></trkpt><trkpt lat="39.54027234168272" lon="9.369525408910675"><ele>187.0</ele><time>2026-04-30T13:34:53.991Z</time></trkpt><trkpt lat="39.540379767125664" lon="9.369275694976066"><ele>188.0</ele><time>2026-04-30T13:34:54.991Z</time></trkpt><trkpt lat="39.540516103435195" lon="9.3690420737699"><ele>189.0</ele><time>2026-04-30T13:34:55.991Z</time></trkpt><trkpt lat="39.540681476142474" lon="9.368849263722673"><ele>189.0</ele><time>2026-04-30T13:34:56.991Z</time></trkpt><trkpt lat="39.54087372541191" lon="9.36870479996416"><ele>189.0</ele><time>2026-04-30T13:34:57.991Z</time></trkpt><trkpt lat="39.54107564180963" lon="9.36859905863587"><ele>189.0</ele><time>2026-04-30T13:34:58.991Z</time></trkpt><trkpt lat="39.541299111656286" lon="9.368531929100724"><ele>179.0</ele><time>2026-04-30T13:34:59.991Z</time></trkpt><trkpt lat="39.54153563273384" lon="9.36850786402295"><ele>169.0</ele><time>2026-04-30T13:35:00.991Z</time></trkpt><trkpt lat="39.54176846174884" lon="9.368474002274342"><ele>169.0</ele><time>2026-04-30T13:35:01.991Z</time></trkpt><trkpt lat="39.541990533357705" lon="9.368414601264634"><ele>169.0</ele><time>2026-04-30T13:35:02.991Z</time></trkpt><trkpt lat="39.54220169387649" lon="9.368338902345124"><ele>169.0</ele><time>2026-04-30T13:35:03.991Z</time></trkpt><trkpt lat="39.54239987766811" lon="9.368203316763726"><ele>169.5</ele><time>2026-04-30T13:35:04.991Z</time></trkpt><trkpt lat="39.54258670443679" lon="9.36802016886898"><ele>170.0</ele><time>2026-04-30T13:35:05.991Z</time></trkpt><trkpt lat="39.54275663937642" lon="9.367801042928967"><ele>156.5</ele><time>2026-04-30T13:35:06.991Z</time></trkpt><trkpt lat="39.542888991876886" lon="9.367550057138285"><ele>143.0</ele><time>2026-04-30T13:35:07.991Z</time></trkpt><trkpt lat="39.54298156689468" lon="9.367274643679117"><ele>150.0</ele><time>2026-04-30T13:35:08.991Z</time></trkpt><trkpt lat="39.54303094630137" lon="9.366973427316921"><ele>157.0</ele><time>2026-04-30T13:35:09.991Z</time></trkpt><trkpt lat="39.54306336752736" lon="9.366667889829383"><ele>157.0</ele><time>2026-04-30T13:35:10.991Z</time></trkpt><trkpt lat="39.54309712994684" lon="9.36637432432753"><ele>157.0</ele><time>2026-04-30T13:35:11.991Z</time></trkpt><trkpt lat="39.54313949069254" lon="9.366075589827554"><ele>156.5</ele><time>2026-04-30T13:35:12.991Z</time></trkpt><trkpt lat="39.543187491699015" lon="9.36577692514515"><ele>156.0</ele><time>2026-04-30T13:35:13.991Z</time></trkpt><trkpt lat="39.543236532823194" lon="9.365478685417859"><ele>157.33333333333334</ele><time>2026-04-30T13:35:14.99Z</time></trkpt><trkpt lat="39.54328430888025" lon="9.36519368161451"><ele>158.66666666666669</ele><time>2026-04-30T13:35:15.99Z</time></trkpt><trkpt lat="39.543351077974805" lon="9.364923278756816"><ele>160.0</ele><time>2026-04-30T13:35:16.99Z</time></trkpt><trkpt lat="39.54344971686914" lon="9.364685335443486"><ele>157.66666666666669</ele><time>2026-04-30T13:35:17.99Z</time></trkpt><trkpt lat="39.54358527744424" lon="9.364470765327512"><ele>155.33333333333334</ele><time>2026-04-30T13:35:18.99Z</time></trkpt><trkpt lat="39.54375018643577" lon="9.36429358172806"><ele>153.0</ele><time>2026-04-30T13:35:19.99Z</time></trkpt><trkpt lat="39.54394274615933" lon="9.364162238315291"><ele>153.0</ele><time>2026-04-30T13:35:20.99Z</time></trkpt><trkpt lat="39.54414968850772" lon="9.364081217682216"><ele>153.0</ele><time>2026-04-30T13:35:21.99Z</time></trkpt><trkpt lat="39.54438373620885" lon="9.364071319632508"><ele>151.5</ele><time>2026-04-30T13:35:22.99Z</time></trkpt><trkpt lat="39.544616002517365" lon="9.364100213013025"><ele>150.0</ele><time>2026-04-30T13:35:23.99Z</time></trkpt><trkpt lat="39.5448394429508" lon="9.364177710235138"><ele>150.0</ele><time>2026-04-30T13:35:24.99Z</time></trkpt><trkpt lat="39.54505809590137" lon="9.364283459422305"><ele>150.0</ele><time>2026-04-30T13:35:25.99Z</time></trkpt><trkpt lat="39.54528079442019" lon="9.364358772691062"><ele>145.0</ele><time>2026-04-30T13:35:26.99Z</time></trkpt><trkpt lat="39.545485997270156" lon="9.36438101007167"><ele>140.0</ele><time>2026-04-30T13:35:27.99Z</time></trkpt><trkpt lat="39.54570475863862" lon="9.364337338300437"><ele>135.0</ele><time>2026-04-30T13:35:28.99Z</time></trkpt><trkpt lat="39.54590412462547" lon="9.36424428582842"><ele>135.0</ele><time>2026-04-30T13:35:29.99Z</time></trkpt><trkpt lat="39.54606989020259" lon="9.364104444757794"><ele>135.0</ele><time>2026-04-30T13:35:30.99Z</time></trkpt><trkpt lat="39.54622477413699" lon="9.363968125826718"><ele>135.0</ele><time>2026-04-30T13:35:31.99Z</time></trkpt><trkpt lat="39.5463490938288" lon="9.36386607704309"><ele>134.0</ele><time>2026-04-30T13:35:32.99Z</time></trkpt><trkpt lat="39.54645178086681" lon="9.363796412602971"><ele>133.0</ele><time>2026-04-30T13:35:33.99Z</time></trkpt><trkpt lat="39.54653610953576" lon="9.363751750450747"><ele>132.0</ele><time>2026-04-30T13:35:34.99Z</time></trkpt><trkpt lat="39.546604354869274" lon="9.363715062276238"><ele>131.0</ele><time>2026-04-30T13:35:35.99Z</time></trkpt><trkpt lat="39.546689539107" lon="9.363654930475978"><ele>130.0</ele><time>2026-04-30T13:35:37.992Z</time></trkpt><trkpt lat="39.54674696814162" lon="9.363612433506903"><ele>129.0</ele><time>2026-04-30T13:36:46.991Z</time></trkpt><trkpt lat="39.54684126116078" lon="9.363546656153686"><ele>129.0</ele><time>2026-04-30T13:36:48.991Z</time></trkpt><trkpt lat="39.546907843418374" lon="9.363496153349601"><ele>129.0</ele><time>2026-04-30T13:36:49.991Z</time></trkpt><trkpt lat="39.54697816160425" lon="9.363429632148787"><ele>129.0</ele><time>2026-04-30T13:36:50.991Z</time></trkpt><trkpt lat="39.54704364016157" lon="9.36334463478805"><ele>129.0</ele><time>2026-04-30T13:36:51.991Z</time></trkpt><trkpt lat="39.547098465734614" lon="9.363244876131459"><ele>129.0</ele><time>2026-04-30T13:36:52.991Z</time></trkpt><trkpt lat="39.54713806686376" lon="9.363129418191445"><ele>129.0</ele><time>2026-04-30T13:36:53.991Z</time></trkpt><trkpt lat="39.54716894811848" lon="9.36299991973488"><ele>125.6</ele><time>2026-04-30T13:36:54.991Z</time></trkpt><trkpt lat="39.5471982847166" lon="9.362866997657564"><ele>122.2</ele><time>2026-04-30T13:36:55.991Z</time></trkpt><trkpt lat="39.547231033597704" lon="9.362728540478109"><ele>118.79999999999998</ele><time>2026-04-30T13:36:56.991Z</time></trkpt><trkpt lat="39.54726028791188" lon="9.36258306599908"><ele>115.39999999999999</ele><time>2026-04-30T13:36:57.991Z</time></trkpt><trkpt lat="39.547286901736804" lon="9.362440471695303"><ele>112.0</ele><time>2026-04-30T13:36:58.991Z</time></trkpt><trkpt lat="39.547308063010995" lon="9.36229635489753"><ele>113.8</ele><time>2026-04-30T13:36:59.991Z</time></trkpt><trkpt lat="39.54732846086172" lon="9.362157894220534"><ele>115.6</ele><time>2026-04-30T13:37:00.991Z</time></trkpt><trkpt lat="39.54736020641519" lon="9.362032804668186"><ele>117.39999999999999</ele><time>2026-04-30T13:37:01.991Z</time></trkpt><trkpt lat="39.547413494258066" lon="9.36194929731389"><ele>119.19999999999999</ele><time>2026-04-30T13:37:02.991Z</time></trkpt><trkpt lat="39.547489783295866" lon="9.36190081227158"><ele>121.0</ele><time>2026-04-30T13:37:03.991Z</time></trkpt><trkpt lat="39.54756903876287" lon="9.361876684886118"><ele>121.0</ele><time>2026-04-30T13:37:04.991Z</time></trkpt><trkpt lat="39.54765692986048" lon="9.361864947350083"><ele>121.0</ele><time>2026-04-30T13:37:05.991Z</time></trkpt><trkpt lat="39.547748166509294" lon="9.361870441761367"><ele>121.0</ele><time>2026-04-30T13:37:06.991Z</time></trkpt><trkpt lat="39.547844613335386" lon="9.361888270009619"><ele>121.0</ele><time>2026-04-30T13:37:07.991Z</time></trkpt><trkpt lat="39.547952145172495" lon="9.361913266914808"><ele>121.0</ele><time>2026-04-30T13:37:08.991Z</time></trkpt><trkpt lat="39.54805515804185" lon="9.361945906104342"><ele>119.19999999999999</ele><time>2026-04-30T13:37:09.991Z</time></trkpt><trkpt lat="39.54815846510885" lon="9.36197884819825"><ele>117.39999999999999</ele><time>2026-04-30T13:37:10.991Z</time></trkpt><trkpt lat="39.54825590675204" lon="9.362006411622898"><ele>115.6</ele><time>2026-04-30T13:37:11.991Z</time></trkpt><trkpt lat="39.548347893889606" lon="9.362003493697518"><ele>113.8</ele><time>2026-04-30T13:37:12.991Z</time></trkpt><trkpt lat="39.548433553158574" lon="9.361965825736203"><ele>112.0</ele><time>2026-04-30T13:37:13.991Z</time></trkpt><trkpt lat="39.5485098357032" lon="9.361901192377204"><ele>112.0</ele><time>2026-04-30T13:37:14.991Z</time></trkpt><trkpt lat="39.548582431889365" lon="9.361802531251369"><ele>111.99999999999999</ele><time>2026-04-30T13:37:15.991Z</time></trkpt><trkpt lat="39.5486571300388" lon="9.361705984162374"><ele>111.99999999999999</ele><time>2026-04-30T13:37:16.991Z</time></trkpt><trkpt lat="39.54872740854942" lon="9.3615945279033"><ele>112.0</ele><time>2026-04-30T13:37:17.991Z</time></trkpt><trkpt lat="39.548785699930036" lon="9.361472565772173"><ele>112.0</ele><time>2026-04-30T13:37:18.99Z</time></trkpt><trkpt lat="39.548823242214894" lon="9.361333984961755"><ele>107.75</ele><time>2026-04-30T13:37:19.99Z</time></trkpt><trkpt lat="39.5488471378282" lon="9.361186433148562"><ele>103.5</ele><time>2026-04-30T13:37:20.99Z</time></trkpt><trkpt lat="39.548869334573496" lon="9.361029814861901"><ele>99.25</ele><time>2026-04-30T13:37:21.99Z</time></trkpt><trkpt lat="39.548893863426144" lon="9.360884666054481"><ele>95.0</ele><time>2026-04-30T13:37:22.99Z</time></trkpt><trkpt lat="39.54887534690196" lon="9.360740294979998"><ele>95.0</ele><time>2026-04-30T13:37:23.99Z</time></trkpt><trkpt lat="39.548828590111896" lon="9.360599814891836"><ele>95.0</ele><time>2026-04-30T13:37:24.99Z</time></trkpt><trkpt lat="39.548763675386475" lon="9.360482516795816"><ele>95.0</ele><time>2026-04-30T13:37:25.99Z</time></trkpt><trkpt lat="39.54869871680154" lon="9.360364367264705"><ele>95.0</ele><time>2026-04-30T13:37:26.99Z</time></trkpt><trkpt lat="39.548616613700716" lon="9.360280605767999"><ele>95.0</ele><time>2026-04-30T13:37:27.99Z</time></trkpt><trkpt lat="39.54852716653263" lon="9.360243619437055"><ele>95.4</ele><time>2026-04-30T13:37:28.99Z</time></trkpt><trkpt lat="39.54841926676502" lon="9.360236081341991"><ele>95.8</ele><time>2026-04-30T13:37:29.99Z</time></trkpt><trkpt lat="39.548315907343834" lon="9.360224640882558"><ele>96.19999999999999</ele><time>2026-04-30T13:37:30.99Z</time></trkpt><trkpt lat="39.54822684076144" lon="9.36019317236722"><ele>96.6</ele><time>2026-04-30T13:37:31.99Z</time></trkpt><trkpt lat="39.54814490586023" lon="9.360125029137999"><ele>97.0</ele><time>2026-04-30T13:37:32.99Z</time></trkpt><trkpt lat="39.54806791511658" lon="9.360038100785278"><ele>97.00000000000001</ele><time>2026-04-30T13:37:33.99Z</time></trkpt><trkpt lat="39.54798801739196" lon="9.359963744256717"><ele>97.0</ele><time>2026-04-30T13:37:34.99Z</time></trkpt><trkpt lat="39.547946157778355" lon="9.359884461712598"><ele>97.0</ele><time>2026-04-30T13:37:35.99Z</time></trkpt><trkpt lat="39.54794850735107" lon="9.35978000824332"><ele>97.0</ele><time>2026-04-30T13:37:36.99Z</time></trkpt><trkpt lat="39.54799445544995" lon="9.359662542386404"><ele>97.00000000000001</ele><time>2026-04-30T13:37:37.99Z</time></trkpt><trkpt lat="39.548054770995634" lon="9.359583218426087"><ele>97.0</ele><time>2026-04-30T13:37:38.99Z</time></trkpt><trkpt lat="39.54816586836608" lon="9.359544840947637"><ele>97.0</ele><time>2026-04-30T13:37:40.99Z</time></trkpt><trkpt lat="39.548272287739636" lon="9.359655207067831"><ele>97.0</ele><time>2026-04-30T13:37:42.992Z</time></trkpt><trkpt lat="39.54833053384115" lon="9.35971360674361"><ele>97.0</ele><time>2026-04-30T13:37:43.992Z</time></trkpt><trkpt lat="39.548392185699655" lon="9.359787693198777"><ele>97.0</ele><time>2026-04-30T13:37:44.992Z</time></trkpt><trkpt lat="39.54846331519891" lon="9.359863885465842"><ele>97.0</ele><time>2026-04-30T13:37:45.992Z</time></trkpt><trkpt lat="39.54853389178506" lon="9.35994314659886"><ele>97.0</ele><time>2026-04-30T13:37:46.991Z</time></trkpt><trkpt lat="39.54860766805408" lon="9.360024009959018"><ele>97.0</ele><time>2026-04-30T13:37:47.991Z</time></trkpt><trkpt lat="39.548686355475205" lon="9.360100551535023"><ele>97.0</ele><time>2026-04-30T13:37:48.992Z</time></trkpt><trkpt lat="39.548759966900356" lon="9.360182687651955"><ele>97.0</ele><time>2026-04-30T13:37:49.991Z</time></trkpt><trkpt lat="39.548836555490496" lon="9.360267845149862"><ele>97.0</ele><time>2026-04-30T13:37:50.991Z</time></trkpt><trkpt lat="39.54891652127316" lon="9.360353473753117"><ele>96.6</ele><time>2026-04-30T13:37:51.992Z</time></trkpt><trkpt lat="39.54900089449661" lon="9.360442249855684"><ele>96.19999999999999</ele><time>2026-04-30T13:37:52.992Z</time></trkpt><trkpt lat="39.54908359638271" lon="9.360536023071216"><ele>95.8</ele><time>2026-04-30T13:37:53.992Z</time></trkpt><trkpt lat="39.54916720074345" lon="9.360627338243114"><ele>95.4</ele><time>2026-04-30T13:37:54.991Z</time></trkpt><trkpt lat="39.549250595452456" lon="9.360724093103194"><ele>95.0</ele><time>2026-04-30T13:37:55.992Z</time></trkpt><trkpt lat="39.54931374863863" lon="9.360838072577696"><ele>95.0</ele><time>2026-04-30T13:37:56.992Z</time></trkpt><trkpt lat="39.549339090247585" lon="9.360973106716516"><ele>95.0</ele><time>2026-04-30T13:37:57.991Z</time></trkpt><trkpt lat="39.54935448527091" lon="9.361112345395545"><ele>95.0</ele><time>2026-04-30T13:37:58.991Z</time></trkpt><trkpt lat="39.54937049882821" lon="9.361250500391566"><ele>95.0</ele><time>2026-04-30T13:37:59.991Z</time></trkpt><trkpt lat="39.54938958576346" lon="9.361388670994042"><ele>95.0</ele><time>2026-04-30T13:38:00.991Z</time></trkpt><trkpt lat="39.5494101631447" lon="9.36151952760853"><ele>95.2</ele><time>2026-04-30T13:38:01.991Z</time></trkpt><trkpt lat="39.54943017268945" lon="9.361648275456531"><ele>95.4</ele><time>2026-04-30T13:38:02.991Z</time></trkpt><trkpt lat="39.54944224164756" lon="9.361778449193396"><ele>95.6</ele><time>2026-04-30T13:38:03.991Z</time></trkpt><trkpt lat="39.549457787733594" lon="9.361903176843393"><ele>95.8</ele><time>2026-04-30T13:38:04.991Z</time></trkpt><trkpt lat="39.54946062151939" lon="9.362025418171113"><ele>96.0</ele><time>2026-04-30T13:38:05.991Z</time></trkpt><trkpt lat="39.549452673495615" lon="9.362145635327037"><ele>96.5</ele><time>2026-04-30T13:38:06.991Z</time></trkpt><trkpt lat="39.54943705643642" lon="9.36225462422508"><ele>97.0</ele><time>2026-04-30T13:38:07.991Z</time></trkpt><trkpt lat="39.54942364103417" lon="9.362347569580155"><ele>97.5</ele><time>2026-04-30T13:38:08.991Z</time></trkpt><trkpt lat="39.54949384831356" lon="9.362444753747827"><ele>98.0</ele><time>2026-04-30T13:38:10.991Z</time></trkpt><trkpt lat="39.549579136975645" lon="9.362413292722296"><ele>98.5</ele><time>2026-04-30T13:38:11.991Z</time></trkpt><trkpt lat="39.54965700136892" lon="9.362365625062179"><ele>99.0</ele><time>2026-04-30T13:38:12.991Z</time></trkpt><trkpt lat="39.54974039667575" lon="9.362328607917297"><ele>97.4</ele><time>2026-04-30T13:38:13.991Z</time></trkpt><trkpt lat="39.54983141605766" lon="9.362291923700617"><ele>95.80000000000001</ele><time>2026-04-30T13:38:14.991Z</time></trkpt><trkpt lat="39.54992708508037" lon="9.362233036608593"><ele>94.19999999999999</ele><time>2026-04-30T13:38:15.991Z</time></trkpt><trkpt lat="39.550023012200505" lon="9.362203390346874"><ele>92.6</ele><time>2026-04-30T13:38:16.991Z</time></trkpt><trkpt lat="39.55011558490148" lon="9.362165207172495"><ele>91.0</ele><time>2026-04-30T13:38:17.991Z</time></trkpt><trkpt lat="39.550201869502935" lon="9.36211002061917"><ele>90.8</ele><time>2026-04-30T13:38:18.991Z</time></trkpt><trkpt lat="39.55029811295196" lon="9.362054729758736"><ele>90.6</ele><time>2026-04-30T13:38:19.991Z</time></trkpt><trkpt lat="39.55040107399506" lon="9.362016075413456"><ele>90.4</ele><time>2026-04-30T13:38:20.991Z</time></trkpt><trkpt lat="39.55050130400567" lon="9.361960582061275"><ele>90.2</ele><time>2026-04-30T13:38:21.991Z</time></trkpt><trkpt lat="39.55058774300315" lon="9.361881174876128"><ele>90.0</ele><time>2026-04-30T13:38:22.991Z</time></trkpt><trkpt lat="39.55066240645917" lon="9.361778904235319"><ele>89.6</ele><time>2026-04-30T13:38:23.991Z</time></trkpt><trkpt lat="39.55073757582013" lon="9.361662482051026"><ele>89.2</ele><time>2026-04-30T13:38:24.991Z</time></trkpt><trkpt lat="39.550812222143655" lon="9.361552204598278"><ele>88.80000000000001</ele><time>2026-04-30T13:38:25.991Z</time></trkpt><trkpt lat="39.55088792079817" lon="9.361443301532326"><ele>88.4</ele><time>2026-04-30T13:38:26.991Z</time></trkpt><trkpt lat="39.55095466061033" lon="9.361341299634804"><ele>88.0</ele><time>2026-04-30T13:38:27.991Z</time></trkpt><trkpt lat="39.55101409831717" lon="9.361247101693333"><ele>88.0</ele><time>2026-04-30T13:38:28.991Z</time></trkpt><trkpt lat="39.55107171429013" lon="9.361151966097735"><ele>88.0</ele><time>2026-04-30T13:38:29.991Z</time></trkpt><trkpt lat="39.55113517993086" lon="9.361056730441447"><ele>88.0</ele><time>2026-04-30T13:38:30.991Z</time></trkpt><trkpt lat="39.55119906353596" lon="9.36096467370787"><ele>88.0</ele><time>2026-04-30T13:38:31.991Z</time></trkpt><trkpt lat="39.55125930054233" lon="9.360866850445547"><ele>88.0</ele><time>2026-04-30T13:38:32.991Z</time></trkpt><trkpt lat="39.551317243067835" lon="9.360761144020444"><ele>87.66666666666666</ele><time>2026-04-30T13:38:33.991Z</time></trkpt><trkpt lat="39.551374169305085" lon="9.360661217515144"><ele>87.33333333333333</ele><time>2026-04-30T13:38:34.991Z</time></trkpt><trkpt lat="39.55142090828677" lon="9.360561769152811"><ele>87.0</ele><time>2026-04-30T13:38:35.991Z</time></trkpt><trkpt lat="39.551464910658225" lon="9.360470012176428"><ele>86.66666666666667</ele><time>2026-04-30T13:38:36.991Z</time></trkpt><trkpt lat="39.55150723778268" lon="9.360374952252554"><ele>86.33333333333334</ele><time>2026-04-30T13:38:37.991Z</time></trkpt><trkpt lat="39.55154203007965" lon="9.360271441045679"><ele>86.0</ele><time>2026-04-30T13:38:38.991Z</time></trkpt><trkpt lat="39.55157687715139" lon="9.36016101046734"><ele>86.0</ele><time>2026-04-30T13:38:39.991Z</time></trkpt><trkpt lat="39.55161305719454" lon="9.360038815483145"><ele>86.0</ele><time>2026-04-30T13:38:40.991Z</time></trkpt><trkpt lat="39.55164764131943" lon="9.359917322601506"><ele>86.0</ele><time>2026-04-30T13:38:41.991Z</time></trkpt><trkpt lat="39.55168878486383" lon="9.359794657444107"><ele>86.0</ele><time>2026-04-30T13:38:42.991Z</time></trkpt><trkpt lat="39.55172989187005" lon="9.35966549727004"><ele>86.0</ele><time>2026-04-30T13:38:43.991Z</time></trkpt><trkpt lat="39.5517735043025" lon="9.359536352489659"><ele>86.0</ele><time>2026-04-30T13:38:44.991Z</time></trkpt><trkpt lat="39.55181654642283" lon="9.359405072525279"><ele>86.0</ele><time>2026-04-30T13:38:45.991Z</time></trkpt><trkpt lat="39.551862808925414" lon="9.359269690142689"><ele>86.0</ele><time>2026-04-30T13:38:46.991Z</time></trkpt><trkpt lat="39.55190266317758" lon="9.359130730923779"><ele>86.0</ele><time>2026-04-30T13:38:47.991Z</time></trkpt><trkpt lat="39.55194948642057" lon="9.358990823370378"><ele>86.25</ele><time>2026-04-30T13:38:48.991Z</time></trkpt><trkpt lat="39.55199895496006" lon="9.35884669037098"><ele>86.5</ele><time>2026-04-30T13:38:49.991Z</time></trkpt><trkpt lat="39.5520455268537" lon="9.35870057470873"><ele>86.75</ele><time>2026-04-30T13:38:50.991Z</time></trkpt><trkpt lat="39.55209271600928" lon="9.358551459393988"><ele>87.0</ele><time>2026-04-30T13:38:51.991Z</time></trkpt><trkpt lat="39.552139483632345" lon="9.358397359227702"><ele>86.5</ele><time>2026-04-30T13:38:52.991Z</time></trkpt><trkpt lat="39.55219000719515" lon="9.358233987997062"><ele>86.0</ele><time>2026-04-30T13:38:53.991Z</time></trkpt><trkpt lat="39.55224453374875" lon="9.358066104618189"><ele>85.5</ele><time>2026-04-30T13:38:54.991Z</time></trkpt><trkpt lat="39.55230347552853" lon="9.357891248543046"><ele>85.0</ele><time>2026-04-30T13:38:55.991Z</time></trkpt><trkpt lat="39.55236173348075" lon="9.357711864335403"><ele>85.0</ele><time>2026-04-30T13:38:56.991Z</time></trkpt><trkpt lat="39.5524152062443" lon="9.357534109049055"><ele>85.0</ele><time>2026-04-30T13:38:57.991Z</time></trkpt><trkpt lat="39.552469981170695" lon="9.357359738456955"><ele>85.0</ele><time>2026-04-30T13:38:58.991Z</time></trkpt><trkpt lat="39.55252841076377" lon="9.357178716149862"><ele>85.0</ele><time>2026-04-30T13:38:59.991Z</time></trkpt><trkpt lat="39.55258700471134" lon="9.356997742798013"><ele>84.66666666666666</ele><time>2026-04-30T13:39:00.991Z</time></trkpt><trkpt lat="39.55264692619749" lon="9.356812256331462"><ele>84.33333333333333</ele><time>2026-04-30T13:39:01.991Z</time></trkpt><trkpt lat="39.55270656358921" lon="9.356618170259718"><ele>84.0</ele><time>2026-04-30T13:39:02.991Z</time></trkpt><trkpt lat="39.55276982412948" lon="9.356422258508797"><ele>84.33333333333333</ele><time>2026-04-30T13:39:03.991Z</time></trkpt><trkpt lat="39.552837011326226" lon="9.35622312118516"><ele>84.66666666666666</ele><time>2026-04-30T13:39:04.991Z</time></trkpt><trkpt lat="39.55290444385218" lon="9.356021354632437"><ele>85.0</ele><time>2026-04-30T13:39:05.991Z</time></trkpt><trkpt lat="39.55297215519123" lon="9.355817339657289"><ele>85.33333333333333</ele><time>2026-04-30T13:39:06.991Z</time></trkpt><trkpt lat="39.55304023742709" lon="9.355603679205181"><ele>85.66666666666667</ele><time>2026-04-30T13:39:07.991Z</time></trkpt><trkpt lat="39.55310817428997" lon="9.355386495054752"><ele>86.0</ele><time>2026-04-30T13:39:08.991Z</time></trkpt><trkpt lat="39.55317670950658" lon="9.355170008231106"><ele>86.0</ele><time>2026-04-30T13:39:09.991Z</time></trkpt><trkpt lat="39.55325060528426" lon="9.354954199449262"><ele>86.0</ele><time>2026-04-30T13:39:10.991Z</time></trkpt><trkpt lat="39.5533223939208" lon="9.354734632117212"><ele>86.0</ele><time>2026-04-30T13:39:11.991Z</time></trkpt><trkpt lat="39.55338898459956" lon="9.354514219425328"><ele>86.0</ele><time>2026-04-30T13:39:12.991Z</time></trkpt><trkpt lat="39.55345675734574" lon="9.354293577755081"><ele>86.0</ele><time>2026-04-30T13:39:13.991Z</time></trkpt><trkpt lat="39.55352692571969" lon="9.35407547014032"><ele>86.0</ele><time>2026-04-30T13:39:14.991Z</time></trkpt><trkpt lat="39.553590311115656" lon="9.353878056378575"><ele>85.75</ele><time>2026-04-30T13:39:15.991Z</time></trkpt><trkpt lat="39.553651824810906" lon="9.353695991186765"><ele>85.5</ele><time>2026-04-30T13:39:16.991Z</time></trkpt><trkpt lat="39.55372167634639" lon="9.353549882825504"><ele>85.25</ele><time>2026-04-30T13:39:17.991Z</time></trkpt><trkpt lat="39.553822808746325" lon="9.353455636631574"><ele>85.0</ele><time>2026-04-30T13:39:18.991Z</time></trkpt><trkpt lat="39.55394133922925" lon="9.35342478205988"><ele>85.0</ele><time>2026-04-30T13:39:19.991Z</time></trkpt><trkpt lat="39.55406007475532" lon="9.353457738242481"><ele>85.0</ele><time>2026-04-30T13:39:20.991Z</time></trkpt><trkpt lat="39.554182367700264" lon="9.353521241802778"><ele>85.0</ele><time>2026-04-30T13:39:21.991Z</time></trkpt><trkpt lat="39.55431147083008" lon="9.353581192088171"><ele>85.0</ele><time>2026-04-30T13:39:22.991Z</time></trkpt><trkpt lat="39.55444848155044" lon="9.353637078483704"><ele>84.66666666666666</ele><time>2026-04-30T13:39:23.991Z</time></trkpt><trkpt lat="39.55458854202021" lon="9.353695542093382"><ele>84.33333333333333</ele><time>2026-04-30T13:39:24.991Z</time></trkpt><trkpt lat="39.554734393580006" lon="9.353759595407986"><ele>84.0</ele><time>2026-04-30T13:39:25.991Z</time></trkpt><trkpt lat="39.55488311572633" lon="9.353826061109036"><ele>83.66666666666667</ele><time>2026-04-30T13:39:26.991Z</time></trkpt><trkpt lat="39.55503270001159" lon="9.353891011548853"><ele>83.33333333333334</ele><time>2026-04-30T13:39:27.991Z</time></trkpt><trkpt lat="39.55518184614537" lon="9.353958357945277"><ele>83.0</ele><time>2026-04-30T13:39:28.991Z</time></trkpt><trkpt lat="39.55532713667245" lon="9.354018070350753"><ele>84.0</ele><time>2026-04-30T13:39:29.991Z</time></trkpt><trkpt lat="39.55547500887561" lon="9.35405745426243"><ele>85.0</ele><time>2026-04-30T13:39:30.991Z</time></trkpt><trkpt lat="39.55562580112729" lon="9.354057746512073"><ele>86.0</ele><time>2026-04-30T13:39:31.99Z</time></trkpt><trkpt lat="39.555765991024316" lon="9.354006548914201"><ele>87.0</ele><time>2026-04-30T13:39:32.99Z</time></trkpt><trkpt lat="39.55588837880257" lon="9.353913587348064"><ele>86.33333333333333</ele><time>2026-04-30T13:39:33.99Z</time></trkpt><trkpt lat="39.555991598997934" lon="9.353777535974672"><ele>85.66666666666666</ele><time>2026-04-30T13:39:34.99Z</time></trkpt><trkpt lat="39.55607522009733" lon="9.353608084677775"><ele>85.0</ele><time>2026-04-30T13:39:35.99Z</time></trkpt><trkpt lat="39.55615954221153" lon="9.353426404379961"><ele>86.0</ele><time>2026-04-30T13:39:36.99Z</time></trkpt><trkpt lat="39.55625712305551" lon="9.35324217431646"><ele>87.0</ele><time>2026-04-30T13:39:37.99Z</time></trkpt><trkpt lat="39.55636398440937" lon="9.353056465438627"><ele>88.0</ele><time>2026-04-30T13:39:38.99Z</time></trkpt><trkpt lat="39.55648377969068" lon="9.352878828571754"><ele>88.0</ele><time>2026-04-30T13:39:39.99Z</time></trkpt><trkpt lat="39.5566319247069" lon="9.352729810992004"><ele>88.0</ele><time>2026-04-30T13:39:40.99Z</time></trkpt><trkpt lat="39.55679854192453" lon="9.352610275129395"><ele>88.0</ele><time>2026-04-30T13:39:41.99Z</time></trkpt><trkpt lat="39.55697355792571" lon="9.352503462409434"><ele>88.0</ele><time>2026-04-30T13:39:42.99Z</time></trkpt><trkpt lat="39.55714928491894" lon="9.352392330127525"><ele>88.0</ele><time>2026-04-30T13:39:43.99Z</time></trkpt><trkpt lat="39.557330422200145" lon="9.352278085821862"><ele>88.0</ele><time>2026-04-30T13:39:44.99Z</time></trkpt><trkpt lat="39.55750940086459" lon="9.352166601107797"><ele>88.0</ele><time>2026-04-30T13:39:45.99Z</time></trkpt><trkpt lat="39.557689874256944" lon="9.352054962884731"><ele>88.0</ele><time>2026-04-30T13:39:46.99Z</time></trkpt><trkpt lat="39.557867112236046" lon="9.351931118260062"><ele>88.0</ele><time>2026-04-30T13:39:47.99Z</time></trkpt><trkpt lat="39.55804507149327" lon="9.35181148609703"><ele>88.33333333333333</ele><time>2026-04-30T13:39:48.992Z</time></trkpt><trkpt lat="39.55822288103852" lon="9.351688804153865"><ele>88.66666666666667</ele><time>2026-04-30T13:39:49.991Z</time></trkpt><trkpt lat="39.55840947619404" lon="9.35156986086076"><ele>89.0</ele><time>2026-04-30T13:39:50.991Z</time></trkpt><trkpt lat="39.5585954815237" lon="9.351451682663766"><ele>89.33333333333334</ele><time>2026-04-30T13:39:51.992Z</time></trkpt><trkpt lat="39.55878227714075" lon="9.351331450145382"><ele>89.66666666666667</ele><time>2026-04-30T13:39:52.991Z</time></trkpt><trkpt lat="39.558970004637544" lon="9.351203698227122"><ele>90.0</ele><time>2026-04-30T13:39:53.991Z</time></trkpt><trkpt lat="39.55915776013466" lon="9.351074198128314"><ele>90.0</ele><time>2026-04-30T13:39:54.991Z</time></trkpt><trkpt lat="39.55934825749455" lon="9.350953269762131"><ele>90.0</ele><time>2026-04-30T13:39:55.991Z</time></trkpt><trkpt lat="39.55953803515576" lon="9.350827420595728"><ele>90.0</ele><time>2026-04-30T13:39:56.991Z</time></trkpt><trkpt lat="39.559729231207875" lon="9.35069758273997"><ele>89.66666666666667</ele><time>2026-04-30T13:39:57.991Z</time></trkpt><trkpt lat="39.5599119342752" lon="9.350575380991435"><ele>89.33333333333334</ele><time>2026-04-30T13:39:58.991Z</time></trkpt><trkpt lat="39.56008240382893" lon="9.350467187725409"><ele>89.0</ele><time>2026-04-30T13:39:59.991Z</time></trkpt><trkpt lat="39.560253075635806" lon="9.350355241747659"><ele>89.0</ele><time>2026-04-30T13:40:00.99Z</time></trkpt><trkpt lat="39.560426841711276" lon="9.35023981616686"><ele>89.0</ele><time>2026-04-30T13:40:01.991Z</time></trkpt><trkpt lat="39.56060409109558" lon="9.35012653216431"><ele>89.0</ele><time>2026-04-30T13:40:02.991Z</time></trkpt><trkpt lat="39.56078510401159" lon="9.350014720624921"><ele>89.0</ele><time>2026-04-30T13:40:03.991Z</time></trkpt><trkpt lat="39.560971126207015" lon="9.34992067109701"><ele>89.0</ele><time>2026-04-30T13:40:04.991Z</time></trkpt><trkpt lat="39.56116511758953" lon="9.349867503436576"><ele>89.0</ele><time>2026-04-30T13:40:05.991Z</time></trkpt><trkpt lat="39.56136192475069" lon="9.34985968220497"><ele>89.0</ele><time>2026-04-30T13:40:06.991Z</time></trkpt><trkpt lat="39.5615609485522" lon="9.349869828212293"><ele>89.0</ele><time>2026-04-30T13:40:07.991Z</time></trkpt><trkpt lat="39.56176516746898" lon="9.349881295017626"><ele>89.0</ele><time>2026-04-30T13:40:08.991Z</time></trkpt><trkpt lat="39.56197753591913" lon="9.349893964209837"><ele>90.33333333333334</ele><time>2026-04-30T13:40:09.991Z</time></trkpt><trkpt lat="39.5621932811163" lon="9.349903200589585"><ele>91.66666666666667</ele><time>2026-04-30T13:40:10.991Z</time></trkpt><trkpt lat="39.56241150011386" lon="9.34990722717959"><ele>93.0</ele><time>2026-04-30T13:40:11.991Z</time></trkpt><trkpt lat="39.562630995428044" lon="9.349915144612426"><ele>93.0</ele><time>2026-04-30T13:40:12.991Z</time></trkpt><trkpt lat="39.562848692807485" lon="9.349927086856543"><ele>93.0</ele><time>2026-04-30T13:40:13.991Z</time></trkpt><trkpt lat="39.56306834458253" lon="9.349935101678092"><ele>93.0</ele><time>2026-04-30T13:40:14.991Z</time></trkpt><trkpt lat="39.56328850667796" lon="9.349939269211465"><ele>93.66666666666667</ele><time>2026-04-30T13:40:15.991Z</time></trkpt><trkpt lat="39.56351172441193" lon="9.34994809505653"><ele>94.33333333333334</ele><time>2026-04-30T13:40:16.991Z</time></trkpt><trkpt lat="39.56373220846672" lon="9.349955832494212"><ele>95.0</ele><time>2026-04-30T13:40:17.991Z</time></trkpt><trkpt lat="39.563951347347" lon="9.349964214509473"><ele>95.66666666666667</ele><time>2026-04-30T13:40:18.991Z</time></trkpt><trkpt lat="39.56416976406015" lon="9.349968648787897"><ele>96.33333333333334</ele><time>2026-04-30T13:40:19.991Z</time></trkpt><trkpt lat="39.564388911011825" lon="9.349976570299045"><ele>97.0</ele><time>2026-04-30T13:40:20.991Z</time></trkpt><trkpt lat="39.56460632929418" lon="9.349981921695516"><ele>97.66666666666667</ele><time>2026-04-30T13:40:21.991Z</time></trkpt><trkpt lat="39.564820429459566" lon="9.349987164720822"><ele>98.33333333333334</ele><time>2026-04-30T13:40:22.991Z</time></trkpt><trkpt lat="39.565036637355206" lon="9.349996090476477"><ele>99.0</ele><time>2026-04-30T13:40:23.991Z</time></trkpt><trkpt lat="39.56525220385447" lon="9.350002106448624"><ele>100.33333333333334</ele><time>2026-04-30T13:40:24.991Z</time></trkpt><trkpt lat="39.565469640310205" lon="9.350007274296118"><ele>101.66666666666667</ele><time>2026-04-30T13:40:25.991Z</time></trkpt><trkpt lat="39.56569238505769" lon="9.350012119450732"><ele>103.0</ele><time>2026-04-30T13:40:26.991Z</time></trkpt><trkpt lat="39.565917877911296" lon="9.35001808166384"><ele>103.0</ele><time>2026-04-30T13:40:27.991Z</time></trkpt><trkpt lat="39.566144532038514" lon="9.35001570411914"><ele>103.0</ele><time>2026-04-30T13:40:28.991Z</time></trkpt><trkpt lat="39.56636512037955" lon="9.34998382388232"><ele>103.0</ele><time>2026-04-30T13:40:29.991Z</time></trkpt><trkpt lat="39.56657741240425" lon="9.349913998813651"><ele>104.0</ele><time>2026-04-30T13:40:30.991Z</time></trkpt><trkpt lat="39.56678183508295" lon="9.349811358920894"><ele>105.0</ele><time>2026-04-30T13:40:31.991Z</time></trkpt><trkpt lat="39.56699241843829" lon="9.349705688284105"><ele>106.0</ele><time>2026-04-30T13:40:32.991Z</time></trkpt><trkpt lat="39.56720373403183" lon="9.349609731994924"><ele>107.5</ele><time>2026-04-30T13:40:33.991Z</time></trkpt><trkpt lat="39.56741950442487" lon="9.349515243289295"><ele>109.0</ele><time>2026-04-30T13:40:34.991Z</time></trkpt><trkpt lat="39.56762978495125" lon="9.349413738542296"><ele>109.0</ele><time>2026-04-30T13:40:35.991Z</time></trkpt><trkpt lat="39.56783571080837" lon="9.349288793632738"><ele>109.0</ele><time>2026-04-30T13:40:36.991Z</time></trkpt><trkpt lat="39.56804097623069" lon="9.349157089999327"><ele>111.66666666666667</ele><time>2026-04-30T13:40:37.991Z</time></trkpt><trkpt lat="39.56824363810066" lon="9.349031748554808"><ele>114.33333333333334</ele><time>2026-04-30T13:40:38.991Z</time></trkpt><trkpt lat="39.5684482193198" lon="9.348916702154488"><ele>117.0</ele><time>2026-04-30T13:40:39.991Z</time></trkpt><trkpt lat="39.5686603987675" lon="9.348820446840165"><ele>119.0</ele><time>2026-04-30T13:40:40.991Z</time></trkpt><trkpt lat="39.56887955599013" lon="9.348760024383669"><ele>121.0</ele><time>2026-04-30T13:40:41.991Z</time></trkpt><trkpt lat="39.56910381836945" lon="9.348746973062203"><ele>123.0</ele><time>2026-04-30T13:40:42.991Z</time></trkpt><trkpt lat="39.569328137628546" lon="9.348758340536017"><ele>125.0</ele><time>2026-04-30T13:40:43.991Z</time></trkpt><trkpt lat="39.5695515084972" lon="9.34878268164944"><ele>127.0</ele><time>2026-04-30T13:40:44.991Z</time></trkpt><trkpt lat="39.569776522979964" lon="9.348815485646918"><ele>127.0</ele><time>2026-04-30T13:40:45.991Z</time></trkpt><trkpt lat="39.57000100848895" lon="9.348864333241227"><ele>127.0</ele><time>2026-04-30T13:40:46.991Z</time></trkpt><trkpt lat="39.570221023650916" lon="9.3489535930269"><ele>129.5</ele><time>2026-04-30T13:40:47.991Z</time></trkpt><trkpt lat="39.57043283413327" lon="9.34906862135081"><ele>132.0</ele><time>2026-04-30T13:40:48.991Z</time></trkpt><trkpt lat="39.570647321335706" lon="9.34918859761943"><ele>132.0</ele><time>2026-04-30T13:40:49.991Z</time></trkpt><trkpt lat="39.57086231419885" lon="9.349303035077241"><ele>132.0</ele><time>2026-04-30T13:40:50.991Z</time></trkpt><trkpt lat="39.57106398750869" lon="9.349425739358573"><ele>133.5</ele><time>2026-04-30T13:40:51.991Z</time></trkpt><trkpt lat="39.57126923453571" lon="9.349547298875532"><ele>135.0</ele><time>2026-04-30T13:40:52.991Z</time></trkpt><trkpt lat="39.57147666627623" lon="9.349660456736828"><ele>139.33333333333334</ele><time>2026-04-30T13:40:53.991Z</time></trkpt><trkpt lat="39.57167158610332" lon="9.349797920502295"><ele>143.66666666666669</ele><time>2026-04-30T13:40:54.991Z</time></trkpt><trkpt lat="39.57187610437499" lon="9.349909116081529"><ele>148.0</ele><time>2026-04-30T13:40:55.991Z</time></trkpt><trkpt lat="39.57208512081547" lon="9.349984929263774"><ele>148.0</ele><time>2026-04-30T13:40:56.991Z</time></trkpt><trkpt lat="39.572301374560865" lon="9.35004169927282"><ele>148.0</ele><time>2026-04-30T13:40:57.991Z</time></trkpt><trkpt lat="39.57250247884229" lon="9.35007243660226"><ele>148.0</ele><time>2026-04-30T13:40:58.991Z</time></trkpt><trkpt lat="39.57270072862121" lon="9.350172150720423"><ele>148.33333333333334</ele><time>2026-04-30T13:40:59.99Z</time></trkpt><trkpt lat="39.57289379405803" lon="9.350301354900186"><ele>148.66666666666666</ele><time>2026-04-30T13:41:00.99Z</time></trkpt><trkpt lat="39.57304168645136" lon="9.350473250517028"><ele>149.0</ele><time>2026-04-30T13:41:01.99Z</time></trkpt><trkpt lat="39.57314896853808" lon="9.350681528632489"><ele>150.66666666666666</ele><time>2026-04-30T13:41:02.99Z</time></trkpt><trkpt lat="39.57322023665188" lon="9.350913026647172"><ele>152.33333333333334</ele><time>2026-04-30T13:41:03.99Z</time></trkpt><trkpt lat="39.57328089942012" lon="9.35116370345378"><ele>154.0</ele><time>2026-04-30T13:41:04.99Z</time></trkpt><trkpt lat="39.57335672148385" lon="9.351411505851718"><ele>156.33333333333334</ele><time>2026-04-30T13:41:05.99Z</time></trkpt><trkpt lat="39.57345270735845" lon="9.351653022312927"><ele>158.66666666666666</ele><time>2026-04-30T13:41:06.99Z</time></trkpt><trkpt lat="39.57357104948772" lon="9.351882251467996"><ele>161.0</ele><time>2026-04-30T13:41:07.99Z</time></trkpt><trkpt lat="39.57370729314331" lon="9.352082285952251"><ele>162.33333333333331</ele><time>2026-04-30T13:41:08.99Z</time></trkpt><trkpt lat="39.57385778748435" lon="9.352267568798432"><ele>163.66666666666666</ele><time>2026-04-30T13:41:09.99Z</time></trkpt><trkpt lat="39.57400401112845" lon="9.352486498825527"><ele>165.0</ele><time>2026-04-30T13:41:10.99Z</time></trkpt><trkpt lat="39.57415802699952" lon="9.352696548680315"><ele>165.0</ele><time>2026-04-30T13:41:11.99Z</time></trkpt><trkpt lat="39.5743159857849" lon="9.35290430452402"><ele>165.0</ele><time>2026-04-30T13:41:12.99Z</time></trkpt><trkpt lat="39.5744840009849" lon="9.353097817471333"><ele>165.33333333333334</ele><time>2026-04-30T13:41:13.99Z</time></trkpt><trkpt lat="39.57466857173586" lon="9.353273037434459"><ele>165.66666666666669</ele><time>2026-04-30T13:41:14.99Z</time></trkpt><trkpt lat="39.574856830876406" lon="9.353422696977793"><ele>166.0</ele><time>2026-04-30T13:41:15.99Z</time></trkpt><trkpt lat="39.575053192425635" lon="9.353550152145235"><ele>166.0</ele><time>2026-04-30T13:41:16.99Z</time></trkpt><trkpt lat="39.575251672247916" lon="9.35366514107111"><ele>166.0</ele><time>2026-04-30T13:41:17.99Z</time></trkpt><trkpt lat="39.575465265193486" lon="9.353773519878393"><ele>166.0</ele><time>2026-04-30T13:41:18.99Z</time></trkpt><trkpt lat="39.575684357595016" lon="9.353877864682682"><ele>169.5</ele><time>2026-04-30T13:41:19.99Z</time></trkpt><trkpt lat="39.57590648732627" lon="9.35396074595425"><ele>173.0</ele><time>2026-04-30T13:41:20.99Z</time></trkpt><trkpt lat="39.57613366547546" lon="9.354014295632885"><ele>176.5</ele><time>2026-04-30T13:41:21.99Z</time></trkpt><trkpt lat="39.57636436642918" lon="9.35402847719522"><ele>180.0</ele><time>2026-04-30T13:41:22.99Z</time></trkpt><trkpt lat="39.57660407270563" lon="9.35402515293435"><ele>180.0</ele><time>2026-04-30T13:41:23.99Z</time></trkpt><trkpt lat="39.5768286434253" lon="9.35402802804066"><ele>180.0</ele><time>2026-04-30T13:41:24.99Z</time></trkpt><trkpt lat="39.57705985423783" lon="9.354027498715928"><ele>181.66666666666666</ele><time>2026-04-30T13:41:25.99Z</time></trkpt><trkpt lat="39.57726228215345" lon="9.354059032636249"><ele>183.33333333333331</ele><time>2026-04-30T13:41:26.99Z</time></trkpt><trkpt lat="39.57745188683765" lon="9.354097080447742"><ele>185.0</ele><time>2026-04-30T13:41:27.99Z</time></trkpt><trkpt lat="39.57765896275547" lon="9.354111931159096"><ele>185.0</ele><time>2026-04-30T13:41:28.99Z</time></trkpt><trkpt lat="39.57784358965212" lon="9.354117060989262"><ele>185.0</ele><time>2026-04-30T13:41:29.99Z</time></trkpt><trkpt lat="39.57805413363142" lon="9.354127280750852"><ele>185.0</ele><time>2026-04-30T13:41:30.99Z</time></trkpt><trkpt lat="39.57827048088234" lon="9.354147786452772"><ele>186.0</ele><time>2026-04-30T13:41:31.99Z</time></trkpt><trkpt lat="39.57848664161556" lon="9.354173348838694"><ele>187.0</ele><time>2026-04-30T13:41:32.99Z</time></trkpt><trkpt lat="39.57870073854565" lon="9.354197235130037"><ele>188.0</ele><time>2026-04-30T13:41:33.99Z</time></trkpt><trkpt lat="39.57891493018887" lon="9.354216889532298"><ele>189.33333333333331</ele><time>2026-04-30T13:41:34.99Z</time></trkpt><trkpt lat="39.57913078851521" lon="9.354216229465449"><ele>190.66666666666666</ele><time>2026-04-30T13:41:35.99Z</time></trkpt><trkpt lat="39.57934335646734" lon="9.354209902153308"><ele>192.0</ele><time>2026-04-30T13:41:36.99Z</time></trkpt><trkpt lat="39.5795687821175" lon="9.354187603044494"><ele>194.0</ele><time>2026-04-30T13:41:37.99Z</time></trkpt><trkpt lat="39.57979730749086" lon="9.35416322061189"><ele>196.0</ele><time>2026-04-30T13:41:38.99Z</time></trkpt><trkpt lat="39.58002218344063" lon="9.354154439747408"><ele>196.0</ele><time>2026-04-30T13:41:39.99Z</time></trkpt><trkpt lat="39.580239788231154" lon="9.354198911903566"><ele>196.0</ele><time>2026-04-30T13:41:40.99Z</time></trkpt><trkpt lat="39.580448630455706" lon="9.354255023439501"><ele>196.0</ele><time>2026-04-30T13:41:41.99Z</time></trkpt><trkpt lat="39.580629887254005" lon="9.354353596399333"><ele>197.25</ele><time>2026-04-30T13:41:42.99Z</time></trkpt><trkpt lat="39.580765231076455" lon="9.354426311974002"><ele>198.5</ele><time>2026-04-30T13:41:43.99Z</time></trkpt><trkpt lat="39.58086023473775" lon="9.354553768161995"><ele>199.75</ele><time>2026-04-30T13:41:44.99Z</time></trkpt><trkpt lat="39.58092494458811" lon="9.354739175667481"><ele>201.0</ele><time>2026-04-30T13:41:45.99Z</time></trkpt><trkpt lat="39.58097807995158" lon="9.354947617239235"><ele>200.66666666666669</ele><time>2026-04-30T13:41:46.99Z</time></trkpt><trkpt lat="39.58102049712454" lon="9.35518162388375"><ele>200.33333333333334</ele><time>2026-04-30T13:41:47.99Z</time></trkpt><trkpt lat="39.58106384505707" lon="9.355434535351653"><ele>200.0</ele><time>2026-04-30T13:41:48.99Z</time></trkpt><trkpt lat="39.581102078580436" lon="9.355705633500158"><ele>200.0</ele><time>2026-04-30T13:41:49.99Z</time></trkpt><trkpt lat="39.58114386044915" lon="9.355970679913598"><ele>200.0</ele><time>2026-04-30T13:41:50.99Z</time></trkpt><trkpt lat="39.58117475895948" lon="9.35624023830246"><ele>200.0</ele><time>2026-04-30T13:41:51.99Z</time></trkpt><trkpt lat="39.58120029343776" lon="9.356511553348833"><ele>204.33333333333334</ele><time>2026-04-30T13:41:52.99Z</time></trkpt><trkpt lat="39.58121878238892" lon="9.356782008592148"><ele>208.66666666666669</ele><time>2026-04-30T13:41:53.99Z</time></trkpt><trkpt lat="39.58121680931918" lon="9.357049603611731"><ele>213.0</ele><time>2026-04-30T13:41:54.99Z</time></trkpt><trkpt lat="39.58117839274088" lon="9.357309513990806"><ele>213.0</ele><time>2026-04-30T13:41:55.99Z</time></trkpt><trkpt lat="39.58111890733203" lon="9.357550422517251"><ele>213.0</ele><time>2026-04-30T13:41:56.99Z</time></trkpt><trkpt lat="39.581042557466915" lon="9.357744318818957"><ele>213.0</ele><time>2026-04-30T13:41:57.99Z</time></trkpt><trkpt lat="39.580931273964794" lon="9.357915667844818"><ele>217.0</ele><time>2026-04-30T13:41:58.99Z</time></trkpt><trkpt lat="39.58080088321293" lon="9.358090252875055"><ele>221.0</ele><time>2026-04-30T13:41:59.99Z</time></trkpt><trkpt lat="39.580676408246426" lon="9.358285146265292"><ele>225.0</ele><time>2026-04-30T13:42:00.991Z</time></trkpt><trkpt lat="39.58056642935555" lon="9.358501236512797"><ele>225.0</ele><time>2026-04-30T13:42:01.99Z</time></trkpt><trkpt lat="39.58049010254172" lon="9.358747308708379"><ele>225.0</ele><time>2026-04-30T13:42:02.99Z</time></trkpt><trkpt lat="39.58046210094621" lon="9.3589940811725"><ele>225.0</ele><time>2026-04-30T13:42:03.991Z</time></trkpt><trkpt lat="39.58047423780156" lon="9.359236858754556"><ele>226.0</ele><time>2026-04-30T13:42:04.991Z</time></trkpt><trkpt lat="39.58054934755536" lon="9.359470931617048"><ele>227.0</ele><time>2026-04-30T13:42:05.991Z</time></trkpt><trkpt lat="39.58065466775271" lon="9.359691728647677"><ele>228.0</ele><time>2026-04-30T13:42:06.991Z</time></trkpt><trkpt lat="39.58075195422606" lon="9.359904923117385"><ele>225.0</ele><time>2026-04-30T13:42:07.99Z</time></trkpt><trkpt lat="39.58086698389886" lon="9.360084779965748"><ele>222.0</ele><time>2026-04-30T13:42:08.99Z</time></trkpt><trkpt lat="39.58100616115821" lon="9.360217232168267"><ele>219.0</ele><time>2026-04-30T13:42:09.99Z</time></trkpt><trkpt lat="39.58117807771618" lon="9.36028685655875"><ele>225.0</ele><time>2026-04-30T13:42:10.99Z</time></trkpt><trkpt lat="39.58135500690759" lon="9.360314988991787"><ele>231.0</ele><time>2026-04-30T13:42:11.99Z</time></trkpt><trkpt lat="39.581544624667444" lon="9.360333385948978"><ele>237.0</ele><time>2026-04-30T13:42:12.99Z</time></trkpt><trkpt lat="39.58173271344613" lon="9.36032868626259"><ele>237.0</ele><time>2026-04-30T13:42:13.99Z</time></trkpt><trkpt lat="39.58191539214654" lon="9.360265064484173"><ele>237.0</ele><time>2026-04-30T13:42:14.99Z</time></trkpt><trkpt lat="39.58207962627162" lon="9.360150998029749"><ele>237.0</ele><time>2026-04-30T13:42:15.99Z</time></trkpt><trkpt lat="39.582221714508" lon="9.359987462570752"><ele>242.66666666666669</ele><time>2026-04-30T13:42:16.99Z</time></trkpt><trkpt lat="39.582336181760446" lon="9.359791300560525"><ele>248.33333333333334</ele><time>2026-04-30T13:42:17.99Z</time></trkpt><trkpt lat="39.582433541911264" lon="9.35956879612665"><ele>254.0</ele><time>2026-04-30T13:42:18.99Z</time></trkpt><trkpt lat="39.58255885004996" lon="9.359353266723131"><ele>254.0</ele><time>2026-04-30T13:42:19.99Z</time></trkpt><trkpt lat="39.58270037699721" lon="9.359158441736833"><ele>254.0</ele><time>2026-04-30T13:42:20.99Z</time></trkpt><trkpt lat="39.58285344072659" lon="9.35897513756287"><ele>254.0</ele><time>2026-04-30T13:42:21.99Z</time></trkpt><trkpt lat="39.58301537178907" lon="9.35879922908788"><ele>253.33333333333334</ele><time>2026-04-30T13:42:22.99Z</time></trkpt><trkpt lat="39.583173867924074" lon="9.358615123121286"><ele>252.66666666666669</ele><time>2026-04-30T13:42:23.99Z</time></trkpt><trkpt lat="39.58333098186629" lon="9.358434010534488"><ele>252.0</ele><time>2026-04-30T13:42:24.99Z</time></trkpt><trkpt lat="39.583490915081214" lon="9.358260280724814"><ele>252.0</ele><time>2026-04-30T13:42:25.99Z</time></trkpt><trkpt lat="39.583648544453716" lon="9.358084945797046"><ele>252.0</ele><time>2026-04-30T13:42:26.99Z</time></trkpt><trkpt lat="39.58380306304868" lon="9.357926912387526"><ele>252.0</ele><time>2026-04-30T13:42:27.99Z</time></trkpt><trkpt lat="39.583961623724726" lon="9.357824971760435"><ele>250.0</ele><time>2026-04-30T13:42:28.99Z</time></trkpt><trkpt lat="39.584144095354375" lon="9.357784342553995"><ele>248.0</ele><time>2026-04-30T13:42:29.99Z</time></trkpt><trkpt lat="39.58433539642075" lon="9.357756078979168"><ele>246.0</ele><time>2026-04-30T13:42:30.99Z</time></trkpt><trkpt lat="39.58452919042508" lon="9.357707086720806"><ele>250.66666666666669</ele><time>2026-04-30T13:42:31.99Z</time></trkpt><trkpt lat="39.584733321957664" lon="9.357659493171726"><ele>255.33333333333334</ele><time>2026-04-30T13:42:32.99Z</time></trkpt><trkpt lat="39.584937506937294" lon="9.357612996520583"><ele>260.0</ele><time>2026-04-30T13:42:33.99Z</time></trkpt><trkpt lat="39.58514760161823" lon="9.35756420657384"><ele>263.6666666666667</ele><time>2026-04-30T13:42:34.99Z</time></trkpt><trkpt lat="39.5853589104091" lon="9.357518952624385"><ele>267.3333333333333</ele><time>2026-04-30T13:42:35.99Z</time></trkpt><trkpt lat="39.58557095289352" lon="9.357469021404299"><ele>271.0</ele><time>2026-04-30T13:42:36.99Z</time></trkpt><trkpt lat="39.58578125753152" lon="9.357403204584879"><ele>271.0</ele><time>2026-04-30T13:42:37.99Z</time></trkpt><trkpt lat="39.585990831103935" lon="9.357325197574607"><ele>271.0</ele><time>2026-04-30T13:42:38.99Z</time></trkpt><trkpt lat="39.58619737676189" lon="9.357238922637983"><ele>271.0</ele><time>2026-04-30T13:42:39.99Z</time></trkpt><trkpt lat="39.58639949889474" lon="9.357153837804859"><ele>271.66666666666663</ele><time>2026-04-30T13:42:40.99Z</time></trkpt><trkpt lat="39.58658019391884" lon="9.357077642310072"><ele>272.3333333333333</ele><time>2026-04-30T13:42:41.99Z</time></trkpt><trkpt lat="39.586723030778174" lon="9.356962381506296"><ele>273.0</ele><time>2026-04-30T13:42:42.99Z</time></trkpt><trkpt lat="39.58682935263094" lon="9.356775084483427"><ele>273.0</ele><time>2026-04-30T13:42:43.99Z</time></trkpt><trkpt lat="39.58690308581412" lon="9.356547088682193"><ele>273.0</ele><time>2026-04-30T13:42:44.99Z</time></trkpt><trkpt lat="39.586961941379755" lon="9.35631135809001"><ele>273.0</ele><time>2026-04-30T13:42:45.99Z</time></trkpt><trkpt lat="39.58702784281973" lon="9.356075094406746"><ele>276.3333333333333</ele><time>2026-04-30T13:42:46.99Z</time></trkpt><trkpt lat="39.5871183994089" lon="9.355867054408563"><ele>279.66666666666663</ele><time>2026-04-30T13:42:47.99Z</time></trkpt><trkpt lat="39.587241687277796" lon="9.355728275741154"><ele>283.0</ele><time>2026-04-30T13:42:48.99Z</time></trkpt><trkpt lat="39.58738277289349" lon="9.355671777209924"><ele>283.0</ele><time>2026-04-30T13:42:49.99Z</time></trkpt><trkpt lat="39.58753225768603" lon="9.355688089393283"><ele>283.0</ele><time>2026-04-30T13:42:50.99Z</time></trkpt><trkpt lat="39.58768710594108" lon="9.355735740994962"><ele>283.0</ele><time>2026-04-30T13:42:51.99Z</time></trkpt><trkpt lat="39.58786020076398" lon="9.35576964514412"><ele>282.66666666666663</ele><time>2026-04-30T13:42:52.99Z</time></trkpt><trkpt lat="39.58801268178203" lon="9.35573728363864"><ele>282.3333333333333</ele><time>2026-04-30T13:42:53.99Z</time></trkpt><trkpt lat="39.588137170344595" lon="9.35561759740387"><ele>282.0</ele><time>2026-04-30T13:42:54.989Z</time></trkpt><trkpt lat="39.58823831355587" lon="9.35545039233146"><ele>282.0</ele><time>2026-04-30T13:42:55.989Z</time></trkpt><trkpt lat="39.588345825347275" lon="9.355266324987582"><ele>282.0</ele><time>2026-04-30T13:42:56.989Z</time></trkpt><trkpt lat="39.58846381423703" lon="9.355092655102501"><ele>282.0</ele><time>2026-04-30T13:42:57.989Z</time></trkpt><trkpt lat="39.588586363762694" lon="9.354920335520841"><ele>280.3333333333333</ele><time>2026-04-30T13:42:58.989Z</time></trkpt><trkpt lat="39.58870705472219" lon="9.35474697573421"><ele>278.66666666666663</ele><time>2026-04-30T13:42:59.989Z</time></trkpt><trkpt lat="39.58882781679966" lon="9.354614877710917"><ele>277.0</ele><time>2026-04-30T13:43:00.989Z</time></trkpt><trkpt lat="39.588968347291654" lon="9.354545244699967"><ele>277.0</ele><time>2026-04-30T13:43:01.989Z</time></trkpt><trkpt lat="39.58913217495829" lon="9.35451635174792"><ele>277.0</ele><time>2026-04-30T13:43:02.989Z</time></trkpt><trkpt lat="39.5893050070526" lon="9.354541639104493"><ele>277.0</ele><time>2026-04-30T13:43:03.989Z</time></trkpt><trkpt lat="39.589475735601006" lon="9.354575988319082"><ele>284.0</ele><time>2026-04-30T13:43:04.989Z</time></trkpt><trkpt lat="39.58964762542455" lon="9.354583999927117"><ele>291.0</ele><time>2026-04-30T13:43:05.989Z</time></trkpt><trkpt lat="39.5898002428264" lon="9.35449835344619"><ele>298.0</ele><time>2026-04-30T13:43:06.989Z</time></trkpt><trkpt lat="39.58991876485483" lon="9.354345098246013"><ele>298.0</ele><time>2026-04-30T13:43:07.989Z</time></trkpt><trkpt lat="39.58998784935408" lon="9.35414238753392"><ele>298.0</ele><time>2026-04-30T13:43:08.989Z</time></trkpt><trkpt lat="39.590018323916134" lon="9.353913985504851"><ele>298.0</ele><time>2026-04-30T13:43:09.989Z</time></trkpt><trkpt lat="39.590039421637506" lon="9.353675172039756"><ele>295.66666666666663</ele><time>2026-04-30T13:43:10.989Z</time></trkpt><trkpt lat="39.59007982919283" lon="9.35344926933857"><ele>293.3333333333333</ele><time>2026-04-30T13:43:11.989Z</time></trkpt><trkpt lat="39.590163483568325" lon="9.35326807094559"><ele>291.0</ele><time>2026-04-30T13:43:12.989Z</time></trkpt><trkpt lat="39.59030214083406" lon="9.3531251377414"><ele>295.6666666666667</ele><time>2026-04-30T13:43:13.989Z</time></trkpt><trkpt lat="39.59044918439853" lon="9.352992060217261"><ele>300.33333333333337</ele><time>2026-04-30T13:43:14.989Z</time></trkpt><trkpt lat="39.59060371826965" lon="9.35284874231447"><ele>305.0</ele><time>2026-04-30T13:43:15.989Z</time></trkpt><trkpt lat="39.59075806735511" lon="9.352696061017388"><ele>305.0</ele><time>2026-04-30T13:43:16.989Z</time></trkpt><trkpt lat="39.590905643181834" lon="9.352544969278615"><ele>305.0</ele><time>2026-04-30T13:43:17.989Z</time></trkpt><trkpt lat="39.591038735031745" lon="9.352409417196741"><ele>305.0</ele><time>2026-04-30T13:43:18.989Z</time></trkpt><trkpt lat="39.591153939673745" lon="9.352266243857764"><ele>302.33333333333337</ele><time>2026-04-30T13:43:19.989Z</time></trkpt><trkpt lat="39.59122606966093" lon="9.352083715620198"><ele>299.6666666666667</ele><time>2026-04-30T13:43:20.989Z</time></trkpt><trkpt lat="39.59126969100518" lon="9.351884480966824"><ele>297.0</ele><time>2026-04-30T13:43:21.989Z</time></trkpt><trkpt lat="39.59132451387495" lon="9.351686894006773"><ele>297.0</ele><time>2026-04-30T13:43:22.989Z</time></trkpt><trkpt lat="39.591430960375924" lon="9.351519267217354"><ele>297.0</ele><time>2026-04-30T13:43:23.989Z</time></trkpt><trkpt lat="39.591576235924826" lon="9.351412601369864"><ele>297.0</ele><time>2026-04-30T13:43:24.989Z</time></trkpt><trkpt lat="39.59174908198587" lon="9.351367661317973"><ele>294.0</ele><time>2026-04-30T13:43:25.989Z</time></trkpt><trkpt lat="39.59193493724767" lon="9.351361364267412"><ele>291.0</ele><time>2026-04-30T13:43:26.989Z</time></trkpt><trkpt lat="39.59212615654101" lon="9.35137398204363"><ele>288.0</ele><time>2026-04-30T13:43:27.989Z</time></trkpt><trkpt lat="39.592320334819505" lon="9.35137807868738"><ele>288.0</ele><time>2026-04-30T13:43:28.989Z</time></trkpt><trkpt lat="39.59250271876834" lon="9.351374662317486"><ele>288.0</ele><time>2026-04-30T13:43:29.989Z</time></trkpt><trkpt lat="39.59268627796706" lon="9.351367050534076"><ele>288.0</ele><time>2026-04-30T13:43:30.989Z</time></trkpt><trkpt lat="39.59287078853092" lon="9.351339257011603"><ele>293.0</ele><time>2026-04-30T13:43:31.989Z</time></trkpt><trkpt lat="39.59305007310018" lon="9.351275693543933"><ele>298.0</ele><time>2026-04-30T13:43:32.989Z</time></trkpt><trkpt lat="39.59323543088763" lon="9.3512018632322"><ele>303.0</ele><time>2026-04-30T13:43:33.989Z</time></trkpt><trkpt lat="39.59342422828415" lon="9.351123030004299"><ele>303.0</ele><time>2026-04-30T13:43:34.989Z</time></trkpt><trkpt lat="39.593613129482286" lon="9.351046283169337"><ele>303.0</ele><time>2026-04-30T13:43:35.989Z</time></trkpt><trkpt lat="39.59379717260838" lon="9.350962512309907"><ele>303.0</ele><time>2026-04-30T13:43:36.989Z</time></trkpt><trkpt lat="39.59397668477377" lon="9.350863658132093"><ele>299.0</ele><time>2026-04-30T13:43:37.989Z</time></trkpt><trkpt lat="39.59414616343416" lon="9.350751412590842"><ele>295.0</ele><time>2026-04-30T13:43:38.989Z</time></trkpt><trkpt lat="39.59430647872893" lon="9.350646033601667"><ele>291.0</ele><time>2026-04-30T13:43:39.989Z</time></trkpt><trkpt lat="39.594461869070464" lon="9.35055556738257"><ele>291.0</ele><time>2026-04-30T13:43:40.989Z</time></trkpt><trkpt lat="39.5946202445846" lon="9.35050404191921"><ele>291.0</ele><time>2026-04-30T13:43:41.989Z</time></trkpt><trkpt lat="39.59476902767492" lon="9.350525564817405"><ele>291.0</ele><time>2026-04-30T13:43:42.989Z</time></trkpt><trkpt lat="39.594902077404235" lon="9.350618073459659"><ele>291.0</ele><time>2026-04-30T13:43:43.989Z</time></trkpt><trkpt lat="39.595010160735306" lon="9.350767603446553"><ele>291.0</ele><time>2026-04-30T13:43:44.989Z</time></trkpt><trkpt lat="39.595093240167756" lon="9.350965537212955"><ele>291.0</ele><time>2026-04-30T13:43:45.989Z</time></trkpt><trkpt lat="39.595151014923026" lon="9.351196334560608"><ele>290.6666666666667</ele><time>2026-04-30T13:43:46.989Z</time></trkpt><trkpt lat="39.595249709508415" lon="9.351403540536"><ele>290.33333333333337</ele><time>2026-04-30T13:43:47.989Z</time></trkpt><trkpt lat="39.59537407670539" lon="9.351583674957267"><ele>290.0</ele><time>2026-04-30T13:43:48.989Z</time></trkpt><trkpt lat="39.59551890872091" lon="9.351733677896961"><ele>290.0</ele><time>2026-04-30T13:43:49.989Z</time></trkpt><trkpt lat="39.59569048666962" lon="9.351854433468437"><ele>290.0</ele><time>2026-04-30T13:43:50.989Z</time></trkpt><trkpt lat="39.59588073032484" lon="9.351948680137367"><ele>290.0</ele><time>2026-04-30T13:43:51.989Z</time></trkpt><trkpt lat="39.59607962522762" lon="9.352018785242642"><ele>292.33333333333337</ele><time>2026-04-30T13:43:52.989Z</time></trkpt><trkpt lat="39.59628586391686" lon="9.352074430106196"><ele>294.6666666666667</ele><time>2026-04-30T13:43:53.989Z</time></trkpt><trkpt lat="39.596492604232076" lon="9.352125653111084"><ele>297.0</ele><time>2026-04-30T13:43:54.989Z</time></trkpt><trkpt lat="39.59670209424117" lon="9.35218004483479"><ele>291.3333333333333</ele><time>2026-04-30T13:43:55.989Z</time></trkpt><trkpt lat="39.59691364330867" lon="9.352242784337468"><ele>285.66666666666663</ele><time>2026-04-30T13:43:56.989Z</time></trkpt><trkpt lat="39.59712358941097" lon="9.352293306512934"><ele>280.0</ele><time>2026-04-30T13:43:57.989Z</time></trkpt><trkpt lat="39.59733815354031" lon="9.352335318715074"><ele>280.0</ele><time>2026-04-30T13:43:58.989Z</time></trkpt><trkpt lat="39.597546632526004" lon="9.352379811369886"><ele>280.0</ele><time>2026-04-30T13:43:59.989Z</time></trkpt><trkpt lat="39.5977575227913" lon="9.352433650270719"><ele>280.0</ele><time>2026-04-30T13:44:00.99Z</time></trkpt><trkpt lat="39.597961550908856" lon="9.352502207240091"><ele>283.0</ele><time>2026-04-30T13:44:01.99Z</time></trkpt><trkpt lat="39.598163877030636" lon="9.352587442726929"><ele>286.0</ele><time>2026-04-30T13:44:02.99Z</time></trkpt><trkpt lat="39.59837178108037" lon="9.352666731787327"><ele>289.0</ele><time>2026-04-30T13:44:03.99Z</time></trkpt><trkpt lat="39.598574876614165" lon="9.352744582650217"><ele>289.3333333333333</ele><time>2026-04-30T13:44:04.99Z</time></trkpt><trkpt lat="39.59877297250235" lon="9.352804451865389"><ele>289.6666666666667</ele><time>2026-04-30T13:44:05.99Z</time></trkpt><trkpt lat="39.59895938039744" lon="9.352840646713492"><ele>290.0</ele><time>2026-04-30T13:44:06.99Z</time></trkpt><trkpt lat="39.59911681822343" lon="9.352895250337427"><ele>290.0</ele><time>2026-04-30T13:44:07.99Z</time></trkpt><trkpt lat="39.59927000409777" lon="9.352946720230314"><ele>290.0</ele><time>2026-04-30T13:44:08.99Z</time></trkpt><trkpt lat="39.599402449790816" lon="9.353032354671436"><ele>290.0</ele><time>2026-04-30T13:44:09.99Z</time></trkpt><trkpt lat="39.59949813559118" lon="9.353176671873115"><ele>289.0</ele><time>2026-04-30T13:44:10.989Z</time></trkpt><trkpt lat="39.5995409431155" lon="9.353358269512938"><ele>288.0</ele><time>2026-04-30T13:44:11.989Z</time></trkpt><trkpt lat="39.59953575756593" lon="9.353557008436354"><ele>287.0</ele><time>2026-04-30T13:44:12.99Z</time></trkpt><trkpt lat="39.5994910223283" lon="9.353778890934931"><ele>279.33333333333337</ele><time>2026-04-30T13:44:13.99Z</time></trkpt><trkpt lat="39.59944669232086" lon="9.354015972154517"><ele>271.6666666666667</ele><time>2026-04-30T13:44:14.99Z</time></trkpt><trkpt lat="39.59940048046022" lon="9.354243099685641"><ele>264.0</ele><time>2026-04-30T13:44:15.99Z</time></trkpt><trkpt lat="39.59933166762494" lon="9.354453773982888"><ele>264.0</ele><time>2026-04-30T13:44:16.99Z</time></trkpt><trkpt lat="39.59924326576583" lon="9.354652663741682"><ele>264.0</ele><time>2026-04-30T13:44:17.99Z</time></trkpt><trkpt lat="39.59916368086252" lon="9.354854973556176"><ele>264.0</ele><time>2026-04-30T13:44:18.99Z</time></trkpt><trkpt lat="39.59911655202496" lon="9.355084254666709"><ele>263.6666666666667</ele><time>2026-04-30T13:44:19.99Z</time></trkpt><trkpt lat="39.59910657013637" lon="9.355327660122617"><ele>263.33333333333337</ele><time>2026-04-30T13:44:20.99Z</time></trkpt><trkpt lat="39.599123464397856" lon="9.355568770941995"><ele>263.0</ele><time>2026-04-30T13:44:21.99Z</time></trkpt><trkpt lat="39.59914929885095" lon="9.355793588782076"><ele>263.0</ele><time>2026-04-30T13:44:22.99Z</time></trkpt><trkpt lat="39.59919396572516" lon="9.356001907741055"><ele>263.0</ele><time>2026-04-30T13:44:23.99Z</time></trkpt><trkpt lat="39.59928603905187" lon="9.356195291393375"><ele>263.0</ele><time>2026-04-30T13:44:24.99Z</time></trkpt><trkpt lat="39.599411748379055" lon="9.356355531860238"><ele>262.6666666666667</ele><time>2026-04-30T13:44:25.99Z</time></trkpt><trkpt lat="39.59954670182181" lon="9.356507287910208"><ele>262.3333333333333</ele><time>2026-04-30T13:44:26.99Z</time></trkpt><trkpt lat="39.59968244349138" lon="9.35666517189569"><ele>262.0</ele><time>2026-04-30T13:44:27.99Z</time></trkpt><trkpt lat="39.59982646968314" lon="9.356823869582357"><ele>262.0</ele><time>2026-04-30T13:44:28.99Z</time></trkpt><trkpt lat="39.59998298981791" lon="9.356937779042402"><ele>262.0</ele><time>2026-04-30T13:44:29.99Z</time></trkpt><trkpt lat="39.600152399127325" lon="9.357018623698874"><ele>262.0</ele><time>2026-04-30T13:44:30.99Z</time></trkpt><trkpt lat="39.600349194499685" lon="9.357045909446645"><ele>259.0</ele><time>2026-04-30T13:44:31.99Z</time></trkpt><trkpt lat="39.600543719210826" lon="9.357017579748518"><ele>256.0</ele><time>2026-04-30T13:44:32.99Z</time></trkpt><trkpt lat="39.600727193767376" lon="9.35695129371418"><ele>253.0</ele><time>2026-04-30T13:44:33.99Z</time></trkpt><trkpt lat="39.600903265287975" lon="9.356864068774009"><ele>253.0</ele><time>2026-04-30T13:44:34.99Z</time></trkpt><trkpt lat="39.60106543929917" lon="9.356739950348432"><ele>253.0</ele><time>2026-04-30T13:44:35.99Z</time></trkpt><trkpt lat="39.60119805647577" lon="9.356566356399231"><ele>253.0</ele><time>2026-04-30T13:44:36.99Z</time></trkpt><trkpt lat="39.60130832457612" lon="9.356349393896707"><ele>248.0</ele><time>2026-04-30T13:44:37.99Z</time></trkpt><trkpt lat="39.60140116981626" lon="9.356121758018556"><ele>243.0</ele><time>2026-04-30T13:44:38.99Z</time></trkpt><trkpt lat="39.60150028115924" lon="9.355900294838596"><ele>238.0</ele><time>2026-04-30T13:44:39.99Z</time></trkpt><trkpt lat="39.60160700915935" lon="9.35568188720302"><ele>240.33333333333331</ele><time>2026-04-30T13:44:40.989Z</time></trkpt><trkpt lat="39.6017194348501" lon="9.355465421102837"><ele>242.66666666666669</ele><time>2026-04-30T13:44:41.989Z</time></trkpt><trkpt lat="39.601819592122304" lon="9.35522661796513"><ele>245.0</ele><time>2026-04-30T13:44:42.989Z</time></trkpt><trkpt lat="39.60190489771699" lon="9.354978474080411"><ele>245.0</ele><time>2026-04-30T13:44:43.989Z</time></trkpt><trkpt lat="39.601976313926585" lon="9.354720196134485"><ele>245.0</ele><time>2026-04-30T13:44:44.989Z</time></trkpt><trkpt lat="39.602041345729724" lon="9.354453450691311"><ele>245.0</ele><time>2026-04-30T13:44:45.989Z</time></trkpt><trkpt lat="39.602110525949854" lon="9.354181686915256"><ele>238.0</ele><time>2026-04-30T13:44:46.989Z</time></trkpt><trkpt lat="39.60215973081089" lon="9.353906140224002"><ele>231.0</ele><time>2026-04-30T13:44:47.989Z</time></trkpt><trkpt lat="39.60218615226687" lon="9.35361093243144"><ele>224.0</ele><time>2026-04-30T13:44:48.989Z</time></trkpt><trkpt lat="39.60220327495581" lon="9.353318931973677"><ele>224.0</ele><time>2026-04-30T13:44:49.989Z</time></trkpt><trkpt lat="39.602233439016786" lon="9.353044557099084"><ele>224.0</ele><time>2026-04-30T13:44:50.989Z</time></trkpt><trkpt lat="39.60231329446482" lon="9.352823717254052"><ele>224.0</ele><time>2026-04-30T13:44:51.989Z</time></trkpt><trkpt lat="39.60237423226035" lon="9.352644898785526"><ele>224.33333333333334</ele><time>2026-04-30T13:44:52.989Z</time></trkpt><trkpt lat="39.60245791379052" lon="9.3525015643106"><ele>224.66666666666669</ele><time>2026-04-30T13:44:53.989Z</time></trkpt><trkpt lat="39.602720895401895" lon="9.3523594130284"><ele>225.0</ele><time>2026-04-30T13:44:54.989Z</time></trkpt><trkpt lat="39.60301715612177" lon="9.352276188525654"><ele>219.0</ele><time>2026-04-30T13:44:55.989Z</time></trkpt><trkpt lat="39.60325297414043" lon="9.352178499379484"><ele>213.0</ele><time>2026-04-30T13:44:56.989Z</time></trkpt><trkpt lat="39.603480594424724" lon="9.352083748964564"><ele>211.0</ele><time>2026-04-30T13:44:57.989Z</time></trkpt><trkpt lat="39.60370849601721" lon="9.35197435855444"><ele>209.0</ele><time>2026-04-30T13:44:58.989Z</time></trkpt><trkpt lat="39.60393410117774" lon="9.351869034483066"><ele>209.0</ele><time>2026-04-30T13:44:59.989Z</time></trkpt><trkpt lat="39.60416343521567" lon="9.351761235096701"><ele>209.0</ele><time>2026-04-30T13:45:00.989Z</time></trkpt><trkpt lat="39.60439817906575" lon="9.351653928259639"><ele>208.0</ele><time>2026-04-30T13:45:01.989Z</time></trkpt><trkpt lat="39.604638212320054" lon="9.351542930736683"><ele>207.0</ele><time>2026-04-30T13:45:02.989Z</time></trkpt><trkpt lat="39.60487792060347" lon="9.351428906538372"><ele>206.5</ele><time>2026-04-30T13:45:03.989Z</time></trkpt><trkpt lat="39.60512090984945" lon="9.351317392261642"><ele>206.0</ele><time>2026-04-30T13:45:04.989Z</time></trkpt><trkpt lat="39.60536656652503" lon="9.35120524357007"><ele>204.0</ele><time>2026-04-30T13:45:05.989Z</time></trkpt><trkpt lat="39.605606232623835" lon="9.35109023724745"><ele>202.0</ele><time>2026-04-30T13:45:06.989Z</time></trkpt><trkpt lat="39.605842207477885" lon="9.35097409922622"><ele>202.0</ele><time>2026-04-30T13:45:07.989Z</time></trkpt><trkpt lat="39.606078477101434" lon="9.35086151137514"><ele>202.0</ele><time>2026-04-30T13:45:08.989Z</time></trkpt><trkpt lat="39.606316031754446" lon="9.350744459396006"><ele>202.0</ele><time>2026-04-30T13:45:09.989Z</time></trkpt><trkpt lat="39.60654817385706" lon="9.350630058757622"><ele>202.0</ele><time>2026-04-30T13:45:10.989Z</time></trkpt><trkpt lat="39.60677966201011" lon="9.350518395853552"><ele>203.0</ele><time>2026-04-30T13:45:11.989Z</time></trkpt><trkpt lat="39.60701074230718" lon="9.350410555794053"><ele>204.0</ele><time>2026-04-30T13:45:12.989Z</time></trkpt><trkpt lat="39.60723666311886" lon="9.35029911391136"><ele>204.0</ele><time>2026-04-30T13:45:13.989Z</time></trkpt><trkpt lat="39.607459826029455" lon="9.350178370259682"><ele>204.0</ele><time>2026-04-30T13:45:14.989Z</time></trkpt><trkpt lat="39.60768522080565" lon="9.350042646594293"><ele>204.0</ele><time>2026-04-30T13:45:15.989Z</time></trkpt><trkpt lat="39.60789939083467" lon="9.34988347038958"><ele>204.0</ele><time>2026-04-30T13:45:16.989Z</time></trkpt><trkpt lat="39.608105371793926" lon="9.349697370964382"><ele>205.5</ele><time>2026-04-30T13:45:17.989Z</time></trkpt><trkpt lat="39.60830276003695" lon="9.3495005260462"><ele>207.0</ele><time>2026-04-30T13:45:18.989Z</time></trkpt><trkpt lat="39.60850047465152" lon="9.349303128838098"><ele>206.5</ele><time>2026-04-30T13:45:19.989Z</time></trkpt><trkpt lat="39.60870319717554" lon="9.349112271577933"><ele>206.0</ele><time>2026-04-30T13:45:20.989Z</time></trkpt><trkpt lat="39.608903895079905" lon="9.348916854416482"><ele>207.0</ele><time>2026-04-30T13:45:21.989Z</time></trkpt><trkpt lat="39.609106267890695" lon="9.348718554841899"><ele>208.0</ele><time>2026-04-30T13:45:22.989Z</time></trkpt><trkpt lat="39.60930468514301" lon="9.348525573342274"><ele>208.0</ele><time>2026-04-30T13:45:23.989Z</time></trkpt><trkpt lat="39.60947938201469" lon="9.348322565950681"><ele>208.0</ele><time>2026-04-30T13:45:24.989Z</time></trkpt><trkpt lat="39.60962031153599" lon="9.348083904267138"><ele>208.5</ele><time>2026-04-30T13:45:25.989Z</time></trkpt><trkpt lat="39.60971782910594" lon="9.347805151750324"><ele>209.0</ele><time>2026-04-30T13:45:26.989Z</time></trkpt><trkpt lat="39.60976978624902" lon="9.347520079714785"><ele>209.0</ele><time>2026-04-30T13:45:27.989Z</time></trkpt><trkpt lat="39.6098116333283" lon="9.34722565494426"><ele>209.0</ele><time>2026-04-30T13:45:28.989Z</time></trkpt><trkpt lat="39.60985845590003" lon="9.346947392113712"><ele>209.0</ele><time>2026-04-30T13:45:29.989Z</time></trkpt><trkpt lat="39.609927315231516" lon="9.34669367017565"><ele>209.0</ele><time>2026-04-30T13:45:30.989Z</time></trkpt><trkpt lat="39.61004436347567" lon="9.346504499490997"><ele>209.0</ele><time>2026-04-30T13:45:31.989Z</time></trkpt><trkpt lat="39.610195894074685" lon="9.346372880279395"><ele>211.0</ele><time>2026-04-30T13:45:32.989Z</time></trkpt><trkpt lat="39.61038546970391" lon="9.346278040129695"><ele>213.0</ele><time>2026-04-30T13:45:33.989Z</time></trkpt><trkpt lat="39.61057589812654" lon="9.346171410139585"><ele>215.0</ele><time>2026-04-30T13:45:34.989Z</time></trkpt><trkpt lat="39.61076698890322" lon="9.346039886011322"><ele>215.0</ele><time>2026-04-30T13:45:35.989Z</time></trkpt><trkpt lat="39.61095769957767" lon="9.345903595526154"><ele>215.0</ele><time>2026-04-30T13:45:36.989Z</time></trkpt><trkpt lat="39.61114495926421" lon="9.345751518042416"><ele>215.0</ele><time>2026-04-30T13:45:37.989Z</time></trkpt><trkpt lat="39.61132688206594" lon="9.345578962223408"><ele>215.66666666666669</ele><time>2026-04-30T13:45:38.989Z</time></trkpt><trkpt lat="39.61149823869348" lon="9.345400254883907"><ele>216.33333333333331</ele><time>2026-04-30T13:45:39.989Z</time></trkpt><trkpt lat="39.61166850841299" lon="9.345222644700046"><ele>217.0</ele><time>2026-04-30T13:45:40.989Z</time></trkpt><trkpt lat="39.61184005128134" lon="9.345046303185816"><ele>217.66666666666666</ele><time>2026-04-30T13:45:41.989Z</time></trkpt><trkpt lat="39.61201260523316" lon="9.344871171317152"><ele>218.33333333333331</ele><time>2026-04-30T13:45:42.989Z</time></trkpt><trkpt lat="39.61218437785177" lon="9.344694577274243"><ele>219.0</ele><time>2026-04-30T13:45:43.989Z</time></trkpt><trkpt lat="39.61235688799718" lon="9.344517668076373"><ele>219.0</ele><time>2026-04-30T13:45:44.989Z</time></trkpt><trkpt lat="39.612524418925126" lon="9.344346871354103"><ele>219.0</ele><time>2026-04-30T13:45:45.989Z</time></trkpt><trkpt lat="39.612697637009276" lon="9.344171761522807"><ele>219.0</ele><time>2026-04-30T13:45:46.989Z</time></trkpt><trkpt lat="39.61286366127871" lon="9.343997595885256"><ele>218.66666666666669</ele><time>2026-04-30T13:45:47.989Z</time></trkpt><trkpt lat="39.613039072008526" lon="9.34382301722199"><ele>218.33333333333334</ele><time>2026-04-30T13:45:48.989Z</time></trkpt><trkpt lat="39.613214475149555" lon="9.343648230199754"><ele>218.0</ele><time>2026-04-30T13:45:49.989Z</time></trkpt><trkpt lat="39.61338542029861" lon="9.343487069743974"><ele>218.0</ele><time>2026-04-30T13:45:50.989Z</time></trkpt><trkpt lat="39.6135474149617" lon="9.343340554510819"><ele>218.0</ele><time>2026-04-30T13:45:51.989Z</time></trkpt><trkpt lat="39.613691857796574" lon="9.343204273692349"><ele>218.0</ele><time>2026-04-30T13:45:52.989Z</time></trkpt><trkpt lat="39.61380815294667" lon="9.343084620722168"><ele>219.2</ele><time>2026-04-30T13:45:53.989Z</time></trkpt><trkpt lat="39.6139019407765" lon="9.34298537572186"><ele>220.4</ele><time>2026-04-30T13:45:54.989Z</time></trkpt><trkpt lat="39.613977119483025" lon="9.342904232853028"><ele>221.59999999999997</ele><time>2026-04-30T13:45:55.989Z</time></trkpt><trkpt lat="39.61403439009814" lon="9.342842915192698"><ele>222.79999999999998</ele><time>2026-04-30T13:45:56.989Z</time></trkpt><trkpt lat="39.61409406770691" lon="9.342781068037803"><ele>224.0</ele><time>2026-04-30T13:45:58.989Z</time></trkpt><trkpt lat="39.61417113034666" lon="9.342689059350898"><ele>224.0</ele><time>2026-04-30T13:47:35.989Z</time></trkpt><trkpt lat="39.614223906151764" lon="9.342638126205369"><ele>223.99999999999997</ele><time>2026-04-30T13:47:36.989Z</time></trkpt><trkpt lat="39.614286738541814" lon="9.342575824757139"><ele>223.99999999999997</ele><time>2026-04-30T13:47:37.989Z</time></trkpt><trkpt lat="39.61435646064945" lon="9.342493724473739"><ele>224.0</ele><time>2026-04-30T13:47:38.989Z</time></trkpt><trkpt lat="39.61443686627772" lon="9.342393316892718"><ele>224.0</ele><time>2026-04-30T13:47:39.989Z</time></trkpt><trkpt lat="39.61452526171062" lon="9.342282749018022"><ele>224.25</ele><time>2026-04-30T13:47:40.989Z</time></trkpt><trkpt lat="39.61461466166689" lon="9.342142003886224"><ele>224.5</ele><time>2026-04-30T13:47:41.989Z</time></trkpt><trkpt lat="39.61470250721958" lon="9.341988006231736"><ele>224.75</ele><time>2026-04-30T13:47:42.989Z</time></trkpt><trkpt lat="39.61479349740816" lon="9.34181579135995"><ele>225.0</ele><time>2026-04-30T13:47:43.989Z</time></trkpt><trkpt lat="39.61489430556536" lon="9.341621841794776"><ele>225.0</ele><time>2026-04-30T13:47:44.989Z</time></trkpt><trkpt lat="39.614990254891275" lon="9.341427068659518"><ele>225.0</ele><time>2026-04-30T13:47:45.989Z</time></trkpt><trkpt lat="39.615095914988224" lon="9.341227117531437"><ele>225.0</ele><time>2026-04-30T13:47:46.989Z</time></trkpt><trkpt lat="39.61519947992439" lon="9.341020781142904"><ele>227.0</ele><time>2026-04-30T13:47:47.989Z</time></trkpt><trkpt lat="39.61530962145545" lon="9.340804582727745"><ele>229.0</ele><time>2026-04-30T13:47:48.989Z</time></trkpt><trkpt lat="39.615422943036045" lon="9.340580910303835"><ele>231.0</ele><time>2026-04-30T13:47:49.989Z</time></trkpt><trkpt lat="39.61553929186735" lon="9.340348369889242"><ele>233.66666666666669</ele><time>2026-04-30T13:47:50.989Z</time></trkpt><trkpt lat="39.615663172814656" lon="9.340111656137363"><ele>236.33333333333334</ele><time>2026-04-30T13:47:51.989Z</time></trkpt><trkpt lat="39.6157927399207" lon="9.339870599176146"><ele>239.0</ele><time>2026-04-30T13:47:52.989Z</time></trkpt><trkpt lat="39.61592900696054" lon="9.339635078705394"><ele>242.5</ele><time>2026-04-30T13:47:53.989Z</time></trkpt><trkpt lat="39.616067884383995" lon="9.339398041655407"><ele>246.0</ele><time>2026-04-30T13:47:54.989Z</time></trkpt><trkpt lat="39.61620721273327" lon="9.339149864498197"><ele>246.0</ele><time>2026-04-30T13:47:55.989Z</time></trkpt><trkpt lat="39.61634860122489" lon="9.338902154573335"><ele>246.0</ele><time>2026-04-30T13:47:56.989Z</time></trkpt><trkpt lat="39.6164890407958" lon="9.33865215658932"><ele>250.5</ele><time>2026-04-30T13:47:57.989Z</time></trkpt><trkpt lat="39.61662105674129" lon="9.338391514142414"><ele>255.0</ele><time>2026-04-30T13:47:58.989Z</time></trkpt><trkpt lat="39.61674310852269" lon="9.33811475811233"><ele>264.0</ele><time>2026-04-30T13:47:59.988Z</time></trkpt><trkpt lat="39.616862736684304" lon="9.33782574346054"><ele>273.0</ele><time>2026-04-30T13:48:00.988Z</time></trkpt><trkpt lat="39.61697780264725" lon="9.337535861118077"><ele>272.5</ele><time>2026-04-30T13:48:01.988Z</time></trkpt><trkpt lat="39.61708536856537" lon="9.337253403012221"><ele>272.0</ele><time>2026-04-30T13:48:02.988Z</time></trkpt><trkpt lat="39.61719096168902" lon="9.336982720049589"><ele>272.0</ele><time>2026-04-30T13:48:03.988Z</time></trkpt><trkpt lat="39.617286584943734" lon="9.336745868143701"><ele>272.0</ele><time>2026-04-30T13:48:04.988Z</time></trkpt><trkpt lat="39.617375046078585" lon="9.33652582902067"><ele>272.0</ele><time>2026-04-30T13:48:05.988Z</time></trkpt><trkpt lat="39.61747760262923" lon="9.336326679985795"><ele>274.0</ele><time>2026-04-30T13:48:06.988Z</time></trkpt><trkpt lat="39.61761546313532" lon="9.336161983184196"><ele>276.0</ele><time>2026-04-30T13:48:07.988Z</time></trkpt><trkpt lat="39.617779305851045" lon="9.336055267978598"><ele>278.0</ele><time>2026-04-30T13:48:08.988Z</time></trkpt><trkpt lat="39.61795183910171" lon="9.33600751646273"><ele>278.0</ele><time>2026-04-30T13:48:09.988Z</time></trkpt><trkpt lat="39.61812854497781" lon="9.336006192448489"><ele>278.0</ele><time>2026-04-30T13:48:10.988Z</time></trkpt><trkpt lat="39.61832728082584" lon="9.336012297559611"><ele>278.0</ele><time>2026-04-30T13:48:11.988Z</time></trkpt><trkpt lat="39.6185363697415" lon="9.336022596698205"><ele>278.0</ele><time>2026-04-30T13:48:12.99Z</time></trkpt><trkpt lat="39.61874796248299" lon="9.33605529936032"><ele>278.0</ele><time>2026-04-30T13:48:13.989Z</time></trkpt><trkpt lat="39.618949130692776" lon="9.336097594766684"><ele>278.0</ele><time>2026-04-30T13:48:14.989Z</time></trkpt><trkpt lat="39.61912878140232" lon="9.3361397690974"><ele>278.0</ele><time>2026-04-30T13:48:15.99Z</time></trkpt><trkpt lat="39.619289922533575" lon="9.336174833193438"><ele>278.0</ele><time>2026-04-30T13:48:16.989Z</time></trkpt><trkpt lat="39.619421486872774" lon="9.33620460733697"><ele>278.0</ele><time>2026-04-30T13:48:17.989Z</time></trkpt><trkpt lat="39.619516241912144" lon="9.336242504283332"><ele>278.0</ele><time>2026-04-30T13:48:18.99Z</time></trkpt><trkpt lat="39.61957327141623" lon="9.33628682634796"><ele>278.33333333333337</ele><time>2026-04-30T13:48:19.989Z</time></trkpt><trkpt lat="39.61967021682284" lon="9.336341093208794"><ele>278.6666666666667</ele><time>2026-04-30T13:48:21.989Z</time></trkpt><trkpt lat="39.61975100822501" lon="9.336438796702017"><ele>279.0</ele><time>2026-04-30T13:48:23.989Z</time></trkpt><trkpt lat="39.61979269544885" lon="9.336500326751889"><ele>279.3333333333333</ele><time>2026-04-30T13:48:24.99Z</time></trkpt><trkpt lat="39.61983490851468" lon="9.336566143084948"><ele>279.66666666666663</ele><time>2026-04-30T13:48:25.989Z</time></trkpt><trkpt lat="39.61987447717073" lon="9.336659683334148"><ele>280.0</ele><time>2026-04-30T13:48:26.989Z</time></trkpt><trkpt lat="39.61992124157896" lon="9.33679027597934"><ele>278.5</ele><time>2026-04-30T13:48:27.989Z</time></trkpt><trkpt lat="39.619976397313444" lon="9.336945259082798"><ele>277.0</ele><time>2026-04-30T13:48:28.989Z</time></trkpt><trkpt lat="39.62002899736849" lon="9.337124877156427"><ele>275.5</ele><time>2026-04-30T13:48:29.989Z</time></trkpt><trkpt lat="39.62008488821906" lon="9.337319059467344"><ele>274.0</ele><time>2026-04-30T13:48:30.989Z</time></trkpt><trkpt lat="39.620139831508254" lon="9.337515019619"><ele>273.66666666666663</ele><time>2026-04-30T13:48:31.989Z</time></trkpt><trkpt lat="39.62017867622263" lon="9.33772207636654"><ele>273.3333333333333</ele><time>2026-04-30T13:48:32.989Z</time></trkpt><trkpt lat="39.62019863262164" lon="9.337929895286717"><ele>273.0</ele><time>2026-04-30T13:48:33.989Z</time></trkpt><trkpt lat="39.62019792833334" lon="9.338123720683306"><ele>271.0</ele><time>2026-04-30T13:48:34.989Z</time></trkpt><trkpt lat="39.62019570669576" lon="9.33827631554028"><ele>269.0</ele><time>2026-04-30T13:48:35.989Z</time></trkpt><trkpt lat="39.620194682049714" lon="9.338379232073084"><ele>267.0</ele><time>2026-04-30T13:48:36.989Z</time></trkpt><trkpt lat="39.620202977111084" lon="9.338464137425213"><ele>265.0</ele><time>2026-04-30T13:48:38.989Z</time></trkpt><trkpt lat="39.62026630071075" lon="9.338439686488117"><ele>263.0</ele><time>2026-04-30T13:48:42.989Z</time></trkpt><trkpt lat="39.620254457326986" lon="9.338247104472782"><ele>263.0</ele><time>2026-04-30T13:48:44.989Z</time></trkpt><trkpt lat="39.62024456062463" lon="9.338116229583699"><ele>263.0</ele><time>2026-04-30T13:48:45.989Z</time></trkpt><trkpt lat="39.62023747674473" lon="9.33795567341011"><ele>263.0</ele><time>2026-04-30T13:48:46.989Z</time></trkpt><trkpt lat="39.62021865034186" lon="9.337774224800832"><ele>263.0</ele><time>2026-04-30T13:48:47.989Z</time></trkpt><trkpt lat="39.62018964697023" lon="9.33758002227494"><ele>266.33333333333337</ele><time>2026-04-30T13:48:48.989Z</time></trkpt><trkpt lat="39.62014543876376" lon="9.33737323840201"><ele>269.6666666666667</ele><time>2026-04-30T13:48:49.989Z</time></trkpt><trkpt lat="39.62008861426753" lon="9.337152985107112"><ele>273.0</ele><time>2026-04-30T13:48:50.989Z</time></trkpt><trkpt lat="39.62001323059032" lon="9.33692707908254"><ele>273.25</ele><time>2026-04-30T13:48:51.989Z</time></trkpt><trkpt lat="39.61994143255641" lon="9.336723206550706"><ele>273.5</ele><time>2026-04-30T13:48:52.989Z</time></trkpt><trkpt lat="39.61986820663086" lon="9.33656269481145"><ele>273.75</ele><time>2026-04-30T13:48:53.989Z</time></trkpt><trkpt lat="39.6197989456659" lon="9.336421152483751"><ele>274.0</ele><time>2026-04-30T13:48:54.989Z</time></trkpt><trkpt lat="39.61973588251982" lon="9.3363139619071"><ele>274.66666666666663</ele><time>2026-04-30T13:48:55.989Z</time></trkpt><trkpt lat="39.619688667148786" lon="9.336256912461144"><ele>275.3333333333333</ele><time>2026-04-30T13:48:56.989Z</time></trkpt><trkpt lat="39.6196301895602" lon="9.336221799491184"><ele>276.0</ele><time>2026-04-30T13:48:58.989Z</time></trkpt><trkpt lat="39.619567998967995" lon="9.3361932031115"><ele>276.6666666666667</ele><time>2026-04-30T13:49:02.989Z</time></trkpt><trkpt lat="39.61946536735439" lon="9.336105948813515"><ele>277.33333333333337</ele><time>2026-04-30T13:49:04.989Z</time></trkpt><trkpt lat="39.61939766331484" lon="9.336049146351476"><ele>278.0</ele><time>2026-04-30T13:49:05.989Z</time></trkpt><trkpt lat="39.61934175178229" lon="9.33597321800257"><ele>278.0</ele><time>2026-04-30T13:49:06.989Z</time></trkpt><trkpt lat="39.61929652078974" lon="9.33587288790576"><ele>278.0</ele><time>2026-04-30T13:49:07.989Z</time></trkpt><trkpt lat="39.619264955204905" lon="9.335756550418791"><ele>278.0</ele><time>2026-04-30T13:49:08.989Z</time></trkpt><trkpt lat="39.61924924219372" lon="9.335636313154941"><ele>278.0</ele><time>2026-04-30T13:49:09.989Z</time></trkpt><trkpt lat="39.619259117402244" lon="9.335550039356125"><ele>278.0</ele><time>2026-04-30T13:49:10.989Z</time></trkpt><trkpt lat="39.6192886922734" lon="9.335449246834768"><ele>278.0</ele><time>2026-04-30T13:49:12.989Z</time></trkpt><trkpt lat="39.61933528494764" lon="9.335347445933575"><ele>280.8</ele><time>2026-04-30T13:49:14.989Z</time></trkpt><trkpt lat="39.6193987643718" lon="9.335285801286702"><ele>283.6</ele><time>2026-04-30T13:49:15.989Z</time></trkpt><trkpt lat="39.61949680644534" lon="9.335237255676232"><ele>286.4</ele><time>2026-04-30T13:49:16.989Z</time></trkpt><trkpt lat="39.619604041852625" lon="9.335214695020454"><ele>289.2</ele><time>2026-04-30T13:49:17.989Z</time></trkpt><trkpt lat="39.61969793340143" lon="9.33521334616186"><ele>292.0</ele><time>2026-04-30T13:49:18.989Z</time></trkpt><trkpt lat="39.619778794727324" lon="9.33522134389651"><ele>292.0</ele><time>2026-04-30T13:49:19.989Z</time></trkpt><trkpt lat="39.619860068623034" lon="9.335237948779259"><ele>292.0</ele><time>2026-04-30T13:49:20.989Z</time></trkpt><trkpt lat="39.61995031094558" lon="9.335254421072944"><ele>292.0</ele><time>2026-04-30T13:49:21.989Z</time></trkpt><trkpt lat="39.620057596294515" lon="9.335276778766998"><ele>292.0</ele><time>2026-04-30T13:49:22.989Z</time></trkpt><trkpt lat="39.620175600401105" lon="9.335307108847076"><ele>292.0</ele><time>2026-04-30T13:49:23.989Z</time></trkpt><trkpt lat="39.62030239206076" lon="9.335344286882968"><ele>293.0</ele><time>2026-04-30T13:49:24.989Z</time></trkpt><trkpt lat="39.620441609675815" lon="9.335385059539792"><ele>294.0</ele><time>2026-04-30T13:49:25.989Z</time></trkpt><trkpt lat="39.620580754953835" lon="9.33541954855308"><ele>295.0</ele><time>2026-04-30T13:49:26.989Z</time></trkpt><trkpt lat="39.620722459454484" lon="9.33540801281308"><ele>296.0</ele><time>2026-04-30T13:49:27.989Z</time></trkpt><trkpt lat="39.6208644770807" lon="9.335311704988184"><ele>296.0</ele><time>2026-04-30T13:49:28.989Z</time></trkpt><trkpt lat="39.62099532436005" lon="9.335162093263229"><ele>296.0</ele><time>2026-04-30T13:49:29.989Z</time></trkpt><trkpt lat="39.62111482411675" lon="9.335014855225499"><ele>296.0</ele><time>2026-04-30T13:49:30.989Z</time></trkpt><trkpt lat="39.62119599664313" lon="9.33491429657099"><ele>296.8</ele><time>2026-04-30T13:49:31.989Z</time></trkpt><trkpt lat="39.621237070168526" lon="9.334813509345043"><ele>297.6</ele><time>2026-04-30T13:49:32.989Z</time></trkpt><trkpt lat="39.621245896317056" lon="9.334721677896905"><ele>298.4</ele><time>2026-04-30T13:49:33.989Z</time></trkpt><trkpt lat="39.62120705661919" lon="9.334604262993683"><ele>299.2</ele><time>2026-04-30T13:49:34.989Z</time></trkpt><trkpt lat="39.62114984146323" lon="9.334459003842898"><ele>300.0</ele><time>2026-04-30T13:49:35.989Z</time></trkpt><trkpt lat="39.62110260263759" lon="9.334261509045833"><ele>299.3333333333333</ele><time>2026-04-30T13:49:36.989Z</time></trkpt><trkpt lat="39.62105650341556" lon="9.33403261141382"><ele>298.66666666666663</ele><time>2026-04-30T13:49:37.989Z</time></trkpt><trkpt lat="39.621006075175565" lon="9.333771195003575"><ele>298.0</ele><time>2026-04-30T13:49:38.989Z</time></trkpt><trkpt lat="39.620952137917946" lon="9.333494266123772"><ele>298.0</ele><time>2026-04-30T13:49:39.989Z</time></trkpt><trkpt lat="39.62089815730173" lon="9.333199369757319"><ele>298.0</ele><time>2026-04-30T13:49:40.989Z</time></trkpt><trkpt lat="39.62083399188247" lon="9.332933969925836"><ele>298.0</ele><time>2026-04-30T13:49:41.989Z</time></trkpt><trkpt lat="39.620757272074485" lon="9.33267650456692"><ele>293.0</ele><time>2026-04-30T13:49:42.989Z</time></trkpt><trkpt lat="39.62065990894441" lon="9.332444470087168"><ele>288.0</ele><time>2026-04-30T13:49:43.989Z</time></trkpt><trkpt lat="39.620555113381585" lon="9.332249964247284"><ele>283.0</ele><time>2026-04-30T13:49:44.989Z</time></trkpt><trkpt lat="39.62044440397547" lon="9.332083097820318"><ele>278.3333333333333</ele><time>2026-04-30T13:49:45.989Z</time></trkpt><trkpt lat="39.62035870406079" lon="9.33191698974864"><ele>273.6666666666667</ele><time>2026-04-30T13:49:46.988Z</time></trkpt><trkpt lat="39.62033239327548" lon="9.331712827942418"><ele>269.0</ele><time>2026-04-30T13:49:47.988Z</time></trkpt><trkpt lat="39.6203635931066" lon="9.331490923612797"><ele>269.0</ele><time>2026-04-30T13:49:48.988Z</time></trkpt><trkpt lat="39.620456774621886" lon="9.331244608020114"><ele>269.0</ele><time>2026-04-30T13:49:49.988Z</time></trkpt><trkpt lat="39.62055947075991" lon="9.330993491963568"><ele>269.0</ele><time>2026-04-30T13:49:50.988Z</time></trkpt><trkpt lat="39.62066063678967" lon="9.330731353485113"><ele>274.0</ele><time>2026-04-30T13:49:51.988Z</time></trkpt><trkpt lat="39.62075578559651" lon="9.33045287806835"><ele>279.0</ele><time>2026-04-30T13:49:52.988Z</time></trkpt><trkpt lat="39.62085741617998" lon="9.330196712235418"><ele>279.0</ele><time>2026-04-30T13:49:53.988Z</time></trkpt><trkpt lat="39.62097001094098" lon="9.329958889267552"><ele>279.0</ele><time>2026-04-30T13:49:54.988Z</time></trkpt><trkpt lat="39.62107961305022" lon="9.329702797221062"><ele>279.0</ele><time>2026-04-30T13:49:55.988Z</time></trkpt><trkpt lat="39.62115783873158" lon="9.32941368146903"><ele>272.0</ele><time>2026-04-30T13:49:56.988Z</time></trkpt><trkpt lat="39.62122876247871" lon="9.329123685547911"><ele>265.0</ele><time>2026-04-30T13:49:57.988Z</time></trkpt><trkpt lat="39.621297902136746" lon="9.328870013589283"><ele>258.0</ele><time>2026-04-30T13:49:58.988Z</time></trkpt><trkpt lat="39.62135618166445" lon="9.328663200023097"><ele>258.0</ele><time>2026-04-30T13:49:59.988Z</time></trkpt><trkpt lat="39.62142316479977" lon="9.328483439972244"><ele>258.0</ele><time>2026-04-30T13:50:00.988Z</time></trkpt><trkpt lat="39.62149759209359" lon="9.328337808582974"><ele>258.0</ele><time>2026-04-30T13:50:01.988Z</time></trkpt><trkpt lat="39.62159399383899" lon="9.32821390531609"><ele>258.0</ele><time>2026-04-30T13:50:02.988Z</time></trkpt><trkpt lat="39.621714938281954" lon="9.328098115845831"><ele>259.6666666666667</ele><time>2026-04-30T13:50:03.988Z</time></trkpt><trkpt lat="39.62179507133474" lon="9.327911630285502"><ele>261.33333333333337</ele><time>2026-04-30T13:50:04.988Z</time></trkpt><trkpt lat="39.62182070062194" lon="9.327681618398104"><ele>263.0</ele><time>2026-04-30T13:50:05.988Z</time></trkpt><trkpt lat="39.6218060654198" lon="9.327428620176105"><ele>261.6666666666667</ele><time>2026-04-30T13:50:06.988Z</time></trkpt><trkpt lat="39.621774345623116" lon="9.327149677348658"><ele>260.3333333333333</ele><time>2026-04-30T13:50:07.988Z</time></trkpt><trkpt lat="39.621753982133185" lon="9.326874047713126"><ele>259.0</ele><time>2026-04-30T13:50:08.988Z</time></trkpt><trkpt lat="39.62174718056084" lon="9.326621886183503"><ele>259.0</ele><time>2026-04-30T13:50:09.988Z</time></trkpt><trkpt lat="39.621769667373165" lon="9.326397593319863"><ele>259.0</ele><time>2026-04-30T13:50:10.988Z</time></trkpt><trkpt lat="39.62183850625834" lon="9.326181326516313"><ele>259.0</ele><time>2026-04-30T13:50:11.988Z</time></trkpt><trkpt lat="39.62195287541346" lon="9.325975807218377"><ele>248.33333333333331</ele><time>2026-04-30T13:50:12.988Z</time></trkpt><trkpt lat="39.62204563264744" lon="9.325780134659109"><ele>237.66666666666669</ele><time>2026-04-30T13:50:13.988Z</time></trkpt><trkpt lat="39.62207549631953" lon="9.325555535828203"><ele>227.0</ele><time>2026-04-30T13:50:14.988Z</time></trkpt><trkpt lat="39.62204749279954" lon="9.325332435826832"><ele>227.0</ele><time>2026-04-30T13:50:15.988Z</time></trkpt><trkpt lat="39.62201211417418" lon="9.325125176269404"><ele>227.0</ele><time>2026-04-30T13:50:16.988Z</time></trkpt><trkpt lat="39.6220247232785" lon="9.32491433023862"><ele>227.0</ele><time>2026-04-30T13:50:17.988Z</time></trkpt><trkpt lat="39.62210705694246" lon="9.324730426444523"><ele>228.33333333333334</ele><time>2026-04-30T13:50:18.989Z</time></trkpt><trkpt lat="39.622228088638046" lon="9.324572868717336"><ele>229.66666666666669</ele><time>2026-04-30T13:50:19.989Z</time></trkpt><trkpt lat="39.6223285719728" lon="9.32441201101979"><ele>231.0</ele><time>2026-04-30T13:50:20.989Z</time></trkpt><trkpt lat="39.62236719485371" lon="9.324219860559062"><ele>231.0</ele><time>2026-04-30T13:50:21.989Z</time></trkpt><trkpt lat="39.622337753602444" lon="9.323989580095763"><ele>231.0</ele><time>2026-04-30T13:50:22.989Z</time></trkpt><trkpt lat="39.62229463449686" lon="9.323738495942758"><ele>231.0</ele><time>2026-04-30T13:50:23.989Z</time></trkpt><trkpt lat="39.622266736076526" lon="9.323459390764327"><ele>228.66666666666669</ele><time>2026-04-30T13:50:24.989Z</time></trkpt><trkpt lat="39.622252825142176" lon="9.323192061928363"><ele>226.33333333333334</ele><time>2026-04-30T13:50:25.989Z</time></trkpt><trkpt lat="39.62220143222534" lon="9.322958910313039"><ele>224.0</ele><time>2026-04-30T13:50:26.989Z</time></trkpt><trkpt lat="39.62214115881938" lon="9.322752384458346"><ele>222.33333333333334</ele><time>2026-04-30T13:50:27.988Z</time></trkpt><trkpt lat="39.622124976099926" lon="9.32255778839973"><ele>220.66666666666669</ele><time>2026-04-30T13:50:28.989Z</time></trkpt><trkpt lat="39.622168350505284" lon="9.322357664783093"><ele>219.0</ele><time>2026-04-30T13:50:29.989Z</time></trkpt><trkpt lat="39.622259507227334" lon="9.322136631543977"><ele>217.66666666666669</ele><time>2026-04-30T13:50:30.989Z</time></trkpt><trkpt lat="39.622323087059634" lon="9.321933687458865"><ele>216.33333333333334</ele><time>2026-04-30T13:50:31.988Z</time></trkpt><trkpt lat="39.622317061998196" lon="9.32169758371274"><ele>215.0</ele><time>2026-04-30T13:50:32.988Z</time></trkpt><trkpt lat="39.62226243697367" lon="9.321451068846777"><ele>211.66666666666669</ele><time>2026-04-30T13:50:33.988Z</time></trkpt><trkpt lat="39.622198675693795" lon="9.321179613784222"><ele>208.33333333333331</ele><time>2026-04-30T13:50:34.988Z</time></trkpt><trkpt lat="39.62214932147685" lon="9.320929509685499"><ele>205.0</ele><time>2026-04-30T13:50:35.988Z</time></trkpt><trkpt lat="39.62210988417751" lon="9.320705409281215"><ele>206.0</ele><time>2026-04-30T13:50:36.988Z</time></trkpt><trkpt lat="39.62209865980291" lon="9.320504517504645"><ele>207.0</ele><time>2026-04-30T13:50:37.988Z</time></trkpt><trkpt lat="39.622127905985195" lon="9.3203219433092"><ele>208.0</ele><time>2026-04-30T13:50:38.988Z</time></trkpt><trkpt lat="39.622211007438295" lon="9.320173209648747"><ele>209.0</ele><time>2026-04-30T13:50:39.988Z</time></trkpt><trkpt lat="39.622340057644685" lon="9.32005506421776"><ele>209.0</ele><time>2026-04-30T13:50:40.988Z</time></trkpt><trkpt lat="39.6225142384179" lon="9.319967701068657"><ele>209.0</ele><time>2026-04-30T13:50:41.988Z</time></trkpt><trkpt lat="39.62266124752681" lon="9.319894399326056"><ele>209.0</ele><time>2026-04-30T13:50:42.988Z</time></trkpt><trkpt lat="39.62277413442337" lon="9.319781240171833"><ele>208.5</ele><time>2026-04-30T13:50:43.988Z</time></trkpt><trkpt lat="39.62286196069873" lon="9.319631385916638"><ele>208.0</ele><time>2026-04-30T13:50:44.988Z</time></trkpt><trkpt lat="39.62289379608216" lon="9.319439458043892"><ele>207.5</ele><time>2026-04-30T13:50:45.988Z</time></trkpt><trkpt lat="39.62287495232106" lon="9.319248673989557"><ele>207.0</ele><time>2026-04-30T13:50:46.988Z</time></trkpt><trkpt lat="39.62278931506702" lon="9.319068931620222"><ele>207.0</ele><time>2026-04-30T13:50:47.988Z</time></trkpt><trkpt lat="39.622659083930564" lon="9.318955887428531"><ele>207.0</ele><time>2026-04-30T13:50:48.988Z</time></trkpt><trkpt lat="39.622487423127446" lon="9.318913644603107"><ele>207.0</ele><time>2026-04-30T13:50:49.988Z</time></trkpt><trkpt lat="39.622304873656994" lon="9.318999215545162"><ele>207.0</ele><time>2026-04-30T13:50:50.988Z</time></trkpt><trkpt lat="39.62216829560926" lon="9.319118734589802"><ele>207.0</ele><time>2026-04-30T13:50:51.988Z</time></trkpt><trkpt lat="39.62207176709482" lon="9.319268397912401"><ele>207.0</ele><time>2026-04-30T13:50:52.988Z</time></trkpt><trkpt lat="39.621956120946784" lon="9.319316973235356"><ele>207.0</ele><time>2026-04-30T13:50:53.988Z</time></trkpt><trkpt lat="39.62182599972688" lon="9.319288397636647"><ele>206.33333333333331</ele><time>2026-04-30T13:50:54.988Z</time></trkpt><trkpt lat="39.62172079117922" lon="9.31916943527191"><ele>205.66666666666666</ele><time>2026-04-30T13:50:55.988Z</time></trkpt><trkpt lat="39.62165323187639" lon="9.318990662063936"><ele>205.0</ele><time>2026-04-30T13:50:56.988Z</time></trkpt><trkpt lat="39.6216340310379" lon="9.318758318315275"><ele>201.66666666666666</ele><time>2026-04-30T13:50:57.988Z</time></trkpt><trkpt lat="39.621630408289136" lon="9.318487535065028"><ele>198.33333333333331</ele><time>2026-04-30T13:50:58.988Z</time></trkpt><trkpt lat="39.62161718746208" lon="9.318196686220645"><ele>195.0</ele><time>2026-04-30T13:50:59.988Z</time></trkpt><trkpt lat="39.62159918629169" lon="9.317931967957536"><ele>192.33333333333334</ele><time>2026-04-30T13:51:00.988Z</time></trkpt><trkpt lat="39.62158716352277" lon="9.317668965280355"><ele>189.66666666666669</ele><time>2026-04-30T13:51:01.988Z</time></trkpt><trkpt lat="39.621605960246576" lon="9.317413596304705"><ele>187.0</ele><time>2026-04-30T13:51:02.988Z</time></trkpt><trkpt lat="39.62167163247334" lon="9.317193740240782"><ele>183.66666666666669</ele><time>2026-04-30T13:51:03.988Z</time></trkpt><trkpt lat="39.62169718870861" lon="9.316962335334999"><ele>180.33333333333334</ele><time>2026-04-30T13:51:04.988Z</time></trkpt><trkpt lat="39.62167103536517" lon="9.316720661551171"><ele>177.0</ele><time>2026-04-30T13:51:05.988Z</time></trkpt><trkpt lat="39.621600384241795" lon="9.316506295177748"><ele>173.66666666666666</ele><time>2026-04-30T13:51:06.988Z</time></trkpt><trkpt lat="39.6214752317696" lon="9.316339765856023"><ele>170.33333333333331</ele><time>2026-04-30T13:51:07.988Z</time></trkpt><trkpt lat="39.62131363137991" lon="9.316248373290113"><ele>167.0</ele><time>2026-04-30T13:51:08.988Z</time></trkpt><trkpt lat="39.62111547166489" lon="9.316229985941606"><ele>167.0</ele><time>2026-04-30T13:51:09.988Z</time></trkpt><trkpt lat="39.62089334468442" lon="9.316264945409964"><ele>167.0</ele><time>2026-04-30T13:51:10.988Z</time></trkpt><trkpt lat="39.620656403312225" lon="9.31632172317884"><ele>167.0</ele><time>2026-04-30T13:51:11.988Z</time></trkpt><trkpt lat="39.620438511829256" lon="9.316363987426904"><ele>167.0</ele><time>2026-04-30T13:51:12.988Z</time></trkpt><trkpt lat="39.62024694203245" lon="9.316391639870291"><ele>167.0</ele><time>2026-04-30T13:51:13.988Z</time></trkpt><trkpt lat="39.62008671982115" lon="9.316370099826257"><ele>166.33333333333331</ele><time>2026-04-30T13:51:14.988Z</time></trkpt><trkpt lat="39.61993728289632" lon="9.316277610738435"><ele>165.66666666666666</ele><time>2026-04-30T13:51:15.988Z</time></trkpt><trkpt lat="39.61979781499047" lon="9.316097465825724"><ele>165.0</ele><time>2026-04-30T13:51:16.988Z</time></trkpt><trkpt lat="39.619670045910375" lon="9.31593946406901"><ele>165.0</ele><time>2026-04-30T13:51:17.988Z</time></trkpt><trkpt lat="39.619539071235344" lon="9.315709396141283"><ele>165.0</ele><time>2026-04-30T13:51:18.988Z</time></trkpt><trkpt lat="39.61944130491695" lon="9.315523041950108"><ele>165.0</ele><time>2026-04-30T13:51:19.988Z</time></trkpt><trkpt lat="39.619392215965014" lon="9.315337747668012"><ele>167.66666666666666</ele><time>2026-04-30T13:51:20.988Z</time></trkpt><trkpt lat="39.619403870950705" lon="9.315150803151466"><ele>170.33333333333331</ele><time>2026-04-30T13:51:21.988Z</time></trkpt><trkpt lat="39.61946312405619" lon="9.314981948990189"><ele>173.0</ele><time>2026-04-30T13:51:22.988Z</time></trkpt><trkpt lat="39.619578048300205" lon="9.314823290810727"><ele>165.0</ele><time>2026-04-30T13:51:23.988Z</time></trkpt><trkpt lat="39.619689520398666" lon="9.314636502525504"><ele>157.0</ele><time>2026-04-30T13:51:24.988Z</time></trkpt><trkpt lat="39.61973298265158" lon="9.31438372507522"><ele>149.0</ele><time>2026-04-30T13:51:25.988Z</time></trkpt><trkpt lat="39.61971365406033" lon="9.314105525860358"><ele>146.66666666666666</ele><time>2026-04-30T13:51:26.988Z</time></trkpt><trkpt lat="39.6196981122844" lon="9.313824433697128"><ele>144.33333333333334</ele><time>2026-04-30T13:51:27.988Z</time></trkpt><trkpt lat="39.61971454707228" lon="9.313554109169273"><ele>142.0</ele><time>2026-04-30T13:51:28.988Z</time></trkpt><trkpt lat="39.619773551248116" lon="9.313284325481106"><ele>141.0</ele><time>2026-04-30T13:51:29.988Z</time></trkpt><trkpt lat="39.61986794038029" lon="9.313015744333887"><ele>140.0</ele><time>2026-04-30T13:51:30.988Z</time></trkpt><trkpt lat="39.61995739362822" lon="9.312763173006962"><ele>139.0</ele><time>2026-04-30T13:51:31.988Z</time></trkpt><trkpt lat="39.620030292123325" lon="9.312528114822719"><ele>139.0</ele><time>2026-04-30T13:51:32.988Z</time></trkpt><trkpt lat="39.62007683492276" lon="9.312325858047734"><ele>139.0</ele><time>2026-04-30T13:51:33.988Z</time></trkpt><trkpt lat="39.62006461604713" lon="9.312120391369326"><ele>139.0</ele><time>2026-04-30T13:51:34.988Z</time></trkpt><trkpt lat="39.619980601721196" lon="9.311940018555397"><ele>138.33333333333334</ele><time>2026-04-30T13:51:35.988Z</time></trkpt><trkpt lat="39.61983306506214" lon="9.31179283064967"><ele>137.66666666666666</ele><time>2026-04-30T13:51:36.988Z</time></trkpt><trkpt lat="39.61963706839224" lon="9.311672479679956"><ele>137.0</ele><time>2026-04-30T13:51:37.988Z</time></trkpt><trkpt lat="39.619436827083355" lon="9.31152526903009"><ele>135.5</ele><time>2026-04-30T13:51:38.988Z</time></trkpt><trkpt lat="39.619230542463704" lon="9.311361216833953"><ele>134.0</ele><time>2026-04-30T13:51:39.988Z</time></trkpt><trkpt lat="39.619028321865585" lon="9.311201171917569"><ele>134.0</ele><time>2026-04-30T13:51:40.987Z</time></trkpt><trkpt lat="39.61884990523656" lon="9.311063408067158"><ele>134.0</ele><time>2026-04-30T13:51:41.987Z</time></trkpt><trkpt lat="39.618715118337455" lon="9.310956235422882"><ele>134.0</ele><time>2026-04-30T13:51:42.987Z</time></trkpt><trkpt lat="39.618592503093325" lon="9.310886479036688"><ele>139.33333333333331</ele><time>2026-04-30T13:51:43.987Z</time></trkpt><trkpt lat="39.6184489946058" lon="9.310889075930088"><ele>144.66666666666666</ele><time>2026-04-30T13:51:44.987Z</time></trkpt><trkpt lat="39.618303882767464" lon="9.310994687340644"><ele>150.0</ele><time>2026-04-30T13:51:45.987Z</time></trkpt><trkpt lat="39.61818541148458" lon="9.31120007798171"><ele>147.33333333333334</ele><time>2026-04-30T13:51:46.987Z</time></trkpt><trkpt lat="39.61807934771221" lon="9.311437852337505"><ele>144.66666666666669</ele><time>2026-04-30T13:51:47.987Z</time></trkpt><trkpt lat="39.61795879985163" lon="9.311667500433735"><ele>142.0</ele><time>2026-04-30T13:51:48.987Z</time></trkpt><trkpt lat="39.61784390469883" lon="9.311844423086596"><ele>145.66666666666669</ele><time>2026-04-30T13:51:49.987Z</time></trkpt><trkpt lat="39.61770285218605" lon="9.31194268678421"><ele>149.33333333333334</ele><time>2026-04-30T13:51:50.987Z</time></trkpt><trkpt lat="39.61753392069571" lon="9.311987713062692"><ele>153.0</ele><time>2026-04-30T13:51:51.987Z</time></trkpt><trkpt lat="39.61734026469078" lon="9.311943365650697"><ele>153.0</ele><time>2026-04-30T13:51:52.987Z</time></trkpt><trkpt lat="39.617130576761134" lon="9.311873033732462"><ele>153.0</ele><time>2026-04-30T13:51:53.987Z</time></trkpt><trkpt lat="39.61693723125637" lon="9.311803059200619"><ele>153.0</ele><time>2026-04-30T13:51:54.987Z</time></trkpt><trkpt lat="39.61676687835872" lon="9.311679676261294"><ele>151.0</ele><time>2026-04-30T13:51:55.987Z</time></trkpt><trkpt lat="39.616613518013224" lon="9.31149435370154"><ele>149.0</ele><time>2026-04-30T13:51:56.987Z</time></trkpt><trkpt lat="39.616466946812736" lon="9.311268733369603"><ele>147.0</ele><time>2026-04-30T13:51:57.987Z</time></trkpt><trkpt lat="39.61631505093103" lon="9.31104010420044"><ele>149.5</ele><time>2026-04-30T13:51:58.987Z</time></trkpt><trkpt lat="39.6161463589728" lon="9.310811178298577"><ele>152.0</ele><time>2026-04-30T13:51:59.987Z</time></trkpt><trkpt lat="39.615954931363945" lon="9.310617882885557"><ele>158.33333333333331</ele><time>2026-04-30T13:52:00.987Z</time></trkpt><trkpt lat="39.61578520498256" lon="9.310449553631281"><ele>164.66666666666666</ele><time>2026-04-30T13:52:01.987Z</time></trkpt><trkpt lat="39.61564006255657" lon="9.310300088896755"><ele>171.0</ele><time>2026-04-30T13:52:02.987Z</time></trkpt><trkpt lat="39.61552453771289" lon="9.310106485730326"><ele>171.0</ele><time>2026-04-30T13:52:03.987Z</time></trkpt><trkpt lat="39.61542647613206" lon="9.309853572485217"><ele>171.0</ele><time>2026-04-30T13:52:04.987Z</time></trkpt><trkpt lat="39.61533018915243" lon="9.309576140736475"><ele>169.0</ele><time>2026-04-30T13:52:05.987Z</time></trkpt><trkpt lat="39.615216820021374" lon="9.309294621996036"><ele>167.0</ele><time>2026-04-30T13:52:06.987Z</time></trkpt><trkpt lat="39.61509768479846" lon="9.30899877897284"><ele>172.5</ele><time>2026-04-30T13:52:07.987Z</time></trkpt><trkpt lat="39.61498061795421" lon="9.308723340213474"><ele>178.0</ele><time>2026-04-30T13:52:08.987Z</time></trkpt><trkpt lat="39.614897366788156" lon="9.308453716658933"><ele>178.0</ele><time>2026-04-30T13:52:09.987Z</time></trkpt><trkpt lat="39.61481456894551" lon="9.30823508317576"><ele>178.0</ele><time>2026-04-30T13:52:10.987Z</time></trkpt><trkpt lat="39.61473265994821" lon="9.308035263120855"><ele>178.0</ele><time>2026-04-30T13:52:11.987Z</time></trkpt><trkpt lat="39.614663390012545" lon="9.307824492262395"><ele>180.0</ele><time>2026-04-30T13:52:12.987Z</time></trkpt><trkpt lat="39.61462660379463" lon="9.307565995854336"><ele>182.0</ele><time>2026-04-30T13:52:13.987Z</time></trkpt><trkpt lat="39.6146302471291" lon="9.307282583640006"><ele>184.0</ele><time>2026-04-30T13:52:14.987Z</time></trkpt><trkpt lat="39.61464557776065" lon="9.306992128048432"><ele>184.66666666666669</ele><time>2026-04-30T13:52:15.987Z</time></trkpt><trkpt lat="39.614662491677684" lon="9.306709421048504"><ele>185.33333333333334</ele><time>2026-04-30T13:52:16.987Z</time></trkpt><trkpt lat="39.61465315632068" lon="9.30644399297685"><ele>186.0</ele><time>2026-04-30T13:52:17.987Z</time></trkpt><trkpt lat="39.61461222572075" lon="9.306201850594164"><ele>185.33333333333334</ele><time>2026-04-30T13:52:18.987Z</time></trkpt><trkpt lat="39.614511675248906" lon="9.305992233012953"><ele>184.66666666666669</ele><time>2026-04-30T13:52:19.987Z</time></trkpt><trkpt lat="39.61434318138641" lon="9.30580989933919"><ele>184.0</ele><time>2026-04-30T13:52:20.987Z</time></trkpt><trkpt lat="39.61414509550257" lon="9.305663038458736"><ele>187.66666666666669</ele><time>2026-04-30T13:52:21.987Z</time></trkpt><trkpt lat="39.613941789933946" lon="9.30551213508274"><ele>191.33333333333334</ele><time>2026-04-30T13:52:22.987Z</time></trkpt><trkpt lat="39.61379373419907" lon="9.305394647592529"><ele>195.0</ele><time>2026-04-30T13:52:23.987Z</time></trkpt><trkpt lat="39.613701638664175" lon="9.305293555466115"><ele>194.75</ele><time>2026-04-30T13:52:24.988Z</time></trkpt><trkpt lat="39.61364813091188" lon="9.30518407624949"><ele>194.5</ele><time>2026-04-30T13:52:25.989Z</time></trkpt><trkpt lat="39.6136201831002" lon="9.305032158448649"><ele>194.25</ele><time>2026-04-30T13:52:26.989Z</time></trkpt><trkpt lat="39.613627114247564" lon="9.304853973314403"><ele>194.0</ele><time>2026-04-30T13:52:27.989Z</time></trkpt><trkpt lat="39.61369624995436" lon="9.304679633298994"><ele>203.33333333333334</ele><time>2026-04-30T13:52:28.988Z</time></trkpt><trkpt lat="39.61381292395166" lon="9.304558690344297"><ele>212.66666666666669</ele><time>2026-04-30T13:52:29.988Z</time></trkpt><trkpt lat="39.613979202746684" lon="9.304498678421739"><ele>222.0</ele><time>2026-04-30T13:52:30.989Z</time></trkpt><trkpt lat="39.61417445215956" lon="9.30449176566126"><ele>222.0</ele><time>2026-04-30T13:52:31.988Z</time></trkpt><trkpt lat="39.61439464624519" lon="9.304513986830365"><ele>222.0</ele><time>2026-04-30T13:52:32.988Z</time></trkpt><trkpt lat="39.61462572132306" lon="9.304522097347808"><ele>220.5</ele><time>2026-04-30T13:52:33.988Z</time></trkpt><trkpt lat="39.6148622153465" lon="9.304518129156278"><ele>219.0</ele><time>2026-04-30T13:52:34.988Z</time></trkpt><trkpt lat="39.615110607853175" lon="9.304499979359333"><ele>222.0</ele><time>2026-04-30T13:52:35.988Z</time></trkpt><trkpt lat="39.615358917985134" lon="9.304489467737532"><ele>225.0</ele><time>2026-04-30T13:52:36.988Z</time></trkpt><trkpt lat="39.615608587701836" lon="9.304483047761883"><ele>225.0</ele><time>2026-04-30T13:52:37.989Z</time></trkpt><trkpt lat="39.61586787313258" lon="9.304468340396877"><ele>225.0</ele><time>2026-04-30T13:52:38.989Z</time></trkpt><trkpt lat="39.61612023571637" lon="9.30445722527185"><ele>227.0</ele><time>2026-04-30T13:52:39.989Z</time></trkpt><trkpt lat="39.61636344555833" lon="9.304450123767783"><ele>229.0</ele><time>2026-04-30T13:52:40.989Z</time></trkpt><trkpt lat="39.616584936762706" lon="9.304441688571965"><ele>229.0</ele><time>2026-04-30T13:52:41.989Z</time></trkpt><trkpt lat="39.616769584127404" lon="9.304438568526164"><ele>229.0</ele><time>2026-04-30T13:52:42.989Z</time></trkpt><trkpt lat="39.61692871691561" lon="9.304379159554387"><ele>229.0</ele><time>2026-04-30T13:52:43.989Z</time></trkpt><trkpt lat="39.61706749998537" lon="9.304249803257807"><ele>228.0</ele><time>2026-04-30T13:52:44.989Z</time></trkpt><trkpt lat="39.61718356715938" lon="9.304048448642353"><ele>227.0</ele><time>2026-04-30T13:52:45.989Z</time></trkpt><trkpt lat="39.61728298342234" lon="9.303809939823909"><ele>226.0</ele><time>2026-04-30T13:52:46.989Z</time></trkpt><trkpt lat="39.617401677345775" lon="9.30365331166015"><ele>233.0</ele><time>2026-04-30T13:52:47.989Z</time></trkpt><trkpt lat="39.61756375483929" lon="9.303573113087635"><ele>240.0</ele><time>2026-04-30T13:52:48.989Z</time></trkpt><trkpt lat="39.61776421492733" lon="9.303560183768822"><ele>247.0</ele><time>2026-04-30T13:52:49.989Z</time></trkpt><trkpt lat="39.61799998787426" lon="9.30359325279925"><ele>251.5</ele><time>2026-04-30T13:52:50.989Z</time></trkpt><trkpt lat="39.61824865798617" lon="9.303617738787409"><ele>256.0</ele><time>2026-04-30T13:52:51.989Z</time></trkpt><trkpt lat="39.61848980598922" lon="9.303620435555366"><ele>261.5</ele><time>2026-04-30T13:52:52.989Z</time></trkpt><trkpt lat="39.61872080544366" lon="9.303654064301853"><ele>267.0</ele><time>2026-04-30T13:52:53.989Z</time></trkpt><trkpt lat="39.61895979824445" lon="9.30373738419152"><ele>267.0</ele><time>2026-04-30T13:52:54.989Z</time></trkpt><trkpt lat="39.619185587273364" lon="9.303816691468295"><ele>267.0</ele><time>2026-04-30T13:52:55.989Z</time></trkpt><trkpt lat="39.619383180925354" lon="9.303885787301574"><ele>267.0</ele><time>2026-04-30T13:52:56.989Z</time></trkpt><trkpt lat="39.61955938074835" lon="9.303945226239033"><ele>260.6666666666667</ele><time>2026-04-30T13:52:57.989Z</time></trkpt><trkpt lat="39.619724385523234" lon="9.303996338727059"><ele>254.33333333333334</ele><time>2026-04-30T13:52:58.989Z</time></trkpt><trkpt lat="39.6198737378785" lon="9.304044663401424"><ele>248.0</ele><time>2026-04-30T13:52:59.989Z</time></trkpt><trkpt lat="39.62002143547628" lon="9.304076408347802"><ele>248.0</ele><time>2026-04-30T13:53:00.989Z</time></trkpt><trkpt lat="39.62017520578955" lon="9.304093382639978"><ele>248.0</ele><time>2026-04-30T13:53:01.989Z</time></trkpt><trkpt lat="39.6203265831351" lon="9.304100397597226"><ele>248.0</ele><time>2026-04-30T13:53:02.989Z</time></trkpt><trkpt lat="39.62046405340322" lon="9.304091786683044"><ele>248.0</ele><time>2026-04-30T13:53:03.989Z</time></trkpt><trkpt lat="39.62060489597578" lon="9.30403905457835"><ele>253.33333333333334</ele><time>2026-04-30T13:53:04.989Z</time></trkpt><trkpt lat="39.620756314281884" lon="9.30391231698373"><ele>258.6666666666667</ele><time>2026-04-30T13:53:05.989Z</time></trkpt><trkpt lat="39.62091649874389" lon="9.303736106875668"><ele>264.0</ele><time>2026-04-30T13:53:06.989Z</time></trkpt><trkpt lat="39.6210963839135" lon="9.303555622479013"><ele>265.0</ele><time>2026-04-30T13:53:07.989Z</time></trkpt><trkpt lat="39.62130665772153" lon="9.303436085595736"><ele>266.0</ele><time>2026-04-30T13:53:08.989Z</time></trkpt><trkpt lat="39.621542528382676" lon="9.303360361272244"><ele>266.0</ele><time>2026-04-30T13:53:09.989Z</time></trkpt><trkpt lat="39.621783638876636" lon="9.30328735029807"><ele>266.0</ele><time>2026-04-30T13:53:10.989Z</time></trkpt><trkpt lat="39.62203853809261" lon="9.30320794394283"><ele>265.5</ele><time>2026-04-30T13:53:11.988Z</time></trkpt><trkpt lat="39.622303071474406" lon="9.303140111197319"><ele>265.0</ele><time>2026-04-30T13:53:12.988Z</time></trkpt><trkpt lat="39.622575394576046" lon="9.303086218062395"><ele>271.5</ele><time>2026-04-30T13:53:13.988Z</time></trkpt><trkpt lat="39.62285870785426" lon="9.303037254593994"><ele>278.0</ele><time>2026-04-30T13:53:14.988Z</time></trkpt><trkpt lat="39.623149460964754" lon="9.30298284615409"><ele>278.0</ele><time>2026-04-30T13:53:15.988Z</time></trkpt><trkpt lat="39.62343982853892" lon="9.302928575874253"><ele>278.0</ele><time>2026-04-30T13:53:16.988Z</time></trkpt><trkpt lat="39.62370773626068" lon="9.302875493098552"><ele>282.0</ele><time>2026-04-30T13:53:17.988Z</time></trkpt><trkpt lat="39.62394929866721" lon="9.302851266354539"><ele>286.0</ele><time>2026-04-30T13:53:18.988Z</time></trkpt><trkpt lat="39.624174139357606" lon="9.30287929406592"><ele>286.0</ele><time>2026-04-30T13:53:19.988Z</time></trkpt><trkpt lat="39.62439993303714" lon="9.302954103226291"><ele>286.0</ele><time>2026-04-30T13:53:20.988Z</time></trkpt><trkpt lat="39.6246250890492" lon="9.30311667124465"><ele>284.0</ele><time>2026-04-30T13:53:21.988Z</time></trkpt><trkpt lat="39.62485895437667" lon="9.303297409763104"><ele>282.0</ele><time>2026-04-30T13:53:22.988Z</time></trkpt><trkpt lat="39.625078438505675" lon="9.303456455695665"><ele>282.0</ele><time>2026-04-30T13:53:23.988Z</time></trkpt><trkpt lat="39.625271587188585" lon="9.303569575820609"><ele>282.0</ele><time>2026-04-30T13:53:24.988Z</time></trkpt><trkpt lat="39.62545662091515" lon="9.30366629256218"><ele>282.0</ele><time>2026-04-30T13:53:25.988Z</time></trkpt><trkpt lat="39.62565637229718" lon="9.303727923738379"><ele>289.0</ele><time>2026-04-30T13:53:26.988Z</time></trkpt><trkpt lat="39.625877237945176" lon="9.3037575218226"><ele>296.0</ele><time>2026-04-30T13:53:27.988Z</time></trkpt><trkpt lat="39.626119593833195" lon="9.303764335355837"><ele>301.0</ele><time>2026-04-30T13:53:28.988Z</time></trkpt><trkpt lat="39.62637130728864" lon="9.303766648234344"><ele>306.0</ele><time>2026-04-30T13:53:29.988Z</time></trkpt><trkpt lat="39.626633694500875" lon="9.303768462216263"><ele>306.0</ele><time>2026-04-30T13:53:30.988Z</time></trkpt><trkpt lat="39.626892947868186" lon="9.303773456711085"><ele>306.0</ele><time>2026-04-30T13:53:31.988Z</time></trkpt><trkpt lat="39.62711941113265" lon="9.303785130132624"><ele>301.6666666666667</ele><time>2026-04-30T13:53:32.988Z</time></trkpt><trkpt lat="39.627322212455184" lon="9.30384198248009"><ele>297.33333333333337</ele><time>2026-04-30T13:53:33.988Z</time></trkpt><trkpt lat="39.62751731561529" lon="9.303915153042446"><ele>293.0</ele><time>2026-04-30T13:53:34.988Z</time></trkpt><trkpt lat="39.627693218586806" lon="9.304051309658476"><ele>296.33333333333337</ele><time>2026-04-30T13:53:35.988Z</time></trkpt><trkpt lat="39.62786771767815" lon="9.304163218247977"><ele>299.6666666666667</ele><time>2026-04-30T13:53:36.988Z</time></trkpt><trkpt lat="39.62807011625436" lon="9.30422189204842"><ele>303.0</ele><time>2026-04-30T13:53:37.988Z</time></trkpt><trkpt lat="39.62829476163859" lon="9.304208197548242"><ele>303.0</ele><time>2026-04-30T13:53:38.988Z</time></trkpt><trkpt lat="39.62852204030326" lon="9.304158366591706"><ele>303.0</ele><time>2026-04-30T13:53:39.988Z</time></trkpt><trkpt lat="39.62872339881168" lon="9.304054422688308"><ele>303.0</ele><time>2026-04-30T13:53:40.988Z</time></trkpt><trkpt lat="39.628913350668654" lon="9.303918218224995"><ele>313.5</ele><time>2026-04-30T13:53:41.988Z</time></trkpt><trkpt lat="39.629087451941466" lon="9.303702861699088"><ele>324.0</ele><time>2026-04-30T13:53:42.988Z</time></trkpt><trkpt lat="39.62925066200863" lon="9.303457078889329"><ele>324.0</ele><time>2026-04-30T13:53:43.988Z</time></trkpt><trkpt lat="39.62944620645954" lon="9.303263455486679"><ele>324.0</ele><time>2026-04-30T13:53:44.988Z</time></trkpt><trkpt lat="39.62967569973516" lon="9.303112067019613"><ele>330.5</ele><time>2026-04-30T13:53:45.988Z</time></trkpt><trkpt lat="39.629908823988956" lon="9.302941184791328"><ele>337.0</ele><time>2026-04-30T13:53:46.988Z</time></trkpt><trkpt lat="39.63012989021169" lon="9.302737761853011"><ele>323.0</ele><time>2026-04-30T13:53:47.988Z</time></trkpt><trkpt lat="39.63035322163039" lon="9.302493173403986"><ele>309.0</ele><time>2026-04-30T13:53:48.988Z</time></trkpt><trkpt lat="39.63057875066168" lon="9.302251512524066"><ele>329.5</ele><time>2026-04-30T13:53:49.988Z</time></trkpt><trkpt lat="39.63080552045772" lon="9.302042181238754"><ele>350.0</ele><time>2026-04-30T13:53:50.988Z</time></trkpt><trkpt lat="39.63101792105619" lon="9.301841943778454"><ele>336.0</ele><time>2026-04-30T13:53:51.988Z</time></trkpt><trkpt lat="39.631217272820194" lon="9.301654540682392"><ele>322.0</ele><time>2026-04-30T13:53:52.988Z</time></trkpt><trkpt lat="39.63141715357131" lon="9.301474405111259"><ele>344.5</ele><time>2026-04-30T13:53:53.988Z</time></trkpt><trkpt lat="39.63162761978055" lon="9.301316889792796"><ele>367.0</ele><time>2026-04-30T13:53:54.988Z</time></trkpt><trkpt lat="39.6318549409051" lon="9.301172927080476"><ele>353.5</ele><time>2026-04-30T13:53:55.988Z</time></trkpt><trkpt lat="39.63209958344847" lon="9.30102808721309"><ele>340.0</ele><time>2026-04-30T13:53:56.988Z</time></trkpt><trkpt lat="39.63235186101732" lon="9.30088684795277"><ele>340.0</ele><time>2026-04-30T13:53:57.988Z</time></trkpt><trkpt lat="39.63258953603199" lon="9.300765156154178"><ele>340.0</ele><time>2026-04-30T13:53:58.988Z</time></trkpt><trkpt lat="39.632800085210725" lon="9.300648335453012"><ele>348.66666666666663</ele><time>2026-04-30T13:53:59.988Z</time></trkpt><trkpt lat="39.63299185497097" lon="9.300535598431209"><ele>357.3333333333333</ele><time>2026-04-30T13:54:00.988Z</time></trkpt><trkpt lat="39.633183443662936" lon="9.300423429338956"><ele>366.0</ele><time>2026-04-30T13:54:01.988Z</time></trkpt><trkpt lat="39.63338043131019" lon="9.300308285833186"><ele>366.0</ele><time>2026-04-30T13:54:02.988Z</time></trkpt><trkpt lat="39.633587026486374" lon="9.300193812398765"><ele>366.0</ele><time>2026-04-30T13:54:03.988Z</time></trkpt><trkpt lat="39.63380052605833" lon="9.30010193840918"><ele>362.0</ele><time>2026-04-30T13:54:04.988Z</time></trkpt><trkpt lat="39.634024500461614" lon="9.300026608483465"><ele>358.0</ele><time>2026-04-30T13:54:05.988Z</time></trkpt><trkpt lat="39.634254778181315" lon="9.29996640467942"><ele>352.5</ele><time>2026-04-30T13:54:06.988Z</time></trkpt><trkpt lat="39.63448705901159" lon="9.299912833814421"><ele>347.0</ele><time>2026-04-30T13:54:07.988Z</time></trkpt><trkpt lat="39.63471823591439" lon="9.299865345794895"><ele>347.0</ele><time>2026-04-30T13:54:08.988Z</time></trkpt><trkpt lat="39.63493043440361" lon="9.299811483205689"><ele>347.0</ele><time>2026-04-30T13:54:09.988Z</time></trkpt><trkpt lat="39.63512234583411" lon="9.299736030718709"><ele>347.0</ele><time>2026-04-30T13:54:10.988Z</time></trkpt><trkpt lat="39.63529638624408" lon="9.299621608749733"><ele>349.0</ele><time>2026-04-30T13:54:11.988Z</time></trkpt><trkpt lat="39.63546111457271" lon="9.299470315899617"><ele>351.0</ele><time>2026-04-30T13:54:12.988Z</time></trkpt><trkpt lat="39.63559295410684" lon="9.299258395507488"><ele>353.0</ele><time>2026-04-30T13:54:13.988Z</time></trkpt><trkpt lat="39.635721947180045" lon="9.299015728295863"><ele>372.0</ele><time>2026-04-30T13:54:14.988Z</time></trkpt><trkpt lat="39.63587445982871" lon="9.298767002183153"><ele>391.0</ele><time>2026-04-30T13:54:15.988Z</time></trkpt><trkpt lat="39.63604449256532" lon="9.298510893920783"><ele>386.5</ele><time>2026-04-30T13:54:16.988Z</time></trkpt><trkpt lat="39.63621836404071" lon="9.298271623702176"><ele>382.0</ele><time>2026-04-30T13:54:17.988Z</time></trkpt><trkpt lat="39.63639651296357" lon="9.298067266143315"><ele>382.0</ele><time>2026-04-30T13:54:18.988Z</time></trkpt><trkpt lat="39.63656816143285" lon="9.297888739212722"><ele>382.0</ele><time>2026-04-30T13:54:19.988Z</time></trkpt><trkpt lat="39.63672889827174" lon="9.297663405743535"><ele>382.0</ele><time>2026-04-30T13:54:20.988Z</time></trkpt><trkpt lat="39.636885062454006" lon="9.297396364049375"><ele>382.0</ele><time>2026-04-30T13:54:21.988Z</time></trkpt><trkpt lat="39.63700718708264" lon="9.297143845391362"><ele>381.3333333333333</ele><time>2026-04-30T13:54:22.988Z</time></trkpt><trkpt lat="39.63712538131775" lon="9.29692584511384"><ele>380.6666666666667</ele><time>2026-04-30T13:54:23.988Z</time></trkpt><trkpt lat="39.63727699622506" lon="9.296738203017131"><ele>380.0</ele><time>2026-04-30T13:54:24.988Z</time></trkpt><trkpt lat="39.63744140112195" lon="9.296562080016194"><ele>383.6666666666667</ele><time>2026-04-30T13:54:25.988Z</time></trkpt><trkpt lat="39.637591196301415" lon="9.296407679655358"><ele>387.33333333333337</ele><time>2026-04-30T13:54:26.988Z</time></trkpt><trkpt lat="39.637710939211885" lon="9.29627952509516"><ele>391.0</ele><time>2026-04-30T13:54:27.988Z</time></trkpt><trkpt lat="39.6378036181704" lon="9.296143250902151"><ele>395.0</ele><time>2026-04-30T13:54:28.988Z</time></trkpt><trkpt lat="39.637850689960096" lon="9.295966512144952"><ele>399.0</ele><time>2026-04-30T13:54:29.988Z</time></trkpt><trkpt lat="39.63783233011436" lon="9.295771750353946"><ele>403.0</ele><time>2026-04-30T13:54:30.988Z</time></trkpt><trkpt lat="39.637766383467635" lon="9.295568594703594"><ele>403.0</ele><time>2026-04-30T13:54:31.988Z</time></trkpt><trkpt lat="39.63766703875712" lon="9.29539710968424"><ele>403.0</ele><time>2026-04-30T13:54:32.988Z</time></trkpt><trkpt lat="39.637543379902986" lon="9.295284876866441"><ele>403.0</ele><time>2026-04-30T13:54:33.988Z</time></trkpt><trkpt lat="39.637399153561105" lon="9.295226375310614"><ele>403.0</ele><time>2026-04-30T13:54:34.988Z</time></trkpt><trkpt lat="39.63723952069929" lon="9.295254465597804"><ele>403.0</ele><time>2026-04-30T13:54:35.988Z</time></trkpt><trkpt lat="39.637087250573146" lon="9.295376014927074"><ele>403.0</ele><time>2026-04-30T13:54:36.988Z</time></trkpt><trkpt lat="39.63695161604423" lon="9.295553353164795"><ele>405.0</ele><time>2026-04-30T13:54:37.988Z</time></trkpt><trkpt lat="39.63686928417572" lon="9.29577227698488"><ele>407.0</ele><time>2026-04-30T13:54:38.988Z</time></trkpt><trkpt lat="39.63683428688355" lon="9.296013568490013"><ele>409.0</ele><time>2026-04-30T13:54:39.989Z</time></trkpt><trkpt lat="39.63683804995318" lon="9.296271400724791"><ele>407.79999999999995</ele><time>2026-04-30T13:54:40.988Z</time></trkpt><trkpt lat="39.636823924673465" lon="9.296465850584124"><ele>406.59999999999997</ele><time>2026-04-30T13:54:41.988Z</time></trkpt><trkpt lat="39.63681028811548" lon="9.29659663802554"><ele>405.4</ele><time>2026-04-30T13:54:42.988Z</time></trkpt><trkpt lat="39.63675026694271" lon="9.296671172051086"><ele>404.2</ele><time>2026-04-30T13:54:43.988Z</time></trkpt><trkpt lat="39.636657367628224" lon="9.296667897704536"><ele>403.0</ele><time>2026-04-30T13:54:44.988Z</time></trkpt><trkpt lat="39.636559368876505" lon="9.296591250892403"><ele>403.0</ele><time>2026-04-30T13:54:45.988Z</time></trkpt><trkpt lat="39.63654607087743" lon="9.296464755819484"><ele>403.0</ele><time>2026-04-30T13:54:46.988Z</time></trkpt><trkpt lat="39.63657607678147" lon="9.296300286564938"><ele>403.0</ele><time>2026-04-30T13:54:47.988Z</time></trkpt><trkpt lat="39.63662716546344" lon="9.296128312020109"><ele>403.0</ele><time>2026-04-30T13:54:48.988Z</time></trkpt><trkpt lat="39.63663365146704" lon="9.295787306009263"><ele>407.0</ele><time>2026-04-30T13:54:49.988Z</time></trkpt><trkpt lat="39.63671932398464" lon="9.295490711765671"><ele>411.0</ele><time>2026-04-30T13:54:50.988Z</time></trkpt><trkpt lat="39.63680865912002" lon="9.295165750403674"><ele>411.0</ele><time>2026-04-30T13:54:51.988Z</time></trkpt><trkpt lat="39.636866978092215" lon="9.294810946141483"><ele>411.0</ele><time>2026-04-30T13:54:52.988Z</time></trkpt><trkpt lat="39.636915612397125" lon="9.294441531879837"><ele>416.0</ele><time>2026-04-30T13:54:53.987Z</time></trkpt><trkpt lat="39.63695181886862" lon="9.294071871039211"><ele>421.0</ele><time>2026-04-30T13:54:54.987Z</time></trkpt><trkpt lat="39.63698275668427" lon="9.293711376627023"><ele>425.0</ele><time>2026-04-30T13:54:55.987Z</time></trkpt><trkpt lat="39.63700462522229" lon="9.293389423263344"><ele>429.0</ele><time>2026-04-30T13:54:56.987Z</time></trkpt><trkpt lat="39.63703046461754" lon="9.293100333863267"><ele>427.66666666666663</ele><time>2026-04-30T13:54:57.987Z</time></trkpt><trkpt lat="39.63707233194316" lon="9.2928448198188"><ele>426.3333333333333</ele><time>2026-04-30T13:54:58.987Z</time></trkpt><trkpt lat="39.63715324310637" lon="9.292617745588275"><ele>425.0</ele><time>2026-04-30T13:54:59.987Z</time></trkpt><trkpt lat="39.63729706040049" lon="9.292404969974317"><ele>420.0</ele><time>2026-04-30T13:55:00.987Z</time></trkpt><trkpt lat="39.63748906023467" lon="9.292206886802239"><ele>415.0</ele><time>2026-04-30T13:55:01.987Z</time></trkpt><trkpt lat="39.63771091920217" lon="9.292033618987364"><ele>420.5</ele><time>2026-04-30T13:55:02.987Z</time></trkpt><trkpt lat="39.637930530787635" lon="9.291835366240173"><ele>426.0</ele><time>2026-04-30T13:55:03.987Z</time></trkpt><trkpt lat="39.638154858352245" lon="9.29161397849871"><ele>421.0</ele><time>2026-04-30T13:55:04.987Z</time></trkpt><trkpt lat="39.63838146311651" lon="9.291388629887098"><ele>416.0</ele><time>2026-04-30T13:55:05.987Z</time></trkpt><trkpt lat="39.638605872635125" lon="9.291162446099433"><ele>420.0</ele><time>2026-04-30T13:55:06.987Z</time></trkpt><trkpt lat="39.63881978312302" lon="9.290957009568924"><ele>424.0</ele><time>2026-04-30T13:55:07.987Z</time></trkpt><trkpt lat="39.63901662767421" lon="9.290772240493338"><ele>424.0</ele><time>2026-04-30T13:55:08.987Z</time></trkpt><trkpt lat="39.63922792672787" lon="9.29060029243391"><ele>424.0</ele><time>2026-04-30T13:55:09.987Z</time></trkpt><trkpt lat="39.63947128935691" lon="9.290459264828886"><ele>422.5</ele><time>2026-04-30T13:55:10.987Z</time></trkpt><trkpt lat="39.639739217162244" lon="9.290347037853202"><ele>421.0</ele><time>2026-04-30T13:55:11.987Z</time></trkpt><trkpt lat="39.64004675298148" lon="9.290263790707119"><ele>425.5</ele><time>2026-04-30T13:55:12.987Z</time></trkpt><trkpt lat="39.64033197884247" lon="9.290132481407332"><ele>430.0</ele><time>2026-04-30T13:55:13.987Z</time></trkpt><trkpt lat="39.64061347896881" lon="9.289987702616614"><ele>430.0</ele><time>2026-04-30T13:55:14.987Z</time></trkpt><trkpt lat="39.64088539344447" lon="9.289851374735175"><ele>430.0</ele><time>2026-04-30T13:55:15.987Z</time></trkpt><trkpt lat="39.64113703458907" lon="9.289732410371716"><ele>424.5</ele><time>2026-04-30T13:55:16.987Z</time></trkpt><trkpt lat="39.64137047799268" lon="9.289610015126943"><ele>419.0</ele><time>2026-04-30T13:55:17.987Z</time></trkpt><trkpt lat="39.64158252879064" lon="9.289508976952982"><ele>419.0</ele><time>2026-04-30T13:55:18.987Z</time></trkpt><trkpt lat="39.641768175887435" lon="9.28943346447036"><ele>419.0</ele><time>2026-04-30T13:55:19.987Z</time></trkpt><trkpt lat="39.64195929706974" lon="9.289404212767511"><ele>419.0</ele><time>2026-04-30T13:55:20.987Z</time></trkpt><trkpt lat="39.642162157959774" lon="9.28944310872295"><ele>419.0</ele><time>2026-04-30T13:55:21.987Z</time></trkpt><trkpt lat="39.64238571518659" lon="9.289531582488296"><ele>419.0</ele><time>2026-04-30T13:55:22.987Z</time></trkpt><trkpt lat="39.64262455528371" lon="9.289630238264296"><ele>416.5</ele><time>2026-04-30T13:55:23.987Z</time></trkpt><trkpt lat="39.64286906213416" lon="9.289720226144684"><ele>414.0</ele><time>2026-04-30T13:55:24.987Z</time></trkpt><trkpt lat="39.64308801142661" lon="9.289792214651044"><ele>419.66666666666663</ele><time>2026-04-30T13:55:25.987Z</time></trkpt><trkpt lat="39.64326432131848" lon="9.28984605233997"><ele>425.3333333333333</ele><time>2026-04-30T13:55:26.987Z</time></trkpt><trkpt lat="39.643429730593745" lon="9.289904377259743"><ele>431.0</ele><time>2026-04-30T13:55:27.987Z</time></trkpt><trkpt lat="39.643567590916184" lon="9.29000321421135"><ele>425.66666666666663</ele><time>2026-04-30T13:55:28.987Z</time></trkpt><trkpt lat="39.64367269359664" lon="9.290171828723109"><ele>420.33333333333337</ele><time>2026-04-30T13:55:29.987Z</time></trkpt><trkpt lat="39.64372282560775" lon="9.290397272380723"><ele>415.0</ele><time>2026-04-30T13:55:30.987Z</time></trkpt><trkpt lat="39.643730618832485" lon="9.29067845454933"><ele>415.0</ele><time>2026-04-30T13:55:31.987Z</time></trkpt><trkpt lat="39.64372164467335" lon="9.290994421190659"><ele>415.0</ele><time>2026-04-30T13:55:32.987Z</time></trkpt><trkpt lat="39.64371939161275" lon="9.291324590177291"><ele>417.0</ele><time>2026-04-30T13:55:33.987Z</time></trkpt><trkpt lat="39.64371700712797" lon="9.291655434587193"><ele>419.0</ele><time>2026-04-30T13:55:34.987Z</time></trkpt><trkpt lat="39.64372417792863" lon="9.291945354637914"><ele>419.0</ele><time>2026-04-30T13:55:35.987Z</time></trkpt><trkpt lat="39.643754173932294" lon="9.292218484087337"><ele>419.0</ele><time>2026-04-30T13:55:36.987Z</time></trkpt><trkpt lat="39.64382056304863" lon="9.292485135176891"><ele>419.0</ele><time>2026-04-30T13:55:37.987Z</time></trkpt><trkpt lat="39.64394364554585" lon="9.292729140372622"><ele>422.5</ele><time>2026-04-30T13:55:38.987Z</time></trkpt><trkpt lat="39.64412330687737" lon="9.292925766522428"><ele>426.0</ele><time>2026-04-30T13:55:39.987Z</time></trkpt><trkpt lat="39.64433536881499" lon="9.293066195002014"><ele>428.0</ele><time>2026-04-30T13:55:40.987Z</time></trkpt><trkpt lat="39.64458862798658" lon="9.293160599755243"><ele>430.0</ele><time>2026-04-30T13:55:41.987Z</time></trkpt><trkpt lat="39.644868144598455" lon="9.29322910269758"><ele>430.0</ele><time>2026-04-30T13:55:42.987Z</time></trkpt><trkpt lat="39.64515305206365" lon="9.293320059923852"><ele>430.0</ele><time>2026-04-30T13:55:43.987Z</time></trkpt><trkpt lat="39.64541261331703" lon="9.29343415999964"><ele>429.0</ele><time>2026-04-30T13:55:44.987Z</time></trkpt><trkpt lat="39.64564185356896" lon="9.293518151672693"><ele>428.0</ele><time>2026-04-30T13:55:45.987Z</time></trkpt><trkpt lat="39.64587104804418" lon="9.293609161706092"><ele>428.0</ele><time>2026-04-30T13:55:46.987Z</time></trkpt><trkpt lat="39.646110092983136" lon="9.293656696033858"><ele>428.0</ele><time>2026-04-30T13:55:47.987Z</time></trkpt><trkpt lat="39.64637501344827" lon="9.293635949940262"><ele>429.0</ele><time>2026-04-30T13:55:48.987Z</time></trkpt><trkpt lat="39.64663878514073" lon="9.293581560005908"><ele>430.0</ele><time>2026-04-30T13:55:49.987Z</time></trkpt><trkpt lat="39.6468625842344" lon="9.293512707037237"><ele>432.33333333333337</ele><time>2026-04-30T13:55:50.987Z</time></trkpt><trkpt lat="39.647064073095855" lon="9.293460851858319"><ele>434.66666666666663</ele><time>2026-04-30T13:55:51.987Z</time></trkpt><trkpt lat="39.64725949149699" lon="9.29342990130775"><ele>437.0</ele><time>2026-04-30T13:55:52.987Z</time></trkpt><trkpt lat="39.64746079825159" lon="9.2933864453388"><ele>437.0</ele><time>2026-04-30T13:55:53.987Z</time></trkpt><trkpt lat="39.64767127318375" lon="9.293309765802448"><ele>437.0</ele><time>2026-04-30T13:55:54.987Z</time></trkpt><trkpt lat="39.64786852009829" lon="9.293199725293006"><ele>437.0</ele><time>2026-04-30T13:55:55.987Z</time></trkpt><trkpt lat="39.64805501246843" lon="9.293070526185025"><ele>436.0</ele><time>2026-04-30T13:55:56.987Z</time></trkpt><trkpt lat="39.648251811384" lon="9.292937764421096"><ele>435.0</ele><time>2026-04-30T13:55:57.987Z</time></trkpt><trkpt lat="39.648458082434075" lon="9.292812377680239"><ele>434.0</ele><time>2026-04-30T13:55:58.987Z</time></trkpt><trkpt lat="39.648658309388935" lon="9.292701122013549"><ele>438.0</ele><time>2026-04-30T13:55:59.987Z</time></trkpt><trkpt lat="39.648856739454466" lon="9.292586849141973"><ele>442.0</ele><time>2026-04-30T13:56:00.987Z</time></trkpt><trkpt lat="39.6490624108391" lon="9.292470947152232"><ele>446.0</ele><time>2026-04-30T13:56:01.987Z</time></trkpt><trkpt lat="39.64927974962494" lon="9.292348928853208"><ele>447.0</ele><time>2026-04-30T13:56:02.987Z</time></trkpt><trkpt lat="39.649498120955776" lon="9.292228975571737"><ele>448.0</ele><time>2026-04-30T13:56:03.987Z</time></trkpt><trkpt lat="39.649700898370746" lon="9.292059366173142"><ele>448.0</ele><time>2026-04-30T13:56:04.987Z</time></trkpt><trkpt lat="39.64988693586421" lon="9.291828252141192"><ele>448.0</ele><time>2026-04-30T13:56:05.987Z</time></trkpt><trkpt lat="39.650044580170224" lon="9.291472894006017"><ele>442.0</ele><time>2026-04-30T13:56:06.987Z</time></trkpt><trkpt lat="39.65022065334237" lon="9.291070656665973"><ele>436.0</ele><time>2026-04-30T13:56:07.987Z</time></trkpt><trkpt lat="39.65044529084763" lon="9.29063840934216"><ele>443.0</ele><time>2026-04-30T13:56:08.987Z</time></trkpt><trkpt lat="39.65068751291145" lon="9.29021342101412"><ele>450.0</ele><time>2026-04-30T13:56:09.987Z</time></trkpt><trkpt lat="39.65089462613349" lon="9.289824417282876"><ele>446.0</ele><time>2026-04-30T13:56:10.987Z</time></trkpt><trkpt lat="39.65107011621799" lon="9.289466625513384"><ele>442.0</ele><time>2026-04-30T13:56:11.987Z</time></trkpt><trkpt lat="39.65120767028738" lon="9.289144828186872"><ele>448.0</ele><time>2026-04-30T13:56:12.987Z</time></trkpt><trkpt lat="39.651321986122674" lon="9.288866196870602"><ele>454.0</ele><time>2026-04-30T13:56:13.987Z</time></trkpt><trkpt lat="39.651430096304935" lon="9.288614898002397"><ele>454.0</ele><time>2026-04-30T13:56:14.987Z</time></trkpt><trkpt lat="39.65156800706854" lon="9.288378149262584"><ele>454.0</ele><time>2026-04-30T13:56:15.987Z</time></trkpt><trkpt lat="39.65176014647422" lon="9.288148263688818"><ele>454.5</ele><time>2026-04-30T13:56:16.987Z</time></trkpt><trkpt lat="39.651976675053774" lon="9.287947205354403"><ele>455.0</ele><time>2026-04-30T13:56:17.987Z</time></trkpt><trkpt lat="39.65216454472633" lon="9.287758640402519"><ele>455.0</ele><time>2026-04-30T13:56:18.987Z</time></trkpt><trkpt lat="39.652323124271206" lon="9.28759049499066"><ele>455.0</ele><time>2026-04-30T13:56:19.987Z</time></trkpt><trkpt lat="39.65246612937859" lon="9.287458713375209"><ele>455.0</ele><time>2026-04-30T13:56:20.987Z</time></trkpt><trkpt lat="39.652635193419755" lon="9.287367210204447"><ele>455.5</ele><time>2026-04-30T13:56:21.987Z</time></trkpt><trkpt lat="39.652843450940665" lon="9.28731857808696"><ele>456.0</ele><time>2026-04-30T13:56:22.987Z</time></trkpt><trkpt lat="39.65308193792623" lon="9.28731716929633"><ele>456.0</ele><time>2026-04-30T13:56:23.987Z</time></trkpt><trkpt lat="39.65334464334665" lon="9.287359625088344"><ele>456.0</ele><time>2026-04-30T13:56:24.987Z</time></trkpt><trkpt lat="39.65364593313" lon="9.287403718675659"><ele>456.0</ele><time>2026-04-30T13:56:25.987Z</time></trkpt><trkpt lat="39.653946829809634" lon="9.287429161809534"><ele>456.0</ele><time>2026-04-30T13:56:26.987Z</time></trkpt><trkpt lat="39.654209016991516" lon="9.287449161537689"><ele>455.0</ele><time>2026-04-30T13:56:27.986Z</time></trkpt><trkpt lat="39.654461918944115" lon="9.287475516561823"><ele>454.0</ele><time>2026-04-30T13:56:28.986Z</time></trkpt><trkpt lat="39.65472446060098" lon="9.287495445416342"><ele>454.0</ele><time>2026-04-30T13:56:29.986Z</time></trkpt><trkpt lat="39.65499757235569" lon="9.287518357482858"><ele>454.0</ele><time>2026-04-30T13:56:30.986Z</time></trkpt><trkpt lat="39.655268565982965" lon="9.287544706078062"><ele>451.0</ele><time>2026-04-30T13:56:31.986Z</time></trkpt><trkpt lat="39.65554564190069" lon="9.28756843822291"><ele>448.0</ele><time>2026-04-30T13:56:32.986Z</time></trkpt><trkpt lat="39.65580220575003" lon="9.287592591200298"><ele>448.0</ele><time>2026-04-30T13:56:33.986Z</time></trkpt><trkpt lat="39.65604563978025" lon="9.287627153844964"><ele>448.0</ele><time>2026-04-30T13:56:34.986Z</time></trkpt><trkpt lat="39.65628741678802" lon="9.287642595283723"><ele>447.0</ele><time>2026-04-30T13:56:35.986Z</time></trkpt><trkpt lat="39.65654613445125" lon="9.287603678305924"><ele>446.0</ele><time>2026-04-30T13:56:36.988Z</time></trkpt><trkpt lat="39.65680867797062" lon="9.287487435914759"><ele>445.5</ele><time>2026-04-30T13:56:37.988Z</time></trkpt><trkpt lat="39.6570815623732" lon="9.287325610093921"><ele>445.0</ele><time>2026-04-30T13:56:38.988Z</time></trkpt><trkpt lat="39.657394822086836" lon="9.28711869222872"><ele>443.0</ele><time>2026-04-30T13:56:39.988Z</time></trkpt><trkpt lat="39.657767125530164" lon="9.286897522707097"><ele>441.0</ele><time>2026-04-30T13:56:40.988Z</time></trkpt><trkpt lat="39.658179057003096" lon="9.286671440608368"><ele>440.0</ele><time>2026-04-30T13:56:41.988Z</time></trkpt><trkpt lat="39.65863678797457" lon="9.286417617049294"><ele>440.0</ele><time>2026-04-30T13:56:42.988Z</time></trkpt><trkpt lat="39.65911001874664" lon="9.286151952656569"><ele>447.0</ele><time>2026-04-30T13:56:43.988Z</time></trkpt><trkpt lat="39.659604564522155" lon="9.285877115455182"><ele>447.0</ele><time>2026-04-30T13:56:44.988Z</time></trkpt><trkpt lat="39.66009327389405" lon="9.285601683943101"><ele>445.0</ele><time>2026-04-30T13:56:45.987Z</time></trkpt><trkpt lat="39.66053327142601" lon="9.28534921496177"><ele>445.0</ele><time>2026-04-30T13:56:46.988Z</time></trkpt><trkpt lat="39.66092423676865" lon="9.285119506821106"><ele>445.0</ele><time>2026-04-30T13:56:47.988Z</time></trkpt><trkpt lat="39.66128448262831" lon="9.284910283481189"><ele>444.5</ele><time>2026-04-30T13:56:48.988Z</time></trkpt><trkpt lat="39.66162625810234" lon="9.284718336922944"><ele>444.0</ele><time>2026-04-30T13:56:49.988Z</time></trkpt><trkpt lat="39.661947057842795" lon="9.284541443957652"><ele>444.5</ele><time>2026-04-30T13:56:50.988Z</time></trkpt><trkpt lat="39.66225549765181" lon="9.284369906436048"><ele>445.0</ele><time>2026-04-30T13:56:51.988Z</time></trkpt><trkpt lat="39.66256046847252" lon="9.28419024082305"><ele>445.5</ele><time>2026-04-30T13:56:52.988Z</time></trkpt><trkpt lat="39.662843495749705" lon="9.284028505671419"><ele>446.0</ele><time>2026-04-30T13:56:53.988Z</time></trkpt><trkpt lat="39.663105377439976" lon="9.283883488280864"><ele>446.0</ele><time>2026-04-30T13:56:54.988Z</time></trkpt><trkpt lat="39.663347131020416" lon="9.283757152424752"><ele>446.0</ele><time>2026-04-30T13:56:55.988Z</time></trkpt><trkpt lat="39.663562350963836" lon="9.283626493083805"><ele>449.3333333333333</ele><time>2026-04-30T13:56:56.988Z</time></trkpt><trkpt lat="39.663742111104185" lon="9.283487933284402"><ele>452.66666666666663</ele><time>2026-04-30T13:56:57.988Z</time></trkpt><trkpt lat="39.66388711804236" lon="9.28329799251406"><ele>456.0</ele><time>2026-04-30T13:56:58.988Z</time></trkpt><trkpt lat="39.663985952907574" lon="9.283025867590666"><ele>457.0</ele><time>2026-04-30T13:56:59.988Z</time></trkpt><trkpt lat="39.66401690064483" lon="9.282698403759177"><ele>458.0</ele><time>2026-04-30T13:57:00.988Z</time></trkpt><trkpt lat="39.6640682216743" lon="9.282387776724512"><ele>456.66666666666663</ele><time>2026-04-30T13:57:01.988Z</time></trkpt><trkpt lat="39.664169445626904" lon="9.282140433336341"><ele>455.33333333333337</ele><time>2026-04-30T13:57:02.988Z</time></trkpt><trkpt lat="39.664325240216925" lon="9.281919942858078"><ele>454.0</ele><time>2026-04-30T13:57:03.988Z</time></trkpt><trkpt lat="39.664500659853495" lon="9.281743587847634"><ele>457.0</ele><time>2026-04-30T13:57:04.988Z</time></trkpt><trkpt lat="39.66466324675396" lon="9.281620540860997"><ele>460.0</ele><time>2026-04-30T13:57:05.988Z</time></trkpt><trkpt lat="39.66485153170764" lon="9.281536740157845"><ele>463.0</ele><time>2026-04-30T13:57:06.988Z</time></trkpt><trkpt lat="39.665090977923676" lon="9.28148597690311"><ele>462.5</ele><time>2026-04-30T13:57:07.988Z</time></trkpt><trkpt lat="39.66536402612287" lon="9.281439472920189"><ele>462.0</ele><time>2026-04-30T13:57:08.988Z</time></trkpt><trkpt lat="39.66566967133866" lon="9.28139263713603"><ele>462.0</ele><time>2026-04-30T13:57:09.988Z</time></trkpt><trkpt lat="39.66597791408602" lon="9.28132384488094"><ele>462.0</ele><time>2026-04-30T13:57:10.988Z</time></trkpt><trkpt lat="39.66627422221804" lon="9.281239344867807"><ele>467.0</ele><time>2026-04-30T13:57:11.988Z</time></trkpt><trkpt lat="39.66657172965417" lon="9.281104609014845"><ele>472.0</ele><time>2026-04-30T13:57:12.988Z</time></trkpt><trkpt lat="39.666848176947205" lon="9.280934666869692"><ele>477.0</ele><time>2026-04-30T13:57:13.988Z</time></trkpt><trkpt lat="39.66708895112369" lon="9.280774410105323"><ele>482.0</ele><time>2026-04-30T13:57:14.988Z</time></trkpt><trkpt lat="39.6672881348088" lon="9.280664618065586"><ele>480.66666666666663</ele><time>2026-04-30T13:57:15.988Z</time></trkpt><trkpt lat="39.66744602732232" lon="9.280577705461067"><ele>479.33333333333337</ele><time>2026-04-30T13:57:16.988Z</time></trkpt><trkpt lat="39.66758611982158" lon="9.280469344352083"><ele>478.0</ele><time>2026-04-30T13:57:17.988Z</time></trkpt><trkpt lat="39.66769725696371" lon="9.280289317218926"><ele>478.0</ele><time>2026-04-30T13:57:18.988Z</time></trkpt><trkpt lat="39.66775945195631" lon="9.280055345851627"><ele>478.0</ele><time>2026-04-30T13:57:19.988Z</time></trkpt><trkpt lat="39.66773705386141" lon="9.279803760762388"><ele>478.0</ele><time>2026-04-30T13:57:20.988Z</time></trkpt><trkpt lat="39.66762423877138" lon="9.279558348440123"><ele>480.0</ele><time>2026-04-30T13:57:21.988Z</time></trkpt><trkpt lat="39.66743659070835" lon="9.279332519950522"><ele>482.0</ele><time>2026-04-30T13:57:22.988Z</time></trkpt><trkpt lat="39.667333100223374" lon="9.279133465708313"><ele>484.0</ele><time>2026-04-30T13:57:23.988Z</time></trkpt><trkpt lat="39.66729235874944" lon="9.278920754089484"><ele>485.0</ele><time>2026-04-30T13:57:24.988Z</time></trkpt><trkpt lat="39.667328549921244" lon="9.278707706094641"><ele>486.0</ele><time>2026-04-30T13:57:25.988Z</time></trkpt><trkpt lat="39.66742498871606" lon="9.278488711789826"><ele>487.0</ele><time>2026-04-30T13:57:26.988Z</time></trkpt><trkpt lat="39.66756898498824" lon="9.278222933685338"><ele>489.5</ele><time>2026-04-30T13:57:27.988Z</time></trkpt><trkpt lat="39.66772680628334" lon="9.277925745448728"><ele>492.0</ele><time>2026-04-30T13:57:28.988Z</time></trkpt><trkpt lat="39.66791050250744" lon="9.277555957988536"><ele>493.0</ele><time>2026-04-30T13:57:29.988Z</time></trkpt><trkpt lat="39.66812195206816" lon="9.277128371931306"><ele>494.0</ele><time>2026-04-30T13:57:30.988Z</time></trkpt><trkpt lat="39.66832203271946" lon="9.276732750027774"><ele>495.0</ele><time>2026-04-30T13:57:31.988Z</time></trkpt><trkpt lat="39.66849916415723" lon="9.27638878083897"><ele>496.0</ele><time>2026-04-30T13:57:32.988Z</time></trkpt><trkpt lat="39.66864795583246" lon="9.276075508521574"><ele>496.0</ele><time>2026-04-30T13:57:33.988Z</time></trkpt><trkpt lat="39.66878761116796" lon="9.275799124451728"><ele>496.0</ele><time>2026-04-30T13:57:34.988Z</time></trkpt><trkpt lat="39.668899724632176" lon="9.275547565140043"><ele>497.0</ele><time>2026-04-30T13:57:35.988Z</time></trkpt><trkpt lat="39.668975854951064" lon="9.275273775254798"><ele>498.0</ele><time>2026-04-30T13:57:36.988Z</time></trkpt><trkpt lat="39.66896580610189" lon="9.274958592983067"><ele>499.0</ele><time>2026-04-30T13:57:37.988Z</time></trkpt><trkpt lat="39.66891393856207" lon="9.27461004674024"><ele>500.0</ele><time>2026-04-30T13:57:38.988Z</time></trkpt><trkpt lat="39.66882870786217" lon="9.274290032439916"><ele>500.0</ele><time>2026-04-30T13:57:39.988Z</time></trkpt><trkpt lat="39.66876441415428" lon="9.273992407254683"><ele>500.0</ele><time>2026-04-30T13:57:40.988Z</time></trkpt><trkpt lat="39.66876098138761" lon="9.273717436228278"><ele>502.0</ele><time>2026-04-30T13:57:41.988Z</time></trkpt><trkpt lat="39.668813662966826" lon="9.273476512635499"><ele>504.0</ele><time>2026-04-30T13:57:42.988Z</time></trkpt><trkpt lat="39.668900722172125" lon="9.273270125471264"><ele>506.0</ele><time>2026-04-30T13:57:43.988Z</time></trkpt><trkpt lat="39.66902995916862" lon="9.273066451553225"><ele>507.0</ele><time>2026-04-30T13:57:44.988Z</time></trkpt><trkpt lat="39.66919949057568" lon="9.272872048925729"><ele>508.0</ele><time>2026-04-30T13:57:45.988Z</time></trkpt><trkpt lat="39.669391422219626" lon="9.272670133346809"><ele>508.0</ele><time>2026-04-30T13:57:46.988Z</time></trkpt><trkpt lat="39.66960063351532" lon="9.272444938643613"><ele>508.0</ele><time>2026-04-30T13:57:47.988Z</time></trkpt><trkpt lat="39.66982829770543" lon="9.272197525328476"><ele>508.0</ele><time>2026-04-30T13:57:48.988Z</time></trkpt><trkpt lat="39.670061015277874" lon="9.27193750687063"><ele>508.0</ele><time>2026-04-30T13:57:49.988Z</time></trkpt><trkpt lat="39.670296966217414" lon="9.271682682438524"><ele>510.5</ele><time>2026-04-30T13:57:50.988Z</time></trkpt><trkpt lat="39.67052837430084" lon="9.271435662696764"><ele>513.0</ele><time>2026-04-30T13:57:51.988Z</time></trkpt><trkpt lat="39.670741768395004" lon="9.27120452960991"><ele>513.0</ele><time>2026-04-30T13:57:52.988Z</time></trkpt><trkpt lat="39.67094129619513" lon="9.270982640746857"><ele>513.0</ele><time>2026-04-30T13:57:53.988Z</time></trkpt><trkpt lat="39.6711295943963" lon="9.27077391003745"><ele>512.5</ele><time>2026-04-30T13:57:54.987Z</time></trkpt><trkpt lat="39.671313150609905" lon="9.270576287465353"><ele>512.0</ele><time>2026-04-30T13:57:55.987Z</time></trkpt><trkpt lat="39.67149884131678" lon="9.270390647075116"><ele>512.0</ele><time>2026-04-30T13:57:56.987Z</time></trkpt><trkpt lat="39.671689035091525" lon="9.27022195508801"><ele>512.0</ele><time>2026-04-30T13:57:57.987Z</time></trkpt><trkpt lat="39.671891398129254" lon="9.27005705866011"><ele>510.5</ele><time>2026-04-30T13:57:58.987Z</time></trkpt><trkpt lat="39.672102120932784" lon="9.269892518716155"><ele>509.0</ele><time>2026-04-30T13:57:59.987Z</time></trkpt><trkpt lat="39.672317150949475" lon="9.269730056878714"><ele>509.0</ele><time>2026-04-30T13:58:00.987Z</time></trkpt><trkpt lat="39.67253794820234" lon="9.269565869367762"><ele>509.0</ele><time>2026-04-30T13:58:01.987Z</time></trkpt><trkpt lat="39.67276454094494" lon="9.26940108129462"><ele>511.5</ele><time>2026-04-30T13:58:02.987Z</time></trkpt><trkpt lat="39.67298866153006" lon="9.269231305131253"><ele>514.0</ele><time>2026-04-30T13:58:03.987Z</time></trkpt><trkpt lat="39.67321712036439" lon="9.269065499082137"><ele>512.5</ele><time>2026-04-30T13:58:04.987Z</time></trkpt><trkpt lat="39.673443693812466" lon="9.268893749134183"><ele>511.0</ele><time>2026-04-30T13:58:05.987Z</time></trkpt><trkpt lat="39.673647480184364" lon="9.268710736261909"><ele>511.0</ele><time>2026-04-30T13:58:06.987Z</time></trkpt><trkpt lat="39.673829388500494" lon="9.268497947190289"><ele>511.0</ele><time>2026-04-30T13:58:07.987Z</time></trkpt><trkpt lat="39.674000113920904" lon="9.268260493414784"><ele>512.0</ele><time>2026-04-30T13:58:08.987Z</time></trkpt><trkpt lat="39.674171980459626" lon="9.268001332047898"><ele>513.0</ele><time>2026-04-30T13:58:09.987Z</time></trkpt><trkpt lat="39.67434112989508" lon="9.26774829498394"><ele>511.5</ele><time>2026-04-30T13:58:10.987Z</time></trkpt><trkpt lat="39.67450489795705" lon="9.26751725833653"><ele>510.0</ele><time>2026-04-30T13:58:11.987Z</time></trkpt><trkpt lat="39.674660224963176" lon="9.267299328482627"><ele>510.5</ele><time>2026-04-30T13:58:12.987Z</time></trkpt><trkpt lat="39.67480407691281" lon="9.267087462254999"><ele>511.0</ele><time>2026-04-30T13:58:13.987Z</time></trkpt><trkpt lat="39.674966499308965" lon="9.266843403849858"><ele>511.0</ele><time>2026-04-30T13:58:14.987Z</time></trkpt><trkpt lat="39.675174774717284" lon="9.266533908307366"><ele>511.0</ele><time>2026-04-30T13:58:15.987Z</time></trkpt><trkpt lat="39.67542807431099" lon="9.266170318890076"><ele>511.0</ele><time>2026-04-30T13:58:16.987Z</time></trkpt><trkpt lat="39.675721637078176" lon="9.265754073025212"><ele>511.0</ele><time>2026-04-30T13:58:17.987Z</time></trkpt><trkpt lat="39.67603500181605" lon="9.265303359252227"><ele>514.0</ele><time>2026-04-30T13:58:18.987Z</time></trkpt><trkpt lat="39.676374680695005" lon="9.264809539413353"><ele>511.0</ele><time>2026-04-30T13:58:19.987Z</time></trkpt><trkpt lat="39.67671887527908" lon="9.264318979876318"><ele>511.5</ele><time>2026-04-30T13:58:20.987Z</time></trkpt><trkpt lat="39.677016330161855" lon="9.263897876560458"><ele>512.0</ele><time>2026-04-30T13:58:21.987Z</time></trkpt><trkpt lat="39.677280329840215" lon="9.263522864002887"><ele>512.0</ele><time>2026-04-30T13:58:22.987Z</time></trkpt><trkpt lat="39.677536523244896" lon="9.263155520378378"><ele>512.0</ele><time>2026-04-30T13:58:23.987Z</time></trkpt><trkpt lat="39.677765966968636" lon="9.262830561781382"><ele>513.5</ele><time>2026-04-30T13:58:24.987Z</time></trkpt><trkpt lat="39.67797004678935" lon="9.262536054827848"><ele>515.0</ele><time>2026-04-30T13:58:25.987Z</time></trkpt><trkpt lat="39.67815721539523" lon="9.262255309257158"><ele>516.5</ele><time>2026-04-30T13:58:26.987Z</time></trkpt><trkpt lat="39.678322301115784" lon="9.261980631934234"><ele>518.0</ele><time>2026-04-30T13:58:27.987Z</time></trkpt><trkpt lat="39.67846346471842" lon="9.261707385495573"><ele>519.5</ele><time>2026-04-30T13:58:28.987Z</time></trkpt><trkpt lat="39.67857848096345" lon="9.261419529918824"><ele>521.0</ele><time>2026-04-30T13:58:29.987Z</time></trkpt><trkpt lat="39.67869122134672" lon="9.261136981238057"><ele>522.5</ele><time>2026-04-30T13:58:30.987Z</time></trkpt><trkpt lat="39.67880502706181" lon="9.260859549107778"><ele>524.0</ele><time>2026-04-30T13:58:31.987Z</time></trkpt><trkpt lat="39.678912994312626" lon="9.260609237663045"><ele>524.0</ele><time>2026-04-30T13:58:32.987Z</time></trkpt><trkpt lat="39.679013023266975" lon="9.260371423661914"><ele>524.0</ele><time>2026-04-30T13:58:33.987Z</time></trkpt><trkpt lat="39.679106739351234" lon="9.260146612263766"><ele>524.0</ele><time>2026-04-30T13:58:34.987Z</time></trkpt><trkpt lat="39.67919375594771" lon="9.259942568536308"><ele>523.6666666666666</ele><time>2026-04-30T13:58:35.987Z</time></trkpt><trkpt lat="39.679275563775185" lon="9.259755001343391"><ele>523.3333333333334</ele><time>2026-04-30T13:58:36.987Z</time></trkpt><trkpt lat="39.67935113586581" lon="9.259578092804036"><ele>523.0</ele><time>2026-04-30T13:58:37.987Z</time></trkpt><trkpt lat="39.6794182059335" lon="9.259418298401805"><ele>524.5</ele><time>2026-04-30T13:58:38.987Z</time></trkpt><trkpt lat="39.67948307550232" lon="9.25926497566618"><ele>526.0</ele><time>2026-04-30T13:58:39.987Z</time></trkpt><trkpt lat="39.67954237339008" lon="9.259122240157922"><ele>527.5</ele><time>2026-04-30T13:58:40.987Z</time></trkpt><trkpt lat="39.67959901114009" lon="9.258984861372571"><ele>529.0</ele><time>2026-04-30T13:58:41.987Z</time></trkpt><trkpt lat="39.67965307348314" lon="9.25885627840599"><ele>529.0</ele><time>2026-04-30T13:58:42.988Z</time></trkpt><trkpt lat="39.67971187803063" lon="9.258730531244161"><ele>529.0</ele><time>2026-04-30T13:58:43.987Z</time></trkpt><trkpt lat="39.679775411423684" lon="9.258606268704453"><ele>529.0</ele><time>2026-04-30T13:58:44.987Z</time></trkpt><trkpt lat="39.67984543836494" lon="9.258488232479436"><ele>529.0</ele><time>2026-04-30T13:58:45.988Z</time></trkpt><trkpt lat="39.67992275425543" lon="9.258370911246562"><ele>529.0</ele><time>2026-04-30T13:58:46.987Z</time></trkpt><trkpt lat="39.68000870033963" lon="9.258256663749027"><ele>529.0</ele><time>2026-04-30T13:58:47.987Z</time></trkpt><trkpt lat="39.68011835290727" lon="9.258143468357648"><ele>529.0</ele><time>2026-04-30T13:58:48.987Z</time></trkpt><trkpt lat="39.680242705769935" lon="9.258034472361905"><ele>529.0</ele><time>2026-04-30T13:58:49.987Z</time></trkpt><trkpt lat="39.68037797147574" lon="9.257924649990976"><ele>528.0</ele><time>2026-04-30T13:58:50.987Z</time></trkpt><trkpt lat="39.68052271497298" lon="9.257810841967842"><ele>527.0</ele><time>2026-04-30T13:58:51.988Z</time></trkpt><trkpt lat="39.68067297592748" lon="9.257674534036111"><ele>526.0</ele><time>2026-04-30T13:58:52.987Z</time></trkpt><trkpt lat="39.680833073075554" lon="9.257530410763644"><ele>526.0</ele><time>2026-04-30T13:58:53.987Z</time></trkpt><trkpt lat="39.68100490778379" lon="9.257385097976899"><ele>526.0</ele><time>2026-04-30T13:58:54.987Z</time></trkpt><trkpt lat="39.681180380558075" lon="9.257238473848016"><ele>526.0</ele><time>2026-04-30T13:58:55.987Z</time></trkpt><trkpt lat="39.68134987852865" lon="9.257092615522286"><ele>527.0</ele><time>2026-04-30T13:58:56.987Z</time></trkpt><trkpt lat="39.681522064969116" lon="9.256943964260088"><ele>528.0</ele><time>2026-04-30T13:58:57.987Z</time></trkpt><trkpt lat="39.681705785931356" lon="9.256793758677425"><ele>529.0</ele><time>2026-04-30T13:58:58.987Z</time></trkpt><trkpt lat="39.681894179979224" lon="9.25664002513106"><ele>530.0</ele><time>2026-04-30T13:58:59.987Z</time></trkpt><trkpt lat="39.68208903194353" lon="9.256475790971558"><ele>531.0</ele><time>2026-04-30T13:59:00.987Z</time></trkpt><trkpt lat="39.6822905659692" lon="9.256306210920554"><ele>531.0</ele><time>2026-04-30T13:59:01.987Z</time></trkpt><trkpt lat="39.682496075703035" lon="9.256134331224077"><ele>531.0</ele><time>2026-04-30T13:59:02.987Z</time></trkpt><trkpt lat="39.68270262204801" lon="9.255966522459449"><ele>532.5</ele><time>2026-04-30T13:59:03.987Z</time></trkpt><trkpt lat="39.682904514810225" lon="9.255792991208274"><ele>534.0</ele><time>2026-04-30T13:59:04.987Z</time></trkpt><trkpt lat="39.68310884064823" lon="9.255617265432454"><ele>530.5</ele><time>2026-04-30T13:59:05.987Z</time></trkpt><trkpt lat="39.683314129799776" lon="9.255448017634233"><ele>527.0</ele><time>2026-04-30T13:59:06.987Z</time></trkpt><trkpt lat="39.683524059314095" lon="9.255292387495704"><ele>531.0</ele><time>2026-04-30T13:59:07.987Z</time></trkpt><trkpt lat="39.68374101793558" lon="9.255154908951214"><ele>535.0</ele><time>2026-04-30T13:59:08.987Z</time></trkpt><trkpt lat="39.68396221350425" lon="9.255024813939908"><ele>535.0</ele><time>2026-04-30T13:59:09.987Z</time></trkpt><trkpt lat="39.68418530540442" lon="9.254905612841304"><ele>535.0</ele><time>2026-04-30T13:59:10.987Z</time></trkpt><trkpt lat="39.68440451522532" lon="9.254789961367292"><ele>533.0</ele><time>2026-04-30T13:59:11.987Z</time></trkpt><trkpt lat="39.68461277284998" lon="9.254667593695707"><ele>531.0</ele><time>2026-04-30T13:59:12.987Z</time></trkpt><trkpt lat="39.6848131841799" lon="9.254547118633567"><ele>529.0</ele><time>2026-04-30T13:59:13.987Z</time></trkpt><trkpt lat="39.68501387120798" lon="9.25442673492915"><ele>529.0</ele><time>2026-04-30T13:59:14.987Z</time></trkpt><trkpt lat="39.68521726835654" lon="9.254312626217057"><ele>529.0</ele><time>2026-04-30T13:59:15.987Z</time></trkpt><trkpt lat="39.685422967891334" lon="9.25419531058756"><ele>529.0</ele><time>2026-04-30T13:59:16.987Z</time></trkpt><trkpt lat="39.68563109337728" lon="9.254070328492501"><ele>529.0</ele><time>2026-04-30T13:59:17.987Z</time></trkpt><trkpt lat="39.68583967145847" lon="9.25394631450217"><ele>529.0</ele><time>2026-04-30T13:59:18.987Z</time></trkpt><trkpt lat="39.686043480492835" lon="9.253834855133407"><ele>531.0</ele><time>2026-04-30T13:59:19.987Z</time></trkpt><trkpt lat="39.68623781241099" lon="9.253734514199609"><ele>533.0</ele><time>2026-04-30T13:59:20.987Z</time></trkpt><trkpt lat="39.68642864694363" lon="9.253632337078317"><ele>535.0</ele><time>2026-04-30T13:59:21.987Z</time></trkpt><trkpt lat="39.68661219108135" lon="9.253527726495566"><ele>535.0</ele><time>2026-04-30T13:59:22.987Z</time></trkpt><trkpt lat="39.68677820090495" lon="9.2534313617519"><ele>535.0</ele><time>2026-04-30T13:59:23.987Z</time></trkpt><trkpt lat="39.68693023100641" lon="9.253345748750785"><ele>535.0</ele><time>2026-04-30T13:59:24.987Z</time></trkpt><trkpt lat="39.68708048477438" lon="9.253281122126255"><ele>535.0</ele><time>2026-04-30T13:59:25.987Z</time></trkpt><trkpt lat="39.68723181731652" lon="9.253237983866734"><ele>535.0</ele><time>2026-04-30T13:59:26.987Z</time></trkpt><trkpt lat="39.68737820706111" lon="9.253206105270158"><ele>535.0</ele><time>2026-04-30T13:59:27.987Z</time></trkpt><trkpt lat="39.6875154192532" lon="9.253195341605682"><ele>535.0</ele><time>2026-04-30T13:59:28.987Z</time></trkpt><trkpt lat="39.687645372312595" lon="9.253197705791308"><ele>534.75</ele><time>2026-04-30T13:59:29.987Z</time></trkpt><trkpt lat="39.6877852930626" lon="9.253194439050576"><ele>534.5</ele><time>2026-04-30T13:59:30.987Z</time></trkpt><trkpt lat="39.68790952997938" lon="9.25319322043127"><ele>534.25</ele><time>2026-04-30T13:59:31.987Z</time></trkpt><trkpt lat="39.688033030920316" lon="9.253194205127652"><ele>534.0</ele><time>2026-04-30T13:59:32.987Z</time></trkpt><trkpt lat="39.68814795671928" lon="9.253187250526212"><ele>534.0</ele><time>2026-04-30T13:59:33.987Z</time></trkpt><trkpt lat="39.68826709439812" lon="9.253189547151324"><ele>534.0</ele><time>2026-04-30T13:59:34.987Z</time></trkpt><trkpt lat="39.68837779603524" lon="9.253182608527867"><ele>534.0</ele><time>2026-04-30T13:59:35.987Z</time></trkpt><trkpt lat="39.68849161773218" lon="9.253177411820188"><ele>534.0</ele><time>2026-04-30T13:59:36.987Z</time></trkpt><trkpt lat="39.68860551046536" lon="9.253165196916191"><ele>533.8</ele><time>2026-04-30T13:59:37.987Z</time></trkpt><trkpt lat="39.688722082802165" lon="9.253160889918878"><ele>533.5999999999999</ele><time>2026-04-30T13:59:38.987Z</time></trkpt><trkpt lat="39.68883545360862" lon="9.25315951579615"><ele>533.4</ele><time>2026-04-30T13:59:39.987Z</time></trkpt><trkpt lat="39.688943870779106" lon="9.253165450064301"><ele>533.1999999999999</ele><time>2026-04-30T13:59:40.987Z</time></trkpt><trkpt lat="39.6890515845668" lon="9.253162447762236"><ele>533.0</ele><time>2026-04-30T13:59:41.987Z</time></trkpt><trkpt lat="39.689151528333205" lon="9.253162866406367"><ele>533.0</ele><time>2026-04-30T13:59:42.987Z</time></trkpt><trkpt lat="39.68924425361722" lon="9.253159759236622"><ele>533.0</ele><time>2026-04-30T13:59:43.987Z</time></trkpt><trkpt lat="39.68933248496262" lon="9.253151002283577"><ele>533.0</ele><time>2026-04-30T13:59:44.987Z</time></trkpt><trkpt lat="39.68941968434572" lon="9.25314448127925"><ele>533.0</ele><time>2026-04-30T13:59:45.987Z</time></trkpt><trkpt lat="39.689499092827575" lon="9.25313803571751"><ele>533.0</ele><time>2026-04-30T13:59:46.987Z</time></trkpt><trkpt lat="39.689573232622266" lon="9.253133527734082"><ele>533.0</ele><time>2026-04-30T13:59:47.987Z</time></trkpt><trkpt lat="39.689641372399684" lon="9.253135293239975"><ele>532.8</ele><time>2026-04-30T13:59:48.987Z</time></trkpt><trkpt lat="39.68972397823868" lon="9.253134371825574"><ele>532.5999999999999</ele><time>2026-04-30T13:59:49.987Z</time></trkpt><trkpt lat="39.68981925661352" lon="9.25313144551643"><ele>532.4000000000001</ele><time>2026-04-30T13:59:50.987Z</time></trkpt><trkpt lat="39.68991886127807" lon="9.253135994577892"><ele>532.2</ele><time>2026-04-30T13:59:51.987Z</time></trkpt><trkpt lat="39.69001543283369" lon="9.253129209743433"><ele>532.0</ele><time>2026-04-30T13:59:52.987Z</time></trkpt><trkpt lat="39.69010192157258" lon="9.253134179325155"><ele>532.0</ele><time>2026-04-30T13:59:53.987Z</time></trkpt><trkpt lat="39.69018081738267" lon="9.253140492110544"><ele>532.0</ele><time>2026-04-30T13:59:54.987Z</time></trkpt><trkpt lat="39.690246048033764" lon="9.253149453980033"><ele>532.0</ele><time>2026-04-30T13:59:55.987Z</time></trkpt><trkpt lat="39.6903146689188" lon="9.253116433373593"><ele>532.0</ele><time>2026-04-30T13:59:59.987Z</time></trkpt><trkpt lat="39.69031610108614" lon="9.253016115357012"><ele>532.0</ele><time>2026-04-30T14:00:02.987Z</time></trkpt><trkpt lat="39.69029155665176" lon="9.252883903137995"><ele>532.0</ele><time>2026-04-30T14:00:04.986Z</time></trkpt><trkpt lat="39.69027789489952" lon="9.252803856163442"><ele>531.1666666666667</ele><time>2026-04-30T14:00:05.986Z</time></trkpt><trkpt lat="39.69026842673801" lon="9.252713186585618"><ele>530.3333333333334</ele><time>2026-04-30T14:00:06.986Z</time></trkpt><trkpt lat="39.69024488929529" lon="9.252623541774781"><ele>529.5</ele><time>2026-04-30T14:00:07.986Z</time></trkpt><trkpt lat="39.69021321555822" lon="9.252533612210438"><ele>528.6666666666666</ele><time>2026-04-30T14:00:08.986Z</time></trkpt><trkpt lat="39.69017766043906" lon="9.252449000145031"><ele>527.8333333333333</ele><time>2026-04-30T14:00:09.986Z</time></trkpt><trkpt lat="39.69014177475457" lon="9.252337800565337"><ele>527.0</ele><time>2026-04-30T14:00:10.986Z</time></trkpt><trkpt lat="39.690101022308355" lon="9.2522291361484"><ele>526.4</ele><time>2026-04-30T14:00:11.986Z</time></trkpt><trkpt lat="39.69005059025967" lon="9.25211642968604"><ele>525.8000000000001</ele><time>2026-04-30T14:00:12.986Z</time></trkpt><trkpt lat="39.69000551077596" lon="9.25199589083908"><ele>525.2</ele><time>2026-04-30T14:00:13.986Z</time></trkpt><trkpt lat="39.6899569354352" lon="9.251865046940074"><ele>524.6</ele><time>2026-04-30T14:00:14.986Z</time></trkpt><trkpt lat="39.68990548875068" lon="9.251732043669437"><ele>524.0</ele><time>2026-04-30T14:00:15.986Z</time></trkpt><trkpt lat="39.6898521729716" lon="9.251589692136806"><ele>523.5</ele><time>2026-04-30T14:00:16.986Z</time></trkpt><trkpt lat="39.689786804641216" lon="9.251443022477844"><ele>523.0</ele><time>2026-04-30T14:00:17.986Z</time></trkpt><trkpt lat="39.68971131706679" lon="9.25129179106875"><ele>522.5</ele><time>2026-04-30T14:00:18.986Z</time></trkpt><trkpt lat="39.68963381208803" lon="9.251139206686423"><ele>522.0</ele><time>2026-04-30T14:00:19.986Z</time></trkpt><trkpt lat="39.6895531812611" lon="9.250988872731043"><ele>522.0</ele><time>2026-04-30T14:00:20.986Z</time></trkpt><trkpt lat="39.68948565715982" lon="9.250866850201644"><ele>522.0</ele><time>2026-04-30T14:00:21.986Z</time></trkpt><trkpt lat="39.68941803578846" lon="9.250763088333635"><ele>522.0</ele><time>2026-04-30T14:00:22.986Z</time></trkpt><trkpt lat="39.68938359155217" lon="9.2506754194288"><ele>522.0</ele><time>2026-04-30T14:00:23.986Z</time></trkpt><trkpt lat="39.689426203029065" lon="9.25054387530971"><ele>522.0</ele><time>2026-04-30T14:00:25.986Z</time></trkpt><trkpt lat="39.68952564901639" lon="9.250490519200548"><ele>521.8000000000001</ele><time>2026-04-30T14:00:26.986Z</time></trkpt><trkpt lat="39.68962674441031" lon="9.250450005321614"><ele>521.6</ele><time>2026-04-30T14:00:27.986Z</time></trkpt><trkpt lat="39.68974306942438" lon="9.250412639485141"><ele>521.4000000000001</ele><time>2026-04-30T14:00:28.986Z</time></trkpt><trkpt lat="39.689858018193306" lon="9.250380008845289"><ele>521.2</ele><time>2026-04-30T14:00:29.986Z</time></trkpt><trkpt lat="39.68994732393865" lon="9.25034286676626"><ele>521.0</ele><time>2026-04-30T14:00:30.986Z</time></trkpt><trkpt lat="39.690045943034086" lon="9.2502765720013"><ele>521.0</ele><time>2026-04-30T14:00:32.986Z</time></trkpt><trkpt lat="39.69006726863653" lon="9.250182479064103"><ele>521.0</ele><time>2026-04-30T14:00:34.986Z</time></trkpt><trkpt lat="39.69012983964609" lon="9.25010467987346"><ele>521.0</ele><time>2026-04-30T14:00:37.986Z</time></trkpt><trkpt lat="39.69024641996103" lon="9.25002934195134"><ele>521.0</ele><time>2026-04-30T14:07:57Z</time></trkpt><trkpt lat="39.69032558119182" lon="9.250055125671395"><ele>521.0</ele><time>2026-04-30T14:08:01Z</time></trkpt><trkpt lat="39.69038467792465" lon="9.250131456757181"><ele>521.2</ele><time>2026-04-30T14:08:06Z</time></trkpt><trkpt lat="39.69047319185634" lon="9.250144305154233"><ele>521.4000000000001</ele><time>2026-04-30T14:08:08Z</time></trkpt><trkpt lat="39.69056861831002" lon="9.250118277675643"><ele>521.6</ele><time>2026-04-30T14:08:10Z</time></trkpt><trkpt lat="39.69066053686624" lon="9.250082325052409"><ele>521.8000000000001</ele><time>2026-04-30T14:08:12Z</time></trkpt><trkpt lat="39.69074285183172" lon="9.250058326671578"><ele>522.0</ele><time>2026-04-30T14:08:14Z</time></trkpt><trkpt lat="39.690833387215" lon="9.25003061006439"><ele>522.0</ele><time>2026-04-30T14:08:16Z</time></trkpt><trkpt lat="39.69092561648053" lon="9.250001466076842"><ele>522.0</ele><time>2026-04-30T14:08:18Z</time></trkpt><trkpt lat="39.69102837448874" lon="9.249966907622799"><ele>522.0</ele><time>2026-04-30T14:08:20Z</time></trkpt><trkpt lat="39.69113242006745" lon="9.249933581020407"><ele>522.0</ele><time>2026-04-30T14:08:22Z</time></trkpt><trkpt lat="39.691230861589375" lon="9.249899917268852"><ele>522.0</ele><time>2026-04-30T14:08:24Z</time></trkpt><trkpt lat="39.69132341852095" lon="9.249861524858835"><ele>522.2</ele><time>2026-04-30T14:08:26Z</time></trkpt><trkpt lat="39.69142597267366" lon="9.249836326784644"><ele>522.4000000000001</ele><time>2026-04-30T14:08:28Z</time></trkpt><trkpt lat="39.691517766306184" lon="9.249802889342751"><ele>522.5999999999999</ele><time>2026-04-30T14:08:30Z</time></trkpt><trkpt lat="39.69162302358511" lon="9.24976992198572"><ele>522.8</ele><time>2026-04-30T14:08:32Z</time></trkpt><trkpt lat="39.691733552905966" lon="9.249730661754613"><ele>523.0</ele><time>2026-04-30T14:08:34Z</time></trkpt><trkpt lat="39.69183218088379" lon="9.249682558121776"><ele>523.1666666666667</ele><time>2026-04-30T14:08:36Z</time></trkpt><trkpt lat="39.69191462506298" lon="9.249632013999472"><ele>523.3333333333334</ele><time>2026-04-30T14:08:38Z</time></trkpt><trkpt lat="39.69198966272864" lon="9.249556137510247"><ele>523.5</ele><time>2026-04-30T14:08:40Z</time></trkpt><trkpt lat="39.692069963413985" lon="9.249446094766045"><ele>523.6666666666666</ele><time>2026-04-30T14:08:42Z</time></trkpt><trkpt lat="39.69211316787969" lon="9.249381975950161"><ele>523.8333333333333</ele><time>2026-04-30T14:08:43Z</time></trkpt><trkpt lat="39.69215539976827" lon="9.249309467324956"><ele>524.0</ele><time>2026-04-30T14:08:44Z</time></trkpt><trkpt lat="39.692196229186216" lon="9.249229190692182"><ele>524.3333333333333</ele><time>2026-04-30T14:08:45Z</time></trkpt><trkpt lat="39.692241698641546" lon="9.24915842046136"><ele>524.6666666666666</ele><time>2026-04-30T14:08:46Z</time></trkpt><trkpt lat="39.692291825274474" lon="9.249082561667354"><ele>525.0</ele><time>2026-04-30T14:08:47Z</time></trkpt><trkpt lat="39.69234714794519" lon="9.249016180622212"><ele>525.3333333333334</ele><time>2026-04-30T14:08:48Z</time></trkpt><trkpt lat="39.69241353220415" lon="9.248953323205237"><ele>525.6666666666667</ele><time>2026-04-30T14:08:49Z</time></trkpt><trkpt lat="39.692487240844095" lon="9.248896317242648"><ele>526.0</ele><time>2026-04-30T14:08:50Z</time></trkpt><trkpt lat="39.69256484311549" lon="9.248851475012852"><ele>526.0</ele><time>2026-04-30T14:08:51Z</time></trkpt><trkpt lat="39.69264642675087" lon="9.248813043894472"><ele>526.0</ele><time>2026-04-30T14:08:52Z</time></trkpt><trkpt lat="39.692733449725715" lon="9.248779286162954"><ele>526.0</ele><time>2026-04-30T14:08:53Z</time></trkpt><trkpt lat="39.69281864615452" lon="9.248749450572694"><ele>526.0</ele><time>2026-04-30T14:08:54Z</time></trkpt><trkpt lat="39.69290418154381" lon="9.248705128546284"><ele>526.0</ele><time>2026-04-30T14:08:55Z</time></trkpt><trkpt lat="39.69299052497525" lon="9.248654837840522"><ele>526.4</ele><time>2026-04-30T14:08:56Z</time></trkpt><trkpt lat="39.693081685542055" lon="9.248600553593109"><ele>526.8</ele><time>2026-04-30T14:08:57Z</time></trkpt><trkpt lat="39.69316872154326" lon="9.248565213726017"><ele>527.1999999999999</ele><time>2026-04-30T14:08:58Z</time></trkpt><trkpt lat="39.693257969887114" lon="9.248521179793759"><ele>527.6</ele><time>2026-04-30T14:08:59Z</time></trkpt><trkpt lat="39.6933452464929" lon="9.248495930533446"><ele>528.0</ele><time>2026-04-30T14:09:00Z</time></trkpt><trkpt lat="39.69343872871914" lon="9.24849212101855"><ele>528.0</ele><time>2026-04-30T14:09:01Z</time></trkpt><trkpt lat="39.69352375419237" lon="9.248513651203448"><ele>528.0</ele><time>2026-04-30T14:09:02Z</time></trkpt><trkpt lat="39.69359976940867" lon="9.24856208520711"><ele>528.0</ele><time>2026-04-30T14:09:03Z</time></trkpt><trkpt lat="39.69367221902794" lon="9.248603147160846"><ele>528.0</ele><time>2026-04-30T14:09:04Z</time></trkpt><trkpt lat="39.69375187658047" lon="9.248635894648626"><ele>528.0</ele><time>2026-04-30T14:09:05Z</time></trkpt><trkpt lat="39.69382817749495" lon="9.248694020006235"><ele>528.0</ele><time>2026-04-30T14:09:06Z</time></trkpt><trkpt lat="39.69390430927055" lon="9.248743454363328"><ele>528.8333333333334</ele><time>2026-04-30T14:09:07Z</time></trkpt><trkpt lat="39.693976582575345" lon="9.24879023404496"><ele>529.6666666666666</ele><time>2026-04-30T14:09:08Z</time></trkpt><trkpt lat="39.694054360274556" lon="9.248840778210692"><ele>530.5</ele><time>2026-04-30T14:09:09Z</time></trkpt><trkpt lat="39.69412734756626" lon="9.248904085854504"><ele>531.3333333333333</ele><time>2026-04-30T14:09:10Z</time></trkpt><trkpt lat="39.694199172491274" lon="9.248974026621543"><ele>532.1666666666666</ele><time>2026-04-30T14:09:11Z</time></trkpt><trkpt lat="39.69426688966353" lon="9.249040427319406"><ele>533.0</ele><time>2026-04-30T14:09:12Z</time></trkpt><trkpt lat="39.69433205363592" lon="9.249101947720463"><ele>534.0</ele><time>2026-04-30T14:09:13.001Z</time></trkpt><trkpt lat="39.69439439440269" lon="9.249168316641624"><ele>535.0</ele><time>2026-04-30T14:09:14.001Z</time></trkpt><trkpt lat="39.694459194567415" lon="9.24923329146106"><ele>536.0</ele><time>2026-04-30T14:09:15.001Z</time></trkpt><trkpt lat="39.6945273311704" lon="9.24929653514929"><ele>537.0</ele><time>2026-04-30T14:09:16.001Z</time></trkpt><trkpt lat="39.694589134520115" lon="9.249369805864353"><ele>538.0</ele><time>2026-04-30T14:09:17.001Z</time></trkpt><trkpt lat="39.69465248530314" lon="9.24944164855249"><ele>539.0</ele><time>2026-04-30T14:09:18.001Z</time></trkpt><trkpt lat="39.6947169425556" lon="9.249504691971529"><ele>540.0</ele><time>2026-04-30T14:09:19.001Z</time></trkpt><trkpt lat="39.69477468017192" lon="9.24956308755527"><ele>541.0</ele><time>2026-04-30T14:09:20Z</time></trkpt><trkpt lat="39.694855895771056" lon="9.249608640488423"><ele>542.0</ele><time>2026-04-30T14:09:22.001Z</time></trkpt><trkpt lat="39.69487570037824" lon="9.249492648532142"><ele>543.0</ele><time>2026-04-30T14:09:25.001Z</time></trkpt><trkpt lat="39.694916125485285" lon="9.249300561631342"><ele>544.0</ele><time>2026-04-30T14:09:27Z</time></trkpt><trkpt lat="39.69493323678051" lon="9.24917844492533"><ele>544.0</ele><time>2026-04-30T14:09:28Z</time></trkpt><trkpt lat="39.69495928935587" lon="9.249081341931648"><ele>544.0</ele><time>2026-04-30T14:09:29Z</time></trkpt><trkpt lat="39.695000676628204" lon="9.248977030479038"><ele>544.0</ele><time>2026-04-30T14:09:30Z</time></trkpt><trkpt lat="39.69503131752296" lon="9.248854386802096"><ele>544.0</ele><time>2026-04-30T14:09:31Z</time></trkpt><trkpt lat="39.69511150691217" lon="9.248779203355193"><ele>544.0</ele><time>2026-04-30T14:09:32Z</time></trkpt><trkpt lat="39.69518899258275" lon="9.248700154131182"><ele>544.8</ele><time>2026-04-30T14:09:33Z</time></trkpt><trkpt lat="39.6952672928645" lon="9.248612004655321"><ele>545.5999999999999</ele><time>2026-04-30T14:09:34Z</time></trkpt><trkpt lat="39.69533906056037" lon="9.248517849868113"><ele>546.4</ele><time>2026-04-30T14:09:35Z</time></trkpt><trkpt lat="39.695409459477816" lon="9.24842815040045"><ele>547.1999999999999</ele><time>2026-04-30T14:09:36Z</time></trkpt><trkpt lat="39.69547473282424" lon="9.248333607975143"><ele>548.0</ele><time>2026-04-30T14:09:37Z</time></trkpt><trkpt lat="39.695546956253445" lon="9.248250103253156"><ele>548.0</ele><time>2026-04-30T14:09:38Z</time></trkpt><trkpt lat="39.69562342378703" lon="9.248150296409209"><ele>548.0</ele><time>2026-04-30T14:09:39Z</time></trkpt><trkpt lat="39.69569084562525" lon="9.248056537183272"><ele>548.0</ele><time>2026-04-30T14:09:40Z</time></trkpt><trkpt lat="39.695763268005074" lon="9.247959673287816"><ele>548.0</ele><time>2026-04-30T14:09:41Z</time></trkpt><trkpt lat="39.695827258834505" lon="9.247877710069774"><ele>548.0</ele><time>2026-04-30T14:09:42Z</time></trkpt><trkpt lat="39.69587714519367" lon="9.2477985944626"><ele>547.1999999999999</ele><time>2026-04-30T14:09:43Z</time></trkpt><trkpt lat="39.69595478903346" lon="9.247693554455676"><ele>546.4</ele><time>2026-04-30T14:09:45Z</time></trkpt><trkpt lat="39.69599931811796" lon="9.247633771409745"><ele>545.5999999999999</ele><time>2026-04-30T14:09:47Z</time></trkpt><trkpt lat="39.69606244520616" lon="9.247546041878568"><ele>544.8</ele><time>2026-04-30T14:09:50Z</time></trkpt><trkpt lat="39.69612251883702" lon="9.247454391035738"><ele>544.0</ele><time>2026-04-30T14:09:52Z</time></trkpt><trkpt lat="39.696190900685274" lon="9.247344373136821"><ele>545.0</ele><time>2026-04-30T14:09:54Z</time></trkpt><trkpt lat="39.69625522088902" lon="9.247253363987351"><ele>546.0</ele><time>2026-04-30T14:09:56Z</time></trkpt><trkpt lat="39.69635115095017" lon="9.247158237703207"><ele>547.0</ele><time>2026-04-30T14:09:58Z</time></trkpt><trkpt lat="39.69640556489077" lon="9.247089330967906"><ele>548.0</ele><time>2026-04-30T14:09:59Z</time></trkpt><trkpt lat="39.696463222520364" lon="9.246993901039218"><ele>549.0</ele><time>2026-04-30T14:10:00Z</time></trkpt><trkpt lat="39.69652772605042" lon="9.246900847434157"><ele>549.0</ele><time>2026-04-30T14:10:01Z</time></trkpt><trkpt lat="39.69659873335038" lon="9.24680573974936"><ele>549.0</ele><time>2026-04-30T14:10:02Z</time></trkpt><trkpt lat="39.69667593037547" lon="9.246701817424336"><ele>549.0</ele><time>2026-04-30T14:10:03Z</time></trkpt><trkpt lat="39.69675964588545" lon="9.246594970408598"><ele>549.0</ele><time>2026-04-30T14:10:04Z</time></trkpt><trkpt lat="39.696833274802955" lon="9.246496808688649"><ele>549.0</ele><time>2026-04-30T14:10:05Z</time></trkpt><trkpt lat="39.696912225093904" lon="9.246396471871934"><ele>548.6</ele><time>2026-04-30T14:10:06Z</time></trkpt><trkpt lat="39.69699540545303" lon="9.2463063414241"><ele>548.2</ele><time>2026-04-30T14:10:07Z</time></trkpt><trkpt lat="39.697083482318845" lon="9.246223082176158"><ele>547.8000000000001</ele><time>2026-04-30T14:10:08Z</time></trkpt><trkpt lat="39.6971806796432" lon="9.246152146329644"><ele>547.4</ele><time>2026-04-30T14:10:09Z</time></trkpt><trkpt lat="39.697288311450734" lon="9.246096953235657"><ele>547.0</ele><time>2026-04-30T14:10:10Z</time></trkpt><trkpt lat="39.69740668136276" lon="9.246046721651318"><ele>547.0</ele><time>2026-04-30T14:10:11Z</time></trkpt><trkpt lat="39.69752361241202" lon="9.246001116322924"><ele>547.0</ele><time>2026-04-30T14:10:12Z</time></trkpt><trkpt lat="39.69764550970505" lon="9.245957081936103"><ele>547.0</ele><time>2026-04-30T14:10:13Z</time></trkpt><trkpt lat="39.69776983057244" lon="9.245912155945488"><ele>547.0</ele><time>2026-04-30T14:10:14Z</time></trkpt><trkpt lat="39.69789654924051" lon="9.245865308034917"><ele>548.0</ele><time>2026-04-30T14:10:15Z</time></trkpt><trkpt lat="39.69802469294319" lon="9.245819101389095"><ele>549.0</ele><time>2026-04-30T14:10:16Z</time></trkpt><trkpt lat="39.698153704786556" lon="9.245772914324839"><ele>550.0</ele><time>2026-04-30T14:10:17Z</time></trkpt><trkpt lat="39.69828415716361" lon="9.245722715588467"><ele>551.0</ele><time>2026-04-30T14:10:18Z</time></trkpt><trkpt lat="39.69841393881602" lon="9.245669457861368"><ele>551.5</ele><time>2026-04-30T14:10:19Z</time></trkpt><trkpt lat="39.698539672710076" lon="9.245598117745999"><ele>552.0</ele><time>2026-04-30T14:10:20Z</time></trkpt><trkpt lat="39.698650371407545" lon="9.24550498585929"><ele>552.5</ele><time>2026-04-30T14:10:21Z</time></trkpt><trkpt lat="39.698747546527386" lon="9.245390838456057"><ele>553.0</ele><time>2026-04-30T14:10:22Z</time></trkpt><trkpt lat="39.69883880945436" lon="9.245264354281453"><ele>553.0</ele><time>2026-04-30T14:10:23Z</time></trkpt><trkpt lat="39.69893128264133" lon="9.245131586357228"><ele>553.0</ele><time>2026-04-30T14:10:24Z</time></trkpt><trkpt lat="39.69902705367327" lon="9.24499782598296"><ele>553.0</ele><time>2026-04-30T14:10:24.999Z</time></trkpt><trkpt lat="39.69912590810696" lon="9.24487015138719"><ele>553.0</ele><time>2026-04-30T14:10:25.999Z</time></trkpt><trkpt lat="39.69922062271583" lon="9.244741295788243"><ele>552.5</ele><time>2026-04-30T14:10:26.999Z</time></trkpt><trkpt lat="39.699318265449016" lon="9.244610463343124"><ele>552.0</ele><time>2026-04-30T14:10:27.999Z</time></trkpt><trkpt lat="39.699415031497196" lon="9.244473756678913"><ele>551.5</ele><time>2026-04-30T14:10:28.999Z</time></trkpt><trkpt lat="39.69950848183325" lon="9.244339029032895"><ele>551.0</ele><time>2026-04-30T14:10:29.999Z</time></trkpt><trkpt lat="39.69961111529155" lon="9.244199133462185"><ele>551.0</ele><time>2026-04-30T14:10:30.999Z</time></trkpt><trkpt lat="39.69971349761894" lon="9.24405908157186"><ele>551.0</ele><time>2026-04-30T14:10:31.999Z</time></trkpt><trkpt lat="39.699820274789055" lon="9.243916030153164"><ele>551.0</ele><time>2026-04-30T14:10:32.999Z</time></trkpt><trkpt lat="39.699928705636985" lon="9.243765720586703"><ele>550.3333333333333</ele><time>2026-04-30T14:10:33.999Z</time></trkpt><trkpt lat="39.70003685159656" lon="9.243613839086295"><ele>549.6666666666666</ele><time>2026-04-30T14:10:34.999Z</time></trkpt><trkpt lat="39.70014733815879" lon="9.243469178392205"><ele>549.0</ele><time>2026-04-30T14:10:35.999Z</time></trkpt><trkpt lat="39.700247381896546" lon="9.243340731639991"><ele>550.5</ele><time>2026-04-30T14:10:36.999Z</time></trkpt><trkpt lat="39.70036001457753" lon="9.243236878919662"><ele>552.0</ele><time>2026-04-30T14:10:37.999Z</time></trkpt><trkpt lat="39.70048321055765" lon="9.243202831433372"><ele>553.5</ele><time>2026-04-30T14:10:38.999Z</time></trkpt><trkpt lat="39.70060437005285" lon="9.243223583628383"><ele>555.0</ele><time>2026-04-30T14:10:39.999Z</time></trkpt><trkpt lat="39.70073221621674" lon="9.243270158439737"><ele>555.0</ele><time>2026-04-30T14:10:40.999Z</time></trkpt><trkpt lat="39.70085067855929" lon="9.243335773559787"><ele>555.0</ele><time>2026-04-30T14:10:41.999Z</time></trkpt><trkpt lat="39.70094710645203" lon="9.243423131039338"><ele>555.0</ele><time>2026-04-30T14:10:42.999Z</time></trkpt><trkpt lat="39.7010253174323" lon="9.243527403080535"><ele>555.0</ele><time>2026-04-30T14:10:43.999Z</time></trkpt><trkpt lat="39.701111938635634" lon="9.243601215389884"><ele>556.25</ele><time>2026-04-30T14:10:44.999Z</time></trkpt><trkpt lat="39.701217575505176" lon="9.243610015333685"><ele>557.5</ele><time>2026-04-30T14:10:45.999Z</time></trkpt><trkpt lat="39.70134017759676" lon="9.243600335090584"><ele>558.75</ele><time>2026-04-30T14:10:46.999Z</time></trkpt><trkpt lat="39.701465449765685" lon="9.243615380966222"><ele>560.0</ele><time>2026-04-30T14:10:47.999Z</time></trkpt><trkpt lat="39.70159121510979" lon="9.243671148868884"><ele>560.0</ele><time>2026-04-30T14:10:48.999Z</time></trkpt><trkpt lat="39.7017174500777" lon="9.243717787312258"><ele>560.0</ele><time>2026-04-30T14:10:49.999Z</time></trkpt><trkpt lat="39.70185209904181" lon="9.243714974136997"><ele>560.0</ele><time>2026-04-30T14:10:50.999Z</time></trkpt><trkpt lat="39.701985540585945" lon="9.24365839514662"><ele>560.0</ele><time>2026-04-30T14:10:51.999Z</time></trkpt><trkpt lat="39.70210617785581" lon="9.243563356438267"><ele>564.0</ele><time>2026-04-30T14:10:52.999Z</time></trkpt><trkpt lat="39.70220622059483" lon="9.243420649953277"><ele>568.0</ele><time>2026-04-30T14:10:53.999Z</time></trkpt><trkpt lat="39.70226129419558" lon="9.243233964432704"><ele>572.0</ele><time>2026-04-30T14:10:54.999Z</time></trkpt><trkpt lat="39.70232570562633" lon="9.243056016854558"><ele>572.0</ele><time>2026-04-30T14:10:55.999Z</time></trkpt><trkpt lat="39.70239031628058" lon="9.242873649487478"><ele>572.0</ele><time>2026-04-30T14:10:56.999Z</time></trkpt><trkpt lat="39.70245670240286" lon="9.242686514195748"><ele>572.0</ele><time>2026-04-30T14:10:57.999Z</time></trkpt><trkpt lat="39.70252769518048" lon="9.24249428710317"><ele>569.6666666666666</ele><time>2026-04-30T14:10:58.999Z</time></trkpt><trkpt lat="39.70260491978666" lon="9.242295133935096"><ele>567.3333333333334</ele><time>2026-04-30T14:10:59.999Z</time></trkpt><trkpt lat="39.702681791884864" lon="9.242096828917315"><ele>565.0</ele><time>2026-04-30T14:11:00.999Z</time></trkpt><trkpt lat="39.702762309263015" lon="9.241895650245008"><ele>573.6666666666667</ele><time>2026-04-30T14:11:01.999Z</time></trkpt><trkpt lat="39.70284644578804" lon="9.241688856173443"><ele>582.3333333333334</ele><time>2026-04-30T14:11:02.999Z</time></trkpt><trkpt lat="39.70293016042324" lon="9.241478093167778"><ele>591.0</ele><time>2026-04-30T14:11:03.999Z</time></trkpt><trkpt lat="39.703015688155475" lon="9.241266904312141"><ele>591.0</ele><time>2026-04-30T14:11:04.999Z</time></trkpt><trkpt lat="39.703096875168015" lon="9.241042260407069"><ele>591.0</ele><time>2026-04-30T14:11:05.999Z</time></trkpt><trkpt lat="39.703187279641924" lon="9.240818361041343"><ele>591.0</ele><time>2026-04-30T14:11:06.999Z</time></trkpt><trkpt lat="39.70328540180589" lon="9.240598902786402"><ele>588.6666666666666</ele><time>2026-04-30T14:11:07.999Z</time></trkpt><trkpt lat="39.7033767861347" lon="9.240374693733738"><ele>586.3333333333333</ele><time>2026-04-30T14:11:08.999Z</time></trkpt><trkpt lat="39.70346688661292" lon="9.240145070233638"><ele>584.0</ele><time>2026-04-30T14:11:09.999Z</time></trkpt><trkpt lat="39.703558387352814" lon="9.239909949246561"><ele>590.0</ele><time>2026-04-30T14:11:10.999Z</time></trkpt><trkpt lat="39.70364494825716" lon="9.239679012024446"><ele>596.0</ele><time>2026-04-30T14:11:11.999Z</time></trkpt><trkpt lat="39.70372642078833" lon="9.239441990639419"><ele>602.0</ele><time>2026-04-30T14:11:12.999Z</time></trkpt><trkpt lat="39.70380293731217" lon="9.239199104707613"><ele>600.3333333333333</ele><time>2026-04-30T14:11:13.999Z</time></trkpt><trkpt lat="39.70386512016624" lon="9.238946898278511"><ele>598.6666666666666</ele><time>2026-04-30T14:11:14.999Z</time></trkpt><trkpt lat="39.70391196588013" lon="9.238678782152459"><ele>597.0</ele><time>2026-04-30T14:11:15.999Z</time></trkpt><trkpt lat="39.70396029101328" lon="9.23840341576128"><ele>595.0</ele><time>2026-04-30T14:11:16.999Z</time></trkpt><trkpt lat="39.70398772010144" lon="9.23812276760093"><ele>593.0</ele><time>2026-04-30T14:11:17.999Z</time></trkpt><trkpt lat="39.70400751914095" lon="9.237837886235534"><ele>591.0</ele><time>2026-04-30T14:11:19Z</time></trkpt><trkpt lat="39.70402607876317" lon="9.237538308814456"><ele>587.0</ele><time>2026-04-30T14:11:20Z</time></trkpt><trkpt lat="39.70405015735303" lon="9.237232401207121"><ele>583.0</ele><time>2026-04-30T14:11:21Z</time></trkpt><trkpt lat="39.70409473916658" lon="9.2369303611507"><ele>583.0</ele><time>2026-04-30T14:11:22Z</time></trkpt><trkpt lat="39.70417294269242" lon="9.236643844101202"><ele>583.0</ele><time>2026-04-30T14:11:23Z</time></trkpt><trkpt lat="39.70427322982969" lon="9.236380773177798"><ele>578.0</ele><time>2026-04-30T14:11:24Z</time></trkpt><trkpt lat="39.704358437433" lon="9.236104675619922"><ele>573.0</ele><time>2026-04-30T14:11:25Z</time></trkpt><trkpt lat="39.70452132379399" lon="9.235908200323877"><ele>578.5</ele><time>2026-04-30T14:11:26Z</time></trkpt><trkpt lat="39.7046761909847" lon="9.235692398317196"><ele>584.0</ele><time>2026-04-30T14:11:27Z</time></trkpt><trkpt lat="39.704848260818785" lon="9.235494187535082"><ele>584.0</ele><time>2026-04-30T14:11:28Z</time></trkpt><trkpt lat="39.70503951583355" lon="9.235319883536919"><ele>584.0</ele><time>2026-04-30T14:11:29Z</time></trkpt><trkpt lat="39.705236625599" lon="9.23516264392415"><ele>593.0</ele><time>2026-04-30T14:11:30Z</time></trkpt><trkpt lat="39.705435735215765" lon="9.235020324342864"><ele>602.0</ele><time>2026-04-30T14:11:31Z</time></trkpt><trkpt lat="39.705649981981544" lon="9.234913223906805"><ele>602.0</ele><time>2026-04-30T14:11:32Z</time></trkpt><trkpt lat="39.705869000843386" lon="9.234846463828658"><ele>602.0</ele><time>2026-04-30T14:11:33Z</time></trkpt><trkpt lat="39.70608988027288" lon="9.234822927904691"><ele>602.0</ele><time>2026-04-30T14:11:34Z</time></trkpt><trkpt lat="39.70630795552904" lon="9.234800749391312"><ele>602.0</ele><time>2026-04-30T14:11:35Z</time></trkpt><trkpt lat="39.70652800825634" lon="9.234753726059344"><ele>602.0</ele><time>2026-04-30T14:11:36Z</time></trkpt><trkpt lat="39.70674007005592" lon="9.234697502276916"><ele>602.0</ele><time>2026-04-30T14:11:37Z</time></trkpt><trkpt lat="39.70695980579101" lon="9.234657923922311"><ele>602.0</ele><time>2026-04-30T14:11:38Z</time></trkpt><trkpt lat="39.70716307560851" lon="9.234619512259757"><ele>602.0</ele><time>2026-04-30T14:11:39Z</time></trkpt><trkpt lat="39.70735288634599" lon="9.234569598356728"><ele>602.0</ele><time>2026-04-30T14:11:40Z</time></trkpt><trkpt lat="39.70753169961849" lon="9.234544997234963"><ele>602.0</ele><time>2026-04-30T14:11:41Z</time></trkpt><trkpt lat="39.70766967781785" lon="9.234515399762879"><ele>602.0</ele><time>2026-04-30T14:11:42Z</time></trkpt><trkpt lat="39.70777788948267" lon="9.234487912526879"><ele>602.0</ele><time>2026-04-30T14:11:43Z</time></trkpt><trkpt lat="39.707880730842916" lon="9.234477176158777"><ele>602.0</ele><time>2026-04-30T14:11:44Z</time></trkpt><trkpt lat="39.70798366262281" lon="9.23447915814738"><ele>604.75</ele><time>2026-04-30T14:11:45Z</time></trkpt><trkpt lat="39.708098427734384" lon="9.23449755742084"><ele>607.5</ele><time>2026-04-30T14:11:46Z</time></trkpt><trkpt lat="39.70822506447807" lon="9.234502631541071"><ele>610.25</ele><time>2026-04-30T14:11:47Z</time></trkpt><trkpt lat="39.708341735889796" lon="9.234519436560568"><ele>613.0</ele><time>2026-04-30T14:11:48Z</time></trkpt><trkpt lat="39.70848016789178" lon="9.234514603585565"><ele>614.25</ele><time>2026-04-30T14:11:49Z</time></trkpt><trkpt lat="39.708624870877074" lon="9.234514466013444"><ele>615.5</ele><time>2026-04-30T14:11:50Z</time></trkpt><trkpt lat="39.70876609950152" lon="9.234502881675287"><ele>616.75</ele><time>2026-04-30T14:11:51Z</time></trkpt><trkpt lat="39.70890898546222" lon="9.234487652884452"><ele>618.0</ele><time>2026-04-30T14:11:52Z</time></trkpt><trkpt lat="39.709054088811826" lon="9.234468526998274"><ele>618.0</ele><time>2026-04-30T14:11:53Z</time></trkpt><trkpt lat="39.70920151303344" lon="9.234447761090982"><ele>618.0</ele><time>2026-04-30T14:11:54Z</time></trkpt><trkpt lat="39.709354135033365" lon="9.234422863593078"><ele>618.0</ele><time>2026-04-30T14:11:55Z</time></trkpt><trkpt lat="39.70951118742055" lon="9.234401964379607"><ele>617.5</ele><time>2026-04-30T14:11:56Z</time></trkpt><trkpt lat="39.709669980160214" lon="9.234386278680544"><ele>617.0</ele><time>2026-04-30T14:11:57Z</time></trkpt><trkpt lat="39.70981543372637" lon="9.234364485982647"><ele>616.5</ele><time>2026-04-30T14:11:58Z</time></trkpt><trkpt lat="39.709940632004354" lon="9.234344313623533"><ele>616.0</ele><time>2026-04-30T14:11:59Z</time></trkpt><trkpt lat="39.71005442319184" lon="9.23432348503739"><ele>616.0</ele><time>2026-04-30T14:12:00Z</time></trkpt><trkpt lat="39.71016041520663" lon="9.234302580849118"><ele>616.0</ele><time>2026-04-30T14:12:01Z</time></trkpt><trkpt lat="39.71027513192316" lon="9.234281692599971"><ele>616.0</ele><time>2026-04-30T14:12:02Z</time></trkpt><trkpt lat="39.71039691896945" lon="9.234261452506761"><ele>616.0</ele><time>2026-04-30T14:12:03Z</time></trkpt><trkpt lat="39.71053010689" lon="9.234236109105655"><ele>614.6666666666667</ele><time>2026-04-30T14:12:04Z</time></trkpt><trkpt lat="39.71067491379533" lon="9.23420702779923"><ele>613.3333333333334</ele><time>2026-04-30T14:12:05Z</time></trkpt><trkpt lat="39.71082687337871" lon="9.23417021050771"><ele>612.0</ele><time>2026-04-30T14:12:06Z</time></trkpt><trkpt lat="39.710987019777946" lon="9.234131081630057"><ele>611.6666666666666</ele><time>2026-04-30T14:12:07Z</time></trkpt><trkpt lat="39.71115251973051" lon="9.234090098464199"><ele>611.3333333333333</ele><time>2026-04-30T14:12:08Z</time></trkpt><trkpt lat="39.71131757077646" lon="9.234046740280169"><ele>611.0</ele><time>2026-04-30T14:12:09Z</time></trkpt><trkpt lat="39.71147325999383" lon="9.234007988784736"><ele>611.0</ele><time>2026-04-30T14:12:10Z</time></trkpt><trkpt lat="39.71162176405664" lon="9.23397329669551"><ele>611.0</ele><time>2026-04-30T14:12:11Z</time></trkpt><trkpt lat="39.711770190906904" lon="9.23394415225604"><ele>611.0</ele><time>2026-04-30T14:12:11.999Z</time></trkpt><trkpt lat="39.71191595052511" lon="9.233909025441559"><ele>611.0</ele><time>2026-04-30T14:12:12.999Z</time></trkpt><trkpt lat="39.71205949529613" lon="9.233881996284982"><ele>609.8</ele><time>2026-04-30T14:12:13.999Z</time></trkpt><trkpt lat="39.71217453143874" lon="9.233869866294627"><ele>608.6</ele><time>2026-04-30T14:12:14.999Z</time></trkpt><trkpt lat="39.712266905801975" lon="9.233853207831533"><ele>607.4</ele><time>2026-04-30T14:12:15.999Z</time></trkpt><trkpt lat="39.712364934183725" lon="9.233827698549629"><ele>606.2</ele><time>2026-04-30T14:12:16.999Z</time></trkpt><trkpt lat="39.712476832419" lon="9.233797652461238"><ele>605.0</ele><time>2026-04-30T14:12:17.999Z</time></trkpt><trkpt lat="39.71260671520315" lon="9.233762559959855"><ele>604.5</ele><time>2026-04-30T14:12:18.999Z</time></trkpt><trkpt lat="39.71274023897679" lon="9.233727881373449"><ele>604.0</ele><time>2026-04-30T14:12:19.999Z</time></trkpt><trkpt lat="39.71287353640694" lon="9.233694760759803"><ele>603.5</ele><time>2026-04-30T14:12:20.999Z</time></trkpt><trkpt lat="39.71300543602368" lon="9.233660406131524"><ele>603.0</ele><time>2026-04-30T14:12:21.999Z</time></trkpt><trkpt lat="39.71313790154443" lon="9.23364323200423"><ele>603.0</ele><time>2026-04-30T14:12:22.999Z</time></trkpt><trkpt lat="39.713266209511396" lon="9.233635524044438"><ele>603.0</ele><time>2026-04-30T14:12:23.999Z</time></trkpt><trkpt lat="39.71338644944376" lon="9.233608711994954"><ele>603.0</ele><time>2026-04-30T14:12:24.999Z</time></trkpt><trkpt lat="39.71350571500437" lon="9.233567413301087"><ele>603.0</ele><time>2026-04-30T14:12:25.999Z</time></trkpt><trkpt lat="39.713625339913904" lon="9.233537680447101"><ele>602.25</ele><time>2026-04-30T14:12:26.999Z</time></trkpt><trkpt lat="39.71375425899798" lon="9.233505970767252"><ele>601.5</ele><time>2026-04-30T14:12:27.999Z</time></trkpt><trkpt lat="39.7138790911098" lon="9.233478830471444"><ele>600.75</ele><time>2026-04-30T14:12:28.999Z</time></trkpt><trkpt lat="39.714002123093174" lon="9.233457512369029"><ele>600.0</ele><time>2026-04-30T14:12:29.999Z</time></trkpt><trkpt lat="39.71412108673498" lon="9.23343604676056"><ele>600.0</ele><time>2026-04-30T14:12:30.999Z</time></trkpt><trkpt lat="39.71423915367562" lon="9.233414317157651"><ele>600.0</ele><time>2026-04-30T14:12:31.999Z</time></trkpt><trkpt lat="39.7143568118625" lon="9.23340537331486"><ele>600.0</ele><time>2026-04-30T14:12:32.999Z</time></trkpt><trkpt lat="39.71446910683968" lon="9.23342527703994"><ele>600.0</ele><time>2026-04-30T14:12:33.999Z</time></trkpt><trkpt lat="39.71457407791679" lon="9.233473564864862"><ele>599.75</ele><time>2026-04-30T14:12:34.999Z</time></trkpt><trkpt lat="39.71468177493264" lon="9.233534809882853"><ele>599.5</ele><time>2026-04-30T14:12:35.999Z</time></trkpt><trkpt lat="39.714801308185265" lon="9.233591421866015"><ele>599.25</ele><time>2026-04-30T14:12:36.999Z</time></trkpt><trkpt lat="39.71492665640572" lon="9.233643348902948"><ele>599.0</ele><time>2026-04-30T14:12:37.999Z</time></trkpt><trkpt lat="39.71505994407599" lon="9.233701782727001"><ele>599.0</ele><time>2026-04-30T14:12:38.999Z</time></trkpt><trkpt lat="39.71519714728772" lon="9.2337678175067"><ele>599.0</ele><time>2026-04-30T14:12:39.999Z</time></trkpt><trkpt lat="39.71533821938178" lon="9.233832036945929"><ele>599.0</ele><time>2026-04-30T14:12:40.999Z</time></trkpt><trkpt lat="39.71547827287252" lon="9.23388699145822"><ele>599.0</ele><time>2026-04-30T14:12:41.999Z</time></trkpt><trkpt lat="39.715616509735604" lon="9.2339202159583"><ele>598.5</ele><time>2026-04-30T14:12:42.999Z</time></trkpt><trkpt lat="39.715752144550194" lon="9.233904758045417"><ele>598.0</ele><time>2026-04-30T14:12:43.999Z</time></trkpt><trkpt lat="39.715883209988554" lon="9.233838107391925"><ele>597.5</ele><time>2026-04-30T14:12:44.999Z</time></trkpt><trkpt lat="39.71601688579607" lon="9.233758954821464"><ele>597.0</ele><time>2026-04-30T14:12:45.999Z</time></trkpt><trkpt lat="39.7161613901328" lon="9.233721496159628"><ele>595.25</ele><time>2026-04-30T14:12:46.999Z</time></trkpt><trkpt lat="39.716303441015214" lon="9.233711862160687"><ele>593.5</ele><time>2026-04-30T14:12:47.999Z</time></trkpt><trkpt lat="39.71645191135205" lon="9.23370174213556"><ele>591.75</ele><time>2026-04-30T14:12:48.999Z</time></trkpt><trkpt lat="39.71659895689373" lon="9.233676383211055"><ele>590.0</ele><time>2026-04-30T14:12:49.999Z</time></trkpt><trkpt lat="39.71673945960883" lon="9.233622951646687"><ele>590.0</ele><time>2026-04-30T14:12:50.999Z</time></trkpt><trkpt lat="39.71687526638443" lon="9.233544335314908"><ele>590.0</ele><time>2026-04-30T14:12:51.999Z</time></trkpt><trkpt lat="39.71701645625808" lon="9.2334647540774"><ele>590.0</ele><time>2026-04-30T14:12:52.999Z</time></trkpt><trkpt lat="39.71715446476743" lon="9.233382837513597"><ele>587.5</ele><time>2026-04-30T14:12:53.999Z</time></trkpt><trkpt lat="39.717291627876065" lon="9.233303097068205"><ele>585.0</ele><time>2026-04-30T14:12:54.999Z</time></trkpt><trkpt lat="39.71742658974154" lon="9.233230754349949"><ele>582.5</ele><time>2026-04-30T14:12:55.999Z</time></trkpt><trkpt lat="39.71756276752225" lon="9.233151833157573"><ele>580.0</ele><time>2026-04-30T14:12:56.999Z</time></trkpt><trkpt lat="39.71770759094225" lon="9.233060948950005"><ele>576.0</ele><time>2026-04-30T14:12:57.999Z</time></trkpt><trkpt lat="39.717852295435" lon="9.232970751841673"><ele>572.0</ele><time>2026-04-30T14:12:58.999Z</time></trkpt><trkpt lat="39.71799762481561" lon="9.232862598044461"><ele>568.0</ele><time>2026-04-30T14:12:59.999Z</time></trkpt><trkpt lat="39.718134280835024" lon="9.23272556599662"><ele>568.0</ele><time>2026-04-30T14:13:00.999Z</time></trkpt><trkpt lat="39.71826745320465" lon="9.232578428093753"><ele>568.0</ele><time>2026-04-30T14:13:01.999Z</time></trkpt><trkpt lat="39.718399207296194" lon="9.232425494022303"><ele>568.0</ele><time>2026-04-30T14:13:02.999Z</time></trkpt><trkpt lat="39.71852673385667" lon="9.232271865051022"><ele>565.6666666666667</ele><time>2026-04-30T14:13:03.999Z</time></trkpt><trkpt lat="39.71864776548245" lon="9.232115701832662"><ele>563.3333333333334</ele><time>2026-04-30T14:13:04.999Z</time></trkpt><trkpt lat="39.718752968398384" lon="9.231950911625365"><ele>561.0</ele><time>2026-04-30T14:13:05.999Z</time></trkpt><trkpt lat="39.71885000011234" lon="9.231786946159188"><ele>561.0</ele><time>2026-04-30T14:13:06.999Z</time></trkpt><trkpt lat="39.71894964055248" lon="9.23162479100942"><ele>561.0</ele><time>2026-04-30T14:13:07.999Z</time></trkpt><trkpt lat="39.71905731675764" lon="9.231462914051495"><ele>561.0</ele><time>2026-04-30T14:13:08.999Z</time></trkpt><trkpt lat="39.71916700371839" lon="9.231297425887455"><ele>560.6666666666666</ele><time>2026-04-30T14:13:09.999Z</time></trkpt><trkpt lat="39.719280358398834" lon="9.231133140256617"><ele>560.3333333333333</ele><time>2026-04-30T14:13:10.999Z</time></trkpt><trkpt lat="39.71938827585742" lon="9.230969598120813"><ele>560.0</ele><time>2026-04-30T14:13:11.999Z</time></trkpt><trkpt lat="39.71958975398971" lon="9.230656903516167"><ele>559.75</ele><time>2026-04-30T14:13:13.999Z</time></trkpt><trkpt lat="39.71967935344612" lon="9.230515781282529"><ele>559.5</ele><time>2026-04-30T14:13:14.999Z</time></trkpt><trkpt lat="39.719767838468826" lon="9.230386913123196"><ele>559.25</ele><time>2026-04-30T14:13:15.999Z</time></trkpt><trkpt lat="39.71985954646603" lon="9.230264933016084"><ele>559.0</ele><time>2026-04-30T14:13:16.999Z</time></trkpt><trkpt lat="39.719937171034715" lon="9.23014265114821"><ele>559.0</ele><time>2026-04-30T14:13:17.999Z</time></trkpt><trkpt lat="39.72001267388482" lon="9.230005620502741"><ele>559.0</ele><time>2026-04-30T14:13:18.999Z</time></trkpt><trkpt lat="39.720091313876736" lon="9.229869963384397"><ele>559.0</ele><time>2026-04-30T14:13:19.999Z</time></trkpt><trkpt lat="39.720177875675645" lon="9.229738532186953"><ele>559.0</ele><time>2026-04-30T14:13:20.999Z</time></trkpt><trkpt lat="39.720271336215966" lon="9.229597869312716"><ele>558.6666666666667</ele><time>2026-04-30T14:13:21.999Z</time></trkpt><trkpt lat="39.7203710478897" lon="9.22944872381679"><ele>558.3333333333334</ele><time>2026-04-30T14:13:22.999Z</time></trkpt><trkpt lat="39.72047308252407" lon="9.22929478232613"><ele>558.0</ele><time>2026-04-30T14:13:23.999Z</time></trkpt><trkpt lat="39.72057411290892" lon="9.22914292551139"><ele>558.0</ele><time>2026-04-30T14:13:24.999Z</time></trkpt><trkpt lat="39.72068025480938" lon="9.228987484114509"><ele>558.0</ele><time>2026-04-30T14:13:25.999Z</time></trkpt><trkpt lat="39.72078598534033" lon="9.228832029167382"><ele>558.0</ele><time>2026-04-30T14:13:26.999Z</time></trkpt><trkpt lat="39.72089510423065" lon="9.228670672083643"><ele>557.0</ele><time>2026-04-30T14:13:27.999Z</time></trkpt><trkpt lat="39.72100284942072" lon="9.22850698523686"><ele>556.0</ele><time>2026-04-30T14:13:28.999Z</time></trkpt><trkpt lat="39.721117032859006" lon="9.228342599026492"><ele>555.0</ele><time>2026-04-30T14:13:29.999Z</time></trkpt><trkpt lat="39.721232002544994" lon="9.228167140386434"><ele>554.0</ele><time>2026-04-30T14:13:30.999Z</time></trkpt><trkpt lat="39.72134778601966" lon="9.227987201684764"><ele>553.0</ele><time>2026-04-30T14:13:31.999Z</time></trkpt><trkpt lat="39.721465266857045" lon="9.227806190290968"><ele>552.0</ele><time>2026-04-30T14:13:32.999Z</time></trkpt><trkpt lat="39.72158407931152" lon="9.227629654374141"><ele>552.0</ele><time>2026-04-30T14:13:33.999Z</time></trkpt><trkpt lat="39.7217053632597" lon="9.22744781799646"><ele>552.0</ele><time>2026-04-30T14:13:34.999Z</time></trkpt><trkpt lat="39.721825072053186" lon="9.227263308543687"><ele>552.0</ele><time>2026-04-30T14:13:35.999Z</time></trkpt><trkpt lat="39.721944327599566" lon="9.227081015517566"><ele>552.3333333333334</ele><time>2026-04-30T14:13:36.999Z</time></trkpt><trkpt lat="39.72206967407662" lon="9.226894129881057"><ele>552.6666666666667</ele><time>2026-04-30T14:13:37.999Z</time></trkpt><trkpt lat="39.72219601144142" lon="9.226709758654042"><ele>553.0</ele><time>2026-04-30T14:13:38.999Z</time></trkpt><trkpt lat="39.722326836156384" lon="9.22652050285526"><ele>551.6666666666667</ele><time>2026-04-30T14:13:39.999Z</time></trkpt><trkpt lat="39.72245523814209" lon="9.226326745716554"><ele>550.3333333333334</ele><time>2026-04-30T14:13:40.999Z</time></trkpt><trkpt lat="39.72257696527568" lon="9.226131999975957"><ele>549.0</ele><time>2026-04-30T14:13:41.999Z</time></trkpt><trkpt lat="39.72270812585553" lon="9.225938399812627"><ele>549.3333333333334</ele><time>2026-04-30T14:13:42.999Z</time></trkpt><trkpt lat="39.72284511454434" lon="9.225737025345767"><ele>549.6666666666667</ele><time>2026-04-30T14:13:43.999Z</time></trkpt><trkpt lat="39.722978498441975" lon="9.225530227690863"><ele>550.0</ele><time>2026-04-30T14:13:44.999Z</time></trkpt><trkpt lat="39.72311261464754" lon="9.22532212221084"><ele>550.0</ele><time>2026-04-30T14:13:45.999Z</time></trkpt><trkpt lat="39.72325267217731" lon="9.225118273505336"><ele>550.0</ele><time>2026-04-30T14:13:46.999Z</time></trkpt><trkpt lat="39.7233916428817" lon="9.224919330452153"><ele>550.0</ele><time>2026-04-30T14:13:47.999Z</time></trkpt><trkpt lat="39.723532812309905" lon="9.22471468556946"><ele>551.0</ele><time>2026-04-30T14:13:48.999Z</time></trkpt><trkpt lat="39.72366363115749" lon="9.22451476944108"><ele>552.0</ele><time>2026-04-30T14:13:49.999Z</time></trkpt><trkpt lat="39.72379330124948" lon="9.224320121024038"><ele>553.0</ele><time>2026-04-30T14:13:50.999Z</time></trkpt><trkpt lat="39.723913730938605" lon="9.224138111862587"><ele>552.3333333333334</ele><time>2026-04-30T14:13:51.999Z</time></trkpt><trkpt lat="39.7240261284764" lon="9.223972528546911"><ele>551.6666666666666</ele><time>2026-04-30T14:13:52.999Z</time></trkpt><trkpt lat="39.724132052128056" lon="9.223822184908746"><ele>551.0</ele><time>2026-04-30T14:13:53.999Z</time></trkpt><trkpt lat="39.7242426452742" lon="9.223686480167965"><ele>551.0</ele><time>2026-04-30T14:13:54.999Z</time></trkpt><trkpt lat="39.72434876306141" lon="9.223548681814504"><ele>551.0</ele><time>2026-04-30T14:13:55.999Z</time></trkpt><trkpt lat="39.72443750375179" lon="9.223407921183437"><ele>551.0</ele><time>2026-04-30T14:13:56.999Z</time></trkpt><trkpt lat="39.724511269066895" lon="9.223218059510696"><ele>551.6666666666666</ele><time>2026-04-30T14:13:57.999Z</time></trkpt><trkpt lat="39.72458353007641" lon="9.22303686558382"><ele>552.3333333333334</ele><time>2026-04-30T14:13:58.999Z</time></trkpt><trkpt lat="39.72467095626316" lon="9.222840025760542"><ele>553.0</ele><time>2026-04-30T14:13:59.999Z</time></trkpt><trkpt lat="39.72476450146046" lon="9.2226339507166"><ele>553.0</ele><time>2026-04-30T14:14:00.999Z</time></trkpt><trkpt lat="39.724860266829864" lon="9.222430364261475"><ele>553.0</ele><time>2026-04-30T14:14:01.999Z</time></trkpt><trkpt lat="39.72495566825612" lon="9.222232048091"><ele>553.0</ele><time>2026-04-30T14:14:02.999Z</time></trkpt><trkpt lat="39.7250465322132" lon="9.2220258561689"><ele>552.6666666666667</ele><time>2026-04-30T14:14:03.999Z</time></trkpt><trkpt lat="39.72514089208354" lon="9.221812834456795"><ele>552.3333333333334</ele><time>2026-04-30T14:14:04.999Z</time></trkpt><trkpt lat="39.72523831777273" lon="9.22159623411139"><ele>552.0</ele><time>2026-04-30T14:14:05.999Z</time></trkpt><trkpt lat="39.725346376052045" lon="9.221377596620698"><ele>553.0</ele><time>2026-04-30T14:14:06.999Z</time></trkpt><trkpt lat="39.72544602564871" lon="9.22116002203957"><ele>554.0</ele><time>2026-04-30T14:14:07.999Z</time></trkpt><trkpt lat="39.72554317437446" lon="9.2209421076858"><ele>555.0</ele><time>2026-04-30T14:14:08.999Z</time></trkpt><trkpt lat="39.72564098645675" lon="9.220727862222503"><ele>554.3333333333334</ele><time>2026-04-30T14:14:09.999Z</time></trkpt><trkpt lat="39.72574099915878" lon="9.220512731386728"><ele>553.6666666666667</ele><time>2026-04-30T14:14:10.999Z</time></trkpt><trkpt lat="39.725844582751776" lon="9.220299185571802"><ele>553.0</ele><time>2026-04-30T14:14:11.999Z</time></trkpt><trkpt lat="39.725945055185704" lon="9.220082474512417"><ele>553.0</ele><time>2026-04-30T14:14:12.999Z</time></trkpt><trkpt lat="39.72604975344156" lon="9.21986249734548"><ele>553.0</ele><time>2026-04-30T14:14:13.999Z</time></trkpt><trkpt lat="39.72615739455168" lon="9.219642755427838"><ele>553.0</ele><time>2026-04-30T14:14:14.999Z</time></trkpt><trkpt lat="39.72626621147364" lon="9.219420002324027"><ele>553.6666666666667</ele><time>2026-04-30T14:14:15.999Z</time></trkpt><trkpt lat="39.72638058793853" lon="9.21918857315552"><ele>554.3333333333334</ele><time>2026-04-30T14:14:16.998Z</time></trkpt><trkpt lat="39.72649261832395" lon="9.218952898706135"><ele>555.0</ele><time>2026-04-30T14:14:17.998Z</time></trkpt><trkpt lat="39.726605477759264" lon="9.21871330501551"><ele>555.0</ele><time>2026-04-30T14:14:18.998Z</time></trkpt><trkpt lat="39.7267212227824" lon="9.218470339212727"><ele>555.0</ele><time>2026-04-30T14:14:19.998Z</time></trkpt><trkpt lat="39.72683690217739" lon="9.218229914028806"><ele>555.0</ele><time>2026-04-30T14:14:20.998Z</time></trkpt><trkpt lat="39.72695002265225" lon="9.217989080013158"><ele>555.6666666666666</ele><time>2026-04-30T14:14:21.998Z</time></trkpt><trkpt lat="39.727062660803824" lon="9.217749753857241"><ele>556.3333333333333</ele><time>2026-04-30T14:14:22.998Z</time></trkpt><trkpt lat="39.72717737323146" lon="9.217511655105136"><ele>557.0</ele><time>2026-04-30T14:14:23.998Z</time></trkpt><trkpt lat="39.72729416716864" lon="9.217272588683239"><ele>557.0</ele><time>2026-04-30T14:14:24.998Z</time></trkpt><trkpt lat="39.727408663120706" lon="9.21702916159494"><ele>557.0</ele><time>2026-04-30T14:14:25.998Z</time></trkpt><trkpt lat="39.727527381548036" lon="9.216783646178836"><ele>557.0</ele><time>2026-04-30T14:14:26.998Z</time></trkpt><trkpt lat="39.72765010360194" lon="9.216534656439059"><ele>557.3333333333333</ele><time>2026-04-30T14:14:27.998Z</time></trkpt><trkpt lat="39.72776834416645" lon="9.216289402367515"><ele>557.6666666666666</ele><time>2026-04-30T14:14:28.998Z</time></trkpt><trkpt lat="39.727887989102804" lon="9.216038993822936"><ele>558.0</ele><time>2026-04-30T14:14:29.998Z</time></trkpt><trkpt lat="39.72800470386355" lon="9.215789958548527"><ele>557.6666666666666</ele><time>2026-04-30T14:14:30.998Z</time></trkpt><trkpt lat="39.72811984708279" lon="9.215544143231522"><ele>557.3333333333333</ele><time>2026-04-30T14:14:31.998Z</time></trkpt><trkpt lat="39.728233199713095" lon="9.215304254218724"><ele>557.0</ele><time>2026-04-30T14:14:32.998Z</time></trkpt><trkpt lat="39.72834258622524" lon="9.215060614072957"><ele>556.6666666666666</ele><time>2026-04-30T14:14:33.998Z</time></trkpt><trkpt lat="39.72844400416816" lon="9.214812815318867"><ele>556.3333333333334</ele><time>2026-04-30T14:14:34.998Z</time></trkpt><trkpt lat="39.72854150155279" lon="9.214564888508658"><ele>556.0</ele><time>2026-04-30T14:14:35.998Z</time></trkpt><trkpt lat="39.72863642546482" lon="9.214317004648407"><ele>557.3333333333334</ele><time>2026-04-30T14:14:36.998Z</time></trkpt><trkpt lat="39.72872622558458" lon="9.214069633795052"><ele>558.6666666666666</ele><time>2026-04-30T14:14:37.998Z</time></trkpt><trkpt lat="39.72881174413805" lon="9.213822170428061"><ele>560.0</ele><time>2026-04-30T14:14:38.998Z</time></trkpt><trkpt lat="39.72889286840193" lon="9.213572869415644"><ele>560.0</ele><time>2026-04-30T14:14:39.998Z</time></trkpt><trkpt lat="39.728967819547925" lon="9.213321850622746"><ele>560.0</ele><time>2026-04-30T14:14:40.998Z</time></trkpt><trkpt lat="39.72904011192062" lon="9.213071100795421"><ele>560.0</ele><time>2026-04-30T14:14:41.998Z</time></trkpt><trkpt lat="39.729106838383586" lon="9.212814756327314"><ele>559.6666666666666</ele><time>2026-04-30T14:14:42.998Z</time></trkpt><trkpt lat="39.729166776413166" lon="9.212559914700513"><ele>559.3333333333334</ele><time>2026-04-30T14:14:43.998Z</time></trkpt><trkpt lat="39.72922753777567" lon="9.212304805131952"><ele>559.0</ele><time>2026-04-30T14:14:44.998Z</time></trkpt><trkpt lat="39.729288399334244" lon="9.21205169289386"><ele>559.6666666666667</ele><time>2026-04-30T14:14:45.998Z</time></trkpt><trkpt lat="39.72935434015756" lon="9.211797946196269"><ele>560.3333333333334</ele><time>2026-04-30T14:14:46.998Z</time></trkpt><trkpt lat="39.72941639173925" lon="9.211546804685106"><ele>561.0</ele><time>2026-04-30T14:14:47.998Z</time></trkpt><trkpt lat="39.7294767270222" lon="9.21130918494806"><ele>562.0</ele><time>2026-04-30T14:14:48.998Z</time></trkpt><trkpt lat="39.72953056431957" lon="9.211088296225384"><ele>563.0</ele><time>2026-04-30T14:14:49.998Z</time></trkpt><trkpt lat="39.72957154720193" lon="9.210898422036333"><ele>564.0</ele><time>2026-04-30T14:14:50.998Z</time></trkpt><trkpt lat="39.729609842010206" lon="9.210739462841417"><ele>564.3333333333334</ele><time>2026-04-30T14:14:51.998Z</time></trkpt><trkpt lat="39.72963721115157" lon="9.210610910069734"><ele>564.6666666666666</ele><time>2026-04-30T14:14:52.998Z</time></trkpt><trkpt lat="39.72965765335151" lon="9.210503374431676"><ele>565.0</ele><time>2026-04-30T14:14:53.998Z</time></trkpt><trkpt lat="39.72967732872191" lon="9.210417341542481"><ele>565.3333333333333</ele><time>2026-04-30T14:14:54.998Z</time></trkpt><trkpt lat="39.72970623601255" lon="9.21028387817434"><ele>565.6666666666666</ele><time>2026-04-30T14:14:56.998Z</time></trkpt><trkpt lat="39.729736180841286" lon="9.210199069051798"><ele>566.0</ele><time>2026-04-30T14:14:58.998Z</time></trkpt><trkpt lat="39.72979035134989" lon="9.210147765202464"><ele>566.0</ele><time>2026-04-30T14:15:00.998Z</time></trkpt><trkpt lat="39.72991211571207" lon="9.210155052551373"><ele>566.0</ele><time>2026-04-30T14:15:02.998Z</time></trkpt><trkpt lat="39.729992888691115" lon="9.21018858885031"><ele>566.0</ele><time>2026-04-30T14:15:03.998Z</time></trkpt><trkpt lat="39.73009013156597" lon="9.210229320802869"><ele>566.0</ele><time>2026-04-30T14:15:04.998Z</time></trkpt><trkpt lat="39.730189315715066" lon="9.21026674845873"><ele>566.0</ele><time>2026-04-30T14:15:05.998Z</time></trkpt><trkpt lat="39.73029412303285" lon="9.210305766454335"><ele>566.25</ele><time>2026-04-30T14:15:06.998Z</time></trkpt><trkpt lat="39.730406562251744" lon="9.210347515285566"><ele>566.5</ele><time>2026-04-30T14:15:07.998Z</time></trkpt><trkpt lat="39.7305287579306" lon="9.210393873720841"><ele>566.75</ele><time>2026-04-30T14:15:08.998Z</time></trkpt><trkpt lat="39.73065872740795" lon="9.210444557776837"><ele>567.0</ele><time>2026-04-30T14:15:09.998Z</time></trkpt><trkpt lat="39.730783921318704" lon="9.210493014961221"><ele>567.0</ele><time>2026-04-30T14:15:10.998Z</time></trkpt><trkpt lat="39.730899861516164" lon="9.210535432998691"><ele>567.0</ele><time>2026-04-30T14:15:11.998Z</time></trkpt><trkpt lat="39.73101828161524" lon="9.21057847543884"><ele>567.0</ele><time>2026-04-30T14:15:12.998Z</time></trkpt><trkpt lat="39.731141038266436" lon="9.210626729749993"><ele>567.0</ele><time>2026-04-30T14:15:13.998Z</time></trkpt><trkpt lat="39.73126572399193" lon="9.210676031442501"><ele>566.75</ele><time>2026-04-30T14:15:14.998Z</time></trkpt><trkpt lat="39.73139339048398" lon="9.210727770503116"><ele>566.5</ele><time>2026-04-30T14:15:15.998Z</time></trkpt><trkpt lat="39.73151712354719" lon="9.21077635919858"><ele>566.25</ele><time>2026-04-30T14:15:16.998Z</time></trkpt><trkpt lat="39.731629744118564" lon="9.210816260464462"><ele>566.0</ele><time>2026-04-30T14:15:17.998Z</time></trkpt><trkpt lat="39.73173730611919" lon="9.210856885102054"><ele>566.0</ele><time>2026-04-30T14:15:18.998Z</time></trkpt><trkpt lat="39.731842862545605" lon="9.210900194162395"><ele>566.0</ele><time>2026-04-30T14:15:19.998Z</time></trkpt><trkpt lat="39.73194869131744" lon="9.210946663149064"><ele>566.0</ele><time>2026-04-30T14:15:20.998Z</time></trkpt><trkpt lat="39.73205911208678" lon="9.210991627836002"><ele>566.0</ele><time>2026-04-30T14:15:21.998Z</time></trkpt><trkpt lat="39.73217104214304" lon="9.211023212228048"><ele>565.25</ele><time>2026-04-30T14:15:22.998Z</time></trkpt><trkpt lat="39.732289549861" lon="9.211044230949934"><ele>564.5</ele><time>2026-04-30T14:15:23.998Z</time></trkpt><trkpt lat="39.732413250288076" lon="9.211050954709881"><ele>563.75</ele><time>2026-04-30T14:15:24.998Z</time></trkpt><trkpt lat="39.73253912391413" lon="9.211038875365103"><ele>563.0</ele><time>2026-04-30T14:15:25.998Z</time></trkpt><trkpt lat="39.73266311660768" lon="9.211002862090435"><ele>563.25</ele><time>2026-04-30T14:15:26.998Z</time></trkpt><trkpt lat="39.73279072538756" lon="9.210935325442305"><ele>563.5</ele><time>2026-04-30T14:15:27.998Z</time></trkpt><trkpt lat="39.73291645342632" lon="9.210846552521971"><ele>563.75</ele><time>2026-04-30T14:15:28.998Z</time></trkpt><trkpt lat="39.7330366153825" lon="9.210736195003843"><ele>564.0</ele><time>2026-04-30T14:15:29.998Z</time></trkpt><trkpt lat="39.73316036154754" lon="9.210620347980177"><ele>561.6666666666666</ele><time>2026-04-30T14:15:30.998Z</time></trkpt><trkpt lat="39.73329166317479" lon="9.210509696386673"><ele>559.3333333333333</ele><time>2026-04-30T14:15:31.998Z</time></trkpt><trkpt lat="39.733422177577665" lon="9.210408878319154"><ele>557.0</ele><time>2026-04-30T14:15:32.998Z</time></trkpt><trkpt lat="39.73355776438735" lon="9.210316438245597"><ele>556.5</ele><time>2026-04-30T14:15:33.998Z</time></trkpt><trkpt lat="39.73369246442868" lon="9.210231267063788"><ele>556.0</ele><time>2026-04-30T14:15:34.998Z</time></trkpt><trkpt lat="39.73382271655588" lon="9.21015802036804"><ele>555.5</ele><time>2026-04-30T14:15:35.998Z</time></trkpt><trkpt lat="39.73395854608228" lon="9.21008948031004"><ele>555.0</ele><time>2026-04-30T14:15:36.998Z</time></trkpt><trkpt lat="39.734087164511365" lon="9.210033381853876"><ele>555.0</ele><time>2026-04-30T14:15:37.998Z</time></trkpt><trkpt lat="39.73421417884065" lon="9.209995698887408"><ele>555.0</ele><time>2026-04-30T14:15:38.998Z</time></trkpt><trkpt lat="39.73432751157231" lon="9.209978903953603"><ele>555.0</ele><time>2026-04-30T14:15:39.998Z</time></trkpt><trkpt lat="39.73442552459909" lon="9.20999261638287"><ele>555.0</ele><time>2026-04-30T14:15:40.998Z</time></trkpt><trkpt lat="39.73450961708634" lon="9.210011111051672"><ele>555.0</ele><time>2026-04-30T14:15:41.998Z</time></trkpt><trkpt lat="39.734587485583134" lon="9.21003797222862"><ele>554.0</ele><time>2026-04-30T14:15:42.998Z</time></trkpt><trkpt lat="39.7346496758225" lon="9.210061670860053"><ele>553.0</ele><time>2026-04-30T14:15:43.998Z</time></trkpt><trkpt lat="39.73474952415696" lon="9.210100075157968"><ele>552.0</ele><time>2026-04-30T14:15:45.998Z</time></trkpt><trkpt lat="39.73483041929585" lon="9.210125918691546"><ele>551.0</ele><time>2026-04-30T14:15:48.998Z</time></trkpt><trkpt lat="39.73490328191485" lon="9.210154585676532"><ele>550.0</ele><time>2026-04-30T14:15:51.998Z</time></trkpt><trkpt lat="39.73497419033184" lon="9.210183457919728"><ele>549.0</ele><time>2026-04-30T14:15:54.998Z</time></trkpt><trkpt lat="39.7350666693844" lon="9.21022556215233"><ele>549.0</ele><time>2026-04-30T14:15:57.998Z</time></trkpt><trkpt lat="39.73514319534691" lon="9.210287466733028"><ele>549.0</ele><time>2026-04-30T14:15:59.998Z</time></trkpt><trkpt lat="39.73518713394668" lon="9.21035411039579"><ele>549.0</ele><time>2026-04-30T14:16:00.998Z</time></trkpt><trkpt lat="39.73522354812684" lon="9.210441871813272"><ele>549.0</ele><time>2026-04-30T14:16:01.998Z</time></trkpt><trkpt lat="39.7352548206004" lon="9.210547564709403"><ele>549.0</ele><time>2026-04-30T14:16:02.998Z</time></trkpt><trkpt lat="39.7352745800999" lon="9.210670639138733"><ele>549.0</ele><time>2026-04-30T14:16:03.998Z</time></trkpt><trkpt lat="39.73526795317011" lon="9.21079126647766"><ele>550.4</ele><time>2026-04-30T14:16:04.998Z</time></trkpt><trkpt lat="39.73524387171842" lon="9.210910267630558"><ele>551.8</ele><time>2026-04-30T14:16:05.998Z</time></trkpt><trkpt lat="39.735201572526115" lon="9.211034358970217"><ele>553.2</ele><time>2026-04-30T14:16:06.998Z</time></trkpt><trkpt lat="39.73515226790214" lon="9.211170089182572"><ele>554.6</ele><time>2026-04-30T14:16:07.998Z</time></trkpt><trkpt lat="39.73509564643184" lon="9.211315350434559"><ele>556.0</ele><time>2026-04-30T14:16:08.998Z</time></trkpt><trkpt lat="39.73502793864962" lon="9.211453074617484"><ele>554.0</ele><time>2026-04-30T14:16:09.998Z</time></trkpt><trkpt lat="39.734928536020945" lon="9.211579264401648"><ele>552.0</ele><time>2026-04-30T14:16:10.998Z</time></trkpt><trkpt lat="39.73482487036994" lon="9.211692171444714"><ele>550.0</ele><time>2026-04-30T14:16:11.998Z</time></trkpt><trkpt lat="39.73472646852624" lon="9.211805663400312"><ele>548.0</ele><time>2026-04-30T14:16:12.998Z</time></trkpt><trkpt lat="39.734644891983734" lon="9.211940171067447"><ele>548.0</ele><time>2026-04-30T14:16:13.998Z</time></trkpt><trkpt lat="39.73459544862784" lon="9.212083623896653"><ele>548.0</ele><time>2026-04-30T14:16:14.998Z</time></trkpt><trkpt lat="39.734572111706086" lon="9.212235373147974"><ele>548.0</ele><time>2026-04-30T14:16:15.998Z</time></trkpt><trkpt lat="39.734574243974315" lon="9.21238805983981"><ele>548.0</ele><time>2026-04-30T14:16:16.998Z</time></trkpt><trkpt lat="39.73460211659681" lon="9.21253942540833"><ele>546.75</ele><time>2026-04-30T14:16:17.998Z</time></trkpt><trkpt lat="39.73466715649273" lon="9.212670930607251"><ele>545.5</ele><time>2026-04-30T14:16:18.998Z</time></trkpt><trkpt lat="39.734758179570804" lon="9.212787197972967"><ele>544.25</ele><time>2026-04-30T14:16:19.998Z</time></trkpt><trkpt lat="39.73487210806916" lon="9.212885986326649"><ele>543.0</ele><time>2026-04-30T14:16:20.998Z</time></trkpt><trkpt lat="39.7349930038056" lon="9.212974818099736"><ele>543.0</ele><time>2026-04-30T14:16:21.997Z</time></trkpt><trkpt lat="39.73512664330204" lon="9.213049393716407"><ele>543.0</ele><time>2026-04-30T14:16:22.997Z</time></trkpt><trkpt lat="39.73528873859044" lon="9.213098216060992"><ele>543.0</ele><time>2026-04-30T14:16:23.997Z</time></trkpt><trkpt lat="39.73546819075017" lon="9.213130372417574"><ele>544.0</ele><time>2026-04-30T14:16:24.997Z</time></trkpt><trkpt lat="39.735664031266346" lon="9.213167128250904"><ele>545.0</ele><time>2026-04-30T14:16:25.997Z</time></trkpt><trkpt lat="39.735854853739816" lon="9.213209638146509"><ele>546.0</ele><time>2026-04-30T14:16:26.997Z</time></trkpt><trkpt lat="39.73603160126728" lon="9.213236934806758"><ele>546.25</ele><time>2026-04-30T14:16:27.997Z</time></trkpt><trkpt lat="39.736195647958766" lon="9.213234917689068"><ele>546.5</ele><time>2026-04-30T14:16:28.997Z</time></trkpt><trkpt lat="39.736325225618145" lon="9.21321262545514"><ele>546.75</ele><time>2026-04-30T14:16:29.997Z</time></trkpt><trkpt lat="39.73642684645229" lon="9.213145428295842"><ele>547.0</ele><time>2026-04-30T14:16:30.997Z</time></trkpt><trkpt lat="39.736483886190825" lon="9.213032942830907"><ele>544.6</ele><time>2026-04-30T14:16:31.997Z</time></trkpt><trkpt lat="39.73650050858471" lon="9.21290267844015"><ele>542.2</ele><time>2026-04-30T14:16:32.997Z</time></trkpt><trkpt lat="39.73651337936486" lon="9.212780222619804"><ele>539.8</ele><time>2026-04-30T14:16:33.997Z</time></trkpt><trkpt lat="39.73654760571364" lon="9.212669514074"><ele>537.4</ele><time>2026-04-30T14:16:34.997Z</time></trkpt><trkpt lat="39.73659750861935" lon="9.212552737300436"><ele>535.0</ele><time>2026-04-30T14:16:35.997Z</time></trkpt><trkpt lat="39.73666302039278" lon="9.212434202427113"><ele>535.0</ele><time>2026-04-30T14:16:36.997Z</time></trkpt><trkpt lat="39.73673997618897" lon="9.21232515045394"><ele>535.0</ele><time>2026-04-30T14:16:37.997Z</time></trkpt><trkpt lat="39.73681155637761" lon="9.212223790546268"><ele>535.0</ele><time>2026-04-30T14:16:38.997Z</time></trkpt><trkpt lat="39.73687417437986" lon="9.212111471774033"><ele>535.0</ele><time>2026-04-30T14:16:39.997Z</time></trkpt><trkpt lat="39.73692932076866" lon="9.21200752269087"><ele>535.0</ele><time>2026-04-30T14:16:40.997Z</time></trkpt><trkpt lat="39.73698474217463" lon="9.211921877857208"><ele>533.1666666666667</ele><time>2026-04-30T14:16:41.997Z</time></trkpt><trkpt lat="39.737059068523955" lon="9.211872147091858"><ele>531.3333333333334</ele><time>2026-04-30T14:16:42.997Z</time></trkpt><trkpt lat="39.73713851533435" lon="9.21187096313392"><ele>529.5</ele><time>2026-04-30T14:16:43.997Z</time></trkpt><trkpt lat="39.73720837109267" lon="9.211900888366538"><ele>527.6666666666666</ele><time>2026-04-30T14:16:44.997Z</time></trkpt><trkpt lat="39.737271461511426" lon="9.211973027337695"><ele>525.8333333333333</ele><time>2026-04-30T14:16:45.997Z</time></trkpt><trkpt lat="39.737321206984625" lon="9.212095832799251"><ele>524.0</ele><time>2026-04-30T14:16:46.997Z</time></trkpt><trkpt lat="39.73735788400355" lon="9.212280123320683"><ele>526.3333333333333</ele><time>2026-04-30T14:16:47.997Z</time></trkpt><trkpt lat="39.737388625391226" lon="9.21249504583559"><ele>528.6666666666666</ele><time>2026-04-30T14:16:48.997Z</time></trkpt><trkpt lat="39.73741930910014" lon="9.212721747671683"><ele>531.0</ele><time>2026-04-30T14:16:49.997Z</time></trkpt><trkpt lat="39.737460774660065" lon="9.212946549005594"><ele>531.0</ele><time>2026-04-30T14:16:50.997Z</time></trkpt><trkpt lat="39.73748688751622" lon="9.213154107487021"><ele>531.0</ele><time>2026-04-30T14:16:51.997Z</time></trkpt><trkpt lat="39.73754281389448" lon="9.21333105526672"><ele>531.0</ele><time>2026-04-30T14:16:52.997Z</time></trkpt><trkpt lat="39.737636596524716" lon="9.21344860667025"><ele>531.0</ele><time>2026-04-30T14:16:53.997Z</time></trkpt><trkpt lat="39.73777194849694" lon="9.21348749107759"><ele>531.0</ele><time>2026-04-30T14:16:54.997Z</time></trkpt><trkpt lat="39.73793006292747" lon="9.213441023728311"><ele>531.0</ele><time>2026-04-30T14:16:55.997Z</time></trkpt><trkpt lat="39.73807835555493" lon="9.213311595837173"><ele>531.0</ele><time>2026-04-30T14:16:56.997Z</time></trkpt><trkpt lat="39.73819253116713" lon="9.213117816237322"><ele>531.0</ele><time>2026-04-30T14:16:57.997Z</time></trkpt><trkpt lat="39.738262442882764" lon="9.21285963851377"><ele>531.0</ele><time>2026-04-30T14:16:58.997Z</time></trkpt><trkpt lat="39.7383140384499" lon="9.21262104871779"><ele>531.0</ele><time>2026-04-30T14:16:59.997Z</time></trkpt><trkpt lat="39.738350081345374" lon="9.212388155507787"><ele>530.3333333333334</ele><time>2026-04-30T14:17:00.997Z</time></trkpt><trkpt lat="39.73835621212451" lon="9.21212773816186"><ele>529.6666666666667</ele><time>2026-04-30T14:17:01.997Z</time></trkpt><trkpt lat="39.738310946245456" lon="9.211891997779961"><ele>529.0</ele><time>2026-04-30T14:17:02.997Z</time></trkpt><trkpt lat="39.73822749945166" lon="9.211656801779464"><ele>528.6666666666667</ele><time>2026-04-30T14:17:03.997Z</time></trkpt><trkpt lat="39.73815533031238" lon="9.211437277039757"><ele>528.3333333333334</ele><time>2026-04-30T14:17:04.997Z</time></trkpt><trkpt lat="39.738118775498066" lon="9.211203279804847"><ele>528.0</ele><time>2026-04-30T14:17:05.997Z</time></trkpt><trkpt lat="39.73813197943611" lon="9.210959086244326"><ele>528.0</ele><time>2026-04-30T14:17:06.997Z</time></trkpt><trkpt lat="39.738143359523086" lon="9.21070808067094"><ele>528.0</ele><time>2026-04-30T14:17:07.997Z</time></trkpt><trkpt lat="39.73811810125441" lon="9.210467624969993"><ele>528.0</ele><time>2026-04-30T14:17:08.997Z</time></trkpt><trkpt lat="39.73807969191614" lon="9.210251005668903"><ele>524.6666666666666</ele><time>2026-04-30T14:17:09.997Z</time></trkpt><trkpt lat="39.738095689374596" lon="9.21003742677769"><ele>521.3333333333333</ele><time>2026-04-30T14:17:10.997Z</time></trkpt><trkpt lat="39.73819464928675" lon="9.209845935998779"><ele>518.0</ele><time>2026-04-30T14:17:11.997Z</time></trkpt><trkpt lat="39.73835063157956" lon="9.209707161204868"><ele>515.0</ele><time>2026-04-30T14:17:12.997Z</time></trkpt><trkpt lat="39.73851328714762" lon="9.209598141869376"><ele>512.0</ele><time>2026-04-30T14:17:13.997Z</time></trkpt><trkpt lat="39.73869632684855" lon="9.209534800787859"><ele>509.0</ele><time>2026-04-30T14:17:14.997Z</time></trkpt><trkpt lat="39.73886163023" lon="9.209519799398146"><ele>509.0</ele><time>2026-04-30T14:17:15.997Z</time></trkpt><trkpt lat="39.739003270855996" lon="9.209526114738196"><ele>509.0</ele><time>2026-04-30T14:17:16.997Z</time></trkpt><trkpt lat="39.739094631816556" lon="9.209445092577237"><ele>509.0</ele><time>2026-04-30T14:17:17.997Z</time></trkpt><trkpt lat="39.7391707729348" lon="9.20927682928441"><ele>509.0</ele><time>2026-04-30T14:17:18.997Z</time></trkpt><trkpt lat="39.73926354986929" lon="9.209061084217927"><ele>505.66666666666663</ele><time>2026-04-30T14:17:19.997Z</time></trkpt><trkpt lat="39.73940004005511" lon="9.208842097255378"><ele>502.33333333333337</ele><time>2026-04-30T14:17:20.997Z</time></trkpt><trkpt lat="39.73952679097812" lon="9.208622046340954"><ele>499.0</ele><time>2026-04-30T14:17:21.997Z</time></trkpt><trkpt lat="39.73964911386826" lon="9.20843332211297"><ele>499.0</ele><time>2026-04-30T14:17:22.997Z</time></trkpt><trkpt lat="39.739792185349664" lon="9.208360262030086"><ele>499.0</ele><time>2026-04-30T14:17:23.997Z</time></trkpt><trkpt lat="39.739953460340566" lon="9.208368937951551"><ele>499.0</ele><time>2026-04-30T14:17:24.997Z</time></trkpt><trkpt lat="39.74012722186926" lon="9.208466364848457"><ele>494.33333333333337</ele><time>2026-04-30T14:17:25.997Z</time></trkpt><trkpt lat="39.740295492304284" lon="9.208529864746836"><ele>489.66666666666663</ele><time>2026-04-30T14:17:26.997Z</time></trkpt><trkpt lat="39.74044896626593" lon="9.20856645770276"><ele>485.0</ele><time>2026-04-30T14:17:27.997Z</time></trkpt><trkpt lat="39.7405432669012" lon="9.208690729634068"><ele>485.0</ele><time>2026-04-30T14:17:28.997Z</time></trkpt><trkpt lat="39.74056972496086" lon="9.208877987039118"><ele>485.0</ele><time>2026-04-30T14:17:29.997Z</time></trkpt><trkpt lat="39.74058680171623" lon="9.209085064612333"><ele>485.0</ele><time>2026-04-30T14:17:30.997Z</time></trkpt><trkpt lat="39.740650986941425" lon="9.209252957706644"><ele>489.3333333333333</ele><time>2026-04-30T14:17:31.997Z</time></trkpt><trkpt lat="39.7407543187056" lon="9.20935603682119"><ele>493.66666666666663</ele><time>2026-04-30T14:17:32.997Z</time></trkpt><trkpt lat="39.74090429545073" lon="9.209345749969826"><ele>498.0</ele><time>2026-04-30T14:17:33.997Z</time></trkpt><trkpt lat="39.74107797038522" lon="9.209270470639817"><ele>498.0</ele><time>2026-04-30T14:17:34.997Z</time></trkpt><trkpt lat="39.74125822396073" lon="9.20926095357796"><ele>498.0</ele><time>2026-04-30T14:17:35.997Z</time></trkpt><trkpt lat="39.74142175646689" lon="9.209299579714006"><ele>498.0</ele><time>2026-04-30T14:17:36.997Z</time></trkpt><trkpt lat="39.74155351760523" lon="9.209321676605459"><ele>498.0</ele><time>2026-04-30T14:17:37.997Z</time></trkpt><trkpt lat="39.74166527321201" lon="9.209211051340516"><ele>498.0</ele><time>2026-04-30T14:17:38.997Z</time></trkpt><trkpt lat="39.74173419354408" lon="9.209023373385884"><ele>498.0</ele><time>2026-04-30T14:17:39.997Z</time></trkpt><trkpt lat="39.74176482586157" lon="9.208839285338073"><ele>498.0</ele><time>2026-04-30T14:17:40.997Z</time></trkpt><trkpt lat="39.74182875470232" lon="9.208612802741605"><ele>498.66666666666663</ele><time>2026-04-30T14:17:41.997Z</time></trkpt><trkpt lat="39.741950493739644" lon="9.208445343884652"><ele>499.3333333333333</ele><time>2026-04-30T14:17:42.997Z</time></trkpt><trkpt lat="39.74206988320791" lon="9.20826454012509"><ele>500.0</ele><time>2026-04-30T14:17:43.997Z</time></trkpt><trkpt lat="39.742153288972354" lon="9.208034399029398"><ele>495.0</ele><time>2026-04-30T14:17:44.997Z</time></trkpt><trkpt lat="39.742203770323094" lon="9.207795891949772"><ele>490.0</ele><time>2026-04-30T14:17:45.997Z</time></trkpt><trkpt lat="39.742283860803056" lon="9.207594085195732"><ele>485.0</ele><time>2026-04-30T14:17:46.997Z</time></trkpt><trkpt lat="39.742417774623306" lon="9.207475799253432"><ele>485.0</ele><time>2026-04-30T14:17:47.997Z</time></trkpt><trkpt lat="39.74258920496394" lon="9.20738341436489"><ele>485.0</ele><time>2026-04-30T14:17:48.997Z</time></trkpt><trkpt lat="39.74276395768958" lon="9.207276282106397"><ele>485.0</ele><time>2026-04-30T14:17:49.997Z</time></trkpt><trkpt lat="39.74293709577495" lon="9.207164979413621"><ele>481.0</ele><time>2026-04-30T14:17:50.997Z</time></trkpt><trkpt lat="39.74310896402864" lon="9.207054052033177"><ele>477.0</ele><time>2026-04-30T14:17:51.997Z</time></trkpt><trkpt lat="39.743280925923685" lon="9.206953632209794"><ele>473.0</ele><time>2026-04-30T14:17:52.997Z</time></trkpt><trkpt lat="39.743445369078366" lon="9.206862436443563"><ele>472.0</ele><time>2026-04-30T14:17:53.997Z</time></trkpt><trkpt lat="39.74360823086572" lon="9.206806308621992"><ele>471.0</ele><time>2026-04-30T14:17:54.997Z</time></trkpt><trkpt lat="39.74377530076873" lon="9.206802835129418"><ele>470.0</ele><time>2026-04-30T14:17:55.997Z</time></trkpt><trkpt lat="39.74393850212929" lon="9.206851379354976"><ele>470.0</ele><time>2026-04-30T14:17:56.997Z</time></trkpt><trkpt lat="39.74409606680725" lon="9.20691266582666"><ele>470.0</ele><time>2026-04-30T14:17:57.997Z</time></trkpt><trkpt lat="39.74425580192128" lon="9.206928131081236"><ele>470.0</ele><time>2026-04-30T14:17:58.997Z</time></trkpt><trkpt lat="39.74439788562463" lon="9.206872301427854"><ele>469.3333333333333</ele><time>2026-04-30T14:17:59.997Z</time></trkpt><trkpt lat="39.74451959300424" lon="9.2067618719717"><ele>468.66666666666663</ele><time>2026-04-30T14:18:00.997Z</time></trkpt><trkpt lat="39.74461376004323" lon="9.206592488858856"><ele>468.0</ele><time>2026-04-30T14:18:01.997Z</time></trkpt><trkpt lat="39.74468323251726" lon="9.206385270513852"><ele>468.0</ele><time>2026-04-30T14:18:02.997Z</time></trkpt><trkpt lat="39.74470561995015" lon="9.206158445689937"><ele>468.0</ele><time>2026-04-30T14:18:03.997Z</time></trkpt><trkpt lat="39.74466870597277" lon="9.205929099322137"><ele>468.0</ele><time>2026-04-30T14:18:04.997Z</time></trkpt><trkpt lat="39.74462411423604" lon="9.205691796952523"><ele>467.66666666666663</ele><time>2026-04-30T14:18:05.997Z</time></trkpt><trkpt lat="39.744649997844334" lon="9.205472462942513"><ele>467.3333333333333</ele><time>2026-04-30T14:18:06.997Z</time></trkpt><trkpt lat="39.74473421537762" lon="9.205261744427931"><ele>467.0</ele><time>2026-04-30T14:18:07.997Z</time></trkpt><trkpt lat="39.744814118883895" lon="9.205039523264793"><ele>465.0</ele><time>2026-04-30T14:18:08.997Z</time></trkpt><trkpt lat="39.744838978337704" lon="9.20481351068874"><ele>463.0</ele><time>2026-04-30T14:18:09.997Z</time></trkpt><trkpt lat="39.7447790722967" lon="9.204592149282616"><ele>461.0</ele><time>2026-04-30T14:18:10.997Z</time></trkpt><trkpt lat="39.74467948124328" lon="9.204388937240697"><ele>461.0</ele><time>2026-04-30T14:18:11.997Z</time></trkpt><trkpt lat="39.744563278827336" lon="9.204188533572895"><ele>461.0</ele><time>2026-04-30T14:18:12.997Z</time></trkpt><trkpt lat="39.744489228746" lon="9.204004014570005"><ele>461.0</ele><time>2026-04-30T14:18:13.997Z</time></trkpt><trkpt lat="39.74449459394497" lon="9.203820940911656"><ele>459.25</ele><time>2026-04-30T14:18:14.997Z</time></trkpt><trkpt lat="39.74456579355988" lon="9.203680211896149"><ele>457.5</ele><time>2026-04-30T14:18:15.997Z</time></trkpt><trkpt lat="39.7446903806375" lon="9.203621923632154"><ele>455.75</ele><time>2026-04-30T14:18:16.997Z</time></trkpt><trkpt lat="39.74485140041159" lon="9.20366112834933"><ele>454.0</ele><time>2026-04-30T14:18:17.997Z</time></trkpt><trkpt lat="39.745016528555944" lon="9.203700201568816"><ele>454.0</ele><time>2026-04-30T14:18:18.997Z</time></trkpt><trkpt lat="39.745147935784026" lon="9.203654664374525"><ele>454.0</ele><time>2026-04-30T14:18:19.997Z</time></trkpt><trkpt lat="39.74522563768312" lon="9.203498943632333"><ele>454.0</ele><time>2026-04-30T14:18:20.997Z</time></trkpt><trkpt lat="39.74526005320769" lon="9.203287446732602"><ele>454.0</ele><time>2026-04-30T14:18:21.997Z</time></trkpt><trkpt lat="39.745337797545034" lon="9.20309457391332"><ele>451.25</ele><time>2026-04-30T14:18:22.997Z</time></trkpt><trkpt lat="39.74542815167997" lon="9.202953296238459"><ele>448.5</ele><time>2026-04-30T14:18:23.997Z</time></trkpt><trkpt lat="39.745527095388645" lon="9.202907961058443"><ele>445.75</ele><time>2026-04-30T14:18:24.997Z</time></trkpt><trkpt lat="39.74563213555419" lon="9.202978454642457"><ele>443.0</ele><time>2026-04-30T14:18:25.996Z</time></trkpt><trkpt lat="39.745709643126276" lon="9.203156494781092"><ele>444.66666666666663</ele><time>2026-04-30T14:18:26.996Z</time></trkpt><trkpt lat="39.74575407740122" lon="9.203382801098668"><ele>446.33333333333337</ele><time>2026-04-30T14:18:27.996Z</time></trkpt><trkpt lat="39.74580125503531" lon="9.20362901560076"><ele>448.0</ele><time>2026-04-30T14:18:28.996Z</time></trkpt><trkpt lat="39.74586025772011" lon="9.203869970059817"><ele>446.6666666666667</ele><time>2026-04-30T14:18:29.996Z</time></trkpt><trkpt lat="39.74594672351376" lon="9.204080122616805"><ele>445.33333333333337</ele><time>2026-04-30T14:18:30.996Z</time></trkpt><trkpt lat="39.74607102358407" lon="9.204242126129346"><ele>444.0</ele><time>2026-04-30T14:18:31.996Z</time></trkpt><trkpt lat="39.74622599801482" lon="9.204341751272759"><ele>444.0</ele><time>2026-04-30T14:18:32.996Z</time></trkpt><trkpt lat="39.746396947612716" lon="9.20439730455996"><ele>444.0</ele><time>2026-04-30T14:18:33.996Z</time></trkpt><trkpt lat="39.74655470366044" lon="9.204435659675378"><ele>444.0</ele><time>2026-04-30T14:18:34.996Z</time></trkpt><trkpt lat="39.746689771031285" lon="9.204457738604434"><ele>444.0</ele><time>2026-04-30T14:18:35.996Z</time></trkpt><trkpt lat="39.74680717592925" lon="9.20442050360472"><ele>444.0</ele><time>2026-04-30T14:18:36.996Z</time></trkpt><trkpt lat="39.746880792674666" lon="9.204293571884277"><ele>444.0</ele><time>2026-04-30T14:18:37.996Z</time></trkpt><trkpt lat="39.746890715869576" lon="9.204101788794253"><ele>444.0</ele><time>2026-04-30T14:18:38.996Z</time></trkpt><trkpt lat="39.74685871576828" lon="9.203866170413116"><ele>442.66666666666663</ele><time>2026-04-30T14:18:39.996Z</time></trkpt><trkpt lat="39.74683988915079" lon="9.203614634135214"><ele>441.3333333333333</ele><time>2026-04-30T14:18:40.996Z</time></trkpt><trkpt lat="39.74683491050477" lon="9.203377033734572"><ele>440.0</ele><time>2026-04-30T14:18:41.996Z</time></trkpt><trkpt lat="39.746831992250094" lon="9.203165058608802"><ele>439.0</ele><time>2026-04-30T14:18:42.996Z</time></trkpt><trkpt lat="39.74684384650645" lon="9.20296404339408"><ele>438.0</ele><time>2026-04-30T14:18:43.996Z</time></trkpt><trkpt lat="39.74691415229423" lon="9.20279525946709"><ele>437.0</ele><time>2026-04-30T14:18:44.996Z</time></trkpt><trkpt lat="39.74700849957832" lon="9.202660336610153"><ele>436.0</ele><time>2026-04-30T14:18:45.996Z</time></trkpt><trkpt lat="39.74710328561819" lon="9.202525045061305"><ele>435.0</ele><time>2026-04-30T14:18:46.996Z</time></trkpt><trkpt lat="39.74716952040915" lon="9.20235975629398"><ele>434.0</ele><time>2026-04-30T14:18:47.996Z</time></trkpt><trkpt lat="39.747211694429026" lon="9.202180434476162"><ele>433.0</ele><time>2026-04-30T14:18:48.996Z</time></trkpt><trkpt lat="39.747241871204196" lon="9.20200451225016"><ele>432.0</ele><time>2026-04-30T14:18:49.996Z</time></trkpt><trkpt lat="39.747265265324714" lon="9.201824460986895"><ele>431.0</ele><time>2026-04-30T14:18:50.996Z</time></trkpt><trkpt lat="39.74727042574042" lon="9.20164547506839"><ele>430.0</ele><time>2026-04-30T14:18:51.996Z</time></trkpt><trkpt lat="39.74726205999049" lon="9.20146865327366"><ele>429.0</ele><time>2026-04-30T14:18:52.996Z</time></trkpt><trkpt lat="39.74726041026037" lon="9.201294656298062"><ele>428.0</ele><time>2026-04-30T14:18:53.996Z</time></trkpt><trkpt lat="39.74726714881508" lon="9.201123071940996"><ele>428.0</ele><time>2026-04-30T14:18:54.996Z</time></trkpt><trkpt lat="39.74728689908722" lon="9.200932347091559"><ele>428.0</ele><time>2026-04-30T14:18:55.996Z</time></trkpt><trkpt lat="39.747331910836536" lon="9.200747854158934"><ele>428.0</ele><time>2026-04-30T14:18:56.996Z</time></trkpt><trkpt lat="39.74739960085281" lon="9.20057056154678"><ele>428.0</ele><time>2026-04-30T14:18:57.996Z</time></trkpt><trkpt lat="39.74748247650944" lon="9.20039843877992"><ele>427.75</ele><time>2026-04-30T14:18:58.996Z</time></trkpt><trkpt lat="39.74756415202616" lon="9.200225917695937"><ele>427.5</ele><time>2026-04-30T14:18:59.996Z</time></trkpt><trkpt lat="39.74762586042381" lon="9.200055527925016"><ele>427.25</ele><time>2026-04-30T14:19:00.996Z</time></trkpt><trkpt lat="39.74764687861417" lon="9.199881875735374"><ele>427.0</ele><time>2026-04-30T14:19:01.996Z</time></trkpt><trkpt lat="39.7476159675709" lon="9.199705924587873"><ele>425.25</ele><time>2026-04-30T14:19:02.996Z</time></trkpt><trkpt lat="39.747541210184124" lon="9.19954455552515"><ele>423.5</ele><time>2026-04-30T14:19:03.996Z</time></trkpt><trkpt lat="39.747458847880566" lon="9.199395209597146"><ele>421.75</ele><time>2026-04-30T14:19:04.996Z</time></trkpt><trkpt lat="39.747404032186694" lon="9.199268665155365"><ele>420.0</ele><time>2026-04-30T14:19:05.996Z</time></trkpt><trkpt lat="39.74743260031177" lon="9.199140851675546"><ele>420.0</ele><time>2026-04-30T14:19:06.996Z</time></trkpt><trkpt lat="39.74753304283712" lon="9.199072017904333"><ele>420.0</ele><time>2026-04-30T14:19:07.996Z</time></trkpt><trkpt lat="39.74763384713481" lon="9.199128304004176"><ele>420.0</ele><time>2026-04-30T14:19:08.996Z</time></trkpt><trkpt lat="39.74767187746185" lon="9.199272459083955"><ele>420.0</ele><time>2026-04-30T14:19:09.996Z</time></trkpt><trkpt lat="39.74770113540604" lon="9.19947388181838"><ele>418.33333333333337</ele><time>2026-04-30T14:19:10.996Z</time></trkpt><trkpt lat="39.747764046724335" lon="9.199689516529867"><ele>416.6666666666667</ele><time>2026-04-30T14:19:11.996Z</time></trkpt><trkpt lat="39.747856014887496" lon="9.199888522942993"><ele>415.0</ele><time>2026-04-30T14:19:12.996Z</time></trkpt><trkpt lat="39.74798465054978" lon="9.200054738145939"><ele>415.0</ele><time>2026-04-30T14:19:13.996Z</time></trkpt><trkpt lat="39.74813936895148" lon="9.20014359521188"><ele>415.0</ele><time>2026-04-30T14:19:14.996Z</time></trkpt><trkpt lat="39.7482962095793" lon="9.200161278955465"><ele>415.0</ele><time>2026-04-30T14:19:15.996Z</time></trkpt><trkpt lat="39.748422326436" lon="9.200224589304424"><ele>415.0</ele><time>2026-04-30T14:19:16.996Z</time></trkpt><trkpt lat="39.74850194950929" lon="9.20039529343472"><ele>415.0</ele><time>2026-04-30T14:19:17.996Z</time></trkpt><trkpt lat="39.74853893155451" lon="9.20062088387565"><ele>415.0</ele><time>2026-04-30T14:19:18.996Z</time></trkpt><trkpt lat="39.748596996147526" lon="9.20083541075578"><ele>412.0</ele><time>2026-04-30T14:19:19.996Z</time></trkpt><trkpt lat="39.748707939281275" lon="9.20100121828072"><ele>409.0</ele><time>2026-04-30T14:19:20.996Z</time></trkpt><trkpt lat="39.748843634837236" lon="9.201129636480827"><ele>406.0</ele><time>2026-04-30T14:19:21.996Z</time></trkpt><trkpt lat="39.74896846030641" lon="9.201277455759964"><ele>406.0</ele><time>2026-04-30T14:19:22.996Z</time></trkpt><trkpt lat="39.74904440459368" lon="9.201465250462967"><ele>406.0</ele><time>2026-04-30T14:19:23.996Z</time></trkpt><trkpt lat="39.7490895750175" lon="9.20167846787606"><ele>406.0</ele><time>2026-04-30T14:19:24.996Z</time></trkpt><trkpt lat="39.74912546116488" lon="9.201901400871883"><ele>406.6666666666667</ele><time>2026-04-30T14:19:25.996Z</time></trkpt><trkpt lat="39.749165681173224" lon="9.202131213696774"><ele>407.33333333333337</ele><time>2026-04-30T14:19:26.996Z</time></trkpt><trkpt lat="39.74923474475894" lon="9.202350742425189"><ele>408.0</ele><time>2026-04-30T14:19:27.996Z</time></trkpt><trkpt lat="39.74935389667598" lon="9.202528467601716"><ele>403.66666666666663</ele><time>2026-04-30T14:19:28.996Z</time></trkpt><trkpt lat="39.749512462573044" lon="9.202653704089698"><ele>399.3333333333333</ele><time>2026-04-30T14:19:29.996Z</time></trkpt><trkpt lat="39.74968081608056" lon="9.202754386433206"><ele>395.0</ele><time>2026-04-30T14:19:30.996Z</time></trkpt><trkpt lat="39.74985854883124" lon="9.20281082817337"><ele>395.0</ele><time>2026-04-30T14:19:31.996Z</time></trkpt><trkpt lat="39.750031430021586" lon="9.202875996318687"><ele>395.0</ele><time>2026-04-30T14:19:32.996Z</time></trkpt><trkpt lat="39.750191621923854" lon="9.202986914842208"><ele>395.0</ele><time>2026-04-30T14:19:33.996Z</time></trkpt><trkpt lat="39.75031430865412" lon="9.203156994746934"><ele>390.3333333333333</ele><time>2026-04-30T14:19:34.996Z</time></trkpt><trkpt lat="39.75041304176941" lon="9.203364830478145"><ele>385.66666666666663</ele><time>2026-04-30T14:19:35.996Z</time></trkpt><trkpt lat="39.75051140713776" lon="9.20358056486769"><ele>381.0</ele><time>2026-04-30T14:19:36.996Z</time></trkpt><trkpt lat="39.75060267517613" lon="9.20379102111323"><ele>382.33333333333337</ele><time>2026-04-30T14:19:37.996Z</time></trkpt><trkpt lat="39.7506817902334" lon="9.204000988796537"><ele>383.6666666666667</ele><time>2026-04-30T14:19:38.996Z</time></trkpt><trkpt lat="39.75070355431947" lon="9.204220459549983"><ele>385.0</ele><time>2026-04-30T14:19:39.996Z</time></trkpt><trkpt lat="39.7506503548749" lon="9.204432997270239"><ele>385.0</ele><time>2026-04-30T14:19:40.996Z</time></trkpt><trkpt lat="39.750521936628296" lon="9.20462222586498"><ele>385.0</ele><time>2026-04-30T14:19:41.996Z</time></trkpt><trkpt lat="39.750348453691494" lon="9.204775700225632"><ele>385.0</ele><time>2026-04-30T14:19:42.996Z</time></trkpt><trkpt lat="39.7501915789647" lon="9.20493194294554"><ele>387.25</ele><time>2026-04-30T14:19:43.996Z</time></trkpt><trkpt lat="39.75005662642767" lon="9.205073714797313"><ele>389.5</ele><time>2026-04-30T14:19:44.996Z</time></trkpt><trkpt lat="39.749971583646655" lon="9.205225573075005"><ele>391.75</ele><time>2026-04-30T14:19:45.996Z</time></trkpt><trkpt lat="39.74995134093569" lon="9.205386505122618"><ele>394.0</ele><time>2026-04-30T14:19:46.996Z</time></trkpt><trkpt lat="39.74999580816476" lon="9.20555523822971"><ele>393.6666666666667</ele><time>2026-04-30T14:19:47.996Z</time></trkpt><trkpt lat="39.75011067011256" lon="9.205700858107788"><ele>393.33333333333337</ele><time>2026-04-30T14:19:48.996Z</time></trkpt><trkpt lat="39.75029070939401" lon="9.20577461448582"><ele>393.0</ele><time>2026-04-30T14:19:49.996Z</time></trkpt><trkpt lat="39.75048558824581" lon="9.205815244890834"><ele>389.3333333333333</ele><time>2026-04-30T14:19:50.996Z</time></trkpt><trkpt lat="39.750686529492825" lon="9.205851660073069"><ele>385.66666666666663</ele><time>2026-04-30T14:19:51.996Z</time></trkpt><trkpt lat="39.75088191736247" lon="9.205898089547713"><ele>382.0</ele><time>2026-04-30T14:19:52.996Z</time></trkpt><trkpt lat="39.75106912377623" lon="9.20596570843204"><ele>378.66666666666663</ele><time>2026-04-30T14:19:53.996Z</time></trkpt><trkpt lat="39.75124187372036" lon="9.206085425949361"><ele>375.3333333333333</ele><time>2026-04-30T14:19:54.996Z</time></trkpt><trkpt lat="39.751395792972176" lon="9.206240167741084"><ele>372.0</ele><time>2026-04-30T14:19:55.996Z</time></trkpt><trkpt lat="39.751549258373515" lon="9.20639157649957"><ele>371.0</ele><time>2026-04-30T14:19:56.996Z</time></trkpt><trkpt lat="39.75171224376878" lon="9.206510601990937"><ele>370.0</ele><time>2026-04-30T14:19:57.996Z</time></trkpt><trkpt lat="39.75187825947606" lon="9.206593508588988"><ele>369.0</ele><time>2026-04-30T14:19:58.996Z</time></trkpt><trkpt lat="39.75201792111774" lon="9.206699852006164"><ele>369.0</ele><time>2026-04-30T14:19:59.996Z</time></trkpt><trkpt lat="39.75212308446247" lon="9.20686319342452"><ele>369.0</ele><time>2026-04-30T14:20:00.996Z</time></trkpt><trkpt lat="39.75222302159242" lon="9.207043369168712"><ele>369.0</ele><time>2026-04-30T14:20:01.996Z</time></trkpt><trkpt lat="39.7523533394468" lon="9.207182799806505"><ele>369.0</ele><time>2026-04-30T14:20:02.996Z</time></trkpt><trkpt lat="39.75250884492149" lon="9.207275634789317"><ele>369.0</ele><time>2026-04-30T14:20:03.996Z</time></trkpt><trkpt lat="39.75268987068599" lon="9.20734557227197"><ele>369.0</ele><time>2026-04-30T14:20:04.996Z</time></trkpt><trkpt lat="39.752856764558935" lon="9.207459222584465"><ele>369.0</ele><time>2026-04-30T14:20:05.996Z</time></trkpt><trkpt lat="39.75300350447736" lon="9.207612337078322"><ele>369.0</ele><time>2026-04-30T14:20:06.996Z</time></trkpt><trkpt lat="39.75315861275744" lon="9.207751335781198"><ele>369.0</ele><time>2026-04-30T14:20:07.996Z</time></trkpt><trkpt lat="39.753316351983656" lon="9.207873547056995"><ele>369.0</ele><time>2026-04-30T14:20:08.996Z</time></trkpt><trkpt lat="39.75346407118819" lon="9.207979350380882"><ele>369.0</ele><time>2026-04-30T14:20:09.996Z</time></trkpt><trkpt lat="39.75360822028804" lon="9.20807532445091"><ele>369.0</ele><time>2026-04-30T14:20:10.996Z</time></trkpt><trkpt lat="39.753750467920476" lon="9.208165989866293"><ele>368.25</ele><time>2026-04-30T14:20:11.996Z</time></trkpt><trkpt lat="39.75388885246191" lon="9.208235291308165"><ele>367.5</ele><time>2026-04-30T14:20:12.996Z</time></trkpt><trkpt lat="39.75403823487836" lon="9.208238354279757"><ele>366.75</ele><time>2026-04-30T14:20:13.996Z</time></trkpt><trkpt lat="39.75418127643315" lon="9.20821627083354"><ele>366.0</ele><time>2026-04-30T14:20:14.996Z</time></trkpt><trkpt lat="39.75430215644782" lon="9.208211751940912"><ele>368.20000000000005</ele><time>2026-04-30T14:20:15.996Z</time></trkpt><trkpt lat="39.754421901912174" lon="9.208212265373136"><ele>370.40000000000003</ele><time>2026-04-30T14:20:16.996Z</time></trkpt><trkpt lat="39.754537873937686" lon="9.208226194138486"><ele>372.6</ele><time>2026-04-30T14:20:17.996Z</time></trkpt><trkpt lat="39.75463582665067" lon="9.208255414657117"><ele>374.8</ele><time>2026-04-30T14:20:18.996Z</time></trkpt><trkpt lat="39.754717999197446" lon="9.208294014408107"><ele>377.0</ele><time>2026-04-30T14:20:19.996Z</time></trkpt><trkpt lat="39.75479288370235" lon="9.208347587133835"><ele>377.0</ele><time>2026-04-30T14:20:20.996Z</time></trkpt><trkpt lat="39.75485745714345" lon="9.208449757103084"><ele>377.0</ele><time>2026-04-30T14:20:21.996Z</time></trkpt><trkpt lat="39.754907034595156" lon="9.208599912744218"><ele>377.0</ele><time>2026-04-30T14:20:22.996Z</time></trkpt><trkpt lat="39.754940776302824" lon="9.2087766856641"><ele>377.0</ele><time>2026-04-30T14:20:23.996Z</time></trkpt><trkpt lat="39.75497374511902" lon="9.208961981597799"><ele>374.5</ele><time>2026-04-30T14:20:24.996Z</time></trkpt><trkpt lat="39.75500271174555" lon="9.20915300068413"><ele>372.0</ele><time>2026-04-30T14:20:25.996Z</time></trkpt><trkpt lat="39.755040715449745" lon="9.20934876432335"><ele>369.5</ele><time>2026-04-30T14:20:26.996Z</time></trkpt><trkpt lat="39.75509442184938" lon="9.209512707985821"><ele>367.0</ele><time>2026-04-30T14:20:27.996Z</time></trkpt><trkpt lat="39.755199406815535" lon="9.209613508806099"><ele>368.0</ele><time>2026-04-30T14:20:28.996Z</time></trkpt><trkpt lat="39.755344327969965" lon="9.209633463819523"><ele>369.0</ele><time>2026-04-30T14:20:29.996Z</time></trkpt><trkpt lat="39.75549690483443" lon="9.209562410541015"><ele>370.0</ele><time>2026-04-30T14:20:30.995Z</time></trkpt><trkpt lat="39.75564532820116" lon="9.209408778655567"><ele>370.0</ele><time>2026-04-30T14:20:31.995Z</time></trkpt><trkpt lat="39.75575848261204" lon="9.209274378860389"><ele>370.0</ele><time>2026-04-30T14:20:32.995Z</time></trkpt><trkpt lat="39.75588092560578" lon="9.2092382268483"><ele>370.0</ele><time>2026-04-30T14:20:33.995Z</time></trkpt><trkpt lat="39.75598364306436" lon="9.209297148942923"><ele>370.0</ele><time>2026-04-30T14:20:34.995Z</time></trkpt><trkpt lat="39.756023919845035" lon="9.209433754834564"><ele>370.0</ele><time>2026-04-30T14:20:35.995Z</time></trkpt><trkpt lat="39.75600581348136" lon="9.209613575273538"><ele>370.0</ele><time>2026-04-30T14:20:36.995Z</time></trkpt><trkpt lat="39.755965898857255" lon="9.209816207659575"><ele>370.0</ele><time>2026-04-30T14:20:37.995Z</time></trkpt><trkpt lat="39.75591700218689" lon="9.210061840689658"><ele>369.0</ele><time>2026-04-30T14:20:38.995Z</time></trkpt><trkpt lat="39.75589090410012" lon="9.210254416159247"><ele>368.0</ele><time>2026-04-30T14:20:39.995Z</time></trkpt><trkpt lat="39.75592874102039" lon="9.21041038446634"><ele>367.0</ele><time>2026-04-30T14:20:40.995Z</time></trkpt><trkpt lat="39.75604754876458" lon="9.210492832699302"><ele>366.0</ele><time>2026-04-30T14:20:41.995Z</time></trkpt><trkpt lat="39.75621337153142" lon="9.21050500749414"><ele>371.0</ele><time>2026-04-30T14:20:42.995Z</time></trkpt><trkpt lat="39.75640496150151" lon="9.21047108156419"><ele>376.0</ele><time>2026-04-30T14:20:43.995Z</time></trkpt><trkpt lat="39.75661169243493" lon="9.210446776538449"><ele>381.0</ele><time>2026-04-30T14:20:44.995Z</time></trkpt><trkpt lat="39.7568123967486" lon="9.210492866921312"><ele>379.6666666666667</ele><time>2026-04-30T14:20:45.995Z</time></trkpt><trkpt lat="39.75699591352897" lon="9.210596673455898"><ele>378.33333333333337</ele><time>2026-04-30T14:20:46.995Z</time></trkpt><trkpt lat="39.757150016117095" lon="9.210720079830232"><ele>377.0</ele><time>2026-04-30T14:20:47.995Z</time></trkpt><trkpt lat="39.75728799469919" lon="9.210886645015451"><ele>377.0</ele><time>2026-04-30T14:20:48.995Z</time></trkpt><trkpt lat="39.75740215287185" lon="9.21107272106311"><ele>377.0</ele><time>2026-04-30T14:20:49.995Z</time></trkpt><trkpt lat="39.757481969755446" lon="9.211259282919412"><ele>377.0</ele><time>2026-04-30T14:20:50.995Z</time></trkpt><trkpt lat="39.757560235223735" lon="9.211429993949075"><ele>372.33333333333337</ele><time>2026-04-30T14:20:51.995Z</time></trkpt><trkpt lat="39.75767151156154" lon="9.211541011563048"><ele>367.6666666666667</ele><time>2026-04-30T14:20:52.995Z</time></trkpt><trkpt lat="39.7578192620468" lon="9.211563582509973"><ele>363.0</ele><time>2026-04-30T14:20:53.995Z</time></trkpt><trkpt lat="39.757984347641866" lon="9.211525776632268"><ele>372.0</ele><time>2026-04-30T14:20:54.995Z</time></trkpt><trkpt lat="39.758155711964534" lon="9.21146017211167"><ele>381.0</ele><time>2026-04-30T14:20:55.995Z</time></trkpt><trkpt lat="39.7583383670038" lon="9.211426496512559"><ele>390.0</ele><time>2026-04-30T14:20:56.995Z</time></trkpt><trkpt lat="39.75850094699834" lon="9.211436312233822"><ele>384.3333333333333</ele><time>2026-04-30T14:20:57.995Z</time></trkpt><trkpt lat="39.758667059911346" lon="9.211491717844684"><ele>378.66666666666663</ele><time>2026-04-30T14:20:58.995Z</time></trkpt><trkpt lat="39.758842006428054" lon="9.211575560438398"><ele>373.0</ele><time>2026-04-30T14:20:59.995Z</time></trkpt><trkpt lat="39.758991046072346" lon="9.211666340380381"><ele>373.0</ele><time>2026-04-30T14:21:00.995Z</time></trkpt><trkpt lat="39.75911012514362" lon="9.211799660089532"><ele>373.0</ele><time>2026-04-30T14:21:01.995Z</time></trkpt><trkpt lat="39.75919827987571" lon="9.211983418028295"><ele>373.0</ele><time>2026-04-30T14:21:02.995Z</time></trkpt><trkpt lat="39.75925394038666" lon="9.212221838596903"><ele>369.3333333333333</ele><time>2026-04-30T14:21:03.995Z</time></trkpt><trkpt lat="39.75927596388502" lon="9.21248361582919"><ele>365.6666666666667</ele><time>2026-04-30T14:21:04.995Z</time></trkpt><trkpt lat="39.75931447741284" lon="9.212734315807301"><ele>362.0</ele><time>2026-04-30T14:21:05.995Z</time></trkpt><trkpt lat="39.759390443216844" lon="9.212943940558823"><ele>362.0</ele><time>2026-04-30T14:21:06.995Z</time></trkpt><trkpt lat="39.75952838295832" lon="9.213044274669649"><ele>362.0</ele><time>2026-04-30T14:21:07.995Z</time></trkpt><trkpt lat="39.75969695378892" lon="9.213071430612615"><ele>362.0</ele><time>2026-04-30T14:21:08.995Z</time></trkpt><trkpt lat="39.75986944611987" lon="9.21300397053617"><ele>362.0</ele><time>2026-04-30T14:21:09.995Z</time></trkpt><trkpt lat="39.7599841794742" lon="9.212845351855059"><ele>362.0</ele><time>2026-04-30T14:21:10.995Z</time></trkpt><trkpt lat="39.760057562037645" lon="9.212622861500718"><ele>362.0</ele><time>2026-04-30T14:21:11.995Z</time></trkpt><trkpt lat="39.76012681723974" lon="9.212363517495955"><ele>357.0</ele><time>2026-04-30T14:21:12.995Z</time></trkpt><trkpt lat="39.76020291657604" lon="9.212085410833067"><ele>352.0</ele><time>2026-04-30T14:21:13.995Z</time></trkpt><trkpt lat="39.76026871747798" lon="9.211817835458998"><ele>347.0</ele><time>2026-04-30T14:21:14.995Z</time></trkpt><trkpt lat="39.760333039703646" lon="9.211551277189395"><ele>350.0</ele><time>2026-04-30T14:21:15.995Z</time></trkpt><trkpt lat="39.760403534821585" lon="9.211281322583275"><ele>353.0</ele><time>2026-04-30T14:21:16.995Z</time></trkpt><trkpt lat="39.760488539461974" lon="9.211029229917271"><ele>356.0</ele><time>2026-04-30T14:21:17.995Z</time></trkpt><trkpt lat="39.76060781731644" lon="9.210801638737813"><ele>361.0</ele><time>2026-04-30T14:21:18.995Z</time></trkpt><trkpt lat="39.76072404560234" lon="9.210604371574359"><ele>366.0</ele><time>2026-04-30T14:21:19.995Z</time></trkpt><trkpt lat="39.760838464265156" lon="9.210419451289479"><ele>371.0</ele><time>2026-04-30T14:21:20.995Z</time></trkpt><trkpt lat="39.760970674329194" lon="9.210286753261501"><ele>367.6666666666667</ele><time>2026-04-30T14:21:21.995Z</time></trkpt><trkpt lat="39.7611343939363" lon="9.210193917670681"><ele>364.3333333333333</ele><time>2026-04-30T14:21:22.995Z</time></trkpt><trkpt lat="39.76130094659685" lon="9.210139126409041"><ele>361.0</ele><time>2026-04-30T14:21:23.995Z</time></trkpt><trkpt lat="39.76145735720265" lon="9.21016668920675"><ele>361.0</ele><time>2026-04-30T14:21:24.995Z</time></trkpt><trkpt lat="39.76158744670102" lon="9.210280912333978"><ele>361.0</ele><time>2026-04-30T14:21:25.995Z</time></trkpt><trkpt lat="39.76166939678827" lon="9.210473735541841"><ele>361.0</ele><time>2026-04-30T14:21:26.995Z</time></trkpt><trkpt lat="39.76169777642086" lon="9.210703187132898"><ele>358.66666666666663</ele><time>2026-04-30T14:21:27.995Z</time></trkpt><trkpt lat="39.7617131610863" lon="9.210958766224804"><ele>356.3333333333333</ele><time>2026-04-30T14:21:28.995Z</time></trkpt><trkpt lat="39.76174299645809" lon="9.211225338914462"><ele>354.0</ele><time>2026-04-30T14:21:29.995Z</time></trkpt><trkpt lat="39.76177102994579" lon="9.211480577898895"><ele>354.3333333333333</ele><time>2026-04-30T14:21:30.995Z</time></trkpt><trkpt lat="39.76179274014125" lon="9.211734586935437"><ele>354.66666666666663</ele><time>2026-04-30T14:21:31.995Z</time></trkpt><trkpt lat="39.76183254544061" lon="9.21194366485126"><ele>355.0</ele><time>2026-04-30T14:21:32.995Z</time></trkpt><trkpt lat="39.76192872143654" lon="9.212117302693237"><ele>357.66666666666663</ele><time>2026-04-30T14:21:33.995Z</time></trkpt><trkpt lat="39.76207923103268" lon="9.212235926241718"><ele>360.3333333333333</ele><time>2026-04-30T14:21:34.995Z</time></trkpt><trkpt lat="39.762249376288516" lon="9.212318139348703"><ele>363.0</ele><time>2026-04-30T14:21:35.995Z</time></trkpt><trkpt lat="39.762403373002726" lon="9.21244967395095"><ele>363.0</ele><time>2026-04-30T14:21:36.995Z</time></trkpt><trkpt lat="39.76253194071711" lon="9.212633914034962"><ele>363.0</ele><time>2026-04-30T14:21:37.995Z</time></trkpt><trkpt lat="39.76263242585751" lon="9.212858192089493"><ele>363.0</ele><time>2026-04-30T14:21:38.995Z</time></trkpt><trkpt lat="39.76271805214925" lon="9.213092249056693"><ele>367.3333333333333</ele><time>2026-04-30T14:21:39.995Z</time></trkpt><trkpt lat="39.76279931491662" lon="9.213324935684085"><ele>371.66666666666663</ele><time>2026-04-30T14:21:40.995Z</time></trkpt><trkpt lat="39.762873402372996" lon="9.21355230589783"><ele>376.0</ele><time>2026-04-30T14:21:41.995Z</time></trkpt><trkpt lat="39.762920943602666" lon="9.213786548591216"><ele>375.0</ele><time>2026-04-30T14:21:42.995Z</time></trkpt><trkpt lat="39.76293731745343" lon="9.21401345166915"><ele>374.0</ele><time>2026-04-30T14:21:43.995Z</time></trkpt><trkpt lat="39.76293857074846" lon="9.21422784747345"><ele>373.0</ele><time>2026-04-30T14:21:44.995Z</time></trkpt><trkpt lat="39.76295973826147" lon="9.21443854237354"><ele>373.0</ele><time>2026-04-30T14:21:45.995Z</time></trkpt><trkpt lat="39.763014277982464" lon="9.214636559346344"><ele>373.0</ele><time>2026-04-30T14:21:46.995Z</time></trkpt><trkpt lat="39.7630993074123" lon="9.214808847937658"><ele>373.0</ele><time>2026-04-30T14:21:47.995Z</time></trkpt><trkpt lat="39.76319909819148" lon="9.214960166230243"><ele>372.0</ele><time>2026-04-30T14:21:48.995Z</time></trkpt><trkpt lat="39.763293094283945" lon="9.215093455709793"><ele>371.0</ele><time>2026-04-30T14:21:49.995Z</time></trkpt><trkpt lat="39.76337426004866" lon="9.215218747569581"><ele>370.0</ele><time>2026-04-30T14:21:50.995Z</time></trkpt><trkpt lat="39.76344081261179" lon="9.215333646297434"><ele>369.0</ele><time>2026-04-30T14:21:51.995Z</time></trkpt><trkpt lat="39.76350056256486" lon="9.21543416780057"><ele>370.8333333333333</ele><time>2026-04-30T14:21:52.995Z</time></trkpt><trkpt lat="39.76356055719422" lon="9.215512775741672"><ele>372.6666666666667</ele><time>2026-04-30T14:21:53.995Z</time></trkpt><trkpt lat="39.763627558563925" lon="9.215561809589108"><ele>374.5</ele><time>2026-04-30T14:21:54.995Z</time></trkpt><trkpt lat="39.763691494344215" lon="9.215576971729952"><ele>376.33333333333337</ele><time>2026-04-30T14:21:55.995Z</time></trkpt><trkpt lat="39.76379751390889" lon="9.215571194338047"><ele>378.1666666666667</ele><time>2026-04-30T14:21:57.995Z</time></trkpt><trkpt lat="39.76386792075796" lon="9.215550009084156"><ele>380.0</ele><time>2026-04-30T14:21:59.995Z</time></trkpt><trkpt lat="39.76393457328187" lon="9.215487713715525"><ele>380.0</ele><time>2026-04-30T14:23:57.994Z</time></trkpt><trkpt lat="39.76399258748724" lon="9.215455820813087"><ele>380.0</ele><time>2026-04-30T14:23:58.994Z</time></trkpt><trkpt lat="39.764071662689695" lon="9.215434378393107"><ele>380.0</ele><time>2026-04-30T14:23:59.994Z</time></trkpt><trkpt lat="39.7641518798883" lon="9.215415121634946"><ele>380.0</ele><time>2026-04-30T14:24:00.994Z</time></trkpt><trkpt lat="39.76420987812506" lon="9.215353983933603"><ele>380.0</ele><time>2026-04-30T14:24:02.994Z</time></trkpt><trkpt lat="39.764123007645516" lon="9.215271839990814"><ele>380.0</ele><time>2026-04-30T14:24:05.994Z</time></trkpt><trkpt lat="39.76401432602242" lon="9.215281987133359"><ele>380.0</ele><time>2026-04-30T14:24:06.994Z</time></trkpt><trkpt lat="39.76391973308233" lon="9.215259810342415"><ele>380.0</ele><time>2026-04-30T14:24:07.994Z</time></trkpt><trkpt lat="39.76383278885197" lon="9.215240174917215"><ele>380.0</ele><time>2026-04-30T14:24:08.994Z</time></trkpt><trkpt lat="39.763751064998544" lon="9.215252814545947"><ele>380.0</ele><time>2026-04-30T14:24:09.994Z</time></trkpt><trkpt lat="39.76368575445931" lon="9.215306698722657"><ele>380.0</ele><time>2026-04-30T14:24:10.994Z</time></trkpt><trkpt lat="39.76364186471206" lon="9.215375580365286"><ele>380.0</ele><time>2026-04-30T14:24:11.994Z</time></trkpt><trkpt lat="39.76362639923507" lon="9.215455766721252"><ele>380.0</ele><time>2026-04-30T14:24:12.994Z</time></trkpt><trkpt lat="39.76367950638935" lon="9.215556588778293"><ele>380.0</ele><time>2026-04-30T14:24:14.994Z</time></trkpt><trkpt lat="39.76379257972864" lon="9.215542964975608"><ele>380.0</ele><time>2026-04-30T14:24:16.994Z</time></trkpt><trkpt lat="39.76386615039635" lon="9.215508127516166"><ele>380.0</ele><time>2026-04-30T14:24:17.994Z</time></trkpt><trkpt lat="39.76395522057165" lon="9.215480667117667"><ele>380.0</ele><time>2026-04-30T14:24:18.994Z</time></trkpt><trkpt lat="39.76402981146901" lon="9.215449880993198"><ele>380.0</ele><time>2026-04-30T14:24:19.994Z</time></trkpt><trkpt lat="39.76411360774788" lon="9.215417286225806"><ele>380.0</ele><time>2026-04-30T14:24:20.994Z</time></trkpt><trkpt lat="39.76420315110039" lon="9.21538484663272"><ele>380.0</ele><time>2026-04-30T14:24:21.994Z</time></trkpt><trkpt lat="39.76430138623164" lon="9.215348304592494"><ele>380.0</ele><time>2026-04-30T14:24:22.994Z</time></trkpt><trkpt lat="39.76439960435581" lon="9.215307751905963"><ele>380.0</ele><time>2026-04-30T14:24:23.994Z</time></trkpt><trkpt lat="39.76450121688448" lon="9.215270332350668"><ele>380.33333333333337</ele><time>2026-04-30T14:24:24.994Z</time></trkpt><trkpt lat="39.76471393855954" lon="9.215192975076222"><ele>380.6666666666667</ele><time>2026-04-30T14:24:26.994Z</time></trkpt><trkpt lat="39.76481754174379" lon="9.215134804450136"><ele>381.0</ele><time>2026-04-30T14:24:27.994Z</time></trkpt><trkpt lat="39.764917701970596" lon="9.215057045592074"><ele>381.0</ele><time>2026-04-30T14:24:28.994Z</time></trkpt><trkpt lat="39.765008314416164" lon="9.21496021423914"><ele>381.0</ele><time>2026-04-30T14:24:29.994Z</time></trkpt><trkpt lat="39.76509263219801" lon="9.214846135884638"><ele>381.0</ele><time>2026-04-30T14:24:30.994Z</time></trkpt><trkpt lat="39.76516993533355" lon="9.214712264172418"><ele>381.0</ele><time>2026-04-30T14:24:31.994Z</time></trkpt><trkpt lat="39.765229645422075" lon="9.214564612775607"><ele>380.5</ele><time>2026-04-30T14:24:32.994Z</time></trkpt><trkpt lat="39.76527978472848" lon="9.214405030518286"><ele>380.0</ele><time>2026-04-30T14:24:33.994Z</time></trkpt><trkpt lat="39.76532035299999" lon="9.214233453249088"><ele>379.5</ele><time>2026-04-30T14:24:34.994Z</time></trkpt><trkpt lat="39.765364322668205" lon="9.214060996194085"><ele>379.0</ele><time>2026-04-30T14:24:35.994Z</time></trkpt><trkpt lat="39.76540742059221" lon="9.213889213634015"><ele>381.25</ele><time>2026-04-30T14:24:36.994Z</time></trkpt><trkpt lat="39.76544627604194" lon="9.21371573065787"><ele>383.5</ele><time>2026-04-30T14:24:37.994Z</time></trkpt><trkpt lat="39.765484421764164" lon="9.213542227612866"><ele>385.75</ele><time>2026-04-30T14:24:38.994Z</time></trkpt><trkpt lat="39.76552371225282" lon="9.213378631150483"><ele>388.0</ele><time>2026-04-30T14:24:39.993Z</time></trkpt><trkpt lat="39.76556782102179" lon="9.213218840154237"><ele>389.25</ele><time>2026-04-30T14:24:40.993Z</time></trkpt><trkpt lat="39.7656245166502" lon="9.213073565863612"><ele>390.5</ele><time>2026-04-30T14:24:41.993Z</time></trkpt><trkpt lat="39.76569676748097" lon="9.212938239616692"><ele>391.75</ele><time>2026-04-30T14:24:42.993Z</time></trkpt><trkpt lat="39.76578016512459" lon="9.212811221369586"><ele>393.0</ele><time>2026-04-30T14:24:43.993Z</time></trkpt><trkpt lat="39.7658753825008" lon="9.21268521511742"><ele>393.0</ele><time>2026-04-30T14:24:44.993Z</time></trkpt><trkpt lat="39.76598707089794" lon="9.212578600975943"><ele>393.0</ele><time>2026-04-30T14:24:45.993Z</time></trkpt><trkpt lat="39.766099164583" lon="9.21248397141653"><ele>393.0</ele><time>2026-04-30T14:24:46.993Z</time></trkpt><trkpt lat="39.766219994464265" lon="9.212409018955121"><ele>393.0</ele><time>2026-04-30T14:24:47.993Z</time></trkpt><trkpt lat="39.76634400235818" lon="9.212364904260848"><ele>393.0</ele><time>2026-04-30T14:24:48.993Z</time></trkpt><trkpt lat="39.76647503006629" lon="9.212341910532755"><ele>393.0</ele><time>2026-04-30T14:24:49.993Z</time></trkpt><trkpt lat="39.76660802649114" lon="9.212333942519"><ele>393.0</ele><time>2026-04-30T14:24:50.993Z</time></trkpt><trkpt lat="39.76674722129246" lon="9.212335938403362"><ele>393.0</ele><time>2026-04-30T14:24:51.993Z</time></trkpt><trkpt lat="39.766891305109425" lon="9.212326893024436"><ele>397.33333333333337</ele><time>2026-04-30T14:24:52.993Z</time></trkpt><trkpt lat="39.76704231484163" lon="9.212300374131152"><ele>401.6666666666667</ele><time>2026-04-30T14:24:53.993Z</time></trkpt><trkpt lat="39.767190105669805" lon="9.21224111339198"><ele>406.0</ele><time>2026-04-30T14:24:54.993Z</time></trkpt><trkpt lat="39.76737470622212" lon="9.212148480152665"><ele>406.0</ele><time>2026-04-30T14:24:55.993Z</time></trkpt><trkpt lat="39.76758386599329" lon="9.212043276715539"><ele>406.0</ele><time>2026-04-30T14:24:56.993Z</time></trkpt><trkpt lat="39.76779717952554" lon="9.211911239012876"><ele>405.5</ele><time>2026-04-30T14:24:57.993Z</time></trkpt><trkpt lat="39.768017700418156" lon="9.211772408953987"><ele>405.0</ele><time>2026-04-30T14:24:58.993Z</time></trkpt><trkpt lat="39.76824377669021" lon="9.211626280877969"><ele>408.5</ele><time>2026-04-30T14:24:59.993Z</time></trkpt><trkpt lat="39.76847424356566" lon="9.211484247830477"><ele>412.0</ele><time>2026-04-30T14:25:00.993Z</time></trkpt><trkpt lat="39.768698398336646" lon="9.211349185348665"><ele>412.0</ele><time>2026-04-30T14:25:01.993Z</time></trkpt><trkpt lat="39.76891564000507" lon="9.211215085084833"><ele>412.0</ele><time>2026-04-30T14:25:02.993Z</time></trkpt><trkpt lat="39.769127888156454" lon="9.211087336373895"><ele>412.0</ele><time>2026-04-30T14:25:03.993Z</time></trkpt><trkpt lat="39.76933231201481" lon="9.210961636449191"><ele>412.0</ele><time>2026-04-30T14:25:04.993Z</time></trkpt><trkpt lat="39.76953732245028" lon="9.210820260128605"><ele>414.33333333333337</ele><time>2026-04-30T14:25:05.993Z</time></trkpt><trkpt lat="39.76970926559408" lon="9.210656318279316"><ele>416.66666666666663</ele><time>2026-04-30T14:25:06.993Z</time></trkpt><trkpt lat="39.76985597660976" lon="9.210479330576673"><ele>419.0</ele><time>2026-04-30T14:25:07.993Z</time></trkpt><trkpt lat="39.769996526584684" lon="9.210304398271175"><ele>419.0</ele><time>2026-04-30T14:25:08.993Z</time></trkpt><trkpt lat="39.770142591404316" lon="9.210134087244034"><ele>419.0</ele><time>2026-04-30T14:25:09.993Z</time></trkpt><trkpt lat="39.77028676347954" lon="9.209962138095284"><ele>419.0</ele><time>2026-04-30T14:25:10.993Z</time></trkpt><trkpt lat="39.77043067991577" lon="9.209787225584884"><ele>420.66666666666663</ele><time>2026-04-30T14:25:11.993Z</time></trkpt><trkpt lat="39.770576499995784" lon="9.209613258074171"><ele>422.33333333333337</ele><time>2026-04-30T14:25:12.993Z</time></trkpt><trkpt lat="39.77071650930259" lon="9.20944373918172"><ele>424.0</ele><time>2026-04-30T14:25:13.993Z</time></trkpt><trkpt lat="39.770849692988534" lon="9.209287947689806"><ele>424.0</ele><time>2026-04-30T14:25:14.993Z</time></trkpt><trkpt lat="39.770980425795024" lon="9.20913020552568"><ele>424.0</ele><time>2026-04-30T14:25:15.993Z</time></trkpt><trkpt lat="39.77110643951224" lon="9.208972509704486"><ele>424.0</ele><time>2026-04-30T14:25:16.993Z</time></trkpt><trkpt lat="39.77123989071102" lon="9.20880182131664"><ele>428.33333333333337</ele><time>2026-04-30T14:25:17.993Z</time></trkpt><trkpt lat="39.77135501578809" lon="9.208623755211304"><ele>432.66666666666663</ele><time>2026-04-30T14:25:18.993Z</time></trkpt><trkpt lat="39.77142733995008" lon="9.208408631307329"><ele>437.0</ele><time>2026-04-30T14:25:19.993Z</time></trkpt><trkpt lat="39.77146599968165" lon="9.208178483052297"><ele>440.0</ele><time>2026-04-30T14:25:20.993Z</time></trkpt><trkpt lat="39.77145054271467" lon="9.207938575255593"><ele>443.0</ele><time>2026-04-30T14:25:21.993Z</time></trkpt><trkpt lat="39.77138937548157" lon="9.207701291990727"><ele>446.0</ele><time>2026-04-30T14:25:22.993Z</time></trkpt><trkpt lat="39.7713002011975" lon="9.207473276880403"><ele>449.0</ele><time>2026-04-30T14:25:23.993Z</time></trkpt><trkpt lat="39.77121026187202" lon="9.207239861152416"><ele>452.0</ele><time>2026-04-30T14:25:24.993Z</time></trkpt><trkpt lat="39.77113528073364" lon="9.206999115722414"><ele>455.0</ele><time>2026-04-30T14:25:25.993Z</time></trkpt><trkpt lat="39.771107555089465" lon="9.206756954673184"><ele>455.0</ele><time>2026-04-30T14:25:26.993Z</time></trkpt><trkpt lat="39.77112615741614" lon="9.206507254083022"><ele>455.0</ele><time>2026-04-30T14:25:27.993Z</time></trkpt><trkpt lat="39.771170171928475" lon="9.2062811373319"><ele>455.0</ele><time>2026-04-30T14:25:28.993Z</time></trkpt><trkpt lat="39.771236286109364" lon="9.206063878660473"><ele>457.0</ele><time>2026-04-30T14:25:29.993Z</time></trkpt><trkpt lat="39.77130198590651" lon="9.205830128172988"><ele>459.0</ele><time>2026-04-30T14:25:30.993Z</time></trkpt><trkpt lat="39.771346275979106" lon="9.20561157908281"><ele>461.0</ele><time>2026-04-30T14:25:31.993Z</time></trkpt><trkpt lat="39.77134658853217" lon="9.205395924443433"><ele>465.3333333333333</ele><time>2026-04-30T14:25:32.993Z</time></trkpt><trkpt lat="39.7713022601515" lon="9.20521129651383"><ele>469.66666666666663</ele><time>2026-04-30T14:25:33.993Z</time></trkpt><trkpt lat="39.77121042784339" lon="9.205051938254035"><ele>474.0</ele><time>2026-04-30T14:25:34.993Z</time></trkpt><trkpt lat="39.77107707541295" lon="9.204918400803992"><ele>470.0</ele><time>2026-04-30T14:25:35.993Z</time></trkpt><trkpt lat="39.77094980401763" lon="9.204789706164076"><ele>466.0</ele><time>2026-04-30T14:25:36.993Z</time></trkpt><trkpt lat="39.770885439647856" lon="9.20463611192923"><ele>462.0</ele><time>2026-04-30T14:25:37.993Z</time></trkpt><trkpt lat="39.77088274606017" lon="9.204490187937408"><ele>458.0</ele><time>2026-04-30T14:25:38.993Z</time></trkpt><trkpt lat="39.7709311503357" lon="9.204389963178434"><ele>458.0</ele><time>2026-04-30T14:25:39.993Z</time></trkpt><trkpt lat="39.77101532784584" lon="9.204352600225294"><ele>457.99999999999994</ele><time>2026-04-30T14:25:40.993Z</time></trkpt><trkpt lat="39.77111218653522" lon="9.204390742699207"><ele>457.99999999999994</ele><time>2026-04-30T14:25:41.993Z</time></trkpt><trkpt lat="39.7712055536835" lon="9.204483519432646"><ele>458.0</ele><time>2026-04-30T14:25:42.993Z</time></trkpt><trkpt lat="39.77128871359935" lon="9.204621068914257"><ele>458.0</ele><time>2026-04-30T14:25:43.993Z</time></trkpt><trkpt lat="39.77138253037275" lon="9.204768237301636"><ele>463.3333333333333</ele><time>2026-04-30T14:25:44.993Z</time></trkpt><trkpt lat="39.77148643396084" lon="9.204916471167031"><ele>468.66666666666663</ele><time>2026-04-30T14:25:45.993Z</time></trkpt><trkpt lat="39.77159322472501" lon="9.205067876925131"><ele>474.0</ele><time>2026-04-30T14:25:46.993Z</time></trkpt><trkpt lat="39.77170653989513" lon="9.205234741496922"><ele>474.0</ele><time>2026-04-30T14:25:47.993Z</time></trkpt><trkpt lat="39.77182375406117" lon="9.205396646819816"><ele>474.0</ele><time>2026-04-30T14:25:48.993Z</time></trkpt><trkpt lat="39.77193574461802" lon="9.205559720971463"><ele>474.0</ele><time>2026-04-30T14:25:49.993Z</time></trkpt><trkpt lat="39.772042073277774" lon="9.205735928948696"><ele>477.33333333333337</ele><time>2026-04-30T14:25:50.993Z</time></trkpt><trkpt lat="39.772133061145944" lon="9.205912382786067"><ele>480.6666666666667</ele><time>2026-04-30T14:25:51.993Z</time></trkpt><trkpt lat="39.77223543082062" lon="9.20607587675034"><ele>484.0</ele><time>2026-04-30T14:25:52.993Z</time></trkpt><trkpt lat="39.77234701963324" lon="9.206224635965285"><ele>484.0</ele><time>2026-04-30T14:25:53.993Z</time></trkpt><trkpt lat="39.77245625191966" lon="9.206380993355056"><ele>484.0</ele><time>2026-04-30T14:25:54.993Z</time></trkpt><trkpt lat="39.772554896364234" lon="9.206543866117684"><ele>484.0</ele><time>2026-04-30T14:25:55.993Z</time></trkpt><trkpt lat="39.7726645408036" lon="9.206702622711173"><ele>491.0</ele><time>2026-04-30T14:25:56.993Z</time></trkpt><trkpt lat="39.772781729650994" lon="9.206846900809953"><ele>498.0</ele><time>2026-04-30T14:25:57.993Z</time></trkpt><trkpt lat="39.77291575471427" lon="9.206982332780214"><ele>505.0</ele><time>2026-04-30T14:25:58.993Z</time></trkpt><trkpt lat="39.77305097557866" lon="9.207113095167722"><ele>505.0</ele><time>2026-04-30T14:25:59.993Z</time></trkpt><trkpt lat="39.77318442961609" lon="9.2072403784524"><ele>505.0</ele><time>2026-04-30T14:26:00.993Z</time></trkpt><trkpt lat="39.77331722713793" lon="9.207358915648152"><ele>505.0</ele><time>2026-04-30T14:26:01.993Z</time></trkpt><trkpt lat="39.77343225052252" lon="9.207468391467653"><ele>507.75</ele><time>2026-04-30T14:26:02.993Z</time></trkpt><trkpt lat="39.77353740915346" lon="9.2075773114821"><ele>510.5</ele><time>2026-04-30T14:26:03.993Z</time></trkpt><trkpt lat="39.77364660796486" lon="9.207661528404593"><ele>513.25</ele><time>2026-04-30T14:26:04.993Z</time></trkpt><trkpt lat="39.77377823157533" lon="9.20772589688146"><ele>516.0</ele><time>2026-04-30T14:26:05.993Z</time></trkpt><trkpt lat="39.773925387967935" lon="9.207782968206711"><ele>516.0</ele><time>2026-04-30T14:26:06.993Z</time></trkpt><trkpt lat="39.77408508638794" lon="9.207841936071928"><ele>516.0</ele><time>2026-04-30T14:26:07.993Z</time></trkpt><trkpt lat="39.77423087617116" lon="9.207915623467484"><ele>516.0</ele><time>2026-04-30T14:26:08.993Z</time></trkpt><trkpt lat="39.77435056389676" lon="9.20802673999188"><ele>520.0</ele><time>2026-04-30T14:26:09.993Z</time></trkpt><trkpt lat="39.77444444121178" lon="9.208170503571878"><ele>524.0</ele><time>2026-04-30T14:26:10.993Z</time></trkpt><trkpt lat="39.77448548072329" lon="9.208365632228423"><ele>528.0</ele><time>2026-04-30T14:26:11.993Z</time></trkpt><trkpt lat="39.77447855590156" lon="9.208589480038555"><ele>528.0</ele><time>2026-04-30T14:26:12.993Z</time></trkpt><trkpt lat="39.77446794431813" lon="9.208813949109707"><ele>528.0</ele><time>2026-04-30T14:26:13.993Z</time></trkpt><trkpt lat="39.77446798708816" lon="9.209059546518018"><ele>528.0</ele><time>2026-04-30T14:26:14.993Z</time></trkpt><trkpt lat="39.7744589313738" lon="9.209315955975192"><ele>530.0</ele><time>2026-04-30T14:26:15.993Z</time></trkpt><trkpt lat="39.77445573735196" lon="9.209576878339554"><ele>532.0</ele><time>2026-04-30T14:26:16.993Z</time></trkpt><trkpt lat="39.774460255370954" lon="9.209847238779757"><ele>534.0</ele><time>2026-04-30T14:26:17.993Z</time></trkpt><trkpt lat="39.774453908945546" lon="9.210125698798796"><ele>536.0</ele><time>2026-04-30T14:26:18.993Z</time></trkpt><trkpt lat="39.77444786362719" lon="9.210403470482774"><ele>538.0</ele><time>2026-04-30T14:26:19.993Z</time></trkpt><trkpt lat="39.7744404688672" lon="9.210674959677215"><ele>540.0</ele><time>2026-04-30T14:26:20.993Z</time></trkpt><trkpt lat="39.77443216069437" lon="9.210921181728454"><ele>540.0</ele><time>2026-04-30T14:26:21.993Z</time></trkpt><trkpt lat="39.77442687964655" lon="9.211140636494113"><ele>540.0</ele><time>2026-04-30T14:26:22.993Z</time></trkpt><trkpt lat="39.774457137271376" lon="9.211352676864747"><ele>540.0</ele><time>2026-04-30T14:26:23.993Z</time></trkpt><trkpt lat="39.77451578476955" lon="9.211553092248911"><ele>536.6666666666666</ele><time>2026-04-30T14:26:24.993Z</time></trkpt><trkpt lat="39.774612607703425" lon="9.21171224289741"><ele>533.3333333333333</ele><time>2026-04-30T14:26:25.993Z</time></trkpt><trkpt lat="39.77475270376984" lon="9.21184107874377"><ele>530.0</ele><time>2026-04-30T14:26:26.993Z</time></trkpt><trkpt lat="39.774915039106915" lon="9.211910367542647"><ele>530.0</ele><time>2026-04-30T14:26:27.993Z</time></trkpt><trkpt lat="39.77508933801916" lon="9.21193586279933"><ele>530.0</ele><time>2026-04-30T14:26:28.993Z</time></trkpt><trkpt lat="39.77526161611299" lon="9.211942586083602"><ele>530.0</ele><time>2026-04-30T14:26:29.993Z</time></trkpt><trkpt lat="39.77544893519484" lon="9.21194638228945"><ele>534.0</ele><time>2026-04-30T14:26:30.993Z</time></trkpt><trkpt lat="39.77564093192045" lon="9.211954943292326"><ele>538.0</ele><time>2026-04-30T14:26:31.993Z</time></trkpt><trkpt lat="39.77584227201032" lon="9.211971088469799"><ele>542.0</ele><time>2026-04-30T14:26:32.993Z</time></trkpt><trkpt lat="39.77603953086562" lon="9.211977325810352"><ele>547.3333333333333</ele><time>2026-04-30T14:26:33.993Z</time></trkpt><trkpt lat="39.77624597099125" lon="9.212000356574773"><ele>552.6666666666666</ele><time>2026-04-30T14:26:34.993Z</time></trkpt><trkpt lat="39.77644647454303" lon="9.212055941351553"><ele>558.0</ele><time>2026-04-30T14:26:35.993Z</time></trkpt><trkpt lat="39.776641814421865" lon="9.212129496763113"><ele>558.0</ele><time>2026-04-30T14:26:36.993Z</time></trkpt><trkpt lat="39.7768324625369" lon="9.212237204766781"><ele>558.0</ele><time>2026-04-30T14:26:37.993Z</time></trkpt><trkpt lat="39.777024391256596" lon="9.212342799403755"><ele>558.0</ele><time>2026-04-30T14:26:38.993Z</time></trkpt><trkpt lat="39.77721682008877" lon="9.212444202896954"><ele>557.0</ele><time>2026-04-30T14:26:39.993Z</time></trkpt><trkpt lat="39.7774105567905" lon="9.212545245416159"><ele>556.0</ele><time>2026-04-30T14:26:40.993Z</time></trkpt><trkpt lat="39.777588751398945" lon="9.212646849510506"><ele>555.0</ele><time>2026-04-30T14:26:41.993Z</time></trkpt><trkpt lat="39.77774151122564" lon="9.2127500450982"><ele>561.6666666666666</ele><time>2026-04-30T14:26:42.993Z</time></trkpt><trkpt lat="39.777873610417124" lon="9.212871781448278"><ele>568.3333333333333</ele><time>2026-04-30T14:26:43.993Z</time></trkpt><trkpt lat="39.77798845667645" lon="9.213004832337054"><ele>575.0</ele><time>2026-04-30T14:26:44.992Z</time></trkpt><trkpt lat="39.77808675449175" lon="9.213147062291817"><ele>572.75</ele><time>2026-04-30T14:26:45.992Z</time></trkpt><trkpt lat="39.778133502375056" lon="9.213312017450097"><ele>570.5</ele><time>2026-04-30T14:26:46.992Z</time></trkpt><trkpt lat="39.778145764858834" lon="9.213488641052932"><ele>568.25</ele><time>2026-04-30T14:26:47.992Z</time></trkpt><trkpt lat="39.77814911556985" lon="9.213651193024186"><ele>566.0</ele><time>2026-04-30T14:26:48.992Z</time></trkpt><trkpt lat="39.77816206173006" lon="9.213810042018892"><ele>566.0</ele><time>2026-04-30T14:26:49.992Z</time></trkpt><trkpt lat="39.77820087177238" lon="9.213950307686765"><ele>566.0</ele><time>2026-04-30T14:26:50.992Z</time></trkpt><trkpt lat="39.77824587605046" lon="9.214072705330418"><ele>566.0</ele><time>2026-04-30T14:26:51.992Z</time></trkpt><trkpt lat="39.77828242823379" lon="9.214180783083101"><ele>566.0</ele><time>2026-04-30T14:26:52.992Z</time></trkpt><trkpt lat="39.778320047161095" lon="9.214276369727468"><ele>566.0</ele><time>2026-04-30T14:26:53.992Z</time></trkpt><trkpt lat="39.778351344432316" lon="9.21437531665952"><ele>565.6666666666666</ele><time>2026-04-30T14:26:54.992Z</time></trkpt><trkpt lat="39.77840358147883" lon="9.214454727914484"><ele>565.3333333333333</ele><time>2026-04-30T14:26:55.992Z</time></trkpt><trkpt lat="39.77846077913315" lon="9.214506865417905"><ele>565.0</ele><time>2026-04-30T14:26:56.992Z</time></trkpt><trkpt lat="39.778519247951806" lon="9.214540243579867"><ele>564.6666666666666</ele><time>2026-04-30T14:26:57.992Z</time></trkpt><trkpt lat="39.77860288118219" lon="9.214580322148121"><ele>564.3333333333334</ele><time>2026-04-30T14:26:58.992Z</time></trkpt><trkpt lat="39.77867760593109" lon="9.214631227337978"><ele>564.0</ele><time>2026-04-30T14:26:59.992Z</time></trkpt><trkpt lat="39.778795752068135" lon="9.214701120879736"><ele>564.7142857142858</ele><time>2026-04-30T14:27:01.992Z</time></trkpt><trkpt lat="39.77885724512047" lon="9.214739776123682"><ele>565.4285714285714</ele><time>2026-04-30T14:27:02.992Z</time></trkpt><trkpt lat="39.7789188590844" lon="9.214783793292836"><ele>566.1428571428571</ele><time>2026-04-30T14:27:03.992Z</time></trkpt><trkpt lat="39.778979453630456" lon="9.214834284516742"><ele>566.8571428571429</ele><time>2026-04-30T14:27:04.992Z</time></trkpt><trkpt lat="39.7790373804945" lon="9.214880118058922"><ele>567.5714285714286</ele><time>2026-04-30T14:27:05.992Z</time></trkpt><trkpt lat="39.7790929018148" lon="9.214920607389915"><ele>568.2857142857143</ele><time>2026-04-30T14:27:06.992Z</time></trkpt><trkpt lat="39.779155855638514" lon="9.214952623744109"><ele>569.0</ele><time>2026-04-30T14:27:07.992Z</time></trkpt><trkpt lat="39.77921783368851" lon="9.214987894809509"><ele>569.0</ele><time>2026-04-30T14:27:08.992Z</time></trkpt><trkpt lat="39.779332447597895" lon="9.215067355949577"><ele>569.0</ele><time>2026-04-30T14:27:10.992Z</time></trkpt><trkpt lat="39.77943522549551" lon="9.215153277405957"><ele>569.0</ele><time>2026-04-30T14:27:12.992Z</time></trkpt><trkpt lat="39.77948847710598" lon="9.215208550739707"><ele>569.0</ele><time>2026-04-30T14:27:13.992Z</time></trkpt><trkpt lat="39.77957911817732" lon="9.2152971052318"><ele>569.0</ele><time>2026-04-30T14:27:15.992Z</time></trkpt><trkpt lat="39.779688884394275" lon="9.215306339188077"><ele>569.6666666666666</ele><time>2026-04-30T14:27:17.992Z</time></trkpt><trkpt lat="39.77975789962567" lon="9.215256049424703"><ele>570.3333333333333</ele><time>2026-04-30T14:27:19.992Z</time></trkpt><trkpt lat="39.77983011591328" lon="9.215212525662183"><ele>571.0</ele><time>2026-04-30T14:27:21.992Z</time></trkpt><trkpt lat="39.77990295591652" lon="9.215191373519128"><ele>571.6666666666666</ele><time>2026-04-30T14:27:25.992Z</time></trkpt><trkpt lat="39.779974748078594" lon="9.215169976869877"><ele>572.3333333333334</ele><time>2026-04-30T14:27:28.992Z</time></trkpt><trkpt lat="39.780070019469115" lon="9.215132143629376"><ele>573.0</ele><time>2026-04-30T14:27:31.992Z</time></trkpt><trkpt lat="39.7801449428465" lon="9.215094908304582"><ele>573.0</ele><time>2026-04-30T14:27:33.992Z</time></trkpt><trkpt lat="39.78023461549842" lon="9.21505236802411"><ele>573.0</ele><time>2026-04-30T14:27:35.992Z</time></trkpt><trkpt lat="39.780336304848326" lon="9.215003244598742"><ele>573.0</ele><time>2026-04-30T14:27:37.992Z</time></trkpt><trkpt lat="39.78039648839328" lon="9.214969648360208"><ele>573.0</ele><time>2026-04-30T14:27:38.992Z</time></trkpt><trkpt lat="39.78049725888573" lon="9.214888568919655"><ele>573.0</ele><time>2026-04-30T14:27:40.992Z</time></trkpt><trkpt lat="39.78057976510614" lon="9.214804621050884"><ele>573.0</ele><time>2026-04-30T14:27:42.992Z</time></trkpt><trkpt lat="39.780646950055306" lon="9.214731709858302"><ele>573.0</ele><time>2026-04-30T14:27:44.992Z</time></trkpt><trkpt lat="39.78073013904503" lon="9.214658444270245"><ele>573.0</ele><time>2026-04-30T14:27:46.992Z</time></trkpt><trkpt lat="39.780810252225" lon="9.214575544600786"><ele>573.0</ele><time>2026-04-30T14:27:48.992Z</time></trkpt><trkpt lat="39.780876327695154" lon="9.214454170537756"><ele>573.0</ele><time>2026-04-30T14:27:50.992Z</time></trkpt><trkpt lat="39.780946711711245" lon="9.214323736830243"><ele>573.0</ele><time>2026-04-30T14:27:52.992Z</time></trkpt><trkpt lat="39.78097250055497" lon="9.214247933178841"><ele>573.0</ele><time>2026-04-30T14:27:53.992Z</time></trkpt><trkpt lat="39.78101440987412" lon="9.214173122541819"><ele>573.0</ele><time>2026-04-30T14:27:54.992Z</time></trkpt><trkpt lat="39.78105585491349" lon="9.21409778162983"><ele>573.0</ele><time>2026-04-30T14:27:55.992Z</time></trkpt><trkpt lat="39.78109856577502" lon="9.21401656381724"><ele>573.0</ele><time>2026-04-30T14:27:56.992Z</time></trkpt><trkpt lat="39.78113702472115" lon="9.213930433007409"><ele>573.0</ele><time>2026-04-30T14:27:57.992Z</time></trkpt><trkpt lat="39.78118556690554" lon="9.21384642958951"><ele>573.0</ele><time>2026-04-30T14:27:58.992Z</time></trkpt><trkpt lat="39.78126151747336" lon="9.213795430852045"><ele>573.4</ele><time>2026-04-30T14:27:59.992Z</time></trkpt><trkpt lat="39.78134288831988" lon="9.213743330546649"><ele>573.8</ele><time>2026-04-30T14:28:00.992Z</time></trkpt><trkpt lat="39.78141903513269" lon="9.213691837662294"><ele>574.2</ele><time>2026-04-30T14:28:01.992Z</time></trkpt><trkpt lat="39.78151588250221" lon="9.21367397965758"><ele>574.6</ele><time>2026-04-30T14:28:02.992Z</time></trkpt><trkpt lat="39.78161221807897" lon="9.213716066222013"><ele>575.0</ele><time>2026-04-30T14:28:03.992Z</time></trkpt><trkpt lat="39.78169047133381" lon="9.213777693040239"><ele>575.0</ele><time>2026-04-30T14:28:04.992Z</time></trkpt><trkpt lat="39.781761528176446" lon="9.213818475865567"><ele>575.0</ele><time>2026-04-30T14:28:05.992Z</time></trkpt><trkpt lat="39.78183852650643" lon="9.213803493916457"><ele>575.0</ele><time>2026-04-30T14:28:06.992Z</time></trkpt><trkpt lat="39.78191811968121" lon="9.213746623543555"><ele>575.0</ele><time>2026-04-30T14:28:07.992Z</time></trkpt><trkpt lat="39.78198925456301" lon="9.213653743971312"><ele>575.0</ele><time>2026-04-30T14:28:08.992Z</time></trkpt><trkpt lat="39.78205246368025" lon="9.213536539540394"><ele>575.2</ele><time>2026-04-30T14:28:09.992Z</time></trkpt><trkpt lat="39.782107373400365" lon="9.213422769335308"><ele>575.4</ele><time>2026-04-30T14:28:10.992Z</time></trkpt><trkpt lat="39.782167208520846" lon="9.213320013902155"><ele>575.6</ele><time>2026-04-30T14:28:11.992Z</time></trkpt><trkpt lat="39.78222720871062" lon="9.213211271920954"><ele>575.8</ele><time>2026-04-30T14:28:12.992Z</time></trkpt><trkpt lat="39.782286523960444" lon="9.213093753235743"><ele>576.0</ele><time>2026-04-30T14:28:13.992Z</time></trkpt><trkpt lat="39.78234592040398" lon="9.212978457941498"><ele>576.8</ele><time>2026-04-30T14:28:14.992Z</time></trkpt><trkpt lat="39.78241195099815" lon="9.21286433617724"><ele>577.6</ele><time>2026-04-30T14:28:15.992Z</time></trkpt><trkpt lat="39.7824751796365" lon="9.212751251291516"><ele>578.4</ele><time>2026-04-30T14:28:16.992Z</time></trkpt><trkpt lat="39.78254741691182" lon="9.212644776670663"><ele>579.2</ele><time>2026-04-30T14:28:17.992Z</time></trkpt><trkpt lat="39.78262254568348" lon="9.212551369783244"><ele>580.0</ele><time>2026-04-30T14:28:18.992Z</time></trkpt><trkpt lat="39.78271143720594" lon="9.212472656437171"><ele>580.8</ele><time>2026-04-30T14:28:19.992Z</time></trkpt><trkpt lat="39.78280630484711" lon="9.212433290192678"><ele>581.6</ele><time>2026-04-30T14:28:20.992Z</time></trkpt><trkpt lat="39.78290599420928" lon="9.212395808764102"><ele>582.4</ele><time>2026-04-30T14:28:21.992Z</time></trkpt><trkpt lat="39.78300052707795" lon="9.212348278544647"><ele>583.2</ele><time>2026-04-30T14:28:22.992Z</time></trkpt><trkpt lat="39.78308737749604" lon="9.21228643645955"><ele>584.0</ele><time>2026-04-30T14:28:23.992Z</time></trkpt><trkpt lat="39.78317444142114" lon="9.212204141486051"><ele>584.5</ele><time>2026-04-30T14:28:24.992Z</time></trkpt><trkpt lat="39.783265631315004" lon="9.212107135955838"><ele>585.0</ele><time>2026-04-30T14:28:25.992Z</time></trkpt><trkpt lat="39.7833542908528" lon="9.212003473327973"><ele>585.5</ele><time>2026-04-30T14:28:26.992Z</time></trkpt><trkpt lat="39.783446459519396" lon="9.211897689949028"><ele>586.0</ele><time>2026-04-30T14:28:27.992Z</time></trkpt><trkpt lat="39.78353775130435" lon="9.21179898915768"><ele>586.75</ele><time>2026-04-30T14:28:28.992Z</time></trkpt><trkpt lat="39.7836277430673" lon="9.211697848669338"><ele>587.5</ele><time>2026-04-30T14:28:29.992Z</time></trkpt><trkpt lat="39.78372735097841" lon="9.21159618939249"><ele>588.25</ele><time>2026-04-30T14:28:30.992Z</time></trkpt><trkpt lat="39.783826487093464" lon="9.211485634186431"><ele>589.0</ele><time>2026-04-30T14:28:31.992Z</time></trkpt><trkpt lat="39.78393031827374" lon="9.211374378862727"><ele>589.25</ele><time>2026-04-30T14:28:32.992Z</time></trkpt><trkpt lat="39.784031596008276" lon="9.211250165971277"><ele>589.5</ele><time>2026-04-30T14:28:33.992Z</time></trkpt><trkpt lat="39.78414367836409" lon="9.21114098641512"><ele>589.75</ele><time>2026-04-30T14:28:34.992Z</time></trkpt><trkpt lat="39.78425425787923" lon="9.21102329202286"><ele>590.0</ele><time>2026-04-30T14:28:35.992Z</time></trkpt><trkpt lat="39.78436090743401" lon="9.210893953281394"><ele>591.0</ele><time>2026-04-30T14:28:36.992Z</time></trkpt><trkpt lat="39.78446136148991" lon="9.210768304954241"><ele>592.0</ele><time>2026-04-30T14:28:37.992Z</time></trkpt><trkpt lat="39.784560254290376" lon="9.210652919831693"><ele>593.0</ele><time>2026-04-30T14:28:38.992Z</time></trkpt><trkpt lat="39.78464752356191" lon="9.210553354129143"><ele>594.0</ele><time>2026-04-30T14:28:39.992Z</time></trkpt><trkpt lat="39.78472525359293" lon="9.210455328025148"><ele>594.25</ele><time>2026-04-30T14:28:40.992Z</time></trkpt><trkpt lat="39.78480782119344" lon="9.210349814809023"><ele>594.5</ele><time>2026-04-30T14:28:41.992Z</time></trkpt><trkpt lat="39.78490100887933" lon="9.210239278055852"><ele>594.75</ele><time>2026-04-30T14:28:42.992Z</time></trkpt><trkpt lat="39.784998875487695" lon="9.210119204130011"><ele>595.0</ele><time>2026-04-30T14:28:43.992Z</time></trkpt><trkpt lat="39.78509949410869" lon="9.209983022756639"><ele>595.75</ele><time>2026-04-30T14:28:44.992Z</time></trkpt><trkpt lat="39.78520133339648" lon="9.209852807211691"><ele>596.5</ele><time>2026-04-30T14:28:45.992Z</time></trkpt><trkpt lat="39.7853102536715" lon="9.20972718692253"><ele>597.25</ele><time>2026-04-30T14:28:46.992Z</time></trkpt><trkpt lat="39.78541950519393" lon="9.209589605361183"><ele>598.0</ele><time>2026-04-30T14:28:47.992Z</time></trkpt><trkpt lat="39.78552659850804" lon="9.209440604005819"><ele>598.6666666666667</ele><time>2026-04-30T14:28:48.991Z</time></trkpt><trkpt lat="39.785642531090836" lon="9.20929605547263"><ele>599.3333333333334</ele><time>2026-04-30T14:28:49.991Z</time></trkpt><trkpt lat="39.78576081876271" lon="9.20915063577662"><ele>600.0</ele><time>2026-04-30T14:28:50.991Z</time></trkpt><trkpt lat="39.78588067718028" lon="9.208999220184817"><ele>601.0</ele><time>2026-04-30T14:28:51.991Z</time></trkpt><trkpt lat="39.78599966952076" lon="9.208842438612937"><ele>602.0</ele><time>2026-04-30T14:28:52.991Z</time></trkpt><trkpt lat="39.78612246032048" lon="9.208684208840145"><ele>603.0</ele><time>2026-04-30T14:28:53.991Z</time></trkpt><trkpt lat="39.78624403940614" lon="9.208520963240717"><ele>604.3333333333334</ele><time>2026-04-30T14:28:54.991Z</time></trkpt><trkpt lat="39.78636788533034" lon="9.208358225818188"><ele>605.6666666666667</ele><time>2026-04-30T14:28:55.991Z</time></trkpt><trkpt lat="39.78649162327471" lon="9.208189156326524"><ele>607.0</ele><time>2026-04-30T14:28:56.991Z</time></trkpt><trkpt lat="39.786617064821854" lon="9.208020912393147"><ele>607.0</ele><time>2026-04-30T14:28:57.991Z</time></trkpt><trkpt lat="39.786745540251054" lon="9.20784803090543"><ele>607.0</ele><time>2026-04-30T14:28:58.991Z</time></trkpt><trkpt lat="39.78685869838913" lon="9.20766475112824"><ele>607.0</ele><time>2026-04-30T14:28:59.991Z</time></trkpt><trkpt lat="39.78696343829315" lon="9.207458143675794"><ele>609.3333333333334</ele><time>2026-04-30T14:29:00.991Z</time></trkpt><trkpt lat="39.78707473211545" lon="9.20724989899984"><ele>611.6666666666666</ele><time>2026-04-30T14:29:01.991Z</time></trkpt><trkpt lat="39.78718639325721" lon="9.207039436246847"><ele>614.0</ele><time>2026-04-30T14:29:02.991Z</time></trkpt><trkpt lat="39.787298323677305" lon="9.206828725865813"><ele>614.0</ele><time>2026-04-30T14:29:03.991Z</time></trkpt><trkpt lat="39.787424742282305" lon="9.206625750323063"><ele>614.0</ele><time>2026-04-30T14:29:04.991Z</time></trkpt><trkpt lat="39.78753899395289" lon="9.206418270427209"><ele>614.0</ele><time>2026-04-30T14:29:05.991Z</time></trkpt><trkpt lat="39.7876563222094" lon="9.206199891390362"><ele>615.6666666666666</ele><time>2026-04-30T14:29:06.991Z</time></trkpt><trkpt lat="39.787777717301246" lon="9.205972301427284"><ele>617.3333333333334</ele><time>2026-04-30T14:29:07.991Z</time></trkpt><trkpt lat="39.787902319612336" lon="9.205743353651066"><ele>619.0</ele><time>2026-04-30T14:29:08.991Z</time></trkpt><trkpt lat="39.788030915176826" lon="9.205514000596114"><ele>619.0</ele><time>2026-04-30T14:29:09.991Z</time></trkpt><trkpt lat="39.78814701331019" lon="9.205284334073006"><ele>619.0</ele><time>2026-04-30T14:29:10.991Z</time></trkpt><trkpt lat="39.78824744472434" lon="9.205044425240324"><ele>619.0</ele><time>2026-04-30T14:29:11.991Z</time></trkpt><trkpt lat="39.78833181648172" lon="9.204796266612329"><ele>619.6666666666667</ele><time>2026-04-30T14:29:12.991Z</time></trkpt><trkpt lat="39.78839367066898" lon="9.20454049225722"><ele>620.3333333333334</ele><time>2026-04-30T14:29:13.991Z</time></trkpt><trkpt lat="39.788435273157326" lon="9.204269267988636"><ele>621.0</ele><time>2026-04-30T14:29:14.991Z</time></trkpt><trkpt lat="39.78844922985291" lon="9.203990185690063"><ele>622.0</ele><time>2026-04-30T14:29:15.991Z</time></trkpt><trkpt lat="39.788458688875" lon="9.203701254166859"><ele>623.0</ele><time>2026-04-30T14:29:16.991Z</time></trkpt><trkpt lat="39.788452730391" lon="9.203413956132"><ele>624.0</ele><time>2026-04-30T14:29:17.991Z</time></trkpt><trkpt lat="39.788434547964904" lon="9.203129121438318"><ele>626.0</ele><time>2026-04-30T14:29:18.991Z</time></trkpt><trkpt lat="39.78841542657176" lon="9.202844958353273"><ele>628.0</ele><time>2026-04-30T14:29:19.991Z</time></trkpt><trkpt lat="39.78840070992938" lon="9.202569812330546"><ele>630.0</ele><time>2026-04-30T14:29:20.991Z</time></trkpt><trkpt lat="39.78838927376888" lon="9.202284391365502"><ele>632.3333333333334</ele><time>2026-04-30T14:29:21.991Z</time></trkpt><trkpt lat="39.78837762428334" lon="9.202003125073512"><ele>634.6666666666667</ele><time>2026-04-30T14:29:22.991Z</time></trkpt><trkpt lat="39.788367245956465" lon="9.201720519292182"><ele>637.0</ele><time>2026-04-30T14:29:23.991Z</time></trkpt><trkpt lat="39.7883565664347" lon="9.201436748562761"><ele>638.0</ele><time>2026-04-30T14:29:24.991Z</time></trkpt><trkpt lat="39.78834144286097" lon="9.201151358754858"><ele>639.0</ele><time>2026-04-30T14:29:25.991Z</time></trkpt><trkpt lat="39.7883291470153" lon="9.200869394704542"><ele>640.0</ele><time>2026-04-30T14:29:26.991Z</time></trkpt><trkpt lat="39.7883174418225" lon="9.200584034572909"><ele>641.3333333333334</ele><time>2026-04-30T14:29:27.991Z</time></trkpt><trkpt lat="39.788295248832334" lon="9.200299681803104"><ele>642.6666666666666</ele><time>2026-04-30T14:29:28.991Z</time></trkpt><trkpt lat="39.788246979943416" lon="9.20001621846269"><ele>644.0</ele><time>2026-04-30T14:29:29.991Z</time></trkpt><trkpt lat="39.78817966245667" lon="9.199735365745418"><ele>647.0</ele><time>2026-04-30T14:29:30.991Z</time></trkpt><trkpt lat="39.78809843422502" lon="9.199476779094676"><ele>650.0</ele><time>2026-04-30T14:29:31.991Z</time></trkpt><trkpt lat="39.78801305912762" lon="9.199213579287568"><ele>653.0</ele><time>2026-04-30T14:29:32.991Z</time></trkpt><trkpt lat="39.78792289532823" lon="9.198959080540966"><ele>655.6666666666666</ele><time>2026-04-30T14:29:33.991Z</time></trkpt><trkpt lat="39.787843475397665" lon="9.198696791585508"><ele>658.3333333333334</ele><time>2026-04-30T14:29:34.991Z</time></trkpt><trkpt lat="39.787764318292815" lon="9.198430628015469"><ele>661.0</ele><time>2026-04-30T14:29:35.991Z</time></trkpt><trkpt lat="39.7876826945821" lon="9.198166295717474"><ele>656.6666666666667</ele><time>2026-04-30T14:29:36.991Z</time></trkpt><trkpt lat="39.787611594492915" lon="9.197907230291552"><ele>652.3333333333334</ele><time>2026-04-30T14:29:37.991Z</time></trkpt><trkpt lat="39.78754876215144" lon="9.197649437609494"><ele>648.0</ele><time>2026-04-30T14:29:38.991Z</time></trkpt><trkpt lat="39.78750396714497" lon="9.197379673520746"><ele>649.6666666666666</ele><time>2026-04-30T14:29:39.991Z</time></trkpt><trkpt lat="39.78748488332601" lon="9.19709847745926"><ele>651.3333333333333</ele><time>2026-04-30T14:29:40.991Z</time></trkpt><trkpt lat="39.787504073805415" lon="9.196831490346769"><ele>653.0</ele><time>2026-04-30T14:29:41.991Z</time></trkpt><trkpt lat="39.78753100934129" lon="9.196576712170673"><ele>653.3333333333333</ele><time>2026-04-30T14:29:42.991Z</time></trkpt><trkpt lat="39.78753900178994" lon="9.196329606101022"><ele>653.6666666666666</ele><time>2026-04-30T14:29:43.991Z</time></trkpt><trkpt lat="39.78753478085224" lon="9.196050200403112"><ele>654.0</ele><time>2026-04-30T14:29:44.991Z</time></trkpt><trkpt lat="39.78752553936948" lon="9.195763873368904"><ele>655.3333333333334</ele><time>2026-04-30T14:29:45.991Z</time></trkpt><trkpt lat="39.787523455429806" lon="9.195504905905512"><ele>656.6666666666667</ele><time>2026-04-30T14:29:46.991Z</time></trkpt><trkpt lat="39.787561455659116" lon="9.195245551523586"><ele>658.0</ele><time>2026-04-30T14:29:47.991Z</time></trkpt><trkpt lat="39.78740660819731" lon="9.194923667065053"><ele>659.3333333333334</ele><time>2026-04-30T14:29:48.991Z</time></trkpt><trkpt lat="39.787393829455524" lon="9.194657844965652"><ele>660.6666666666666</ele><time>2026-04-30T14:29:49.991Z</time></trkpt><trkpt lat="39.78739260686152" lon="9.194379686619868"><ele>662.0</ele><time>2026-04-30T14:29:50.991Z</time></trkpt><trkpt lat="39.787386022920465" lon="9.194105726171793"><ele>665.6666666666666</ele><time>2026-04-30T14:29:51.991Z</time></trkpt><trkpt lat="39.78737860865125" lon="9.193826334947875"><ele>669.3333333333334</ele><time>2026-04-30T14:29:52.991Z</time></trkpt><trkpt lat="39.787377231027" lon="9.193543895321989"><ele>673.0</ele><time>2026-04-30T14:29:53.991Z</time></trkpt><trkpt lat="39.78739558867208" lon="9.193265556144777"><ele>674.0</ele><time>2026-04-30T14:29:54.991Z</time></trkpt><trkpt lat="39.787431197310184" lon="9.192989464561515"><ele>675.0</ele><time>2026-04-30T14:29:55.991Z</time></trkpt><trkpt lat="39.78748465177952" lon="9.192710738480194"><ele>676.0</ele><time>2026-04-30T14:29:56.991Z</time></trkpt><trkpt lat="39.787541598310476" lon="9.192432319766503"><ele>676.3333333333334</ele><time>2026-04-30T14:29:57.991Z</time></trkpt><trkpt lat="39.78759602636727" lon="9.19215018270574"><ele>676.6666666666666</ele><time>2026-04-30T14:29:58.991Z</time></trkpt><trkpt lat="39.78766724795179" lon="9.191876356804473"><ele>677.0</ele><time>2026-04-30T14:29:59.991Z</time></trkpt><trkpt lat="39.78775878954872" lon="9.191610295540968"><ele>681.0</ele><time>2026-04-30T14:30:00.991Z</time></trkpt><trkpt lat="39.78787432827872" lon="9.191358606249803"><ele>685.0</ele><time>2026-04-30T14:30:01.991Z</time></trkpt><trkpt lat="39.78801188453506" lon="9.191115575410088"><ele>685.0</ele><time>2026-04-30T14:30:02.991Z</time></trkpt><trkpt lat="39.78814174455074" lon="9.190865454271936"><ele>685.0</ele><time>2026-04-30T14:30:03.991Z</time></trkpt><trkpt lat="39.78826352449141" lon="9.190599715541834"><ele>683.5</ele><time>2026-04-30T14:30:04.991Z</time></trkpt><trkpt lat="39.78837667682241" lon="9.190326295996234"><ele>682.0</ele><time>2026-04-30T14:30:05.991Z</time></trkpt><trkpt lat="39.78846110321795" lon="9.190031959400036"><ele>684.5</ele><time>2026-04-30T14:30:06.991Z</time></trkpt><trkpt lat="39.7885199178866" lon="9.189738970677048"><ele>687.0</ele><time>2026-04-30T14:30:07.991Z</time></trkpt><trkpt lat="39.78857145724099" lon="9.189432824137304"><ele>687.0</ele><time>2026-04-30T14:30:08.991Z</time></trkpt><trkpt lat="39.788622340844064" lon="9.189134641375487"><ele>687.0</ele><time>2026-04-30T14:30:09.991Z</time></trkpt><trkpt lat="39.788656433457305" lon="9.188828594846745"><ele>689.0</ele><time>2026-04-30T14:30:10.991Z</time></trkpt><trkpt lat="39.788703103169105" lon="9.188521854320234"><ele>691.0</ele><time>2026-04-30T14:30:11.991Z</time></trkpt><trkpt lat="39.78875655189183" lon="9.188215793423984"><ele>692.0</ele><time>2026-04-30T14:30:12.991Z</time></trkpt><trkpt lat="39.788802139810436" lon="9.187904779653106"><ele>693.0</ele><time>2026-04-30T14:30:13.991Z</time></trkpt><trkpt lat="39.78884982678874" lon="9.187593492330976"><ele>693.0</ele><time>2026-04-30T14:30:14.991Z</time></trkpt><trkpt lat="39.78890150480225" lon="9.187286426073051"><ele>693.0</ele><time>2026-04-30T14:30:15.991Z</time></trkpt><trkpt lat="39.7889521746022" lon="9.186983382253887"><ele>693.0</ele><time>2026-04-30T14:30:16.991Z</time></trkpt><trkpt lat="39.789018071072135" lon="9.18670298531696"><ele>693.0</ele><time>2026-04-30T14:30:17.991Z</time></trkpt><trkpt lat="39.78910497103886" lon="9.186433249752557"><ele>693.5</ele><time>2026-04-30T14:30:18.991Z</time></trkpt><trkpt lat="39.78922023471744" lon="9.186182894359519"><ele>694.0</ele><time>2026-04-30T14:30:19.991Z</time></trkpt><trkpt lat="39.789352556236366" lon="9.185941660427293"><ele>696.0</ele><time>2026-04-30T14:30:20.991Z</time></trkpt><trkpt lat="39.7895067474357" lon="9.185726019164662"><ele>698.0</ele><time>2026-04-30T14:30:21.991Z</time></trkpt><trkpt lat="39.78967758334183" lon="9.185523970795538"><ele>698.0</ele><time>2026-04-30T14:30:22.991Z</time></trkpt><trkpt lat="39.789867290455604" lon="9.185343477394275"><ele>698.0</ele><time>2026-04-30T14:30:23.991Z</time></trkpt><trkpt lat="39.79006678576715" lon="9.185177956817345"><ele>699.0</ele><time>2026-04-30T14:30:24.991Z</time></trkpt><trkpt lat="39.790262789759865" lon="9.185001787266982"><ele>700.0</ele><time>2026-04-30T14:30:25.991Z</time></trkpt><trkpt lat="39.79045702003114" lon="9.184813648260128"><ele>700.0</ele><time>2026-04-30T14:30:26.991Z</time></trkpt><trkpt lat="39.790653439015195" lon="9.184632641583022"><ele>700.0</ele><time>2026-04-30T14:30:27.991Z</time></trkpt><trkpt lat="39.79085414647091" lon="9.18443795317345"><ele>702.5</ele><time>2026-04-30T14:30:28.991Z</time></trkpt><trkpt lat="39.79105494431876" lon="9.184245635715046"><ele>705.0</ele><time>2026-04-30T14:30:29.991Z</time></trkpt><trkpt lat="39.791256153476375" lon="9.184062400373504"><ele>704.0</ele><time>2026-04-30T14:30:30.991Z</time></trkpt><trkpt lat="39.79144475150848" lon="9.183884527335866"><ele>703.0</ele><time>2026-04-30T14:30:31.991Z</time></trkpt><trkpt lat="39.79162344869046" lon="9.1837093856426"><ele>703.0</ele><time>2026-04-30T14:30:32.991Z</time></trkpt><trkpt lat="39.7917853013591" lon="9.183504330800503"><ele>703.0</ele><time>2026-04-30T14:30:33.991Z</time></trkpt><trkpt lat="39.79192220098843" lon="9.183267452239528"><ele>704.5</ele><time>2026-04-30T14:30:34.991Z</time></trkpt><trkpt lat="39.7920367819631" lon="9.183006807926134"><ele>706.0</ele><time>2026-04-30T14:30:35.991Z</time></trkpt><trkpt lat="39.792115876340986" lon="9.182720335569478"><ele>706.0</ele><time>2026-04-30T14:30:36.991Z</time></trkpt><trkpt lat="39.79216648890189" lon="9.182421356578393"><ele>706.0</ele><time>2026-04-30T14:30:37.991Z</time></trkpt><trkpt lat="39.79219612957426" lon="9.182123249420705"><ele>707.5</ele><time>2026-04-30T14:30:38.991Z</time></trkpt><trkpt lat="39.79220648608917" lon="9.181819805969168"><ele>709.0</ele><time>2026-04-30T14:30:39.991Z</time></trkpt><trkpt lat="39.79220277725001" lon="9.181516954188849"><ele>710.0</ele><time>2026-04-30T14:30:40.991Z</time></trkpt><trkpt lat="39.79220466780402" lon="9.181223309159277"><ele>711.0</ele><time>2026-04-30T14:30:41.991Z</time></trkpt><trkpt lat="39.79221634179782" lon="9.18093899622982"><ele>712.0</ele><time>2026-04-30T14:30:42.991Z</time></trkpt><trkpt lat="39.79223251526976" lon="9.180672999611039"><ele>712.3333333333334</ele><time>2026-04-30T14:30:43.991Z</time></trkpt><trkpt lat="39.792248506908734" lon="9.180405064569847"><ele>712.6666666666666</ele><time>2026-04-30T14:30:44.991Z</time></trkpt><trkpt lat="39.792275579612024" lon="9.180145861798922"><ele>713.0</ele><time>2026-04-30T14:30:45.991Z</time></trkpt><trkpt lat="39.792322895593884" lon="9.179879466595843"><ele>713.3333333333333</ele><time>2026-04-30T14:30:46.991Z</time></trkpt><trkpt lat="39.79238274000654" lon="9.179620159548403"><ele>713.6666666666666</ele><time>2026-04-30T14:30:47.991Z</time></trkpt><trkpt lat="39.792450657799215" lon="9.179369342098443"><ele>714.0</ele><time>2026-04-30T14:30:48.991Z</time></trkpt><trkpt lat="39.79252894629143" lon="9.179105176174662"><ele>714.0</ele><time>2026-04-30T14:30:49.991Z</time></trkpt><trkpt lat="39.79261255088135" lon="9.178836778983452"><ele>714.0</ele><time>2026-04-30T14:30:50.991Z</time></trkpt><trkpt lat="39.792695085143535" lon="9.178568076558106"><ele>714.0</ele><time>2026-04-30T14:30:51.991Z</time></trkpt><trkpt lat="39.792775276642075" lon="9.17829863908868"><ele>715.6666666666666</ele><time>2026-04-30T14:30:52.991Z</time></trkpt><trkpt lat="39.79285657425999" lon="9.1780329535223"><ele>717.3333333333333</ele><time>2026-04-30T14:30:53.99Z</time></trkpt><trkpt lat="39.792933305549944" lon="9.17776775446504"><ele>719.0</ele><time>2026-04-30T14:30:54.99Z</time></trkpt><trkpt lat="39.793010370594125" lon="9.177498750555792"><ele>718.6666666666666</ele><time>2026-04-30T14:30:55.99Z</time></trkpt><trkpt lat="39.79308390919381" lon="9.177231559135896"><ele>718.3333333333334</ele><time>2026-04-30T14:30:56.99Z</time></trkpt><trkpt lat="39.79315691475336" lon="9.176972714586835"><ele>718.0</ele><time>2026-04-30T14:30:57.99Z</time></trkpt><trkpt lat="39.79323389417731" lon="9.176714174063383"><ele>718.3333333333334</ele><time>2026-04-30T14:30:58.99Z</time></trkpt><trkpt lat="39.79331393632039" lon="9.176455468328239"><ele>718.6666666666666</ele><time>2026-04-30T14:30:59.99Z</time></trkpt><trkpt lat="39.79340642176029" lon="9.176211660812958"><ele>719.0</ele><time>2026-04-30T14:31:00.99Z</time></trkpt><trkpt lat="39.79351835116798" lon="9.175982431485435"><ele>719.3333333333333</ele><time>2026-04-30T14:31:01.99Z</time></trkpt><trkpt lat="39.79365470512308" lon="9.175764693169564"><ele>719.6666666666666</ele><time>2026-04-30T14:31:02.99Z</time></trkpt><trkpt lat="39.793797532941824" lon="9.175551239503275"><ele>720.0</ele><time>2026-04-30T14:31:03.99Z</time></trkpt><trkpt lat="39.793945582058484" lon="9.175341461043969"><ele>720.3333333333334</ele><time>2026-04-30T14:31:04.99Z</time></trkpt><trkpt lat="39.794093041606146" lon="9.17512614948084"><ele>720.6666666666667</ele><time>2026-04-30T14:31:05.99Z</time></trkpt><trkpt lat="39.79423764757311" lon="9.174913670870078"><ele>721.0</ele><time>2026-04-30T14:31:06.99Z</time></trkpt><trkpt lat="39.794379954933966" lon="9.174699099966432"><ele>722.3333333333334</ele><time>2026-04-30T14:31:07.99Z</time></trkpt><trkpt lat="39.79452501043402" lon="9.17447956876782"><ele>723.6666666666666</ele><time>2026-04-30T14:31:08.99Z</time></trkpt><trkpt lat="39.794671577308065" lon="9.174263992831959"><ele>725.0</ele><time>2026-04-30T14:31:09.99Z</time></trkpt><trkpt lat="39.794825449973416" lon="9.174053328865485"><ele>725.5</ele><time>2026-04-30T14:31:10.99Z</time></trkpt><trkpt lat="39.794993490714475" lon="9.17385766737972"><ele>726.0</ele><time>2026-04-30T14:31:11.99Z</time></trkpt><trkpt lat="39.795176586117066" lon="9.173673749591686"><ele>727.0</ele><time>2026-04-30T14:31:12.99Z</time></trkpt><trkpt lat="39.79537342454064" lon="9.173504964867764"><ele>728.0</ele><time>2026-04-30T14:31:13.99Z</time></trkpt><trkpt lat="39.795569190007285" lon="9.173340406203373"><ele>728.0</ele><time>2026-04-30T14:31:14.99Z</time></trkpt><trkpt lat="39.79577607912486" lon="9.17319389286359"><ele>728.0</ele><time>2026-04-30T14:31:15.99Z</time></trkpt><trkpt lat="39.79598106840557" lon="9.173032631421904"><ele>725.0</ele><time>2026-04-30T14:31:16.99Z</time></trkpt><trkpt lat="39.79618100192756" lon="9.172876621419734"><ele>722.0</ele><time>2026-04-30T14:31:17.99Z</time></trkpt><trkpt lat="39.79638669258871" lon="9.172711840470134"><ele>722.0</ele><time>2026-04-30T14:31:18.99Z</time></trkpt><trkpt lat="39.79659294976663" lon="9.172550054888108"><ele>722.0</ele><time>2026-04-30T14:31:19.99Z</time></trkpt><trkpt lat="39.79679352620098" lon="9.17237024067231"><ele>719.0</ele><time>2026-04-30T14:31:20.99Z</time></trkpt><trkpt lat="39.79700436672911" lon="9.172173920605099"><ele>716.0</ele><time>2026-04-30T14:31:21.99Z</time></trkpt><trkpt lat="39.79720152167909" lon="9.171963891568216"><ele>716.0</ele><time>2026-04-30T14:31:22.99Z</time></trkpt><trkpt lat="39.79739761871506" lon="9.17174415874326"><ele>716.0</ele><time>2026-04-30T14:31:23.99Z</time></trkpt><trkpt lat="39.79759009415856" lon="9.17153178134027"><ele>714.0</ele><time>2026-04-30T14:31:24.99Z</time></trkpt><trkpt lat="39.79778832698235" lon="9.171308515540284"><ele>712.0</ele><time>2026-04-30T14:31:25.99Z</time></trkpt><trkpt lat="39.79798975179191" lon="9.171107935482127"><ele>712.0</ele><time>2026-04-30T14:31:26.99Z</time></trkpt><trkpt lat="39.79818617092298" lon="9.170904718169767"><ele>712.0</ele><time>2026-04-30T14:31:27.99Z</time></trkpt><trkpt lat="39.798370142951825" lon="9.170716778876535"><ele>712.0</ele><time>2026-04-30T14:31:28.99Z</time></trkpt><trkpt lat="39.79853770479852" lon="9.170532054531293"><ele>712.0</ele><time>2026-04-30T14:31:29.99Z</time></trkpt><trkpt lat="39.79869585282809" lon="9.170368702127337"><ele>712.0</ele><time>2026-04-30T14:31:30.99Z</time></trkpt><trkpt lat="39.798836129266995" lon="9.1702174257481"><ele>712.0</ele><time>2026-04-30T14:31:31.996Z</time></trkpt><trkpt lat="39.79897310564819" lon="9.170072975407917"><ele>712.0</ele><time>2026-04-30T14:31:32.996Z</time></trkpt><trkpt lat="39.79910953546508" lon="9.16993675300656"><ele>712.0</ele><time>2026-04-30T14:31:33.996Z</time></trkpt><trkpt lat="39.79923658664416" lon="9.169808170643801"><ele>711.6666666666667</ele><time>2026-04-30T14:31:34.996Z</time></trkpt><trkpt lat="39.799355433966035" lon="9.169676717766169"><ele>711.3333333333334</ele><time>2026-04-30T14:31:35.996Z</time></trkpt><trkpt lat="39.7994809976393" lon="9.169542062704602"><ele>711.0</ele><time>2026-04-30T14:31:36.996Z</time></trkpt><trkpt lat="39.79961228481064" lon="9.16940311509466"><ele>711.0</ele><time>2026-04-30T14:31:37.996Z</time></trkpt><trkpt lat="39.79975121362977" lon="9.16925716838231"><ele>711.0</ele><time>2026-04-30T14:31:38.996Z</time></trkpt><trkpt lat="39.799891289400875" lon="9.169099444738434"><ele>711.0</ele><time>2026-04-30T14:31:39.996Z</time></trkpt><trkpt lat="39.8000394180239" lon="9.168938209357067"><ele>711.6666666666666</ele><time>2026-04-30T14:31:40.996Z</time></trkpt><trkpt lat="39.80018623950379" lon="9.16878071996943"><ele>712.3333333333333</ele><time>2026-04-30T14:31:41.996Z</time></trkpt><trkpt lat="39.80034151488281" lon="9.168628343210072"><ele>713.0</ele><time>2026-04-30T14:31:42.996Z</time></trkpt><trkpt lat="39.800493449969544" lon="9.168464076716294"><ele>713.0</ele><time>2026-04-30T14:31:43.996Z</time></trkpt><trkpt lat="39.80064677753867" lon="9.16830423062651"><ele>713.0</ele><time>2026-04-30T14:31:44.996Z</time></trkpt><trkpt lat="39.800797201459645" lon="9.168128940991945"><ele>713.0</ele><time>2026-04-30T14:31:45.996Z</time></trkpt><trkpt lat="39.800957486097445" lon="9.167957519524558"><ele>711.6666666666666</ele><time>2026-04-30T14:31:46.996Z</time></trkpt><trkpt lat="39.80112221433404" lon="9.16779303615285"><ele>710.3333333333334</ele><time>2026-04-30T14:31:47.996Z</time></trkpt><trkpt lat="39.801288107932706" lon="9.167632141557457"><ele>709.0</ele><time>2026-04-30T14:31:48.996Z</time></trkpt><trkpt lat="39.80145506037017" lon="9.167459664815562"><ele>708.3333333333334</ele><time>2026-04-30T14:31:49.996Z</time></trkpt><trkpt lat="39.801614942279116" lon="9.167284564696127"><ele>707.6666666666666</ele><time>2026-04-30T14:31:50.996Z</time></trkpt><trkpt lat="39.80177237410211" lon="9.16710103764599"><ele>707.0</ele><time>2026-04-30T14:31:51.996Z</time></trkpt><trkpt lat="39.80193947916104" lon="9.16691777948243"><ele>707.0</ele><time>2026-04-30T14:31:52.996Z</time></trkpt><trkpt lat="39.802100678313714" lon="9.166739229929773"><ele>707.0</ele><time>2026-04-30T14:31:53.996Z</time></trkpt><trkpt lat="39.802273187336624" lon="9.166567368216151"><ele>707.0</ele><time>2026-04-30T14:31:54.996Z</time></trkpt><trkpt lat="39.80243159841591" lon="9.16639133447746"><ele>706.6666666666666</ele><time>2026-04-30T14:31:55.996Z</time></trkpt><trkpt lat="39.80259605018607" lon="9.166220133873107"><ele>706.3333333333334</ele><time>2026-04-30T14:31:56.996Z</time></trkpt><trkpt lat="39.80277538222672" lon="9.166050510294017"><ele>706.0</ele><time>2026-04-30T14:31:57.996Z</time></trkpt><trkpt lat="39.80295173105622" lon="9.165876432923422"><ele>705.6666666666667</ele><time>2026-04-30T14:31:58.996Z</time></trkpt><trkpt lat="39.80313171415944" lon="9.165706952823871"><ele>705.3333333333334</ele><time>2026-04-30T14:31:59.996Z</time></trkpt><trkpt lat="39.803316073385766" lon="9.16553973325906"><ele>705.0</ele><time>2026-04-30T14:32:00.996Z</time></trkpt><trkpt lat="39.80350099459712" lon="9.165373820549503"><ele>706.5</ele><time>2026-04-30T14:32:01.996Z</time></trkpt><trkpt lat="39.80368477334618" lon="9.165207038354637"><ele>708.0</ele><time>2026-04-30T14:32:02.996Z</time></trkpt><trkpt lat="39.80387421485791" lon="9.165041154237137"><ele>708.0</ele><time>2026-04-30T14:32:03.996Z</time></trkpt><trkpt lat="39.80406042669249" lon="9.164875736105664"><ele>708.0</ele><time>2026-04-30T14:32:04.996Z</time></trkpt><trkpt lat="39.80424345722816" lon="9.164701097827987"><ele>707.5</ele><time>2026-04-30T14:32:05.996Z</time></trkpt><trkpt lat="39.80442934852081" lon="9.16453748306605"><ele>707.0</ele><time>2026-04-30T14:32:06.996Z</time></trkpt><trkpt lat="39.804619988298235" lon="9.164374882198134"><ele>707.0</ele><time>2026-04-30T14:32:07.996Z</time></trkpt><trkpt lat="39.80480485964912" lon="9.164205334385537"><ele>707.0</ele><time>2026-04-30T14:32:08.996Z</time></trkpt><trkpt lat="39.80499617353975" lon="9.164035149940403"><ele>706.0</ele><time>2026-04-30T14:32:09.996Z</time></trkpt><trkpt lat="39.80517980256918" lon="9.163855089525505"><ele>705.0</ele><time>2026-04-30T14:32:10.996Z</time></trkpt><trkpt lat="39.805368877050235" lon="9.163691076439752"><ele>705.0</ele><time>2026-04-30T14:32:11.996Z</time></trkpt><trkpt lat="39.80555727056625" lon="9.163523691475428"><ele>705.0</ele><time>2026-04-30T14:32:12.996Z</time></trkpt><trkpt lat="39.80574555712684" lon="9.163354054310975"><ele>704.6666666666666</ele><time>2026-04-30T14:32:13.996Z</time></trkpt><trkpt lat="39.80592816776696" lon="9.163186190134384"><ele>704.3333333333333</ele><time>2026-04-30T14:32:14.996Z</time></trkpt><trkpt lat="39.80611580622942" lon="9.163028879895561"><ele>704.0</ele><time>2026-04-30T14:32:15.996Z</time></trkpt><trkpt lat="39.80629880419335" lon="9.162868154675573"><ele>705.3333333333333</ele><time>2026-04-30T14:32:16.996Z</time></trkpt><trkpt lat="39.80647659821227" lon="9.162705131625241"><ele>706.6666666666666</ele><time>2026-04-30T14:32:17.996Z</time></trkpt><trkpt lat="39.80665849184335" lon="9.16253579803594"><ele>708.0</ele><time>2026-04-30T14:32:18.996Z</time></trkpt><trkpt lat="39.80684371387957" lon="9.162369063513665"><ele>707.3333333333334</ele><time>2026-04-30T14:32:19.996Z</time></trkpt><trkpt lat="39.807027480092785" lon="9.16220931558875"><ele>706.6666666666667</ele><time>2026-04-30T14:32:20.996Z</time></trkpt><trkpt lat="39.80720918953885" lon="9.162040973285261"><ele>706.0</ele><time>2026-04-30T14:32:21.996Z</time></trkpt><trkpt lat="39.80739381460346" lon="9.161873679662245"><ele>706.0</ele><time>2026-04-30T14:32:22.996Z</time></trkpt><trkpt lat="39.80758071681216" lon="9.161705978845673"><ele>706.0</ele><time>2026-04-30T14:32:23.996Z</time></trkpt><trkpt lat="39.807768529644015" lon="9.161543762528773"><ele>708.5</ele><time>2026-04-30T14:32:24.996Z</time></trkpt><trkpt lat="39.807955362382316" lon="9.161376443756158"><ele>711.0</ele><time>2026-04-30T14:32:25.996Z</time></trkpt><trkpt lat="39.80814561427668" lon="9.161216605964086"><ele>711.0</ele><time>2026-04-30T14:32:26.996Z</time></trkpt><trkpt lat="39.80834127385268" lon="9.161058396553143"><ele>711.0</ele><time>2026-04-30T14:32:27.997Z</time></trkpt><trkpt lat="39.80854547388773" lon="9.1609261357924"><ele>712.0</ele><time>2026-04-30T14:32:28.996Z</time></trkpt><trkpt lat="39.80875708856878" lon="9.160766637756407"><ele>713.0</ele><time>2026-04-30T14:32:29.996Z</time></trkpt><trkpt lat="39.80890886600955" lon="9.160563197049228"><ele>713.0</ele><time>2026-04-30T14:32:30.996Z</time></trkpt><trkpt lat="39.80908143425161" lon="9.160371465768533"><ele>713.0</ele><time>2026-04-30T14:32:31.996Z</time></trkpt><trkpt lat="39.809260730121494" lon="9.160189632032129"><ele>712.6666666666666</ele><time>2026-04-30T14:32:32.996Z</time></trkpt><trkpt lat="39.80942430067699" lon="9.159988370306104"><ele>712.3333333333334</ele><time>2026-04-30T14:32:33.996Z</time></trkpt><trkpt lat="39.80958445135692" lon="9.15978470834769"><ele>712.0</ele><time>2026-04-30T14:32:34.996Z</time></trkpt><trkpt lat="39.809742580636616" lon="9.15957020619859"><ele>712.0</ele><time>2026-04-30T14:32:35.996Z</time></trkpt><trkpt lat="39.80988668800599" lon="9.159337764333529"><ele>712.0</ele><time>2026-04-30T14:32:36.996Z</time></trkpt><trkpt lat="39.810009149666065" lon="9.159076806872116"><ele>711.3333333333334</ele><time>2026-04-30T14:32:37.996Z</time></trkpt><trkpt lat="39.81011028471449" lon="9.158815188361885"><ele>710.6666666666666</ele><time>2026-04-30T14:32:38.996Z</time></trkpt><trkpt lat="39.81019313259952" lon="9.158547316332436"><ele>710.0</ele><time>2026-04-30T14:32:39.996Z</time></trkpt><trkpt lat="39.8102693268942" lon="9.15829120101869"><ele>709.5</ele><time>2026-04-30T14:32:40.996Z</time></trkpt><trkpt lat="39.81034601904612" lon="9.158014824784951"><ele>709.0</ele><time>2026-04-30T14:32:41.996Z</time></trkpt><trkpt lat="39.81042208089782" lon="9.157730694804902"><ele>709.0</ele><time>2026-04-30T14:32:42.996Z</time></trkpt><trkpt lat="39.8104999924154" lon="9.15744335013763"><ele>709.0</ele><time>2026-04-30T14:32:43.996Z</time></trkpt><trkpt lat="39.81084606523243" lon="9.157428636587827"><ele>709.0</ele><time>2026-04-30T14:32:44.996Z</time></trkpt><trkpt lat="39.81095859674282" lon="9.157190801691415"><ele>709.0</ele><time>2026-04-30T14:32:45.996Z</time></trkpt><trkpt lat="39.8110740080275" lon="9.156952514057929"><ele>709.0</ele><time>2026-04-30T14:32:46.996Z</time></trkpt><trkpt lat="39.81120014669477" lon="9.156719550468914"><ele>707.3333333333334</ele><time>2026-04-30T14:32:47.996Z</time></trkpt><trkpt lat="39.811338609935056" lon="9.156490006477751"><ele>705.6666666666666</ele><time>2026-04-30T14:32:48.996Z</time></trkpt><trkpt lat="39.811483216104016" lon="9.156271617713696"><ele>704.0</ele><time>2026-04-30T14:32:49.996Z</time></trkpt><trkpt lat="39.81163590431068" lon="9.156061529962829"><ele>704.0</ele><time>2026-04-30T14:32:50.996Z</time></trkpt><trkpt lat="39.81179885715988" lon="9.155862022715452"><ele>704.0</ele><time>2026-04-30T14:32:51.996Z</time></trkpt><trkpt lat="39.811963924458965" lon="9.155662189300307"><ele>704.0</ele><time>2026-04-30T14:32:52.996Z</time></trkpt><trkpt lat="39.81213345822215" lon="9.155470357037409"><ele>704.3333333333333</ele><time>2026-04-30T14:32:53.996Z</time></trkpt><trkpt lat="39.81230234125815" lon="9.155281318800215"><ele>704.6666666666666</ele><time>2026-04-30T14:32:54.996Z</time></trkpt><trkpt lat="39.81247039792603" lon="9.155089211065121"><ele>705.0</ele><time>2026-04-30T14:32:55.996Z</time></trkpt><trkpt lat="39.81263940689992" lon="9.15489505466733"><ele>704.0</ele><time>2026-04-30T14:32:56.996Z</time></trkpt><trkpt lat="39.8128060519904" lon="9.15469783031047"><ele>703.0</ele><time>2026-04-30T14:32:57.996Z</time></trkpt><trkpt lat="39.81297467875732" lon="9.154504252897498"><ele>703.0</ele><time>2026-04-30T14:32:58.996Z</time></trkpt><trkpt lat="39.81313920779932" lon="9.154307095555989"><ele>703.0</ele><time>2026-04-30T14:32:59.996Z</time></trkpt><trkpt lat="39.81330738952789" lon="9.15410830358423"><ele>702.6666666666667</ele><time>2026-04-30T14:33:00.996Z</time></trkpt><trkpt lat="39.81347276454413" lon="9.153907401345132"><ele>702.3333333333334</ele><time>2026-04-30T14:33:01.996Z</time></trkpt><trkpt lat="39.81362613630664" lon="9.153696142217674"><ele>702.0</ele><time>2026-04-30T14:33:02.996Z</time></trkpt><trkpt lat="39.81377668247419" lon="9.153478198220242"><ele>702.0</ele><time>2026-04-30T14:33:03.996Z</time></trkpt><trkpt lat="39.813916176293475" lon="9.153244379877309"><ele>702.0</ele><time>2026-04-30T14:33:04.996Z</time></trkpt><trkpt lat="39.814046840681875" lon="9.152996680728629"><ele>701.0</ele><time>2026-04-30T14:33:05.996Z</time></trkpt><trkpt lat="39.81418202838039" lon="9.152743812457825"><ele>700.0</ele><time>2026-04-30T14:33:06.996Z</time></trkpt><trkpt lat="39.81430601085337" lon="9.152488271926229"><ele>701.0</ele><time>2026-04-30T14:33:07.996Z</time></trkpt><trkpt lat="39.8144415064572" lon="9.152241204473693"><ele>702.0</ele><time>2026-04-30T14:33:08.996Z</time></trkpt><trkpt lat="39.81458226961561" lon="9.152005649776276"><ele>702.0</ele><time>2026-04-30T14:33:09.995Z</time></trkpt><trkpt lat="39.814712072033245" lon="9.15176149753826"><ele>702.0</ele><time>2026-04-30T14:33:10.995Z</time></trkpt><trkpt lat="39.8148413492645" lon="9.151499347747304"><ele>701.0</ele><time>2026-04-30T14:33:11.995Z</time></trkpt><trkpt lat="39.814984274893206" lon="9.151247152178762"><ele>700.0</ele><time>2026-04-30T14:33:12.995Z</time></trkpt><trkpt lat="39.81512210431217" lon="9.150994733488538"><ele>702.0</ele><time>2026-04-30T14:33:13.995Z</time></trkpt><trkpt lat="39.81525985641832" lon="9.150752484533431"><ele>704.0</ele><time>2026-04-30T14:33:14.995Z</time></trkpt><trkpt lat="39.81539537201297" lon="9.15050783585632"><ele>704.0</ele><time>2026-04-30T14:33:15.995Z</time></trkpt><trkpt lat="39.81552952865008" lon="9.15026048105888"><ele>704.0</ele><time>2026-04-30T14:33:16.995Z</time></trkpt><trkpt lat="39.815653650506746" lon="9.150022878322988"><ele>704.0</ele><time>2026-04-30T14:33:17.995Z</time></trkpt><trkpt lat="39.815778896941964" lon="9.149792289139715"><ele>704.0</ele><time>2026-04-30T14:33:18.995Z</time></trkpt><trkpt lat="39.81591872610992" lon="9.149559190841883"><ele>704.0</ele><time>2026-04-30T14:33:19.995Z</time></trkpt><trkpt lat="39.816054889333834" lon="9.149320361163005"><ele>704.0</ele><time>2026-04-30T14:33:20.995Z</time></trkpt><trkpt lat="39.81617527529019" lon="9.149060947930971"><ele>704.0</ele><time>2026-04-30T14:33:21.995Z</time></trkpt><trkpt lat="39.816282047314886" lon="9.148794095887459"><ele>703.0</ele><time>2026-04-30T14:33:22.995Z</time></trkpt><trkpt lat="39.816378848839605" lon="9.14852440255609"><ele>702.0</ele><time>2026-04-30T14:33:23.995Z</time></trkpt><trkpt lat="39.81647899761177" lon="9.14825547540993"><ele>701.0</ele><time>2026-04-30T14:33:24.995Z</time></trkpt><trkpt lat="39.816569879157974" lon="9.147978605859585"><ele>700.0</ele><time>2026-04-30T14:33:25.995Z</time></trkpt><trkpt lat="39.816667196064984" lon="9.147697647725288"><ele>700.0</ele><time>2026-04-30T14:33:26.995Z</time></trkpt><trkpt lat="39.8167731506955" lon="9.147412327329992"><ele>700.0</ele><time>2026-04-30T14:33:27.995Z</time></trkpt><trkpt lat="39.81686927156908" lon="9.147120899035519"><ele>699.0</ele><time>2026-04-30T14:33:28.995Z</time></trkpt><trkpt lat="39.81697571948984" lon="9.146839475636323"><ele>698.0</ele><time>2026-04-30T14:33:29.995Z</time></trkpt><trkpt lat="39.817080470136794" lon="9.146556611282225"><ele>697.5</ele><time>2026-04-30T14:33:30.995Z</time></trkpt><trkpt lat="39.817177853458695" lon="9.146270080201141"><ele>697.0</ele><time>2026-04-30T14:33:31.995Z</time></trkpt><trkpt lat="39.81728232375249" lon="9.145993249523487"><ele>697.0</ele><time>2026-04-30T14:33:32.995Z</time></trkpt><trkpt lat="39.81738043325822" lon="9.145715053308884"><ele>697.0</ele><time>2026-04-30T14:33:33.995Z</time></trkpt><trkpt lat="39.81747921778349" lon="9.145438903383821"><ele>696.5</ele><time>2026-04-30T14:33:34.995Z</time></trkpt><trkpt lat="39.817582124710995" lon="9.145166454682435"><ele>696.0</ele><time>2026-04-30T14:33:35.995Z</time></trkpt><trkpt lat="39.8176805101532" lon="9.144890070007357"><ele>695.0</ele><time>2026-04-30T14:33:36.995Z</time></trkpt><trkpt lat="39.81777567398097" lon="9.1446121966843"><ele>694.0</ele><time>2026-04-30T14:33:37.995Z</time></trkpt><trkpt lat="39.81788182230246" lon="9.144340380937354"><ele>694.0</ele><time>2026-04-30T14:33:38.995Z</time></trkpt><trkpt lat="39.81798066956433" lon="9.144067358162243"><ele>694.0</ele><time>2026-04-30T14:33:39.995Z</time></trkpt><trkpt lat="39.81807139518155" lon="9.143793493419922"><ele>692.5</ele><time>2026-04-30T14:33:40.995Z</time></trkpt><trkpt lat="39.81816851622821" lon="9.143526112156291"><ele>691.0</ele><time>2026-04-30T14:33:41.995Z</time></trkpt><trkpt lat="39.81826759207685" lon="9.143247838606838"><ele>690.0</ele><time>2026-04-30T14:33:42.995Z</time></trkpt><trkpt lat="39.81836634774646" lon="9.1429639367661"><ele>689.0</ele><time>2026-04-30T14:33:43.995Z</time></trkpt><trkpt lat="39.818466463736584" lon="9.142679991311425"><ele>689.0</ele><time>2026-04-30T14:33:44.995Z</time></trkpt><trkpt lat="39.81856971536761" lon="9.14239443034741"><ele>689.0</ele><time>2026-04-30T14:33:45.995Z</time></trkpt><trkpt lat="39.81867001581375" lon="9.142111708489201"><ele>689.0</ele><time>2026-04-30T14:33:46.995Z</time></trkpt><trkpt lat="39.81878168683828" lon="9.141823301221569"><ele>689.0</ele><time>2026-04-30T14:33:47.995Z</time></trkpt><trkpt lat="39.81888041136213" lon="9.141527758271687"><ele>687.0</ele><time>2026-04-30T14:33:48.995Z</time></trkpt><trkpt lat="39.81898397165633" lon="9.141243729700605"><ele>685.0</ele><time>2026-04-30T14:33:49.995Z</time></trkpt><trkpt lat="39.81907905779895" lon="9.14096792153612"><ele>684.5</ele><time>2026-04-30T14:33:50.995Z</time></trkpt><trkpt lat="39.81917250602982" lon="9.140683420265514"><ele>684.0</ele><time>2026-04-30T14:33:51.995Z</time></trkpt><trkpt lat="39.81927026849101" lon="9.140425952248592"><ele>684.5</ele><time>2026-04-30T14:33:52.995Z</time></trkpt><trkpt lat="39.819373805188995" lon="9.140154360126212"><ele>685.0</ele><time>2026-04-30T14:33:53.995Z</time></trkpt><trkpt lat="39.81947044104791" lon="9.139884689420182"><ele>685.0</ele><time>2026-04-30T14:33:54.995Z</time></trkpt><trkpt lat="39.819556757913084" lon="9.139613923344161"><ele>685.0</ele><time>2026-04-30T14:33:55.995Z</time></trkpt><trkpt lat="39.81965212388489" lon="9.139349799286286"><ele>685.0</ele><time>2026-04-30T14:33:56.995Z</time></trkpt><trkpt lat="39.81974979090069" lon="9.139084379139922"><ele>684.5</ele><time>2026-04-30T14:33:57.995Z</time></trkpt><trkpt lat="39.819856818398705" lon="9.138819377843593"><ele>684.0</ele><time>2026-04-30T14:33:58.995Z</time></trkpt><trkpt lat="39.81995915121885" lon="9.138549361645588"><ele>684.0</ele><time>2026-04-30T14:33:59.995Z</time></trkpt><trkpt lat="39.82006489600667" lon="9.138285902753264"><ele>684.0</ele><time>2026-04-30T14:34:00.995Z</time></trkpt><trkpt lat="39.82015129730721" lon="9.138013750668373"><ele>683.0</ele><time>2026-04-30T14:34:01.995Z</time></trkpt><trkpt lat="39.82024431542409" lon="9.137738640183017"><ele>682.0</ele><time>2026-04-30T14:34:02.995Z</time></trkpt><trkpt lat="39.820341495698855" lon="9.13746288783309"><ele>681.0</ele><time>2026-04-30T14:34:03.995Z</time></trkpt><trkpt lat="39.82044912685364" lon="9.137198317027092"><ele>680.0</ele><time>2026-04-30T14:34:04.995Z</time></trkpt><trkpt lat="39.8205743528053" lon="9.136942330014152"><ele>680.0</ele><time>2026-04-30T14:34:05.995Z</time></trkpt><trkpt lat="39.82071483130383" lon="9.13670317764423"><ele>680.0</ele><time>2026-04-30T14:34:06.995Z</time></trkpt><trkpt lat="39.82086433330547" lon="9.136474103211166"><ele>681.0</ele><time>2026-04-30T14:34:07.995Z</time></trkpt><trkpt lat="39.82102838597452" lon="9.136270837034909"><ele>682.0</ele><time>2026-04-30T14:34:08.995Z</time></trkpt><trkpt lat="39.82119188304137" lon="9.136071131963456"><ele>682.0</ele><time>2026-04-30T14:34:09.995Z</time></trkpt><trkpt lat="39.82136795242399" lon="9.135879196300726"><ele>682.0</ele><time>2026-04-30T14:34:10.995Z</time></trkpt><trkpt lat="39.82155077774375" lon="9.135704151054007"><ele>682.3333333333334</ele><time>2026-04-30T14:34:11.995Z</time></trkpt><trkpt lat="39.821726076928876" lon="9.135521849452614"><ele>682.6666666666666</ele><time>2026-04-30T14:34:12.995Z</time></trkpt><trkpt lat="39.821890444296805" lon="9.135330568778585"><ele>683.0</ele><time>2026-04-30T14:34:13.995Z</time></trkpt><trkpt lat="39.822054785498004" lon="9.135141921047481"><ele>683.0</ele><time>2026-04-30T14:34:14.995Z</time></trkpt><trkpt lat="39.822224992835636" lon="9.134959393631961"><ele>683.0</ele><time>2026-04-30T14:34:15.995Z</time></trkpt><trkpt lat="39.82239937002346" lon="9.134776410034826"><ele>683.0</ele><time>2026-04-30T14:34:16.995Z</time></trkpt><trkpt lat="39.82256404579926" lon="9.13459116402851"><ele>683.5</ele><time>2026-04-30T14:34:17.995Z</time></trkpt><trkpt lat="39.82273273247888" lon="9.134395688231391"><ele>684.0</ele><time>2026-04-30T14:34:18.995Z</time></trkpt><trkpt lat="39.82290507301238" lon="9.134202090294071"><ele>683.6666666666666</ele><time>2026-04-30T14:34:19.995Z</time></trkpt><trkpt lat="39.823075660569415" lon="9.134009914228708"><ele>683.3333333333333</ele><time>2026-04-30T14:34:20.995Z</time></trkpt><trkpt lat="39.8232481433952" lon="9.133831708411808"><ele>683.0</ele><time>2026-04-30T14:34:21.995Z</time></trkpt><trkpt lat="39.82343325730066" lon="9.133687493383288"><ele>683.3333333333333</ele><time>2026-04-30T14:34:22.995Z</time></trkpt><trkpt lat="39.82363659804056" lon="9.133576504028651"><ele>683.6666666666666</ele><time>2026-04-30T14:34:23.995Z</time></trkpt><trkpt lat="39.823853493057634" lon="9.133495989802796"><ele>684.0</ele><time>2026-04-30T14:34:24.996Z</time></trkpt><trkpt lat="39.824070023265364" lon="9.133446533398876"><ele>684.0</ele><time>2026-04-30T14:34:25.996Z</time></trkpt><trkpt lat="39.8242797156976" lon="9.133424343286727"><ele>684.0</ele><time>2026-04-30T14:34:26.996Z</time></trkpt><trkpt lat="39.82449955873122" lon="9.133432252178784"><ele>684.0</ele><time>2026-04-30T14:34:27.996Z</time></trkpt><trkpt lat="39.824725779067855" lon="9.133487387730545"><ele>684.5</ele><time>2026-04-30T14:34:28.996Z</time></trkpt><trkpt lat="39.824950981228056" lon="9.133548239237294"><ele>685.0</ele><time>2026-04-30T14:34:29.996Z</time></trkpt><trkpt lat="39.82517313950907" lon="9.133613890064385"><ele>682.5</ele><time>2026-04-30T14:34:30.996Z</time></trkpt><trkpt lat="39.82539710917398" lon="9.133661149291896"><ele>680.0</ele><time>2026-04-30T14:34:31.996Z</time></trkpt><trkpt lat="39.82563009926619" lon="9.133712481527008"><ele>680.0</ele><time>2026-04-30T14:34:32.996Z</time></trkpt><trkpt lat="39.82585750998103" lon="9.133760767318854"><ele>680.0</ele><time>2026-04-30T14:34:33.996Z</time></trkpt><trkpt lat="39.82608410008193" lon="9.133807042124277"><ele>681.0</ele><time>2026-04-30T14:34:34.996Z</time></trkpt><trkpt lat="39.826310606907214" lon="9.13386425747786"><ele>682.0</ele><time>2026-04-30T14:34:35.996Z</time></trkpt><trkpt lat="39.82653889442547" lon="9.13391915279001"><ele>682.0</ele><time>2026-04-30T14:34:36.996Z</time></trkpt><trkpt lat="39.826763249050835" lon="9.133975924152965"><ele>682.0</ele><time>2026-04-30T14:34:37.996Z</time></trkpt><trkpt lat="39.826989884735916" lon="9.13402706923472"><ele>686.0</ele><time>2026-04-30T14:34:38.996Z</time></trkpt><trkpt lat="39.827215399535554" lon="9.134080474601777"><ele>690.0</ele><time>2026-04-30T14:34:39.996Z</time></trkpt><trkpt lat="39.827442065704254" lon="9.134128517353128"><ele>692.5</ele><time>2026-04-30T14:34:40.996Z</time></trkpt><trkpt lat="39.827669505035914" lon="9.134180572984832"><ele>695.0</ele><time>2026-04-30T14:34:41.996Z</time></trkpt><trkpt lat="39.82789756548798" lon="9.134229268885719"><ele>695.0</ele><time>2026-04-30T14:34:42.996Z</time></trkpt><trkpt lat="39.828127434073465" lon="9.134275352702273"><ele>695.0</ele><time>2026-04-30T14:34:43.996Z</time></trkpt><trkpt lat="39.82834985942698" lon="9.134322692909794"><ele>696.5</ele><time>2026-04-30T14:34:44.996Z</time></trkpt><trkpt lat="39.82857588281444" lon="9.134376068697902"><ele>698.0</ele><time>2026-04-30T14:34:45.996Z</time></trkpt><trkpt lat="39.82879869230837" lon="9.134407808265072"><ele>698.0</ele><time>2026-04-30T14:34:46.996Z</time></trkpt><trkpt lat="39.829028856233265" lon="9.134414496913298"><ele>698.0</ele><time>2026-04-30T14:34:47.996Z</time></trkpt><trkpt lat="39.829251786418105" lon="9.13440756653768"><ele>699.5</ele><time>2026-04-30T14:34:48.996Z</time></trkpt><trkpt lat="39.82947684578019" lon="9.134388739732282"><ele>701.0</ele><time>2026-04-30T14:34:49.996Z</time></trkpt><trkpt lat="39.82970184198444" lon="9.134366403984002"><ele>701.0</ele><time>2026-04-30T14:34:50.996Z</time></trkpt><trkpt lat="39.82992658280987" lon="9.13431967436066"><ele>701.0</ele><time>2026-04-30T14:34:51.996Z</time></trkpt><trkpt lat="39.83014830275577" lon="9.134252422621309"><ele>703.0</ele><time>2026-04-30T14:34:52.996Z</time></trkpt><trkpt lat="39.830377167922215" lon="9.13418141400743"><ele>705.0</ele><time>2026-04-30T14:34:53.996Z</time></trkpt><trkpt lat="39.830603745741236" lon="9.134109087235512"><ele>703.0</ele><time>2026-04-30T14:34:54.996Z</time></trkpt><trkpt lat="39.83083388207846" lon="9.134046480806708"><ele>701.0</ele><time>2026-04-30T14:34:55.996Z</time></trkpt><trkpt lat="39.83106519630957" lon="9.133985011868134"><ele>705.0</ele><time>2026-04-30T14:34:56.996Z</time></trkpt><trkpt lat="39.83129566493069" lon="9.133919817685003"><ele>709.0</ele><time>2026-04-30T14:34:57.996Z</time></trkpt><trkpt lat="39.8315303885827" lon="9.133857128120374"><ele>709.0</ele><time>2026-04-30T14:34:58.996Z</time></trkpt><trkpt lat="39.831767292226715" lon="9.13379044371955"><ele>709.0</ele><time>2026-04-30T14:34:59.996Z</time></trkpt><trkpt lat="39.83200076608429" lon="9.133718639089931"><ele>710.5</ele><time>2026-04-30T14:35:00.996Z</time></trkpt><trkpt lat="39.832234738087" lon="9.133651951358486"><ele>712.0</ele><time>2026-04-30T14:35:01.996Z</time></trkpt><trkpt lat="39.832464819990584" lon="9.133588945706665"><ele>712.0</ele><time>2026-04-30T14:35:02.996Z</time></trkpt><trkpt lat="39.832692936101985" lon="9.133523343028282"><ele>712.0</ele><time>2026-04-30T14:35:03.996Z</time></trkpt><trkpt lat="39.83292107186034" lon="9.13344969434946"><ele>712.0</ele><time>2026-04-30T14:35:04.996Z</time></trkpt><trkpt lat="39.833150829997784" lon="9.133383159332297"><ele>712.0</ele><time>2026-04-30T14:35:05.996Z</time></trkpt><trkpt lat="39.833378729718824" lon="9.133310781813934"><ele>713.0</ele><time>2026-04-30T14:35:06.996Z</time></trkpt><trkpt lat="39.83360433685787" lon="9.133250395013235"><ele>714.0</ele><time>2026-04-30T14:35:07.996Z</time></trkpt><trkpt lat="39.83383104297789" lon="9.13318846385358"><ele>714.0</ele><time>2026-04-30T14:35:08.996Z</time></trkpt><trkpt lat="39.83405776229389" lon="9.133128303780259"><ele>714.0</ele><time>2026-04-30T14:35:09.996Z</time></trkpt><trkpt lat="39.83428220620961" lon="9.133070969906397"><ele>716.0</ele><time>2026-04-30T14:35:10.996Z</time></trkpt><trkpt lat="39.834506021411585" lon="9.133005669669311"><ele>718.0</ele><time>2026-04-30T14:35:11.996Z</time></trkpt><trkpt lat="39.834726444168865" lon="9.132945198092878"><ele>718.0</ele><time>2026-04-30T14:35:12.996Z</time></trkpt><trkpt lat="39.83494368910211" lon="9.132886490869852"><ele>718.0</ele><time>2026-04-30T14:35:13.996Z</time></trkpt><trkpt lat="39.835156948132045" lon="9.132831727832713"><ele>718.0</ele><time>2026-04-30T14:35:14.996Z</time></trkpt><trkpt lat="39.835371624598885" lon="9.132769273814262"><ele>720.6666666666667</ele><time>2026-04-30T14:35:15.996Z</time></trkpt><trkpt lat="39.83558565235175" lon="9.13270721999028"><ele>723.3333333333334</ele><time>2026-04-30T14:35:16.996Z</time></trkpt><trkpt lat="39.835794188993845" lon="9.132643742259074"><ele>726.0</ele><time>2026-04-30T14:35:17.996Z</time></trkpt><trkpt lat="39.83599786242862" lon="9.13257405595691"><ele>728.0</ele><time>2026-04-30T14:35:18.996Z</time></trkpt><trkpt lat="39.83620751704248" lon="9.132489204266049"><ele>730.0</ele><time>2026-04-30T14:35:19.996Z</time></trkpt><trkpt lat="39.836412077184434" lon="9.132375864647363"><ele>732.0</ele><time>2026-04-30T14:35:20.996Z</time></trkpt><trkpt lat="39.83660609061269" lon="9.132228369739387"><ele>732.0</ele><time>2026-04-30T14:35:21.996Z</time></trkpt><trkpt lat="39.836784152021394" lon="9.13205321217955"><ele>732.0</ele><time>2026-04-30T14:35:22.996Z</time></trkpt><trkpt lat="39.836950247573164" lon="9.131852909792887"><ele>738.0</ele><time>2026-04-30T14:35:23.996Z</time></trkpt><trkpt lat="39.83710488958322" lon="9.13163167612177"><ele>744.0</ele><time>2026-04-30T14:35:24.996Z</time></trkpt><trkpt lat="39.8372497556512" lon="9.131397035351084"><ele>744.5</ele><time>2026-04-30T14:35:25.996Z</time></trkpt><trkpt lat="39.837374429169586" lon="9.131151359200013"><ele>745.0</ele><time>2026-04-30T14:35:26.996Z</time></trkpt><trkpt lat="39.83749424209729" lon="9.130902807977959"><ele>744.0</ele><time>2026-04-30T14:35:27.996Z</time></trkpt><trkpt lat="39.83761938172125" lon="9.130652050542748"><ele>743.0</ele><time>2026-04-30T14:35:28.996Z</time></trkpt><trkpt lat="39.83774732862158" lon="9.130401922843069"><ele>747.5</ele><time>2026-04-30T14:35:29.996Z</time></trkpt><trkpt lat="39.837875318039075" lon="9.130152033602819"><ele>752.0</ele><time>2026-04-30T14:35:30.996Z</time></trkpt><trkpt lat="39.83801067883896" lon="9.129907033144665"><ele>751.0</ele><time>2026-04-30T14:35:31.996Z</time></trkpt><trkpt lat="39.83815746558893" lon="9.129662644172853"><ele>750.0</ele><time>2026-04-30T14:35:32.996Z</time></trkpt><trkpt lat="39.83831913746618" lon="9.129439725949956"><ele>751.0</ele><time>2026-04-30T14:35:33.996Z</time></trkpt><trkpt lat="39.838495161832974" lon="9.129230389852333"><ele>752.0</ele><time>2026-04-30T14:35:34.996Z</time></trkpt><trkpt lat="39.838673691219746" lon="9.129028524971643"><ele>752.0</ele><time>2026-04-30T14:35:35.996Z</time></trkpt><trkpt lat="39.83887053471412" lon="9.128847588966241"><ele>752.0</ele><time>2026-04-30T14:35:36.996Z</time></trkpt><trkpt lat="39.83907259931416" lon="9.128670156756483"><ele>752.0</ele><time>2026-04-30T14:35:37.996Z</time></trkpt><trkpt lat="39.83928214553473" lon="9.128494952230536"><ele>752.0</ele><time>2026-04-30T14:35:38.996Z</time></trkpt><trkpt lat="39.83949112666135" lon="9.128322143114135"><ele>750.0</ele><time>2026-04-30T14:35:39.996Z</time></trkpt><trkpt lat="39.83970315449622" lon="9.128139048960016"><ele>748.0</ele><time>2026-04-30T14:35:40.996Z</time></trkpt><trkpt lat="39.83990660740665" lon="9.127954520712109"><ele>748.0</ele><time>2026-04-30T14:35:41.996Z</time></trkpt><trkpt lat="39.84010480467821" lon="9.127770872248938"><ele>748.0</ele><time>2026-04-30T14:35:42.996Z</time></trkpt><trkpt lat="39.840304044124494" lon="9.127593831356847"><ele>748.0</ele><time>2026-04-30T14:35:43.996Z</time></trkpt><trkpt lat="39.84049868587869" lon="9.127419566214604"><ele>748.0</ele><time>2026-04-30T14:35:44.996Z</time></trkpt><trkpt lat="39.840694399427086" lon="9.127243771969612"><ele>748.0</ele><time>2026-04-30T14:35:45.996Z</time></trkpt><trkpt lat="39.84089372397554" lon="9.127072877447688"><ele>748.0</ele><time>2026-04-30T14:35:46.996Z</time></trkpt><trkpt lat="39.84109042352141" lon="9.126898036524192"><ele>750.0</ele><time>2026-04-30T14:35:47.996Z</time></trkpt><trkpt lat="39.8412887058071" lon="9.126727615733415"><ele>752.0</ele><time>2026-04-30T14:35:48.996Z</time></trkpt><trkpt lat="39.84149520169392" lon="9.126573017333543"><ele>753.0</ele><time>2026-04-30T14:35:49.996Z</time></trkpt><trkpt lat="39.841709395167825" lon="9.126431851105565"><ele>754.0</ele><time>2026-04-30T14:35:50.996Z</time></trkpt><trkpt lat="39.84193295817035" lon="9.126307518199523"><ele>755.0</ele><time>2026-04-30T14:35:51.996Z</time></trkpt><trkpt lat="39.84216194498762" lon="9.12619512729652"><ele>756.0</ele><time>2026-04-30T14:35:52.996Z</time></trkpt><trkpt lat="39.842392965969125" lon="9.126101920812044"><ele>756.0</ele><time>2026-04-30T14:35:53.996Z</time></trkpt><trkpt lat="39.84263727489929" lon="9.126029706110085"><ele>756.0</ele><time>2026-04-30T14:35:54.996Z</time></trkpt><trkpt lat="39.84288251363458" lon="9.12596934206674"><ele>756.0</ele><time>2026-04-30T14:35:55.996Z</time></trkpt><trkpt lat="39.8431293467062" lon="9.125927840877026"><ele>756.0</ele><time>2026-04-30T14:35:56.996Z</time></trkpt><trkpt lat="39.84338008718026" lon="9.125916566001964"><ele>756.0</ele><time>2026-04-30T14:35:57.996Z</time></trkpt><trkpt lat="39.843619704851285" lon="9.1258659234541"><ele>756.0</ele><time>2026-04-30T14:35:58.996Z</time></trkpt><trkpt lat="39.84385847813497" lon="9.125817508750178"><ele>756.0</ele><time>2026-04-30T14:35:59.996Z</time></trkpt><trkpt lat="39.84409634736498" lon="9.125759099803176"><ele>756.0</ele><time>2026-04-30T14:36:00.996Z</time></trkpt><trkpt lat="39.84433557676706" lon="9.125704719203497"><ele>755.5</ele><time>2026-04-30T14:36:01.996Z</time></trkpt><trkpt lat="39.84457370416209" lon="9.125654944385973"><ele>755.0</ele><time>2026-04-30T14:36:02.996Z</time></trkpt><trkpt lat="39.84481179184278" lon="9.125609725821322"><ele>755.0</ele><time>2026-04-30T14:36:03.996Z</time></trkpt><trkpt lat="39.84504621897065" lon="9.12556744977085"><ele>755.0</ele><time>2026-04-30T14:36:04.996Z</time></trkpt><trkpt lat="39.84527482422611" lon="9.125539138136062"><ele>755.5</ele><time>2026-04-30T14:36:05.996Z</time></trkpt><trkpt lat="39.8455004374988" lon="9.125549022373201"><ele>756.0</ele><time>2026-04-30T14:36:06.996Z</time></trkpt><trkpt lat="39.84572388634224" lon="9.1256046042935"><ele>756.0</ele><time>2026-04-30T14:36:07.996Z</time></trkpt><trkpt lat="39.84594073126516" lon="9.12570031241149"><ele>756.0</ele><time>2026-04-30T14:36:08.996Z</time></trkpt><trkpt lat="39.84614663145653" lon="9.125800739569378"><ele>756.0</ele><time>2026-04-30T14:36:09.996Z</time></trkpt><trkpt lat="39.84634523464246" lon="9.125887185571676"><ele>756.0</ele><time>2026-04-30T14:36:10.996Z</time></trkpt><trkpt lat="39.846552093341224" lon="9.125979412501701"><ele>756.0</ele><time>2026-04-30T14:36:11.996Z</time></trkpt><trkpt lat="39.84675840250465" lon="9.126067687191073"><ele>756.0</ele><time>2026-04-30T14:36:12.996Z</time></trkpt><trkpt lat="39.84696902815814" lon="9.126159655270689"><ele>756.0</ele><time>2026-04-30T14:36:13.996Z</time></trkpt><trkpt lat="39.84717724767911" lon="9.126239858033337"><ele>756.0</ele><time>2026-04-30T14:36:14.996Z</time></trkpt><trkpt lat="39.84738452481586" lon="9.126302929970649"><ele>756.0</ele><time>2026-04-30T14:36:15.996Z</time></trkpt><trkpt lat="39.84759354854305" lon="9.126341275563934"><ele>755.6666666666666</ele><time>2026-04-30T14:36:16.996Z</time></trkpt><trkpt lat="39.847802661879065" lon="9.126340745289257"><ele>755.3333333333333</ele><time>2026-04-30T14:36:17.996Z</time></trkpt><trkpt lat="39.848016743176075" lon="9.126342155740048"><ele>755.0</ele><time>2026-04-30T14:36:18.996Z</time></trkpt><trkpt lat="39.84823609606402" lon="9.126337529158535"><ele>755.0</ele><time>2026-04-30T14:36:19.995Z</time></trkpt><trkpt lat="39.84845942176364" lon="9.126337335238649"><ele>755.0</ele><time>2026-04-30T14:36:20.995Z</time></trkpt><trkpt lat="39.84867806257148" lon="9.126340714471901"><ele>755.0</ele><time>2026-04-30T14:36:21.995Z</time></trkpt><trkpt lat="39.848904990743506" lon="9.126349757178994"><ele>756.5</ele><time>2026-04-30T14:36:22.995Z</time></trkpt><trkpt lat="39.84913272464022" lon="9.126356431183776"><ele>758.0</ele><time>2026-04-30T14:36:23.995Z</time></trkpt><trkpt lat="39.84935559841742" lon="9.12635510788798"><ele>759.6666666666666</ele><time>2026-04-30T14:36:24.995Z</time></trkpt><trkpt lat="39.849579678628096" lon="9.126352238626788"><ele>761.3333333333334</ele><time>2026-04-30T14:36:25.995Z</time></trkpt><trkpt lat="39.84980437861871" lon="9.126359046345991"><ele>763.0</ele><time>2026-04-30T14:36:26.995Z</time></trkpt><trkpt lat="39.85003119353005" lon="9.12636330660287"><ele>763.6666666666667</ele><time>2026-04-30T14:36:27.995Z</time></trkpt><trkpt lat="39.850249975013476" lon="9.126369389615027"><ele>764.3333333333334</ele><time>2026-04-30T14:36:28.995Z</time></trkpt><trkpt lat="39.850467699279264" lon="9.126385261865735"><ele>765.0</ele><time>2026-04-30T14:36:29.996Z</time></trkpt><trkpt lat="39.85068660252327" lon="9.126412106395152"><ele>765.0</ele><time>2026-04-30T14:36:30.996Z</time></trkpt><trkpt lat="39.85090970731169" lon="9.126436041599527"><ele>765.0</ele><time>2026-04-30T14:36:31.996Z</time></trkpt><trkpt lat="39.85113174400928" lon="9.1264543091784"><ele>765.0</ele><time>2026-04-30T14:36:32.995Z</time></trkpt><trkpt lat="39.851352067300944" lon="9.126475528173204"><ele>765.3333333333334</ele><time>2026-04-30T14:36:33.996Z</time></trkpt><trkpt lat="39.851574102743804" lon="9.126498353069799"><ele>765.6666666666667</ele><time>2026-04-30T14:36:34.996Z</time></trkpt><trkpt lat="39.85179520638958" lon="9.12652264553918"><ele>766.0</ele><time>2026-04-30T14:36:35.996Z</time></trkpt><trkpt lat="39.85201896439954" lon="9.126548050921718"><ele>765.0</ele><time>2026-04-30T14:36:36.995Z</time></trkpt><trkpt lat="39.85224739333341" lon="9.126570192735548"><ele>764.0</ele><time>2026-04-30T14:36:37.995Z</time></trkpt><trkpt lat="39.852470329158784" lon="9.126590202604598"><ele>763.5</ele><time>2026-04-30T14:36:38.996Z</time></trkpt><trkpt lat="39.852694857266314" lon="9.126610345817685"><ele>763.0</ele><time>2026-04-30T14:36:39.996Z</time></trkpt><trkpt lat="39.852920667489336" lon="9.12663438935894"><ele>763.0</ele><time>2026-04-30T14:36:40.996Z</time></trkpt><trkpt lat="39.853141886544" lon="9.126654178162633"><ele>763.0</ele><time>2026-04-30T14:36:41.996Z</time></trkpt><trkpt lat="39.853364486562164" lon="9.126681987839223"><ele>763.0</ele><time>2026-04-30T14:36:42.996Z</time></trkpt><trkpt lat="39.8535842443984" lon="9.126707338941385"><ele>763.5</ele><time>2026-04-30T14:36:43.996Z</time></trkpt><trkpt lat="39.853811666329904" lon="9.126730056866533"><ele>764.0</ele><time>2026-04-30T14:36:44.996Z</time></trkpt><trkpt lat="39.85404247814953" lon="9.12675023850813"><ele>764.0</ele><time>2026-04-30T14:36:45.996Z</time></trkpt><trkpt lat="39.85426893238032" lon="9.126757214897301"><ele>764.0</ele><time>2026-04-30T14:36:46.996Z</time></trkpt><trkpt lat="39.854498683690096" lon="9.12673655928368"><ele>763.5</ele><time>2026-04-30T14:36:47.996Z</time></trkpt><trkpt lat="39.85471960806663" lon="9.12669989306914"><ele>763.0</ele><time>2026-04-30T14:36:48.996Z</time></trkpt><trkpt lat="39.8549432237888" lon="9.12663134464499"><ele>764.0</ele><time>2026-04-30T14:36:49.996Z</time></trkpt><trkpt lat="39.85517063094636" lon="9.126565358541797"><ele>765.0</ele><time>2026-04-30T14:36:50.996Z</time></trkpt><trkpt lat="39.85539313695958" lon="9.126478763514514"><ele>765.0</ele><time>2026-04-30T14:36:51.996Z</time></trkpt><trkpt lat="39.85561304244938" lon="9.126375150325106"><ele>765.0</ele><time>2026-04-30T14:36:52.996Z</time></trkpt><trkpt lat="39.855818193812716" lon="9.126258630347396"><ele>766.3333333333333</ele><time>2026-04-30T14:36:53.996Z</time></trkpt><trkpt lat="39.856014373606016" lon="9.126123519255238"><ele>767.6666666666666</ele><time>2026-04-30T14:36:54.996Z</time></trkpt><trkpt lat="39.85620640344994" lon="9.125969912916545"><ele>769.0</ele><time>2026-04-30T14:36:55.996Z</time></trkpt><trkpt lat="39.85639490069347" lon="9.125805575064707"><ele>768.5</ele><time>2026-04-30T14:36:56.996Z</time></trkpt><trkpt lat="39.85657441554023" lon="9.12562703809336"><ele>768.0</ele><time>2026-04-30T14:36:57.996Z</time></trkpt><trkpt lat="39.85675163406645" lon="9.125447096795442"><ele>769.3333333333333</ele><time>2026-04-30T14:36:58.996Z</time></trkpt><trkpt lat="39.85693217129474" lon="9.125274971805174"><ele>770.6666666666666</ele><time>2026-04-30T14:36:59.996Z</time></trkpt><trkpt lat="39.85711160295977" lon="9.125103098594083"><ele>772.0</ele><time>2026-04-30T14:37:00.996Z</time></trkpt><trkpt lat="39.85729474924688" lon="9.124930794652167"><ele>771.3333333333333</ele><time>2026-04-30T14:37:01.996Z</time></trkpt><trkpt lat="39.85746920991144" lon="9.124753933322166"><ele>770.6666666666667</ele><time>2026-04-30T14:37:02.996Z</time></trkpt><trkpt lat="39.85765123798724" lon="9.124587319964478"><ele>770.0</ele><time>2026-04-30T14:37:03.996Z</time></trkpt><trkpt lat="39.85783356205653" lon="9.1244207813788"><ele>771.0</ele><time>2026-04-30T14:37:04.996Z</time></trkpt><trkpt lat="39.8580069215106" lon="9.124247610177365"><ele>772.0</ele><time>2026-04-30T14:37:05.996Z</time></trkpt><trkpt lat="39.858186204258665" lon="9.124074742797003"><ele>773.0</ele><time>2026-04-30T14:37:06.996Z</time></trkpt><trkpt lat="39.8583666859722" lon="9.123907087598045"><ele>774.0</ele><time>2026-04-30T14:37:07.996Z</time></trkpt><trkpt lat="39.858543038959645" lon="9.123742412293712"><ele>775.0</ele><time>2026-04-30T14:37:08.996Z</time></trkpt><trkpt lat="39.858722938003424" lon="9.123573002073428"><ele>776.0</ele><time>2026-04-30T14:37:09.996Z</time></trkpt><trkpt lat="39.85889767945721" lon="9.1234016343101"><ele>775.6666666666667</ele><time>2026-04-30T14:37:10.996Z</time></trkpt><trkpt lat="39.85907609296662" lon="9.123227523092556"><ele>775.3333333333333</ele><time>2026-04-30T14:37:11.996Z</time></trkpt><trkpt lat="39.8592503499546" lon="9.123055005273514"><ele>775.0</ele><time>2026-04-30T14:37:12.996Z</time></trkpt><trkpt lat="39.859434118562405" lon="9.122889111191627"><ele>775.0</ele><time>2026-04-30T14:37:13.996Z</time></trkpt><trkpt lat="39.859617216561276" lon="9.122716390172917"><ele>775.0</ele><time>2026-04-30T14:37:14.996Z</time></trkpt><trkpt lat="39.85979943584076" lon="9.122540758702874"><ele>775.0</ele><time>2026-04-30T14:37:15.996Z</time></trkpt><trkpt lat="39.8599796288515" lon="9.122359434092488"><ele>775.0</ele><time>2026-04-30T14:37:16.996Z</time></trkpt><trkpt lat="39.86016533303891" lon="9.122179147521223"><ele>775.0</ele><time>2026-04-30T14:37:17.996Z</time></trkpt><trkpt lat="39.860355660078966" lon="9.121999945844873"><ele>775.0</ele><time>2026-04-30T14:37:18.996Z</time></trkpt><trkpt lat="39.860540910713276" lon="9.121822065843913"><ele>775.0</ele><time>2026-04-30T14:37:19.996Z</time></trkpt><trkpt lat="39.86072183685153" lon="9.121657559733853"><ele>775.0</ele><time>2026-04-30T14:37:20.996Z</time></trkpt><trkpt lat="39.86088899352909" lon="9.121497905853323"><ele>775.0</ele><time>2026-04-30T14:37:21.996Z</time></trkpt><trkpt lat="39.861044047653984" lon="9.121350724959143"><ele>774.6666666666666</ele><time>2026-04-30T14:37:22.996Z</time></trkpt><trkpt lat="39.861182194413495" lon="9.121219858187859"><ele>774.3333333333333</ele><time>2026-04-30T14:37:23.996Z</time></trkpt><trkpt lat="39.861312738185816" lon="9.121099429130936"><ele>774.0</ele><time>2026-04-30T14:37:24.996Z</time></trkpt><trkpt lat="39.861428305774304" lon="9.12098848501718"><ele>774.0</ele><time>2026-04-30T14:37:25.996Z</time></trkpt><trkpt lat="39.86153697194497" lon="9.120888324062115"><ele>774.0</ele><time>2026-04-30T14:37:26.996Z</time></trkpt><trkpt lat="39.86164619604649" lon="9.120805201588409"><ele>774.0</ele><time>2026-04-30T14:37:27.995Z</time></trkpt><trkpt lat="39.86175719706799" lon="9.12074420034833"><ele>774.0</ele><time>2026-04-30T14:37:28.995Z</time></trkpt><trkpt lat="39.861868748847705" lon="9.120725228834404"><ele>773.8000000000001</ele><time>2026-04-30T14:37:29.995Z</time></trkpt><trkpt lat="39.861968798791295" lon="9.120734931193729"><ele>773.6</ele><time>2026-04-30T14:37:30.995Z</time></trkpt><trkpt lat="39.8620565232119" lon="9.120766044396076"><ele>773.4</ele><time>2026-04-30T14:37:31.995Z</time></trkpt><trkpt lat="39.86213938965356" lon="9.120817095903117"><ele>773.2</ele><time>2026-04-30T14:37:32.995Z</time></trkpt><trkpt lat="39.86222201068852" lon="9.1208795973472"><ele>773.0</ele><time>2026-04-30T14:37:33.995Z</time></trkpt><trkpt lat="39.86230094548479" lon="9.12096382709922"><ele>773.0</ele><time>2026-04-30T14:37:34.995Z</time></trkpt><trkpt lat="39.862374169675356" lon="9.121069475812533"><ele>773.0</ele><time>2026-04-30T14:37:35.995Z</time></trkpt><trkpt lat="39.86244811668645" lon="9.121196391384247"><ele>773.0</ele><time>2026-04-30T14:37:36.995Z</time></trkpt><trkpt lat="39.862514323092164" lon="9.121332306737958"><ele>773.0</ele><time>2026-04-30T14:37:37.995Z</time></trkpt><trkpt lat="39.86258562811194" lon="9.121463505488313"><ele>772.0</ele><time>2026-04-30T14:37:38.995Z</time></trkpt><trkpt lat="39.86265920222546" lon="9.121580715235895"><ele>771.0</ele><time>2026-04-30T14:37:39.995Z</time></trkpt><trkpt lat="39.86273268702758" lon="9.12170520517253"><ele>770.0</ele><time>2026-04-30T14:37:40.995Z</time></trkpt><trkpt lat="39.862809831674845" lon="9.121843653813338"><ele>769.0</ele><time>2026-04-30T14:37:41.995Z</time></trkpt><trkpt lat="39.86290015839752" lon="9.122001604683154"><ele>769.0</ele><time>2026-04-30T14:37:42.995Z</time></trkpt><trkpt lat="39.86299449509511" lon="9.122170153059743"><ele>769.0</ele><time>2026-04-30T14:37:43.995Z</time></trkpt><trkpt lat="39.86309167939419" lon="9.122351363020945"><ele>769.0</ele><time>2026-04-30T14:37:44.995Z</time></trkpt><trkpt lat="39.86320271003277" lon="9.122529083977017"><ele>769.0</ele><time>2026-04-30T14:37:45.995Z</time></trkpt><trkpt lat="39.863318312829726" lon="9.12271798668489"><ele>769.0</ele><time>2026-04-30T14:37:46.995Z</time></trkpt><trkpt lat="39.86343221743332" lon="9.1229140048682"><ele>769.0</ele><time>2026-04-30T14:37:47.995Z</time></trkpt><trkpt lat="39.86354743642213" lon="9.123120813997033"><ele>770.3333333333333</ele><time>2026-04-30T14:37:48.995Z</time></trkpt><trkpt lat="39.863667257528064" lon="9.123325183491888"><ele>771.6666666666667</ele><time>2026-04-30T14:37:49.995Z</time></trkpt><trkpt lat="39.863794291488425" lon="9.123539570604112"><ele>773.0</ele><time>2026-04-30T14:37:50.995Z</time></trkpt><trkpt lat="39.863921525228" lon="9.123753778963811"><ele>773.0</ele><time>2026-04-30T14:37:51.995Z</time></trkpt><trkpt lat="39.86404913721211" lon="9.123968213041362"><ele>773.0</ele><time>2026-04-30T14:37:52.995Z</time></trkpt><trkpt lat="39.86418339187175" lon="9.124186612022388"><ele>773.0</ele><time>2026-04-30T14:37:53.995Z</time></trkpt><trkpt lat="39.86431180684841" lon="9.124411100140037"><ele>774.0</ele><time>2026-04-30T14:37:54.995Z</time></trkpt><trkpt lat="39.86444102850687" lon="9.124636282020335"><ele>775.0</ele><time>2026-04-30T14:37:55.995Z</time></trkpt><trkpt lat="39.86457437689568" lon="9.124862818317943"><ele>776.0</ele><time>2026-04-30T14:37:56.995Z</time></trkpt><trkpt lat="39.864703618509445" lon="9.125088218024985"><ele>778.0</ele><time>2026-04-30T14:37:57.995Z</time></trkpt><trkpt lat="39.864835462935424" lon="9.125309583045345"><ele>780.0</ele><time>2026-04-30T14:37:58.995Z</time></trkpt><trkpt lat="39.8649576501789" lon="9.125525097895638"><ele>782.0</ele><time>2026-04-30T14:37:59.995Z</time></trkpt><trkpt lat="39.86508846157016" lon="9.125750690920356"><ele>785.3333333333334</ele><time>2026-04-30T14:38:00.995Z</time></trkpt><trkpt lat="39.86521786043003" lon="9.12597118700434"><ele>788.6666666666667</ele><time>2026-04-30T14:38:01.995Z</time></trkpt><trkpt lat="39.86535097064223" lon="9.126189209277275"><ele>792.0</ele><time>2026-04-30T14:38:02.995Z</time></trkpt><trkpt lat="39.865479881413066" lon="9.126411318821704"><ele>794.0</ele><time>2026-04-30T14:38:03.995Z</time></trkpt><trkpt lat="39.86560827629491" lon="9.126636316790806"><ele>796.0</ele><time>2026-04-30T14:38:04.995Z</time></trkpt><trkpt lat="39.8657364459106" lon="9.126856533813918"><ele>798.0</ele><time>2026-04-30T14:38:05.995Z</time></trkpt><trkpt lat="39.86586327921212" lon="9.127073784623022"><ele>798.6666666666667</ele><time>2026-04-30T14:38:06.995Z</time></trkpt><trkpt lat="39.86599653445876" lon="9.12729688099973"><ele>799.3333333333334</ele><time>2026-04-30T14:38:07.995Z</time></trkpt><trkpt lat="39.86612684510004" lon="9.127511484535587"><ele>800.0</ele><time>2026-04-30T14:38:08.995Z</time></trkpt><trkpt lat="39.86625586940187" lon="9.127722718266032"><ele>801.6666666666667</ele><time>2026-04-30T14:38:09.995Z</time></trkpt><trkpt lat="39.86638843483371" lon="9.127944613969193"><ele>803.3333333333333</ele><time>2026-04-30T14:38:10.995Z</time></trkpt><trkpt lat="39.866513632547765" lon="9.128159561617586"><ele>805.0</ele><time>2026-04-30T14:38:11.995Z</time></trkpt><trkpt lat="39.86664174788753" lon="9.128377471625223"><ele>805.6666666666666</ele><time>2026-04-30T14:38:12.995Z</time></trkpt><trkpt lat="39.86677344815915" lon="9.128595467973339"><ele>806.3333333333333</ele><time>2026-04-30T14:38:13.995Z</time></trkpt><trkpt lat="39.866904033233254" lon="9.128813763816794"><ele>807.0</ele><time>2026-04-30T14:38:14.995Z</time></trkpt><trkpt lat="39.86703009590857" lon="9.129031532796716"><ele>808.0</ele><time>2026-04-30T14:38:15.995Z</time></trkpt><trkpt lat="39.86715533572689" lon="9.129248739964265"><ele>809.0</ele><time>2026-04-30T14:38:16.995Z</time></trkpt><trkpt lat="39.86727784699097" lon="9.12946608789683"><ele>810.0</ele><time>2026-04-30T14:38:17.995Z</time></trkpt><trkpt lat="39.86740710057859" lon="9.12968136769672"><ele>810.0</ele><time>2026-04-30T14:38:18.995Z</time></trkpt><trkpt lat="39.8675452762864" lon="9.129891883519518"><ele>810.0</ele><time>2026-04-30T14:38:19.995Z</time></trkpt><trkpt lat="39.8676974060077" lon="9.130092529440272"><ele>810.0</ele><time>2026-04-30T14:38:20.995Z</time></trkpt><trkpt lat="39.86786689125801" lon="9.130278699364679"><ele>810.0</ele><time>2026-04-30T14:38:21.995Z</time></trkpt><trkpt lat="39.868049791088225" lon="9.130439765699784"><ele>810.0</ele><time>2026-04-30T14:38:22.995Z</time></trkpt><trkpt lat="39.868245594490396" lon="9.130589737763106"><ele>810.0</ele><time>2026-04-30T14:38:23.995Z</time></trkpt><trkpt lat="39.868451520303836" lon="9.130720221039848"><ele>812.5</ele><time>2026-04-30T14:38:24.995Z</time></trkpt><trkpt lat="39.86866807214881" lon="9.130823450250464"><ele>815.0</ele><time>2026-04-30T14:38:25.995Z</time></trkpt><trkpt lat="39.86888981650665" lon="9.130900909158617"><ele>815.0</ele><time>2026-04-30T14:38:26.995Z</time></trkpt><trkpt lat="39.86911499180874" lon="9.130958972720826"><ele>815.0</ele><time>2026-04-30T14:38:27.995Z</time></trkpt><trkpt lat="39.86934524881499" lon="9.130997125260759"><ele>814.0</ele><time>2026-04-30T14:38:28.995Z</time></trkpt><trkpt lat="39.869584312880654" lon="9.131008236796013"><ele>813.0</ele><time>2026-04-30T14:38:29.995Z</time></trkpt><trkpt lat="39.86982681332101" lon="9.131001797334282"><ele>813.0</ele><time>2026-04-30T14:38:30.995Z</time></trkpt><trkpt lat="39.87007017941706" lon="9.130991892222712"><ele>813.0</ele><time>2026-04-30T14:38:31.995Z</time></trkpt><trkpt lat="39.87031365333169" lon="9.130983997801982"><ele>813.5</ele><time>2026-04-30T14:38:32.995Z</time></trkpt><trkpt lat="39.87055631782313" lon="9.130980809405449"><ele>814.0</ele><time>2026-04-30T14:38:33.995Z</time></trkpt><trkpt lat="39.87080118459411" lon="9.130979244807797"><ele>815.5</ele><time>2026-04-30T14:38:34.995Z</time></trkpt><trkpt lat="39.87104621581775" lon="9.130979086527208"><ele>817.0</ele><time>2026-04-30T14:38:35.996Z</time></trkpt><trkpt lat="39.871287128726856" lon="9.130977549501171"><ele>817.0</ele><time>2026-04-30T14:38:36.996Z</time></trkpt><trkpt lat="39.871523282134646" lon="9.13097794996533"><ele>817.0</ele><time>2026-04-30T14:38:37.996Z</time></trkpt><trkpt lat="39.871758378421184" lon="9.130975531985436"><ele>818.0</ele><time>2026-04-30T14:38:38.996Z</time></trkpt><trkpt lat="39.871989506905116" lon="9.13097357730518"><ele>819.0</ele><time>2026-04-30T14:38:39.995Z</time></trkpt><trkpt lat="39.872221688120554" lon="9.130968617266157"><ele>819.0</ele><time>2026-04-30T14:38:40.995Z</time></trkpt><trkpt lat="39.872452992407034" lon="9.1309624981815"><ele>819.0</ele><time>2026-04-30T14:38:41.996Z</time></trkpt><trkpt lat="39.872682965181966" lon="9.130965426210917"><ele>820.5</ele><time>2026-04-30T14:38:42.996Z</time></trkpt><trkpt lat="39.872908730702015" lon="9.130969141347634"><ele>822.0</ele><time>2026-04-30T14:38:43.996Z</time></trkpt><trkpt lat="39.87313624119966" lon="9.130956244329935"><ele>822.0</ele><time>2026-04-30T14:38:44.996Z</time></trkpt><trkpt lat="39.87336482671152" lon="9.130904737382608"><ele>822.0</ele><time>2026-04-30T14:38:45.996Z</time></trkpt><trkpt lat="39.873587215906085" lon="9.130820673520516"><ele>822.0</ele><time>2026-04-30T14:38:46.996Z</time></trkpt><trkpt lat="39.87379931476349" lon="9.130697529888153"><ele>822.0</ele><time>2026-04-30T14:38:47.996Z</time></trkpt><trkpt lat="39.873997790545346" lon="9.130540362109622"><ele>822.0</ele><time>2026-04-30T14:38:48.996Z</time></trkpt><trkpt lat="39.87418459418531" lon="9.130363412385936"><ele>822.0</ele><time>2026-04-30T14:38:49.996Z</time></trkpt><trkpt lat="39.87436797032743" lon="9.130180564709244"><ele>823.0</ele><time>2026-04-30T14:38:50.996Z</time></trkpt><trkpt lat="39.87455284341268" lon="9.129997145512942"><ele>824.0</ele><time>2026-04-30T14:38:51.996Z</time></trkpt><trkpt lat="39.87474398959457" lon="9.129820215237558"><ele>824.0</ele><time>2026-04-30T14:38:52.995Z</time></trkpt><trkpt lat="39.874939861294266" lon="9.129638372767063"><ele>824.0</ele><time>2026-04-30T14:38:53.995Z</time></trkpt><trkpt lat="39.875134923335686" lon="9.12945230856068"><ele>824.5</ele><time>2026-04-30T14:38:54.995Z</time></trkpt><trkpt lat="39.875329824622625" lon="9.129265912172333"><ele>825.0</ele><time>2026-04-30T14:38:55.995Z</time></trkpt><trkpt lat="39.87551514985678" lon="9.129086575577029"><ele>822.5</ele><time>2026-04-30T14:38:56.995Z</time></trkpt><trkpt lat="39.8757011720506" lon="9.12890845106903"><ele>820.0</ele><time>2026-04-30T14:38:57.995Z</time></trkpt><trkpt lat="39.875878625720794" lon="9.12873131929614"><ele>821.3333333333333</ele><time>2026-04-30T14:38:58.995Z</time></trkpt><trkpt lat="39.87605175048651" lon="9.128561539224991"><ele>822.6666666666667</ele><time>2026-04-30T14:38:59.995Z</time></trkpt><trkpt lat="39.876225342938774" lon="9.128401336611464"><ele>824.0</ele><time>2026-04-30T14:39:00.995Z</time></trkpt><trkpt lat="39.87640153164894" lon="9.128234505410495"><ele>823.6666666666667</ele><time>2026-04-30T14:39:01.995Z</time></trkpt><trkpt lat="39.87657299469513" lon="9.12806221378328"><ele>823.3333333333333</ele><time>2026-04-30T14:39:02.995Z</time></trkpt><trkpt lat="39.87673868966519" lon="9.127895577640787"><ele>823.0</ele><time>2026-04-30T14:39:03.995Z</time></trkpt><trkpt lat="39.87691434490808" lon="9.127735445895693"><ele>824.0</ele><time>2026-04-30T14:39:04.995Z</time></trkpt><trkpt lat="39.87709318920472" lon="9.127564106129233"><ele>825.0</ele><time>2026-04-30T14:39:05.995Z</time></trkpt><trkpt lat="39.877270747137615" lon="9.1273894900221"><ele>826.0</ele><time>2026-04-30T14:39:06.995Z</time></trkpt><trkpt lat="39.87745176959004" lon="9.1272152350467"><ele>827.6666666666666</ele><time>2026-04-30T14:39:07.995Z</time></trkpt><trkpt lat="39.87763280217014" lon="9.12704114356583"><ele>829.3333333333333</ele><time>2026-04-30T14:39:08.995Z</time></trkpt><trkpt lat="39.87781135994465" lon="9.126867298347472"><ele>831.0</ele><time>2026-04-30T14:39:09.995Z</time></trkpt><trkpt lat="39.877989942792844" lon="9.126693003736072"><ele>831.6666666666667</ele><time>2026-04-30T14:39:10.995Z</time></trkpt><trkpt lat="39.87816941091732" lon="9.126524085955394"><ele>832.3333333333334</ele><time>2026-04-30T14:39:11.995Z</time></trkpt><trkpt lat="39.87834877635228" lon="9.126356054131213"><ele>833.0</ele><time>2026-04-30T14:39:12.995Z</time></trkpt><trkpt lat="39.87852679704161" lon="9.126188917235337"><ele>833.0</ele><time>2026-04-30T14:39:13.995Z</time></trkpt><trkpt lat="39.87870476085712" lon="9.126016436597965"><ele>833.0</ele><time>2026-04-30T14:39:14.995Z</time></trkpt><trkpt lat="39.87888822318551" lon="9.125843527492913"><ele>833.0</ele><time>2026-04-30T14:39:15.995Z</time></trkpt><trkpt lat="39.879071774362316" lon="9.125668602703858"><ele>834.5</ele><time>2026-04-30T14:39:16.995Z</time></trkpt><trkpt lat="39.879268955892826" lon="9.125502353387725"><ele>836.0</ele><time>2026-04-30T14:39:17.995Z</time></trkpt><trkpt lat="39.87946678092689" lon="9.125343724452051"><ele>836.0</ele><time>2026-04-30T14:39:18.995Z</time></trkpt><trkpt lat="39.879685256170816" lon="9.125216770648525"><ele>836.0</ele><time>2026-04-30T14:39:19.995Z</time></trkpt><trkpt lat="39.879924737359914" lon="9.125128608504273"><ele>835.5</ele><time>2026-04-30T14:39:20.995Z</time></trkpt><trkpt lat="39.88017937724917" lon="9.125073759567398"><ele>835.0</ele><time>2026-04-30T14:39:21.995Z</time></trkpt><trkpt lat="39.880437215601894" lon="9.125032261210832"><ele>835.0</ele><time>2026-04-30T14:39:22.995Z</time></trkpt><trkpt lat="39.88067857246441" lon="9.124967907855469"><ele>835.0</ele><time>2026-04-30T14:39:23.995Z</time></trkpt><trkpt lat="39.88091492607009" lon="9.124888939622469"><ele>836.0</ele><time>2026-04-30T14:39:24.995Z</time></trkpt><trkpt lat="39.880976604791975" lon="9.124627777003642"><ele>837.0</ele><time>2026-04-30T14:39:25.995Z</time></trkpt><trkpt lat="39.8812091786694" lon="9.124545069132685"><ele>837.0</ele><time>2026-04-30T14:39:26.995Z</time></trkpt><trkpt lat="39.88144249760743" lon="9.124468429450992"><ele>837.0</ele><time>2026-04-30T14:39:27.995Z</time></trkpt><trkpt lat="39.88167135050544" lon="9.124392755217766"><ele>838.0</ele><time>2026-04-30T14:39:28.995Z</time></trkpt><trkpt lat="39.88189932475965" lon="9.12431550506505"><ele>839.0</ele><time>2026-04-30T14:39:29.995Z</time></trkpt><trkpt lat="39.882121234705636" lon="9.124238892713795"><ele>839.0</ele><time>2026-04-30T14:39:30.995Z</time></trkpt><trkpt lat="39.88233592576703" lon="9.124169665406907"><ele>839.0</ele><time>2026-04-30T14:39:31.995Z</time></trkpt><trkpt lat="39.88255239850021" lon="9.124099709608549"><ele>839.0</ele><time>2026-04-30T14:39:32.995Z</time></trkpt><trkpt lat="39.88276670898189" lon="9.124022506622053"><ele>839.3333333333334</ele><time>2026-04-30T14:39:33.995Z</time></trkpt><trkpt lat="39.8829811502006" lon="9.123950318925013"><ele>839.6666666666667</ele><time>2026-04-30T14:39:34.995Z</time></trkpt><trkpt lat="39.883199017804955" lon="9.123872251535245"><ele>840.0</ele><time>2026-04-30T14:39:35.995Z</time></trkpt><trkpt lat="39.88341799618102" lon="9.123800256169249"><ele>840.0</ele><time>2026-04-30T14:39:36.995Z</time></trkpt><trkpt lat="39.8836394675716" lon="9.123724026730125"><ele>840.0</ele><time>2026-04-30T14:39:37.995Z</time></trkpt><trkpt lat="39.88385952667582" lon="9.123644831955698"><ele>840.0</ele><time>2026-04-30T14:39:38.995Z</time></trkpt><trkpt lat="39.88407924536177" lon="9.123562546850081"><ele>840.0</ele><time>2026-04-30T14:39:39.995Z</time></trkpt><trkpt lat="39.8842997991868" lon="9.123482728284438"><ele>841.0</ele><time>2026-04-30T14:39:40.995Z</time></trkpt><trkpt lat="39.884518652282345" lon="9.123401755781765"><ele>842.0</ele><time>2026-04-30T14:39:41.995Z</time></trkpt><trkpt lat="39.884742144248506" lon="9.123324916491903"><ele>842.0</ele><time>2026-04-30T14:39:42.995Z</time></trkpt><trkpt lat="39.88496356581509" lon="9.123250580242457"><ele>842.0</ele><time>2026-04-30T14:39:43.995Z</time></trkpt><trkpt lat="39.885183860582885" lon="9.123175594867748"><ele>843.6666666666667</ele><time>2026-04-30T14:39:44.995Z</time></trkpt><trkpt lat="39.88540184013297" lon="9.123101350366548"><ele>845.3333333333333</ele><time>2026-04-30T14:39:45.995Z</time></trkpt><trkpt lat="39.885618281145774" lon="9.123029173241898"><ele>847.0</ele><time>2026-04-30T14:39:46.995Z</time></trkpt><trkpt lat="39.88583509330875" lon="9.122955196065158"><ele>848.0</ele><time>2026-04-30T14:39:47.995Z</time></trkpt><trkpt lat="39.88605085322928" lon="9.122877188729936"><ele>849.0</ele><time>2026-04-30T14:39:48.995Z</time></trkpt><trkpt lat="39.886265585476565" lon="9.122806037910689"><ele>850.0</ele><time>2026-04-30T14:39:49.995Z</time></trkpt><trkpt lat="39.88647847036117" lon="9.122732151207435"><ele>850.0</ele><time>2026-04-30T14:39:50.995Z</time></trkpt><trkpt lat="39.886691215655354" lon="9.122653572636255"><ele>850.0</ele><time>2026-04-30T14:39:51.995Z</time></trkpt><trkpt lat="39.88690004438587" lon="9.12257659094885"><ele>850.0</ele><time>2026-04-30T14:39:52.995Z</time></trkpt><trkpt lat="39.88711021137818" lon="9.122511333711168"><ele>851.0</ele><time>2026-04-30T14:39:53.995Z</time></trkpt><trkpt lat="39.887319005904935" lon="9.122438812653112"><ele>852.0</ele><time>2026-04-30T14:39:54.995Z</time></trkpt><trkpt lat="39.88753029965828" lon="9.122360937301835"><ele>853.0</ele><time>2026-04-30T14:39:55.995Z</time></trkpt><trkpt lat="39.887744806225626" lon="9.12228248482162"><ele>854.0</ele><time>2026-04-30T14:39:56.995Z</time></trkpt><trkpt lat="39.88795990528769" lon="9.122215385878233"><ele>855.0</ele><time>2026-04-30T14:39:57.995Z</time></trkpt><trkpt lat="39.88817201494788" lon="9.122140339435438"><ele>856.0</ele><time>2026-04-30T14:39:58.995Z</time></trkpt><trkpt lat="39.888390064270695" lon="9.122066012062369"><ele>857.3333333333333</ele><time>2026-04-30T14:39:59.995Z</time></trkpt><trkpt lat="39.888606220691976" lon="9.121994898363234"><ele>858.6666666666667</ele><time>2026-04-30T14:40:00.995Z</time></trkpt><trkpt lat="39.8888221246325" lon="9.121924217318426"><ele>860.0</ele><time>2026-04-30T14:40:01.995Z</time></trkpt><trkpt lat="39.88903255118689" lon="9.121853892885113"><ele>860.0</ele><time>2026-04-30T14:40:02.995Z</time></trkpt><trkpt lat="39.88922002872139" lon="9.121786709856675"><ele>860.0</ele><time>2026-04-30T14:40:03.995Z</time></trkpt><trkpt lat="39.88939799532479" lon="9.121689949035758"><ele>860.0</ele><time>2026-04-30T14:40:04.995Z</time></trkpt><trkpt lat="39.8895893029583" lon="9.121550436915129"><ele>858.3333333333334</ele><time>2026-04-30T14:40:05.995Z</time></trkpt><trkpt lat="39.88977338196671" lon="9.121384566877344"><ele>856.6666666666667</ele><time>2026-04-30T14:40:06.995Z</time></trkpt><trkpt lat="39.88994634517221" lon="9.121200875258731"><ele>855.0</ele><time>2026-04-30T14:40:07.995Z</time></trkpt><trkpt lat="39.89008622947731" lon="9.120987733785565"><ele>853.6666666666667</ele><time>2026-04-30T14:40:08.995Z</time></trkpt><trkpt lat="39.89021812993812" lon="9.120766200811095"><ele>852.3333333333334</ele><time>2026-04-30T14:40:09.995Z</time></trkpt><trkpt lat="39.89035184196499" lon="9.120556823826107"><ele>851.0</ele><time>2026-04-30T14:40:10.995Z</time></trkpt><trkpt lat="39.89048592424355" lon="9.120367803751448"><ele>849.6666666666667</ele><time>2026-04-30T14:40:11.995Z</time></trkpt><trkpt lat="39.890623400633366" lon="9.120200928660886"><ele>848.3333333333333</ele><time>2026-04-30T14:40:12.995Z</time></trkpt><trkpt lat="39.89074681744943" lon="9.12001796317753"><ele>847.0</ele><time>2026-04-30T14:40:13.995Z</time></trkpt><trkpt lat="39.890873553181756" lon="9.119833583396334"><ele>845.0</ele><time>2026-04-30T14:40:14.995Z</time></trkpt><trkpt lat="39.891008094032514" lon="9.119644997753936"><ele>843.0</ele><time>2026-04-30T14:40:15.995Z</time></trkpt><trkpt lat="39.89113641064938" lon="9.11946153260218"><ele>841.0</ele><time>2026-04-30T14:40:16.995Z</time></trkpt><trkpt lat="39.891249711308035" lon="9.119298008842817"><ele>841.0</ele><time>2026-04-30T14:40:17.995Z</time></trkpt><trkpt lat="39.891343947143355" lon="9.119140930590168"><ele>841.0</ele><time>2026-04-30T14:40:18.995Z</time></trkpt><trkpt lat="39.89143088638997" lon="9.11902102665403"><ele>841.0</ele><time>2026-04-30T14:40:19.995Z</time></trkpt><trkpt lat="39.89149836538206" lon="9.118940491507205"><ele>841.0</ele><time>2026-04-30T14:40:20.995Z</time></trkpt><trkpt lat="39.89155090572759" lon="9.118874203766726"><ele>841.0</ele><time>2026-04-30T14:40:21.995Z</time></trkpt><trkpt lat="39.89161465469085" lon="9.118820126697791"><ele>840.25</ele><time>2026-04-30T14:40:22.995Z</time></trkpt><trkpt lat="39.89170745832892" lon="9.118785785936778"><ele>839.5</ele><time>2026-04-30T14:40:23.995Z</time></trkpt><trkpt lat="39.891817824036735" lon="9.118767443652827"><ele>838.75</ele><time>2026-04-30T14:40:24.995Z</time></trkpt><trkpt lat="39.891944083970955" lon="9.118755031879852"><ele>838.0</ele><time>2026-04-30T14:40:25.995Z</time></trkpt><trkpt lat="39.892086762621446" lon="9.118751402144932"><ele>838.0</ele><time>2026-04-30T14:40:26.995Z</time></trkpt><trkpt lat="39.892403701906304" lon="9.118704905274283"><ele>838.0</ele><time>2026-04-30T14:40:28.995Z</time></trkpt><trkpt lat="39.89258256279249" lon="9.11867932459124"><ele>837.6666666666666</ele><time>2026-04-30T14:40:29.995Z</time></trkpt><trkpt lat="39.89277362693975" lon="9.118653087774387"><ele>837.3333333333333</ele><time>2026-04-30T14:40:30.995Z</time></trkpt><trkpt lat="39.892974864336345" lon="9.118621059065278"><ele>837.0</ele><time>2026-04-30T14:40:31.995Z</time></trkpt><trkpt lat="39.89317946036724" lon="9.118587318833777"><ele>837.0</ele><time>2026-04-30T14:40:32.995Z</time></trkpt><trkpt lat="39.8934071233585" lon="9.11855810969687"><ele>837.0</ele><time>2026-04-30T14:40:33.995Z</time></trkpt><trkpt lat="39.893639386100894" lon="9.118526545713324"><ele>835.5</ele><time>2026-04-30T14:40:34.995Z</time></trkpt><trkpt lat="39.89387458787983" lon="9.1184976768107"><ele>834.0</ele><time>2026-04-30T14:40:35.995Z</time></trkpt><trkpt lat="39.89411279059216" lon="9.118467097645128"><ele>832.0</ele><time>2026-04-30T14:40:36.995Z</time></trkpt><trkpt lat="39.89435187620073" lon="9.11843777053424"><ele>830.0</ele><time>2026-04-30T14:40:37.995Z</time></trkpt><trkpt lat="39.89458618671377" lon="9.118408973564282"><ele>830.0</ele><time>2026-04-30T14:40:38.995Z</time></trkpt><trkpt lat="39.894822480459865" lon="9.118379324951581"><ele>830.0</ele><time>2026-04-30T14:40:39.995Z</time></trkpt><trkpt lat="39.89506504393256" lon="9.118354986392298"><ele>828.5</ele><time>2026-04-30T14:40:40.995Z</time></trkpt><trkpt lat="39.89529766982998" lon="9.118327499441154"><ele>827.0</ele><time>2026-04-30T14:40:41.995Z</time></trkpt><trkpt lat="39.89553303512563" lon="9.118298404270021"><ele>827.0</ele><time>2026-04-30T14:40:42.995Z</time></trkpt><trkpt lat="39.89577056316972" lon="9.11828413337488"><ele>827.0</ele><time>2026-04-30T14:40:43.995Z</time></trkpt><trkpt lat="39.89600818507099" lon="9.118291109786055"><ele>825.5</ele><time>2026-04-30T14:40:44.995Z</time></trkpt><trkpt lat="39.896246215296784" lon="9.11831886508678"><ele>824.0</ele><time>2026-04-30T14:40:45.995Z</time></trkpt><trkpt lat="39.8964819868098" lon="9.118352607851829"><ele>824.0</ele><time>2026-04-30T14:40:46.995Z</time></trkpt><trkpt lat="39.89672163226718" lon="9.118374358992687"><ele>824.0</ele><time>2026-04-30T14:40:47.996Z</time></trkpt><trkpt lat="39.8969611532322" lon="9.118390990886953"><ele>823.0</ele><time>2026-04-30T14:40:48.996Z</time></trkpt><trkpt lat="39.89719586732921" lon="9.118406567762126"><ele>822.0</ele><time>2026-04-30T14:40:49.995Z</time></trkpt><trkpt lat="39.89743366356504" lon="9.118430136726127"><ele>819.0</ele><time>2026-04-30T14:40:50.996Z</time></trkpt><trkpt lat="39.89767387468335" lon="9.118453197002491"><ele>816.0</ele><time>2026-04-30T14:40:51.995Z</time></trkpt><trkpt lat="39.897906869995275" lon="9.118471268807395"><ele>816.0</ele><time>2026-04-30T14:40:52.995Z</time></trkpt><trkpt lat="39.89814422839667" lon="9.118488325853681"><ele>816.0</ele><time>2026-04-30T14:40:53.995Z</time></trkpt><trkpt lat="39.898374348309346" lon="9.118505920658356"><ele>815.0</ele><time>2026-04-30T14:40:54.995Z</time></trkpt><trkpt lat="39.89860234753022" lon="9.11852751284452"><ele>814.0</ele><time>2026-04-30T14:40:55.995Z</time></trkpt><trkpt lat="39.89881751679001" lon="9.118548219733526"><ele>813.0</ele><time>2026-04-30T14:40:56.995Z</time></trkpt><trkpt lat="39.8990212299922" lon="9.11856846041459"><ele>813.0</ele><time>2026-04-30T14:40:57.995Z</time></trkpt><trkpt lat="39.89921677329834" lon="9.118607158344663"><ele>813.0</ele><time>2026-04-30T14:40:58.995Z</time></trkpt><trkpt lat="39.89938652502666" lon="9.118713705417711"><ele>813.0</ele><time>2026-04-30T14:40:59.995Z</time></trkpt><trkpt lat="39.899527304488004" lon="9.118884373850742"><ele>810.3333333333333</ele><time>2026-04-30T14:41:00.995Z</time></trkpt><trkpt lat="39.89967284890981" lon="9.119084012096298"><ele>807.6666666666666</ele><time>2026-04-30T14:41:01.995Z</time></trkpt><trkpt lat="39.89984094316472" lon="9.119266291238732"><ele>805.0</ele><time>2026-04-30T14:41:02.995Z</time></trkpt><trkpt lat="39.90001021613136" lon="9.119433346660054"><ele>805.6666666666666</ele><time>2026-04-30T14:41:03.995Z</time></trkpt><trkpt lat="39.90018338976319" lon="9.119611063703262"><ele>806.3333333333333</ele><time>2026-04-30T14:41:04.995Z</time></trkpt><trkpt lat="39.90036081160977" lon="9.119793108969752"><ele>807.0</ele><time>2026-04-30T14:41:05.995Z</time></trkpt><trkpt lat="39.90053916507655" lon="9.119982276981665"><ele>805.0</ele><time>2026-04-30T14:41:06.995Z</time></trkpt><trkpt lat="39.90071926208222" lon="9.120158009671586"><ele>803.0</ele><time>2026-04-30T14:41:07.995Z</time></trkpt><trkpt lat="39.900899395394866" lon="9.120337142669042"><ele>804.0</ele><time>2026-04-30T14:41:08.995Z</time></trkpt><trkpt lat="39.90108257411106" lon="9.120526049200784"><ele>805.0</ele><time>2026-04-30T14:41:09.995Z</time></trkpt><trkpt lat="39.901265180542104" lon="9.120711492095403"><ele>802.5</ele><time>2026-04-30T14:41:10.995Z</time></trkpt><trkpt lat="39.901449233128155" lon="9.120889064493051"><ele>800.0</ele><time>2026-04-30T14:41:11.995Z</time></trkpt><trkpt lat="39.9016263958248" lon="9.12106341308667"><ele>800.0</ele><time>2026-04-30T14:41:12.995Z</time></trkpt><trkpt lat="39.901799550909196" lon="9.121241567935272"><ele>800.0</ele><time>2026-04-30T14:41:13.995Z</time></trkpt><trkpt lat="39.90196833087018" lon="9.121417495041959"><ele>800.0</ele><time>2026-04-30T14:41:14.995Z</time></trkpt><trkpt lat="39.90213586010563" lon="9.121589243631893"><ele>800.0</ele><time>2026-04-30T14:41:15.995Z</time></trkpt><trkpt lat="39.90229639150454" lon="9.121759738361947"><ele>800.0</ele><time>2026-04-30T14:41:16.995Z</time></trkpt><trkpt lat="39.90245699402787" lon="9.121916600055254"><ele>800.0</ele><time>2026-04-30T14:41:17.995Z</time></trkpt><trkpt lat="39.90261938378816" lon="9.122069880970313"><ele>802.0</ele><time>2026-04-30T14:41:18.995Z</time></trkpt><trkpt lat="39.90277427901043" lon="9.122226390242947"><ele>804.0</ele><time>2026-04-30T14:41:19.995Z</time></trkpt><trkpt lat="39.902921268502766" lon="9.122376689579864"><ele>806.0</ele><time>2026-04-30T14:41:20.995Z</time></trkpt><trkpt lat="39.903065561170536" lon="9.122490852388214"><ele>806.0</ele><time>2026-04-30T14:41:21.995Z</time></trkpt><trkpt lat="39.90322069079194" lon="9.12251323332308"><ele>806.0</ele><time>2026-04-30T14:41:22.995Z</time></trkpt><trkpt lat="39.90337804583407" lon="9.122462355114969"><ele>806.0</ele><time>2026-04-30T14:41:23.995Z</time></trkpt><trkpt lat="39.90351969276042" lon="9.12239247588603"><ele>804.5</ele><time>2026-04-30T14:41:24.995Z</time></trkpt><trkpt lat="39.90365339348104" lon="9.122335594083502"><ele>803.0</ele><time>2026-04-30T14:41:25.995Z</time></trkpt><trkpt lat="39.903788627971224" lon="9.12229649370305"><ele>801.5</ele><time>2026-04-30T14:41:26.995Z</time></trkpt><trkpt lat="39.90391778965846" lon="9.122322291999135"><ele>800.0</ele><time>2026-04-30T14:41:27.995Z</time></trkpt><trkpt lat="39.90403033265647" lon="9.122416697431351"><ele>800.0</ele><time>2026-04-30T14:41:28.995Z</time></trkpt><trkpt lat="39.90412680047272" lon="9.122562622866466"><ele>800.0</ele><time>2026-04-30T14:41:29.995Z</time></trkpt><trkpt lat="39.90423476607796" lon="9.122746112820836"><ele>800.0</ele><time>2026-04-30T14:41:30.995Z</time></trkpt><trkpt lat="39.90432356911991" lon="9.12295306843953"><ele>798.0</ele><time>2026-04-30T14:41:31.995Z</time></trkpt><trkpt lat="39.9043892402828" lon="9.123167431673332"><ele>796.0</ele><time>2026-04-30T14:41:32.995Z</time></trkpt><trkpt lat="39.9044330644576" lon="9.123401899260996"><ele>794.0</ele><time>2026-04-30T14:41:33.995Z</time></trkpt><trkpt lat="39.90449381587002" lon="9.123580426103208"><ele>794.0</ele><time>2026-04-30T14:41:34.995Z</time></trkpt><trkpt lat="39.90460705041496" lon="9.123671727094068"><ele>794.0</ele><time>2026-04-30T14:41:35.995Z</time></trkpt><trkpt lat="39.904757014594864" lon="9.12366943085212"><ele>794.0</ele><time>2026-04-30T14:41:36.995Z</time></trkpt><trkpt lat="39.90490456251788" lon="9.123568790383645"><ele>794.0</ele><time>2026-04-30T14:41:37.995Z</time></trkpt><trkpt lat="39.905035508788046" lon="9.123394439479204"><ele>794.0</ele><time>2026-04-30T14:41:38.995Z</time></trkpt><trkpt lat="39.90515762707169" lon="9.123200861530314"><ele>794.0</ele><time>2026-04-30T14:41:39.995Z</time></trkpt><trkpt lat="39.905298634914196" lon="9.123032511227546"><ele>793.3333333333334</ele><time>2026-04-30T14:41:40.995Z</time></trkpt><trkpt lat="39.90545061992883" lon="9.122852128283014"><ele>792.6666666666667</ele><time>2026-04-30T14:41:41.995Z</time></trkpt><trkpt lat="39.90560352290821" lon="9.122661488169246"><ele>792.0</ele><time>2026-04-30T14:41:42.995Z</time></trkpt><trkpt lat="39.905741995152134" lon="9.12245377039442"><ele>789.3333333333333</ele><time>2026-04-30T14:41:43.995Z</time></trkpt><trkpt lat="39.905874104065965" lon="9.12224982142342"><ele>786.6666666666666</ele><time>2026-04-30T14:41:44.995Z</time></trkpt><trkpt lat="39.90602177811964" lon="9.122066325093389"><ele>784.0</ele><time>2026-04-30T14:41:45.995Z</time></trkpt><trkpt lat="39.90619707163517" lon="9.121926076885767"><ele>784.0</ele><time>2026-04-30T14:41:46.995Z</time></trkpt><trkpt lat="39.90635891794566" lon="9.121801975478586"><ele>784.0</ele><time>2026-04-30T14:41:47.995Z</time></trkpt><trkpt lat="39.90651443638717" lon="9.121689807229519"><ele>784.0</ele><time>2026-04-30T14:41:48.995Z</time></trkpt><trkpt lat="39.906632761082555" lon="9.121550818806966"><ele>787.6666666666666</ele><time>2026-04-30T14:41:49.995Z</time></trkpt><trkpt lat="39.90668068207457" lon="9.121332081028525"><ele>791.3333333333333</ele><time>2026-04-30T14:41:50.995Z</time></trkpt><trkpt lat="39.906697714270315" lon="9.121062993724124"><ele>795.0</ele><time>2026-04-30T14:41:51.995Z</time></trkpt><trkpt lat="39.90674511127886" lon="9.120815226817829"><ele>784.3333333333334</ele><time>2026-04-30T14:41:52.995Z</time></trkpt><trkpt lat="39.90686081506256" lon="9.120619178190053"><ele>773.6666666666667</ele><time>2026-04-30T14:41:53.995Z</time></trkpt><trkpt lat="39.90702243547886" lon="9.120476495738215"><ele>763.0</ele><time>2026-04-30T14:41:54.995Z</time></trkpt><trkpt lat="39.907212315267365" lon="9.120361090304332"><ele>763.0</ele><time>2026-04-30T14:41:55.995Z</time></trkpt><trkpt lat="39.90739300172538" lon="9.120209825101515"><ele>763.0</ele><time>2026-04-30T14:41:56.995Z</time></trkpt><trkpt lat="39.907570352261295" lon="9.120049577607562"><ele>763.0</ele><time>2026-04-30T14:41:57.995Z</time></trkpt><trkpt lat="39.90774868159796" lon="9.119880267330739"><ele>759.6666666666667</ele><time>2026-04-30T14:41:58.995Z</time></trkpt><trkpt lat="39.90789501074445" lon="9.119711458653603"><ele>756.3333333333334</ele><time>2026-04-30T14:41:59.995Z</time></trkpt><trkpt lat="39.908016329139784" lon="9.119526444203686"><ele>753.0</ele><time>2026-04-30T14:42:00.995Z</time></trkpt><trkpt lat="39.908101970696436" lon="9.119344235601758"><ele>753.0</ele><time>2026-04-30T14:42:01.995Z</time></trkpt><trkpt lat="39.90817078055681" lon="9.119193565186734"><ele>753.0</ele><time>2026-04-30T14:42:02.995Z</time></trkpt><trkpt lat="39.90827264380975" lon="9.119147866010502"><ele>753.0</ele><time>2026-04-30T14:42:03.995Z</time></trkpt><trkpt lat="39.90839432769015" lon="9.119220852377905"><ele>753.0</ele><time>2026-04-30T14:42:04.995Z</time></trkpt><trkpt lat="39.90848279932749" lon="9.11939954854753"><ele>755.5</ele><time>2026-04-30T14:42:05.995Z</time></trkpt><trkpt lat="39.90856458060236" lon="9.11958526897725"><ele>758.0</ele><time>2026-04-30T14:42:06.995Z</time></trkpt><trkpt lat="39.90865927341251" lon="9.119707505989075"><ele>760.5</ele><time>2026-04-30T14:42:07.995Z</time></trkpt><trkpt lat="39.90876519571918" lon="9.119725332361735"><ele>763.0</ele><time>2026-04-30T14:42:08.995Z</time></trkpt><trkpt lat="39.9089056952156" lon="9.11963186392397"><ele>763.0</ele><time>2026-04-30T14:42:09.995Z</time></trkpt><trkpt lat="39.90901651358008" lon="9.119433431020951"><ele>763.0</ele><time>2026-04-30T14:42:10.995Z</time></trkpt><trkpt lat="39.90908850246883" lon="9.119178243598077"><ele>763.0</ele><time>2026-04-30T14:42:11.995Z</time></trkpt><trkpt lat="39.909164987700876" lon="9.118924285774884"><ele>762.0</ele><time>2026-04-30T14:42:12.995Z</time></trkpt><trkpt lat="39.909256494965796" lon="9.118676836564372"><ele>761.0</ele><time>2026-04-30T14:42:13.995Z</time></trkpt><trkpt lat="39.909349329534415" lon="9.118438266885004"><ele>760.0</ele><time>2026-04-30T14:42:14.995Z</time></trkpt><trkpt lat="39.909447011810535" lon="9.118198204484868"><ele>753.3333333333334</ele><time>2026-04-30T14:42:15.994Z</time></trkpt><trkpt lat="39.909572090932166" lon="9.117976978949319"><ele>746.6666666666666</ele><time>2026-04-30T14:42:16.994Z</time></trkpt><trkpt lat="39.90970402509903" lon="9.117761613381443"><ele>740.0</ele><time>2026-04-30T14:42:17.994Z</time></trkpt><trkpt lat="39.90985428536009" lon="9.11757339681648"><ele>733.6666666666666</ele><time>2026-04-30T14:42:18.994Z</time></trkpt><trkpt lat="39.91002419230996" lon="9.117385079332562"><ele>727.3333333333334</ele><time>2026-04-30T14:42:19.994Z</time></trkpt><trkpt lat="39.91019238116167" lon="9.117196487216445"><ele>721.0</ele><time>2026-04-30T14:42:20.994Z</time></trkpt><trkpt lat="39.910357408563875" lon="9.117014613864804"><ele>721.0</ele><time>2026-04-30T14:42:21.994Z</time></trkpt><trkpt lat="39.91050078565173" lon="9.116851639877318"><ele>721.0</ele><time>2026-04-30T14:42:22.994Z</time></trkpt><trkpt lat="39.91058865652966" lon="9.116774577271347"><ele>721.0</ele><time>2026-04-30T14:42:23.994Z</time></trkpt><trkpt lat="39.910723816464895" lon="9.11676794616041"><ele>721.0</ele><time>2026-04-30T14:42:24.994Z</time></trkpt><trkpt lat="39.91077929692032" lon="9.11689293370683"><ele>721.0</ele><time>2026-04-30T14:42:25.994Z</time></trkpt><trkpt lat="39.910852038070296" lon="9.116974062291611"><ele>721.0</ele><time>2026-04-30T14:42:26.994Z</time></trkpt><trkpt lat="39.9108189776863" lon="9.117161747214928"><ele>721.0</ele><time>2026-04-30T14:42:27.994Z</time></trkpt><trkpt lat="39.91071295300282" lon="9.11740002861241"><ele>724.6666666666667</ele><time>2026-04-30T14:42:28.994Z</time></trkpt><trkpt lat="39.910633214158395" lon="9.117643907899863"><ele>728.3333333333334</ele><time>2026-04-30T14:42:29.994Z</time></trkpt><trkpt lat="39.91059975107725" lon="9.117846755342093"><ele>732.0</ele><time>2026-04-30T14:42:30.994Z</time></trkpt><trkpt lat="39.91062519364982" lon="9.118027974142857"><ele>732.0</ele><time>2026-04-30T14:42:31.994Z</time></trkpt><trkpt lat="39.91071943438639" lon="9.11815475642072"><ele>732.0</ele><time>2026-04-30T14:42:32.994Z</time></trkpt><trkpt lat="39.910861620291826" lon="9.11819461166176"><ele>732.0</ele><time>2026-04-30T14:42:33.994Z</time></trkpt><trkpt lat="39.911008701764125" lon="9.11813424748445"><ele>732.0</ele><time>2026-04-30T14:42:34.994Z</time></trkpt><trkpt lat="39.911133012877286" lon="9.117969294045777"><ele>743.0</ele><time>2026-04-30T14:42:35.994Z</time></trkpt><trkpt lat="39.91125668928583" lon="9.117721950159634"><ele>754.0</ele><time>2026-04-30T14:42:36.994Z</time></trkpt><trkpt lat="39.91137416401821" lon="9.117444387373364"><ele>745.5</ele><time>2026-04-30T14:42:37.994Z</time></trkpt><trkpt lat="39.91150547595292" lon="9.117163301977348"><ele>737.0</ele><time>2026-04-30T14:42:38.994Z</time></trkpt><trkpt lat="39.91162110326005" lon="9.116860990747425"><ele>731.5</ele><time>2026-04-30T14:42:39.994Z</time></trkpt><trkpt lat="39.91169465875127" lon="9.116539742715172"><ele>726.0</ele><time>2026-04-30T14:42:40.994Z</time></trkpt><trkpt lat="39.911753413206426" lon="9.116232198050344"><ele>746.5</ele><time>2026-04-30T14:42:41.994Z</time></trkpt><trkpt lat="39.91179029357396" lon="9.115927767309186"><ele>767.0</ele><time>2026-04-30T14:42:42.994Z</time></trkpt><trkpt lat="39.91178212985915" lon="9.115630382905657"><ele>767.0</ele><time>2026-04-30T14:42:43.994Z</time></trkpt><trkpt lat="39.911748307156" lon="9.115353107074965"><ele>767.0</ele><time>2026-04-30T14:42:44.994Z</time></trkpt><trkpt lat="39.91169599171426" lon="9.115069251247542"><ele>767.0</ele><time>2026-04-30T14:42:45.994Z</time></trkpt><trkpt lat="39.91156464242334" lon="9.114792076862853"><ele>749.0</ele><time>2026-04-30T14:42:46.994Z</time></trkpt><trkpt lat="39.91143494701646" lon="9.11452373991298"><ele>731.0</ele><time>2026-04-30T14:42:47.996Z</time></trkpt><trkpt lat="39.9113229958929" lon="9.114246588652293"><ele>725.0</ele><time>2026-04-30T14:42:48.995Z</time></trkpt><trkpt lat="39.911260787619746" lon="9.113970285878748"><ele>719.0</ele><time>2026-04-30T14:42:49.995Z</time></trkpt><trkpt lat="39.9112662155264" lon="9.113658920345133"><ele>719.0</ele><time>2026-04-30T14:42:50.995Z</time></trkpt><trkpt lat="39.911316367196186" lon="9.113356883373015"><ele>719.0</ele><time>2026-04-30T14:42:51.995Z</time></trkpt><trkpt lat="39.91137831633749" lon="9.113081083625906"><ele>710.6666666666666</ele><time>2026-04-30T14:42:52.995Z</time></trkpt><trkpt lat="39.91143017914235" lon="9.112844040434934"><ele>702.3333333333334</ele><time>2026-04-30T14:42:53.996Z</time></trkpt><trkpt lat="39.91150198492184" lon="9.112638764099284"><ele>694.0</ele><time>2026-04-30T14:42:54.995Z</time></trkpt><trkpt lat="39.91161604690466" lon="9.112491550019998"><ele>690.0</ele><time>2026-04-30T14:42:55.995Z</time></trkpt><trkpt lat="39.91177984687012" lon="9.112452929821119"><ele>686.0</ele><time>2026-04-30T14:42:56.995Z</time></trkpt><trkpt lat="39.91200581985336" lon="9.112585985283689"><ele>682.0</ele><time>2026-04-30T14:42:57.995Z</time></trkpt><trkpt lat="39.91223947183741" lon="9.112786847878741"><ele>682.0</ele><time>2026-04-30T14:42:58.995Z</time></trkpt><trkpt lat="39.91246052315402" lon="9.112958357866601"><ele>682.0</ele><time>2026-04-30T14:42:59.995Z</time></trkpt><trkpt lat="39.912641791608124" lon="9.113064602808617"><ele>680.3333333333334</ele><time>2026-04-30T14:43:00.995Z</time></trkpt><trkpt lat="39.912836991622115" lon="9.11307582241415"><ele>678.6666666666666</ele><time>2026-04-30T14:43:01.995Z</time></trkpt><trkpt lat="39.91304821200746" lon="9.113009471823295"><ele>677.0</ele><time>2026-04-30T14:43:02.995Z</time></trkpt><trkpt lat="39.91327764869042" lon="9.112967848295634"><ele>680.5</ele><time>2026-04-30T14:43:03.995Z</time></trkpt><trkpt lat="39.91351082050366" lon="9.112991303302753"><ele>684.0</ele><time>2026-04-30T14:43:04.995Z</time></trkpt><trkpt lat="39.91373404483556" lon="9.113083008620345"><ele>684.0</ele><time>2026-04-30T14:43:05.995Z</time></trkpt><trkpt lat="39.9139579840101" lon="9.113200632458215"><ele>684.0</ele><time>2026-04-30T14:43:06.995Z</time></trkpt><trkpt lat="39.91417816899713" lon="9.113318379214052"><ele>689.6666666666666</ele><time>2026-04-30T14:43:07.995Z</time></trkpt><trkpt lat="39.91438712476012" lon="9.113392959629548"><ele>695.3333333333333</ele><time>2026-04-30T14:43:08.995Z</time></trkpt><trkpt lat="39.91456118531579" lon="9.113438187876481"><ele>701.0</ele><time>2026-04-30T14:43:09.995Z</time></trkpt><trkpt lat="39.91469327124518" lon="9.113459786687958"><ele>701.0</ele><time>2026-04-30T14:43:10.995Z</time></trkpt><trkpt lat="39.91479699580771" lon="9.113400557962255"><ele>701.0</ele><time>2026-04-30T14:43:11.995Z</time></trkpt><trkpt lat="39.91482270554806" lon="9.113246851909048"><ele>701.0</ele><time>2026-04-30T14:43:12.995Z</time></trkpt><trkpt lat="39.91477593153601" lon="9.113026208547597"><ele>701.0</ele><time>2026-04-30T14:43:13.995Z</time></trkpt><trkpt lat="39.91464031537558" lon="9.112804324227604"><ele>707.3333333333333</ele><time>2026-04-30T14:43:14.995Z</time></trkpt><trkpt lat="39.91448474165243" lon="9.112589208136196"><ele>713.6666666666666</ele><time>2026-04-30T14:43:15.995Z</time></trkpt><trkpt lat="39.91440122332247" lon="9.112417648485827"><ele>720.0</ele><time>2026-04-30T14:43:16.995Z</time></trkpt><trkpt lat="39.91440639375569" lon="9.112244237354616"><ele>725.3333333333334</ele><time>2026-04-30T14:43:17.995Z</time></trkpt><trkpt lat="39.91445741215333" lon="9.112060965099475"><ele>730.6666666666667</ele><time>2026-04-30T14:43:18.995Z</time></trkpt><trkpt lat="39.914456658572256" lon="9.11188925744816"><ele>736.0</ele><time>2026-04-30T14:43:19.995Z</time></trkpt><trkpt lat="39.91435790245084" lon="9.11169464004347"><ele>733.6666666666667</ele><time>2026-04-30T14:43:20.995Z</time></trkpt><trkpt lat="39.914190939202165" lon="9.11153248938844"><ele>731.3333333333334</ele><time>2026-04-30T14:43:21.995Z</time></trkpt><trkpt lat="39.91402977951363" lon="9.111390314794855"><ele>729.0</ele><time>2026-04-30T14:43:22.995Z</time></trkpt><trkpt lat="39.91391922157659" lon="9.11123688862954"><ele>729.0</ele><time>2026-04-30T14:43:23.995Z</time></trkpt><trkpt lat="39.91384318535591" lon="9.111094530356906"><ele>729.0</ele><time>2026-04-30T14:43:24.995Z</time></trkpt><trkpt lat="39.9137679447511" lon="9.110982305830856"><ele>729.0</ele><time>2026-04-30T14:43:25.995Z</time></trkpt><trkpt lat="39.913651678915016" lon="9.110928444685454"><ele>729.0</ele><time>2026-04-30T14:43:26.995Z</time></trkpt><trkpt lat="39.91349808026414" lon="9.110947597207648"><ele>731.6666666666666</ele><time>2026-04-30T14:43:27.995Z</time></trkpt><trkpt lat="39.91333868770105" lon="9.110917312866777"><ele>734.3333333333333</ele><time>2026-04-30T14:43:28.995Z</time></trkpt><trkpt lat="39.91319012239545" lon="9.110816271146398"><ele>737.0</ele><time>2026-04-30T14:43:29.995Z</time></trkpt><trkpt lat="39.91307266771164" lon="9.110658153654589"><ele>737.0</ele><time>2026-04-30T14:43:30.995Z</time></trkpt><trkpt lat="39.91300671184985" lon="9.110443466335488"><ele>737.0</ele><time>2026-04-30T14:43:31.995Z</time></trkpt><trkpt lat="39.91296158524443" lon="9.110239070848673"><ele>737.0</ele><time>2026-04-30T14:43:32.995Z</time></trkpt><trkpt lat="39.91287039720856" lon="9.110052983854132"><ele>733.6666666666666</ele><time>2026-04-30T14:43:33.995Z</time></trkpt><trkpt lat="39.91271283053746" lon="9.10990615002974"><ele>730.3333333333334</ele><time>2026-04-30T14:43:34.995Z</time></trkpt><trkpt lat="39.91251616015869" lon="9.109859746718433"><ele>727.0</ele><time>2026-04-30T14:43:35.995Z</time></trkpt><trkpt lat="39.912342873648775" lon="9.10981647984989"><ele>727.0</ele><time>2026-04-30T14:43:36.995Z</time></trkpt><trkpt lat="39.91224181701373" lon="9.109723231816357"><ele>727.0</ele><time>2026-04-30T14:43:37.995Z</time></trkpt><trkpt lat="39.91222350182887" lon="9.109566164697387"><ele>727.0</ele><time>2026-04-30T14:43:38.995Z</time></trkpt><trkpt lat="39.91227383567029" lon="9.109366907218803"><ele>727.0</ele><time>2026-04-30T14:43:39.995Z</time></trkpt><trkpt lat="39.912343208052114" lon="9.109129956959228"><ele>733.3333333333334</ele><time>2026-04-30T14:43:40.995Z</time></trkpt><trkpt lat="39.91237831570346" lon="9.108877280305204"><ele>739.6666666666666</ele><time>2026-04-30T14:43:41.995Z</time></trkpt><trkpt lat="39.912362024466404" lon="9.1086582498385"><ele>746.0</ele><time>2026-04-30T14:43:42.995Z</time></trkpt><trkpt lat="39.91224585145604" lon="9.10850184435746"><ele>746.0</ele><time>2026-04-30T14:43:43.995Z</time></trkpt><trkpt lat="39.91206576998824" lon="9.108414149105272"><ele>746.0</ele><time>2026-04-30T14:43:44.995Z</time></trkpt><trkpt lat="39.91182764110315" lon="9.10833056018487"><ele>746.0</ele><time>2026-04-30T14:43:45.995Z</time></trkpt><trkpt lat="39.91159039837518" lon="9.108296619583948"><ele>745.3333333333333</ele><time>2026-04-30T14:43:46.995Z</time></trkpt><trkpt lat="39.91139208238304" lon="9.108246273746007"><ele>744.6666666666666</ele><time>2026-04-30T14:43:47.995Z</time></trkpt><trkpt lat="39.91122100782062" lon="9.108193199492726"><ele>744.0</ele><time>2026-04-30T14:43:48.995Z</time></trkpt><trkpt lat="39.91108597758696" lon="9.108175956560151"><ele>744.0</ele><time>2026-04-30T14:43:49.995Z</time></trkpt><trkpt lat="39.91099920704247" lon="9.108093852807196"><ele>744.0</ele><time>2026-04-30T14:43:50.995Z</time></trkpt><trkpt lat="39.910959537604334" lon="9.107917275373886"><ele>744.0</ele><time>2026-04-30T14:43:51.995Z</time></trkpt><trkpt lat="39.910984845470466" lon="9.107662654624296"><ele>744.0</ele><time>2026-04-30T14:43:52.995Z</time></trkpt><trkpt lat="39.91108669187021" lon="9.107419759168872"><ele>736.0</ele><time>2026-04-30T14:43:53.995Z</time></trkpt><trkpt lat="39.91123864748765" lon="9.107197874594794"><ele>728.0</ele><time>2026-04-30T14:43:54.995Z</time></trkpt><trkpt lat="39.911420624455914" lon="9.107013702616047"><ele>728.0</ele><time>2026-04-30T14:43:55.995Z</time></trkpt><trkpt lat="39.91159273518779" lon="9.1068021329539"><ele>728.0</ele><time>2026-04-30T14:43:56.995Z</time></trkpt><trkpt lat="39.91176621938344" lon="9.10657474119102"><ele>735.0</ele><time>2026-04-30T14:43:57.995Z</time></trkpt><trkpt lat="39.91193494914002" lon="9.106322383210548"><ele>742.0</ele><time>2026-04-30T14:43:58.995Z</time></trkpt><trkpt lat="39.912091908041084" lon="9.106072832087355"><ele>742.0</ele><time>2026-04-30T14:43:59.995Z</time></trkpt><trkpt lat="39.91221518610713" lon="9.105831336227032"><ele>742.0</ele><time>2026-04-30T14:44:00.995Z</time></trkpt><trkpt lat="39.912325546879686" lon="9.105627750694419"><ele>742.0</ele><time>2026-04-30T14:44:01.995Z</time></trkpt><trkpt lat="39.91246156735226" lon="9.105461016082094"><ele>748.0</ele><time>2026-04-30T14:44:02.995Z</time></trkpt><trkpt lat="39.91261792652424" lon="9.105343388668157"><ele>754.0</ele><time>2026-04-30T14:44:03.995Z</time></trkpt><trkpt lat="39.912727374747185" lon="9.105157426535754"><ele>760.0</ele><time>2026-04-30T14:44:04.995Z</time></trkpt><trkpt lat="39.9127655250968" lon="9.104897087376271"><ele>760.0</ele><time>2026-04-30T14:44:05.995Z</time></trkpt><trkpt lat="39.91282247189918" lon="9.104661397588243"><ele>760.0</ele><time>2026-04-30T14:44:06.995Z</time></trkpt><trkpt lat="39.91292525055377" lon="9.104459527157802"><ele>760.0</ele><time>2026-04-30T14:44:07.995Z</time></trkpt><trkpt lat="39.91299950686565" lon="9.104278034220714"><ele>758.3333333333334</ele><time>2026-04-30T14:44:08.995Z</time></trkpt><trkpt lat="39.91297461597045" lon="9.104052195076541"><ele>756.6666666666666</ele><time>2026-04-30T14:44:09.995Z</time></trkpt><trkpt lat="39.91285499092703" lon="9.103783148072374"><ele>755.0</ele><time>2026-04-30T14:44:10.995Z</time></trkpt><trkpt lat="39.91277848905774" lon="9.103490312201709"><ele>749.6666666666666</ele><time>2026-04-30T14:44:11.995Z</time></trkpt><trkpt lat="39.91275476738867" lon="9.103194412452408"><ele>744.3333333333334</ele><time>2026-04-30T14:44:12.995Z</time></trkpt><trkpt lat="39.91274316792583" lon="9.10292260365987"><ele>739.0</ele><time>2026-04-30T14:44:13.995Z</time></trkpt><trkpt lat="39.91273195109366" lon="9.102675871046696"><ele>739.0</ele><time>2026-04-30T14:44:14.995Z</time></trkpt><trkpt lat="39.91276632639001" lon="9.102462963229582"><ele>739.0</ele><time>2026-04-30T14:44:15.995Z</time></trkpt><trkpt lat="39.91289324762957" lon="9.10225983542946"><ele>739.0</ele><time>2026-04-30T14:44:16.995Z</time></trkpt><trkpt lat="39.91308444873339" lon="9.102105532975349"><ele>739.0</ele><time>2026-04-30T14:44:17.995Z</time></trkpt><trkpt lat="39.91331602547714" lon="9.102007945208472"><ele>739.0</ele><time>2026-04-30T14:44:18.995Z</time></trkpt><trkpt lat="39.91354833591691" lon="9.101930715379343"><ele>739.0</ele><time>2026-04-30T14:44:19.995Z</time></trkpt><trkpt lat="39.91372878838259" lon="9.10182056012192"><ele>739.0</ele><time>2026-04-30T14:44:20.995Z</time></trkpt><trkpt lat="39.91384637496598" lon="9.10164183155733"><ele>739.0</ele><time>2026-04-30T14:44:21.995Z</time></trkpt><trkpt lat="39.91390869719636" lon="9.10138271899927"><ele>734.3333333333334</ele><time>2026-04-30T14:44:22.995Z</time></trkpt><trkpt lat="39.91396475243974" lon="9.101093400304878"><ele>729.6666666666666</ele><time>2026-04-30T14:44:23.995Z</time></trkpt><trkpt lat="39.91408991840936" lon="9.100868003780223"><ele>725.0</ele><time>2026-04-30T14:44:24.995Z</time></trkpt><trkpt lat="39.914292912650716" lon="9.100710566405187"><ele>724.0</ele><time>2026-04-30T14:44:25.995Z</time></trkpt><trkpt lat="39.91451743737293" lon="9.100554929396344"><ele>723.0</ele><time>2026-04-30T14:44:26.995Z</time></trkpt><trkpt lat="39.91472306277235" lon="9.1003609321404"><ele>723.0</ele><time>2026-04-30T14:44:27.995Z</time></trkpt><trkpt lat="39.914876997408896" lon="9.10010419165494"><ele>723.0</ele><time>2026-04-30T14:44:28.995Z</time></trkpt><trkpt lat="39.91501426494718" lon="9.099881638369546"><ele>717.5</ele><time>2026-04-30T14:44:29.995Z</time></trkpt><trkpt lat="39.91519205690956" lon="9.09971099893183"><ele>712.0</ele><time>2026-04-30T14:44:30.994Z</time></trkpt><trkpt lat="39.91541606144139" lon="9.099616072710146"><ele>712.0</ele><time>2026-04-30T14:44:31.994Z</time></trkpt><trkpt lat="39.9156758036424" lon="9.099583093529647"><ele>712.0</ele><time>2026-04-30T14:44:32.994Z</time></trkpt><trkpt lat="39.91592027680024" lon="9.099555999646821"><ele>712.6666666666667</ele><time>2026-04-30T14:44:33.994Z</time></trkpt><trkpt lat="39.91612197280749" lon="9.09954180261143"><ele>713.3333333333334</ele><time>2026-04-30T14:44:34.994Z</time></trkpt><trkpt lat="39.91630805320339" lon="9.099470075043321"><ele>714.0</ele><time>2026-04-30T14:44:35.994Z</time></trkpt><trkpt lat="39.91646920039857" lon="9.099289059119554"><ele>714.0</ele><time>2026-04-30T14:44:36.994Z</time></trkpt><trkpt lat="39.916609296593755" lon="9.099144762422672"><ele>714.0</ele><time>2026-04-30T14:44:37.994Z</time></trkpt><trkpt lat="39.91671248840976" lon="9.099086511821074"><ele>714.0</ele><time>2026-04-30T14:44:38.994Z</time></trkpt><trkpt lat="39.91681331353376" lon="9.099123187345443"><ele>714.0</ele><time>2026-04-30T14:44:39.994Z</time></trkpt><trkpt lat="39.91687012637798" lon="9.099245897250407"><ele>711.0</ele><time>2026-04-30T14:44:40.994Z</time></trkpt><trkpt lat="39.916867592049606" lon="9.099449248531183"><ele>708.0</ele><time>2026-04-30T14:44:41.994Z</time></trkpt><trkpt lat="39.91682737252784" lon="9.099727533227417"><ele>705.0</ele><time>2026-04-30T14:44:42.994Z</time></trkpt><trkpt lat="39.916739897130945" lon="9.100005361726419"><ele>710.0</ele><time>2026-04-30T14:44:43.994Z</time></trkpt><trkpt lat="39.9166114324483" lon="9.100219146821283"><ele>715.0</ele><time>2026-04-30T14:44:44.994Z</time></trkpt><trkpt lat="39.91652363113607" lon="9.10040265844771"><ele>720.0</ele><time>2026-04-30T14:44:45.994Z</time></trkpt><trkpt lat="39.916515955175555" lon="9.100587144987097"><ele>721.0</ele><time>2026-04-30T14:44:46.994Z</time></trkpt><trkpt lat="39.91657515236659" lon="9.100758711912423"><ele>722.0</ele><time>2026-04-30T14:44:47.994Z</time></trkpt><trkpt lat="39.916723286276955" lon="9.1008405550483"><ele>723.0</ele><time>2026-04-30T14:44:48.994Z</time></trkpt><trkpt lat="39.91688705295544" lon="9.10077646973564"><ele>717.0</ele><time>2026-04-30T14:44:49.994Z</time></trkpt><trkpt lat="39.917049538341274" lon="9.100623494906506"><ele>711.0</ele><time>2026-04-30T14:44:50.994Z</time></trkpt><trkpt lat="39.91723359701109" lon="9.100466736095235"><ele>705.0</ele><time>2026-04-30T14:44:51.994Z</time></trkpt><trkpt lat="39.91742001157802" lon="9.100361780973962"><ele>706.0</ele><time>2026-04-30T14:44:52.994Z</time></trkpt><trkpt lat="39.917588659992084" lon="9.100238757429556"><ele>707.0</ele><time>2026-04-30T14:44:53.995Z</time></trkpt><trkpt lat="39.91774649163622" lon="9.100044983729436"><ele>708.0</ele><time>2026-04-30T14:44:54.995Z</time></trkpt><trkpt lat="39.91790649634257" lon="9.099893967931035"><ele>709.3333333333334</ele><time>2026-04-30T14:44:55.995Z</time></trkpt><trkpt lat="39.91806570926151" lon="9.099841789126966"><ele>710.6666666666667</ele><time>2026-04-30T14:44:56.996Z</time></trkpt><trkpt lat="39.91826125195107" lon="9.099886076287158"><ele>712.0</ele><time>2026-04-30T14:44:57.996Z</time></trkpt><trkpt lat="39.91847876369193" lon="9.099954579321848"><ele>712.0</ele><time>2026-04-30T14:44:58.996Z</time></trkpt><trkpt lat="39.91870897425916" lon="9.100011689195263"><ele>712.0</ele><time>2026-04-30T14:44:59.995Z</time></trkpt><trkpt lat="39.9189034315857" lon="9.100060866040682"><ele>712.0</ele><time>2026-04-30T14:45:00.995Z</time></trkpt><trkpt lat="39.919054565917584" lon="9.100083197447853"><ele>712.0</ele><time>2026-04-30T14:45:01.995Z</time></trkpt><trkpt lat="39.91917129511906" lon="9.10002426203653"><ele>712.0</ele><time>2026-04-30T14:45:02.996Z</time></trkpt><trkpt lat="39.91926301298274" lon="9.099832061378226"><ele>712.0</ele><time>2026-04-30T14:45:03.995Z</time></trkpt><trkpt lat="39.91932592270459" lon="9.09955434258738"><ele>708.0</ele><time>2026-04-30T14:45:04.995Z</time></trkpt><trkpt lat="39.91939352062306" lon="9.099316409903407"><ele>704.0</ele><time>2026-04-30T14:45:05.996Z</time></trkpt><trkpt lat="39.91948906984038" lon="9.099179652240762"><ele>700.0</ele><time>2026-04-30T14:45:06.995Z</time></trkpt><trkpt lat="39.9196362637412" lon="9.099105119607938"><ele>700.0</ele><time>2026-04-30T14:45:07.995Z</time></trkpt><trkpt lat="39.919837754382435" lon="9.099110425017894"><ele>700.0</ele><time>2026-04-30T14:45:08.995Z</time></trkpt><trkpt lat="39.92006462222074" lon="9.099178065955359"><ele>700.0</ele><time>2026-04-30T14:45:09.995Z</time></trkpt><trkpt lat="39.920244486896266" lon="9.099189628660682"><ele>704.3333333333334</ele><time>2026-04-30T14:45:10.995Z</time></trkpt><trkpt lat="39.920395559456715" lon="9.099119562768655"><ele>708.6666666666666</ele><time>2026-04-30T14:45:11.995Z</time></trkpt><trkpt lat="39.92048973027116" lon="9.098965327324377"><ele>713.0</ele><time>2026-04-30T14:45:12.995Z</time></trkpt><trkpt lat="39.92052330116071" lon="9.09872734691528"><ele>713.0</ele><time>2026-04-30T14:45:13.995Z</time></trkpt><trkpt lat="39.9204848065859" lon="9.098455828894583"><ele>713.0</ele><time>2026-04-30T14:45:14.995Z</time></trkpt><trkpt lat="39.92043449528743" lon="9.09821678548414"><ele>713.0</ele><time>2026-04-30T14:45:15.995Z</time></trkpt><trkpt lat="39.920435148307945" lon="9.0979854432676"><ele>704.3333333333333</ele><time>2026-04-30T14:45:16.995Z</time></trkpt><trkpt lat="39.92049325407564" lon="9.097754620531793"><ele>695.6666666666666</ele><time>2026-04-30T14:45:17.995Z</time></trkpt><trkpt lat="39.92059537913618" lon="9.097597347156015"><ele>687.0</ele><time>2026-04-30T14:45:18.995Z</time></trkpt><trkpt lat="39.92074985154788" lon="9.09750308332467"><ele>677.5</ele><time>2026-04-30T14:45:19.995Z</time></trkpt><trkpt lat="39.92096513361124" lon="9.097418420820558"><ele>668.0</ele><time>2026-04-30T14:45:20.995Z</time></trkpt><trkpt lat="39.92119828772706" lon="9.097294627463969"><ele>668.0</ele><time>2026-04-30T14:45:21.995Z</time></trkpt><trkpt lat="39.92143140445184" lon="9.097166132611758"><ele>668.0</ele><time>2026-04-30T14:45:22.995Z</time></trkpt><trkpt lat="39.92165931651623" lon="9.097039570837369"><ele>676.0</ele><time>2026-04-30T14:45:23.995Z</time></trkpt><trkpt lat="39.92187700049116" lon="9.096916479711284"><ele>684.0</ele><time>2026-04-30T14:45:24.995Z</time></trkpt><trkpt lat="39.92208135364823" lon="9.096819008388424"><ele>684.0</ele><time>2026-04-30T14:45:25.995Z</time></trkpt><trkpt lat="39.9222678439015" lon="9.096699184463176"><ele>684.0</ele><time>2026-04-30T14:45:26.995Z</time></trkpt><trkpt lat="39.92241498448691" lon="9.09655021706489"><ele>684.0</ele><time>2026-04-30T14:45:27.995Z</time></trkpt><trkpt lat="39.92256971723765" lon="9.096445618070225"><ele>678.6666666666666</ele><time>2026-04-30T14:45:28.995Z</time></trkpt><trkpt lat="39.922768597090545" lon="9.09642508313567"><ele>673.3333333333333</ele><time>2026-04-30T14:45:29.995Z</time></trkpt><trkpt lat="39.92298257160545" lon="9.096417908093619"><ele>668.0</ele><time>2026-04-30T14:45:30.995Z</time></trkpt><trkpt lat="39.92318571452373" lon="9.096370042244883"><ele>668.0</ele><time>2026-04-30T14:45:31.995Z</time></trkpt><trkpt lat="39.92336374679698" lon="9.096230066131762"><ele>668.0</ele><time>2026-04-30T14:45:32.995Z</time></trkpt><trkpt lat="39.92349722692201" lon="9.09598109593725"><ele>668.0</ele><time>2026-04-30T14:45:33.995Z</time></trkpt><trkpt lat="39.9236441183703" lon="9.095699349762281"><ele>670.5</ele><time>2026-04-30T14:45:34.995Z</time></trkpt><trkpt lat="39.92384885176611" lon="9.095384164649596"><ele>673.0</ele><time>2026-04-30T14:45:35.995Z</time></trkpt><trkpt lat="39.92407622360886" lon="9.095085641903124"><ele>670.5</ele><time>2026-04-30T14:45:36.995Z</time></trkpt><trkpt lat="39.92425712717811" lon="9.094848191501187"><ele>668.0</ele><time>2026-04-30T14:45:37.995Z</time></trkpt><trkpt lat="39.92438906334942" lon="9.094640000927944"><ele>668.0</ele><time>2026-04-30T14:45:38.995Z</time></trkpt><trkpt lat="39.92448053994481" lon="9.094408660682328"><ele>668.0</ele><time>2026-04-30T14:45:39.995Z</time></trkpt><trkpt lat="39.924516654439856" lon="9.094167564178672"><ele>668.0</ele><time>2026-04-30T14:45:40.995Z</time></trkpt><trkpt lat="39.92456890345432" lon="9.093971260814751"><ele>661.3333333333333</ele><time>2026-04-30T14:45:41.995Z</time></trkpt><trkpt lat="39.92470958477121" lon="9.093822341670291"><ele>654.6666666666666</ele><time>2026-04-30T14:45:42.995Z</time></trkpt><trkpt lat="39.924909886211736" lon="9.093739263713392"><ele>648.0</ele><time>2026-04-30T14:45:43.995Z</time></trkpt><trkpt lat="39.92509106271953" lon="9.093757625286534"><ele>645.0</ele><time>2026-04-30T14:45:44.995Z</time></trkpt><trkpt lat="39.925245379233424" lon="9.093926655518052"><ele>642.0</ele><time>2026-04-30T14:45:45.995Z</time></trkpt><trkpt lat="39.92537290307456" lon="9.09405555038734"><ele>639.0</ele><time>2026-04-30T14:45:46.995Z</time></trkpt><trkpt lat="39.92549694087672" lon="9.094071163739649"><ele>639.0</ele><time>2026-04-30T14:45:47.995Z</time></trkpt><trkpt lat="39.925644455066326" lon="9.093969423343102"><ele>639.0</ele><time>2026-04-30T14:45:48.995Z</time></trkpt><trkpt lat="39.92582833147917" lon="9.09397106980104"><ele>639.0</ele><time>2026-04-30T14:45:49.995Z</time></trkpt><trkpt lat="39.92598762690123" lon="9.09407975048022"><ele>643.0</ele><time>2026-04-30T14:45:50.995Z</time></trkpt><trkpt lat="39.92610291694717" lon="9.094270858168732"><ele>647.0</ele><time>2026-04-30T14:45:51.995Z</time></trkpt><trkpt lat="39.926220571733396" lon="9.094438952204733"><ele>651.0</ele><time>2026-04-30T14:45:52.995Z</time></trkpt><trkpt lat="39.926369534811016" lon="9.094497880886577"><ele>651.0</ele><time>2026-04-30T14:45:53.995Z</time></trkpt><trkpt lat="39.92652895226694" lon="9.0944172678054"><ele>651.0</ele><time>2026-04-30T14:45:54.995Z</time></trkpt><trkpt lat="39.926676639638224" lon="9.094262726139087"><ele>651.0</ele><time>2026-04-30T14:45:55.995Z</time></trkpt><trkpt lat="39.926838133954526" lon="9.09413470855915"><ele>651.6666666666666</ele><time>2026-04-30T14:45:56.995Z</time></trkpt><trkpt lat="39.927009672148785" lon="9.094076480761156"><ele>652.3333333333333</ele><time>2026-04-30T14:45:57.995Z</time></trkpt><trkpt lat="39.92719148551292" lon="9.094114298674294"><ele>653.0</ele><time>2026-04-30T14:45:58.995Z</time></trkpt><trkpt lat="39.927375063465774" lon="9.094207236612425"><ele>653.0</ele><time>2026-04-30T14:45:59.995Z</time></trkpt><trkpt lat="39.92754332537028" lon="9.094254743445637"><ele>653.0</ele><time>2026-04-30T14:46:00.995Z</time></trkpt><trkpt lat="39.92768997958854" lon="9.094176332327791"><ele>653.0</ele><time>2026-04-30T14:46:01.995Z</time></trkpt><trkpt lat="39.92780995835037" lon="9.093989817585989"><ele>647.3333333333333</ele><time>2026-04-30T14:46:02.995Z</time></trkpt><trkpt lat="39.92793472872504" lon="9.09379886011092"><ele>641.6666666666666</ele><time>2026-04-30T14:46:03.995Z</time></trkpt><trkpt lat="39.928114271919114" lon="9.093667314823957"><ele>636.0</ele><time>2026-04-30T14:46:04.995Z</time></trkpt><trkpt lat="39.9283242139497" lon="9.093547353838067"><ele>636.5</ele><time>2026-04-30T14:46:05.995Z</time></trkpt><trkpt lat="39.92853516002243" lon="9.09344498582957"><ele>637.0</ele><time>2026-04-30T14:46:06.995Z</time></trkpt><trkpt lat="39.92875988064005" lon="9.093386961295444"><ele>637.0</ele><time>2026-04-30T14:46:07.995Z</time></trkpt><trkpt lat="39.92898442791649" lon="9.093362098996293"><ele>637.0</ele><time>2026-04-30T14:46:08.995Z</time></trkpt><trkpt lat="39.929172939142866" lon="9.093346108047049"><ele>637.0</ele><time>2026-04-30T14:46:09.995Z</time></trkpt><trkpt lat="39.929317827602716" lon="9.093363085958666"><ele>633.3333333333334</ele><time>2026-04-30T14:46:10.995Z</time></trkpt><trkpt lat="39.92942373392085" lon="9.093490933090603"><ele>629.6666666666666</ele><time>2026-04-30T14:46:11.995Z</time></trkpt><trkpt lat="39.92948072408832" lon="9.09369664696802"><ele>626.0</ele><time>2026-04-30T14:46:12.995Z</time></trkpt><trkpt lat="39.929551810837935" lon="9.093882836906683"><ele>626.0</ele><time>2026-04-30T14:46:13.995Z</time></trkpt><trkpt lat="39.92967193288482" lon="9.09396114187773"><ele>626.0</ele><time>2026-04-30T14:46:14.995Z</time></trkpt><trkpt lat="39.92982964309849" lon="9.09395294513627"><ele>626.0</ele><time>2026-04-30T14:46:15.995Z</time></trkpt><trkpt lat="39.93001598245495" lon="9.093866473335897"><ele>622.3333333333333</ele><time>2026-04-30T14:46:16.995Z</time></trkpt><trkpt lat="39.930170734387325" lon="9.093745842622234"><ele>618.6666666666666</ele><time>2026-04-30T14:46:17.995Z</time></trkpt><trkpt lat="39.93033169608278" lon="9.093681172156304"><ele>615.0</ele><time>2026-04-30T14:46:18.995Z</time></trkpt><trkpt lat="39.93051415004563" lon="9.093673500292978"><ele>615.0</ele><time>2026-04-30T14:46:19.995Z</time></trkpt><trkpt lat="39.93071112495622" lon="9.093754538261113"><ele>615.0</ele><time>2026-04-30T14:46:20.995Z</time></trkpt><trkpt lat="39.93090243370547" lon="9.093915143299345"><ele>615.0</ele><time>2026-04-30T14:46:21.995Z</time></trkpt><trkpt lat="39.931107216221925" lon="9.094082409170808"><ele>617.0</ele><time>2026-04-30T14:46:22.994Z</time></trkpt><trkpt lat="39.931326774738416" lon="9.094183975712332"><ele>619.0</ele><time>2026-04-30T14:46:23.994Z</time></trkpt><trkpt lat="39.93154947459366" lon="9.094217454525483"><ele>618.5</ele><time>2026-04-30T14:46:24.994Z</time></trkpt><trkpt lat="39.93177941082279" lon="9.09418467570195"><ele>618.0</ele><time>2026-04-30T14:46:25.994Z</time></trkpt><trkpt lat="39.93200046408697" lon="9.09409625096789"><ele>618.3333333333334</ele><time>2026-04-30T14:46:26.994Z</time></trkpt><trkpt lat="39.932214878707335" lon="9.094017072194946"><ele>618.6666666666667</ele><time>2026-04-30T14:46:27.994Z</time></trkpt><trkpt lat="39.93241752903636" lon="9.093990050176888"><ele>619.0</ele><time>2026-04-30T14:46:28.994Z</time></trkpt><trkpt lat="39.932628841078966" lon="9.094051318901597"><ele>620.3333333333334</ele><time>2026-04-30T14:46:29.994Z</time></trkpt><trkpt lat="39.9328304483274" lon="9.094181124433238"><ele>621.6666666666666</ele><time>2026-04-30T14:46:30.994Z</time></trkpt><trkpt lat="39.933022596019036" lon="9.09428824151808"><ele>623.0</ele><time>2026-04-30T14:46:31.994Z</time></trkpt><trkpt lat="39.93324064549088" lon="9.094321541693303"><ele>619.5</ele><time>2026-04-30T14:46:32.994Z</time></trkpt><trkpt lat="39.9334659725951" lon="9.09429187246671"><ele>616.0</ele><time>2026-04-30T14:46:33.994Z</time></trkpt><trkpt lat="39.933681870704156" lon="9.094167791361281"><ele>625.5</ele><time>2026-04-30T14:46:34.994Z</time></trkpt><trkpt lat="39.93388423003311" lon="9.094001269316113"><ele>635.0</ele><time>2026-04-30T14:46:35.994Z</time></trkpt><trkpt lat="39.934081225590994" lon="9.09381988430333"><ele>633.0</ele><time>2026-04-30T14:46:36.994Z</time></trkpt><trkpt lat="39.934307318714744" lon="9.09365083614966"><ele>631.0</ele><time>2026-04-30T14:46:37.994Z</time></trkpt><trkpt lat="39.93456156118417" lon="9.093575063155985"><ele>631.0</ele><time>2026-04-30T14:46:38.994Z</time></trkpt><trkpt lat="39.93482064524742" lon="9.09351742061822"><ele>631.0</ele><time>2026-04-30T14:46:39.994Z</time></trkpt><trkpt lat="39.93505067244581" lon="9.093500032839707"><ele>627.6666666666667</ele><time>2026-04-30T14:46:40.994Z</time></trkpt><trkpt lat="39.935241689733516" lon="9.093479159314459"><ele>624.3333333333334</ele><time>2026-04-30T14:46:41.994Z</time></trkpt><trkpt lat="39.93541107496447" lon="9.09335655908118"><ele>621.0</ele><time>2026-04-30T14:46:42.994Z</time></trkpt><trkpt lat="39.93558133589637" lon="9.093162349791934"><ele>624.0</ele><time>2026-04-30T14:46:43.994Z</time></trkpt><trkpt lat="39.93578103633635" lon="9.092953592088502"><ele>627.0</ele><time>2026-04-30T14:46:44.994Z</time></trkpt><trkpt lat="39.93596967280326" lon="9.092821379107944"><ele>627.0</ele><time>2026-04-30T14:46:45.994Z</time></trkpt><trkpt lat="39.93619840328696" lon="9.092765363506315"><ele>627.0</ele><time>2026-04-30T14:46:46.994Z</time></trkpt><trkpt lat="39.936398151726564" lon="9.092805361595078"><ele>627.0</ele><time>2026-04-30T14:46:47.994Z</time></trkpt><trkpt lat="39.93657631027044" lon="9.092805234612248"><ele>627.0</ele><time>2026-04-30T14:46:48.994Z</time></trkpt><trkpt lat="39.93671014778551" lon="9.092700838077658"><ele>627.0</ele><time>2026-04-30T14:46:49.994Z</time></trkpt><trkpt lat="39.93683820389534" lon="9.09249587419373"><ele>627.0</ele><time>2026-04-30T14:46:50.994Z</time></trkpt><trkpt lat="39.936947689313016" lon="9.092227716639133"><ele>619.0</ele><time>2026-04-30T14:46:51.994Z</time></trkpt><trkpt lat="39.93702292661207" lon="9.091916942998589"><ele>611.0</ele><time>2026-04-30T14:46:52.994Z</time></trkpt><trkpt lat="39.937088111931224" lon="9.091574568607648"><ele>611.0</ele><time>2026-04-30T14:46:53.994Z</time></trkpt><trkpt lat="39.93714918853363" lon="9.091259153131018"><ele>611.0</ele><time>2026-04-30T14:46:54.994Z</time></trkpt><trkpt lat="39.93723708648794" lon="9.091008765279952"><ele>611.0</ele><time>2026-04-30T14:46:55.994Z</time></trkpt><trkpt lat="39.93726673329578" lon="9.090766577893945"><ele>611.0</ele><time>2026-04-30T14:46:56.994Z</time></trkpt><trkpt lat="39.937223015709904" lon="9.090503771718227"><ele>611.0</ele><time>2026-04-30T14:46:57.994Z</time></trkpt><trkpt lat="39.93714656105806" lon="9.090230783256311"><ele>614.0</ele><time>2026-04-30T14:46:58.994Z</time></trkpt><trkpt lat="39.937087623458766" lon="9.08999429382097"><ele>617.0</ele><time>2026-04-30T14:46:59.996Z</time></trkpt><trkpt lat="39.937088052369575" lon="9.089764092288021"><ele>620.0</ele><time>2026-04-30T14:47:00.995Z</time></trkpt><trkpt lat="39.93716888300424" lon="9.089569094246206"><ele>623.6666666666666</ele><time>2026-04-30T14:47:01.995Z</time></trkpt><trkpt lat="39.93729848092687" lon="9.089452893481637"><ele>627.3333333333334</ele><time>2026-04-30T14:47:02.996Z</time></trkpt><trkpt lat="39.93747032002452" lon="9.08941432440104"><ele>631.0</ele><time>2026-04-30T14:47:03.996Z</time></trkpt><trkpt lat="39.93767067515396" lon="9.089449855097484"><ele>631.0</ele><time>2026-04-30T14:47:04.996Z</time></trkpt><trkpt lat="39.937896137508595" lon="9.089506590838614"><ele>631.0</ele><time>2026-04-30T14:47:05.996Z</time></trkpt><trkpt lat="39.93811953267461" lon="9.089546744794891"><ele>631.0</ele><time>2026-04-30T14:47:06.995Z</time></trkpt><trkpt lat="39.93831751195161" lon="9.089554518421506"><ele>631.0</ele><time>2026-04-30T14:47:07.995Z</time></trkpt><trkpt lat="39.93848813954407" lon="9.089475299779687"><ele>631.0</ele><time>2026-04-30T14:47:08.996Z</time></trkpt><trkpt lat="39.938630537910726" lon="9.089301823155113"><ele>631.0</ele><time>2026-04-30T14:47:09.996Z</time></trkpt><trkpt lat="39.93873877603111" lon="9.089068236629828"><ele>631.0</ele><time>2026-04-30T14:47:10.996Z</time></trkpt><trkpt lat="39.938878705512664" lon="9.088835825159821"><ele>631.0</ele><time>2026-04-30T14:47:11.995Z</time></trkpt><trkpt lat="39.93907858938136" lon="9.08865096901983"><ele>623.0</ele><time>2026-04-30T14:47:12.995Z</time></trkpt><trkpt lat="39.9393033568091" lon="9.088513248522014"><ele>615.0</ele><time>2026-04-30T14:47:13.995Z</time></trkpt><trkpt lat="39.93953467334426" lon="9.088455379297026"><ele>615.0</ele><time>2026-04-30T14:47:14.995Z</time></trkpt><trkpt lat="39.9397185906107" lon="9.088440398665744"><ele>615.0</ele><time>2026-04-30T14:47:15.995Z</time></trkpt><trkpt lat="39.939851680622425" lon="9.088373375299264"><ele>615.0</ele><time>2026-04-30T14:47:16.995Z</time></trkpt><trkpt lat="39.9399240181754" lon="9.088194726288505"><ele>621.0</ele><time>2026-04-30T14:47:17.995Z</time></trkpt><trkpt lat="39.939971691861075" lon="9.087914020194294"><ele>627.0</ele><time>2026-04-30T14:47:18.995Z</time></trkpt><trkpt lat="39.94005869242412" lon="9.087595964215117"><ele>620.5</ele><time>2026-04-30T14:47:19.995Z</time></trkpt><trkpt lat="39.940139082929775" lon="9.087290957036545"><ele>614.0</ele><time>2026-04-30T14:47:20.995Z</time></trkpt><trkpt lat="39.94023346544989" lon="9.087032932952912"><ele>614.0</ele><time>2026-04-30T14:47:21.995Z</time></trkpt><trkpt lat="39.94037185176597" lon="9.08683831293619"><ele>614.0</ele><time>2026-04-30T14:47:22.995Z</time></trkpt><trkpt lat="39.94056191831267" lon="9.08671575609886"><ele>614.0</ele><time>2026-04-30T14:47:23.995Z</time></trkpt><trkpt lat="39.940722352291125" lon="9.086581477023724"><ele>615.6666666666666</ele><time>2026-04-30T14:47:24.995Z</time></trkpt><trkpt lat="39.94080717734509" lon="9.086348390227558"><ele>617.3333333333334</ele><time>2026-04-30T14:47:25.995Z</time></trkpt><trkpt lat="39.940826449849546" lon="9.086040903326948"><ele>619.0</ele><time>2026-04-30T14:47:26.995Z</time></trkpt><trkpt lat="39.94090205722132" lon="9.085785288467896"><ele>618.5</ele><time>2026-04-30T14:47:27.995Z</time></trkpt><trkpt lat="39.941070346649795" lon="9.085594583294327"><ele>618.0</ele><time>2026-04-30T14:47:28.995Z</time></trkpt><trkpt lat="39.941286794294385" lon="9.085492196115144"><ele>618.0</ele><time>2026-04-30T14:47:29.995Z</time></trkpt><trkpt lat="39.94147032336924" lon="9.085414481746389"><ele>618.0</ele><time>2026-04-30T14:47:30.995Z</time></trkpt><trkpt lat="39.94161569292954" lon="9.085253565614845"><ele>618.0</ele><time>2026-04-30T14:47:31.995Z</time></trkpt><trkpt lat="39.94171557542213" lon="9.085012463410889"><ele>608.6666666666666</ele><time>2026-04-30T14:47:32.995Z</time></trkpt><trkpt lat="39.94177067330856" lon="9.084770705055165"><ele>599.3333333333333</ele><time>2026-04-30T14:47:33.995Z</time></trkpt><trkpt lat="39.941782706733875" lon="9.084529874332588"><ele>590.0</ele><time>2026-04-30T14:47:34.995Z</time></trkpt><trkpt lat="39.941780829862616" lon="9.084308117577882"><ele>590.0</ele><time>2026-04-30T14:47:35.995Z</time></trkpt><trkpt lat="39.94176736484661" lon="9.084100923365906"><ele>590.0</ele><time>2026-04-30T14:47:36.995Z</time></trkpt><trkpt lat="39.94175578845711" lon="9.083899228104935"><ele>590.0</ele><time>2026-04-30T14:47:37.995Z</time></trkpt><trkpt lat="39.94174948601679" lon="9.083696180602542"><ele>593.0</ele><time>2026-04-30T14:47:38.995Z</time></trkpt><trkpt lat="39.94176346479631" lon="9.083516465037622"><ele>596.0</ele><time>2026-04-30T14:47:39.995Z</time></trkpt><trkpt lat="39.94180072828386" lon="9.083345708369505"><ele>599.0</ele><time>2026-04-30T14:47:40.995Z</time></trkpt><trkpt lat="39.94185813065983" lon="9.08319885351718"><ele>602.0</ele><time>2026-04-30T14:47:41.995Z</time></trkpt><trkpt lat="39.94192092861856" lon="9.083068434015527"><ele>607.0</ele><time>2026-04-30T14:47:42.995Z</time></trkpt><trkpt lat="39.942002775897315" lon="9.08295471122448"><ele>612.0</ele><time>2026-04-30T14:47:43.995Z</time></trkpt><trkpt lat="39.94210301071351" lon="9.082871577777775"><ele>617.0</ele><time>2026-04-30T14:47:44.995Z</time></trkpt><trkpt lat="39.94221248121574" lon="9.082806144719086"><ele>622.0</ele><time>2026-04-30T14:47:45.995Z</time></trkpt><trkpt lat="39.94232826706884" lon="9.082775249027673"><ele>622.0</ele><time>2026-04-30T14:47:46.995Z</time></trkpt><trkpt lat="39.94244573731574" lon="9.082789237424326"><ele>622.0</ele><time>2026-04-30T14:47:47.995Z</time></trkpt><trkpt lat="39.94256221251825" lon="9.08282786283047"><ele>622.0</ele><time>2026-04-30T14:47:48.995Z</time></trkpt><trkpt lat="39.94268373946655" lon="9.082816588494179"><ele>622.0</ele><time>2026-04-30T14:47:49.995Z</time></trkpt><trkpt lat="39.94279150801364" lon="9.082726948458413"><ele>621.5</ele><time>2026-04-30T14:47:50.995Z</time></trkpt><trkpt lat="39.942877279563774" lon="9.082593083193958"><ele>621.0</ele><time>2026-04-30T14:47:51.995Z</time></trkpt><trkpt lat="39.942946739307665" lon="9.082441143707937"><ele>620.5</ele><time>2026-04-30T14:47:52.995Z</time></trkpt><trkpt lat="39.94304001031418" lon="9.08231201516512"><ele>620.0</ele><time>2026-04-30T14:47:53.995Z</time></trkpt><trkpt lat="39.94315656595811" lon="9.08222700089117"><ele>620.0</ele><time>2026-04-30T14:47:54.995Z</time></trkpt><trkpt lat="39.943272963164986" lon="9.082130993938202"><ele>620.0</ele><time>2026-04-30T14:47:55.995Z</time></trkpt><trkpt lat="39.94334812750369" lon="9.081974443107743"><ele>620.0</ele><time>2026-04-30T14:47:56.995Z</time></trkpt><trkpt lat="39.94338362592728" lon="9.081803231740388"><ele>620.0</ele><time>2026-04-30T14:47:57.995Z</time></trkpt><trkpt lat="39.94340468463675" lon="9.081634294154924"><ele>618.5</ele><time>2026-04-30T14:47:58.995Z</time></trkpt><trkpt lat="39.94343460174315" lon="9.081469970574341"><ele>617.0</ele><time>2026-04-30T14:47:59.995Z</time></trkpt><trkpt lat="39.94343158996123" lon="9.0812981824851"><ele>615.5</ele><time>2026-04-30T14:48:00.995Z</time></trkpt><trkpt lat="39.94339366323519" lon="9.08113916771183"><ele>614.0</ele><time>2026-04-30T14:48:01.995Z</time></trkpt><trkpt lat="39.94332077414138" lon="9.08101251005874"><ele>614.0</ele><time>2026-04-30T14:48:02.995Z</time></trkpt><trkpt lat="39.94322141735949" lon="9.080888690873962"><ele>614.0</ele><time>2026-04-30T14:48:03.995Z</time></trkpt><trkpt lat="39.943122036543606" lon="9.080755795715506"><ele>614.0</ele><time>2026-04-30T14:48:04.995Z</time></trkpt><trkpt lat="39.943068759892" lon="9.080626872559282"><ele>614.0</ele><time>2026-04-30T14:48:05.995Z</time></trkpt><trkpt lat="39.94298122703254" lon="9.08046415506832"><ele>609.6666666666666</ele><time>2026-04-30T14:48:06.995Z</time></trkpt><trkpt lat="39.94290337108719" lon="9.080284475327868"><ele>605.3333333333334</ele><time>2026-04-30T14:48:07.995Z</time></trkpt><trkpt lat="39.94283098802254" lon="9.080104965124928"><ele>601.0</ele><time>2026-04-30T14:48:08.995Z</time></trkpt><trkpt lat="39.942757403375666" lon="9.079944313559146"><ele>601.25</ele><time>2026-04-30T14:48:09.995Z</time></trkpt><trkpt lat="39.94269465445415" lon="9.079804757677499"><ele>601.5</ele><time>2026-04-30T14:48:10.995Z</time></trkpt><trkpt lat="39.94267899163802" lon="9.07965349818853"><ele>601.75</ele><time>2026-04-30T14:48:11.995Z</time></trkpt><trkpt lat="39.94272479160786" lon="9.079495259755193"><ele>602.0</ele><time>2026-04-30T14:48:12.995Z</time></trkpt><trkpt lat="39.94281762694059" lon="9.079361365074032"><ele>602.0</ele><time>2026-04-30T14:48:13.995Z</time></trkpt><trkpt lat="39.94292037254039" lon="9.07922859366985"><ele>602.0</ele><time>2026-04-30T14:48:14.995Z</time></trkpt><trkpt lat="39.94301708560209" lon="9.079082741719025"><ele>602.0</ele><time>2026-04-30T14:48:15.995Z</time></trkpt><trkpt lat="39.94311170975371" lon="9.078936194773883"><ele>602.0</ele><time>2026-04-30T14:48:16.995Z</time></trkpt><trkpt lat="39.94319646685946" lon="9.07880247915124"><ele>599.5</ele><time>2026-04-30T14:48:17.995Z</time></trkpt><trkpt lat="39.94327689309361" lon="9.078675930991727"><ele>597.0</ele><time>2026-04-30T14:48:18.995Z</time></trkpt><trkpt lat="39.94335776211228" lon="9.078558182138611"><ele>594.5</ele><time>2026-04-30T14:48:19.995Z</time></trkpt><trkpt lat="39.94343761802069" lon="9.07844541375553"><ele>592.0</ele><time>2026-04-30T14:48:20.995Z</time></trkpt><trkpt lat="39.94352490459474" lon="9.078327566508147"><ele>593.0</ele><time>2026-04-30T14:48:21.995Z</time></trkpt><trkpt lat="39.943642142610194" lon="9.07823331860953"><ele>594.0</ele><time>2026-04-30T14:48:22.995Z</time></trkpt><trkpt lat="39.94376976140885" lon="9.07815606912087"><ele>595.0</ele><time>2026-04-30T14:48:23.995Z</time></trkpt><trkpt lat="39.943897653384774" lon="9.078071696678386"><ele>596.0</ele><time>2026-04-30T14:48:24.995Z</time></trkpt><trkpt lat="39.94400950252334" lon="9.077963414860392"><ele>596.0</ele><time>2026-04-30T14:48:25.995Z</time></trkpt><trkpt lat="39.944092661250785" lon="9.07782823686138"><ele>596.0</ele><time>2026-04-30T14:48:26.995Z</time></trkpt><trkpt lat="39.944142659382244" lon="9.077659212296188"><ele>596.0</ele><time>2026-04-30T14:48:27.995Z</time></trkpt><trkpt lat="39.94414244280012" lon="9.077469301305435"><ele>596.0</ele><time>2026-04-30T14:48:28.995Z</time></trkpt><trkpt lat="39.94410173254008" lon="9.077286191457448"><ele>595.5</ele><time>2026-04-30T14:48:29.995Z</time></trkpt><trkpt lat="39.94403791865549" lon="9.077124076538782"><ele>595.0</ele><time>2026-04-30T14:48:30.995Z</time></trkpt><trkpt lat="39.943971242253205" lon="9.07697062479456"><ele>594.5</ele><time>2026-04-30T14:48:31.995Z</time></trkpt><trkpt lat="39.943930060080994" lon="9.076804846109159"><ele>594.0</ele><time>2026-04-30T14:48:32.995Z</time></trkpt><trkpt lat="39.94392369786879" lon="9.076639474292152"><ele>597.0</ele><time>2026-04-30T14:48:33.995Z</time></trkpt><trkpt lat="39.9439476887946" lon="9.07647293580882"><ele>600.0</ele><time>2026-04-30T14:48:34.995Z</time></trkpt><trkpt lat="39.94396612631054" lon="9.076315293818928"><ele>603.0</ele><time>2026-04-30T14:48:35.995Z</time></trkpt><trkpt lat="39.94400039670344" lon="9.076164194714158"><ele>606.0</ele><time>2026-04-30T14:48:36.995Z</time></trkpt><trkpt lat="39.94406343062666" lon="9.076027966928844"><ele>606.0</ele><time>2026-04-30T14:48:37.995Z</time></trkpt><trkpt lat="39.94414691552168" lon="9.075925033053387"><ele>606.0</ele><time>2026-04-30T14:48:38.995Z</time></trkpt><trkpt lat="39.94425741585371" lon="9.07586164772681"><ele>606.0</ele><time>2026-04-30T14:48:39.995Z</time></trkpt><trkpt lat="39.94437224236512" lon="9.07582066185395"><ele>606.0</ele><time>2026-04-30T14:48:40.995Z</time></trkpt><trkpt lat="39.94446951125882" lon="9.075779545096594"><ele>604.4</ele><time>2026-04-30T14:48:41.995Z</time></trkpt><trkpt lat="39.94456098334895" lon="9.075742230482728"><ele>602.8</ele><time>2026-04-30T14:48:42.995Z</time></trkpt><trkpt lat="39.94465515654616" lon="9.075701181764027"><ele>601.1999999999999</ele><time>2026-04-30T14:48:43.995Z</time></trkpt><trkpt lat="39.94472599968802" lon="9.075645034779495"><ele>599.6</ele><time>2026-04-30T14:48:44.995Z</time></trkpt><trkpt lat="39.94480295771982" lon="9.07558691880237"><ele>598.0</ele><time>2026-04-30T14:48:45.995Z</time></trkpt><trkpt lat="39.944890808980944" lon="9.07553823777452"><ele>598.0</ele><time>2026-04-30T14:48:46.994Z</time></trkpt><trkpt lat="39.944975347968516" lon="9.075480125113412"><ele>598.0</ele><time>2026-04-30T14:48:47.994Z</time></trkpt><trkpt lat="39.94502563514531" lon="9.075362383530939"><ele>598.0</ele><time>2026-04-30T14:48:48.994Z</time></trkpt><trkpt lat="39.94504773899068" lon="9.075255784695011"><ele>598.0</ele><time>2026-04-30T14:48:49.994Z</time></trkpt><trkpt lat="39.94503864626731" lon="9.07513593957189"><ele>598.0</ele><time>2026-04-30T14:48:50.994Z</time></trkpt><trkpt lat="39.945018612107056" lon="9.07501380077931"><ele>598.0</ele><time>2026-04-30T14:48:51.994Z</time></trkpt><trkpt lat="39.94500377619225" lon="9.0749096248614"><ele>598.0</ele><time>2026-04-30T14:48:52.994Z</time></trkpt><trkpt lat="39.9449901208534" lon="9.074806367476022"><ele>598.0</ele><time>2026-04-30T14:48:53.994Z</time></trkpt><trkpt lat="39.94496710294929" lon="9.074712542018293"><ele>598.0</ele><time>2026-04-30T14:48:54.994Z</time></trkpt><trkpt lat="39.944942368979305" lon="9.074617032045296"><ele>598.0</ele><time>2026-04-30T14:48:55.994Z</time></trkpt><trkpt lat="39.94490632526752" lon="9.074522387396112"><ele>598.0</ele><time>2026-04-30T14:48:56.994Z</time></trkpt><trkpt lat="39.9448744973265" lon="9.074428014528975"><ele>598.0</ele><time>2026-04-30T14:48:57.994Z</time></trkpt><trkpt lat="39.944841441084286" lon="9.074326312447358"><ele>598.0</ele><time>2026-04-30T14:48:58.994Z</time></trkpt><trkpt lat="39.944810424119886" lon="9.074219446538757"><ele>598.0</ele><time>2026-04-30T14:48:59.994Z</time></trkpt><trkpt lat="39.94477741147962" lon="9.074115183567477"><ele>598.0</ele><time>2026-04-30T14:49:00.994Z</time></trkpt><trkpt lat="39.944754912844104" lon="9.074005162480361"><ele>598.0</ele><time>2026-04-30T14:49:01.994Z</time></trkpt><trkpt lat="39.94474234234467" lon="9.073893797943771"><ele>598.0</ele><time>2026-04-30T14:49:02.994Z</time></trkpt><trkpt lat="39.94473265265665" lon="9.073784498827306"><ele>598.0</ele><time>2026-04-30T14:49:03.994Z</time></trkpt><trkpt lat="39.94472843095474" lon="9.073683622108721"><ele>598.0</ele><time>2026-04-30T14:49:04.994Z</time></trkpt><trkpt lat="39.94472253748366" lon="9.073596109576249"><ele>598.0</ele><time>2026-04-30T14:49:05.996Z</time></trkpt><trkpt lat="39.94471723232398" lon="9.07350335637563"><ele>598.0</ele><time>2026-04-30T14:49:06.995Z</time></trkpt><trkpt lat="39.94470421599696" lon="9.073414644270494"><ele>598.0</ele><time>2026-04-30T14:49:07.995Z</time></trkpt><trkpt lat="39.94470190859131" lon="9.073326830560742"><ele>598.0</ele><time>2026-04-30T14:49:08.996Z</time></trkpt><trkpt lat="39.94473748007554" lon="9.073181621031706"><ele>598.4</ele><time>2026-04-30T14:49:10.996Z</time></trkpt><trkpt lat="39.94480303917099" lon="9.07305279745739"><ele>598.8</ele><time>2026-04-30T14:49:12.996Z</time></trkpt><trkpt lat="39.94484410371139" lon="9.072981038221457"><ele>599.2</ele><time>2026-04-30T14:49:13.996Z</time></trkpt><trkpt lat="39.944894330282125" lon="9.07284009354703"><ele>599.6</ele><time>2026-04-30T14:49:15.996Z</time></trkpt><trkpt lat="39.944936882986056" lon="9.072745758823835"><ele>600.0</ele><time>2026-04-30T14:49:17.996Z</time></trkpt><trkpt lat="39.945007443790594" lon="9.072737040369223"><ele>600.1666666666666</ele><time>2026-04-30T14:49:21.996Z</time></trkpt><trkpt lat="39.94507263124485" lon="9.072767944149849"><ele>600.3333333333334</ele><time>2026-04-30T14:49:24.996Z</time></trkpt><trkpt lat="39.94513068424816" lon="9.072803483139461"><ele>600.5</ele><time>2026-04-30T14:49:26.996Z</time></trkpt><trkpt lat="39.9452053094797" lon="9.072880180655535"><ele>600.6666666666667</ele><time>2026-04-30T14:49:28.996Z</time></trkpt><trkpt lat="39.945270560403024" lon="9.072873883486222"><ele>600.8333333333334</ele><time>2026-04-30T14:49:33.996Z</time></trkpt><trkpt lat="39.945189145703246" lon="9.072875655244987"><ele>601.0</ele><time>2026-04-30T14:49:41.996Z</time></trkpt><trkpt lat="39.94509696848975" lon="9.072835155670592"><ele>601.0</ele><time>2026-04-30T14:49:43.996Z</time></trkpt><trkpt lat="39.94505796033512" lon="9.072766016926526"><ele>601.0</ele><time>2026-04-30T14:49:46.995Z</time></trkpt></trkseg><trkseg><trkpt lat="39.94516396935376" lon="9.072856839841702"><ele>601.0</ele><time>2026-04-30T15:22:01.008Z</time></trkpt><trkpt lat="39.94535700982777" lon="9.073083294559254"><ele>601.0</ele><time>2026-04-30T15:22:06.008Z</time></trkpt><trkpt lat="39.94544211600814" lon="9.07316671448299"><ele>601.0</ele><time>2026-04-30T15:22:08.008Z</time></trkpt><trkpt lat="39.94551013625375" lon="9.07322455090476"><ele>601.0</ele><time>2026-04-30T15:22:10.008Z</time></trkpt><trkpt lat="39.94556924421995" lon="9.07328709043716"><ele>599.8</ele><time>2026-04-30T15:22:12.008Z</time></trkpt><trkpt lat="39.94564129768786" lon="9.07333772769945"><ele>598.6</ele><time>2026-04-30T15:22:14.008Z</time></trkpt><trkpt lat="39.945706478928145" lon="9.073414387585077"><ele>597.4</ele><time>2026-04-30T15:22:16.008Z</time></trkpt><trkpt lat="39.94577573587309" lon="9.07348906222743"><ele>596.2</ele><time>2026-04-30T15:22:18.008Z</time></trkpt><trkpt lat="39.945850624013374" lon="9.073563938435008"><ele>595.0</ele><time>2026-04-30T15:22:20.008Z</time></trkpt><trkpt lat="39.945942272855135" lon="9.073654174063881"><ele>595.0</ele><time>2026-04-30T15:22:22.008Z</time></trkpt><trkpt lat="39.945994187388834" lon="9.07370945710295"><ele>595.0</ele><time>2026-04-30T15:22:23.008Z</time></trkpt><trkpt lat="39.94604399741669" lon="9.073762211336616"><ele>595.0</ele><time>2026-04-30T15:22:24.008Z</time></trkpt><trkpt lat="39.94613382393906" lon="9.073852151042173"><ele>595.0</ele><time>2026-04-30T15:22:26.008Z</time></trkpt><trkpt lat="39.94622435932375" lon="9.073949459526144"><ele>595.0</ele><time>2026-04-30T15:22:28.008Z</time></trkpt><trkpt lat="39.946277184155164" lon="9.074007795784114"><ele>595.0</ele><time>2026-04-30T15:22:29.008Z</time></trkpt><trkpt lat="39.94633935880577" lon="9.074072301321191"><ele>594.2</ele><time>2026-04-30T15:22:30.008Z</time></trkpt><trkpt lat="39.94641083141352" lon="9.074139081864443"><ele>593.4</ele><time>2026-04-30T15:22:31.009Z</time></trkpt><trkpt lat="39.94647920981072" lon="9.074224635129106"><ele>592.6</ele><time>2026-04-30T15:22:32.009Z</time></trkpt><trkpt lat="39.94654705743288" lon="9.074321863447224"><ele>591.8</ele><time>2026-04-30T15:22:33.009Z</time></trkpt><trkpt lat="39.94660859393301" lon="9.074419369045929"><ele>591.0</ele><time>2026-04-30T15:22:34.009Z</time></trkpt><trkpt lat="39.94665236807411" lon="9.074543209756827"><ele>591.0</ele><time>2026-04-30T15:22:35.008Z</time></trkpt><trkpt lat="39.946666638127546" lon="9.07466270652424"><ele>591.0</ele><time>2026-04-30T15:22:36.008Z</time></trkpt><trkpt lat="39.946678097242966" lon="9.074780278110469"><ele>591.0</ele><time>2026-04-30T15:22:37.009Z</time></trkpt><trkpt lat="39.94669721101317" lon="9.074906496276368"><ele>591.0</ele><time>2026-04-30T15:22:38.008Z</time></trkpt><trkpt lat="39.946713981541905" lon="9.075024110824634"><ele>591.0</ele><time>2026-04-30T15:22:39.008Z</time></trkpt><trkpt lat="39.9467433458472" lon="9.075135160676496"><ele>588.5</ele><time>2026-04-30T15:22:40.009Z</time></trkpt><trkpt lat="39.94682704277499" lon="9.075231889711123"><ele>586.0</ele><time>2026-04-30T15:22:41.008Z</time></trkpt><trkpt lat="39.9469317993984" lon="9.07525572460867"><ele>583.5</ele><time>2026-04-30T15:22:42.008Z</time></trkpt><trkpt lat="39.94704938490983" lon="9.075296685962408"><ele>581.0</ele><time>2026-04-30T15:22:43.009Z</time></trkpt><trkpt lat="39.94716681464108" lon="9.075324250088366"><ele>581.0</ele><time>2026-04-30T15:22:44.009Z</time></trkpt><trkpt lat="39.947288806720465" lon="9.075344119576773"><ele>581.0</ele><time>2026-04-30T15:22:45.009Z</time></trkpt><trkpt lat="39.94736982082941" lon="9.075408829613172"><ele>581.0</ele><time>2026-04-30T15:22:46.009Z</time></trkpt><trkpt lat="39.94737034954487" lon="9.075493153440767"><ele>581.0</ele><time>2026-04-30T15:22:47.009Z</time></trkpt><trkpt lat="39.94744763059061" lon="9.075507330039903"><ele>581.0</ele><time>2026-04-30T15:22:48.009Z</time></trkpt><trkpt lat="39.947240302138106" lon="9.075872240712405"><ele>579.8</ele><time>2026-04-30T15:22:49.009Z</time></trkpt><trkpt lat="39.94719215801792" lon="9.0761038507331"><ele>578.6</ele><time>2026-04-30T15:22:50.009Z</time></trkpt><trkpt lat="39.94725874937068" lon="9.076116877919596"><ele>577.4</ele><time>2026-04-30T15:22:51.009Z</time></trkpt><trkpt lat="39.947345443519616" lon="9.076074535391287"><ele>576.2</ele><time>2026-04-30T15:22:52.009Z</time></trkpt><trkpt lat="39.94741722694924" lon="9.075991585067056"><ele>575.0</ele><time>2026-04-30T15:22:53.009Z</time></trkpt><trkpt lat="39.94745945277215" lon="9.075864347812233"><ele>574.25</ele><time>2026-04-30T15:22:54.009Z</time></trkpt><trkpt lat="39.94751013025828" lon="9.075746836128394"><ele>573.5</ele><time>2026-04-30T15:22:55.009Z</time></trkpt><trkpt lat="39.94757352726556" lon="9.075625510219027"><ele>572.75</ele><time>2026-04-30T15:22:56.009Z</time></trkpt><trkpt lat="39.94766380544646" lon="9.075523340683162"><ele>572.0</ele><time>2026-04-30T15:22:57.009Z</time></trkpt><trkpt lat="39.94776154256491" lon="9.07542238659674"><ele>572.0</ele><time>2026-04-30T15:22:58.009Z</time></trkpt><trkpt lat="39.94786658957758" lon="9.075333253096442"><ele>572.0</ele><time>2026-04-30T15:22:59.009Z</time></trkpt><trkpt lat="39.94796261651832" lon="9.075248175591508"><ele>572.0</ele><time>2026-04-30T15:23:00.009Z</time></trkpt><trkpt lat="39.948055594328835" lon="9.07516515659147"><ele>572.0</ele><time>2026-04-30T15:23:01.009Z</time></trkpt><trkpt lat="39.948147433914805" lon="9.075103023300402"><ele>572.0</ele><time>2026-04-30T15:23:02.009Z</time></trkpt><trkpt lat="39.94824345113563" lon="9.075083117220974"><ele>572.0</ele><time>2026-04-30T15:23:03.009Z</time></trkpt><trkpt lat="39.94834094600047" lon="9.075127203404314"><ele>572.0</ele><time>2026-04-30T15:23:04.009Z</time></trkpt><trkpt lat="39.948401409754716" lon="9.075231959042673"><ele>572.0</ele><time>2026-04-30T15:23:05.009Z</time></trkpt><trkpt lat="39.948458058280124" lon="9.075348617754958"><ele>572.0</ele><time>2026-04-30T15:23:06.009Z</time></trkpt><trkpt lat="39.94854269844927" lon="9.075427156440766"><ele>570.0</ele><time>2026-04-30T15:23:07.009Z</time></trkpt><trkpt lat="39.9486476033449" lon="9.07546266515604"><ele>568.0</ele><time>2026-04-30T15:23:08.009Z</time></trkpt><trkpt lat="39.948761725813576" lon="9.075414204637628"><ele>566.0</ele><time>2026-04-30T15:23:09.009Z</time></trkpt><trkpt lat="39.94887248525632" lon="9.075315646069722"><ele>564.0</ele><time>2026-04-30T15:23:10.009Z</time></trkpt><trkpt lat="39.94898231450495" lon="9.07520905096377"><ele>564.0</ele><time>2026-04-30T15:23:11.009Z</time></trkpt><trkpt lat="39.94908625346704" lon="9.075112775966007"><ele>564.0</ele><time>2026-04-30T15:23:12.009Z</time></trkpt><trkpt lat="39.94919050044605" lon="9.075042270668611"><ele>564.0</ele><time>2026-04-30T15:23:13.009Z</time></trkpt><trkpt lat="39.94928961114938" lon="9.075076757186707"><ele>564.0</ele><time>2026-04-30T15:23:14.009Z</time></trkpt><trkpt lat="39.94938874769488" lon="9.075194203321782"><ele>563.2</ele><time>2026-04-30T15:23:15.009Z</time></trkpt><trkpt lat="39.94947338571221" lon="9.075264434082234"><ele>562.4</ele><time>2026-04-30T15:23:16.009Z</time></trkpt><trkpt lat="39.949555660178575" lon="9.075222422631244"><ele>561.6</ele><time>2026-04-30T15:23:17.009Z</time></trkpt><trkpt lat="39.94961750598323" lon="9.075102159568589"><ele>560.8</ele><time>2026-04-30T15:23:18.009Z</time></trkpt><trkpt lat="39.94967227247319" lon="9.074971939971695"><ele>560.0</ele><time>2026-04-30T15:23:19.009Z</time></trkpt><trkpt lat="39.94974646036322" lon="9.074870666126303"><ele>560.0</ele><time>2026-04-30T15:23:20.009Z</time></trkpt><trkpt lat="39.94985201435625" lon="9.074838763802568"><ele>560.0</ele><time>2026-04-30T15:23:21.009Z</time></trkpt><trkpt lat="39.94997937025614" lon="9.074846100559855"><ele>560.0</ele><time>2026-04-30T15:23:22.009Z</time></trkpt><trkpt lat="39.950103334017385" lon="9.074866740304959"><ele>560.0</ele><time>2026-04-30T15:23:23.009Z</time></trkpt><trkpt lat="39.95021527965514" lon="9.074833609103736"><ele>553.75</ele><time>2026-04-30T15:23:24.009Z</time></trkpt><trkpt lat="39.950307189178915" lon="9.074735109149131"><ele>547.5</ele><time>2026-04-30T15:23:25.009Z</time></trkpt><trkpt lat="39.95037833869639" lon="9.074593968490596"><ele>541.25</ele><time>2026-04-30T15:23:26.009Z</time></trkpt><trkpt lat="39.95044961782786" lon="9.074438915585917"><ele>535.0</ele><time>2026-04-30T15:23:27.009Z</time></trkpt><trkpt lat="39.95053787422567" lon="9.074301783977631"><ele>535.0</ele><time>2026-04-30T15:23:28.009Z</time></trkpt><trkpt lat="39.95061269633094" lon="9.07414921106414"><ele>535.0</ele><time>2026-04-30T15:23:29.009Z</time></trkpt><trkpt lat="39.95066855943324" lon="9.073987641996041"><ele>535.0</ele><time>2026-04-30T15:23:30.009Z</time></trkpt><trkpt lat="39.95073543067224" lon="9.073832276946446"><ele>535.0</ele><time>2026-04-30T15:23:31.009Z</time></trkpt><trkpt lat="39.95082011825013" lon="9.07369033514043"><ele>530.0</ele><time>2026-04-30T15:23:32.009Z</time></trkpt><trkpt lat="39.950915771900505" lon="9.073541756196287"><ele>525.0</ele><time>2026-04-30T15:23:33.009Z</time></trkpt><trkpt lat="39.95100371340784" lon="9.07338068780989"><ele>520.0</ele><time>2026-04-30T15:23:34.009Z</time></trkpt><trkpt lat="39.95108672403187" lon="9.073206009572155"><ele>520.0</ele><time>2026-04-30T15:23:35.009Z</time></trkpt><trkpt lat="39.95115265078153" lon="9.073022060160264"><ele>520.0</ele><time>2026-04-30T15:23:36.009Z</time></trkpt><trkpt lat="39.95121509725906" lon="9.072847122387211"><ele>520.0</ele><time>2026-04-30T15:23:37.009Z</time></trkpt><trkpt lat="39.951289943074656" lon="9.072695891031536"><ele>520.0</ele><time>2026-04-30T15:23:38.009Z</time></trkpt><trkpt lat="39.951372085720145" lon="9.072587982679298"><ele>520.0</ele><time>2026-04-30T15:23:39.009Z</time></trkpt><trkpt lat="39.95142566463715" lon="9.072514817527352"><ele>520.0</ele><time>2026-04-30T15:23:40.009Z</time></trkpt><trkpt lat="39.9514173164361" lon="9.072431954475917"><ele>520.0</ele><time>2026-04-30T15:23:41.009Z</time></trkpt><trkpt lat="39.95132965606285" lon="9.072356450551778"><ele>520.0</ele><time>2026-04-30T15:23:42.009Z</time></trkpt><trkpt lat="39.951211139369015" lon="9.072337010311777"><ele>520.0</ele><time>2026-04-30T15:23:43.009Z</time></trkpt><trkpt lat="39.951077236819195" lon="9.072369391980155"><ele>518.25</ele><time>2026-04-30T15:23:44.009Z</time></trkpt><trkpt lat="39.95093937930541" lon="9.072409980064688"><ele>516.5</ele><time>2026-04-30T15:23:45.009Z</time></trkpt><trkpt lat="39.950802991041165" lon="9.072432550022251"><ele>514.75</ele><time>2026-04-30T15:23:46.009Z</time></trkpt><trkpt lat="39.95066265538504" lon="9.07244797339709"><ele>513.0</ele><time>2026-04-30T15:23:47.009Z</time></trkpt><trkpt lat="39.950516954459445" lon="9.072455484297706"><ele>511.0</ele><time>2026-04-30T15:23:48.009Z</time></trkpt><trkpt lat="39.950365750274315" lon="9.072459628371027"><ele>509.0</ele><time>2026-04-30T15:23:49.009Z</time></trkpt><trkpt lat="39.95020992583388" lon="9.072445474339364"><ele>507.0</ele><time>2026-04-30T15:23:50.009Z</time></trkpt><trkpt lat="39.950056649315734" lon="9.072416256924411"><ele>509.5</ele><time>2026-04-30T15:23:51.009Z</time></trkpt><trkpt lat="39.94991818257251" lon="9.072366460985874"><ele>512.0</ele><time>2026-04-30T15:23:52.009Z</time></trkpt><trkpt lat="39.949777106146215" lon="9.072299066201959"><ele>514.5</ele><time>2026-04-30T15:23:53.009Z</time></trkpt><trkpt lat="39.9496556807089" lon="9.072210118961499"><ele>517.0</ele><time>2026-04-30T15:23:54.009Z</time></trkpt><trkpt lat="39.94955510029232" lon="9.072115859294591"><ele>517.0</ele><time>2026-04-30T15:23:55.009Z</time></trkpt><trkpt lat="39.94950637453385" lon="9.07200607904732"><ele>517.0</ele><time>2026-04-30T15:23:56.009Z</time></trkpt><trkpt lat="39.94953725624367" lon="9.071870905291922"><ele>517.0</ele><time>2026-04-30T15:23:57.009Z</time></trkpt><trkpt lat="39.949638806159875" lon="9.071766870420763"><ele>517.0</ele><time>2026-04-30T15:23:58.009Z</time></trkpt><trkpt lat="39.94978111217963" lon="9.071722657591305"><ele>517.0</ele><time>2026-04-30T15:23:59.009Z</time></trkpt><trkpt lat="39.94992298235552" lon="9.071674426570787"><ele>517.0</ele><time>2026-04-30T15:24:00.009Z</time></trkpt><trkpt lat="39.95005733862085" lon="9.07159853815144"><ele>517.0</ele><time>2026-04-30T15:24:01.009Z</time></trkpt><trkpt lat="39.9501867839505" lon="9.071491605840498"><ele>517.0</ele><time>2026-04-30T15:24:02.009Z</time></trkpt><trkpt lat="39.95031482931617" lon="9.071357205817923"><ele>513.6666666666667</ele><time>2026-04-30T15:24:03.009Z</time></trkpt><trkpt lat="39.950444515998235" lon="9.071212124165454"><ele>510.33333333333337</ele><time>2026-04-30T15:24:04.009Z</time></trkpt><trkpt lat="39.95055534003891" lon="9.07106327197406"><ele>507.0</ele><time>2026-04-30T15:24:05.009Z</time></trkpt><trkpt lat="39.9506737524739" lon="9.070916665179109"><ele>510.33333333333337</ele><time>2026-04-30T15:24:06.009Z</time></trkpt><trkpt lat="39.95079552755391" lon="9.070768779216836"><ele>513.6666666666667</ele><time>2026-04-30T15:24:07.009Z</time></trkpt><trkpt lat="39.95090990862981" lon="9.070602831784495"><ele>517.0</ele><time>2026-04-30T15:24:08.009Z</time></trkpt><trkpt lat="39.95099663840806" lon="9.070413078933374"><ele>506.0</ele><time>2026-04-30T15:24:09.009Z</time></trkpt><trkpt lat="39.95105560351889" lon="9.07019734549512"><ele>495.0</ele><time>2026-04-30T15:24:10.009Z</time></trkpt><trkpt lat="39.95111492655599" lon="9.069966519361508"><ele>484.0</ele><time>2026-04-30T15:24:11.009Z</time></trkpt><trkpt lat="39.951201801295646" lon="9.069759145969964"><ele>484.0</ele><time>2026-04-30T15:24:12.009Z</time></trkpt><trkpt lat="39.95129890993756" lon="9.069554944198927"><ele>484.0</ele><time>2026-04-30T15:24:13.009Z</time></trkpt><trkpt lat="39.95138488510332" lon="9.069342509468148"><ele>484.0</ele><time>2026-04-30T15:24:14.009Z</time></trkpt><trkpt lat="39.951453665696036" lon="9.069118738418652"><ele>485.0</ele><time>2026-04-30T15:24:15.009Z</time></trkpt><trkpt lat="39.95149532847348" lon="9.068895444444436"><ele>486.0</ele><time>2026-04-30T15:24:16.009Z</time></trkpt><trkpt lat="39.95148515762826" lon="9.068663890483135"><ele>487.0</ele><time>2026-04-30T15:24:17.009Z</time></trkpt><trkpt lat="39.95144733933341" lon="9.06844440163679"><ele>494.0</ele><time>2026-04-30T15:24:18.009Z</time></trkpt><trkpt lat="39.951409280687486" lon="9.068250322635013"><ele>501.0</ele><time>2026-04-30T15:24:19.009Z</time></trkpt><trkpt lat="39.95145606763714" lon="9.068081239413067"><ele>508.0</ele><time>2026-04-30T15:24:20.009Z</time></trkpt><trkpt lat="39.9515844517991" lon="9.067954033791162"><ele>497.33333333333337</ele><time>2026-04-30T15:24:21.009Z</time></trkpt><trkpt lat="39.95174621423151" lon="9.067876431064663"><ele>486.66666666666663</ele><time>2026-04-30T15:24:22.009Z</time></trkpt><trkpt lat="39.95192725876342" lon="9.067825222176829"><ele>476.0</ele><time>2026-04-30T15:24:23.009Z</time></trkpt><trkpt lat="39.95208260619995" lon="9.067752286657491"><ele>476.0</ele><time>2026-04-30T15:24:24.009Z</time></trkpt><trkpt lat="39.95221699188763" lon="9.06766005854418"><ele>476.0</ele><time>2026-04-30T15:24:25.009Z</time></trkpt><trkpt lat="39.95233560050583" lon="9.067541954840136"><ele>476.0</ele><time>2026-04-30T15:24:26.009Z</time></trkpt><trkpt lat="39.95242460764896" lon="9.06737413687944"><ele>479.75</ele><time>2026-04-30T15:24:27.009Z</time></trkpt><trkpt lat="39.95247792472459" lon="9.06717775697866"><ele>483.5</ele><time>2026-04-30T15:24:28.009Z</time></trkpt><trkpt lat="39.9525322062335" lon="9.067002712239711"><ele>487.25</ele><time>2026-04-30T15:24:29.009Z</time></trkpt><trkpt lat="39.95265576532071" lon="9.066914907944286"><ele>491.0</ele><time>2026-04-30T15:24:30.009Z</time></trkpt><trkpt lat="39.95282256097184" lon="9.066891224339276"><ele>488.75</ele><time>2026-04-30T15:24:31.009Z</time></trkpt><trkpt lat="39.95294031604902" lon="9.066829361157453"><ele>486.5</ele><time>2026-04-30T15:24:32.009Z</time></trkpt><trkpt lat="39.953032322995746" lon="9.06670397034995"><ele>484.25</ele><time>2026-04-30T15:24:33.009Z</time></trkpt><trkpt lat="39.953066771733425" lon="9.066481308282968"><ele>482.0</ele><time>2026-04-30T15:24:34.008Z</time></trkpt><trkpt lat="39.95307566929771" lon="9.066273111455384"><ele>482.0</ele><time>2026-04-30T15:24:35.008Z</time></trkpt><trkpt lat="39.9531004368723" lon="9.066068729335496"><ele>482.0</ele><time>2026-04-30T15:24:36.008Z</time></trkpt><trkpt lat="39.95315068590522" lon="9.065912494437905"><ele>482.0</ele><time>2026-04-30T15:24:37.008Z</time></trkpt><trkpt lat="39.9532424720874" lon="9.065812299307545"><ele>482.0</ele><time>2026-04-30T15:24:38.009Z</time></trkpt><trkpt lat="39.953389781440656" lon="9.065804695370574"><ele>481.66666666666663</ele><time>2026-04-30T15:24:39.009Z</time></trkpt><trkpt lat="39.95354368626723" lon="9.065891939870145"><ele>481.33333333333337</ele><time>2026-04-30T15:24:40.008Z</time></trkpt><trkpt lat="39.95368679533108" lon="9.06604122615528"><ele>481.0</ele><time>2026-04-30T15:24:41.008Z</time></trkpt><trkpt lat="39.95383440928128" lon="9.06615584645951"><ele>481.0</ele><time>2026-04-30T15:24:42.008Z</time></trkpt><trkpt lat="39.95400180431706" lon="9.06621487454317"><ele>481.0</ele><time>2026-04-30T15:24:43.009Z</time></trkpt><trkpt lat="39.954196119772696" lon="9.066208333414156"><ele>481.0</ele><time>2026-04-30T15:24:44.008Z</time></trkpt><trkpt lat="39.95437870349108" lon="9.066172445679156"><ele>473.33333333333337</ele><time>2026-04-30T15:24:45.008Z</time></trkpt><trkpt lat="39.954533322814" lon="9.066094033345324"><ele>465.66666666666663</ele><time>2026-04-30T15:24:46.009Z</time></trkpt><trkpt lat="39.95466886604194" lon="9.065960391038047"><ele>458.0</ele><time>2026-04-30T15:24:47.008Z</time></trkpt><trkpt lat="39.95479430555992" lon="9.06580872132463"><ele>459.66666666666663</ele><time>2026-04-30T15:24:48.008Z</time></trkpt><trkpt lat="39.9549386482908" lon="9.06570014551159"><ele>461.33333333333337</ele><time>2026-04-30T15:24:49.008Z</time></trkpt><trkpt lat="39.95512425078026" lon="9.065685695004468"><ele>463.0</ele><time>2026-04-30T15:24:50.009Z</time></trkpt><trkpt lat="39.95530880830924" lon="9.065658806566027"><ele>463.0</ele><time>2026-04-30T15:24:51.009Z</time></trkpt><trkpt lat="39.95548205989258" lon="9.065572361794672"><ele>463.0</ele><time>2026-04-30T15:24:52.009Z</time></trkpt><trkpt lat="39.95564157624334" lon="9.065443024361867"><ele>463.0</ele><time>2026-04-30T15:24:53.009Z</time></trkpt><trkpt lat="39.95579791495337" lon="9.065301496003627"><ele>454.0</ele><time>2026-04-30T15:24:54.009Z</time></trkpt><trkpt lat="39.95594803841643" lon="9.065178583013285"><ele>445.0</ele><time>2026-04-30T15:24:55.009Z</time></trkpt><trkpt lat="39.95610919410193" lon="9.065102605002572"><ele>436.0</ele><time>2026-04-30T15:24:56.009Z</time></trkpt><trkpt lat="39.95627013404377" lon="9.065028137123672"><ele>440.33333333333337</ele><time>2026-04-30T15:24:57.009Z</time></trkpt><trkpt lat="39.95640462620071" lon="9.064906462755737"><ele>444.66666666666663</ele><time>2026-04-30T15:24:58.009Z</time></trkpt><trkpt lat="39.95652527253983" lon="9.06475362628489"><ele>449.0</ele><time>2026-04-30T15:24:59.009Z</time></trkpt><trkpt lat="39.95662068767229" lon="9.064571423246644"><ele>441.5</ele><time>2026-04-30T15:25:00.009Z</time></trkpt><trkpt lat="39.956741487982164" lon="9.064430391071657"><ele>434.0</ele><time>2026-04-30T15:25:01.009Z</time></trkpt><trkpt lat="39.95687582544268" lon="9.064329792245852"><ele>426.5</ele><time>2026-04-30T15:25:02.009Z</time></trkpt><trkpt lat="39.95697572397653" lon="9.064234811318132"><ele>419.0</ele><time>2026-04-30T15:25:03.009Z</time></trkpt><trkpt lat="39.95703391672656" lon="9.064112912046964"><ele>416.0</ele><time>2026-04-30T15:25:04.009Z</time></trkpt><trkpt lat="39.957018262903674" lon="9.063949222977039"><ele>413.0</ele><time>2026-04-30T15:25:05.009Z</time></trkpt><trkpt lat="39.95692858372337" lon="9.063734550387103"><ele>410.0</ele><time>2026-04-30T15:25:06.009Z</time></trkpt><trkpt lat="39.95685164764707" lon="9.063519889714426"><ele>410.0</ele><time>2026-04-30T15:25:07.009Z</time></trkpt><trkpt lat="39.95680169255484" lon="9.063347068684056"><ele>410.0</ele><time>2026-04-30T15:25:08.009Z</time></trkpt><trkpt lat="39.95672142143054" lon="9.0632064562736"><ele>410.0</ele><time>2026-04-30T15:25:09.009Z</time></trkpt><trkpt lat="39.95659954666319" lon="9.063101890796764"><ele>410.0</ele><time>2026-04-30T15:25:10.009Z</time></trkpt><trkpt lat="39.95642344239686" lon="9.063050570862384"><ele>414.3333333333333</ele><time>2026-04-30T15:25:11.009Z</time></trkpt><trkpt lat="39.95624899353124" lon="9.062956480032597"><ele>418.66666666666663</ele><time>2026-04-30T15:25:12.009Z</time></trkpt><trkpt lat="39.956106428352946" lon="9.062793668687535"><ele>423.0</ele><time>2026-04-30T15:25:13.009Z</time></trkpt><trkpt lat="39.95602219107869" lon="9.062575582046449"><ele>421.0</ele><time>2026-04-30T15:25:14.009Z</time></trkpt><trkpt lat="39.955972248150125" lon="9.062376288040205"><ele>419.0</ele><time>2026-04-30T15:25:15.009Z</time></trkpt><trkpt lat="39.955972992574964" lon="9.062158394557313"><ele>417.0</ele><time>2026-04-30T15:25:16.009Z</time></trkpt><trkpt lat="39.95603202155199" lon="9.061936376598961"><ele>417.0</ele><time>2026-04-30T15:25:17.009Z</time></trkpt><trkpt lat="39.95606681085584" lon="9.061712835292363"><ele>417.0</ele><time>2026-04-30T15:25:18.009Z</time></trkpt><trkpt lat="39.956059900834724" lon="9.061487691670237"><ele>417.0</ele><time>2026-04-30T15:25:19.009Z</time></trkpt><trkpt lat="39.95602244414826" lon="9.061273807066625"><ele>420.0</ele><time>2026-04-30T15:25:20.009Z</time></trkpt><trkpt lat="39.95600248712376" lon="9.061084930775444"><ele>423.0</ele><time>2026-04-30T15:25:21.008Z</time></trkpt><trkpt lat="39.95601567157464" lon="9.060922832676663"><ele>426.0</ele><time>2026-04-30T15:25:22.008Z</time></trkpt><trkpt lat="39.956083155066445" lon="9.060798442280682"><ele>429.0</ele><time>2026-04-30T15:25:23.008Z</time></trkpt><trkpt lat="39.95617480030418" lon="9.060700270258579"><ele>429.0</ele><time>2026-04-30T15:25:24.008Z</time></trkpt><trkpt lat="39.95634467269487" lon="9.060727783360406"><ele>429.0</ele><time>2026-04-30T15:25:25.008Z</time></trkpt><trkpt lat="39.95650725398367" lon="9.06082388055214"><ele>429.0</ele><time>2026-04-30T15:25:26.008Z</time></trkpt><trkpt lat="39.95664789387862" lon="9.06097086471285"><ele>425.33333333333337</ele><time>2026-04-30T15:25:27.008Z</time></trkpt><trkpt lat="39.95678936314812" lon="9.061111294319486"><ele>421.6666666666667</ele><time>2026-04-30T15:25:28.008Z</time></trkpt><trkpt lat="39.95693294264229" lon="9.061220125524686"><ele>418.0</ele><time>2026-04-30T15:25:29.008Z</time></trkpt><trkpt lat="39.957081978200335" lon="9.061271263177929"><ele>418.0</ele><time>2026-04-30T15:25:30.008Z</time></trkpt><trkpt lat="39.95720691632729" lon="9.061218519984065"><ele>418.0</ele><time>2026-04-30T15:25:31.008Z</time></trkpt><trkpt lat="39.95733141436458" lon="9.061079214943351"><ele>418.0</ele><time>2026-04-30T15:25:32.008Z</time></trkpt><trkpt lat="39.957458877330886" lon="9.060922969479961"><ele>415.33333333333337</ele><time>2026-04-30T15:25:33.008Z</time></trkpt><trkpt lat="39.95760098723594" lon="9.060804105035823"><ele>412.66666666666663</ele><time>2026-04-30T15:25:34.008Z</time></trkpt><trkpt lat="39.95773135884718" lon="9.060713484127689"><ele>410.0</ele><time>2026-04-30T15:25:35.008Z</time></trkpt><trkpt lat="39.957870746866455" lon="9.06070514452945"><ele>410.0</ele><time>2026-04-30T15:25:36.008Z</time></trkpt><trkpt lat="39.95800991971673" lon="9.060773941303067"><ele>410.0</ele><time>2026-04-30T15:25:37.008Z</time></trkpt><trkpt lat="39.95812062644739" lon="9.06095297356475"><ele>410.0</ele><time>2026-04-30T15:25:38.008Z</time></trkpt><trkpt lat="39.958240399110075" lon="9.061059117149291"><ele>408.0</ele><time>2026-04-30T15:25:39.008Z</time></trkpt><trkpt lat="39.958168494037764" lon="9.061482945057477"><ele>406.0</ele><time>2026-04-30T15:25:40.008Z</time></trkpt><trkpt lat="39.958267167036794" lon="9.06160774711993"><ele>399.0</ele><time>2026-04-30T15:25:41.008Z</time></trkpt><trkpt lat="39.95837752143086" lon="9.061599257949306"><ele>392.0</ele><time>2026-04-30T15:25:42.008Z</time></trkpt><trkpt lat="39.958475054295455" lon="9.06149708190763"><ele>385.0</ele><time>2026-04-30T15:25:43.008Z</time></trkpt><trkpt lat="39.95857131796564" lon="9.061311427441048"><ele>378.0</ele><time>2026-04-30T15:25:44.008Z</time></trkpt><trkpt lat="39.95865421999239" lon="9.0611424858048"><ele>378.0</ele><time>2026-04-30T15:25:45.008Z</time></trkpt><trkpt lat="39.95871382561876" lon="9.060923918735089"><ele>378.0</ele><time>2026-04-30T15:25:46.008Z</time></trkpt><trkpt lat="39.95873553017475" lon="9.060603061548095"><ele>378.0</ele><time>2026-04-30T15:25:47.008Z</time></trkpt><trkpt lat="39.9586853518893" lon="9.060340523347987"><ele>379.6666666666667</ele><time>2026-04-30T15:25:48.008Z</time></trkpt><trkpt lat="39.958661441894904" lon="9.060099477579366"><ele>381.33333333333337</ele><time>2026-04-30T15:25:49.008Z</time></trkpt><trkpt lat="39.958657121942046" lon="9.05988051650363"><ele>383.0</ele><time>2026-04-30T15:25:50.008Z</time></trkpt><trkpt lat="39.95865758094272" lon="9.059671000368798"><ele>384.5</ele><time>2026-04-30T15:25:51.008Z</time></trkpt><trkpt lat="39.95867267294189" lon="9.059472722049918"><ele>386.0</ele><time>2026-04-30T15:25:52.008Z</time></trkpt><trkpt lat="39.95870953673363" lon="9.05931968039322"><ele>387.5</ele><time>2026-04-30T15:25:53.008Z</time></trkpt><trkpt lat="39.958762868002275" lon="9.059179657291727"><ele>389.0</ele><time>2026-04-30T15:25:54.008Z</time></trkpt><trkpt lat="39.958848246843765" lon="9.059078817312372"><ele>389.0</ele><time>2026-04-30T15:25:55.008Z</time></trkpt><trkpt lat="39.958969328838535" lon="9.059046856649973"><ele>389.0</ele><time>2026-04-30T15:25:56.008Z</time></trkpt><trkpt lat="39.959087362092234" lon="9.059112823673967"><ele>389.0</ele><time>2026-04-30T15:25:57.008Z</time></trkpt><trkpt lat="39.9591702297799" lon="9.059211267346617"><ele>389.0</ele><time>2026-04-30T15:25:58.008Z</time></trkpt><trkpt lat="39.95926007512716" lon="9.059296743605826"><ele>388.75</ele><time>2026-04-30T15:25:59.008Z</time></trkpt><trkpt lat="39.95935702758939" lon="9.059372658479274"><ele>388.5</ele><time>2026-04-30T15:26:00.008Z</time></trkpt><trkpt lat="39.95945757588375" lon="9.059452008531219"><ele>388.25</ele><time>2026-04-30T15:26:01.008Z</time></trkpt><trkpt lat="39.959554740780796" lon="9.0595364963548"><ele>388.0</ele><time>2026-04-30T15:26:02.008Z</time></trkpt><trkpt lat="39.959643155963064" lon="9.059635919706086"><ele>388.0</ele><time>2026-04-30T15:26:03.008Z</time></trkpt><trkpt lat="39.95971583649548" lon="9.059762670864265"><ele>388.0</ele><time>2026-04-30T15:26:04.008Z</time></trkpt><trkpt lat="39.959801833686704" lon="9.059906774481234"><ele>388.0</ele><time>2026-04-30T15:26:05.008Z</time></trkpt><trkpt lat="39.959893566088944" lon="9.060062289625662"><ele>388.0</ele><time>2026-04-30T15:26:06.008Z</time></trkpt><trkpt lat="39.95999112286974" lon="9.060222850889849"><ele>385.25</ele><time>2026-04-30T15:26:07.008Z</time></trkpt><trkpt lat="39.96009436474634" lon="9.06036120434578"><ele>382.5</ele><time>2026-04-30T15:26:08.008Z</time></trkpt><trkpt lat="39.96019840655655" lon="9.060480891366193"><ele>379.75</ele><time>2026-04-30T15:26:09.008Z</time></trkpt><trkpt lat="39.96030336966185" lon="9.060577518977473"><ele>377.0</ele><time>2026-04-30T15:26:10.008Z</time></trkpt><trkpt lat="39.96043230824716" lon="9.060642023647734"><ele>377.0</ele><time>2026-04-30T15:26:11.008Z</time></trkpt><trkpt lat="39.96061024342798" lon="9.060674508398051"><ele>377.0</ele><time>2026-04-30T15:26:12.008Z</time></trkpt><trkpt lat="39.96081908074431" lon="9.060708045174081"><ele>377.0</ele><time>2026-04-30T15:26:13.008Z</time></trkpt><trkpt lat="39.96101891505203" lon="9.06076674135722"><ele>370.0</ele><time>2026-04-30T15:26:14.008Z</time></trkpt><trkpt lat="39.961224555868675" lon="9.060836252114147"><ele>363.0</ele><time>2026-04-30T15:26:15.008Z</time></trkpt><trkpt lat="39.96143330464231" lon="9.060909966636695"><ele>356.0</ele><time>2026-04-30T15:26:16.008Z</time></trkpt><trkpt lat="39.96164189945052" lon="9.06098320444762"><ele>351.33333333333337</ele><time>2026-04-30T15:26:17.008Z</time></trkpt><trkpt lat="39.96183523182168" lon="9.06105001385309"><ele>346.6666666666667</ele><time>2026-04-30T15:26:18.008Z</time></trkpt><trkpt lat="39.96202089865011" lon="9.061107368361759"><ele>342.0</ele><time>2026-04-30T15:26:19.008Z</time></trkpt><trkpt lat="39.962181403631256" lon="9.061164692860213"><ele>342.0</ele><time>2026-04-30T15:26:20.008Z</time></trkpt><trkpt lat="39.9623057947839" lon="9.061212573276233"><ele>342.0</ele><time>2026-04-30T15:26:21.008Z</time></trkpt><trkpt lat="39.962389651383994" lon="9.061276096667845"><ele>342.0</ele><time>2026-04-30T15:26:22.008Z</time></trkpt><trkpt lat="39.96241156963321" lon="9.06136923100908"><ele>342.0</ele><time>2026-04-30T15:26:23.008Z</time></trkpt><trkpt lat="39.96234509019234" lon="9.061482557344373"><ele>342.0</ele><time>2026-04-30T15:26:24.008Z</time></trkpt><trkpt lat="39.96223038154834" lon="9.061558854301369"><ele>342.0</ele><time>2026-04-30T15:26:25.008Z</time></trkpt><trkpt lat="39.96204850756811" lon="9.061529988054172"><ele>342.0</ele><time>2026-04-30T15:26:26.008Z</time></trkpt><trkpt lat="39.961866100402496" lon="9.061482516726436"><ele>342.0</ele><time>2026-04-30T15:26:27.008Z</time></trkpt><trkpt lat="39.96167470209711" lon="9.061386591974886"><ele>346.6666666666667</ele><time>2026-04-30T15:26:28.008Z</time></trkpt><trkpt lat="39.961502544427" lon="9.061296473569051"><ele>351.33333333333337</ele><time>2026-04-30T15:26:29.008Z</time></trkpt><trkpt lat="39.9613317011939" lon="9.061282972890423"><ele>356.0</ele><time>2026-04-30T15:26:30.008Z</time></trkpt><trkpt lat="39.96118290563766" lon="9.061367103086994"><ele>356.0</ele><time>2026-04-30T15:26:31.008Z</time></trkpt><trkpt lat="39.96105029807218" lon="9.061505441189958"><ele>356.0</ele><time>2026-04-30T15:26:32.008Z</time></trkpt><trkpt lat="39.960971700228875" lon="9.06168252694849"><ele>356.0</ele><time>2026-04-30T15:26:33.008Z</time></trkpt><trkpt lat="39.96094999393608" lon="9.061883977414725"><ele>352.6666666666667</ele><time>2026-04-30T15:26:34.008Z</time></trkpt><trkpt lat="39.960999566045764" lon="9.06204988887734"><ele>349.3333333333333</ele><time>2026-04-30T15:26:35.008Z</time></trkpt><trkpt lat="39.961100687833095" lon="9.062186727848097"><ele>346.0</ele><time>2026-04-30T15:26:36.008Z</time></trkpt><trkpt lat="39.961252622415685" lon="9.062296487433644"><ele>346.0</ele><time>2026-04-30T15:26:37.008Z</time></trkpt><trkpt lat="39.96144648546349" lon="9.062325074909896"><ele>346.0</ele><time>2026-04-30T15:26:38.008Z</time></trkpt><trkpt lat="39.96156666482841" lon="9.062440734305598"><ele>346.0</ele><time>2026-04-30T15:26:39.008Z</time></trkpt><trkpt lat="39.96163048461505" lon="9.062602429300036"><ele>343.3333333333333</ele><time>2026-04-30T15:26:40.008Z</time></trkpt><trkpt lat="39.9616342982159" lon="9.062848166960013"><ele>340.6666666666667</ele><time>2026-04-30T15:26:41.008Z</time></trkpt><trkpt lat="39.96162311172202" lon="9.063094281074296"><ele>338.0</ele><time>2026-04-30T15:26:42.008Z</time></trkpt><trkpt lat="39.96160110372784" lon="9.063313971046833"><ele>338.0</ele><time>2026-04-30T15:26:43.009Z</time></trkpt><trkpt lat="39.961602025847995" lon="9.06350932062659"><ele>338.0</ele><time>2026-04-30T15:26:44.008Z</time></trkpt><trkpt lat="39.96160607708151" lon="9.063680144341623"><ele>338.0</ele><time>2026-04-30T15:26:45.008Z</time></trkpt><trkpt lat="39.96163904492567" lon="9.063821478678664"><ele>338.0</ele><time>2026-04-30T15:26:46.009Z</time></trkpt><trkpt lat="39.96175104213243" lon="9.063922508873246"><ele>334.6666666666667</ele><time>2026-04-30T15:26:47.008Z</time></trkpt><trkpt lat="39.96192317034018" lon="9.063938360544835"><ele>331.3333333333333</ele><time>2026-04-30T15:26:48.008Z</time></trkpt><trkpt lat="39.962097535170344" lon="9.063906451989984"><ele>328.0</ele><time>2026-04-30T15:26:49.008Z</time></trkpt><trkpt lat="39.96222208461892" lon="9.063926169790177"><ele>328.0</ele><time>2026-04-30T15:26:50.008Z</time></trkpt><trkpt lat="39.96231586157779" lon="9.06395405955149"><ele>328.0</ele><time>2026-04-30T15:26:51.008Z</time></trkpt><trkpt lat="39.96240757620137" lon="9.063981457917658"><ele>328.0</ele><time>2026-04-30T15:26:52.008Z</time></trkpt><trkpt lat="39.96248568788612" lon="9.064008087559412"><ele>328.0</ele><time>2026-04-30T15:26:53.008Z</time></trkpt><trkpt lat="39.96255528079502" lon="9.064029410005775"><ele>328.0</ele><time>2026-04-30T15:26:54.008Z</time></trkpt><trkpt lat="39.962619490476996" lon="9.064049088010767"><ele>328.0</ele><time>2026-04-30T15:26:55.008Z</time></trkpt><trkpt lat="39.96268203327049" lon="9.064075872698234"><ele>327.8333333333333</ele><time>2026-04-30T15:26:56.008Z</time></trkpt><trkpt lat="39.962754402938586" lon="9.06410847245467"><ele>327.66666666666663</ele><time>2026-04-30T15:26:57.008Z</time></trkpt><trkpt lat="39.96282487520121" lon="9.064153327391729"><ele>327.5</ele><time>2026-04-30T15:26:58.008Z</time></trkpt><trkpt lat="39.96289249771004" lon="9.064203385837034"><ele>327.3333333333333</ele><time>2026-04-30T15:26:59.008Z</time></trkpt><trkpt lat="39.96296282610872" lon="9.064246662774472"><ele>327.1666666666667</ele><time>2026-04-30T15:27:00.008Z</time></trkpt><trkpt lat="39.963053531411404" lon="9.06428498998974"><ele>327.0</ele><time>2026-04-30T15:27:01.008Z</time></trkpt><trkpt lat="39.96315087218689" lon="9.064312956035106"><ele>328.3333333333333</ele><time>2026-04-30T15:27:02.008Z</time></trkpt><trkpt lat="39.963252074960074" lon="9.064338885684542"><ele>329.6666666666667</ele><time>2026-04-30T15:27:03.008Z</time></trkpt><trkpt lat="39.963336482108836" lon="9.064359708158658"><ele>331.0</ele><time>2026-04-30T15:27:04.008Z</time></trkpt><trkpt lat="39.96341779033198" lon="9.064373016475228"><ele>332.33333333333337</ele><time>2026-04-30T15:27:05.008Z</time></trkpt><trkpt lat="39.96349438628044" lon="9.06438286796863"><ele>333.6666666666667</ele><time>2026-04-30T15:27:06.008Z</time></trkpt><trkpt lat="39.963567767922754" lon="9.06438443842928"><ele>335.0</ele><time>2026-04-30T15:27:07.008Z</time></trkpt><trkpt lat="39.963640030900855" lon="9.06438854832755"><ele>335.0</ele><time>2026-04-30T15:27:08.008Z</time></trkpt><trkpt lat="39.96371239285956" lon="9.064393655652637"><ele>335.0</ele><time>2026-04-30T15:27:09.008Z</time></trkpt><trkpt lat="39.96379839235141" lon="9.06440461794189"><ele>335.0</ele><time>2026-04-30T15:27:10.008Z</time></trkpt><trkpt lat="39.96388973838378" lon="9.064441532784928"><ele>335.0</ele><time>2026-04-30T15:27:11.008Z</time></trkpt><trkpt lat="39.963959828470045" lon="9.064491969242109"><ele>335.0</ele><time>2026-04-30T15:27:12.008Z</time></trkpt><trkpt lat="39.964029536459535" lon="9.064538531605459"><ele>335.0</ele><time>2026-04-30T15:27:13.008Z</time></trkpt><trkpt lat="39.96410495868892" lon="9.064583964816432"><ele>335.0</ele><time>2026-04-30T15:27:14.008Z</time></trkpt><trkpt lat="39.964177560241275" lon="9.064624154391616"><ele>335.0</ele><time>2026-04-30T15:27:15.008Z</time></trkpt><trkpt lat="39.9642443597718" lon="9.064662129342276"><ele>335.0</ele><time>2026-04-30T15:27:16.008Z</time></trkpt><trkpt lat="39.96431100692672" lon="9.064698363573944"><ele>335.0</ele><time>2026-04-30T15:27:17.008Z</time></trkpt><trkpt lat="39.96438273083784" lon="9.064741862104322"><ele>335.0</ele><time>2026-04-30T15:27:18.008Z</time></trkpt><trkpt lat="39.96445732887771" lon="9.064768716326803"><ele>335.0</ele><time>2026-04-30T15:27:19.008Z</time></trkpt><trkpt lat="39.96455336147742" lon="9.064776929437537"><ele>334.33333333333337</ele><time>2026-04-30T15:27:20.008Z</time></trkpt><trkpt lat="39.96468317490395" lon="9.064784043740792"><ele>333.6666666666667</ele><time>2026-04-30T15:27:21.008Z</time></trkpt><trkpt lat="39.96484643359519" lon="9.064785434600582"><ele>333.0</ele><time>2026-04-30T15:27:22.008Z</time></trkpt><trkpt lat="39.96502381868671" lon="9.064805149700401"><ele>334.3333333333333</ele><time>2026-04-30T15:27:23.008Z</time></trkpt><trkpt lat="39.96520910336837" lon="9.064828338782444"><ele>335.66666666666663</ele><time>2026-04-30T15:27:24.008Z</time></trkpt><trkpt lat="39.965407755675116" lon="9.06483091097528"><ele>337.0</ele><time>2026-04-30T15:27:25.008Z</time></trkpt><trkpt lat="39.96561232486481" lon="9.064837654204434"><ele>337.0</ele><time>2026-04-30T15:27:26.008Z</time></trkpt><trkpt lat="39.965825448110806" lon="9.064839735520065"><ele>337.0</ele><time>2026-04-30T15:27:27.008Z</time></trkpt><trkpt lat="39.9660362114511" lon="9.064833310342106"><ele>337.0</ele><time>2026-04-30T15:27:28.008Z</time></trkpt><trkpt lat="39.96624238779806" lon="9.064838319780144"><ele>341.66666666666663</ele><time>2026-04-30T15:27:29.008Z</time></trkpt><trkpt lat="39.96644971929004" lon="9.064841440989806"><ele>346.3333333333333</ele><time>2026-04-30T15:27:30.008Z</time></trkpt><trkpt lat="39.96665194583121" lon="9.06484715921198"><ele>351.0</ele><time>2026-04-30T15:27:31.008Z</time></trkpt><trkpt lat="39.96684744004644" lon="9.064829788569265"><ele>356.3333333333333</ele><time>2026-04-30T15:27:32.008Z</time></trkpt><trkpt lat="39.96704862994318" lon="9.06475942698724"><ele>361.66666666666663</ele><time>2026-04-30T15:27:33.008Z</time></trkpt><trkpt lat="39.96724308604233" lon="9.064660682184936"><ele>367.0</ele><time>2026-04-30T15:27:34.008Z</time></trkpt><trkpt lat="39.96742881721299" lon="9.064579913962396"><ele>374.0</ele><time>2026-04-30T15:27:35.008Z</time></trkpt><trkpt lat="39.967595480251696" lon="9.064518605209775"><ele>381.0</ele><time>2026-04-30T15:27:36.008Z</time></trkpt><trkpt lat="39.967730623553" lon="9.064427774041425"><ele>388.0</ele><time>2026-04-30T15:27:37.008Z</time></trkpt><trkpt lat="39.96779932874322" lon="9.064278484096324"><ele>384.0</ele><time>2026-04-30T15:27:38.008Z</time></trkpt><trkpt lat="39.96781158824405" lon="9.064072703748149"><ele>380.0</ele><time>2026-04-30T15:27:39.008Z</time></trkpt><trkpt lat="39.96785880252433" lon="9.06387998361301"><ele>376.0</ele><time>2026-04-30T15:27:40.008Z</time></trkpt><trkpt lat="39.96799153751818" lon="9.063771686767442"><ele>376.0</ele><time>2026-04-30T15:27:41.008Z</time></trkpt><trkpt lat="39.96816313726313" lon="9.063793293068732"><ele>376.0</ele><time>2026-04-30T15:27:42.008Z</time></trkpt><trkpt lat="39.96833568806876" lon="9.06387871442677"><ele>376.0</ele><time>2026-04-30T15:27:43.008Z</time></trkpt><trkpt lat="39.96848118092697" lon="9.063966435741376"><ele>385.0</ele><time>2026-04-30T15:27:44.008Z</time></trkpt><trkpt lat="39.96859537845023" lon="9.0639722598867"><ele>394.0</ele><time>2026-04-30T15:27:45.008Z</time></trkpt><trkpt lat="39.968663531315265" lon="9.063831925901171"><ele>403.0</ele><time>2026-04-30T15:27:46.008Z</time></trkpt><trkpt lat="39.968651107135734" lon="9.06361398560113"><ele>412.0</ele><time>2026-04-30T15:27:47.008Z</time></trkpt><trkpt lat="39.96858909106253" lon="9.063381501143345"><ele>410.33333333333337</ele><time>2026-04-30T15:27:48.008Z</time></trkpt><trkpt lat="39.96856322878078" lon="9.063157282107777"><ele>408.66666666666663</ele><time>2026-04-30T15:27:49.008Z</time></trkpt><trkpt lat="39.9686235729308" lon="9.062931774892922"><ele>407.0</ele><time>2026-04-30T15:27:50.008Z</time></trkpt><trkpt lat="39.968738096130664" lon="9.062730605534412"><ele>407.0</ele><time>2026-04-30T15:27:51.008Z</time></trkpt><trkpt lat="39.96885301442501" lon="9.062527365926602"><ele>407.0</ele><time>2026-04-30T15:27:52.008Z</time></trkpt><trkpt lat="39.96891830496948" lon="9.062297483434193"><ele>407.0</ele><time>2026-04-30T15:27:53.008Z</time></trkpt><trkpt lat="39.96894735641024" lon="9.062038474147636"><ele>404.0</ele><time>2026-04-30T15:27:54.008Z</time></trkpt><trkpt lat="39.96896570378116" lon="9.06177982360125"><ele>401.0</ele><time>2026-04-30T15:27:55.008Z</time></trkpt><trkpt lat="39.96899606038459" lon="9.061579089232726"><ele>398.0</ele><time>2026-04-30T15:27:56.008Z</time></trkpt><trkpt lat="39.96909001876349" lon="9.061479169508797"><ele>391.3333333333333</ele><time>2026-04-30T15:27:57.008Z</time></trkpt><trkpt lat="39.969227720895084" lon="9.061426631357929"><ele>384.66666666666663</ele><time>2026-04-30T15:27:58.008Z</time></trkpt><trkpt lat="39.969407543252" lon="9.06141389387723"><ele>378.0</ele><time>2026-04-30T15:27:59.008Z</time></trkpt><trkpt lat="39.96960333604058" lon="9.061414490660104"><ele>378.0</ele><time>2026-04-30T15:28:00.008Z</time></trkpt><trkpt lat="39.969790177933" lon="9.06142625834798"><ele>378.0</ele><time>2026-04-30T15:28:01.008Z</time></trkpt><trkpt lat="39.96998786569892" lon="9.061455064566925"><ele>378.0</ele><time>2026-04-30T15:28:02.008Z</time></trkpt><trkpt lat="39.97019282560503" lon="9.061524045688314"><ele>385.66666666666663</ele><time>2026-04-30T15:28:03.008Z</time></trkpt><trkpt lat="39.97038289853315" lon="9.061587164586092"><ele>393.3333333333333</ele><time>2026-04-30T15:28:04.008Z</time></trkpt><trkpt lat="39.97053370705503" lon="9.061650295316326"><ele>401.0</ele><time>2026-04-30T15:28:05.008Z</time></trkpt><trkpt lat="39.97065357901045" lon="9.061679732214397"><ele>401.0</ele><time>2026-04-30T15:28:06.008Z</time></trkpt><trkpt lat="39.97073301139029" lon="9.061639973878638"><ele>401.0</ele><time>2026-04-30T15:28:07.008Z</time></trkpt><trkpt lat="39.97076742588562" lon="9.061494728872336"><ele>401.0</ele><time>2026-04-30T15:28:08.008Z</time></trkpt><trkpt lat="39.97077264162951" lon="9.06132410143901"><ele>401.0</ele><time>2026-04-30T15:28:09.008Z</time></trkpt><trkpt lat="39.97082685195889" lon="9.06113042708957"><ele>400.66666666666663</ele><time>2026-04-30T15:28:10.008Z</time></trkpt><trkpt lat="39.97094421743972" lon="9.060963055843471"><ele>400.33333333333337</ele><time>2026-04-30T15:28:11.008Z</time></trkpt><trkpt lat="39.97110152177456" lon="9.06081099731169"><ele>400.0</ele><time>2026-04-30T15:28:12.008Z</time></trkpt><trkpt lat="39.9712736467038" lon="9.060661729923321"><ele>400.0</ele><time>2026-04-30T15:28:13.008Z</time></trkpt><trkpt lat="39.97144523472708" lon="9.06052489584822"><ele>400.0</ele><time>2026-04-30T15:28:14.008Z</time></trkpt><trkpt lat="39.97160904958766" lon="9.060403547418748"><ele>400.0</ele><time>2026-04-30T15:28:15.008Z</time></trkpt><trkpt lat="39.97176772634525" lon="9.060299122084938"><ele>406.33333333333337</ele><time>2026-04-30T15:28:16.008Z</time></trkpt><trkpt lat="39.971928843809536" lon="9.060234458154198"><ele>412.66666666666663</ele><time>2026-04-30T15:28:17.008Z</time></trkpt><trkpt lat="39.972101919308955" lon="9.060212723600884"><ele>419.0</ele><time>2026-04-30T15:28:18.008Z</time></trkpt><trkpt lat="39.97227439009238" lon="9.060276948609882"><ele>419.0</ele><time>2026-04-30T15:28:19.008Z</time></trkpt><trkpt lat="39.97241555348376" lon="9.060419950328978"><ele>419.0</ele><time>2026-04-30T15:28:20.008Z</time></trkpt><trkpt lat="39.97252303818961" lon="9.060487269937283"><ele>419.0</ele><time>2026-04-30T15:28:21.008Z</time></trkpt><trkpt lat="39.97262516345322" lon="9.060431485505179"><ele>419.0</ele><time>2026-04-30T15:28:22.008Z</time></trkpt><trkpt lat="39.97269849054601" lon="9.060244109076283"><ele>424.3333333333333</ele><time>2026-04-30T15:28:23.008Z</time></trkpt><trkpt lat="39.97276092379347" lon="9.060058455762897"><ele>429.66666666666663</ele><time>2026-04-30T15:28:24.008Z</time></trkpt><trkpt lat="39.97290001080877" lon="9.06002016981034"><ele>435.0</ele><time>2026-04-30T15:28:25.008Z</time></trkpt><trkpt lat="39.973068804494616" lon="9.060050849566435"><ele>435.0</ele><time>2026-04-30T15:28:26.008Z</time></trkpt><trkpt lat="39.97324234601624" lon="9.060026637729477"><ele>435.0</ele><time>2026-04-30T15:28:27.008Z</time></trkpt><trkpt lat="39.97339336419015" lon="9.05992012709373"><ele>435.0</ele><time>2026-04-30T15:28:28.008Z</time></trkpt><trkpt lat="39.97350600811073" lon="9.059801522189575"><ele>435.5</ele><time>2026-04-30T15:28:29.008Z</time></trkpt><trkpt lat="39.97356419207724" lon="9.059647506262593"><ele>436.0</ele><time>2026-04-30T15:28:30.008Z</time></trkpt><trkpt lat="39.97359342079964" lon="9.05948350250588"><ele>436.5</ele><time>2026-04-30T15:28:31.008Z</time></trkpt><trkpt lat="39.97348968255882" lon="9.059312807396145"><ele>437.0</ele><time>2026-04-30T15:28:32.008Z</time></trkpt><trkpt lat="39.973332551484056" lon="9.059159936640699"><ele>435.66666666666663</ele><time>2026-04-30T15:28:33.008Z</time></trkpt><trkpt lat="39.97318037530215" lon="9.059036637811575"><ele>434.33333333333337</ele><time>2026-04-30T15:28:34.008Z</time></trkpt><trkpt lat="39.97311990795243" lon="9.058846812319487"><ele>433.0</ele><time>2026-04-30T15:28:35.008Z</time></trkpt><trkpt lat="39.97316289499842" lon="9.058705896794232"><ele>433.0</ele><time>2026-04-30T15:28:36.008Z</time></trkpt><trkpt lat="39.97325330762371" lon="9.05854708093264"><ele>433.0</ele><time>2026-04-30T15:28:37.008Z</time></trkpt><trkpt lat="39.97338104185482" lon="9.058385393118654"><ele>433.0</ele><time>2026-04-30T15:28:38.008Z</time></trkpt><trkpt lat="39.973556148630045" lon="9.058327424025595"><ele>433.33333333333337</ele><time>2026-04-30T15:28:39.008Z</time></trkpt><trkpt lat="39.973741061263595" lon="9.058316246435858"><ele>433.66666666666663</ele><time>2026-04-30T15:28:40.008Z</time></trkpt><trkpt lat="39.97389396929875" lon="9.058217057841233"><ele>434.0</ele><time>2026-04-30T15:28:41.008Z</time></trkpt><trkpt lat="39.97397196728008" lon="9.058028152561349"><ele>434.0</ele><time>2026-04-30T15:28:42.008Z</time></trkpt><trkpt lat="39.97405827564957" lon="9.057834794218774"><ele>434.0</ele><time>2026-04-30T15:28:43.008Z</time></trkpt><trkpt lat="39.974215880065195" lon="9.057716318435316"><ele>434.0</ele><time>2026-04-30T15:28:44.008Z</time></trkpt><trkpt lat="39.97438456102053" lon="9.057652297890636"><ele>433.66666666666663</ele><time>2026-04-30T15:28:45.008Z</time></trkpt><trkpt lat="39.974553055620696" lon="9.057673306118618"><ele>433.33333333333337</ele><time>2026-04-30T15:28:46.008Z</time></trkpt><trkpt lat="39.97471971921891" lon="9.057778651712479"><ele>433.0</ele><time>2026-04-30T15:28:47.008Z</time></trkpt><trkpt lat="39.974880301706584" lon="9.057911671258172"><ele>436.33333333333337</ele><time>2026-04-30T15:28:48.008Z</time></trkpt><trkpt lat="39.97504194901685" lon="9.05803479054046"><ele>439.66666666666663</ele><time>2026-04-30T15:28:49.008Z</time></trkpt><trkpt lat="39.97521627324668" lon="9.058168531941874"><ele>443.0</ele><time>2026-04-30T15:28:50.008Z</time></trkpt><trkpt lat="39.975357706012076" lon="9.05833391631477"><ele>443.0</ele><time>2026-04-30T15:28:51.008Z</time></trkpt><trkpt lat="39.97550906677103" lon="9.0584793443745"><ele>443.0</ele><time>2026-04-30T15:28:52.009Z</time></trkpt><trkpt lat="39.975661550963444" lon="9.058577483473796"><ele>443.0</ele><time>2026-04-30T15:28:53.008Z</time></trkpt><trkpt lat="39.97581943626647" lon="9.058799628869588"><ele>438.0</ele><time>2026-04-30T15:28:54.008Z</time></trkpt><trkpt lat="39.97593170547289" lon="9.0589073299807"><ele>433.0</ele><time>2026-04-30T15:28:55.008Z</time></trkpt><trkpt lat="39.97596376026332" lon="9.059049179226434"><ele>428.0</ele><time>2026-04-30T15:28:56.009Z</time></trkpt><trkpt lat="39.975930692019624" lon="9.059240965627339"><ele>423.0</ele><time>2026-04-30T15:28:57.009Z</time></trkpt><trkpt lat="39.975874265535374" lon="9.059461942898556"><ele>423.0</ele><time>2026-04-30T15:28:58.008Z</time></trkpt><trkpt lat="39.97584451273195" lon="9.05967865938979"><ele>423.0</ele><time>2026-04-30T15:28:59.008Z</time></trkpt><trkpt lat="39.975880462105366" lon="9.059882081927036"><ele>423.0</ele><time>2026-04-30T15:29:00.008Z</time></trkpt><trkpt lat="39.97600709057051" lon="9.060079550097578"><ele>427.33333333333337</ele><time>2026-04-30T15:29:01.009Z</time></trkpt><trkpt lat="39.97616051420407" lon="9.060279726787776"><ele>431.6666666666667</ele><time>2026-04-30T15:29:02.008Z</time></trkpt><trkpt lat="39.97627718306085" lon="9.060487343846592"><ele>436.0</ele><time>2026-04-30T15:29:03.008Z</time></trkpt><trkpt lat="39.97640884101812" lon="9.060695308209551"><ele>436.33333333333337</ele><time>2026-04-30T15:29:04.008Z</time></trkpt><trkpt lat="39.97656177804127" lon="9.060898530617276"><ele>436.66666666666663</ele><time>2026-04-30T15:29:05.008Z</time></trkpt><trkpt lat="39.976740466274016" lon="9.061065723323871"><ele>437.0</ele><time>2026-04-30T15:29:06.008Z</time></trkpt><trkpt lat="39.97692491173878" lon="9.061182918717224"><ele>437.0</ele><time>2026-04-30T15:29:07.008Z</time></trkpt><trkpt lat="39.977095442674575" lon="9.061305814332421"><ele>437.0</ele><time>2026-04-30T15:29:08.008Z</time></trkpt><trkpt lat="39.97723903768247" lon="9.061496180483871"><ele>437.0</ele><time>2026-04-30T15:29:09.008Z</time></trkpt><trkpt lat="39.977380972706406" lon="9.061697777674029"><ele>440.66666666666663</ele><time>2026-04-30T15:29:10.008Z</time></trkpt><trkpt lat="39.9775305385092" lon="9.061886466780555"><ele>444.33333333333337</ele><time>2026-04-30T15:29:11.008Z</time></trkpt><trkpt lat="39.97770755394617" lon="9.06205723346333"><ele>448.0</ele><time>2026-04-30T15:29:12.008Z</time></trkpt><trkpt lat="39.977908163874424" lon="9.062215523896084"><ele>448.0</ele><time>2026-04-30T15:29:13.008Z</time></trkpt><trkpt lat="39.97810963478919" lon="9.062359435410428"><ele>448.0</ele><time>2026-04-30T15:29:14.008Z</time></trkpt><trkpt lat="39.97830872958377" lon="9.062482408002188"><ele>451.33333333333337</ele><time>2026-04-30T15:29:15.008Z</time></trkpt><trkpt lat="39.97848523221179" lon="9.062595069824958"><ele>454.66666666666663</ele><time>2026-04-30T15:29:16.008Z</time></trkpt><trkpt lat="39.97864091429399" lon="9.06271337253281"><ele>458.0</ele><time>2026-04-30T15:29:17.008Z</time></trkpt><trkpt lat="39.97874241281353" lon="9.062865405350575"><ele>458.0</ele><time>2026-04-30T15:29:18.008Z</time></trkpt><trkpt lat="39.97877493199431" lon="9.063026223355372"><ele>458.0</ele><time>2026-04-30T15:29:19.008Z</time></trkpt><trkpt lat="39.97872838073019" lon="9.063233872007004"><ele>458.0</ele><time>2026-04-30T15:29:20.008Z</time></trkpt><trkpt lat="39.97865711489501" lon="9.063472465681496"><ele>461.0</ele><time>2026-04-30T15:29:21.008Z</time></trkpt><trkpt lat="39.978599992328746" lon="9.063652680581747"><ele>464.0</ele><time>2026-04-30T15:29:22.008Z</time></trkpt><trkpt lat="39.97859075447045" lon="9.06377026413327"><ele>467.0</ele><time>2026-04-30T15:29:23.008Z</time></trkpt><trkpt lat="39.9787062464705" lon="9.063858302853284"><ele>470.0</ele><time>2026-04-30T15:29:24.008Z</time></trkpt><trkpt lat="39.97888986728585" lon="9.063917901322727"><ele>470.0</ele><time>2026-04-30T15:29:25.008Z</time></trkpt><trkpt lat="39.97910650209805" lon="9.063969293164966"><ele>470.0</ele><time>2026-04-30T15:29:26.008Z</time></trkpt><trkpt lat="39.97930312853597" lon="9.06405311504536"><ele>470.0</ele><time>2026-04-30T15:29:27.008Z</time></trkpt><trkpt lat="39.97948756021579" lon="9.064119826467865"><ele>470.3333333333333</ele><time>2026-04-30T15:29:28.008Z</time></trkpt><trkpt lat="39.97967878614914" lon="9.06411915048388"><ele>470.66666666666663</ele><time>2026-04-30T15:29:29.008Z</time></trkpt><trkpt lat="39.979864360075375" lon="9.063997301016235"><ele>471.0</ele><time>2026-04-30T15:29:30.008Z</time></trkpt><trkpt lat="39.980013637535045" lon="9.063810628692492"><ele>473.0</ele><time>2026-04-30T15:29:31.008Z</time></trkpt><trkpt lat="39.98014173076578" lon="9.063603197901344"><ele>475.0</ele><time>2026-04-30T15:29:32.008Z</time></trkpt><trkpt lat="39.980251777351775" lon="9.063424150500689"><ele>477.0</ele><time>2026-04-30T15:29:33.008Z</time></trkpt><trkpt lat="39.98036582175847" lon="9.063305903170075"><ele>477.0</ele><time>2026-04-30T15:29:34.008Z</time></trkpt><trkpt lat="39.98050746609606" lon="9.063272889440375"><ele>477.0</ele><time>2026-04-30T15:29:35.008Z</time></trkpt><trkpt lat="39.980681586373876" lon="9.063316089055574"><ele>477.0</ele><time>2026-04-30T15:29:36.008Z</time></trkpt><trkpt lat="39.98088117249717" lon="9.06339638582717"><ele>476.66666666666663</ele><time>2026-04-30T15:29:37.008Z</time></trkpt><trkpt lat="39.98109108185013" lon="9.063493302761797"><ele>476.3333333333333</ele><time>2026-04-30T15:29:38.008Z</time></trkpt><trkpt lat="39.98130667141995" lon="9.063569668620222"><ele>476.0</ele><time>2026-04-30T15:29:39.008Z</time></trkpt><trkpt lat="39.981514121047475" lon="9.063634620337304"><ele>476.0</ele><time>2026-04-30T15:29:40.008Z</time></trkpt><trkpt lat="39.98169850849078" lon="9.063707251248246"><ele>476.0</ele><time>2026-04-30T15:29:41.008Z</time></trkpt><trkpt lat="39.9818434933209" lon="9.063827252671459"><ele>476.0</ele><time>2026-04-30T15:29:42.008Z</time></trkpt><trkpt lat="39.9819545698934" lon="9.064025664794393"><ele>473.3333333333333</ele><time>2026-04-30T15:29:43.008Z</time></trkpt><trkpt lat="39.98207168667704" lon="9.064267384584992"><ele>470.66666666666663</ele><time>2026-04-30T15:29:44.008Z</time></trkpt><trkpt lat="39.982204063024135" lon="9.064497940633066"><ele>468.0</ele><time>2026-04-30T15:29:45.008Z</time></trkpt><trkpt lat="39.982324383323785" lon="9.064672259321936"><ele>468.0</ele><time>2026-04-30T15:29:46.008Z</time></trkpt><trkpt lat="39.98245619978319" lon="9.064804222133194"><ele>468.0</ele><time>2026-04-30T15:29:47.008Z</time></trkpt><trkpt lat="39.982655078299466" lon="9.064854014769196"><ele>468.0</ele><time>2026-04-30T15:29:48.008Z</time></trkpt><trkpt lat="39.9828732086386" lon="9.064877570364635"><ele>467.66666666666663</ele><time>2026-04-30T15:29:49.008Z</time></trkpt><trkpt lat="39.98307818544246" lon="9.064935670191797"><ele>467.3333333333333</ele><time>2026-04-30T15:29:50.007Z</time></trkpt><trkpt lat="39.983278151100144" lon="9.065004820464333"><ele>467.0</ele><time>2026-04-30T15:29:51.007Z</time></trkpt><trkpt lat="39.983473216610506" lon="9.06506833834159"><ele>470.66666666666663</ele><time>2026-04-30T15:29:52.007Z</time></trkpt><trkpt lat="39.98368366006092" lon="9.065138834504639"><ele>474.33333333333337</ele><time>2026-04-30T15:29:53.007Z</time></trkpt><trkpt lat="39.98389146954118" lon="9.065214417902034"><ele>478.0</ele><time>2026-04-30T15:29:54.007Z</time></trkpt><trkpt lat="39.98410206750978" lon="9.065287166577475"><ele>479.6666666666667</ele><time>2026-04-30T15:29:55.007Z</time></trkpt><trkpt lat="39.984314534621895" lon="9.065356191377973"><ele>481.33333333333337</ele><time>2026-04-30T15:29:56.007Z</time></trkpt><trkpt lat="39.98452446881514" lon="9.065428147443837"><ele>483.0</ele><time>2026-04-30T15:29:57.007Z</time></trkpt><trkpt lat="39.98473198073688" lon="9.065493407812042"><ele>483.0</ele><time>2026-04-30T15:29:58.007Z</time></trkpt><trkpt lat="39.98492428351837" lon="9.06555807461715"><ele>483.0</ele><time>2026-04-30T15:29:59.007Z</time></trkpt><trkpt lat="39.98508930286141" lon="9.06565952267862"><ele>483.0</ele><time>2026-04-30T15:30:00.007Z</time></trkpt><trkpt lat="39.98523152133538" lon="9.065826450036564"><ele>483.33333333333337</ele><time>2026-04-30T15:30:01.007Z</time></trkpt><trkpt lat="39.98536239436827" lon="9.066026519907155"><ele>483.6666666666667</ele><time>2026-04-30T15:30:02.007Z</time></trkpt><trkpt lat="39.985463467997725" lon="9.066248527495329"><ele>484.0</ele><time>2026-04-30T15:30:03.007Z</time></trkpt><trkpt lat="39.98549706546933" lon="9.06648211912144"><ele>484.33333333333337</ele><time>2026-04-30T15:30:04.007Z</time></trkpt><trkpt lat="39.98549059987256" lon="9.066738772780829"><ele>484.66666666666663</ele><time>2026-04-30T15:30:05.007Z</time></trkpt><trkpt lat="39.98545498914212" lon="9.067007793306503"><ele>485.0</ele><time>2026-04-30T15:30:06.007Z</time></trkpt><trkpt lat="39.9854274069629" lon="9.067260394620575"><ele>485.3333333333333</ele><time>2026-04-30T15:30:07.007Z</time></trkpt><trkpt lat="39.985407576379814" lon="9.067485912854087"><ele>485.66666666666663</ele><time>2026-04-30T15:30:08.007Z</time></trkpt><trkpt lat="39.98539326357327" lon="9.067693485765043"><ele>486.0</ele><time>2026-04-30T15:30:09.007Z</time></trkpt><trkpt lat="39.98541220341096" lon="9.067858131113088"><ele>486.0</ele><time>2026-04-30T15:30:10.007Z</time></trkpt><trkpt lat="39.98551018115227" lon="9.067983782154572"><ele>486.0</ele><time>2026-04-30T15:30:11.007Z</time></trkpt><trkpt lat="39.985678790874296" lon="9.068037765875223"><ele>486.0</ele><time>2026-04-30T15:30:12.007Z</time></trkpt><trkpt lat="39.985799352635105" lon="9.068164538391573"><ele>487.0</ele><time>2026-04-30T15:30:13.007Z</time></trkpt><trkpt lat="39.98586274687307" lon="9.06835165772554"><ele>488.0</ele><time>2026-04-30T15:30:14.007Z</time></trkpt><trkpt lat="39.985856425822355" lon="9.068634116788136"><ele>489.0</ele><time>2026-04-30T15:30:15.007Z</time></trkpt><trkpt lat="39.9858361028427" lon="9.068914591253773"><ele>489.33333333333337</ele><time>2026-04-30T15:30:16.007Z</time></trkpt><trkpt lat="39.985842639008084" lon="9.069185293437585"><ele>489.6666666666667</ele><time>2026-04-30T15:30:17.007Z</time></trkpt><trkpt lat="39.985860388181344" lon="9.069446391179774"><ele>490.0</ele><time>2026-04-30T15:30:18.007Z</time></trkpt><trkpt lat="39.985883745941585" lon="9.069711029401828"><ele>495.33333333333337</ele><time>2026-04-30T15:30:19.007Z</time></trkpt><trkpt lat="39.98592599833259" lon="9.069963848981565"><ele>500.66666666666663</ele><time>2026-04-30T15:30:20.007Z</time></trkpt><trkpt lat="39.98600882671871" lon="9.070209058320739"><ele>506.0</ele><time>2026-04-30T15:30:21.007Z</time></trkpt><trkpt lat="39.98613383347234" lon="9.070429805409495"><ele>506.0</ele><time>2026-04-30T15:30:22.007Z</time></trkpt><trkpt lat="39.98628605420316" lon="9.070621960336013"><ele>506.0</ele><time>2026-04-30T15:30:23.007Z</time></trkpt><trkpt lat="39.986436944857964" lon="9.070820581301524"><ele>506.0</ele><time>2026-04-30T15:30:24.007Z</time></trkpt><trkpt lat="39.986578888621715" lon="9.07104001924394"><ele>510.0</ele><time>2026-04-30T15:30:25.007Z</time></trkpt><trkpt lat="39.98671642558837" lon="9.071267687657539"><ele>514.0</ele><time>2026-04-30T15:30:26.007Z</time></trkpt><trkpt lat="39.98685066205386" lon="9.071505639324497"><ele>518.0</ele><time>2026-04-30T15:30:27.007Z</time></trkpt><trkpt lat="39.98698271562038" lon="9.071753144374117"><ele>518.0</ele><time>2026-04-30T15:30:28.007Z</time></trkpt><trkpt lat="39.987112382744854" lon="9.07200065594081"><ele>518.0</ele><time>2026-04-30T15:30:29.007Z</time></trkpt><trkpt lat="39.98724433097011" lon="9.072245280061555"><ele>519.6666666666666</ele><time>2026-04-30T15:30:30.007Z</time></trkpt><trkpt lat="39.987383209680694" lon="9.072461080292591"><ele>521.3333333333334</ele><time>2026-04-30T15:30:31.007Z</time></trkpt><trkpt lat="39.987535190017034" lon="9.072637062273571"><ele>523.0</ele><time>2026-04-30T15:30:32.007Z</time></trkpt><trkpt lat="39.987712343402855" lon="9.072774348720163"><ele>523.0</ele><time>2026-04-30T15:30:33.007Z</time></trkpt><trkpt lat="39.98789703106571" lon="9.072911403441147"><ele>523.0</ele><time>2026-04-30T15:30:34.007Z</time></trkpt><trkpt lat="39.98807392145836" lon="9.073061046580454"><ele>523.0</ele><time>2026-04-30T15:30:35.007Z</time></trkpt><trkpt lat="39.988226552226024" lon="9.073204976078273"><ele>521.0</ele><time>2026-04-30T15:30:36.007Z</time></trkpt><trkpt lat="39.98834238711032" lon="9.073367795063598"><ele>519.0</ele><time>2026-04-30T15:30:37.007Z</time></trkpt><trkpt lat="39.988418714388146" lon="9.073543687534533"><ele>517.0</ele><time>2026-04-30T15:30:38.007Z</time></trkpt><trkpt lat="39.988418301314304" lon="9.073731966491842"><ele>517.0</ele><time>2026-04-30T15:30:39.007Z</time></trkpt><trkpt lat="39.988376306131364" lon="9.073903656507772"><ele>517.0</ele><time>2026-04-30T15:30:40.007Z</time></trkpt><trkpt lat="39.98832908347316" lon="9.07404854558188"><ele>517.0</ele><time>2026-04-30T15:30:41.007Z</time></trkpt><trkpt lat="39.9883552639444" lon="9.07420740686695"><ele>517.0</ele><time>2026-04-30T15:30:42.007Z</time></trkpt><trkpt lat="39.98843954856434" lon="9.074366433419375"><ele>521.6666666666667</ele><time>2026-04-30T15:30:43.007Z</time></trkpt><trkpt lat="39.98855329568486" lon="9.074511335603388"><ele>526.3333333333334</ele><time>2026-04-30T15:30:44.007Z</time></trkpt><trkpt lat="39.98868502172639" lon="9.07462974550416"><ele>531.0</ele><time>2026-04-30T15:30:45.007Z</time></trkpt><trkpt lat="39.98883972915013" lon="9.074695907732432"><ele>531.0</ele><time>2026-04-30T15:30:46.007Z</time></trkpt><trkpt lat="39.98897034253356" lon="9.074745412998604"><ele>531.0</ele><time>2026-04-30T15:30:47.007Z</time></trkpt><trkpt lat="39.989083404178615" lon="9.074795240893645"><ele>531.0</ele><time>2026-04-30T15:30:48.007Z</time></trkpt><trkpt lat="39.98917995097627" lon="9.07484610846138"><ele>531.0</ele><time>2026-04-30T15:30:49.007Z</time></trkpt><trkpt lat="39.98926737203828" lon="9.074888522006274"><ele>531.6</ele><time>2026-04-30T15:30:50.007Z</time></trkpt><trkpt lat="39.98935696994176" lon="9.074934237844927"><ele>532.2</ele><time>2026-04-30T15:30:51.007Z</time></trkpt><trkpt lat="39.98944737485027" lon="9.074990281673962"><ele>532.8</ele><time>2026-04-30T15:30:52.007Z</time></trkpt><trkpt lat="39.989539917329324" lon="9.075049787907043"><ele>533.4</ele><time>2026-04-30T15:30:53.007Z</time></trkpt><trkpt lat="39.98963455940308" lon="9.075125142191302"><ele>534.0</ele><time>2026-04-30T15:30:54.007Z</time></trkpt><trkpt lat="39.98972252581353" lon="9.075216267541887"><ele>534.0</ele><time>2026-04-30T15:30:55.008Z</time></trkpt><trkpt lat="39.98981092841763" lon="9.075303347644207"><ele>534.0</ele><time>2026-04-30T15:30:56.009Z</time></trkpt><trkpt lat="39.98988929510696" lon="9.075411534957336"><ele>534.0</ele><time>2026-04-30T15:30:57.009Z</time></trkpt><trkpt lat="39.98995855778518" lon="9.075525954453742"><ele>534.0</ele><time>2026-04-30T15:30:58.008Z</time></trkpt><trkpt lat="39.99003317363373" lon="9.075634647799914"><ele>534.0</ele><time>2026-04-30T15:30:59.008Z</time></trkpt><trkpt lat="39.99010367053431" lon="9.075745586470003"><ele>535.0</ele><time>2026-04-30T15:31:00.008Z</time></trkpt><trkpt lat="39.99017101818726" lon="9.075858861773836"><ele>536.0</ele><time>2026-04-30T15:31:01.009Z</time></trkpt><trkpt lat="39.99024029315952" lon="9.07596766805428"><ele>537.0</ele><time>2026-04-30T15:31:02.008Z</time></trkpt><trkpt lat="39.99031467107865" lon="9.076078353061838"><ele>538.0</ele><time>2026-04-30T15:31:03.008Z</time></trkpt><trkpt lat="39.99038804084286" lon="9.076192736655834"><ele>539.0</ele><time>2026-04-30T15:31:04.008Z</time></trkpt><trkpt lat="39.9904703748127" lon="9.076303253890261"><ele>539.0</ele><time>2026-04-30T15:31:05.008Z</time></trkpt><trkpt lat="39.99055801800389" lon="9.076386280255624"><ele>539.0</ele><time>2026-04-30T15:31:06.008Z</time></trkpt><trkpt lat="39.99066159398585" lon="9.076437483678"><ele>539.0</ele><time>2026-04-30T15:31:07.008Z</time></trkpt><trkpt lat="39.99077701843774" lon="9.076471736886466"><ele>539.0</ele><time>2026-04-30T15:31:08.008Z</time></trkpt><trkpt lat="39.99089195367847" lon="9.076490682500829"><ele>540.8</ele><time>2026-04-30T15:31:09.008Z</time></trkpt><trkpt lat="39.99099524130632" lon="9.076508075427233"><ele>542.5999999999999</ele><time>2026-04-30T15:31:10.008Z</time></trkpt><trkpt lat="39.991107320362765" lon="9.076521172105233"><ele>544.4</ele><time>2026-04-30T15:31:11.008Z</time></trkpt><trkpt lat="39.99121944611234" lon="9.076525003897537"><ele>546.1999999999999</ele><time>2026-04-30T15:31:12.008Z</time></trkpt><trkpt lat="39.991328187222116" lon="9.07651032446014"><ele>548.0</ele><time>2026-04-30T15:31:13.008Z</time></trkpt><trkpt lat="39.991438374804595" lon="9.076490052219244"><ele>548.0</ele><time>2026-04-30T15:31:14.008Z</time></trkpt><trkpt lat="39.99154866571098" lon="9.076470920903242"><ele>548.0</ele><time>2026-04-30T15:31:15.008Z</time></trkpt><trkpt lat="39.99166162886036" lon="9.07645687349232"><ele>548.0</ele><time>2026-04-30T15:31:16.008Z</time></trkpt><trkpt lat="39.99177236677992" lon="9.07645168360103"><ele>548.0</ele><time>2026-04-30T15:31:17.008Z</time></trkpt><trkpt lat="39.99187991963774" lon="9.076440578824867"><ele>548.0</ele><time>2026-04-30T15:31:18.008Z</time></trkpt><trkpt lat="39.99199119928299" lon="9.076430192734636"><ele>549.4</ele><time>2026-04-30T15:31:19.008Z</time></trkpt><trkpt lat="39.992106581908864" lon="9.076421751592267"><ele>550.8</ele><time>2026-04-30T15:31:20.008Z</time></trkpt><trkpt lat="39.99221543915793" lon="9.076411177559761"><ele>552.2</ele><time>2026-04-30T15:31:21.008Z</time></trkpt><trkpt lat="39.992325446889794" lon="9.076404735271796"><ele>553.6</ele><time>2026-04-30T15:31:22.008Z</time></trkpt><trkpt lat="39.9924269001882" lon="9.076405983013586"><ele>555.0</ele><time>2026-04-30T15:31:23.008Z</time></trkpt><trkpt lat="39.99252105797193" lon="9.076395069687717"><ele>555.0</ele><time>2026-04-30T15:31:24.008Z</time></trkpt><trkpt lat="39.992605528267994" lon="9.07639164021943"><ele>555.0</ele><time>2026-04-30T15:31:25.008Z</time></trkpt><trkpt lat="39.99269437268465" lon="9.076393508069717"><ele>555.0</ele><time>2026-04-30T15:31:26.008Z</time></trkpt><trkpt lat="39.99277281908951" lon="9.076425376696578"><ele>555.0</ele><time>2026-04-30T15:31:27.008Z</time></trkpt><trkpt lat="39.99286218553779" lon="9.0764681562409"><ele>555.0</ele><time>2026-04-30T15:31:28.008Z</time></trkpt><trkpt lat="39.992950030068634" lon="9.076503501789878"><ele>555.0</ele><time>2026-04-30T15:31:29.008Z</time></trkpt><trkpt lat="39.993040811124864" lon="9.076571270235423"><ele>555.25</ele><time>2026-04-30T15:31:30.008Z</time></trkpt><trkpt lat="39.99313455964358" lon="9.076630430734994"><ele>555.5</ele><time>2026-04-30T15:31:31.008Z</time></trkpt><trkpt lat="39.99323669972222" lon="9.076703965293646"><ele>555.75</ele><time>2026-04-30T15:31:32.008Z</time></trkpt><trkpt lat="39.99334934311165" lon="9.076776340483319"><ele>556.0</ele><time>2026-04-30T15:31:33.008Z</time></trkpt><trkpt lat="39.99346073941167" lon="9.076844978017123"><ele>555.25</ele><time>2026-04-30T15:31:34.008Z</time></trkpt><trkpt lat="39.993566047917916" lon="9.076929296490556"><ele>554.5</ele><time>2026-04-30T15:31:35.008Z</time></trkpt><trkpt lat="39.99366782483104" lon="9.07701737106739"><ele>553.75</ele><time>2026-04-30T15:31:36.008Z</time></trkpt><trkpt lat="39.993763207597645" lon="9.07710519838073"><ele>553.0</ele><time>2026-04-30T15:31:37.008Z</time></trkpt><trkpt lat="39.99385311281457" lon="9.077183502083352"><ele>553.0</ele><time>2026-04-30T15:31:38.008Z</time></trkpt><trkpt lat="39.99393125878637" lon="9.07726541853058"><ele>553.0</ele><time>2026-04-30T15:31:39.008Z</time></trkpt><trkpt lat="39.99401288649441" lon="9.07734680372781"><ele>553.0</ele><time>2026-04-30T15:31:40.008Z</time></trkpt><trkpt lat="39.99409214967491" lon="9.077436034993132"><ele>553.0</ele><time>2026-04-30T15:31:41.008Z</time></trkpt><trkpt lat="39.99417656290971" lon="9.07752676946355"><ele>553.0</ele><time>2026-04-30T15:31:42.008Z</time></trkpt><trkpt lat="39.994272916402075" lon="9.077597866805336"><ele>554.0</ele><time>2026-04-30T15:31:43.008Z</time></trkpt><trkpt lat="39.99438482172641" lon="9.077637885048892"><ele>555.0</ele><time>2026-04-30T15:31:44.008Z</time></trkpt><trkpt lat="39.994506346170745" lon="9.077643641711038"><ele>556.0</ele><time>2026-04-30T15:31:45.008Z</time></trkpt><trkpt lat="39.99463423377221" lon="9.077612670917004"><ele>557.0</ele><time>2026-04-30T15:31:46.008Z</time></trkpt><trkpt lat="39.994752556831706" lon="9.07756248351968"><ele>557.0</ele><time>2026-04-30T15:31:47.008Z</time></trkpt><trkpt lat="39.99488031354474" lon="9.077519486838582"><ele>557.0</ele><time>2026-04-30T15:31:48.008Z</time></trkpt><trkpt lat="39.995001483144" lon="9.077465840914655"><ele>557.0</ele><time>2026-04-30T15:31:49.008Z</time></trkpt><trkpt lat="39.99513001169058" lon="9.07743169474821"><ele>557.0</ele><time>2026-04-30T15:31:50.008Z</time></trkpt><trkpt lat="39.995263685039184" lon="9.077399761190689"><ele>556.5</ele><time>2026-04-30T15:31:51.008Z</time></trkpt><trkpt lat="39.99539869204609" lon="9.077387120848826"><ele>556.0</ele><time>2026-04-30T15:31:52.008Z</time></trkpt><trkpt lat="39.99553861299246" lon="9.077405087381631"><ele>555.5</ele><time>2026-04-30T15:31:53.008Z</time></trkpt><trkpt lat="39.995680206032795" lon="9.077459909927757"><ele>555.0</ele><time>2026-04-30T15:31:54.008Z</time></trkpt><trkpt lat="39.99583173732471" lon="9.077518949475518"><ele>554.6666666666666</ele><time>2026-04-30T15:31:55.008Z</time></trkpt><trkpt lat="39.99599328324806" lon="9.077574246290537"><ele>554.3333333333333</ele><time>2026-04-30T15:31:56.008Z</time></trkpt><trkpt lat="39.99614624296266" lon="9.077626447307221"><ele>554.0</ele><time>2026-04-30T15:31:57.008Z</time></trkpt><trkpt lat="39.996290251221126" lon="9.077670902268075"><ele>554.0</ele><time>2026-04-30T15:31:58.008Z</time></trkpt><trkpt lat="39.996437472881496" lon="9.077706128245246"><ele>554.0</ele><time>2026-04-30T15:31:59.008Z</time></trkpt><trkpt lat="39.99659400175049" lon="9.077701311470063"><ele>554.0</ele><time>2026-04-30T15:32:00.008Z</time></trkpt><trkpt lat="39.9967498002868" lon="9.077695534168392"><ele>553.3333333333333</ele><time>2026-04-30T15:32:01.008Z</time></trkpt><trkpt lat="39.99689907386599" lon="9.077720747781566"><ele>552.6666666666666</ele><time>2026-04-30T15:32:02.008Z</time></trkpt><trkpt lat="39.99703298357979" lon="9.077792262185959"><ele>552.0</ele><time>2026-04-30T15:32:03.008Z</time></trkpt><trkpt lat="39.997169112099805" lon="9.077892397307775"><ele>552.0</ele><time>2026-04-30T15:32:04.008Z</time></trkpt><trkpt lat="39.997291489810095" lon="9.077999587534745"><ele>552.0</ele><time>2026-04-30T15:32:05.008Z</time></trkpt><trkpt lat="39.99742711094514" lon="9.07809258925528"><ele>552.0</ele><time>2026-04-30T15:32:06.008Z</time></trkpt><trkpt lat="39.99757984158923" lon="9.07818098756387"><ele>552.3333333333334</ele><time>2026-04-30T15:32:07.008Z</time></trkpt><trkpt lat="39.99774676815886" lon="9.078271322555546"><ele>552.6666666666667</ele><time>2026-04-30T15:32:08.008Z</time></trkpt><trkpt lat="39.99791947166299" lon="9.078369974641609"><ele>553.0</ele><time>2026-04-30T15:32:09.008Z</time></trkpt><trkpt lat="39.99810110548826" lon="9.078465511043177"><ele>553.0</ele><time>2026-04-30T15:32:10.008Z</time></trkpt><trkpt lat="39.99829057097407" lon="9.078558248547168"><ele>553.0</ele><time>2026-04-30T15:32:11.008Z</time></trkpt><trkpt lat="39.99848285190355" lon="9.078657306570335"><ele>553.0</ele><time>2026-04-30T15:32:12.008Z</time></trkpt><trkpt lat="39.998680110311135" lon="9.078761181044328"><ele>553.3333333333334</ele><time>2026-04-30T15:32:13.008Z</time></trkpt><trkpt lat="39.998879241498265" lon="9.078862795424977"><ele>553.6666666666666</ele><time>2026-04-30T15:32:14.008Z</time></trkpt><trkpt lat="39.999077898834194" lon="9.07897427423419"><ele>554.0</ele><time>2026-04-30T15:32:15.008Z</time></trkpt><trkpt lat="39.99928098997692" lon="9.07908497587075"><ele>555.5</ele><time>2026-04-30T15:32:16.008Z</time></trkpt><trkpt lat="39.99949053971617" lon="9.079201187203166"><ele>557.0</ele><time>2026-04-30T15:32:17.008Z</time></trkpt><trkpt lat="39.99970401050019" lon="9.079314623384894"><ele>557.0</ele><time>2026-04-30T15:32:18.008Z</time></trkpt><trkpt lat="39.99992447816842" lon="9.079433238567573"><ele>557.0</ele><time>2026-04-30T15:32:19.008Z</time></trkpt><trkpt lat="40.00014902544752" lon="9.079543269633703"><ele>557.0</ele><time>2026-04-30T15:32:20.008Z</time></trkpt><trkpt lat="40.00037007401847" lon="9.079650327314836"><ele>557.0</ele><time>2026-04-30T15:32:21.008Z</time></trkpt><trkpt lat="40.00058120437994" lon="9.079749187027733"><ele>557.0</ele><time>2026-04-30T15:32:22.008Z</time></trkpt><trkpt lat="40.00077629787281" lon="9.079848025252279"><ele>557.0</ele><time>2026-04-30T15:32:23.008Z</time></trkpt><trkpt lat="40.00096584475033" lon="9.079949687227296"><ele>557.0</ele><time>2026-04-30T15:32:24.008Z</time></trkpt><trkpt lat="40.00112020096013" lon="9.08010100887356"><ele>557.0</ele><time>2026-04-30T15:32:25.008Z</time></trkpt><trkpt lat="40.00123411570259" lon="9.080317377073017"><ele>557.0</ele><time>2026-04-30T15:32:26.008Z</time></trkpt><trkpt lat="40.00133058345668" lon="9.080560485324135"><ele>557.0</ele><time>2026-04-30T15:32:27.008Z</time></trkpt><trkpt lat="40.00142383127557" lon="9.08082385385687"><ele>556.3333333333333</ele><time>2026-04-30T15:32:28.008Z</time></trkpt><trkpt lat="40.00151765098589" lon="9.08106210355328"><ele>555.6666666666666</ele><time>2026-04-30T15:32:29.008Z</time></trkpt><trkpt lat="40.001606498106014" lon="9.081277017099834"><ele>555.0</ele><time>2026-04-30T15:32:30.008Z</time></trkpt><trkpt lat="40.001721699889245" lon="9.081415522021972"><ele>555.0</ele><time>2026-04-30T15:32:31.008Z</time></trkpt><trkpt lat="40.0018673039636" lon="9.08146580620867"><ele>555.0</ele><time>2026-04-30T15:32:32.008Z</time></trkpt><trkpt lat="40.00206080226305" lon="9.08146373086059"><ele>555.0</ele><time>2026-04-30T15:32:33.008Z</time></trkpt><trkpt lat="40.00229517786067" lon="9.081472643197708"><ele>552.0</ele><time>2026-04-30T15:32:34.008Z</time></trkpt><trkpt lat="40.0025433664072" lon="9.081531613622728"><ele>549.0</ele><time>2026-04-30T15:32:35.008Z</time></trkpt><trkpt lat="40.00275205608163" lon="9.081563096978341"><ele>549.0</ele><time>2026-04-30T15:32:36.008Z</time></trkpt><trkpt lat="40.002937803125754" lon="9.081580818157503"><ele>549.0</ele><time>2026-04-30T15:32:37.008Z</time></trkpt><trkpt lat="40.00312419898591" lon="9.081628177634085"><ele>549.0</ele><time>2026-04-30T15:32:38.008Z</time></trkpt><trkpt lat="40.00330108422853" lon="9.081733951856432"><ele>551.0</ele><time>2026-04-30T15:32:39.008Z</time></trkpt><trkpt lat="40.0034479655063" lon="9.081887190487024"><ele>553.0</ele><time>2026-04-30T15:32:40.008Z</time></trkpt><trkpt lat="40.003625903579604" lon="9.082075065303577"><ele>555.0</ele><time>2026-04-30T15:32:41.008Z</time></trkpt><trkpt lat="40.00376986632795" lon="9.0822474525457"><ele>555.0</ele><time>2026-04-30T15:32:42.008Z</time></trkpt><trkpt lat="40.003938064065885" lon="9.08235146476674"><ele>555.0</ele><time>2026-04-30T15:32:43.008Z</time></trkpt><trkpt lat="40.00414594726251" lon="9.082335675086792"><ele>555.0</ele><time>2026-04-30T15:32:44.008Z</time></trkpt><trkpt lat="40.004364184464734" lon="9.082275255417521"><ele>554.3333333333334</ele><time>2026-04-30T15:32:45.008Z</time></trkpt><trkpt lat="40.00458168805119" lon="9.082226854500144"><ele>553.6666666666667</ele><time>2026-04-30T15:32:46.008Z</time></trkpt><trkpt lat="40.004802022593616" lon="9.082191605770781"><ele>553.0</ele><time>2026-04-30T15:32:47.008Z</time></trkpt><trkpt lat="40.00501982867294" lon="9.082164853184626"><ele>555.0</ele><time>2026-04-30T15:32:48.008Z</time></trkpt><trkpt lat="40.005228715078644" lon="9.082135781929313"><ele>557.0</ele><time>2026-04-30T15:32:49.008Z</time></trkpt><trkpt lat="40.005430928362074" lon="9.082102809062249"><ele>559.0</ele><time>2026-04-30T15:32:50.008Z</time></trkpt><trkpt lat="40.00563231564916" lon="9.082081703826516"><ele>559.6666666666667</ele><time>2026-04-30T15:32:51.008Z</time></trkpt><trkpt lat="40.005834659656706" lon="9.082088337760988"><ele>560.3333333333334</ele><time>2026-04-30T15:32:52.007Z</time></trkpt><trkpt lat="40.00603456197829" lon="9.082118244564219"><ele>561.0</ele><time>2026-04-30T15:32:53.007Z</time></trkpt><trkpt lat="40.00623919031462" lon="9.082156520278064"><ele>561.0</ele><time>2026-04-30T15:32:54.007Z</time></trkpt><trkpt lat="40.00644532044641" lon="9.082182786623035"><ele>561.0</ele><time>2026-04-30T15:32:55.007Z</time></trkpt><trkpt lat="40.00665404108077" lon="9.082178741971424"><ele>561.0</ele><time>2026-04-30T15:32:56.007Z</time></trkpt><trkpt lat="40.00685750687752" lon="9.082150240793517"><ele>561.6666666666666</ele><time>2026-04-30T15:32:57.007Z</time></trkpt><trkpt lat="40.007065707091265" lon="9.082113915007993"><ele>562.3333333333333</ele><time>2026-04-30T15:32:58.007Z</time></trkpt><trkpt lat="40.00727455276032" lon="9.082071614537934"><ele>563.0</ele><time>2026-04-30T15:32:59.007Z</time></trkpt><trkpt lat="40.00748086393379" lon="9.082043162015776"><ele>565.0</ele><time>2026-04-30T15:33:00.007Z</time></trkpt><trkpt lat="40.00767943833555" lon="9.081996382221641"><ele>567.0</ele><time>2026-04-30T15:33:01.009Z</time></trkpt><trkpt lat="40.00786356523808" lon="9.081905102728548"><ele>569.0</ele><time>2026-04-30T15:33:02.008Z</time></trkpt><trkpt lat="40.00803502418212" lon="9.081762434219536"><ele>567.6666666666666</ele><time>2026-04-30T15:33:03.008Z</time></trkpt><trkpt lat="40.008179251358186" lon="9.08156265689559"><ele>566.3333333333334</ele><time>2026-04-30T15:33:04.008Z</time></trkpt><trkpt lat="40.0083432084123" lon="9.081410002799387"><ele>565.0</ele><time>2026-04-30T15:33:05.008Z</time></trkpt><trkpt lat="40.00850960284696" lon="9.081258502334558"><ele>569.3333333333334</ele><time>2026-04-30T15:33:06.008Z</time></trkpt><trkpt lat="40.008675830371956" lon="9.081112473931846"><ele>573.6666666666666</ele><time>2026-04-30T15:33:07.008Z</time></trkpt><trkpt lat="40.008831858648826" lon="9.080966259711564"><ele>578.0</ele><time>2026-04-30T15:33:08.008Z</time></trkpt><trkpt lat="40.008991716360256" lon="9.080847921103244"><ele>578.0</ele><time>2026-04-30T15:33:09.008Z</time></trkpt><trkpt lat="40.00917470533675" lon="9.080763314325955"><ele>578.0</ele><time>2026-04-30T15:33:10.008Z</time></trkpt><trkpt lat="40.00935729728953" lon="9.080712949924237"><ele>578.0</ele><time>2026-04-30T15:33:11.008Z</time></trkpt><trkpt lat="40.00953033072663" lon="9.080669109408037"><ele>578.0</ele><time>2026-04-30T15:33:12.008Z</time></trkpt><trkpt lat="40.00968388222817" lon="9.080656557833287"><ele>578.0</ele><time>2026-04-30T15:33:13.008Z</time></trkpt><trkpt lat="40.00981824235961" lon="9.080697481915614"><ele>578.0</ele><time>2026-04-30T15:33:14.008Z</time></trkpt><trkpt lat="40.00992450686532" lon="9.080851801884643"><ele>580.6666666666666</ele><time>2026-04-30T15:33:15.008Z</time></trkpt><trkpt lat="40.01002379824093" lon="9.081060249996202"><ele>583.3333333333334</ele><time>2026-04-30T15:33:16.008Z</time></trkpt><trkpt lat="40.01012438915128" lon="9.081271728284007"><ele>586.0</ele><time>2026-04-30T15:33:17.008Z</time></trkpt><trkpt lat="40.01024833272314" lon="9.081469499048652"><ele>590.0</ele><time>2026-04-30T15:33:18.008Z</time></trkpt><trkpt lat="40.010367813626544" lon="9.081683113204821"><ele>594.0</ele><time>2026-04-30T15:33:19.008Z</time></trkpt><trkpt lat="40.010492624153756" lon="9.08188269898733"><ele>598.0</ele><time>2026-04-30T15:33:20.008Z</time></trkpt><trkpt lat="40.010632652873426" lon="9.082051775123881"><ele>598.0</ele><time>2026-04-30T15:33:21.008Z</time></trkpt><trkpt lat="40.01079802828577" lon="9.082168201700073"><ele>598.0</ele><time>2026-04-30T15:33:22.008Z</time></trkpt><trkpt lat="40.01101155328788" lon="9.082199338431039"><ele>598.0</ele><time>2026-04-30T15:33:23.008Z</time></trkpt><trkpt lat="40.01122287029168" lon="9.082196703482529"><ele>596.3333333333334</ele><time>2026-04-30T15:33:24.008Z</time></trkpt><trkpt lat="40.011430122576904" lon="9.082230263413944"><ele>594.6666666666666</ele><time>2026-04-30T15:33:25.008Z</time></trkpt><trkpt lat="40.01162944268398" lon="9.082255022433312"><ele>593.0</ele><time>2026-04-30T15:33:26.008Z</time></trkpt><trkpt lat="40.01180996253271" lon="9.082230942962179"><ele>593.0</ele><time>2026-04-30T15:33:27.008Z</time></trkpt><trkpt lat="40.01198155566133" lon="9.082176053738884"><ele>593.0</ele><time>2026-04-30T15:33:28.008Z</time></trkpt><trkpt lat="40.012141753868995" lon="9.082199100487944"><ele>593.0</ele><time>2026-04-30T15:33:29.008Z</time></trkpt><trkpt lat="40.01229155061377" lon="9.082291748055846"><ele>593.0</ele><time>2026-04-30T15:33:30.008Z</time></trkpt><trkpt lat="40.01243997364727" lon="9.082339607186942"><ele>593.0</ele><time>2026-04-30T15:33:31.008Z</time></trkpt><trkpt lat="40.01259827668108" lon="9.082299324032352"><ele>593.0</ele><time>2026-04-30T15:33:32.008Z</time></trkpt><trkpt lat="40.0127384808265" lon="9.082265097004015"><ele>595.3333333333333</ele><time>2026-04-30T15:33:33.008Z</time></trkpt><trkpt lat="40.012862456128445" lon="9.082325163397407"><ele>597.6666666666666</ele><time>2026-04-30T15:33:34.008Z</time></trkpt><trkpt lat="40.012979729872505" lon="9.082455604078"><ele>600.0</ele><time>2026-04-30T15:33:35.008Z</time></trkpt><trkpt lat="40.01309857037275" lon="9.082617891154703"><ele>600.0</ele><time>2026-04-30T15:33:36.008Z</time></trkpt><trkpt lat="40.01322891421491" lon="9.082776356473907"><ele>600.0</ele><time>2026-04-30T15:33:37.008Z</time></trkpt><trkpt lat="40.01338042188418" lon="9.082912032110805"><ele>600.0</ele><time>2026-04-30T15:33:38.008Z</time></trkpt><trkpt lat="40.01356051348133" lon="9.083012504980527"><ele>600.0</ele><time>2026-04-30T15:33:39.008Z</time></trkpt><trkpt lat="40.013759121256356" lon="9.083048835373074"><ele>600.0</ele><time>2026-04-30T15:33:40.008Z</time></trkpt><trkpt lat="40.013965323388156" lon="9.083020563188814"><ele>600.0</ele><time>2026-04-30T15:33:41.008Z</time></trkpt><trkpt lat="40.014168971865374" lon="9.082952301899986"><ele>600.6666666666666</ele><time>2026-04-30T15:33:42.008Z</time></trkpt><trkpt lat="40.014360600981426" lon="9.082847020121337"><ele>601.3333333333333</ele><time>2026-04-30T15:33:43.008Z</time></trkpt><trkpt lat="40.01453195146686" lon="9.08268713787006"><ele>602.0</ele><time>2026-04-30T15:33:44.008Z</time></trkpt><trkpt lat="40.01468467598862" lon="9.082539630655027"><ele>602.0</ele><time>2026-04-30T15:33:45.008Z</time></trkpt><trkpt lat="40.014834815600054" lon="9.082433189479646"><ele>602.0</ele><time>2026-04-30T15:33:46.008Z</time></trkpt><trkpt lat="40.01499392944068" lon="9.08241720324682"><ele>602.0</ele><time>2026-04-30T15:33:47.008Z</time></trkpt><trkpt lat="40.01513657264571" lon="9.082517579202511"><ele>602.3333333333333</ele><time>2026-04-30T15:33:48.008Z</time></trkpt><trkpt lat="40.01527183606409" lon="9.082709576688675"><ele>602.6666666666666</ele><time>2026-04-30T15:33:49.008Z</time></trkpt><trkpt lat="40.01538885672546" lon="9.082944464874602"><ele>603.0</ele><time>2026-04-30T15:33:50.008Z</time></trkpt><trkpt lat="40.01552528342133" lon="9.083180077358172"><ele>603.6666666666666</ele><time>2026-04-30T15:33:51.008Z</time></trkpt><trkpt lat="40.015681833267905" lon="9.083392383644972"><ele>604.3333333333333</ele><time>2026-04-30T15:33:52.008Z</time></trkpt><trkpt lat="40.01581298347923" lon="9.083586619907875"><ele>605.0</ele><time>2026-04-30T15:33:53.008Z</time></trkpt><trkpt lat="40.015890164820945" lon="9.083822312667108"><ele>607.3333333333333</ele><time>2026-04-30T15:33:54.008Z</time></trkpt><trkpt lat="40.015933398984245" lon="9.08410320105224"><ele>609.6666666666666</ele><time>2026-04-30T15:33:55.008Z</time></trkpt><trkpt lat="40.01595567142218" lon="9.084392265475369"><ele>612.0</ele><time>2026-04-30T15:33:56.008Z</time></trkpt><trkpt lat="40.015988158067316" lon="9.084678565196572"><ele>613.0</ele><time>2026-04-30T15:33:57.008Z</time></trkpt><trkpt lat="40.01602273581065" lon="9.084976985620271"><ele>614.0</ele><time>2026-04-30T15:33:58.008Z</time></trkpt><trkpt lat="40.01603350816738" lon="9.08527437131817"><ele>614.0</ele><time>2026-04-30T15:33:59.008Z</time></trkpt><trkpt lat="40.01602312028178" lon="9.085569442039148"><ele>614.0</ele><time>2026-04-30T15:34:00.008Z</time></trkpt><trkpt lat="40.016010427569704" lon="9.085855773849635"><ele>614.0</ele><time>2026-04-30T15:34:01.008Z</time></trkpt><trkpt lat="40.01601853659225" lon="9.086135522453034"><ele>616.3333333333333</ele><time>2026-04-30T15:34:02.008Z</time></trkpt><trkpt lat="40.016095908208094" lon="9.086406003742784"><ele>618.6666666666666</ele><time>2026-04-30T15:34:03.008Z</time></trkpt><trkpt lat="40.0162220196427" lon="9.086645667366541"><ele>621.0</ele><time>2026-04-30T15:34:04.008Z</time></trkpt><trkpt lat="40.016297232458804" lon="9.086917367590019"><ele>624.5</ele><time>2026-04-30T15:34:05.008Z</time></trkpt><trkpt lat="40.01633585948022" lon="9.087209786087735"><ele>628.0</ele><time>2026-04-30T15:34:06.008Z</time></trkpt><trkpt lat="40.01637148210488" lon="9.087502978148327"><ele>630.5</ele><time>2026-04-30T15:34:07.008Z</time></trkpt><trkpt lat="40.01641676621028" lon="9.087790553137642"><ele>633.0</ele><time>2026-04-30T15:34:08.008Z</time></trkpt><trkpt lat="40.01651686604574" lon="9.088055966777633"><ele>638.5</ele><time>2026-04-30T15:34:09.008Z</time></trkpt><trkpt lat="40.016648229123696" lon="9.088310717582878"><ele>644.0</ele><time>2026-04-30T15:34:10.008Z</time></trkpt><trkpt lat="40.016738524470505" lon="9.088584931963542"><ele>633.0</ele><time>2026-04-30T15:34:11.008Z</time></trkpt><trkpt lat="40.016790963395124" lon="9.088884835513106"><ele>622.0</ele><time>2026-04-30T15:34:12.008Z</time></trkpt><trkpt lat="40.01683328802437" lon="9.089174006774483"><ele>622.0</ele><time>2026-04-30T15:34:13.008Z</time></trkpt><trkpt lat="40.016877016206635" lon="9.089457528308005"><ele>622.0</ele><time>2026-04-30T15:34:14.008Z</time></trkpt><trkpt lat="40.016933639296184" lon="9.089743332686096"><ele>622.0</ele><time>2026-04-30T15:34:15.008Z</time></trkpt><trkpt lat="40.01698898937285" lon="9.09002647601232"><ele>624.0</ele><time>2026-04-30T15:34:16.008Z</time></trkpt><trkpt lat="40.0170354492733" lon="9.090313819825612"><ele>626.0</ele><time>2026-04-30T15:34:17.008Z</time></trkpt><trkpt lat="40.01708617021454" lon="9.090602508983302"><ele>629.0</ele><time>2026-04-30T15:34:18.008Z</time></trkpt><trkpt lat="40.01713559763544" lon="9.090893482082663"><ele>632.0</ele><time>2026-04-30T15:34:19.008Z</time></trkpt><trkpt lat="40.01718995354917" lon="9.091185085286837"><ele>632.0</ele><time>2026-04-30T15:34:20.008Z</time></trkpt><trkpt lat="40.01724713143842" lon="9.091469962615506"><ele>632.0</ele><time>2026-04-30T15:34:21.008Z</time></trkpt><trkpt lat="40.0173004441232" lon="9.091755691828864"><ele>633.6666666666666</ele><time>2026-04-30T15:34:22.008Z</time></trkpt><trkpt lat="40.01735021628865" lon="9.09203259221578"><ele>635.3333333333334</ele><time>2026-04-30T15:34:23.008Z</time></trkpt><trkpt lat="40.01739514055562" lon="9.092294286163071"><ele>637.0</ele><time>2026-04-30T15:34:24.008Z</time></trkpt><trkpt lat="40.0174369193448" lon="9.092526820416852"><ele>637.75</ele><time>2026-04-30T15:34:25.008Z</time></trkpt><trkpt lat="40.01748504296973" lon="9.092736539706358"><ele>638.5</ele><time>2026-04-30T15:34:26.008Z</time></trkpt><trkpt lat="40.01752789908973" lon="9.092914816356823"><ele>639.25</ele><time>2026-04-30T15:34:27.008Z</time></trkpt><trkpt lat="40.01759925701784" lon="9.093050196728653"><ele>640.0</ele><time>2026-04-30T15:34:28.008Z</time></trkpt><trkpt lat="40.017722218678855" lon="9.093128473899238"><ele>634.6666666666667</ele><time>2026-04-30T15:34:29.008Z</time></trkpt><trkpt lat="40.01788942107008" lon="9.093137304019308"><ele>629.3333333333334</ele><time>2026-04-30T15:34:30.008Z</time></trkpt><trkpt lat="40.01806262730302" lon="9.093149110800576"><ele>624.0</ele><time>2026-04-30T15:34:31.008Z</time></trkpt><trkpt lat="40.01819337037616" lon="9.093260600200061"><ele>624.0</ele><time>2026-04-30T15:34:32.008Z</time></trkpt><trkpt lat="40.01822687635052" lon="9.0934949933726"><ele>624.0</ele><time>2026-04-30T15:34:33.008Z</time></trkpt><trkpt lat="40.01820840100547" lon="9.093766922027921"><ele>624.0</ele><time>2026-04-30T15:34:34.008Z</time></trkpt><trkpt lat="40.01822503316831" lon="9.094013372324735"><ele>625.0</ele><time>2026-04-30T15:34:35.008Z</time></trkpt><trkpt lat="40.01829608683298" lon="9.09422231604561"><ele>626.0</ele><time>2026-04-30T15:34:36.008Z</time></trkpt><trkpt lat="40.01842930812191" lon="9.094392407881978"><ele>627.0</ele><time>2026-04-30T15:34:37.008Z</time></trkpt><trkpt lat="40.01853120838214" lon="9.094590277885729"><ele>627.0</ele><time>2026-04-30T15:34:38.008Z</time></trkpt><trkpt lat="40.01856698453331" lon="9.09482783396942"><ele>627.0</ele><time>2026-04-30T15:34:39.008Z</time></trkpt><trkpt lat="40.01859734275587" lon="9.095088349036674"><ele>627.0</ele><time>2026-04-30T15:34:40.008Z</time></trkpt><trkpt lat="40.01867284897335" lon="9.095329043219147"><ele>627.0</ele><time>2026-04-30T15:34:41.008Z</time></trkpt><trkpt lat="40.01878589340073" lon="9.09555784263743"><ele>627.0</ele><time>2026-04-30T15:34:42.008Z</time></trkpt><trkpt lat="40.018908920159966" lon="9.095770150615559"><ele>627.0</ele><time>2026-04-30T15:34:43.008Z</time></trkpt><trkpt lat="40.019028861156535" lon="9.095943781402505"><ele>627.0</ele><time>2026-04-30T15:34:44.008Z</time></trkpt><trkpt lat="40.01914416301358" lon="9.0960848710944"><ele>627.0</ele><time>2026-04-30T15:34:45.008Z</time></trkpt><trkpt lat="40.01920835234659" lon="9.096250433546139"><ele>627.0</ele><time>2026-04-30T15:34:46.008Z</time></trkpt><trkpt lat="40.01918144917863" lon="9.096456405382543"><ele>628.3333333333334</ele><time>2026-04-30T15:34:47.008Z</time></trkpt><trkpt lat="40.01910857517563" lon="9.096674433623328"><ele>629.6666666666667</ele><time>2026-04-30T15:34:48.008Z</time></trkpt><trkpt lat="40.01908389099645" lon="9.096879548962498"><ele>631.0</ele><time>2026-04-30T15:34:49.008Z</time></trkpt><trkpt lat="40.01912500054621" lon="9.09707693136857"><ele>633.0</ele><time>2026-04-30T15:34:50.008Z</time></trkpt><trkpt lat="40.019194906349036" lon="9.09725354131817"><ele>635.0</ele><time>2026-04-30T15:34:51.008Z</time></trkpt><trkpt lat="40.019258574105706" lon="9.09743229532078"><ele>637.0</ele><time>2026-04-30T15:34:52.008Z</time></trkpt><trkpt lat="40.01931385280846" lon="9.097604494177109"><ele>639.0</ele><time>2026-04-30T15:34:53.008Z</time></trkpt><trkpt lat="40.019377925046314" lon="9.097764263565127"><ele>639.0</ele><time>2026-04-30T15:34:54.008Z</time></trkpt><trkpt lat="40.019451806696665" lon="9.097909648576078"><ele>639.0</ele><time>2026-04-30T15:34:55.008Z</time></trkpt><trkpt lat="40.01954312645806" lon="9.098032710088136"><ele>639.0</ele><time>2026-04-30T15:34:56.008Z</time></trkpt><trkpt lat="40.019647459603945" lon="9.098138044539494"><ele>639.0</ele><time>2026-04-30T15:34:57.008Z</time></trkpt><trkpt lat="40.0197622757289" lon="9.098234194933761"><ele>639.5</ele><time>2026-04-30T15:34:58.008Z</time></trkpt><trkpt lat="40.01989047534043" lon="9.098311781472798"><ele>640.0</ele><time>2026-04-30T15:34:59.008Z</time></trkpt><trkpt lat="40.02002095197617" lon="9.098398156229619"><ele>640.5</ele><time>2026-04-30T15:35:00.008Z</time></trkpt><trkpt lat="40.0201498252352" lon="9.098482919441699"><ele>641.0</ele><time>2026-04-30T15:35:01.008Z</time></trkpt><trkpt lat="40.02027309326767" lon="9.098565444680638"><ele>643.0</ele><time>2026-04-30T15:35:02.008Z</time></trkpt><trkpt lat="40.020395854366654" lon="9.098650466494611"><ele>645.0</ele><time>2026-04-30T15:35:03.008Z</time></trkpt><trkpt lat="40.020511917855735" lon="9.098728985194718"><ele>647.0</ele><time>2026-04-30T15:35:04.008Z</time></trkpt><trkpt lat="40.02062547311428" lon="9.098803407000691"><ele>649.0</ele><time>2026-04-30T15:35:05.008Z</time></trkpt><trkpt lat="40.02074019099376" lon="9.098878953213589"><ele>650.25</ele><time>2026-04-30T15:35:06.008Z</time></trkpt><trkpt lat="40.02085711597042" lon="9.098956800523649"><ele>651.5</ele><time>2026-04-30T15:35:07.009Z</time></trkpt><trkpt lat="40.02097282836319" lon="9.099033837330504"><ele>652.75</ele><time>2026-04-30T15:35:08.008Z</time></trkpt><trkpt lat="40.02108119058158" lon="9.099102192782418"><ele>654.0</ele><time>2026-04-30T15:35:09.008Z</time></trkpt><trkpt lat="40.02118472939275" lon="9.099173441379744"><ele>654.0</ele><time>2026-04-30T15:35:10.009Z</time></trkpt><trkpt lat="40.021295882872955" lon="9.099243213533455"><ele>654.0</ele><time>2026-04-30T15:35:11.009Z</time></trkpt><trkpt lat="40.02138925636824" lon="9.099317764443487"><ele>654.0</ele><time>2026-04-30T15:35:12.009Z</time></trkpt><trkpt lat="40.02150297397702" lon="9.099388442691618"><ele>654.0</ele><time>2026-04-30T15:35:13.009Z</time></trkpt><trkpt lat="40.02161969080057" lon="9.099462342169637"><ele>655.0</ele><time>2026-04-30T15:35:14.008Z</time></trkpt><trkpt lat="40.021729480248005" lon="9.09952645556614"><ele>656.0</ele><time>2026-04-30T15:35:15.008Z</time></trkpt><trkpt lat="40.021821309787676" lon="9.0995985693257"><ele>657.0</ele><time>2026-04-30T15:35:16.009Z</time></trkpt><trkpt lat="40.021913691978504" lon="9.099673813885468"><ele>658.0</ele><time>2026-04-30T15:35:17.009Z</time></trkpt><trkpt lat="40.02200625265231" lon="9.099727383899591"><ele>659.0</ele><time>2026-04-30T15:35:18.009Z</time></trkpt><trkpt lat="40.022076962601815" lon="9.09978409062012"><ele>659.0</ele><time>2026-04-30T15:35:19.008Z</time></trkpt><trkpt lat="40.02214398226933" lon="9.099824474173793"><ele>659.0</ele><time>2026-04-30T15:35:20.009Z</time></trkpt><trkpt lat="40.02220771322664" lon="9.099855877261067"><ele>659.0</ele><time>2026-04-30T15:35:21.009Z</time></trkpt><trkpt lat="40.02227757226444" lon="9.099890412951954"><ele>659.0</ele><time>2026-04-30T15:35:22.009Z</time></trkpt><trkpt lat="40.02234255089815" lon="9.099941747731624"><ele>659.0</ele><time>2026-04-30T15:35:23.009Z</time></trkpt><trkpt lat="40.02240588654207" lon="9.099989805253442"><ele>659.0</ele><time>2026-04-30T15:35:24.009Z</time></trkpt><trkpt lat="40.02247923388099" lon="9.10003942600634"><ele>659.0</ele><time>2026-04-30T15:35:25.009Z</time></trkpt><trkpt lat="40.02255870761424" lon="9.100088151723789"><ele>658.8000000000001</ele><time>2026-04-30T15:35:26.009Z</time></trkpt><trkpt lat="40.02264044420263" lon="9.100147039756212"><ele>658.6</ele><time>2026-04-30T15:35:27.009Z</time></trkpt><trkpt lat="40.02272246402655" lon="9.100204484878716"><ele>658.4</ele><time>2026-04-30T15:35:28.009Z</time></trkpt><trkpt lat="40.02280951596556" lon="9.100269598553274"><ele>658.2</ele><time>2026-04-30T15:35:29.009Z</time></trkpt><trkpt lat="40.02290318458116" lon="9.100322704906612"><ele>658.0</ele><time>2026-04-30T15:35:30.009Z</time></trkpt><trkpt lat="40.022997575179815" lon="9.100382332990657"><ele>658.0</ele><time>2026-04-30T15:35:31.009Z</time></trkpt><trkpt lat="40.02309240218101" lon="9.100448519747223"><ele>658.0</ele><time>2026-04-30T15:35:32.009Z</time></trkpt><trkpt lat="40.023194272788714" lon="9.100512187930981"><ele>658.0</ele><time>2026-04-30T15:35:33.009Z</time></trkpt><trkpt lat="40.02329708561591" lon="9.100580461444475"><ele>658.0</ele><time>2026-04-30T15:35:34.009Z</time></trkpt><trkpt lat="40.023399356164354" lon="9.10064954228956"><ele>658.5999999999999</ele><time>2026-04-30T15:35:35.009Z</time></trkpt><trkpt lat="40.02350146284611" lon="9.100718417553242"><ele>659.1999999999999</ele><time>2026-04-30T15:35:36.009Z</time></trkpt><trkpt lat="40.02360791613007" lon="9.100790505034322"><ele>659.8</ele><time>2026-04-30T15:35:37.009Z</time></trkpt><trkpt lat="40.02370320218873" lon="9.100848155730153"><ele>660.4</ele><time>2026-04-30T15:35:38.009Z</time></trkpt><trkpt lat="40.02378205930385" lon="9.100900112481972"><ele>661.0</ele><time>2026-04-30T15:35:39.009Z</time></trkpt><trkpt lat="40.023848570993025" lon="9.100946783098893"><ele>661.0</ele><time>2026-04-30T15:35:40.009Z</time></trkpt><trkpt lat="40.02394260625589" lon="9.101016596681973"><ele>661.0</ele><time>2026-04-30T15:35:42.009Z</time></trkpt><trkpt lat="40.02402690511412" lon="9.101056089616879"><ele>661.0</ele><time>2026-04-30T15:35:44.009Z</time></trkpt><trkpt lat="40.02412129925256" lon="9.101113071019574"><ele>661.0</ele><time>2026-04-30T15:35:46.009Z</time></trkpt><trkpt lat="40.024230184139164" lon="9.10118598541161"><ele>661.0</ele><time>2026-04-30T15:35:48.009Z</time></trkpt><trkpt lat="40.024292275602676" lon="9.101228096711434"><ele>662.3333333333334</ele><time>2026-04-30T15:35:49.009Z</time></trkpt><trkpt lat="40.0243550837743" lon="9.101263451162408"><ele>663.6666666666667</ele><time>2026-04-30T15:35:50.009Z</time></trkpt><trkpt lat="40.02443407432529" lon="9.101302090798153"><ele>665.0</ele><time>2026-04-30T15:35:52.009Z</time></trkpt><trkpt lat="40.02449077385022" lon="9.101249400430042"><ele>666.3333333333334</ele><time>2026-04-30T15:35:58.009Z</time></trkpt><trkpt lat="40.02458865931704" lon="9.101289270030529"><ele>667.6666666666666</ele><time>2026-04-30T15:36:00.009Z</time></trkpt><trkpt lat="40.0246739608085" lon="9.101308848177547"><ele>669.0</ele><time>2026-04-30T15:36:01.009Z</time></trkpt><trkpt lat="40.024758923213106" lon="9.101294954275815"><ele>669.0</ele><time>2026-04-30T15:36:02.009Z</time></trkpt><trkpt lat="40.02483531635164" lon="9.101258730791345"><ele>669.0</ele><time>2026-04-30T15:36:03.009Z</time></trkpt><trkpt lat="40.02488738783138" lon="9.101208696299585"><ele>669.0</ele><time>2026-04-30T15:36:04.009Z</time></trkpt><trkpt lat="40.02496316159764" lon="9.101158921302039"><ele>669.0</ele><time>2026-04-30T15:36:05.009Z</time></trkpt><trkpt lat="40.0250741687961" lon="9.101135398815941"><ele>669.0</ele><time>2026-04-30T15:36:06.009Z</time></trkpt><trkpt lat="40.02520888812537" lon="9.101128475699126"><ele>670.8000000000001</ele><time>2026-04-30T15:36:07.009Z</time></trkpt><trkpt lat="40.025316788651104" lon="9.101097263559442"><ele>672.6</ele><time>2026-04-30T15:36:08.009Z</time></trkpt><trkpt lat="40.025410987397386" lon="9.10108537382931"><ele>674.4</ele><time>2026-04-30T15:36:09.009Z</time></trkpt><trkpt lat="40.02551213510799" lon="9.101093063741667"><ele>676.2</ele><time>2026-04-30T15:36:10.009Z</time></trkpt><trkpt lat="40.02561268962413" lon="9.101124799036548"><ele>678.0</ele><time>2026-04-30T15:36:11.009Z</time></trkpt><trkpt lat="40.02570483625976" lon="9.101183736139108"><ele>678.0</ele><time>2026-04-30T15:36:12.009Z</time></trkpt><trkpt lat="40.02578818974555" lon="9.101271510089518"><ele>678.0</ele><time>2026-04-30T15:36:13.009Z</time></trkpt><trkpt lat="40.02586336037274" lon="9.101379996089632"><ele>678.0</ele><time>2026-04-30T15:36:14.009Z</time></trkpt><trkpt lat="40.025920680444756" lon="9.10150840415202"><ele>678.0</ele><time>2026-04-30T15:36:15.009Z</time></trkpt><trkpt lat="40.02596137198042" lon="9.101647775039645"><ele>678.0</ele><time>2026-04-30T15:36:16.009Z</time></trkpt><trkpt lat="40.02597051748956" lon="9.101800650425737"><ele>677.8</ele><time>2026-04-30T15:36:17.009Z</time></trkpt><trkpt lat="40.02597174492238" lon="9.101949787707186"><ele>677.5999999999999</ele><time>2026-04-30T15:36:18.009Z</time></trkpt><trkpt lat="40.025964612964906" lon="9.10208860322009"><ele>677.4000000000001</ele><time>2026-04-30T15:36:19.009Z</time></trkpt><trkpt lat="40.025956483807825" lon="9.102220817218655"><ele>677.2</ele><time>2026-04-30T15:36:20.009Z</time></trkpt><trkpt lat="40.025954247337616" lon="9.102334479819874"><ele>677.0</ele><time>2026-04-30T15:36:21.009Z</time></trkpt><trkpt lat="40.02595770523423" lon="9.102429710504373"><ele>677.5</ele><time>2026-04-30T15:36:22.009Z</time></trkpt><trkpt lat="40.025974987669" lon="9.102512812113618"><ele>678.0</ele><time>2026-04-30T15:36:23.009Z</time></trkpt><trkpt lat="40.026026401478305" lon="9.1025633487713"><ele>678.5</ele><time>2026-04-30T15:36:24.009Z</time></trkpt><trkpt lat="40.026111324841935" lon="9.102591472216874"><ele>679.0</ele><time>2026-04-30T15:36:25.009Z</time></trkpt><trkpt lat="40.02620921402684" lon="9.102625881460785"><ele>679.5</ele><time>2026-04-30T15:36:26.009Z</time></trkpt><trkpt lat="40.026288013670964" lon="9.102701418267428"><ele>680.0</ele><time>2026-04-30T15:36:27.009Z</time></trkpt><trkpt lat="40.026354551447795" lon="9.102803329922663"><ele>680.0</ele><time>2026-04-30T15:36:28.009Z</time></trkpt><trkpt lat="40.02640827000307" lon="9.102908302650158"><ele>680.0</ele><time>2026-04-30T15:36:29.009Z</time></trkpt><trkpt lat="40.02647029100213" lon="9.103016978430077"><ele>680.0</ele><time>2026-04-30T15:36:30.009Z</time></trkpt><trkpt lat="40.02652119033845" lon="9.103135823023061"><ele>680.0</ele><time>2026-04-30T15:36:31.009Z</time></trkpt><trkpt lat="40.0265774244492" lon="9.103254056896118"><ele>680.0</ele><time>2026-04-30T15:36:32.009Z</time></trkpt><trkpt lat="40.02663763121221" lon="9.103364224042245"><ele>681.6</ele><time>2026-04-30T15:36:33.009Z</time></trkpt><trkpt lat="40.02670044761977" lon="9.103476061297584"><ele>683.2</ele><time>2026-04-30T15:36:34.009Z</time></trkpt><trkpt lat="40.026756703017085" lon="9.103585794995062"><ele>684.8</ele><time>2026-04-30T15:36:35.009Z</time></trkpt><trkpt lat="40.026817366893226" lon="9.103673413313238"><ele>686.4</ele><time>2026-04-30T15:36:36.009Z</time></trkpt><trkpt lat="40.02688187190057" lon="9.103747548835889"><ele>688.0</ele><time>2026-04-30T15:36:37.009Z</time></trkpt><trkpt lat="40.02695677533965" lon="9.103820550186956"><ele>688.0</ele><time>2026-04-30T15:36:38.009Z</time></trkpt><trkpt lat="40.027034340103235" lon="9.103880429709706"><ele>688.0</ele><time>2026-04-30T15:36:39.009Z</time></trkpt><trkpt lat="40.02712850058283" lon="9.10391327375325"><ele>688.0</ele><time>2026-04-30T15:36:40.009Z</time></trkpt><trkpt lat="40.02722895288433" lon="9.103926916805994"><ele>688.0</ele><time>2026-04-30T15:36:41.009Z</time></trkpt><trkpt lat="40.027335504901544" lon="9.103894314475882"><ele>688.0</ele><time>2026-04-30T15:36:42.009Z</time></trkpt><trkpt lat="40.027448573481756" lon="9.103854100378419"><ele>690.2</ele><time>2026-04-30T15:36:43.009Z</time></trkpt><trkpt lat="40.02755659394632" lon="9.10383171176248"><ele>692.4</ele><time>2026-04-30T15:36:44.009Z</time></trkpt><trkpt lat="40.02765780356496" lon="9.103822306120003"><ele>694.6</ele><time>2026-04-30T15:36:45.009Z</time></trkpt><trkpt lat="40.02776651084599" lon="9.103825249093894"><ele>696.8000000000001</ele><time>2026-04-30T15:36:46.009Z</time></trkpt><trkpt lat="40.027878528091975" lon="9.103831089403633"><ele>699.0</ele><time>2026-04-30T15:36:47.009Z</time></trkpt><trkpt lat="40.0279817234232" lon="9.10386025687503"><ele>699.0</ele><time>2026-04-30T15:36:48.009Z</time></trkpt><trkpt lat="40.028083740016974" lon="9.10390203394383"><ele>699.0</ele><time>2026-04-30T15:36:49.009Z</time></trkpt><trkpt lat="40.028190774454835" lon="9.103948076163457"><ele>699.0</ele><time>2026-04-30T15:36:50.009Z</time></trkpt><trkpt lat="40.028289673252736" lon="9.103992956048428"><ele>699.0</ele><time>2026-04-30T15:36:51.009Z</time></trkpt><trkpt lat="40.02838583133663" lon="9.104044935753617"><ele>699.0</ele><time>2026-04-30T15:36:52.009Z</time></trkpt><trkpt lat="40.02847003987392" lon="9.104128092334543"><ele>699.8000000000001</ele><time>2026-04-30T15:36:53.009Z</time></trkpt><trkpt lat="40.02850983587973" lon="9.10424287997828"><ele>700.6</ele><time>2026-04-30T15:36:54.009Z</time></trkpt><trkpt lat="40.02850065692308" lon="9.104373333547622"><ele>701.4</ele><time>2026-04-30T15:36:55.009Z</time></trkpt><trkpt lat="40.02845256004072" lon="9.104510282155813"><ele>702.2</ele><time>2026-04-30T15:36:56.009Z</time></trkpt><trkpt lat="40.02841471297256" lon="9.104654188562497"><ele>703.0</ele><time>2026-04-30T15:36:57.009Z</time></trkpt><trkpt lat="40.02842153738648" lon="9.104793895130245"><ele>703.0</ele><time>2026-04-30T15:36:58.009Z</time></trkpt><trkpt lat="40.028465766265775" lon="9.104901254856706"><ele>703.0</ele><time>2026-04-30T15:36:59.009Z</time></trkpt><trkpt lat="40.02854736327075" lon="9.104976238488879"><ele>703.0</ele><time>2026-04-30T15:37:00.009Z</time></trkpt><trkpt lat="40.0286390435493" lon="9.105045569195024"><ele>703.0</ele><time>2026-04-30T15:37:01.009Z</time></trkpt><trkpt lat="40.0287257114206" lon="9.105141061997495"><ele>703.0</ele><time>2026-04-30T15:37:02.009Z</time></trkpt><trkpt lat="40.02879075494349" lon="9.105265532745285"><ele>703.0</ele><time>2026-04-30T15:37:03.009Z</time></trkpt><trkpt lat="40.02881650804719" lon="9.10541330507401"><ele>703.0</ele><time>2026-04-30T15:37:04.009Z</time></trkpt><trkpt lat="40.02881568146257" lon="9.1055775062036"><ele>703.0</ele><time>2026-04-30T15:37:05.009Z</time></trkpt><trkpt lat="40.02883484799057" lon="9.105740292572674"><ele>703.0</ele><time>2026-04-30T15:37:06.009Z</time></trkpt><trkpt lat="40.02886241843244" lon="9.105909277824745"><ele>703.0</ele><time>2026-04-30T15:37:07.009Z</time></trkpt><trkpt lat="40.02889631066147" lon="9.106081968879952"><ele>703.0</ele><time>2026-04-30T15:37:08.009Z</time></trkpt><trkpt lat="40.02897152568783" lon="9.106232790607278"><ele>703.0</ele><time>2026-04-30T15:37:09.009Z</time></trkpt><trkpt lat="40.02906267424395" lon="9.10637103533491"><ele>703.0</ele><time>2026-04-30T15:37:10.009Z</time></trkpt><trkpt lat="40.02913636080161" lon="9.106523725733"><ele>706.0</ele><time>2026-04-30T15:37:11.009Z</time></trkpt><trkpt lat="40.029193466079924" lon="9.106682917131785"><ele>709.0</ele><time>2026-04-30T15:37:12.009Z</time></trkpt><trkpt lat="40.02925867789598" lon="9.10684555583277"><ele>712.0</ele><time>2026-04-30T15:37:13.009Z</time></trkpt><trkpt lat="40.02937252266373" lon="9.10696716607619"><ele>715.0</ele><time>2026-04-30T15:37:14.009Z</time></trkpt><trkpt lat="40.029495557382866" lon="9.10705548253478"><ele>715.0</ele><time>2026-04-30T15:37:15.009Z</time></trkpt><trkpt lat="40.02959196695356" lon="9.107171271586127"><ele>715.0</ele><time>2026-04-30T15:37:16.009Z</time></trkpt><trkpt lat="40.02963699862134" lon="9.107323784521551"><ele>715.0</ele><time>2026-04-30T15:37:17.009Z</time></trkpt><trkpt lat="40.02962132759719" lon="9.107482470074828"><ele>715.0</ele><time>2026-04-30T15:37:18.009Z</time></trkpt><trkpt lat="40.029561718177504" lon="9.107642313493976"><ele>715.25</ele><time>2026-04-30T15:37:19.009Z</time></trkpt><trkpt lat="40.02947823634275" lon="9.107798688263806"><ele>715.5</ele><time>2026-04-30T15:37:20.009Z</time></trkpt><trkpt lat="40.029425971347614" lon="9.107967089904037"><ele>715.75</ele><time>2026-04-30T15:37:21.009Z</time></trkpt><trkpt lat="40.02941328095707" lon="9.108161581696546"><ele>716.0</ele><time>2026-04-30T15:37:22.008Z</time></trkpt><trkpt lat="40.02945300641134" lon="9.108364468283556"><ele>717.5</ele><time>2026-04-30T15:37:23.009Z</time></trkpt><trkpt lat="40.02950002749935" lon="9.108539528437818"><ele>719.0</ele><time>2026-04-30T15:37:24.009Z</time></trkpt><trkpt lat="40.02956257938475" lon="9.108717562322246"><ele>720.5</ele><time>2026-04-30T15:37:25.009Z</time></trkpt><trkpt lat="40.029611785807866" lon="9.108894240613099"><ele>722.0</ele><time>2026-04-30T15:37:26.009Z</time></trkpt><trkpt lat="40.029597277933675" lon="9.109068903046436"><ele>721.5</ele><time>2026-04-30T15:37:27.009Z</time></trkpt><trkpt lat="40.029524637946615" lon="9.109206034813486"><ele>721.0</ele><time>2026-04-30T15:37:28.009Z</time></trkpt><trkpt lat="40.02941065788526" lon="9.109278639475155"><ele>720.5</ele><time>2026-04-30T15:37:29.009Z</time></trkpt><trkpt lat="40.02927423397007" lon="9.109255312948381"><ele>720.0</ele><time>2026-04-30T15:37:30.009Z</time></trkpt><trkpt lat="40.02913726674043" lon="9.10922380791052"><ele>720.0</ele><time>2026-04-30T15:37:31.009Z</time></trkpt><trkpt lat="40.0289935555864" lon="9.109237545431913"><ele>720.0</ele><time>2026-04-30T15:37:32.009Z</time></trkpt><trkpt lat="40.028866059680105" lon="9.109331985121635"><ele>720.0</ele><time>2026-04-30T15:37:33.009Z</time></trkpt><trkpt lat="40.02877737673475" lon="9.109515304367362"><ele>720.0</ele><time>2026-04-30T15:37:34.009Z</time></trkpt><trkpt lat="40.02870108031395" lon="9.109706934989301"><ele>720.0</ele><time>2026-04-30T15:37:35.009Z</time></trkpt><trkpt lat="40.028605377005654" lon="9.109916759833832"><ele>720.0</ele><time>2026-04-30T15:37:36.009Z</time></trkpt><trkpt lat="40.02849407099" lon="9.110097419453172"><ele>723.5</ele><time>2026-04-30T15:37:37.009Z</time></trkpt><trkpt lat="40.02839913215637" lon="9.110240925249265"><ele>727.0</ele><time>2026-04-30T15:37:38.009Z</time></trkpt><trkpt lat="40.02837900544217" lon="9.110393781211735"><ele>730.5</ele><time>2026-04-30T15:37:39.009Z</time></trkpt><trkpt lat="40.02843325672161" lon="9.110513048381051"><ele>734.0</ele><time>2026-04-30T15:37:40.009Z</time></trkpt><trkpt lat="40.0285476650406" lon="9.110577671572644"><ele>734.0</ele><time>2026-04-30T15:37:41.009Z</time></trkpt><trkpt lat="40.02869007291797" lon="9.110608541106222"><ele>734.0</ele><time>2026-04-30T15:37:42.009Z</time></trkpt><trkpt lat="40.02882970748348" lon="9.110726187225758"><ele>734.0</ele><time>2026-04-30T15:37:43.009Z</time></trkpt><trkpt lat="40.028938509832905" lon="9.110930247352725"><ele>734.3333333333333</ele><time>2026-04-30T15:37:44.009Z</time></trkpt><trkpt lat="40.02902105396155" lon="9.111143993527387"><ele>734.6666666666666</ele><time>2026-04-30T15:37:45.009Z</time></trkpt><trkpt lat="40.02907662005462" lon="9.111330678393413"><ele>735.0</ele><time>2026-04-30T15:37:46.009Z</time></trkpt><trkpt lat="40.029109544228795" lon="9.111530418297402"><ele>734.75</ele><time>2026-04-30T15:37:47.009Z</time></trkpt><trkpt lat="40.029093313963166" lon="9.111719061769879"><ele>734.5</ele><time>2026-04-30T15:37:48.009Z</time></trkpt><trkpt lat="40.02902869651369" lon="9.111864907954045"><ele>734.25</ele><time>2026-04-30T15:37:49.009Z</time></trkpt><trkpt lat="40.02896272382313" lon="9.111986943776127"><ele>734.0</ele><time>2026-04-30T15:37:50.009Z</time></trkpt><trkpt lat="40.02891949072848" lon="9.112108561558504"><ele>734.0</ele><time>2026-04-30T15:37:51.009Z</time></trkpt><trkpt lat="40.028905385759714" lon="9.112225534823876"><ele>734.0</ele><time>2026-04-30T15:37:52.009Z</time></trkpt><trkpt lat="40.02894170528043" lon="9.112353031845638"><ele>734.0</ele><time>2026-04-30T15:37:53.009Z</time></trkpt><trkpt lat="40.02901421074105" lon="9.112477376270592"><ele>734.0</ele><time>2026-04-30T15:37:54.009Z</time></trkpt><trkpt lat="40.029101448145646" lon="9.112579583420708"><ele>734.0</ele><time>2026-04-30T15:37:55.009Z</time></trkpt><trkpt lat="40.0291878815858" lon="9.112659110342165"><ele>737.8000000000001</ele><time>2026-04-30T15:37:56.009Z</time></trkpt><trkpt lat="40.02927864063607" lon="9.112706547000037"><ele>741.6</ele><time>2026-04-30T15:37:57.009Z</time></trkpt><trkpt lat="40.029375288447305" lon="9.112708640583103"><ele>745.4</ele><time>2026-04-30T15:37:58.009Z</time></trkpt><trkpt lat="40.029463973598624" lon="9.112665403725869"><ele>749.2</ele><time>2026-04-30T15:37:59.009Z</time></trkpt><trkpt lat="40.029539329646155" lon="9.112586087097055"><ele>753.0</ele><time>2026-04-30T15:38:00.009Z</time></trkpt><trkpt lat="40.02958282948051" lon="9.112481646946954"><ele>753.4</ele><time>2026-04-30T15:38:01.009Z</time></trkpt><trkpt lat="40.02959005441225" lon="9.11236199970102"><ele>753.8</ele><time>2026-04-30T15:38:02.009Z</time></trkpt><trkpt lat="40.02958064213755" lon="9.112245261810644"><ele>754.2</ele><time>2026-04-30T15:38:03.009Z</time></trkpt><trkpt lat="40.029574354373274" lon="9.112132930245933"><ele>754.6</ele><time>2026-04-30T15:38:04.009Z</time></trkpt><trkpt lat="40.029587946904606" lon="9.112014586160416"><ele>755.0</ele><time>2026-04-30T15:38:05.009Z</time></trkpt><trkpt lat="40.02964018241345" lon="9.11191678750355"><ele>755.0</ele><time>2026-04-30T15:38:06.009Z</time></trkpt><trkpt lat="40.02971876490401" lon="9.111852591010626"><ele>755.0</ele><time>2026-04-30T15:38:07.009Z</time></trkpt><trkpt lat="40.02982663506539" lon="9.111827145933013"><ele>755.0</ele><time>2026-04-30T15:38:08.009Z</time></trkpt><trkpt lat="40.02992598503167" lon="9.11182134316288"><ele>755.0</ele><time>2026-04-30T15:38:09.009Z</time></trkpt><trkpt lat="40.030020242788694" lon="9.111844849733393"><ele>755.0</ele><time>2026-04-30T15:38:10.009Z</time></trkpt><trkpt lat="40.03009864508869" lon="9.11192037433162"><ele>756.8</ele><time>2026-04-30T15:38:11.009Z</time></trkpt><trkpt lat="40.03017539322649" lon="9.112016238643742"><ele>758.6</ele><time>2026-04-30T15:38:12.009Z</time></trkpt><trkpt lat="40.0302443053942" lon="9.112127210038658"><ele>760.4000000000001</ele><time>2026-04-30T15:38:13.009Z</time></trkpt><trkpt lat="40.030311086105314" lon="9.112241711401792"><ele>762.2</ele><time>2026-04-30T15:38:14.009Z</time></trkpt><trkpt lat="40.03036984151508" lon="9.112380077807321"><ele>764.0</ele><time>2026-04-30T15:38:15.009Z</time></trkpt><trkpt lat="40.03041441697435" lon="9.112542225115401"><ele>764.0</ele><time>2026-04-30T15:38:16.009Z</time></trkpt><trkpt lat="40.03044131278056" lon="9.112719785421774"><ele>764.0</ele><time>2026-04-30T15:38:17.009Z</time></trkpt><trkpt lat="40.030460847300034" lon="9.112911364095636"><ele>764.0</ele><time>2026-04-30T15:38:18.009Z</time></trkpt><trkpt lat="40.030487661639725" lon="9.113107290795597"><ele>764.0</ele><time>2026-04-30T15:38:19.009Z</time></trkpt><trkpt lat="40.03055202872143" lon="9.113272623673925"><ele>762.5</ele><time>2026-04-30T15:38:20.009Z</time></trkpt><trkpt lat="40.03064367499298" lon="9.113392800930399"><ele>761.0</ele><time>2026-04-30T15:38:21.009Z</time></trkpt><trkpt lat="40.030746979385825" lon="9.11347873121514"><ele>759.5</ele><time>2026-04-30T15:38:22.009Z</time></trkpt><trkpt lat="40.0308340052246" lon="9.113550202947682"><ele>758.0</ele><time>2026-04-30T15:38:23.009Z</time></trkpt><trkpt lat="40.03092282665679" lon="9.113617538394417"><ele>764.0</ele><time>2026-04-30T15:38:24.009Z</time></trkpt><trkpt lat="40.03102496037097" lon="9.113680827049805"><ele>770.0</ele><time>2026-04-30T15:38:25.009Z</time></trkpt><trkpt lat="40.03114042935802" lon="9.11373766996"><ele>776.0</ele><time>2026-04-30T15:38:26.009Z</time></trkpt><trkpt lat="40.03126443600804" lon="9.113781539756951"><ele>782.0</ele><time>2026-04-30T15:38:27.009Z</time></trkpt><trkpt lat="40.031355613538764" lon="9.113848912806063"><ele>782.0</ele><time>2026-04-30T15:38:28.009Z</time></trkpt><trkpt lat="40.03137492108092" lon="9.11397939123921"><ele>782.0</ele><time>2026-04-30T15:38:29.009Z</time></trkpt><trkpt lat="40.0313458310911" lon="9.114136689326417"><ele>782.0</ele><time>2026-04-30T15:38:30.009Z</time></trkpt><trkpt lat="40.03128317826621" lon="9.114296223916934"><ele>782.0</ele><time>2026-04-30T15:38:31.009Z</time></trkpt><trkpt lat="40.03115684923599" lon="9.114410588432534"><ele>781.0</ele><time>2026-04-30T15:38:32.009Z</time></trkpt><trkpt lat="40.031009378476675" lon="9.114504381438996"><ele>780.0</ele><time>2026-04-30T15:38:33.009Z</time></trkpt><trkpt lat="40.03085029423265" lon="9.114611300784313"><ele>779.0</ele><time>2026-04-30T15:38:34.009Z</time></trkpt><trkpt lat="40.03069106789399" lon="9.114731680071586"><ele>778.3333333333334</ele><time>2026-04-30T15:38:35.009Z</time></trkpt><trkpt lat="40.03053845916524" lon="9.114871956683098"><ele>777.6666666666667</ele><time>2026-04-30T15:38:36.008Z</time></trkpt><trkpt lat="40.03040532426861" lon="9.115061999996344"><ele>777.0</ele><time>2026-04-30T15:38:37.008Z</time></trkpt><trkpt lat="40.03030925332068" lon="9.115288825580222"><ele>777.0</ele><time>2026-04-30T15:38:38.008Z</time></trkpt><trkpt lat="40.03026416231332" lon="9.115547118266392"><ele>777.0</ele><time>2026-04-30T15:38:39.008Z</time></trkpt><trkpt lat="40.030254911053994" lon="9.11581821386134"><ele>777.0</ele><time>2026-04-30T15:38:40.008Z</time></trkpt><trkpt lat="40.03024899101605" lon="9.116101755407456"><ele>779.6666666666667</ele><time>2026-04-30T15:38:41.008Z</time></trkpt><trkpt lat="40.03023890729895" lon="9.11638833429932"><ele>782.3333333333334</ele><time>2026-04-30T15:38:42.008Z</time></trkpt><trkpt lat="40.03022443747568" lon="9.116650616645387"><ele>785.0</ele><time>2026-04-30T15:38:43.008Z</time></trkpt><trkpt lat="40.030257051339255" lon="9.11689109643933"><ele>786.6666666666667</ele><time>2026-04-30T15:38:44.008Z</time></trkpt><trkpt lat="40.03035430908518" lon="9.11711444954101"><ele>788.3333333333333</ele><time>2026-04-30T15:38:45.008Z</time></trkpt><trkpt lat="40.03044149890514" lon="9.117364983696678"><ele>790.0</ele><time>2026-04-30T15:38:46.008Z</time></trkpt><trkpt lat="40.03048558338999" lon="9.117637758001718"><ele>790.6666666666666</ele><time>2026-04-30T15:38:47.008Z</time></trkpt><trkpt lat="40.030471051238216" lon="9.11789782165804"><ele>791.3333333333333</ele><time>2026-04-30T15:38:48.008Z</time></trkpt><trkpt lat="40.03040067846641" lon="9.118139748790162"><ele>792.0</ele><time>2026-04-30T15:38:49.008Z</time></trkpt><trkpt lat="40.030290665561495" lon="9.118337282556281"><ele>794.3333333333333</ele><time>2026-04-30T15:38:50.008Z</time></trkpt><trkpt lat="40.03019719862674" lon="9.118509204358574"><ele>796.6666666666666</ele><time>2026-04-30T15:38:51.008Z</time></trkpt><trkpt lat="40.03017209108777" lon="9.118705580775142"><ele>799.0</ele><time>2026-04-30T15:38:52.008Z</time></trkpt><trkpt lat="40.030202944876436" lon="9.118903101100846"><ele>799.25</ele><time>2026-04-30T15:38:53.008Z</time></trkpt><trkpt lat="40.030228497141806" lon="9.119069757559647"><ele>799.5</ele><time>2026-04-30T15:38:54.008Z</time></trkpt><trkpt lat="40.03016697343672" lon="9.119174618951705"><ele>799.75</ele><time>2026-04-30T15:38:55.008Z</time></trkpt><trkpt lat="40.030032088670644" lon="9.119212533312469"><ele>800.0</ele><time>2026-04-30T15:38:56.008Z</time></trkpt><trkpt lat="40.02986742989052" lon="9.11919041814129"><ele>800.0</ele><time>2026-04-30T15:38:57.008Z</time></trkpt><trkpt lat="40.02967445684581" lon="9.119171357015263"><ele>800.0</ele><time>2026-04-30T15:38:58.008Z</time></trkpt><trkpt lat="40.029502456461174" lon="9.119242338123614"><ele>800.0</ele><time>2026-04-30T15:38:59.008Z</time></trkpt><trkpt lat="40.029379528184485" lon="9.11941177804048"><ele>800.0</ele><time>2026-04-30T15:39:00.008Z</time></trkpt><trkpt lat="40.02929762502581" lon="9.119619555120499"><ele>800.0</ele><time>2026-04-30T15:39:01.008Z</time></trkpt><trkpt lat="40.029187570327856" lon="9.119762721860958"><ele>800.0</ele><time>2026-04-30T15:39:02.008Z</time></trkpt><trkpt lat="40.029025541609464" lon="9.119801974475376"><ele>802.6666666666667</ele><time>2026-04-30T15:39:03.008Z</time></trkpt><trkpt lat="40.02885852031403" lon="9.119807024953424"><ele>805.3333333333333</ele><time>2026-04-30T15:39:04.008Z</time></trkpt><trkpt lat="40.028695904705856" lon="9.119908507656728"><ele>808.0</ele><time>2026-04-30T15:39:05.008Z</time></trkpt><trkpt lat="40.028530195645615" lon="9.120036325723051"><ele>808.0</ele><time>2026-04-30T15:39:06.008Z</time></trkpt><trkpt lat="40.02839865078481" lon="9.12015674126443"><ele>808.0</ele><time>2026-04-30T15:39:07.008Z</time></trkpt><trkpt lat="40.02831136059822" lon="9.1202964368869"><ele>808.0</ele><time>2026-04-30T15:39:08.008Z</time></trkpt><trkpt lat="40.028295503151384" lon="9.120486905521702"><ele>808.0</ele><time>2026-04-30T15:39:09.008Z</time></trkpt><trkpt lat="40.028285464527215" lon="9.120707640979187"><ele>801.0</ele><time>2026-04-30T15:39:10.008Z</time></trkpt><trkpt lat="40.02822071295217" lon="9.120941637807396"><ele>794.0</ele><time>2026-04-30T15:39:11.008Z</time></trkpt><trkpt lat="40.02813518656711" lon="9.12116077986199"><ele>787.0</ele><time>2026-04-30T15:39:12.008Z</time></trkpt><trkpt lat="40.02807316870623" lon="9.121391680399121"><ele>790.0</ele><time>2026-04-30T15:39:13.008Z</time></trkpt><trkpt lat="40.02804012961417" lon="9.121606329330762"><ele>793.0</ele><time>2026-04-30T15:39:14.008Z</time></trkpt><trkpt lat="40.028060538171694" lon="9.121803678256708"><ele>796.0</ele><time>2026-04-30T15:39:15.008Z</time></trkpt><trkpt lat="40.028149119717696" lon="9.121968495446055"><ele>809.0</ele><time>2026-04-30T15:39:16.008Z</time></trkpt><trkpt lat="40.028331008943105" lon="9.122072072205977"><ele>822.0</ele><time>2026-04-30T15:39:17.008Z</time></trkpt><trkpt lat="40.0285317081009" lon="9.122113179370468"><ele>835.0</ele><time>2026-04-30T15:39:18.008Z</time></trkpt><trkpt lat="40.02867353463163" lon="9.12223612255621"><ele>831.6666666666666</ele><time>2026-04-30T15:39:19.009Z</time></trkpt><trkpt lat="40.02871269356775" lon="9.122416218934157"><ele>828.3333333333333</ele><time>2026-04-30T15:39:20.009Z</time></trkpt><trkpt lat="40.02865102399604" lon="9.122638781290403"><ele>825.0</ele><time>2026-04-30T15:39:21.009Z</time></trkpt><trkpt lat="40.028564857806515" lon="9.122862143751414"><ele>825.0</ele><time>2026-04-30T15:39:22.009Z</time></trkpt><trkpt lat="40.02853059784384" lon="9.123086424207642"><ele>825.0</ele><time>2026-04-30T15:39:23.009Z</time></trkpt><trkpt lat="40.02854358153813" lon="9.123310853797681"><ele>825.0</ele><time>2026-04-30T15:39:24.009Z</time></trkpt><trkpt lat="40.028599044050324" lon="9.12350114460184"><ele>823.6666666666667</ele><time>2026-04-30T15:39:25.009Z</time></trkpt><trkpt lat="40.028717812096446" lon="9.123620752033395"><ele>822.3333333333334</ele><time>2026-04-30T15:39:26.009Z</time></trkpt><trkpt lat="40.02890313994808" lon="9.123664991518162"><ele>821.0</ele><time>2026-04-30T15:39:27.009Z</time></trkpt><trkpt lat="40.02908149254647" lon="9.123676037648208"><ele>828.3333333333334</ele><time>2026-04-30T15:39:28.009Z</time></trkpt><trkpt lat="40.02924651149602" lon="9.123773355373185"><ele>835.6666666666667</ele><time>2026-04-30T15:39:29.009Z</time></trkpt><trkpt lat="40.029368775253076" lon="9.123934550787252"><ele>843.0</ele><time>2026-04-30T15:39:30.009Z</time></trkpt><trkpt lat="40.02944480261454" lon="9.124099921296391"><ele>843.0</ele><time>2026-04-30T15:39:31.009Z</time></trkpt><trkpt lat="40.0294012185262" lon="9.124241489337022"><ele>843.0</ele><time>2026-04-30T15:39:32.009Z</time></trkpt><trkpt lat="40.02930512934355" lon="9.124370376643423"><ele>843.0</ele><time>2026-04-30T15:39:33.009Z</time></trkpt><trkpt lat="40.029158955346546" lon="9.124447001285569"><ele>843.0</ele><time>2026-04-30T15:39:34.009Z</time></trkpt><trkpt lat="40.02902751239092" lon="9.12458556962071"><ele>844.5</ele><time>2026-04-30T15:39:35.009Z</time></trkpt><trkpt lat="40.02894261004727" lon="9.124740113472912"><ele>846.0</ele><time>2026-04-30T15:39:36.009Z</time></trkpt><trkpt lat="40.02893643138704" lon="9.124931352429735"><ele>847.5</ele><time>2026-04-30T15:39:37.009Z</time></trkpt><trkpt lat="40.029007860215685" lon="9.12507936838065"><ele>849.0</ele><time>2026-04-30T15:39:38.009Z</time></trkpt><trkpt lat="40.02915905345565" lon="9.12517658673041"><ele>849.0</ele><time>2026-04-30T15:39:39.009Z</time></trkpt><trkpt lat="40.02934393012795" lon="9.125265003841143"><ele>849.0</ele><time>2026-04-30T15:39:40.009Z</time></trkpt><trkpt lat="40.029522185832114" lon="9.125370886998656"><ele>849.0</ele><time>2026-04-30T15:39:41.009Z</time></trkpt><trkpt lat="40.029639031176885" lon="9.125485836237551"><ele>849.0</ele><time>2026-04-30T15:39:42.009Z</time></trkpt><trkpt lat="40.02971282017723" lon="9.125616582543238"><ele>849.0</ele><time>2026-04-30T15:39:43.009Z</time></trkpt><trkpt lat="40.029712782009035" lon="9.125760796615145"><ele>849.0</ele><time>2026-04-30T15:39:44.009Z</time></trkpt><trkpt lat="40.0296368855659" lon="9.125873561142182"><ele>849.0</ele><time>2026-04-30T15:39:45.009Z</time></trkpt><trkpt lat="40.02952945069895" lon="9.1259276129444"><ele>847.3333333333333</ele><time>2026-04-30T15:39:46.009Z</time></trkpt><trkpt lat="40.029405066561154" lon="9.12601878486628"><ele>845.6666666666666</ele><time>2026-04-30T15:39:47.009Z</time></trkpt><trkpt lat="40.029296176276716" lon="9.126181910829663"><ele>844.0</ele><time>2026-04-30T15:39:48.009Z</time></trkpt><trkpt lat="40.02921347429218" lon="9.12637204871618"><ele>838.0</ele><time>2026-04-30T15:39:49.009Z</time></trkpt><trkpt lat="40.02908338129481" lon="9.1265445249593"><ele>832.0</ele><time>2026-04-30T15:39:50.009Z</time></trkpt><trkpt lat="40.02895845756086" lon="9.126667288766262"><ele>826.0</ele><time>2026-04-30T15:39:51.009Z</time></trkpt><trkpt lat="40.02887301436202" lon="9.126801724828738"><ele>826.0</ele><time>2026-04-30T15:39:52.009Z</time></trkpt><trkpt lat="40.02885776153373" lon="9.126967675628654"><ele>826.0</ele><time>2026-04-30T15:39:53.009Z</time></trkpt><trkpt lat="40.02892425847293" lon="9.127125702787005"><ele>826.0</ele><time>2026-04-30T15:39:54.009Z</time></trkpt><trkpt lat="40.02905191994192" lon="9.127259897977385"><ele>826.0</ele><time>2026-04-30T15:39:55.009Z</time></trkpt><trkpt lat="40.02920907583802" lon="9.127396791515732"><ele>838.6666666666666</ele><time>2026-04-30T15:39:56.009Z</time></trkpt><trkpt lat="40.02933131268976" lon="9.127535143541472"><ele>851.3333333333333</ele><time>2026-04-30T15:39:57.009Z</time></trkpt><trkpt lat="40.02939597004235" lon="9.127706092533725"><ele>864.0</ele><time>2026-04-30T15:39:58.009Z</time></trkpt><trkpt lat="40.02940159266292" lon="9.127900751797156"><ele>864.0</ele><time>2026-04-30T15:39:59.009Z</time></trkpt><trkpt lat="40.02937322380976" lon="9.128110485659597"><ele>864.0</ele><time>2026-04-30T15:40:00.009Z</time></trkpt><trkpt lat="40.0293183099371" lon="9.128314326640018"><ele>864.0</ele><time>2026-04-30T15:40:01.009Z</time></trkpt><trkpt lat="40.02929750322913" lon="9.128519808407168"><ele>863.6666666666667</ele><time>2026-04-30T15:40:02.009Z</time></trkpt><trkpt lat="40.02929970540653" lon="9.128722061471455"><ele>863.3333333333334</ele><time>2026-04-30T15:40:03.009Z</time></trkpt><trkpt lat="40.02934585642982" lon="9.128907626786933"><ele>863.0</ele><time>2026-04-30T15:40:04.009Z</time></trkpt><trkpt lat="40.02945549761956" lon="9.129054824162994"><ele>863.0</ele><time>2026-04-30T15:40:05.009Z</time></trkpt><trkpt lat="40.02955727655815" lon="9.1291863564193"><ele>863.0</ele><time>2026-04-30T15:40:06.009Z</time></trkpt><trkpt lat="40.02957449439951" lon="9.129350651525714"><ele>863.0</ele><time>2026-04-30T15:40:07.009Z</time></trkpt><trkpt lat="40.02951059964855" lon="9.129541167445163"><ele>863.0</ele><time>2026-04-30T15:40:08.009Z</time></trkpt><trkpt lat="40.029472277230454" lon="9.129770013218407"><ele>863.6666666666667</ele><time>2026-04-30T15:40:09.009Z</time></trkpt><trkpt lat="40.029467620432406" lon="9.130014944011247"><ele>864.3333333333333</ele><time>2026-04-30T15:40:10.009Z</time></trkpt><trkpt lat="40.02945360447317" lon="9.130243114752412"><ele>865.0</ele><time>2026-04-30T15:40:11.009Z</time></trkpt><trkpt lat="40.02947663047962" lon="9.130471793798721"><ele>865.0</ele><time>2026-04-30T15:40:12.009Z</time></trkpt><trkpt lat="40.02956070423463" lon="9.130684418620659"><ele>865.0</ele><time>2026-04-30T15:40:13.009Z</time></trkpt><trkpt lat="40.02969891686338" lon="9.130880244561336"><ele>865.0</ele><time>2026-04-30T15:40:14.009Z</time></trkpt><trkpt lat="40.02985071259191" lon="9.131067745884025"><ele>872.0</ele><time>2026-04-30T15:40:15.009Z</time></trkpt><trkpt lat="40.029993699517966" lon="9.131255828155291"><ele>879.0</ele><time>2026-04-30T15:40:16.009Z</time></trkpt><trkpt lat="40.03011983206578" lon="9.131456387238016"><ele>886.0</ele><time>2026-04-30T15:40:17.009Z</time></trkpt><trkpt lat="40.030205697319225" lon="9.131672901820481"><ele>886.0</ele><time>2026-04-30T15:40:18.009Z</time></trkpt><trkpt lat="40.03024599078308" lon="9.131907921600272"><ele>886.0</ele><time>2026-04-30T15:40:19.009Z</time></trkpt><trkpt lat="40.03029838509121" lon="9.132162393206745"><ele>886.0</ele><time>2026-04-30T15:40:20.009Z</time></trkpt><trkpt lat="40.03033660883288" lon="9.13240880826127"><ele>885.3333333333333</ele><time>2026-04-30T15:40:21.009Z</time></trkpt><trkpt lat="40.03037653534916" lon="9.132666597014975"><ele>884.6666666666667</ele><time>2026-04-30T15:40:22.009Z</time></trkpt><trkpt lat="40.030410590740324" lon="9.13292655420343"><ele>884.0</ele><time>2026-04-30T15:40:23.009Z</time></trkpt><trkpt lat="40.03044633406844" lon="9.133179177826381"><ele>887.3333333333334</ele><time>2026-04-30T15:40:24.009Z</time></trkpt><trkpt lat="40.03048274931117" lon="9.133428628417972"><ele>890.6666666666667</ele><time>2026-04-30T15:40:25.009Z</time></trkpt><trkpt lat="40.03054690927219" lon="9.133680263212462"><ele>894.0</ele><time>2026-04-30T15:40:26.009Z</time></trkpt><trkpt lat="40.03063583509989" lon="9.13393093363315"><ele>897.6666666666667</ele><time>2026-04-30T15:40:27.009Z</time></trkpt><trkpt lat="40.030702222841136" lon="9.134193464770698"><ele>901.3333333333334</ele><time>2026-04-30T15:40:28.009Z</time></trkpt><trkpt lat="40.03073345481319" lon="9.134477633362115"><ele>905.0</ele><time>2026-04-30T15:40:29.009Z</time></trkpt><trkpt lat="40.030741709888204" lon="9.134769882999365"><ele>906.6666666666667</ele><time>2026-04-30T15:40:30.009Z</time></trkpt><trkpt lat="40.03074891883311" lon="9.135064529881019"><ele>908.3333333333333</ele><time>2026-04-30T15:40:31.009Z</time></trkpt><trkpt lat="40.03076176045685" lon="9.135355698312825"><ele>910.0</ele><time>2026-04-30T15:40:32.009Z</time></trkpt><trkpt lat="40.03078544484284" lon="9.13564464218058"><ele>909.3333333333333</ele><time>2026-04-30T15:40:33.009Z</time></trkpt><trkpt lat="40.03082630475935" lon="9.135925715583276"><ele>908.6666666666667</ele><time>2026-04-30T15:40:34.009Z</time></trkpt><trkpt lat="40.0308771527837" lon="9.136207151418096"><ele>908.0</ele><time>2026-04-30T15:40:35.009Z</time></trkpt><trkpt lat="40.030930271449115" lon="9.136490129204939"><ele>913.5</ele><time>2026-04-30T15:40:36.009Z</time></trkpt><trkpt lat="40.0309814960231" lon="9.136774195573233"><ele>919.0</ele><time>2026-04-30T15:40:37.009Z</time></trkpt><trkpt lat="40.03104081004377" lon="9.137060387736655"><ele>919.0</ele><time>2026-04-30T15:40:38.009Z</time></trkpt><trkpt lat="40.03110470994499" lon="9.137348662570853"><ele>919.0</ele><time>2026-04-30T15:40:39.009Z</time></trkpt><trkpt lat="40.0311858761401" lon="9.13763139260803"><ele>924.5</ele><time>2026-04-30T15:40:40.009Z</time></trkpt><trkpt lat="40.03128173069373" lon="9.137909762425073"><ele>930.0</ele><time>2026-04-30T15:40:41.009Z</time></trkpt><trkpt lat="40.03136786114627" lon="9.138186639464196"><ele>932.0</ele><time>2026-04-30T15:40:42.009Z</time></trkpt><trkpt lat="40.031448046595415" lon="9.138458756748749"><ele>934.0</ele><time>2026-04-30T15:40:43.009Z</time></trkpt><trkpt lat="40.03149695950336" lon="9.138740726780213"><ele>936.0</ele><time>2026-04-30T15:40:44.009Z</time></trkpt><trkpt lat="40.03149951493699" lon="9.13901835542358"><ele>936.3333333333333</ele><time>2026-04-30T15:40:45.009Z</time></trkpt><trkpt lat="40.03147600934649" lon="9.139282680168533"><ele>936.6666666666666</ele><time>2026-04-30T15:40:46.009Z</time></trkpt><trkpt lat="40.03143026076613" lon="9.139522614796862"><ele>937.0</ele><time>2026-04-30T15:40:47.009Z</time></trkpt><trkpt lat="40.031408043962635" lon="9.139739540247664"><ele>935.25</ele><time>2026-04-30T15:40:48.009Z</time></trkpt><trkpt lat="40.03145182472807" lon="9.139913933745214"><ele>933.5</ele><time>2026-04-30T15:40:49.009Z</time></trkpt><trkpt lat="40.03154867571967" lon="9.140025682275713"><ele>931.75</ele><time>2026-04-30T15:40:50.009Z</time></trkpt><trkpt lat="40.03168177618714" lon="9.140065379350565"><ele>930.0</ele><time>2026-04-30T15:40:51.009Z</time></trkpt><trkpt lat="40.03184692758029" lon="9.14012683848145"><ele>925.0</ele><time>2026-04-30T15:40:52.009Z</time></trkpt><trkpt lat="40.031970638650506" lon="9.140276559876106"><ele>920.0</ele><time>2026-04-30T15:40:53.009Z</time></trkpt><trkpt lat="40.03207582642588" lon="9.140456934885918"><ele>915.0</ele><time>2026-04-30T15:40:54.009Z</time></trkpt><trkpt lat="40.032116654269075" lon="9.140655122426175"><ele>920.6666666666667</ele><time>2026-04-30T15:40:55.009Z</time></trkpt><trkpt lat="40.032117433229544" lon="9.140863315981758"><ele>926.3333333333334</ele><time>2026-04-30T15:40:56.009Z</time></trkpt><trkpt lat="40.03212578050602" lon="9.14109502125212"><ele>932.0</ele><time>2026-04-30T15:40:57.009Z</time></trkpt><trkpt lat="40.032165266782094" lon="9.14129023355419"><ele>932.0</ele><time>2026-04-30T15:40:58.009Z</time></trkpt><trkpt lat="40.032254583193854" lon="9.141426369230526"><ele>932.0</ele><time>2026-04-30T15:40:59.009Z</time></trkpt><trkpt lat="40.032366046074834" lon="9.141466083198448"><ele>932.0</ele><time>2026-04-30T15:41:00.009Z</time></trkpt><trkpt lat="40.03247847173709" lon="9.141388731999076"><ele>932.0</ele><time>2026-04-30T15:41:01.009Z</time></trkpt><trkpt lat="40.03258092976085" lon="9.141217813812261"><ele>927.0</ele><time>2026-04-30T15:41:02.009Z</time></trkpt><trkpt lat="40.03268504088835" lon="9.141097587198923"><ele>922.0</ele><time>2026-04-30T15:41:03.008Z</time></trkpt><trkpt lat="40.032797784663714" lon="9.1410990502401"><ele>917.0</ele><time>2026-04-30T15:41:04.008Z</time></trkpt><trkpt lat="40.03290101819188" lon="9.141197443997552"><ele>912.0</ele><time>2026-04-30T15:41:05.008Z</time></trkpt><trkpt lat="40.032997241853984" lon="9.141387996116565"><ele>913.6666666666667</ele><time>2026-04-30T15:41:06.008Z</time></trkpt><trkpt lat="40.033093434788505" lon="9.141620656135386"><ele>915.3333333333334</ele><time>2026-04-30T15:41:07.008Z</time></trkpt><trkpt lat="40.033202221382616" lon="9.141846822723117"><ele>917.0</ele><time>2026-04-30T15:41:08.008Z</time></trkpt><trkpt lat="40.03333196092158" lon="9.142044717999106"><ele>917.0</ele><time>2026-04-30T15:41:09.008Z</time></trkpt><trkpt lat="40.03348387241267" lon="9.142202585122247"><ele>917.0</ele><time>2026-04-30T15:41:10.008Z</time></trkpt><trkpt lat="40.03361110453588" lon="9.142324524611235"><ele>917.0</ele><time>2026-04-30T15:41:11.008Z</time></trkpt><trkpt lat="40.03369655458643" lon="9.142465955939462"><ele>918.75</ele><time>2026-04-30T15:41:12.008Z</time></trkpt><trkpt lat="40.03373071409116" lon="9.142647528952216"><ele>920.5</ele><time>2026-04-30T15:41:13.008Z</time></trkpt><trkpt lat="40.03368568305456" lon="9.142816101241587"><ele>922.25</ele><time>2026-04-30T15:41:14.008Z</time></trkpt><trkpt lat="40.03358254665303" lon="9.14298221285752"><ele>924.0</ele><time>2026-04-30T15:41:15.008Z</time></trkpt><trkpt lat="40.03350476651674" lon="9.143154882823033"><ele>925.75</ele><time>2026-04-30T15:41:16.008Z</time></trkpt><trkpt lat="40.033435710742545" lon="9.143281252160893"><ele>927.5</ele><time>2026-04-30T15:41:17.008Z</time></trkpt><trkpt lat="40.033317806959964" lon="9.143322591903006"><ele>929.25</ele><time>2026-04-30T15:41:18.008Z</time></trkpt><trkpt lat="40.03317981256122" lon="9.143258457890767"><ele>931.0</ele><time>2026-04-30T15:41:19.008Z</time></trkpt><trkpt lat="40.03305378916455" lon="9.143199519857552"><ele>931.0</ele><time>2026-04-30T15:41:20.008Z</time></trkpt><trkpt lat="40.032901457864114" lon="9.143232219777591"><ele>931.0</ele><time>2026-04-30T15:41:21.008Z</time></trkpt><trkpt lat="40.03278831541278" lon="9.143370098490593"><ele>931.0</ele><time>2026-04-30T15:41:22.008Z</time></trkpt><trkpt lat="40.032729373105745" lon="9.143601878292412"><ele>931.0</ele><time>2026-04-30T15:41:23.008Z</time></trkpt><trkpt lat="40.03270019129027" lon="9.143845771867221"><ele>931.0</ele><time>2026-04-30T15:41:24.008Z</time></trkpt><trkpt lat="40.032708214210395" lon="9.14408791516976"><ele>931.0</ele><time>2026-04-30T15:41:25.009Z</time></trkpt><trkpt lat="40.032721082640094" lon="9.144265659921864"><ele>934.0</ele><time>2026-04-30T15:41:26.009Z</time></trkpt><trkpt lat="40.0326587021123" lon="9.14438467380183"><ele>937.0</ele><time>2026-04-30T15:41:27.009Z</time></trkpt><trkpt lat="40.03255551885774" lon="9.144454911330207"><ele>940.0</ele><time>2026-04-30T15:41:28.009Z</time></trkpt><trkpt lat="40.032461768554434" lon="9.144543755655906"><ele>943.0</ele><time>2026-04-30T15:41:29.01Z</time></trkpt><trkpt lat="40.03243570890441" lon="9.144711107403259"><ele>940.0</ele><time>2026-04-30T15:41:30.01Z</time></trkpt><trkpt lat="40.032459591298675" lon="9.144901821575202"><ele>937.0</ele><time>2026-04-30T15:41:31.009Z</time></trkpt><trkpt lat="40.03248916982801" lon="9.145100441889074"><ele>934.0</ele><time>2026-04-30T15:41:32.009Z</time></trkpt><trkpt lat="40.03247436040416" lon="9.145299190931908"><ele>934.0</ele><time>2026-04-30T15:41:33.009Z</time></trkpt><trkpt lat="40.03242286602171" lon="9.145476499820948"><ele>934.0</ele><time>2026-04-30T15:41:34.01Z</time></trkpt><trkpt lat="40.03232473000867" lon="9.145628652795788"><ele>934.0</ele><time>2026-04-30T15:41:35.009Z</time></trkpt><trkpt lat="40.03218577723579" lon="9.14576795767562"><ele>930.75</ele><time>2026-04-30T15:41:36.009Z</time></trkpt><trkpt lat="40.03204444794751" lon="9.145898034617787"><ele>927.5</ele><time>2026-04-30T15:41:37.009Z</time></trkpt><trkpt lat="40.03192861851386" lon="9.14601657702803"><ele>924.25</ele><time>2026-04-30T15:41:38.009Z</time></trkpt><trkpt lat="40.03184320935494" lon="9.146115100677639"><ele>921.0</ele><time>2026-04-30T15:41:39.009Z</time></trkpt><trkpt lat="40.03180236500555" lon="9.146228548617264"><ele>921.0</ele><time>2026-04-30T15:41:40.009Z</time></trkpt><trkpt lat="40.03183438411176" lon="9.146349448574545"><ele>921.0</ele><time>2026-04-30T15:41:41.009Z</time></trkpt><trkpt lat="40.03192069571879" lon="9.146436674075403"><ele>921.0</ele><time>2026-04-30T15:41:42.009Z</time></trkpt><trkpt lat="40.03204886515719" lon="9.146480660073605"><ele>921.0</ele><time>2026-04-30T15:41:43.009Z</time></trkpt><trkpt lat="40.03220657006527" lon="9.14650931602085"><ele>921.6666666666667</ele><time>2026-04-30T15:41:44.009Z</time></trkpt><trkpt lat="40.03237002815205" lon="9.146550416716604"><ele>922.3333333333334</ele><time>2026-04-30T15:41:45.009Z</time></trkpt><trkpt lat="40.032516211809295" lon="9.146600553461099"><ele>923.0</ele><time>2026-04-30T15:41:46.009Z</time></trkpt><trkpt lat="40.03266628229692" lon="9.146649284754863"><ele>917.0</ele><time>2026-04-30T15:41:47.009Z</time></trkpt><trkpt lat="40.03282999196149" lon="9.146631962783957"><ele>911.0</ele><time>2026-04-30T15:41:48.009Z</time></trkpt><trkpt lat="40.0330036536313" lon="9.146558566311334"><ele>905.0</ele><time>2026-04-30T15:41:49.009Z</time></trkpt><trkpt lat="40.03316761754401" lon="9.146509453453765"><ele>903.0</ele><time>2026-04-30T15:41:50.009Z</time></trkpt><trkpt lat="40.03330440538342" lon="9.146459345336265"><ele>901.0</ele><time>2026-04-30T15:41:51.009Z</time></trkpt><trkpt lat="40.033422022106656" lon="9.146462007098108"><ele>899.0</ele><time>2026-04-30T15:41:52.009Z</time></trkpt><trkpt lat="40.033521513258066" lon="9.146561962693317"><ele>897.0</ele><time>2026-04-30T15:41:53.009Z</time></trkpt><trkpt lat="40.033553792194446" lon="9.146714882386512"><ele>893.0</ele><time>2026-04-30T15:41:54.009Z</time></trkpt><trkpt lat="40.033504829909475" lon="9.146891516259107"><ele>889.0</ele><time>2026-04-30T15:41:55.009Z</time></trkpt><trkpt lat="40.03342526620447" lon="9.147081084253667"><ele>885.0</ele><time>2026-04-30T15:41:56.008Z</time></trkpt><trkpt lat="40.03337719317431" lon="9.147285686290697"><ele>887.3333333333333</ele><time>2026-04-30T15:41:57.008Z</time></trkpt><trkpt lat="40.03339657078027" lon="9.147507425270705"><ele>889.6666666666666</ele><time>2026-04-30T15:41:58.008Z</time></trkpt><trkpt lat="40.033452397876836" lon="9.147732908000911"><ele>892.0</ele><time>2026-04-30T15:41:59.008Z</time></trkpt><trkpt lat="40.033476554283624" lon="9.147946973082307"><ele>892.0</ele><time>2026-04-30T15:42:00.008Z</time></trkpt><trkpt lat="40.033454897488355" lon="9.148172522782469"><ele>892.0</ele><time>2026-04-30T15:42:01.008Z</time></trkpt><trkpt lat="40.03343565915678" lon="9.14835066640342"><ele>892.0</ele><time>2026-04-30T15:42:02.008Z</time></trkpt><trkpt lat="40.033444525983704" lon="9.14847352375966"><ele>892.0</ele><time>2026-04-30T15:42:03.008Z</time></trkpt><trkpt lat="40.03350896050181" lon="9.148557866384014"><ele>892.5</ele><time>2026-04-30T15:42:04.008Z</time></trkpt><trkpt lat="40.033627446480615" lon="9.148592231847438"><ele>893.0</ele><time>2026-04-30T15:42:05.008Z</time></trkpt><trkpt lat="40.033770385137736" lon="9.148562355523374"><ele>893.5</ele><time>2026-04-30T15:42:06.008Z</time></trkpt><trkpt lat="40.033908682628606" lon="9.148479915076901"><ele>894.0</ele><time>2026-04-30T15:42:07.008Z</time></trkpt><trkpt lat="40.034045891306036" lon="9.148401658429826"><ele>890.25</ele><time>2026-04-30T15:42:08.008Z</time></trkpt><trkpt lat="40.03418459528749" lon="9.148312585079337"><ele>886.5</ele><time>2026-04-30T15:42:09.008Z</time></trkpt><trkpt lat="40.034305732625235" lon="9.14825019208778"><ele>882.75</ele><time>2026-04-30T15:42:10.008Z</time></trkpt><trkpt lat="40.03442508442948" lon="9.148197722753363"><ele>879.0</ele><time>2026-04-30T15:42:11.008Z</time></trkpt><trkpt lat="40.0345411029825" lon="9.148199273741925"><ele>879.0</ele><time>2026-04-30T15:42:12.008Z</time></trkpt><trkpt lat="40.03465024806326" lon="9.14829949875585"><ele>879.0</ele><time>2026-04-30T15:42:13.008Z</time></trkpt><trkpt lat="40.03470710248542" lon="9.148492136416706"><ele>879.0</ele><time>2026-04-30T15:42:14.008Z</time></trkpt><trkpt lat="40.034736845920804" lon="9.148712194670887"><ele>879.0</ele><time>2026-04-30T15:42:15.008Z</time></trkpt><trkpt lat="40.03477861392743" lon="9.14897626537267"><ele>879.0</ele><time>2026-04-30T15:42:16.008Z</time></trkpt><trkpt lat="40.034822211033784" lon="9.149220398887696"><ele>879.0</ele><time>2026-04-30T15:42:17.008Z</time></trkpt><trkpt lat="40.034862165078735" lon="9.149426581077709"><ele>881.0</ele><time>2026-04-30T15:42:18.008Z</time></trkpt><trkpt lat="40.03494414748117" lon="9.149645944519177"><ele>883.0</ele><time>2026-04-30T15:42:19.008Z</time></trkpt><trkpt lat="40.035064009734754" lon="9.149850328366076"><ele>885.0</ele><time>2026-04-30T15:42:20.008Z</time></trkpt><trkpt lat="40.03523834677684" lon="9.15003360730472"><ele>885.0</ele><time>2026-04-30T15:42:21.008Z</time></trkpt><trkpt lat="40.035442786960374" lon="9.150187110234597"><ele>885.0</ele><time>2026-04-30T15:42:22.008Z</time></trkpt><trkpt lat="40.03562403251003" lon="9.150327452850618"><ele>885.0</ele><time>2026-04-30T15:42:23.008Z</time></trkpt><trkpt lat="40.035777582430825" lon="9.15047663895998"><ele>880.3333333333333</ele><time>2026-04-30T15:42:24.008Z</time></trkpt><trkpt lat="40.03590035950806" lon="9.150644563300855"><ele>875.6666666666666</ele><time>2026-04-30T15:42:25.008Z</time></trkpt><trkpt lat="40.035960579879216" lon="9.150857094162214"><ele>871.0</ele><time>2026-04-30T15:42:26.008Z</time></trkpt><trkpt lat="40.03596544376557" lon="9.151098840689892"><ele>871.0</ele><time>2026-04-30T15:42:27.008Z</time></trkpt><trkpt lat="40.03593744776901" lon="9.151356940081357"><ele>871.0</ele><time>2026-04-30T15:42:28.008Z</time></trkpt><trkpt lat="40.03590605736626" lon="9.151626769290397"><ele>871.0</ele><time>2026-04-30T15:42:29.008Z</time></trkpt><trkpt lat="40.03588807493499" lon="9.151862944803426"><ele>871.6666666666666</ele><time>2026-04-30T15:42:30.008Z</time></trkpt><trkpt lat="40.03588445216191" lon="9.152078926424172"><ele>872.3333333333333</ele><time>2026-04-30T15:42:31.008Z</time></trkpt><trkpt lat="40.03595406344987" lon="9.152260007962209"><ele>873.0</ele><time>2026-04-30T15:42:32.008Z</time></trkpt><trkpt lat="40.036090069903246" lon="9.152412112003327"><ele>875.3333333333333</ele><time>2026-04-30T15:42:33.008Z</time></trkpt><trkpt lat="40.03625982763312" lon="9.152532142718531"><ele>877.6666666666666</ele><time>2026-04-30T15:42:34.008Z</time></trkpt><trkpt lat="40.03646006424725" lon="9.152662363868714"><ele>880.0</ele><time>2026-04-30T15:42:35.008Z</time></trkpt><trkpt lat="40.03660918583564" lon="9.15285486416347"><ele>874.6666666666666</ele><time>2026-04-30T15:42:36.008Z</time></trkpt><trkpt lat="40.03671366240506" lon="9.153086301960473"><ele>869.3333333333333</ele><time>2026-04-30T15:42:37.008Z</time></trkpt><trkpt lat="40.036796839060244" lon="9.153346749273537"><ele>864.0</ele><time>2026-04-30T15:42:38.008Z</time></trkpt><trkpt lat="40.036885246474505" lon="9.15359589412183"><ele>864.0</ele><time>2026-04-30T15:42:39.008Z</time></trkpt><trkpt lat="40.0369753726793" lon="9.153820894699686"><ele>864.0</ele><time>2026-04-30T15:42:40.008Z</time></trkpt><trkpt lat="40.037046328821575" lon="9.154041602172436"><ele>864.0</ele><time>2026-04-30T15:42:41.008Z</time></trkpt><trkpt lat="40.03708583426327" lon="9.154250371768155"><ele>865.75</ele><time>2026-04-30T15:42:42.008Z</time></trkpt><trkpt lat="40.03708969896354" lon="9.154452752894015"><ele>867.5</ele><time>2026-04-30T15:42:43.008Z</time></trkpt><trkpt lat="40.037051405362284" lon="9.154622929135495"><ele>869.25</ele><time>2026-04-30T15:42:44.008Z</time></trkpt><trkpt lat="40.03700684625941" lon="9.154750473880972"><ele>871.0</ele><time>2026-04-30T15:42:45.008Z</time></trkpt><trkpt lat="40.03696073076278" lon="9.154851951530382"><ele>870.4999999999999</ele><time>2026-04-30T15:42:46.008Z</time></trkpt><trkpt lat="40.03693062402987" lon="9.154950212074857"><ele>870.0</ele><time>2026-04-30T15:42:47.008Z</time></trkpt><trkpt lat="40.036908265641664" lon="9.155045056411424"><ele>869.5</ele><time>2026-04-30T15:42:48.008Z</time></trkpt><trkpt lat="40.036909419151925" lon="9.15514517889572"><ele>869.0</ele><time>2026-04-30T15:42:49.008Z</time></trkpt><trkpt lat="40.0369471778332" lon="9.155256725679724"><ele>868.4999999999999</ele><time>2026-04-30T15:42:50.008Z</time></trkpt><trkpt lat="40.03702768682314" lon="9.155336597679842"><ele>868.0</ele><time>2026-04-30T15:42:51.008Z</time></trkpt><trkpt lat="40.03711748605969" lon="9.155367860869433"><ele>868.0</ele><time>2026-04-30T15:42:52.008Z</time></trkpt><trkpt lat="40.037210778566966" lon="9.155393139860506"><ele>868.0</ele><time>2026-04-30T15:42:53.008Z</time></trkpt><trkpt lat="40.0372897965289" lon="9.155442748823244"><ele>868.0</ele><time>2026-04-30T15:42:54.008Z</time></trkpt><trkpt lat="40.03736316432054" lon="9.155530849833161"><ele>868.0</ele><time>2026-04-30T15:42:55.008Z</time></trkpt><trkpt lat="40.037425387685964" lon="9.155643361982937"><ele>868.0</ele><time>2026-04-30T15:42:56.008Z</time></trkpt><trkpt lat="40.03748568121398" lon="9.155773262073874"><ele>861.0</ele><time>2026-04-30T15:42:57.008Z</time></trkpt><trkpt lat="40.03753989797355" lon="9.155915590232308"><ele>854.0</ele><time>2026-04-30T15:42:58.008Z</time></trkpt><trkpt lat="40.03759248122949" lon="9.156049479124967"><ele>847.0</ele><time>2026-04-30T15:42:59.008Z</time></trkpt><trkpt lat="40.03763898376256" lon="9.156180870017169"><ele>840.0</ele><time>2026-04-30T15:43:00.008Z</time></trkpt><trkpt lat="40.037637702308594" lon="9.156318630101579"><ele>840.0</ele><time>2026-04-30T15:43:01.008Z</time></trkpt><trkpt lat="40.03760834692493" lon="9.156453929700724"><ele>840.0</ele><time>2026-04-30T15:43:02.008Z</time></trkpt><trkpt lat="40.037560204544505" lon="9.156587517157918"><ele>840.0</ele><time>2026-04-30T15:43:03.008Z</time></trkpt><trkpt lat="40.03748654640076" lon="9.156710299269982"><ele>840.0</ele><time>2026-04-30T15:43:04.008Z</time></trkpt><trkpt lat="40.037383810398524" lon="9.15683391276567"><ele>847.0</ele><time>2026-04-30T15:43:05.008Z</time></trkpt><trkpt lat="40.037276111837116" lon="9.156982364902758"><ele>854.0</ele><time>2026-04-30T15:43:06.008Z</time></trkpt><trkpt lat="40.03715601939582" lon="9.157138432497787"><ele>861.0</ele><time>2026-04-30T15:43:07.008Z</time></trkpt><trkpt lat="40.037021769674354" lon="9.157316625425299"><ele>856.0</ele><time>2026-04-30T15:43:08.008Z</time></trkpt><trkpt lat="40.036898628334455" lon="9.157522022328955"><ele>851.0</ele><time>2026-04-30T15:43:09.008Z</time></trkpt><trkpt lat="40.036777186818185" lon="9.157721044538926"><ele>846.0</ele><time>2026-04-30T15:43:10.008Z</time></trkpt><trkpt lat="40.036658482676586" lon="9.157903627624272"><ele>850.3333333333333</ele><time>2026-04-30T15:43:11.008Z</time></trkpt><trkpt lat="40.036541002292495" lon="9.158073608035446"><ele>854.6666666666666</ele><time>2026-04-30T15:43:12.008Z</time></trkpt><trkpt lat="40.03640087022812" lon="9.158176041420328"><ele>859.0</ele><time>2026-04-30T15:43:13.008Z</time></trkpt><trkpt lat="40.0362270055119" lon="9.158201283189687"><ele>860.0</ele><time>2026-04-30T15:43:14.008Z</time></trkpt><trkpt lat="40.03603038230238" lon="9.158215694145381"><ele>861.0</ele><time>2026-04-30T15:43:15.008Z</time></trkpt><trkpt lat="40.03584127378495" lon="9.158206197330193"><ele>862.0</ele><time>2026-04-30T15:43:16.008Z</time></trkpt><trkpt lat="40.035674603809376" lon="9.158170945156417"><ele>862.0</ele><time>2026-04-30T15:43:17.008Z</time></trkpt><trkpt lat="40.03552517893618" lon="9.158138291467719"><ele>862.0</ele><time>2026-04-30T15:43:18.008Z</time></trkpt><trkpt lat="40.03539101568759" lon="9.158212303036123"><ele>862.0</ele><time>2026-04-30T15:43:19.008Z</time></trkpt><trkpt lat="40.035301968071714" lon="9.158398720426261"><ele>854.6666666666666</ele><time>2026-04-30T15:43:20.008Z</time></trkpt><trkpt lat="40.035244566307675" lon="9.158629543520824"><ele>847.3333333333333</ele><time>2026-04-30T15:43:21.008Z</time></trkpt><trkpt lat="40.035150114233495" lon="9.158851203169732"><ele>840.0</ele><time>2026-04-30T15:43:22.008Z</time></trkpt><trkpt lat="40.0350125896776" lon="9.15905316631679"><ele>844.0</ele><time>2026-04-30T15:43:23.008Z</time></trkpt><trkpt lat="40.034896311298446" lon="9.159250628510456"><ele>848.0</ele><time>2026-04-30T15:43:24.008Z</time></trkpt><trkpt lat="40.03483253132923" lon="9.159496448277189"><ele>852.0</ele><time>2026-04-30T15:43:25.008Z</time></trkpt><trkpt lat="40.034762200630915" lon="9.15973375464394"><ele>845.0</ele><time>2026-04-30T15:43:26.008Z</time></trkpt><trkpt lat="40.03466938992351" lon="9.159964623802475"><ele>838.0</ele><time>2026-04-30T15:43:27.008Z</time></trkpt><trkpt lat="40.03455842800743" lon="9.160169718007623"><ele>831.0</ele><time>2026-04-30T15:43:28.008Z</time></trkpt><trkpt lat="40.03443099732109" lon="9.160326700783346"><ele>831.0</ele><time>2026-04-30T15:43:29.008Z</time></trkpt><trkpt lat="40.034273529914856" lon="9.160441633622"><ele>831.0</ele><time>2026-04-30T15:43:30.01Z</time></trkpt><trkpt lat="40.0340860923499" lon="9.16053382359669"><ele>831.0</ele><time>2026-04-30T15:43:31.009Z</time></trkpt><trkpt lat="40.033881648894365" lon="9.160621787593428"><ele>834.0</ele><time>2026-04-30T15:43:32.009Z</time></trkpt><trkpt lat="40.03366878486041" lon="9.160709438504998"><ele>837.0</ele><time>2026-04-30T15:43:33.01Z</time></trkpt><trkpt lat="40.033467413007806" lon="9.160813794357866"><ele>840.0</ele><time>2026-04-30T15:43:34.01Z</time></trkpt><trkpt lat="40.03327963695786" lon="9.160921574681193"><ele>840.0</ele><time>2026-04-30T15:43:35.01Z</time></trkpt><trkpt lat="40.033109825741846" lon="9.161051155313732"><ele>840.0</ele><time>2026-04-30T15:43:36.01Z</time></trkpt><trkpt lat="40.03297642152674" lon="9.161190483530344"><ele>840.0</ele><time>2026-04-30T15:43:37.01Z</time></trkpt><trkpt lat="40.032872112601915" lon="9.161349349927757"><ele>840.0</ele><time>2026-04-30T15:43:38.01Z</time></trkpt><trkpt lat="40.03277885130138" lon="9.161500276165546"><ele>840.0</ele><time>2026-04-30T15:43:39.01Z</time></trkpt><trkpt lat="40.03268790178569" lon="9.16164941607542"><ele>840.0</ele><time>2026-04-30T15:43:40.01Z</time></trkpt><trkpt lat="40.03259708852865" lon="9.161781548455616"><ele>840.0</ele><time>2026-04-30T15:43:41.01Z</time></trkpt><trkpt lat="40.03251013985232" lon="9.161901067722896"><ele>837.2</ele><time>2026-04-30T15:43:42.01Z</time></trkpt><trkpt lat="40.03243798102895" lon="9.162024054315411"><ele>834.4</ele><time>2026-04-30T15:43:43.01Z</time></trkpt><trkpt lat="40.03241328830607" lon="9.1621464183355"><ele>831.5999999999999</ele><time>2026-04-30T15:43:44.01Z</time></trkpt><trkpt lat="40.032441233641286" lon="9.162268286399463"><ele>828.8</ele><time>2026-04-30T15:43:45.01Z</time></trkpt><trkpt lat="40.032496968245376" lon="9.16237012038675"><ele>826.0</ele><time>2026-04-30T15:43:46.01Z</time></trkpt><trkpt lat="40.0325562697667" lon="9.162465707130323"><ele>820.5999999999999</ele><time>2026-04-30T15:43:47.01Z</time></trkpt><trkpt lat="40.03262618676829" lon="9.162566639124313"><ele>815.2</ele><time>2026-04-30T15:43:48.01Z</time></trkpt><trkpt lat="40.032716497787106" lon="9.162636340533753"><ele>809.8</ele><time>2026-04-30T15:43:49.01Z</time></trkpt><trkpt lat="40.032826753728905" lon="9.162649170228235"><ele>804.4000000000001</ele><time>2026-04-30T15:43:50.01Z</time></trkpt><trkpt lat="40.03293838399556" lon="9.162600622809807"><ele>799.0</ele><time>2026-04-30T15:43:51.01Z</time></trkpt><trkpt lat="40.03303933097121" lon="9.16249957248676"><ele>799.25</ele><time>2026-04-30T15:43:52.01Z</time></trkpt><trkpt lat="40.033131552032316" lon="9.16236406141918"><ele>799.5</ele><time>2026-04-30T15:43:53.01Z</time></trkpt><trkpt lat="40.033198759765206" lon="9.16219172212588"><ele>799.75</ele><time>2026-04-30T15:43:54.01Z</time></trkpt><trkpt lat="40.03328637100274" lon="9.162036510625487"><ele>800.0</ele><time>2026-04-30T15:43:55.01Z</time></trkpt><trkpt lat="40.033374531682846" lon="9.16189739361695"><ele>800.0</ele><time>2026-04-30T15:43:56.01Z</time></trkpt><trkpt lat="40.03346221341092" lon="9.161783967543213"><ele>800.0</ele><time>2026-04-30T15:43:57.01Z</time></trkpt><trkpt lat="40.03355583747513" lon="9.161697211528356"><ele>800.0</ele><time>2026-04-30T15:43:58.01Z</time></trkpt><trkpt lat="40.03365754094462" lon="9.16163744237682"><ele>800.0</ele><time>2026-04-30T15:43:59.01Z</time></trkpt><trkpt lat="40.0337620731295" lon="9.161603074734128"><ele>800.0</ele><time>2026-04-30T15:44:00.01Z</time></trkpt><trkpt lat="40.03388279052338" lon="9.161587396013623"><ele>800.0</ele><time>2026-04-30T15:44:01.01Z</time></trkpt><trkpt lat="40.033997255733034" lon="9.161531758474764"><ele>800.0</ele><time>2026-04-30T15:44:02.01Z</time></trkpt><trkpt lat="40.03414438580997" lon="9.16145396802776"><ele>800.0</ele><time>2026-04-30T15:44:03.01Z</time></trkpt><trkpt lat="40.03430852266119" lon="9.161372731202793"><ele>801.6666666666667</ele><time>2026-04-30T15:44:04.01Z</time></trkpt><trkpt lat="40.03447707935981" lon="9.161278025090413"><ele>803.3333333333333</ele><time>2026-04-30T15:44:05.01Z</time></trkpt><trkpt lat="40.034641870504984" lon="9.16117322072873"><ele>805.0</ele><time>2026-04-30T15:44:06.01Z</time></trkpt><trkpt lat="40.0348014595461" lon="9.161069391490383"><ele>805.0</ele><time>2026-04-30T15:44:07.01Z</time></trkpt><trkpt lat="40.034962746923334" lon="9.160970522998879"><ele>805.0</ele><time>2026-04-30T15:44:08.01Z</time></trkpt><trkpt lat="40.035128438811604" lon="9.160872671171887"><ele>805.0</ele><time>2026-04-30T15:44:09.01Z</time></trkpt><trkpt lat="40.035290167451" lon="9.160769868698575"><ele>802.6666666666666</ele><time>2026-04-30T15:44:10.01Z</time></trkpt><trkpt lat="40.03544362093167" lon="9.160650046989435"><ele>800.3333333333333</ele><time>2026-04-30T15:44:11.01Z</time></trkpt><trkpt lat="40.03559640033847" lon="9.160520795435502"><ele>798.0</ele><time>2026-04-30T15:44:12.01Z</time></trkpt><trkpt lat="40.03573948124604" lon="9.160387412096874"><ele>796.0</ele><time>2026-04-30T15:44:13.01Z</time></trkpt><trkpt lat="40.03587943737317" lon="9.160282143219202"><ele>794.0</ele><time>2026-04-30T15:44:14.01Z</time></trkpt><trkpt lat="40.036042387282066" lon="9.160259665231518"><ele>792.0</ele><time>2026-04-30T15:44:15.01Z</time></trkpt><trkpt lat="40.03621344673904" lon="9.16027421346039"><ele>792.0</ele><time>2026-04-30T15:44:16.01Z</time></trkpt><trkpt lat="40.03637488009544" lon="9.160297862125706"><ele>792.0</ele><time>2026-04-30T15:44:17.01Z</time></trkpt><trkpt lat="40.03651954429538" lon="9.160351733991387"><ele>792.0</ele><time>2026-04-30T15:44:18.01Z</time></trkpt><trkpt lat="40.036634025437145" lon="9.160455991678926"><ele>792.25</ele><time>2026-04-30T15:44:19.01Z</time></trkpt><trkpt lat="40.03671681838297" lon="9.160564924873192"><ele>792.5</ele><time>2026-04-30T15:44:20.01Z</time></trkpt><trkpt lat="40.03680684803246" lon="9.160583080869939"><ele>792.75</ele><time>2026-04-30T15:44:21.01Z</time></trkpt><trkpt lat="40.03690431577431" lon="9.160507246011486"><ele>793.0</ele><time>2026-04-30T15:44:22.01Z</time></trkpt><trkpt lat="40.03698333081964" lon="9.160349344649134"><ele>793.0</ele><time>2026-04-30T15:44:23.01Z</time></trkpt><trkpt lat="40.03707641706879" lon="9.160167043600964"><ele>793.0</ele><time>2026-04-30T15:44:24.01Z</time></trkpt><trkpt lat="40.03720802996598" lon="9.16001626880393"><ele>793.0</ele><time>2026-04-30T15:44:25.009Z</time></trkpt><trkpt lat="40.03733129342347" lon="9.159881025556452"><ele>794.0</ele><time>2026-04-30T15:44:26.009Z</time></trkpt><trkpt lat="40.0374522105203" lon="9.159780950796304"><ele>795.0</ele><time>2026-04-30T15:44:27.009Z</time></trkpt><trkpt lat="40.03761273166491" lon="9.159756825591263"><ele>796.0</ele><time>2026-04-30T15:44:28.009Z</time></trkpt><trkpt lat="40.03777934485276" lon="9.159708351244932"><ele>791.3333333333333</ele><time>2026-04-30T15:44:29.009Z</time></trkpt><trkpt lat="40.03793347038259" lon="9.159558374802195"><ele>786.6666666666667</ele><time>2026-04-30T15:44:30.009Z</time></trkpt><trkpt lat="40.03809017365778" lon="9.159376184406396"><ele>782.0</ele><time>2026-04-30T15:44:31.009Z</time></trkpt><trkpt lat="40.03827539299942" lon="9.159200547391203"><ele>778.0</ele><time>2026-04-30T15:44:32.009Z</time></trkpt><trkpt lat="40.03848115001725" lon="9.15902968013481"><ele>774.0</ele><time>2026-04-30T15:44:33.009Z</time></trkpt><trkpt lat="40.038681973165076" lon="9.158858324241415"><ele>774.0</ele><time>2026-04-30T15:44:34.009Z</time></trkpt><trkpt lat="40.03885475234805" lon="9.158678032784051"><ele>774.0</ele><time>2026-04-30T15:44:35.009Z</time></trkpt><trkpt lat="40.03900123279758" lon="9.158459843937049"><ele>774.0</ele><time>2026-04-30T15:44:36.009Z</time></trkpt><trkpt lat="40.03912870812859" lon="9.158219520397669"><ele>774.6666666666667</ele><time>2026-04-30T15:44:37.009Z</time></trkpt><trkpt lat="40.03923081479065" lon="9.157968824997313"><ele>775.3333333333334</ele><time>2026-04-30T15:44:38.009Z</time></trkpt><trkpt lat="40.03930999573771" lon="9.157722233123945"><ele>776.0</ele><time>2026-04-30T15:44:39.009Z</time></trkpt><trkpt lat="40.03940124161643" lon="9.157492649714282"><ele>772.6666666666667</ele><time>2026-04-30T15:44:40.009Z</time></trkpt><trkpt lat="40.03952856951567" lon="9.157308091182147"><ele>769.3333333333334</ele><time>2026-04-30T15:44:41.009Z</time></trkpt><trkpt lat="40.039700454332156" lon="9.157141600264524"><ele>766.0</ele><time>2026-04-30T15:44:42.009Z</time></trkpt><trkpt lat="40.039880811549416" lon="9.156985081854453"><ele>768.3333333333334</ele><time>2026-04-30T15:44:43.009Z</time></trkpt><trkpt lat="40.04005014712318" lon="9.156834643570411"><ele>770.6666666666667</ele><time>2026-04-30T15:44:44.009Z</time></trkpt><trkpt lat="40.04019008296862" lon="9.156698840150359"><ele>773.0</ele><time>2026-04-30T15:44:45.009Z</time></trkpt><trkpt lat="40.04032317841108" lon="9.156615798178416"><ele>773.0</ele><time>2026-04-30T15:44:46.009Z</time></trkpt><trkpt lat="40.0404713173604" lon="9.156642347597034"><ele>773.0</ele><time>2026-04-30T15:44:47.009Z</time></trkpt><trkpt lat="40.04063830577664" lon="9.156750237281122"><ele>773.0</ele><time>2026-04-30T15:44:48.009Z</time></trkpt><trkpt lat="40.040807550155286" lon="9.15689055972866"><ele>772.3333333333334</ele><time>2026-04-30T15:44:49.009Z</time></trkpt><trkpt lat="40.0409932331822" lon="9.1570306190258"><ele>771.6666666666667</ele><time>2026-04-30T15:44:50.009Z</time></trkpt><trkpt lat="40.041179821414" lon="9.15716686181668"><ele>771.0</ele><time>2026-04-30T15:44:51.009Z</time></trkpt><trkpt lat="40.041341074634026" lon="9.157319567721997"><ele>779.6666666666667</ele><time>2026-04-30T15:44:52.009Z</time></trkpt><trkpt lat="40.04146542707297" lon="9.157472736082052"><ele>788.3333333333334</ele><time>2026-04-30T15:44:53.009Z</time></trkpt><trkpt lat="40.04153581452264" lon="9.157679103916458"><ele>797.0</ele><time>2026-04-30T15:44:54.009Z</time></trkpt><trkpt lat="40.041543622959324" lon="9.157917233693944"><ele>797.0</ele><time>2026-04-30T15:44:55.009Z</time></trkpt><trkpt lat="40.041486303849226" lon="9.158141550755147"><ele>797.0</ele><time>2026-04-30T15:44:56.009Z</time></trkpt><trkpt lat="40.04141100454473" lon="9.158351636675125"><ele>797.0</ele><time>2026-04-30T15:44:57.009Z</time></trkpt><trkpt lat="40.041360664210586" lon="9.158570513579207"><ele>801.25</ele><time>2026-04-30T15:44:58.009Z</time></trkpt><trkpt lat="40.04133149395276" lon="9.158764106340056"><ele>805.5</ele><time>2026-04-30T15:44:59.009Z</time></trkpt><trkpt lat="40.041353826525985" lon="9.158916320026725"><ele>809.75</ele><time>2026-04-30T15:45:00.009Z</time></trkpt><trkpt lat="40.041444485677786" lon="9.159007380889602"><ele>814.0</ele><time>2026-04-30T15:45:01.009Z</time></trkpt><trkpt lat="40.041591349034036" lon="9.159011382705645"><ele>801.0</ele><time>2026-04-30T15:45:02.009Z</time></trkpt><trkpt lat="40.04174278211392" lon="9.158909947272049"><ele>788.0</ele><time>2026-04-30T15:45:03.009Z</time></trkpt><trkpt lat="40.04187593822849" lon="9.158715338167724"><ele>775.0</ele><time>2026-04-30T15:45:04.009Z</time></trkpt><trkpt lat="40.041972719936126" lon="9.158491142741465"><ele>775.0</ele><time>2026-04-30T15:45:05.009Z</time></trkpt><trkpt lat="40.04208259156299" lon="9.158330623628219"><ele>775.0</ele><time>2026-04-30T15:45:06.009Z</time></trkpt><trkpt lat="40.042220627808355" lon="9.158247405861145"><ele>775.0</ele><time>2026-04-30T15:45:07.009Z</time></trkpt><trkpt lat="40.04240617127995" lon="9.15824996217786"><ele>772.6666666666666</ele><time>2026-04-30T15:45:08.009Z</time></trkpt><trkpt lat="40.0426085554154" lon="9.15834677014609"><ele>770.3333333333333</ele><time>2026-04-30T15:45:09.009Z</time></trkpt><trkpt lat="40.0428133308358" lon="9.158464108802466"><ele>768.0</ele><time>2026-04-30T15:45:10.009Z</time></trkpt><trkpt lat="40.04301671323532" lon="9.158556370926332"><ele>768.0</ele><time>2026-04-30T15:45:11.009Z</time></trkpt><trkpt lat="40.04322152301999" lon="9.158611400330727"><ele>768.0</ele><time>2026-04-30T15:45:12.009Z</time></trkpt><trkpt lat="40.04341687340303" lon="9.158629175671201"><ele>768.0</ele><time>2026-04-30T15:45:13.009Z</time></trkpt><trkpt lat="40.04360791378026" lon="9.158683284096696"><ele>766.0</ele><time>2026-04-30T15:45:14.009Z</time></trkpt><trkpt lat="40.043798063827694" lon="9.158810492485399"><ele>764.0</ele><time>2026-04-30T15:45:15.009Z</time></trkpt><trkpt lat="40.04396261653163" lon="9.158995165218496"><ele>762.0</ele><time>2026-04-30T15:45:16.009Z</time></trkpt><trkpt lat="40.04409932880339" lon="9.159224787721554"><ele>761.0</ele><time>2026-04-30T15:45:17.009Z</time></trkpt><trkpt lat="40.04424981090017" lon="9.159441404801827"><ele>760.0</ele><time>2026-04-30T15:45:18.009Z</time></trkpt><trkpt lat="40.044410004122" lon="9.15961300873101"><ele>759.0</ele><time>2026-04-30T15:45:19.009Z</time></trkpt><trkpt lat="40.044563553046046" lon="9.1597564066395"><ele>765.0</ele><time>2026-04-30T15:45:20.009Z</time></trkpt><trkpt lat="40.04467817997149" lon="9.159954302951537"><ele>771.0</ele><time>2026-04-30T15:45:21.009Z</time></trkpt><trkpt lat="40.044731161008876" lon="9.16017959312977"><ele>777.0</ele><time>2026-04-30T15:45:22.009Z</time></trkpt><trkpt lat="40.04476529869447" lon="9.160374791874862"><ele>777.0</ele><time>2026-04-30T15:45:23.009Z</time></trkpt><trkpt lat="40.0448223892677" lon="9.16052588919418"><ele>777.0</ele><time>2026-04-30T15:45:24.009Z</time></trkpt><trkpt lat="40.04493402622568" lon="9.160604676885708"><ele>777.0</ele><time>2026-04-30T15:45:25.009Z</time></trkpt><trkpt lat="40.045057421517924" lon="9.160598778276576"><ele>777.0</ele><time>2026-04-30T15:45:26.009Z</time></trkpt><trkpt lat="40.0451740736957" lon="9.160474390810313"><ele>769.6666666666666</ele><time>2026-04-30T15:45:27.009Z</time></trkpt><trkpt lat="40.045243194944014" lon="9.160270338778364"><ele>762.3333333333333</ele><time>2026-04-30T15:45:28.009Z</time></trkpt><trkpt lat="40.045317264744796" lon="9.160066159070766"><ele>755.0</ele><time>2026-04-30T15:45:29.009Z</time></trkpt><trkpt lat="40.0454359901638" lon="9.159943863532327"><ele>755.0</ele><time>2026-04-30T15:45:30.009Z</time></trkpt><trkpt lat="40.04561287688576" lon="9.159868824891088"><ele>755.0</ele><time>2026-04-30T15:45:31.009Z</time></trkpt><trkpt lat="40.04579983198" lon="9.15973206268522"><ele>755.0</ele><time>2026-04-30T15:45:32.009Z</time></trkpt><trkpt lat="40.04600205059939" lon="9.159566657259093"><ele>753.6666666666666</ele><time>2026-04-30T15:45:33.009Z</time></trkpt><trkpt lat="40.04617094581622" lon="9.15941031368616"><ele>752.3333333333334</ele><time>2026-04-30T15:45:34.009Z</time></trkpt><trkpt lat="40.04636510916015" lon="9.159281438419487"><ele>751.0</ele><time>2026-04-30T15:45:35.009Z</time></trkpt><trkpt lat="40.0465833472546" lon="9.159189796332189"><ele>751.6666666666667</ele><time>2026-04-30T15:45:36.01Z</time></trkpt><trkpt lat="40.04678628249721" lon="9.159124707699148"><ele>752.3333333333334</ele><time>2026-04-30T15:45:37.011Z</time></trkpt><trkpt lat="40.046954367346" lon="9.1590760866414"><ele>753.0</ele><time>2026-04-30T15:45:38.011Z</time></trkpt><trkpt lat="40.04708890544938" lon="9.158984438830668"><ele>750.0</ele><time>2026-04-30T15:45:39.011Z</time></trkpt><trkpt lat="40.0471598092729" lon="9.15880510635459"><ele>747.0</ele><time>2026-04-30T15:45:40.01Z</time></trkpt><trkpt lat="40.047180592356554" lon="9.158566104855712"><ele>744.0</ele><time>2026-04-30T15:45:41.01Z</time></trkpt><trkpt lat="40.04718131320064" lon="9.158299260776838"><ele>745.3333333333334</ele><time>2026-04-30T15:45:42.01Z</time></trkpt><trkpt lat="40.04713523508985" lon="9.158036720937647"><ele>746.6666666666667</ele><time>2026-04-30T15:45:43.011Z</time></trkpt><trkpt lat="40.0471068548615" lon="9.157834157450113"><ele>748.0</ele><time>2026-04-30T15:45:44.011Z</time></trkpt><trkpt lat="40.04714826094068" lon="9.157649584662217"><ele>748.0</ele><time>2026-04-30T15:45:45.011Z</time></trkpt><trkpt lat="40.04725614404249" lon="9.157436160729521"><ele>748.0</ele><time>2026-04-30T15:45:46.011Z</time></trkpt><trkpt lat="40.047344622303385" lon="9.157188158061611"><ele>748.0</ele><time>2026-04-30T15:45:47.011Z</time></trkpt><trkpt lat="40.04738859691662" lon="9.156924427867349"><ele>749.3333333333334</ele><time>2026-04-30T15:45:48.01Z</time></trkpt><trkpt lat="40.04738980531717" lon="9.156634075408192"><ele>750.6666666666666</ele><time>2026-04-30T15:45:49.011Z</time></trkpt><trkpt lat="40.047342511934126" lon="9.156345252489425"><ele>752.0</ele><time>2026-04-30T15:45:50.011Z</time></trkpt><trkpt lat="40.04731324775098" lon="9.156083505188331"><ele>752.3333333333333</ele><time>2026-04-30T15:45:51.011Z</time></trkpt><trkpt lat="40.04734971678992" lon="9.155825231170228"><ele>752.6666666666666</ele><time>2026-04-30T15:45:52.011Z</time></trkpt><trkpt lat="40.047440811322446" lon="9.155550854741143"><ele>753.0</ele><time>2026-04-30T15:45:53.011Z</time></trkpt><trkpt lat="40.04754939020542" lon="9.155286431568879"><ele>746.5</ele><time>2026-04-30T15:45:54.011Z</time></trkpt><trkpt lat="40.04763164697539" lon="9.155012829160684"><ele>740.0</ele><time>2026-04-30T15:45:55.011Z</time></trkpt><trkpt lat="40.04766571092709" lon="9.154713838495516"><ele>738.0</ele><time>2026-04-30T15:45:56.01Z</time></trkpt><trkpt lat="40.04765448698617" lon="9.15442097536143"><ele>736.0</ele><time>2026-04-30T15:45:57.01Z</time></trkpt><trkpt lat="40.04763645555734" lon="9.1541632038492"><ele>734.0</ele><time>2026-04-30T15:45:58.01Z</time></trkpt><trkpt lat="40.04769358915172" lon="9.153913883033338"><ele>730.0</ele><time>2026-04-30T15:45:59.01Z</time></trkpt><trkpt lat="40.047798048500574" lon="9.153639150245787"><ele>726.0</ele><time>2026-04-30T15:46:00.01Z</time></trkpt><trkpt lat="40.0478861344967" lon="9.153373188263531"><ele>726.0</ele><time>2026-04-30T15:46:01.01Z</time></trkpt><trkpt lat="40.047975456397936" lon="9.15309546199337"><ele>726.0</ele><time>2026-04-30T15:46:02.01Z</time></trkpt><trkpt lat="40.04806038396914" lon="9.152827553130129"><ele>726.0</ele><time>2026-04-30T15:46:03.01Z</time></trkpt><trkpt lat="40.048138912248085" lon="9.152571226094677"><ele>726.0</ele><time>2026-04-30T15:46:04.01Z</time></trkpt><trkpt lat="40.04821443193236" lon="9.152333796706632"><ele>726.0</ele><time>2026-04-30T15:46:05.01Z</time></trkpt><trkpt lat="40.0483193750478" lon="9.152148915479547"><ele>724.0</ele><time>2026-04-30T15:46:06.01Z</time></trkpt><trkpt lat="40.048484443612566" lon="9.152017543730413"><ele>722.0</ele><time>2026-04-30T15:46:07.01Z</time></trkpt><trkpt lat="40.04868109326619" lon="9.151910571037789"><ele>720.0</ele><time>2026-04-30T15:46:08.01Z</time></trkpt><trkpt lat="40.048869405396395" lon="9.151793303481341"><ele>720.0</ele><time>2026-04-30T15:46:09.01Z</time></trkpt><trkpt lat="40.049025635954806" lon="9.151593097167753"><ele>720.0</ele><time>2026-04-30T15:46:10.01Z</time></trkpt><trkpt lat="40.04915570066769" lon="9.151343336666546"><ele>717.0</ele><time>2026-04-30T15:46:11.01Z</time></trkpt><trkpt lat="40.04928426226108" lon="9.151109810777761"><ele>714.0</ele><time>2026-04-30T15:46:12.01Z</time></trkpt><trkpt lat="40.049437906404975" lon="9.150931915745895"><ele>711.0</ele><time>2026-04-30T15:46:13.01Z</time></trkpt><trkpt lat="40.04963286391385" lon="9.150829916095802"><ele>711.0</ele><time>2026-04-30T15:46:14.01Z</time></trkpt><trkpt lat="40.049822469390314" lon="9.150732769146797"><ele>711.0</ele><time>2026-04-30T15:46:15.01Z</time></trkpt><trkpt lat="40.04997849625491" lon="9.15056385275391"><ele>711.0</ele><time>2026-04-30T15:46:16.01Z</time></trkpt><trkpt lat="40.05012359783495" lon="9.150333920357523"><ele>712.0</ele><time>2026-04-30T15:46:17.01Z</time></trkpt><trkpt lat="40.05026329101178" lon="9.15008530061134"><ele>713.0</ele><time>2026-04-30T15:46:18.01Z</time></trkpt><trkpt lat="40.050402349249914" lon="9.149829127127973"><ele>704.0</ele><time>2026-04-30T15:46:19.01Z</time></trkpt><trkpt lat="40.05054495232173" lon="9.14958343224892"><ele>695.0</ele><time>2026-04-30T15:46:20.01Z</time></trkpt><trkpt lat="40.050712256604854" lon="9.149380826011189"><ele>690.3333333333333</ele><time>2026-04-30T15:46:21.01Z</time></trkpt><trkpt lat="40.05087624369614" lon="9.149216823568148"><ele>685.6666666666666</ele><time>2026-04-30T15:46:22.01Z</time></trkpt><trkpt lat="40.05102690986546" lon="9.149084204777333"><ele>681.0</ele><time>2026-04-30T15:46:23.01Z</time></trkpt><trkpt lat="40.05119221346698" lon="9.149027530583906"><ele>681.0</ele><time>2026-04-30T15:46:24.01Z</time></trkpt><trkpt lat="40.05138709890798" lon="9.149033082336445"><ele>681.0</ele><time>2026-04-30T15:46:25.01Z</time></trkpt><trkpt lat="40.05158049378663" lon="9.148983740220226"><ele>681.0</ele><time>2026-04-30T15:46:26.01Z</time></trkpt><trkpt lat="40.051754210292835" lon="9.148937711752184"><ele>682.3333333333334</ele><time>2026-04-30T15:46:27.01Z</time></trkpt><trkpt lat="40.05192749064399" lon="9.14897319134134"><ele>683.6666666666667</ele><time>2026-04-30T15:46:28.01Z</time></trkpt><trkpt lat="40.05211113982915" lon="9.149071597176581"><ele>685.0</ele><time>2026-04-30T15:46:29.01Z</time></trkpt><trkpt lat="40.0522730765638" lon="9.14918130120186"><ele>684.3333333333334</ele><time>2026-04-30T15:46:30.01Z</time></trkpt><trkpt lat="40.05242216724626" lon="9.149254929419573"><ele>683.6666666666666</ele><time>2026-04-30T15:46:31.01Z</time></trkpt><trkpt lat="40.052573108977974" lon="9.149209138813454"><ele>683.0</ele><time>2026-04-30T15:46:32.01Z</time></trkpt><trkpt lat="40.05272011400348" lon="9.149037411895423"><ele>683.0</ele><time>2026-04-30T15:46:33.01Z</time></trkpt><trkpt lat="40.05288697091709" lon="9.148821188802051"><ele>683.0</ele><time>2026-04-30T15:46:34.01Z</time></trkpt><trkpt lat="40.05306071519305" lon="9.14862693451682"><ele>683.0</ele><time>2026-04-30T15:46:35.01Z</time></trkpt><trkpt lat="40.05323805674683" lon="9.148449560655864"><ele>683.0</ele><time>2026-04-30T15:46:36.01Z</time></trkpt><trkpt lat="40.053382567611976" lon="9.148229767349376"><ele>683.0</ele><time>2026-04-30T15:46:37.01Z</time></trkpt><trkpt lat="40.053482745256545" lon="9.147952201678267"><ele>684.0</ele><time>2026-04-30T15:46:38.01Z</time></trkpt><trkpt lat="40.0535574640683" lon="9.147631331880271"><ele>685.0</ele><time>2026-04-30T15:46:39.01Z</time></trkpt><trkpt lat="40.05366761295212" lon="9.14735709967528"><ele>685.0</ele><time>2026-04-30T15:46:40.01Z</time></trkpt><trkpt lat="40.0537656379399" lon="9.14708707737709"><ele>685.0</ele><time>2026-04-30T15:46:41.01Z</time></trkpt><trkpt lat="40.053801653730666" lon="9.146786836492524"><ele>680.5</ele><time>2026-04-30T15:46:42.01Z</time></trkpt><trkpt lat="40.05380849521291" lon="9.146470866156795"><ele>676.0</ele><time>2026-04-30T15:46:43.01Z</time></trkpt><trkpt lat="40.05379621225231" lon="9.14618452856307"><ele>676.0</ele><time>2026-04-30T15:46:44.01Z</time></trkpt><trkpt lat="40.05378739363306" lon="9.145919879699774"><ele>676.0</ele><time>2026-04-30T15:46:45.01Z</time></trkpt><trkpt lat="40.05379977353972" lon="9.1456893917695"><ele>676.0</ele><time>2026-04-30T15:46:46.01Z</time></trkpt><trkpt lat="40.053880251236734" lon="9.145456733169214"><ele>671.0</ele><time>2026-04-30T15:46:47.01Z</time></trkpt><trkpt lat="40.05397694069455" lon="9.14521957850876"><ele>666.0</ele><time>2026-04-30T15:46:48.01Z</time></trkpt><trkpt lat="40.05407960664167" lon="9.145019443953274"><ele>661.0</ele><time>2026-04-30T15:46:49.01Z</time></trkpt><trkpt lat="40.054215420122055" lon="9.144880040175947"><ele>661.6666666666667</ele><time>2026-04-30T15:46:50.01Z</time></trkpt><trkpt lat="40.05438848405186" lon="9.144852057981812"><ele>662.3333333333334</ele><time>2026-04-30T15:46:51.01Z</time></trkpt><trkpt lat="40.05458170647217" lon="9.144794490052824"><ele>663.0</ele><time>2026-04-30T15:46:52.01Z</time></trkpt><trkpt lat="40.05477169289711" lon="9.144645277395066"><ele>673.5</ele><time>2026-04-30T15:46:53.01Z</time></trkpt><trkpt lat="40.05497073718408" lon="9.144470228647139"><ele>684.0</ele><time>2026-04-30T15:46:54.01Z</time></trkpt><trkpt lat="40.05517043683397" lon="9.144287926585399"><ele>684.0</ele><time>2026-04-30T15:46:55.01Z</time></trkpt><trkpt lat="40.05533252700873" lon="9.144068544472399"><ele>684.0</ele><time>2026-04-30T15:46:56.01Z</time></trkpt><trkpt lat="40.05546396852426" lon="9.143828731953112"><ele>681.0</ele><time>2026-04-30T15:46:57.01Z</time></trkpt><trkpt lat="40.055612989338385" lon="9.143626858159365"><ele>678.0</ele><time>2026-04-30T15:46:58.01Z</time></trkpt><trkpt lat="40.05581270554207" lon="9.143514183272682"><ele>675.0</ele><time>2026-04-30T15:46:59.01Z</time></trkpt><trkpt lat="40.05603138494388" lon="9.143436885714577"><ele>675.0</ele><time>2026-04-30T15:47:00.01Z</time></trkpt><trkpt lat="40.05622341107213" lon="9.14328835337668"><ele>675.0</ele><time>2026-04-30T15:47:01.01Z</time></trkpt><trkpt lat="40.05639263277192" lon="9.143088569140646"><ele>670.6666666666666</ele><time>2026-04-30T15:47:02.01Z</time></trkpt><trkpt lat="40.056550098130856" lon="9.142897428564668"><ele>666.3333333333333</ele><time>2026-04-30T15:47:03.01Z</time></trkpt><trkpt lat="40.05667478763934" lon="9.142754565269657"><ele>662.0</ele><time>2026-04-30T15:47:04.01Z</time></trkpt><trkpt lat="40.05678795663113" lon="9.142670947706687"><ele>662.0</ele><time>2026-04-30T15:47:05.01Z</time></trkpt><trkpt lat="40.05691445793769" lon="9.14270666473128"><ele>662.0</ele><time>2026-04-30T15:47:06.01Z</time></trkpt><trkpt lat="40.05701917009183" lon="9.14285424926602"><ele>662.0</ele><time>2026-04-30T15:47:07.01Z</time></trkpt><trkpt lat="40.05710281545282" lon="9.143078669279259"><ele>668.0</ele><time>2026-04-30T15:47:08.01Z</time></trkpt><trkpt lat="40.05713614762833" lon="9.143318041754421"><ele>674.0</ele><time>2026-04-30T15:47:09.01Z</time></trkpt><trkpt lat="40.05714205900358" lon="9.143558411302584"><ele>680.0</ele><time>2026-04-30T15:47:10.01Z</time></trkpt><trkpt lat="40.057105326372444" lon="9.143760032904154"><ele>680.0</ele><time>2026-04-30T15:47:11.01Z</time></trkpt><trkpt lat="40.05699332588673" lon="9.14391304380255"><ele>680.0</ele><time>2026-04-30T15:47:12.01Z</time></trkpt><trkpt lat="40.056846239350364" lon="9.144097222854237"><ele>680.0</ele><time>2026-04-30T15:47:13.01Z</time></trkpt><trkpt lat="40.05673395307742" lon="9.144318221201372"><ele>686.0</ele><time>2026-04-30T15:47:14.01Z</time></trkpt><trkpt lat="40.056617997576815" lon="9.144541297195982"><ele>692.0</ele><time>2026-04-30T15:47:15.01Z</time></trkpt><trkpt lat="40.05653827123518" lon="9.144752583625445"><ele>698.0</ele><time>2026-04-30T15:47:16.01Z</time></trkpt><trkpt lat="40.05652609031773" lon="9.144959832715728"><ele>699.0</ele><time>2026-04-30T15:47:17.01Z</time></trkpt><trkpt lat="40.056570691223" lon="9.145164056226722"><ele>700.0</ele><time>2026-04-30T15:47:18.01Z</time></trkpt><trkpt lat="40.05667658089976" lon="9.145373858653866"><ele>701.0</ele><time>2026-04-30T15:47:19.01Z</time></trkpt><trkpt lat="40.05681990610504" lon="9.145580568296927"><ele>685.5</ele><time>2026-04-30T15:47:20.01Z</time></trkpt><trkpt lat="40.0569766783191" lon="9.14578532230992"><ele>670.0</ele><time>2026-04-30T15:47:21.01Z</time></trkpt><trkpt lat="40.05712697839829" lon="9.146035770094654"><ele>670.0</ele><time>2026-04-30T15:47:22.01Z</time></trkpt><trkpt lat="40.057278522485184" lon="9.146239248273973"><ele>670.0</ele><time>2026-04-30T15:47:23.01Z</time></trkpt><trkpt lat="40.05743060988994" lon="9.146416878039208"><ele>670.0</ele><time>2026-04-30T15:47:24.01Z</time></trkpt><trkpt lat="40.057581464595124" lon="9.146541506649232"><ele>665.75</ele><time>2026-04-30T15:47:25.01Z</time></trkpt><trkpt lat="40.05770848279133" lon="9.146618166297907"><ele>661.5</ele><time>2026-04-30T15:47:26.01Z</time></trkpt><trkpt lat="40.05780583195616" lon="9.146720680300895"><ele>657.25</ele><time>2026-04-30T15:47:27.01Z</time></trkpt><trkpt lat="40.057818637658215" lon="9.146871898093435"><ele>653.0</ele><time>2026-04-30T15:47:28.01Z</time></trkpt><trkpt lat="40.057754341427696" lon="9.147083091543804"><ele>653.0</ele><time>2026-04-30T15:47:29.01Z</time></trkpt><trkpt lat="40.05763493735604" lon="9.147333823470733"><ele>653.0</ele><time>2026-04-30T15:47:30.01Z</time></trkpt><trkpt lat="40.05750879223124" lon="9.147582886238833"><ele>668.0</ele><time>2026-04-30T15:47:31.01Z</time></trkpt><trkpt lat="40.057375982618666" lon="9.147817841002515"><ele>683.0</ele><time>2026-04-30T15:47:32.01Z</time></trkpt><trkpt lat="40.05725744133776" lon="9.148083400456354"><ele>676.0</ele><time>2026-04-30T15:47:33.01Z</time></trkpt><trkpt lat="40.057198627264455" lon="9.14838510251653"><ele>669.0</ele><time>2026-04-30T15:47:34.01Z</time></trkpt><trkpt lat="40.057146791043095" lon="9.148680498054851"><ele>669.0</ele><time>2026-04-30T15:47:35.01Z</time></trkpt><trkpt lat="40.05705021795603" lon="9.148964008313474"><ele>669.0</ele><time>2026-04-30T15:47:36.01Z</time></trkpt><trkpt lat="40.05689637479592" lon="9.14923136707372"><ele>661.5</ele><time>2026-04-30T15:47:37.01Z</time></trkpt><trkpt lat="40.0567557864401" lon="9.149509597683762"><ele>654.0</ele><time>2026-04-30T15:47:38.01Z</time></trkpt><trkpt lat="40.05665167361404" lon="9.14981965609423"><ele>668.0</ele><time>2026-04-30T15:47:39.01Z</time></trkpt><trkpt lat="40.05655796617012" lon="9.150143346467667"><ele>682.0</ele><time>2026-04-30T15:47:40.01Z</time></trkpt><trkpt lat="40.05647329830198" lon="9.150474281389473"><ele>674.5</ele><time>2026-04-30T15:47:41.01Z</time></trkpt><trkpt lat="40.05639815072673" lon="9.150793287757441"><ele>667.0</ele><time>2026-04-30T15:47:42.011Z</time></trkpt><trkpt lat="40.056330491267815" lon="9.151090964053235"><ele>667.0</ele><time>2026-04-30T15:47:43.012Z</time></trkpt><trkpt lat="40.05622986052595" lon="9.151345929969917"><ele>667.0</ele><time>2026-04-30T15:47:44.012Z</time></trkpt><trkpt lat="40.05611393776618" lon="9.151574382414342"><ele>667.0</ele><time>2026-04-30T15:47:45.011Z</time></trkpt><trkpt lat="40.05604906435762" lon="9.15183903036521"><ele>662.0</ele><time>2026-04-30T15:47:46.011Z</time></trkpt><trkpt lat="40.056028750291624" lon="9.152104027166212"><ele>657.0</ele><time>2026-04-30T15:47:47.011Z</time></trkpt><trkpt lat="40.05601303830992" lon="9.152389215109725"><ele>652.0</ele><time>2026-04-30T15:47:48.012Z</time></trkpt><trkpt lat="40.05592847130925" lon="9.152658634339634"><ele>644.5</ele><time>2026-04-30T15:47:49.011Z</time></trkpt><trkpt lat="40.05583369600838" lon="9.152935337544543"><ele>637.0</ele><time>2026-04-30T15:47:50.011Z</time></trkpt><trkpt lat="40.05573516550886" lon="9.153201606387226"><ele>644.0</ele><time>2026-04-30T15:47:51.011Z</time></trkpt><trkpt lat="40.05562230051939" lon="9.153449589575278"><ele>651.0</ele><time>2026-04-30T15:47:52.011Z</time></trkpt><trkpt lat="40.055481499570135" lon="9.153661348451317"><ele>658.0</ele><time>2026-04-30T15:47:53.011Z</time></trkpt><trkpt lat="40.055302367318454" lon="9.153843341791664"><ele>658.0</ele><time>2026-04-30T15:47:54.011Z</time></trkpt><trkpt lat="40.05509756110398" lon="9.15398909632073"><ele>658.0</ele><time>2026-04-30T15:47:55.011Z</time></trkpt><trkpt lat="40.05491292319177" lon="9.154152834749977"><ele>654.0</ele><time>2026-04-30T15:47:56.011Z</time></trkpt><trkpt lat="40.05476007863012" lon="9.15438301707068"><ele>650.0</ele><time>2026-04-30T15:47:57.011Z</time></trkpt><trkpt lat="40.05463221393127" lon="9.154615482087992"><ele>650.0</ele><time>2026-04-30T15:47:58.011Z</time></trkpt><trkpt lat="40.054510025446454" lon="9.154826454865159"><ele>650.0</ele><time>2026-04-30T15:47:59.011Z</time></trkpt><trkpt lat="40.054351537212476" lon="9.154967013087605"><ele>650.0</ele><time>2026-04-30T15:48:00.011Z</time></trkpt><trkpt lat="40.05418156707203" lon="9.155066695989134"><ele>648.75</ele><time>2026-04-30T15:48:01.011Z</time></trkpt><trkpt lat="40.0540439453183" lon="9.155166023484462"><ele>647.5</ele><time>2026-04-30T15:48:02.011Z</time></trkpt><trkpt lat="40.05394686673165" lon="9.155267625172522"><ele>646.25</ele><time>2026-04-30T15:48:03.011Z</time></trkpt><trkpt lat="40.053912141903254" lon="9.155406506546868"><ele>645.0</ele><time>2026-04-30T15:48:04.011Z</time></trkpt><trkpt lat="40.05396265154864" lon="9.155520776509636"><ele>645.0</ele><time>2026-04-30T15:48:05.011Z</time></trkpt><trkpt lat="40.054093975214364" lon="9.155615104282615"><ele>645.0</ele><time>2026-04-30T15:48:06.011Z</time></trkpt><trkpt lat="40.05426931569677" lon="9.155683605681087"><ele>645.0</ele><time>2026-04-30T15:48:07.011Z</time></trkpt><trkpt lat="40.05446373329782" lon="9.15574371076901"><ele>637.6666666666666</ele><time>2026-04-30T15:48:08.011Z</time></trkpt><trkpt lat="40.05466395264474" lon="9.155830761260187"><ele>630.3333333333333</ele><time>2026-04-30T15:48:09.011Z</time></trkpt><trkpt lat="40.05484356755086" lon="9.155953004779507"><ele>623.0</ele><time>2026-04-30T15:48:10.011Z</time></trkpt><trkpt lat="40.05496960274192" lon="9.156109341681892"><ele>615.3333333333333</ele><time>2026-04-30T15:48:11.011Z</time></trkpt><trkpt lat="40.055109459413046" lon="9.156213685590357"><ele>607.6666666666666</ele><time>2026-04-30T15:48:12.011Z</time></trkpt><trkpt lat="40.05526091059641" lon="9.156205224320475"><ele>600.0</ele><time>2026-04-30T15:48:13.011Z</time></trkpt><trkpt lat="40.05540254551032" lon="9.156179809728611"><ele>600.0</ele><time>2026-04-30T15:48:14.011Z</time></trkpt><trkpt lat="40.055536128052935" lon="9.156259580006227"><ele>600.0</ele><time>2026-04-30T15:48:15.011Z</time></trkpt><trkpt lat="40.05562590122944" lon="9.156428835902785"><ele>600.0</ele><time>2026-04-30T15:48:16.011Z</time></trkpt><trkpt lat="40.05569085802631" lon="9.156687292030483"><ele>612.5</ele><time>2026-04-30T15:48:17.011Z</time></trkpt><trkpt lat="40.05572794017776" lon="9.156974330943655"><ele>625.0</ele><time>2026-04-30T15:48:18.011Z</time></trkpt><trkpt lat="40.055770092154845" lon="9.15726847301629"><ele>635.5</ele><time>2026-04-30T15:48:19.011Z</time></trkpt><trkpt lat="40.055788050738286" lon="9.157576668737102"><ele>646.0</ele><time>2026-04-30T15:48:20.011Z</time></trkpt><trkpt lat="40.05577734006276" lon="9.15785561096535"><ele>646.0</ele><time>2026-04-30T15:48:21.011Z</time></trkpt><trkpt lat="40.05577809211623" lon="9.158119862328933"><ele>646.0</ele><time>2026-04-30T15:48:22.011Z</time></trkpt><trkpt lat="40.055815283734994" lon="9.158336582049774"><ele>646.0</ele><time>2026-04-30T15:48:23.011Z</time></trkpt><trkpt lat="40.05586187779374" lon="9.15849074900157"><ele>635.5</ele><time>2026-04-30T15:48:24.011Z</time></trkpt><trkpt lat="40.05595118299973" lon="9.15856214229077"><ele>625.0</ele><time>2026-04-30T15:48:25.011Z</time></trkpt><trkpt lat="40.05605442913744" lon="9.158544327468258"><ele>614.5</ele><time>2026-04-30T15:48:26.011Z</time></trkpt><trkpt lat="40.05618517065273" lon="9.158451366724021"><ele>604.0</ele><time>2026-04-30T15:48:27.011Z</time></trkpt><trkpt lat="40.056304356916996" lon="9.158411233340681"><ele>604.0</ele><time>2026-04-30T15:48:28.011Z</time></trkpt><trkpt lat="40.05642200804315" lon="9.15829880644955"><ele>604.0</ele><time>2026-04-30T15:48:29.011Z</time></trkpt><trkpt lat="40.05654006296349" lon="9.158144788600438"><ele>604.0</ele><time>2026-04-30T15:48:30.011Z</time></trkpt><trkpt lat="40.05666480172772" lon="9.157965646744676"><ele>596.6666666666667</ele><time>2026-04-30T15:48:31.011Z</time></trkpt><trkpt lat="40.056789459831116" lon="9.157759117283758"><ele>589.3333333333334</ele><time>2026-04-30T15:48:32.011Z</time></trkpt><trkpt lat="40.05691570370895" lon="9.157491483430402"><ele>582.0</ele><time>2026-04-30T15:48:33.011Z</time></trkpt><trkpt lat="40.05704128356997" lon="9.157202252667501"><ele>579.6666666666666</ele><time>2026-04-30T15:48:34.011Z</time></trkpt><trkpt lat="40.05715182252294" lon="9.156937477764414"><ele>577.3333333333333</ele><time>2026-04-30T15:48:35.011Z</time></trkpt><trkpt lat="40.057204940745635" lon="9.15667367354714"><ele>575.0</ele><time>2026-04-30T15:48:36.011Z</time></trkpt><trkpt lat="40.057215028731015" lon="9.156407423149354"><ele>572.6666666666666</ele><time>2026-04-30T15:48:37.011Z</time></trkpt><trkpt lat="40.057224737700786" lon="9.156156529919508"><ele>570.3333333333334</ele><time>2026-04-30T15:48:38.011Z</time></trkpt><trkpt lat="40.057298734081996" lon="9.155974030701726"><ele>568.0</ele><time>2026-04-30T15:48:39.011Z</time></trkpt><trkpt lat="40.057417997312164" lon="9.155848036086057"><ele>566.6666666666667</ele><time>2026-04-30T15:48:40.011Z</time></trkpt><trkpt lat="40.057490756265715" lon="9.155704013274363"><ele>565.3333333333334</ele><time>2026-04-30T15:48:41.011Z</time></trkpt><trkpt lat="40.057473469147574" lon="9.155488376161573"><ele>564.0</ele><time>2026-04-30T15:48:42.011Z</time></trkpt><trkpt lat="40.057429046673086" lon="9.15523308251784"><ele>564.0</ele><time>2026-04-30T15:48:43.011Z</time></trkpt><trkpt lat="40.05740067696144" lon="9.154995637315604"><ele>564.0</ele><time>2026-04-30T15:48:44.011Z</time></trkpt><trkpt lat="40.05746658579164" lon="9.154785487502611"><ele>564.0</ele><time>2026-04-30T15:48:45.011Z</time></trkpt><trkpt lat="40.05759404163578" lon="9.154566657397359"><ele>562.3333333333334</ele><time>2026-04-30T15:48:46.011Z</time></trkpt><trkpt lat="40.057723079000866" lon="9.154351284994513"><ele>560.6666666666667</ele><time>2026-04-30T15:48:47.011Z</time></trkpt><trkpt lat="40.05785378006863" lon="9.154116163666377"><ele>559.0</ele><time>2026-04-30T15:48:48.011Z</time></trkpt><trkpt lat="40.057960624622204" lon="9.153862258332989"><ele>559.0</ele><time>2026-04-30T15:48:49.011Z</time></trkpt><trkpt lat="40.0580804885698" lon="9.153619522544618"><ele>559.0</ele><time>2026-04-30T15:48:50.011Z</time></trkpt><trkpt lat="40.05822122801636" lon="9.153393738600323"><ele>559.0</ele><time>2026-04-30T15:48:51.011Z</time></trkpt><trkpt lat="40.05837111817363" lon="9.153181535328319"><ele>557.0</ele><time>2026-04-30T15:48:52.011Z</time></trkpt><trkpt lat="40.058524119287355" lon="9.152976489927669"><ele>555.0</ele><time>2026-04-30T15:48:53.011Z</time></trkpt><trkpt lat="40.05866999520746" lon="9.152767400342947"><ele>553.0</ele><time>2026-04-30T15:48:54.011Z</time></trkpt><trkpt lat="40.05881051836765" lon="9.152565949813942"><ele>554.3333333333334</ele><time>2026-04-30T15:48:55.011Z</time></trkpt><trkpt lat="40.058936872381295" lon="9.152358553376152"><ele>555.6666666666666</ele><time>2026-04-30T15:48:56.011Z</time></trkpt><trkpt lat="40.0590544041104" lon="9.152158086687562"><ele>557.0</ele><time>2026-04-30T15:48:57.011Z</time></trkpt><trkpt lat="40.05918001643773" lon="9.151996541766014"><ele>557.0</ele><time>2026-04-30T15:48:58.011Z</time></trkpt><trkpt lat="40.05935391117275" lon="9.151903590315627"><ele>557.0</ele><time>2026-04-30T15:48:59.011Z</time></trkpt><trkpt lat="40.059543011605456" lon="9.151832837462235"><ele>557.0</ele><time>2026-04-30T15:49:00.011Z</time></trkpt><trkpt lat="40.05971544140415" lon="9.151704650714478"><ele>554.0</ele><time>2026-04-30T15:49:01.011Z</time></trkpt><trkpt lat="40.05985526693693" lon="9.151503886203557"><ele>551.0</ele><time>2026-04-30T15:49:02.011Z</time></trkpt><trkpt lat="40.060024868652235" lon="9.151332595784359"><ele>548.0</ele><time>2026-04-30T15:49:03.011Z</time></trkpt><trkpt lat="40.06022367935574" lon="9.15120906239785"><ele>548.0</ele><time>2026-04-30T15:49:04.011Z</time></trkpt><trkpt lat="40.06042730707833" lon="9.151108926513162"><ele>548.0</ele><time>2026-04-30T15:49:05.011Z</time></trkpt><trkpt lat="40.0606397342151" lon="9.151019946655579"><ele>548.0</ele><time>2026-04-30T15:49:06.011Z</time></trkpt><trkpt lat="40.06085053147132" lon="9.15095047242984"><ele>546.0</ele><time>2026-04-30T15:49:07.011Z</time></trkpt><trkpt lat="40.06104487199955" lon="9.150876276289878"><ele>544.0</ele><time>2026-04-30T15:49:08.011Z</time></trkpt><trkpt lat="40.061215384623964" lon="9.15073857921558"><ele>542.0</ele><time>2026-04-30T15:49:09.011Z</time></trkpt><trkpt lat="40.06138791825134" lon="9.15056654457103"><ele>542.0</ele><time>2026-04-30T15:49:10.011Z</time></trkpt><trkpt lat="40.0615850980138" lon="9.150426696725681"><ele>542.0</ele><time>2026-04-30T15:49:11.011Z</time></trkpt><trkpt lat="40.06179578466356" lon="9.150287583567101"><ele>540.6666666666666</ele><time>2026-04-30T15:49:12.011Z</time></trkpt><trkpt lat="40.06197551985219" lon="9.150111759600485"><ele>539.3333333333334</ele><time>2026-04-30T15:49:13.011Z</time></trkpt><trkpt lat="40.06213238035221" lon="9.149932278046888"><ele>538.0</ele><time>2026-04-30T15:49:14.011Z</time></trkpt><trkpt lat="40.06229852649799" lon="9.149801766563925"><ele>541.6666666666667</ele><time>2026-04-30T15:49:15.011Z</time></trkpt><trkpt lat="40.06251022520826" lon="9.149768676068517"><ele>545.3333333333334</ele><time>2026-04-30T15:49:16.011Z</time></trkpt><trkpt lat="40.06273059829076" lon="9.149791204083394"><ele>549.0</ele><time>2026-04-30T15:49:17.011Z</time></trkpt><trkpt lat="40.062956545450966" lon="9.14982151833392"><ele>549.0</ele><time>2026-04-30T15:49:18.011Z</time></trkpt><trkpt lat="40.06315627951748" lon="9.149829916389157"><ele>549.0</ele><time>2026-04-30T15:49:19.011Z</time></trkpt><trkpt lat="40.06333764306132" lon="9.149842386413757"><ele>549.0</ele><time>2026-04-30T15:49:20.011Z</time></trkpt><trkpt lat="40.06351388041069" lon="9.149879260217554"><ele>557.6666666666666</ele><time>2026-04-30T15:49:21.011Z</time></trkpt><trkpt lat="40.06368306258587" lon="9.149943478729202"><ele>566.3333333333333</ele><time>2026-04-30T15:49:22.011Z</time></trkpt><trkpt lat="40.06384353947875" lon="9.150016860311583"><ele>575.0</ele><time>2026-04-30T15:49:23.011Z</time></trkpt><trkpt lat="40.06400249962011" lon="9.150069096070059"><ele>573.5</ele><time>2026-04-30T15:49:24.011Z</time></trkpt><trkpt lat="40.06415542938757" lon="9.150111231274709"><ele>572.0</ele><time>2026-04-30T15:49:25.011Z</time></trkpt><trkpt lat="40.06427884022423" lon="9.150158270171676"><ele>570.5</ele><time>2026-04-30T15:49:26.011Z</time></trkpt><trkpt lat="40.06437710237561" lon="9.150248439275789"><ele>569.0</ele><time>2026-04-30T15:49:27.011Z</time></trkpt><trkpt lat="40.06443189956953" lon="9.150380715686818"><ele>569.0</ele><time>2026-04-30T15:49:28.011Z</time></trkpt><trkpt lat="40.06446043450064" lon="9.150523247226033"><ele>569.0</ele><time>2026-04-30T15:49:29.011Z</time></trkpt><trkpt lat="40.06448985351831" lon="9.15064718007656"><ele>569.0</ele><time>2026-04-30T15:49:30.011Z</time></trkpt><trkpt lat="40.06452647742668" lon="9.150754192186769"><ele>569.0</ele><time>2026-04-30T15:49:31.011Z</time></trkpt><trkpt lat="40.064555576234795" lon="9.150889141288308"><ele>569.0</ele><time>2026-04-30T15:49:32.011Z</time></trkpt><trkpt lat="40.06459330089731" lon="9.151034662851988"><ele>571.5</ele><time>2026-04-30T15:49:33.011Z</time></trkpt><trkpt lat="40.064650961373424" lon="9.151168554128207"><ele>574.0</ele><time>2026-04-30T15:49:34.011Z</time></trkpt><trkpt lat="40.06472120938027" lon="9.151283048247002"><ele>576.5</ele><time>2026-04-30T15:49:35.011Z</time></trkpt><trkpt lat="40.064800663019184" lon="9.151385903094072"><ele>579.0</ele><time>2026-04-30T15:49:36.011Z</time></trkpt><trkpt lat="40.0648975537451" lon="9.151448887282053"><ele>576.0</ele><time>2026-04-30T15:49:37.011Z</time></trkpt><trkpt lat="40.06500787322047" lon="9.151431261728117"><ele>573.0</ele><time>2026-04-30T15:49:38.011Z</time></trkpt><trkpt lat="40.065103245092416" lon="9.151342065831995"><ele>570.0</ele><time>2026-04-30T15:49:39.011Z</time></trkpt><trkpt lat="40.06516525984487" lon="9.151225010593699"><ele>567.0</ele><time>2026-04-30T15:49:40.01Z</time></trkpt><trkpt lat="40.065219698170665" lon="9.1510879646195"><ele>567.0</ele><time>2026-04-30T15:49:41.01Z</time></trkpt><trkpt lat="40.06528102952731" lon="9.150957984726187"><ele>567.0</ele><time>2026-04-30T15:49:42.01Z</time></trkpt><trkpt lat="40.0653463945693" lon="9.15082085908107"><ele>567.0</ele><time>2026-04-30T15:49:43.01Z</time></trkpt><trkpt lat="40.06541276248684" lon="9.150681091265517"><ele>567.0</ele><time>2026-04-30T15:49:44.01Z</time></trkpt><trkpt lat="40.06548754332983" lon="9.15055109602476"><ele>567.25</ele><time>2026-04-30T15:49:45.01Z</time></trkpt><trkpt lat="40.06558410739521" lon="9.150452812174478"><ele>567.5</ele><time>2026-04-30T15:49:46.01Z</time></trkpt><trkpt lat="40.065692724788114" lon="9.15038985140017"><ele>567.75</ele><time>2026-04-30T15:49:47.01Z</time></trkpt><trkpt lat="40.065799626530364" lon="9.150328866722138"><ele>568.0</ele><time>2026-04-30T15:49:48.012Z</time></trkpt><trkpt lat="40.06589520937098" lon="9.150240225767227"><ele>568.0</ele><time>2026-04-30T15:49:49.012Z</time></trkpt><trkpt lat="40.06596833371346" lon="9.150116364410865"><ele>568.0</ele><time>2026-04-30T15:49:50.012Z</time></trkpt><trkpt lat="40.06602869295768" lon="9.149984691555579"><ele>568.0</ele><time>2026-04-30T15:49:51.012Z</time></trkpt><trkpt lat="40.06610541891771" lon="9.149869049216678"><ele>568.0</ele><time>2026-04-30T15:49:52.012Z</time></trkpt><trkpt lat="40.0662055691167" lon="9.149780017329915"><ele>564.0</ele><time>2026-04-30T15:49:53.012Z</time></trkpt><trkpt lat="40.06631218971063" lon="9.149698790450293"><ele>560.0</ele><time>2026-04-30T15:49:54.012Z</time></trkpt><trkpt lat="40.06641246777916" lon="9.149609682255514"><ele>556.0</ele><time>2026-04-30T15:49:55.012Z</time></trkpt><trkpt lat="40.06650305035147" lon="9.14952971301605"><ele>552.0</ele><time>2026-04-30T15:49:56.012Z</time></trkpt><trkpt lat="40.06660091870746" lon="9.149486267287607"><ele>554.2</ele><time>2026-04-30T15:49:57.012Z</time></trkpt><trkpt lat="40.06670233133948" lon="9.149484566192243"><ele>556.4000000000001</ele><time>2026-04-30T15:49:58.012Z</time></trkpt><trkpt lat="40.06680650060373" lon="9.149523797741555"><ele>558.5999999999999</ele><time>2026-04-30T15:49:59.012Z</time></trkpt><trkpt lat="40.06690861004482" lon="9.149568852096676"><ele>560.8</ele><time>2026-04-30T15:50:00.012Z</time></trkpt><trkpt lat="40.067008610910996" lon="9.149607715348184"><ele>563.0</ele><time>2026-04-30T15:50:01.012Z</time></trkpt><trkpt lat="40.06710316637165" lon="9.149641133111288"><ele>563.0</ele><time>2026-04-30T15:50:02.012Z</time></trkpt><trkpt lat="40.067191473656685" lon="9.1496229558347"><ele>563.0</ele><time>2026-04-30T15:50:03.012Z</time></trkpt><trkpt lat="40.067252608461374" lon="9.149535892241495"><ele>563.0</ele><time>2026-04-30T15:50:04.012Z</time></trkpt><trkpt lat="40.067265599339784" lon="9.149410422281022"><ele>563.0</ele><time>2026-04-30T15:50:05.012Z</time></trkpt><trkpt lat="40.067247649082944" lon="9.149284078225403"><ele>563.0</ele><time>2026-04-30T15:50:06.012Z</time></trkpt><trkpt lat="40.06723779850962" lon="9.14914902970296"><ele>562.6</ele><time>2026-04-30T15:50:07.012Z</time></trkpt><trkpt lat="40.06725354960682" lon="9.149031249156499"><ele>562.1999999999999</ele><time>2026-04-30T15:50:08.012Z</time></trkpt><trkpt lat="40.067319624040174" lon="9.148941467729866"><ele>561.8</ele><time>2026-04-30T15:50:09.012Z</time></trkpt><trkpt lat="40.06741808346907" lon="9.148870963325031"><ele>561.4</ele><time>2026-04-30T15:50:10.012Z</time></trkpt><trkpt lat="40.06749954472507" lon="9.148802415590508"><ele>561.0</ele><time>2026-04-30T15:50:11.012Z</time></trkpt><trkpt lat="40.06757116724722" lon="9.148709811076753"><ele>561.0</ele><time>2026-04-30T15:50:12.012Z</time></trkpt><trkpt lat="40.06764353388299" lon="9.148614133984353"><ele>561.0</ele><time>2026-04-30T15:50:13.012Z</time></trkpt><trkpt lat="40.06772036218135" lon="9.148514299589552"><ele>561.0</ele><time>2026-04-30T15:50:14.012Z</time></trkpt><trkpt lat="40.0677932443127" lon="9.148413706642343"><ele>561.0</ele><time>2026-04-30T15:50:15.012Z</time></trkpt><trkpt lat="40.06787096811792" lon="9.148317022169826"><ele>561.0</ele><time>2026-04-30T15:50:16.012Z</time></trkpt><trkpt lat="40.067947199712094" lon="9.148214734052088"><ele>558.8</ele><time>2026-04-30T15:50:17.012Z</time></trkpt><trkpt lat="40.06801630666003" lon="9.148104896413333"><ele>556.6</ele><time>2026-04-30T15:50:18.012Z</time></trkpt><trkpt lat="40.06806860942435" lon="9.147981920121874"><ele>554.4</ele><time>2026-04-30T15:50:19.012Z</time></trkpt><trkpt lat="40.0681165975791" lon="9.147867686125013"><ele>552.2</ele><time>2026-04-30T15:50:20.012Z</time></trkpt><trkpt lat="40.06816781460485" lon="9.14776346416316"><ele>550.0</ele><time>2026-04-30T15:50:21.012Z</time></trkpt><trkpt lat="40.06823039781043" lon="9.147675883936227"><ele>552.0</ele><time>2026-04-30T15:50:22.012Z</time></trkpt><trkpt lat="40.068314577306815" lon="9.147639095431543"><ele>554.0</ele><time>2026-04-30T15:50:23.012Z</time></trkpt><trkpt lat="40.06848408147961" lon="9.147663984108178"><ele>556.0</ele><time>2026-04-30T15:50:25.012Z</time></trkpt><trkpt lat="40.06856333754483" lon="9.147706882979719"><ele>558.0</ele><time>2026-04-30T15:50:26.012Z</time></trkpt><trkpt lat="40.06863643303397" lon="9.147747029333491"><ele>560.0</ele><time>2026-04-30T15:50:27.012Z</time></trkpt><trkpt lat="40.06872308265355" lon="9.147769743993184"><ele>560.0</ele><time>2026-04-30T15:50:28.012Z</time></trkpt><trkpt lat="40.06880752174527" lon="9.147753165115425"><ele>560.0</ele><time>2026-04-30T15:50:29.012Z</time></trkpt><trkpt lat="40.068890196782014" lon="9.147716984637599"><ele>560.0</ele><time>2026-04-30T15:50:30.012Z</time></trkpt><trkpt lat="40.068971206102844" lon="9.14767428420818"><ele>560.0</ele><time>2026-04-30T15:50:31.012Z</time></trkpt><trkpt lat="40.069054713261984" lon="9.147637310244194"><ele>560.0</ele><time>2026-04-30T15:50:32.012Z</time></trkpt><trkpt lat="40.06913760163555" lon="9.147591017282851"><ele>560.0</ele><time>2026-04-30T15:50:33.012Z</time></trkpt><trkpt lat="40.06922071746279" lon="9.147550321672078"><ele>560.8333333333333</ele><time>2026-04-30T15:50:34.012Z</time></trkpt><trkpt lat="40.06930191266265" lon="9.147513157491536"><ele>561.6666666666666</ele><time>2026-04-30T15:50:35.012Z</time></trkpt><trkpt lat="40.06938588133292" lon="9.147513451214715"><ele>562.5</ele><time>2026-04-30T15:50:36.012Z</time></trkpt><trkpt lat="40.069475295050566" lon="9.147540066661445"><ele>563.3333333333334</ele><time>2026-04-30T15:50:37.012Z</time></trkpt><trkpt lat="40.06955713910498" lon="9.147567417359099"><ele>564.1666666666667</ele><time>2026-04-30T15:50:38.012Z</time></trkpt><trkpt lat="40.069646184950756" lon="9.147595322466149"><ele>565.0</ele><time>2026-04-30T15:50:39.012Z</time></trkpt><trkpt lat="40.06972814796425" lon="9.147647247518599"><ele>565.0</ele><time>2026-04-30T15:50:40.012Z</time></trkpt><trkpt lat="40.069806125028094" lon="9.147678160473406"><ele>565.0</ele><time>2026-04-30T15:50:41.012Z</time></trkpt><trkpt lat="40.06988907672754" lon="9.147710493245997"><ele>565.0</ele><time>2026-04-30T15:50:42.012Z</time></trkpt><trkpt lat="40.069970718839556" lon="9.147739126010828"><ele>565.0</ele><time>2026-04-30T15:50:43.012Z</time></trkpt><trkpt lat="40.070054140067846" lon="9.147777722501235"><ele>565.0</ele><time>2026-04-30T15:50:44.012Z</time></trkpt><trkpt lat="40.07013817000145" lon="9.147817959014876"><ele>565.0</ele><time>2026-04-30T15:50:45.012Z</time></trkpt><trkpt lat="40.07021894852699" lon="9.147856849736941"><ele>565.3333333333334</ele><time>2026-04-30T15:50:46.012Z</time></trkpt><trkpt lat="40.0702950042206" lon="9.147873514222052"><ele>565.6666666666667</ele><time>2026-04-30T15:50:47.012Z</time></trkpt><trkpt lat="40.07037996492293" lon="9.14789103050789"><ele>566.0</ele><time>2026-04-30T15:50:48.012Z</time></trkpt><trkpt lat="40.07046943015681" lon="9.147871350701827"><ele>566.3333333333334</ele><time>2026-04-30T15:50:49.012Z</time></trkpt><trkpt lat="40.07055431549499" lon="9.147829005080084"><ele>566.6666666666666</ele><time>2026-04-30T15:50:50.012Z</time></trkpt><trkpt lat="40.070637900735996" lon="9.14778214201382"><ele>567.0</ele><time>2026-04-30T15:50:51.012Z</time></trkpt><trkpt lat="40.07072593798889" lon="9.147737339319173"><ele>568.0</ele><time>2026-04-30T15:50:52.012Z</time></trkpt><trkpt lat="40.07081745137667" lon="9.14769779859099"><ele>569.0</ele><time>2026-04-30T15:50:53.012Z</time></trkpt><trkpt lat="40.070904295543464" lon="9.14765603696724"><ele>570.0</ele><time>2026-04-30T15:50:54.012Z</time></trkpt><trkpt lat="40.070995394673794" lon="9.147617259124486"><ele>571.0</ele><time>2026-04-30T15:50:55.012Z</time></trkpt><trkpt lat="40.071087021548564" lon="9.147582695029413"><ele>572.0</ele><time>2026-04-30T15:50:56.012Z</time></trkpt><trkpt lat="40.07117907689569" lon="9.147550755321802"><ele>572.0</ele><time>2026-04-30T15:50:57.012Z</time></trkpt><trkpt lat="40.07127288057956" lon="9.147523298337422"><ele>572.0</ele><time>2026-04-30T15:50:58.012Z</time></trkpt><trkpt lat="40.07136613223448" lon="9.147494129717758"><ele>572.0</ele><time>2026-04-30T15:50:59.012Z</time></trkpt><trkpt lat="40.07146143752818" lon="9.147472472007971"><ele>572.0</ele><time>2026-04-30T15:51:00.012Z</time></trkpt><trkpt lat="40.07155583428865" lon="9.147455740123624"><ele>572.0</ele><time>2026-04-30T15:51:01.012Z</time></trkpt><trkpt lat="40.07166684760623" lon="9.14744937034454"><ele>568.0</ele><time>2026-04-30T15:51:02.012Z</time></trkpt><trkpt lat="40.071793865305764" lon="9.14743252076694"><ele>564.0</ele><time>2026-04-30T15:51:03.012Z</time></trkpt><trkpt lat="40.07193918399576" lon="9.147388693266876"><ele>560.0</ele><time>2026-04-30T15:51:04.012Z</time></trkpt><trkpt lat="40.0721061311374" lon="9.147330078651676"><ele>560.0</ele><time>2026-04-30T15:51:05.012Z</time></trkpt><trkpt lat="40.072298141972695" lon="9.147258344120976"><ele>560.0</ele><time>2026-04-30T15:51:06.012Z</time></trkpt><trkpt lat="40.07252711764071" lon="9.147183894892507"><ele>560.0</ele><time>2026-04-30T15:51:07.012Z</time></trkpt><trkpt lat="40.07277953310522" lon="9.147113161913845"><ele>565.5</ele><time>2026-04-30T15:51:08.012Z</time></trkpt><trkpt lat="40.0730462471263" lon="9.147071295721446"><ele>571.0</ele><time>2026-04-30T15:51:09.012Z</time></trkpt><trkpt lat="40.07328344739086" lon="9.147041138640933"><ele>576.0</ele><time>2026-04-30T15:51:10.012Z</time></trkpt><trkpt lat="40.073524652372306" lon="9.146947232202722"><ele>581.0</ele><time>2026-04-30T15:51:11.012Z</time></trkpt><trkpt lat="40.07376600586305" lon="9.14678198855778"><ele>581.0</ele><time>2026-04-30T15:51:12.012Z</time></trkpt><trkpt lat="40.07398898334976" lon="9.14663266896994"><ele>581.0</ele><time>2026-04-30T15:51:13.012Z</time></trkpt><trkpt lat="40.074190940884165" lon="9.146525629606993"><ele>579.0</ele><time>2026-04-30T15:51:14.012Z</time></trkpt><trkpt lat="40.074406031483" lon="9.146500557642712"><ele>577.0</ele><time>2026-04-30T15:51:15.012Z</time></trkpt><trkpt lat="40.07462691769634" lon="9.146533062499799"><ele>575.0</ele><time>2026-04-30T15:51:16.012Z</time></trkpt><trkpt lat="40.0748120051149" lon="9.146586696151312"><ele>584.6666666666666</ele><time>2026-04-30T15:51:17.012Z</time></trkpt><trkpt lat="40.074953025724646" lon="9.146710970200004"><ele>594.3333333333334</ele><time>2026-04-30T15:51:18.012Z</time></trkpt><trkpt lat="40.075063130065544" lon="9.146872143429785"><ele>604.0</ele><time>2026-04-30T15:51:19.012Z</time></trkpt><trkpt lat="40.075168904242936" lon="9.146986724193304"><ele>604.0</ele><time>2026-04-30T15:51:20.012Z</time></trkpt><trkpt lat="40.07529988830936" lon="9.147003239637932"><ele>604.0</ele><time>2026-04-30T15:51:21.012Z</time></trkpt><trkpt lat="40.0754307452153" lon="9.146920757109557"><ele>604.0</ele><time>2026-04-30T15:51:22.012Z</time></trkpt><trkpt lat="40.07550633512266" lon="9.146736457620676"><ele>604.0</ele><time>2026-04-30T15:51:23.012Z</time></trkpt><trkpt lat="40.075568408013616" lon="9.146545649302155"><ele>600.3333333333334</ele><time>2026-04-30T15:51:24.012Z</time></trkpt><trkpt lat="40.07567624706308" lon="9.146431425859868"><ele>596.6666666666666</ele><time>2026-04-30T15:51:25.012Z</time></trkpt><trkpt lat="40.07583350679664" lon="9.146378648316626"><ele>593.0</ele><time>2026-04-30T15:51:26.012Z</time></trkpt><trkpt lat="40.0760224402477" lon="9.146364594406325"><ele>593.0</ele><time>2026-04-30T15:51:27.012Z</time></trkpt><trkpt lat="40.07625333086657" lon="9.146371969240667"><ele>593.0</ele><time>2026-04-30T15:51:28.012Z</time></trkpt><trkpt lat="40.076506751932385" lon="9.146363440219252"><ele>596.0</ele><time>2026-04-30T15:51:29.012Z</time></trkpt><trkpt lat="40.076786995695876" lon="9.1463562502008"><ele>599.0</ele><time>2026-04-30T15:51:30.012Z</time></trkpt><trkpt lat="40.07706750208382" lon="9.146345869769958"><ele>599.0</ele><time>2026-04-30T15:51:31.012Z</time></trkpt><trkpt lat="40.07730820427853" lon="9.146343887932076"><ele>599.0</ele><time>2026-04-30T15:51:32.012Z</time></trkpt><trkpt lat="40.07751972565893" lon="9.146405603644787"><ele>599.0</ele><time>2026-04-30T15:51:33.012Z</time></trkpt><trkpt lat="40.07771360909461" lon="9.146533503768127"><ele>599.0</ele><time>2026-04-30T15:51:34.012Z</time></trkpt><trkpt lat="40.077876036222165" lon="9.146713205764765"><ele>599.0</ele><time>2026-04-30T15:51:35.012Z</time></trkpt><trkpt lat="40.07800250206894" lon="9.146894623870711"><ele>604.3333333333333</ele><time>2026-04-30T15:51:36.012Z</time></trkpt><trkpt lat="40.078125793978614" lon="9.147042228481688"><ele>609.6666666666666</ele><time>2026-04-30T15:51:37.012Z</time></trkpt><trkpt lat="40.07826626998693" lon="9.147085144328232"><ele>615.0</ele><time>2026-04-30T15:51:38.012Z</time></trkpt><trkpt lat="40.078413735297815" lon="9.14701995869003"><ele>615.0</ele><time>2026-04-30T15:51:39.012Z</time></trkpt><trkpt lat="40.07855832328926" lon="9.146902767471136"><ele>615.0</ele><time>2026-04-30T15:51:40.012Z</time></trkpt><trkpt lat="40.078739830608534" lon="9.146850997986371"><ele>615.0</ele><time>2026-04-30T15:51:41.012Z</time></trkpt><trkpt lat="40.07894903154794" lon="9.146899983562777"><ele>616.5</ele><time>2026-04-30T15:51:42.012Z</time></trkpt><trkpt lat="40.07917265207937" lon="9.146973394681542"><ele>618.0</ele><time>2026-04-30T15:51:43.012Z</time></trkpt><trkpt lat="40.079396001855145" lon="9.146927210734981"><ele>618.0</ele><time>2026-04-30T15:51:44.012Z</time></trkpt><trkpt lat="40.07959490176201" lon="9.14681363998928"><ele>618.0</ele><time>2026-04-30T15:51:45.012Z</time></trkpt><trkpt lat="40.07977083513804" lon="9.14664849602409"><ele>618.0</ele><time>2026-04-30T15:51:46.012Z</time></trkpt><trkpt lat="40.079983475622555" lon="9.146596952714274"><ele>622.0</ele><time>2026-04-30T15:51:47.012Z</time></trkpt><trkpt lat="40.08018572575094" lon="9.146618672109387"><ele>626.0</ele><time>2026-04-30T15:51:48.012Z</time></trkpt><trkpt lat="40.080361238111074" lon="9.14671298232579"><ele>630.0</ele><time>2026-04-30T15:51:49.012Z</time></trkpt><trkpt lat="40.08052815517718" lon="9.146869653762137"><ele>630.0</ele><time>2026-04-30T15:51:50.012Z</time></trkpt><trkpt lat="40.080711857273066" lon="9.147007349418713"><ele>630.0</ele><time>2026-04-30T15:51:51.012Z</time></trkpt><trkpt lat="40.080928964911635" lon="9.147102430833671"><ele>630.0</ele><time>2026-04-30T15:51:52.012Z</time></trkpt><trkpt lat="40.08114024607918" lon="9.147159885787529"><ele>628.6666666666666</ele><time>2026-04-30T15:51:53.012Z</time></trkpt><trkpt lat="40.0813309315739" lon="9.147140444785965"><ele>627.3333333333333</ele><time>2026-04-30T15:51:54.014Z</time></trkpt><trkpt lat="40.081516874446436" lon="9.147062263847864"><ele>626.0</ele><time>2026-04-30T15:51:55.013Z</time></trkpt><trkpt lat="40.08170817969513" lon="9.147029378953693"><ele>626.0</ele><time>2026-04-30T15:51:56.013Z</time></trkpt><trkpt lat="40.081905239159106" lon="9.147099360952305"><ele>626.0</ele><time>2026-04-30T15:51:57.014Z</time></trkpt><trkpt lat="40.082093577496835" lon="9.147208474273642"><ele>626.0</ele><time>2026-04-30T15:51:58.013Z</time></trkpt><trkpt lat="40.08230124057257" lon="9.14724704966003"><ele>629.3333333333333</ele><time>2026-04-30T15:51:59.013Z</time></trkpt><trkpt lat="40.082518086682924" lon="9.147203631976637"><ele>632.6666666666666</ele><time>2026-04-30T15:52:00.013Z</time></trkpt><trkpt lat="40.08269858508298" lon="9.147125391920307"><ele>636.0</ele><time>2026-04-30T15:52:01.013Z</time></trkpt><trkpt lat="40.082832994624155" lon="9.146938673729837"><ele>636.0</ele><time>2026-04-30T15:52:02.013Z</time></trkpt><trkpt lat="40.08291716235338" lon="9.146710863786659"><ele>636.0</ele><time>2026-04-30T15:52:03.013Z</time></trkpt><trkpt lat="40.08300814340818" lon="9.146479562507178"><ele>636.0</ele><time>2026-04-30T15:52:04.012Z</time></trkpt><trkpt lat="40.08319018284597" lon="9.146312391476334"><ele>638.5</ele><time>2026-04-30T15:52:05.012Z</time></trkpt><trkpt lat="40.08340616235177" lon="9.146174868356821"><ele>641.0</ele><time>2026-04-30T15:52:06.013Z</time></trkpt><trkpt lat="40.083613952511584" lon="9.146018626882089"><ele>641.0</ele><time>2026-04-30T15:52:07.013Z</time></trkpt><trkpt lat="40.08377746648064" lon="9.14586624665513"><ele>641.0</ele><time>2026-04-30T15:52:08.013Z</time></trkpt><trkpt lat="40.08390774734818" lon="9.145721128660753"><ele>641.0</ele><time>2026-04-30T15:52:09.013Z</time></trkpt><trkpt lat="40.084032097905016" lon="9.14558755113749"><ele>639.75</ele><time>2026-04-30T15:52:10.013Z</time></trkpt><trkpt lat="40.084150172749176" lon="9.14547182132982"><ele>638.5</ele><time>2026-04-30T15:52:11.013Z</time></trkpt><trkpt lat="40.08427573332511" lon="9.145396382812436"><ele>637.25</ele><time>2026-04-30T15:52:12.013Z</time></trkpt><trkpt lat="40.08441130248046" lon="9.14536166590079"><ele>636.0</ele><time>2026-04-30T15:52:13.013Z</time></trkpt><trkpt lat="40.08455602290842" lon="9.145376624690948"><ele>636.0</ele><time>2026-04-30T15:52:14.013Z</time></trkpt><trkpt lat="40.0847107553982" lon="9.14539808377483"><ele>636.0</ele><time>2026-04-30T15:52:15.013Z</time></trkpt><trkpt lat="40.08490385812249" lon="9.145415459632764"><ele>636.0</ele><time>2026-04-30T15:52:16.013Z</time></trkpt><trkpt lat="40.085112011290875" lon="9.145399971006372"><ele>636.6666666666666</ele><time>2026-04-30T15:52:17.013Z</time></trkpt><trkpt lat="40.08532548414988" lon="9.145403473051113"><ele>637.3333333333333</ele><time>2026-04-30T15:52:18.013Z</time></trkpt><trkpt lat="40.08552896054836" lon="9.145488662343604"><ele>638.0</ele><time>2026-04-30T15:52:19.013Z</time></trkpt><trkpt lat="40.0857286539733" lon="9.145613337910516"><ele>653.5</ele><time>2026-04-30T15:52:20.013Z</time></trkpt><trkpt lat="40.0859512201683" lon="9.145718575945068"><ele>669.0</ele><time>2026-04-30T15:52:21.013Z</time></trkpt><trkpt lat="40.08616779279916" lon="9.145853324232199"><ele>669.0</ele><time>2026-04-30T15:52:22.013Z</time></trkpt><trkpt lat="40.08635779633942" lon="9.14603354038822"><ele>669.0</ele><time>2026-04-30T15:52:23.013Z</time></trkpt><trkpt lat="40.08653650600629" lon="9.146221329125618"><ele>658.0</ele><time>2026-04-30T15:52:24.013Z</time></trkpt><trkpt lat="40.08675685870675" lon="9.146313717321972"><ele>647.0</ele><time>2026-04-30T15:52:25.012Z</time></trkpt><trkpt lat="40.086996290101844" lon="9.146363608384151"><ele>647.0</ele><time>2026-04-30T15:52:26.012Z</time></trkpt><trkpt lat="40.087167883075445" lon="9.146456494327154"><ele>647.0</ele><time>2026-04-30T15:52:27.012Z</time></trkpt><trkpt lat="40.08735368660826" lon="9.146472052576092"><ele>647.0</ele><time>2026-04-30T15:52:28.012Z</time></trkpt><trkpt lat="40.08752198859381" lon="9.146381227203422"><ele>648.6666666666666</ele><time>2026-04-30T15:52:29.012Z</time></trkpt><trkpt lat="40.08765712759603" lon="9.146249452781994"><ele>650.3333333333334</ele><time>2026-04-30T15:52:30.012Z</time></trkpt><trkpt lat="40.08780915978458" lon="9.146115654419061"><ele>652.0</ele><time>2026-04-30T15:52:31.012Z</time></trkpt><trkpt lat="40.087996194651446" lon="9.146029973822012"><ele>652.0</ele><time>2026-04-30T15:52:32.012Z</time></trkpt><trkpt lat="40.08819401185001" lon="9.146031424637345"><ele>652.0</ele><time>2026-04-30T15:52:33.012Z</time></trkpt><trkpt lat="40.08837962337957" lon="9.146111629108265"><ele>652.0</ele><time>2026-04-30T15:52:34.012Z</time></trkpt><trkpt lat="40.0885597652162" lon="9.146241503797741"><ele>655.6666666666667</ele><time>2026-04-30T15:52:35.012Z</time></trkpt><trkpt lat="40.088734338820146" lon="9.146385915143975"><ele>659.3333333333334</ele><time>2026-04-30T15:52:36.012Z</time></trkpt><trkpt lat="40.08889326397546" lon="9.146583570661248"><ele>663.0</ele><time>2026-04-30T15:52:37.012Z</time></trkpt><trkpt lat="40.089032285325295" lon="9.146821617138274"><ele>671.5</ele><time>2026-04-30T15:52:38.012Z</time></trkpt><trkpt lat="40.0891970838716" lon="9.14704713467685"><ele>680.0</ele><time>2026-04-30T15:52:39.012Z</time></trkpt><trkpt lat="40.08939626454542" lon="9.147214395523992"><ele>680.0</ele><time>2026-04-30T15:52:40.012Z</time></trkpt><trkpt lat="40.08962746417958" lon="9.147324371311386"><ele>680.0</ele><time>2026-04-30T15:52:41.012Z</time></trkpt><trkpt lat="40.089869788092315" lon="9.147420166641185"><ele>686.0</ele><time>2026-04-30T15:52:42.012Z</time></trkpt><trkpt lat="40.090103791948586" lon="9.147538331351797"><ele>692.0</ele><time>2026-04-30T15:52:43.012Z</time></trkpt><trkpt lat="40.090291997773285" lon="9.147688312162584"><ele>692.0</ele><time>2026-04-30T15:52:44.012Z</time></trkpt><trkpt lat="40.090439030422125" lon="9.147855995001033"><ele>692.0</ele><time>2026-04-30T15:52:45.012Z</time></trkpt><trkpt lat="40.09053511531252" lon="9.14805220575515"><ele>692.0</ele><time>2026-04-30T15:52:46.012Z</time></trkpt><trkpt lat="40.09056767168848" lon="9.148302482825143"><ele>696.6666666666666</ele><time>2026-04-30T15:52:47.012Z</time></trkpt><trkpt lat="40.09054922626654" lon="9.148565872247737"><ele>701.3333333333334</ele><time>2026-04-30T15:52:48.012Z</time></trkpt><trkpt lat="40.09048097670589" lon="9.14882862960657"><ele>706.0</ele><time>2026-04-30T15:52:49.012Z</time></trkpt><trkpt lat="40.09045605307695" lon="9.149098707940034"><ele>708.0</ele><time>2026-04-30T15:52:50.012Z</time></trkpt><trkpt lat="40.09049883633284" lon="9.149392373879902"><ele>710.0</ele><time>2026-04-30T15:52:51.012Z</time></trkpt><trkpt lat="40.09058799452206" lon="9.149693889651735"><ele>714.0</ele><time>2026-04-30T15:52:52.012Z</time></trkpt><trkpt lat="40.09071596384877" lon="9.149975339114265"><ele>718.0</ele><time>2026-04-30T15:52:53.012Z</time></trkpt><trkpt lat="40.090851372289826" lon="9.150219172906747"><ele>712.6666666666667</ele><time>2026-04-30T15:52:54.012Z</time></trkpt><trkpt lat="40.09094457606524" lon="9.150464068964492"><ele>707.3333333333334</ele><time>2026-04-30T15:52:55.012Z</time></trkpt><trkpt lat="40.09097496413506" lon="9.150703279488608"><ele>702.0</ele><time>2026-04-30T15:52:56.012Z</time></trkpt><trkpt lat="40.0909123004547" lon="9.150913553415858"><ele>702.0</ele><time>2026-04-30T15:52:57.012Z</time></trkpt><trkpt lat="40.090772624409645" lon="9.151093013715473"><ele>702.0</ele><time>2026-04-30T15:52:58.012Z</time></trkpt><trkpt lat="40.09059085958635" lon="9.151248037035266"><ele>702.0</ele><time>2026-04-30T15:52:59.012Z</time></trkpt><trkpt lat="40.09039590792692" lon="9.15138792129224"><ele>702.0</ele><time>2026-04-30T15:53:00.012Z</time></trkpt><trkpt lat="40.09020216326522" lon="9.151539894626008"><ele>702.0</ele><time>2026-04-30T15:53:01.012Z</time></trkpt><trkpt lat="40.09000598917737" lon="9.151712630771199"><ele>710.0</ele><time>2026-04-30T15:53:02.012Z</time></trkpt><trkpt lat="40.089790518046875" lon="9.151884227956762"><ele>718.0</ele><time>2026-04-30T15:53:03.012Z</time></trkpt><trkpt lat="40.08956037588898" lon="9.152043230404312"><ele>718.0</ele><time>2026-04-30T15:53:04.012Z</time></trkpt><trkpt lat="40.089315476581795" lon="9.15220551110283"><ele>718.0</ele><time>2026-04-30T15:53:05.012Z</time></trkpt><trkpt lat="40.089088051169355" lon="9.152378675704274"><ele>717.5</ele><time>2026-04-30T15:53:06.012Z</time></trkpt><trkpt lat="40.08889203194957" lon="9.152590256733948"><ele>717.0</ele><time>2026-04-30T15:53:07.012Z</time></trkpt><trkpt lat="40.08870627319254" lon="9.152828428032143"><ele>717.0</ele><time>2026-04-30T15:53:08.012Z</time></trkpt><trkpt lat="40.08855204287436" lon="9.153035338642812"><ele>717.0</ele><time>2026-04-30T15:53:09.012Z</time></trkpt><trkpt lat="40.088430992263255" lon="9.153221430036488"><ele>717.0</ele><time>2026-04-30T15:53:10.012Z</time></trkpt><trkpt lat="40.08837389355328" lon="9.153451350347218"><ele>711.5</ele><time>2026-04-30T15:53:11.012Z</time></trkpt><trkpt lat="40.08837304728792" lon="9.153741175962118"><ele>706.0</ele><time>2026-04-30T15:53:12.012Z</time></trkpt><trkpt lat="40.08839302706828" lon="9.154065117413284"><ele>704.6666666666667</ele><time>2026-04-30T15:53:13.012Z</time></trkpt><trkpt lat="40.088392471913885" lon="9.154364353372351"><ele>703.3333333333334</ele><time>2026-04-30T15:53:14.012Z</time></trkpt><trkpt lat="40.088373903296336" lon="9.154614867036264"><ele>702.0</ele><time>2026-04-30T15:53:15.012Z</time></trkpt><trkpt lat="40.08833399410124" lon="9.154826708353694"><ele>705.3333333333334</ele><time>2026-04-30T15:53:16.012Z</time></trkpt><trkpt lat="40.08822636712053" lon="9.154993701008374"><ele>708.6666666666667</ele><time>2026-04-30T15:53:17.012Z</time></trkpt><trkpt lat="40.08805506288291" lon="9.155074484569807"><ele>712.0</ele><time>2026-04-30T15:53:18.012Z</time></trkpt><trkpt lat="40.087885211548866" lon="9.155120391468845"><ele>712.0</ele><time>2026-04-30T15:53:19.012Z</time></trkpt><trkpt lat="40.08777185603666" lon="9.155242505416576"><ele>712.0</ele><time>2026-04-30T15:53:20.012Z</time></trkpt><trkpt lat="40.08773687884807" lon="9.155424837862794"><ele>712.0</ele><time>2026-04-30T15:53:21.012Z</time></trkpt><trkpt lat="40.08777979391668" lon="9.155638945329152"><ele>711.0</ele><time>2026-04-30T15:53:22.012Z</time></trkpt><trkpt lat="40.08788067294826" lon="9.155878975833435"><ele>710.0</ele><time>2026-04-30T15:53:23.012Z</time></trkpt><trkpt lat="40.087981571212815" lon="9.156127191179444"><ele>709.0</ele><time>2026-04-30T15:53:24.012Z</time></trkpt><trkpt lat="40.08809462260934" lon="9.156313678213735"><ele>709.0</ele><time>2026-04-30T15:53:25.012Z</time></trkpt><trkpt lat="40.08820337515491" lon="9.156446568391573"><ele>709.0</ele><time>2026-04-30T15:53:26.012Z</time></trkpt><trkpt lat="40.088277381204314" lon="9.156616007941464"><ele>709.0</ele><time>2026-04-30T15:53:27.012Z</time></trkpt><trkpt lat="40.088325954699826" lon="9.15675661497858"><ele>709.0</ele><time>2026-04-30T15:53:28.012Z</time></trkpt><trkpt lat="40.08836265537546" lon="9.156873306723636"><ele>707.6</ele><time>2026-04-30T15:53:29.012Z</time></trkpt><trkpt lat="40.08842562866633" lon="9.15695911438557"><ele>706.2</ele><time>2026-04-30T15:53:30.012Z</time></trkpt><trkpt lat="40.08851148915609" lon="9.15698227266725"><ele>704.8000000000001</ele><time>2026-04-30T15:53:31.012Z</time></trkpt><trkpt lat="40.08860528992514" lon="9.156947902549858"><ele>703.4000000000001</ele><time>2026-04-30T15:53:32.012Z</time></trkpt><trkpt lat="40.08870959096618" lon="9.156877617594542"><ele>702.0</ele><time>2026-04-30T15:53:33.012Z</time></trkpt><trkpt lat="40.08881465966371" lon="9.156809105063939"><ele>702.0</ele><time>2026-04-30T15:53:34.012Z</time></trkpt><trkpt lat="40.088920193474955" lon="9.156749616892576"><ele>702.0</ele><time>2026-04-30T15:53:35.012Z</time></trkpt><trkpt lat="40.0890291121936" lon="9.15669140531349"><ele>702.0</ele><time>2026-04-30T15:53:36.012Z</time></trkpt><trkpt lat="40.089150210210796" lon="9.156641433168575"><ele>702.0</ele><time>2026-04-30T15:53:37.012Z</time></trkpt><trkpt lat="40.08928781162148" lon="9.156610272575332"><ele>701.3333333333334</ele><time>2026-04-30T15:53:38.012Z</time></trkpt><trkpt lat="40.08944236430321" lon="9.156624623470666"><ele>700.6666666666667</ele><time>2026-04-30T15:53:39.012Z</time></trkpt><trkpt lat="40.0896161518553" lon="9.156678475750816"><ele>700.0</ele><time>2026-04-30T15:53:40.012Z</time></trkpt><trkpt lat="40.08982606362614" lon="9.156734825754897"><ele>698.5</ele><time>2026-04-30T15:53:41.012Z</time></trkpt><trkpt lat="40.09006212341831" lon="9.15679436969299"><ele>697.0</ele><time>2026-04-30T15:53:42.012Z</time></trkpt><trkpt lat="40.09030724139938" lon="9.156855013881989"><ele>697.0</ele><time>2026-04-30T15:53:43.012Z</time></trkpt><trkpt lat="40.090554463601684" lon="9.156874875530985"><ele>697.0</ele><time>2026-04-30T15:53:44.012Z</time></trkpt><trkpt lat="40.09079884031294" lon="9.15686043293322"><ele>697.6666666666667</ele><time>2026-04-30T15:53:45.012Z</time></trkpt><trkpt lat="40.09102183523723" lon="9.156796698360498"><ele>698.3333333333334</ele><time>2026-04-30T15:53:46.012Z</time></trkpt><trkpt lat="40.09122984279751" lon="9.156743260833096"><ele>699.0</ele><time>2026-04-30T15:53:47.012Z</time></trkpt><trkpt lat="40.0914288284666" lon="9.156795569621284"><ele>698.6666666666666</ele><time>2026-04-30T15:53:48.012Z</time></trkpt><trkpt lat="40.09160924337823" lon="9.156879718001175"><ele>698.3333333333333</ele><time>2026-04-30T15:53:49.012Z</time></trkpt><trkpt lat="40.091778223636254" lon="9.156941187451686"><ele>698.0</ele><time>2026-04-30T15:53:50.012Z</time></trkpt><trkpt lat="40.09194345681063" lon="9.156983532061325"><ele>698.0</ele><time>2026-04-30T15:53:51.012Z</time></trkpt><trkpt lat="40.09210396281848" lon="9.157009229635436"><ele>698.0</ele><time>2026-04-30T15:53:52.012Z</time></trkpt><trkpt lat="40.09224895039179" lon="9.15701776139212"><ele>698.0</ele><time>2026-04-30T15:53:53.012Z</time></trkpt><trkpt lat="40.09238702957045" lon="9.157026243538965"><ele>698.0</ele><time>2026-04-30T15:53:54.012Z</time></trkpt><trkpt lat="40.092515519293755" lon="9.157043109838236"><ele>698.0</ele><time>2026-04-30T15:53:55.012Z</time></trkpt><trkpt lat="40.0926423376372" lon="9.157046460770761"><ele>698.0</ele><time>2026-04-30T15:53:56.012Z</time></trkpt><trkpt lat="40.09277060028176" lon="9.157033398137338"><ele>698.0</ele><time>2026-04-30T15:53:57.012Z</time></trkpt><trkpt lat="40.092897877564575" lon="9.156985321220443"><ele>698.0</ele><time>2026-04-30T15:53:58.012Z</time></trkpt><trkpt lat="40.09301583108144" lon="9.156900058693644"><ele>698.0</ele><time>2026-04-30T15:53:59.014Z</time></trkpt><trkpt lat="40.093129064986826" lon="9.156794523268578"><ele>698.0</ele><time>2026-04-30T15:54:00.013Z</time></trkpt><trkpt lat="40.09325397293163" lon="9.156723309378938"><ele>698.0</ele><time>2026-04-30T15:54:01.013Z</time></trkpt><trkpt lat="40.09339803415706" lon="9.156710714482415"><ele>698.0</ele><time>2026-04-30T15:54:02.014Z</time></trkpt><trkpt lat="40.09354626420013" lon="9.156721024080976"><ele>699.0</ele><time>2026-04-30T15:54:03.014Z</time></trkpt><trkpt lat="40.09369504830666" lon="9.156748593622607"><ele>700.0</ele><time>2026-04-30T15:54:04.014Z</time></trkpt><trkpt lat="40.093835747540794" lon="9.156805289230684"><ele>701.0</ele><time>2026-04-30T15:54:05.014Z</time></trkpt><trkpt lat="40.09396440298742" lon="9.156909944445271"><ele>702.0</ele><time>2026-04-30T15:54:06.013Z</time></trkpt><trkpt lat="40.094076761333724" lon="9.157010098539718"><ele>700.6</ele><time>2026-04-30T15:54:07.013Z</time></trkpt><trkpt lat="40.09417608300133" lon="9.157080275197233"><ele>699.2</ele><time>2026-04-30T15:54:08.014Z</time></trkpt><trkpt lat="40.09426443217331" lon="9.157130806498541"><ele>697.8</ele><time>2026-04-30T15:54:09.013Z</time></trkpt><trkpt lat="40.09434382533324" lon="9.157165310974117"><ele>696.4</ele><time>2026-04-30T15:54:10.013Z</time></trkpt><trkpt lat="40.09440983274702" lon="9.157193398832195"><ele>695.0</ele><time>2026-04-30T15:54:11.014Z</time></trkpt><trkpt lat="40.094503426413" lon="9.157278774455506"><ele>698.0</ele><time>2026-04-30T15:54:13.014Z</time></trkpt><trkpt lat="40.09456765320855" lon="9.15741026856282"><ele>701.0</ele><time>2026-04-30T15:54:15.014Z</time></trkpt><trkpt lat="40.094604458791764" lon="9.157533919681235"><ele>704.0</ele><time>2026-04-30T15:54:17.014Z</time></trkpt><trkpt lat="40.09463220605466" lon="9.157647903667844"><ele>707.0</ele><time>2026-04-30T15:54:19.014Z</time></trkpt><trkpt lat="40.09464555724826" lon="9.157781511616097"><ele>710.0</ele><time>2026-04-30T15:54:21.014Z</time></trkpt><trkpt lat="40.094651199684925" lon="9.157875997068114"><ele>710.0</ele><time>2026-04-30T15:54:22.014Z</time></trkpt><trkpt lat="40.094649192849396" lon="9.157980898087553"><ele>710.0</ele><time>2026-04-30T15:54:23.014Z</time></trkpt><trkpt lat="40.09464122718952" lon="9.158094262716853"><ele>710.0</ele><time>2026-04-30T15:54:24.014Z</time></trkpt><trkpt lat="40.09462656313186" lon="9.158222719550263"><ele>710.0</ele><time>2026-04-30T15:54:25.014Z</time></trkpt><trkpt lat="40.094606584137836" lon="9.158354191894894"><ele>710.0</ele><time>2026-04-30T15:54:26.014Z</time></trkpt><trkpt lat="40.09459179808367" lon="9.158476524743444"><ele>709.8571428571429</ele><time>2026-04-30T15:54:27.014Z</time></trkpt><trkpt lat="40.09457890174734" lon="9.158584875944198"><ele>709.7142857142858</ele><time>2026-04-30T15:54:28.014Z</time></trkpt><trkpt lat="40.094560698835814" lon="9.158679136885256"><ele>709.5714285714287</ele><time>2026-04-30T15:54:29.014Z</time></trkpt><trkpt lat="40.09454535430781" lon="9.158767831050142"><ele>709.4285714285714</ele><time>2026-04-30T15:54:30.014Z</time></trkpt><trkpt lat="40.094531474880604" lon="9.158852954107497"><ele>709.2857142857143</ele><time>2026-04-30T15:54:31.014Z</time></trkpt><trkpt lat="40.09452036304659" lon="9.158935596081847"><ele>709.1428571428572</ele><time>2026-04-30T15:54:32.014Z</time></trkpt><trkpt lat="40.09450443531816" lon="9.159015278287544"><ele>709.0</ele><time>2026-04-30T15:54:33.014Z</time></trkpt><trkpt lat="40.09451768913569" lon="9.159178203118785"><ele>709.0000000000001</ele><time>2026-04-30T15:54:35.014Z</time></trkpt><trkpt lat="40.09455307217043" lon="9.159256834384358"><ele>709.0</ele><time>2026-04-30T15:54:36.014Z</time></trkpt><trkpt lat="40.094580558899125" lon="9.159336743139121"><ele>709.0</ele><time>2026-04-30T15:54:37.014Z</time></trkpt><trkpt lat="40.09461047758323" lon="9.159414638493006"><ele>709.0</ele><time>2026-04-30T15:54:38.014Z</time></trkpt><trkpt lat="40.094649987343395" lon="9.159492051698354"><ele>709.0</ele><time>2026-04-30T15:54:39.014Z</time></trkpt><trkpt lat="40.094693534747556" lon="9.159579131583577"><ele>709.0000000000001</ele><time>2026-04-30T15:54:40.014Z</time></trkpt><trkpt lat="40.09473490087016" lon="9.159667244971349"><ele>709.0</ele><time>2026-04-30T15:54:41.014Z</time></trkpt><trkpt lat="40.09477354675203" lon="9.159764569574149"><ele>709.0</ele><time>2026-04-30T15:54:42.014Z</time></trkpt><trkpt lat="40.09480883762709" lon="9.159855622215769"><ele>709.0</ele><time>2026-04-30T15:54:43.014Z</time></trkpt><trkpt lat="40.094840343203465" lon="9.159966210824404"><ele>709.0</ele><time>2026-04-30T15:54:44.014Z</time></trkpt><trkpt lat="40.09488153300533" lon="9.160063427574343"><ele>709.0</ele><time>2026-04-30T15:54:45.014Z</time></trkpt><trkpt lat="40.0949312475025" lon="9.160155581579026"><ele>709.0</ele><time>2026-04-30T15:54:46.014Z</time></trkpt><trkpt lat="40.09495774008369" lon="9.16025006489235"><ele>709.0</ele><time>2026-04-30T15:54:47.014Z</time></trkpt><trkpt lat="40.09498853630509" lon="9.160341223854994"><ele>710.3333333333334</ele><time>2026-04-30T15:54:48.014Z</time></trkpt><trkpt lat="40.095007188403116" lon="9.160444660764064"><ele>711.6666666666667</ele><time>2026-04-30T15:54:49.014Z</time></trkpt><trkpt lat="40.095028329383034" lon="9.160559551180402"><ele>713.0</ele><time>2026-04-30T15:54:50.014Z</time></trkpt><trkpt lat="40.09503647594007" lon="9.160669857257245"><ele>714.3333333333334</ele><time>2026-04-30T15:54:51.014Z</time></trkpt><trkpt lat="40.09503131788918" lon="9.160780601805556"><ele>715.6666666666666</ele><time>2026-04-30T15:54:52.014Z</time></trkpt><trkpt lat="40.09501909330417" lon="9.160879971427613"><ele>717.0</ele><time>2026-04-30T15:54:53.014Z</time></trkpt><trkpt lat="40.095009542006" lon="9.160982389931258"><ele>717.0</ele><time>2026-04-30T15:54:54.014Z</time></trkpt><trkpt lat="40.095003655414516" lon="9.16109236579646"><ele>717.0</ele><time>2026-04-30T15:54:55.014Z</time></trkpt><trkpt lat="40.09498447040941" lon="9.16121078990024"><ele>717.0</ele><time>2026-04-30T15:54:56.014Z</time></trkpt><trkpt lat="40.09496379556179" lon="9.16133661841931"><ele>717.0</ele><time>2026-04-30T15:54:57.014Z</time></trkpt><trkpt lat="40.094925344030436" lon="9.16144527812273"><ele>717.0</ele><time>2026-04-30T15:54:58.014Z</time></trkpt><trkpt lat="40.094888028008405" lon="9.161562880976836"><ele>717.0</ele><time>2026-04-30T15:54:59.014Z</time></trkpt><trkpt lat="40.09485981157788" lon="9.161690496010387"><ele>717.0</ele><time>2026-04-30T15:55:00.014Z</time></trkpt><trkpt lat="40.09484689584565" lon="9.161813756700571"><ele>717.0</ele><time>2026-04-30T15:55:01.014Z</time></trkpt><trkpt lat="40.09481843414712" lon="9.161937365290637"><ele>717.0</ele><time>2026-04-30T15:55:02.014Z</time></trkpt><trkpt lat="40.09482024936694" lon="9.162071406614665"><ele>717.0</ele><time>2026-04-30T15:55:03.014Z</time></trkpt><trkpt lat="40.09483182739732" lon="9.162201217562732"><ele>717.0</ele><time>2026-04-30T15:55:04.014Z</time></trkpt><trkpt lat="40.094867395719184" lon="9.162325967404916"><ele>717.0</ele><time>2026-04-30T15:55:05.014Z</time></trkpt><trkpt lat="40.09489977133522" lon="9.162448743146433"><ele>717.0</ele><time>2026-04-30T15:55:06.014Z</time></trkpt><trkpt lat="40.09492129938024" lon="9.162579578042752"><ele>717.0</ele><time>2026-04-30T15:55:07.014Z</time></trkpt><trkpt lat="40.09494866662662" lon="9.162714053746395"><ele>717.0</ele><time>2026-04-30T15:55:08.014Z</time></trkpt><trkpt lat="40.09497615379669" lon="9.162841118290803"><ele>719.0</ele><time>2026-04-30T15:55:09.014Z</time></trkpt><trkpt lat="40.095009135051946" lon="9.162964027177097"><ele>721.0</ele><time>2026-04-30T15:55:10.014Z</time></trkpt><trkpt lat="40.095043902422475" lon="9.163090182230698"><ele>723.0</ele><time>2026-04-30T15:55:11.014Z</time></trkpt><trkpt lat="40.09505968839859" lon="9.163209739999354"><ele>725.0</ele><time>2026-04-30T15:55:12.014Z</time></trkpt><trkpt lat="40.0950916786136" lon="9.16332917853478"><ele>727.0</ele><time>2026-04-30T15:55:13.014Z</time></trkpt><trkpt lat="40.09512378928728" lon="9.163437387842608"><ele>727.6666666666667</ele><time>2026-04-30T15:55:14.014Z</time></trkpt><trkpt lat="40.09515770867725" lon="9.163536288750695"><ele>728.3333333333334</ele><time>2026-04-30T15:55:15.014Z</time></trkpt><trkpt lat="40.09518812322456" lon="9.16364208153582"><ele>729.0</ele><time>2026-04-30T15:55:16.014Z</time></trkpt><trkpt lat="40.09520739119083" lon="9.16374575416083"><ele>729.6666666666666</ele><time>2026-04-30T15:55:17.014Z</time></trkpt><trkpt lat="40.09522299663794" lon="9.16385414463485"><ele>730.3333333333333</ele><time>2026-04-30T15:55:18.014Z</time></trkpt><trkpt lat="40.09524315243376" lon="9.16394855875767"><ele>731.0</ele><time>2026-04-30T15:55:19.014Z</time></trkpt><trkpt lat="40.09524658512956" lon="9.164046694042485"><ele>731.6666666666666</ele><time>2026-04-30T15:55:20.014Z</time></trkpt><trkpt lat="40.095224619171105" lon="9.164133609949225"><ele>732.3333333333333</ele><time>2026-04-30T15:55:21.014Z</time></trkpt><trkpt lat="40.09519592678935" lon="9.1642143518664"><ele>733.0</ele><time>2026-04-30T15:55:22.014Z</time></trkpt><trkpt lat="40.09515368035234" lon="9.164299436956352"><ele>733.6666666666666</ele><time>2026-04-30T15:55:23.014Z</time></trkpt><trkpt lat="40.09511572790825" lon="9.164385579637717"><ele>734.3333333333334</ele><time>2026-04-30T15:55:24.013Z</time></trkpt><trkpt lat="40.09507527744053" lon="9.164475221647052"><ele>735.0</ele><time>2026-04-30T15:55:25.013Z</time></trkpt><trkpt lat="40.09503143443433" lon="9.164570375405232"><ele>735.0</ele><time>2026-04-30T15:55:26.013Z</time></trkpt><trkpt lat="40.09498601154094" lon="9.16466066779025"><ele>735.0</ele><time>2026-04-30T15:55:27.013Z</time></trkpt><trkpt lat="40.094942256918735" lon="9.164750948966615"><ele>735.0</ele><time>2026-04-30T15:55:28.013Z</time></trkpt><trkpt lat="40.094909767063854" lon="9.164855195372002"><ele>735.0</ele><time>2026-04-30T15:55:29.013Z</time></trkpt><trkpt lat="40.09488288293274" lon="9.164945240316266"><ele>735.0</ele><time>2026-04-30T15:55:30.013Z</time></trkpt><trkpt lat="40.09485460832074" lon="9.16504170936943"><ele>735.0</ele><time>2026-04-30T15:55:31.013Z</time></trkpt><trkpt lat="40.09483712841211" lon="9.16515755467363"><ele>736.0</ele><time>2026-04-30T15:55:32.013Z</time></trkpt><trkpt lat="40.09480650783175" lon="9.16527144134424"><ele>737.0</ele><time>2026-04-30T15:55:33.013Z</time></trkpt><trkpt lat="40.094768305662896" lon="9.165382304232718"><ele>738.0</ele><time>2026-04-30T15:55:34.013Z</time></trkpt><trkpt lat="40.09473367957939" lon="9.165487065784092"><ele>739.0</ele><time>2026-04-30T15:55:35.013Z</time></trkpt><trkpt lat="40.09468496504842" lon="9.165586897590403"><ele>740.0</ele><time>2026-04-30T15:55:36.013Z</time></trkpt><trkpt lat="40.09461501366394" lon="9.165669308433797"><ele>740.6666666666666</ele><time>2026-04-30T15:55:37.013Z</time></trkpt><trkpt lat="40.09453326043485" lon="9.165725930653903"><ele>741.3333333333333</ele><time>2026-04-30T15:55:38.013Z</time></trkpt><trkpt lat="40.09445338035249" lon="9.165782435066374"><ele>742.0</ele><time>2026-04-30T15:55:39.013Z</time></trkpt><trkpt lat="40.094370682747005" lon="9.165826874116735"><ele>742.6666666666666</ele><time>2026-04-30T15:55:40.013Z</time></trkpt><trkpt lat="40.09430576713249" lon="9.165870084187883"><ele>743.3333333333334</ele><time>2026-04-30T15:55:41.013Z</time></trkpt><trkpt lat="40.09422873775921" lon="9.165954623676093"><ele>744.0</ele><time>2026-04-30T15:55:43.013Z</time></trkpt><trkpt lat="40.09420687947056" lon="9.166075203666331"><ele>744.0</ele><time>2026-04-30T15:55:58.013Z</time></trkpt><trkpt lat="40.09420358393749" lon="9.166163700431998"><ele>744.0</ele><time>2026-04-30T15:56:00.013Z</time></trkpt><trkpt lat="40.09420578936119" lon="9.166282181029441"><ele>744.0</ele><time>2026-04-30T15:56:09.014Z</time></trkpt><trkpt lat="40.09420366635833" lon="9.166379262826041"><ele>744.0</ele><time>2026-04-30T15:56:10.014Z</time></trkpt><trkpt lat="40.09420270067671" lon="9.166503910462998"><ele>744.0</ele><time>2026-04-30T15:56:11.015Z</time></trkpt><trkpt lat="40.09418391235975" lon="9.166651026074438"><ele>744.0</ele><time>2026-04-30T15:56:12.014Z</time></trkpt><trkpt lat="40.09414763768417" lon="9.166813246438199"><ele>744.6666666666666</ele><time>2026-04-30T15:56:13.014Z</time></trkpt><trkpt lat="40.094111092169136" lon="9.166987715209281"><ele>745.3333333333333</ele><time>2026-04-30T15:56:14.014Z</time></trkpt><trkpt lat="40.094083172653725" lon="9.167184495835736"><ele>746.0</ele><time>2026-04-30T15:56:15.015Z</time></trkpt><trkpt lat="40.094093950024174" lon="9.167393246266045"><ele>747.75</ele><time>2026-04-30T15:56:16.015Z</time></trkpt><trkpt lat="40.0941263508386" lon="9.167595572154616"><ele>749.5</ele><time>2026-04-30T15:56:17.015Z</time></trkpt><trkpt lat="40.09413949335092" lon="9.16777894110825"><ele>751.25</ele><time>2026-04-30T15:56:18.014Z</time></trkpt><trkpt lat="40.094101694023415" lon="9.167939107685065"><ele>753.0</ele><time>2026-04-30T15:56:19.014Z</time></trkpt><trkpt lat="40.09400012542802" lon="9.168088928990974"><ele>755.0</ele><time>2026-04-30T15:56:20.014Z</time></trkpt><trkpt lat="40.093873296781055" lon="9.168217239327868"><ele>757.0</ele><time>2026-04-30T15:56:21.014Z</time></trkpt><trkpt lat="40.09376246798847" lon="9.16835364296212"><ele>759.0</ele><time>2026-04-30T15:56:22.014Z</time></trkpt><trkpt lat="40.093687924488435" lon="9.168531081538426"><ele>759.0</ele><time>2026-04-30T15:56:23.014Z</time></trkpt><trkpt lat="40.09366643758164" lon="9.168742198172573"><ele>759.0</ele><time>2026-04-30T15:56:24.014Z</time></trkpt><trkpt lat="40.09369583355597" lon="9.168974380790347"><ele>759.0</ele><time>2026-04-30T15:56:25.014Z</time></trkpt><trkpt lat="40.093755386363576" lon="9.169235413768467"><ele>757.3333333333334</ele><time>2026-04-30T15:56:26.014Z</time></trkpt><trkpt lat="40.09382547799143" lon="9.169492656336958"><ele>755.6666666666667</ele><time>2026-04-30T15:56:27.014Z</time></trkpt><trkpt lat="40.09390525438916" lon="9.169749855604302"><ele>754.0</ele><time>2026-04-30T15:56:28.014Z</time></trkpt><trkpt lat="40.09400435069602" lon="9.170005242624411"><ele>759.3333333333334</ele><time>2026-04-30T15:56:29.014Z</time></trkpt><trkpt lat="40.09411008899157" lon="9.170255290053895"><ele>764.6666666666667</ele><time>2026-04-30T15:56:30.014Z</time></trkpt><trkpt lat="40.094205118388146" lon="9.170469576408417"><ele>770.0</ele><time>2026-04-30T15:56:31.014Z</time></trkpt><trkpt lat="40.09432374172907" lon="9.170655908910502"><ele>768.0</ele><time>2026-04-30T15:56:32.014Z</time></trkpt><trkpt lat="40.09448430051761" lon="9.170808134614155"><ele>766.0</ele><time>2026-04-30T15:56:33.014Z</time></trkpt><trkpt lat="40.09465480040366" lon="9.170936892969237"><ele>764.0</ele><time>2026-04-30T15:56:34.014Z</time></trkpt><trkpt lat="40.09482478370003" lon="9.171056454963988"><ele>769.3333333333333</ele><time>2026-04-30T15:56:35.014Z</time></trkpt><trkpt lat="40.095013616697926" lon="9.171124332897122"><ele>774.6666666666666</ele><time>2026-04-30T15:56:36.014Z</time></trkpt><trkpt lat="40.09522392691773" lon="9.171140608996321"><ele>780.0</ele><time>2026-04-30T15:56:37.014Z</time></trkpt><trkpt lat="40.095430383926164" lon="9.171175353602269"><ele>780.0</ele><time>2026-04-30T15:56:38.014Z</time></trkpt><trkpt lat="40.09563357459545" lon="9.171228862236504"><ele>780.0</ele><time>2026-04-30T15:56:39.014Z</time></trkpt><trkpt lat="40.09582571481753" lon="9.171359277581209"><ele>780.0</ele><time>2026-04-30T15:56:40.014Z</time></trkpt><trkpt lat="40.095990019430324" lon="9.171519891016183"><ele>780.6666666666667</ele><time>2026-04-30T15:56:41.014Z</time></trkpt><trkpt lat="40.09615711542565" lon="9.17166943485375"><ele>781.3333333333334</ele><time>2026-04-30T15:56:42.014Z</time></trkpt><trkpt lat="40.0963071560766" lon="9.171810061719142"><ele>782.0</ele><time>2026-04-30T15:56:43.014Z</time></trkpt><trkpt lat="40.09641760444051" lon="9.171978582532562"><ele>782.0</ele><time>2026-04-30T15:56:44.014Z</time></trkpt><trkpt lat="40.09646704180778" lon="9.1722039188398"><ele>782.0</ele><time>2026-04-30T15:56:45.014Z</time></trkpt><trkpt lat="40.096546761802585" lon="9.172415883109446"><ele>782.0</ele><time>2026-04-30T15:56:46.014Z</time></trkpt><trkpt lat="40.096686930851085" lon="9.172581652132337"><ele>784.3333333333334</ele><time>2026-04-30T15:56:47.014Z</time></trkpt><trkpt lat="40.09679570927699" lon="9.17278975324625"><ele>786.6666666666667</ele><time>2026-04-30T15:56:48.014Z</time></trkpt><trkpt lat="40.096831604381144" lon="9.17302420469556"><ele>789.0</ele><time>2026-04-30T15:56:49.014Z</time></trkpt><trkpt lat="40.09678827814273" lon="9.173261894693395"><ele>789.6666666666667</ele><time>2026-04-30T15:56:50.014Z</time></trkpt><trkpt lat="40.09671402145248" lon="9.173491663237973"><ele>790.3333333333334</ele><time>2026-04-30T15:56:51.014Z</time></trkpt><trkpt lat="40.09665241686611" lon="9.173715585940766"><ele>791.0</ele><time>2026-04-30T15:56:52.014Z</time></trkpt><trkpt lat="40.09658023976727" lon="9.173922908770017"><ele>790.0</ele><time>2026-04-30T15:56:53.014Z</time></trkpt><trkpt lat="40.09647196580209" lon="9.174103012172624"><ele>789.0</ele><time>2026-04-30T15:56:54.014Z</time></trkpt><trkpt lat="40.09636248087714" lon="9.174239063560297"><ele>788.0</ele><time>2026-04-30T15:56:55.014Z</time></trkpt><trkpt lat="40.096290826549826" lon="9.174388122162679"><ele>788.0</ele><time>2026-04-30T15:56:56.014Z</time></trkpt><trkpt lat="40.09629032818818" lon="9.17455109845445"><ele>788.0</ele><time>2026-04-30T15:56:57.014Z</time></trkpt><trkpt lat="40.09634880196531" lon="9.174706171542246"><ele>788.0</ele><time>2026-04-30T15:56:58.014Z</time></trkpt><trkpt lat="40.09644851021118" lon="9.174848724294714"><ele>788.0</ele><time>2026-04-30T15:56:59.014Z</time></trkpt><trkpt lat="40.09659018720791" lon="9.17496369552121"><ele>791.6666666666667</ele><time>2026-04-30T15:57:00.014Z</time></trkpt><trkpt lat="40.09675565580195" lon="9.175054362706781"><ele>795.3333333333333</ele><time>2026-04-30T15:57:01.014Z</time></trkpt><trkpt lat="40.096884958287376" lon="9.175161864507011"><ele>799.0</ele><time>2026-04-30T15:57:02.014Z</time></trkpt><trkpt lat="40.096945131085484" lon="9.175296935125154"><ele>799.0</ele><time>2026-04-30T15:57:03.014Z</time></trkpt><trkpt lat="40.09695603460156" lon="9.175470326109028"><ele>799.0</ele><time>2026-04-30T15:57:04.014Z</time></trkpt><trkpt lat="40.09694857413371" lon="9.175673707961339"><ele>799.0</ele><time>2026-04-30T15:57:05.014Z</time></trkpt><trkpt lat="40.09696568379889" lon="9.175868649400664"><ele>799.0</ele><time>2026-04-30T15:57:06.014Z</time></trkpt><trkpt lat="40.097045349930326" lon="9.176015989334534"><ele>799.6666666666666</ele><time>2026-04-30T15:57:07.014Z</time></trkpt><trkpt lat="40.097182754553856" lon="9.176104323821932"><ele>800.3333333333333</ele><time>2026-04-30T15:57:08.014Z</time></trkpt><trkpt lat="40.097353560438826" lon="9.176157136785665"><ele>801.0</ele><time>2026-04-30T15:57:09.014Z</time></trkpt><trkpt lat="40.097544514103525" lon="9.176198282915275"><ele>804.0</ele><time>2026-04-30T15:57:10.014Z</time></trkpt><trkpt lat="40.097739820356765" lon="9.176246014879407"><ele>807.0</ele><time>2026-04-30T15:57:11.014Z</time></trkpt><trkpt lat="40.097950844936996" lon="9.176308438597948"><ele>810.0</ele><time>2026-04-30T15:57:12.014Z</time></trkpt><trkpt lat="40.09815186275314" lon="9.176384497350117"><ele>811.0</ele><time>2026-04-30T15:57:13.014Z</time></trkpt><trkpt lat="40.09832717334944" lon="9.176491977997042"><ele>812.0</ele><time>2026-04-30T15:57:14.014Z</time></trkpt><trkpt lat="40.09847848635466" lon="9.176650916144435"><ele>813.0</ele><time>2026-04-30T15:57:15.014Z</time></trkpt><trkpt lat="40.09862355801088" lon="9.176785066395045"><ele>813.0</ele><time>2026-04-30T15:57:16.014Z</time></trkpt><trkpt lat="40.0987939542454" lon="9.176859526200618"><ele>813.0</ele><time>2026-04-30T15:57:17.014Z</time></trkpt><trkpt lat="40.098982413963185" lon="9.176894272557243"><ele>813.0</ele><time>2026-04-30T15:57:18.014Z</time></trkpt><trkpt lat="40.09918895998759" lon="9.176918957821318"><ele>814.6666666666667</ele><time>2026-04-30T15:57:19.014Z</time></trkpt><trkpt lat="40.099354573989" lon="9.177045473649843"><ele>816.3333333333334</ele><time>2026-04-30T15:57:20.014Z</time></trkpt><trkpt lat="40.09951198237549" lon="9.1771521947964"><ele>818.0</ele><time>2026-04-30T15:57:21.014Z</time></trkpt><trkpt lat="40.099680450474004" lon="9.177141743302709"><ele>818.0</ele><time>2026-04-30T15:57:22.014Z</time></trkpt><trkpt lat="40.0998246932514" lon="9.177067166040816"><ele>818.0</ele><time>2026-04-30T15:57:23.014Z</time></trkpt><trkpt lat="40.099967310763276" lon="9.17697936727657"><ele>818.0</ele><time>2026-04-30T15:57:24.014Z</time></trkpt><trkpt lat="40.10012547312304" lon="9.176967598229488"><ele>816.0</ele><time>2026-04-30T15:57:25.014Z</time></trkpt><trkpt lat="40.10027337084281" lon="9.177045092887278"><ele>814.0</ele><time>2026-04-30T15:57:26.014Z</time></trkpt><trkpt lat="40.10041249195214" lon="9.177156619819227"><ele>812.0</ele><time>2026-04-30T15:57:27.014Z</time></trkpt><trkpt lat="40.100573748981176" lon="9.177216999496865"><ele>812.0</ele><time>2026-04-30T15:57:28.014Z</time></trkpt><trkpt lat="40.10076788970492" lon="9.177219440325324"><ele>812.0</ele><time>2026-04-30T15:57:29.014Z</time></trkpt><trkpt lat="40.10096711025658" lon="9.177202629809043"><ele>812.0</ele><time>2026-04-30T15:57:30.014Z</time></trkpt><trkpt lat="40.10115044166557" lon="9.17719457526785"><ele>812.0</ele><time>2026-04-30T15:57:31.014Z</time></trkpt><trkpt lat="40.101312786724996" lon="9.17724867570898"><ele>812.0</ele><time>2026-04-30T15:57:32.014Z</time></trkpt><trkpt lat="40.10144775310246" lon="9.177380552768469"><ele>812.0</ele><time>2026-04-30T15:57:33.014Z</time></trkpt><trkpt lat="40.10158294244036" lon="9.177558239764279"><ele>813.6666666666667</ele><time>2026-04-30T15:57:34.014Z</time></trkpt><trkpt lat="40.101722679862725" lon="9.177734045003874"><ele>815.3333333333333</ele><time>2026-04-30T15:57:35.014Z</time></trkpt><trkpt lat="40.10184732967101" lon="9.177893136177675"><ele>817.0</ele><time>2026-04-30T15:57:36.014Z</time></trkpt><trkpt lat="40.10197195410373" lon="9.177990553986843"><ele>817.0</ele><time>2026-04-30T15:57:37.014Z</time></trkpt><trkpt lat="40.10211537823257" lon="9.177976745446019"><ele>817.0</ele><time>2026-04-30T15:57:38.014Z</time></trkpt><trkpt lat="40.10225568414539" lon="9.177871024431916"><ele>817.0</ele><time>2026-04-30T15:57:39.013Z</time></trkpt><trkpt lat="40.10239710117328" lon="9.177711816998611"><ele>816.6666666666666</ele><time>2026-04-30T15:57:40.013Z</time></trkpt><trkpt lat="40.10255024664963" lon="9.177536672441219"><ele>816.3333333333333</ele><time>2026-04-30T15:57:41.013Z</time></trkpt><trkpt lat="40.10269818157695" lon="9.177392777083192"><ele>816.0</ele><time>2026-04-30T15:57:42.013Z</time></trkpt><trkpt lat="40.10284826862969" lon="9.177334601609196"><ele>816.0</ele><time>2026-04-30T15:57:43.013Z</time></trkpt><trkpt lat="40.102990394715576" lon="9.177392957427319"><ele>816.0</ele><time>2026-04-30T15:57:44.013Z</time></trkpt><trkpt lat="40.10313603005706" lon="9.17750420651019"><ele>816.0</ele><time>2026-04-30T15:57:45.013Z</time></trkpt><trkpt lat="40.10329783331573" lon="9.177612469038342"><ele>816.6666666666667</ele><time>2026-04-30T15:57:46.013Z</time></trkpt><trkpt lat="40.103478151234114" lon="9.177695938408885"><ele>817.3333333333334</ele><time>2026-04-30T15:57:47.013Z</time></trkpt><trkpt lat="40.10367060707289" lon="9.177756383450756"><ele>818.0</ele><time>2026-04-30T15:57:48.013Z</time></trkpt><trkpt lat="40.10383793240321" lon="9.177799623864273"><ele>818.0</ele><time>2026-04-30T15:57:49.013Z</time></trkpt><trkpt lat="40.103982589087934" lon="9.177743358469609"><ele>818.0</ele><time>2026-04-30T15:57:50.013Z</time></trkpt><trkpt lat="40.104081824284016" lon="9.17755750537866"><ele>818.0</ele><time>2026-04-30T15:57:51.013Z</time></trkpt><trkpt lat="40.10413810571265" lon="9.177315319015136"><ele>816.0</ele><time>2026-04-30T15:57:52.013Z</time></trkpt><trkpt lat="40.1042275056866" lon="9.177182705997925"><ele>814.0</ele><time>2026-04-30T15:57:53.013Z</time></trkpt><trkpt lat="40.104344489715004" lon="9.177149084181073"><ele>812.0</ele><time>2026-04-30T15:57:54.013Z</time></trkpt><trkpt lat="40.104489881213034" lon="9.177216154002748"><ele>810.0</ele><time>2026-04-30T15:57:55.013Z</time></trkpt><trkpt lat="40.104633283363825" lon="9.177311153277424"><ele>812.3333333333333</ele><time>2026-04-30T15:57:56.013Z</time></trkpt><trkpt lat="40.10479137950178" lon="9.177425658685165"><ele>814.6666666666666</ele><time>2026-04-30T15:57:57.013Z</time></trkpt><trkpt lat="40.10493945021622" lon="9.17757956464746"><ele>817.0</ele><time>2026-04-30T15:57:58.013Z</time></trkpt><trkpt lat="40.105078415750526" lon="9.17778111721691"><ele>817.0</ele><time>2026-04-30T15:57:59.013Z</time></trkpt><trkpt lat="40.1051958586957" lon="9.178014138119202"><ele>817.0</ele><time>2026-04-30T15:58:00.013Z</time></trkpt><trkpt lat="40.10530008148284" lon="9.178271609447814"><ele>817.0</ele><time>2026-04-30T15:58:01.013Z</time></trkpt><trkpt lat="40.10539943969843" lon="9.17856531263144"><ele>822.0</ele><time>2026-04-30T15:58:02.013Z</time></trkpt><trkpt lat="40.10551543114602" lon="9.17883713235605"><ele>827.0</ele><time>2026-04-30T15:58:03.013Z</time></trkpt><trkpt lat="40.10562325367061" lon="9.179084801538282"><ele>829.3333333333334</ele><time>2026-04-30T15:58:04.013Z</time></trkpt><trkpt lat="40.10568134192602" lon="9.179342421831317"><ele>831.6666666666667</ele><time>2026-04-30T15:58:05.013Z</time></trkpt><trkpt lat="40.105742328138284" lon="9.179561696038212"><ele>834.0</ele><time>2026-04-30T15:58:06.013Z</time></trkpt><trkpt lat="40.10585239668541" lon="9.179781848298447"><ele>830.5</ele><time>2026-04-30T15:58:07.013Z</time></trkpt><trkpt lat="40.10601073189904" lon="9.17999025689337"><ele>827.0</ele><time>2026-04-30T15:58:08.013Z</time></trkpt><trkpt lat="40.10617370200947" lon="9.18020730389997"><ele>827.0</ele><time>2026-04-30T15:58:09.013Z</time></trkpt><trkpt lat="40.106350833662226" lon="9.180428209292774"><ele>827.0</ele><time>2026-04-30T15:58:10.013Z</time></trkpt><trkpt lat="40.10650552406527" lon="9.180640876500233"><ele>826.0</ele><time>2026-04-30T15:58:11.015Z</time></trkpt><trkpt lat="40.106659144515476" lon="9.180807413381896"><ele>825.0</ele><time>2026-04-30T15:58:12.015Z</time></trkpt><trkpt lat="40.10683381011888" lon="9.180885914893448"><ele>824.0</ele><time>2026-04-30T15:58:13.015Z</time></trkpt><trkpt lat="40.106998788984924" lon="9.18087631910283"><ele>824.0</ele><time>2026-04-30T15:58:14.015Z</time></trkpt><trkpt lat="40.10713952591345" lon="9.180784629029317"><ele>824.0</ele><time>2026-04-30T15:58:15.015Z</time></trkpt><trkpt lat="40.107249638118674" lon="9.180610829074602"><ele>824.0</ele><time>2026-04-30T15:58:16.015Z</time></trkpt><trkpt lat="40.10736205755791" lon="9.180390912322885"><ele>821.0</ele><time>2026-04-30T15:58:17.015Z</time></trkpt><trkpt lat="40.10750599513764" lon="9.180185091654982"><ele>818.0</ele><time>2026-04-30T15:58:18.015Z</time></trkpt><trkpt lat="40.10768980883058" lon="9.180059137819448"><ele>815.0</ele><time>2026-04-30T15:58:19.015Z</time></trkpt><trkpt lat="40.10787400887967" lon="9.180034274270898"><ele>815.0</ele><time>2026-04-30T15:58:20.015Z</time></trkpt><trkpt lat="40.108020590433654" lon="9.180090038770238"><ele>815.0</ele><time>2026-04-30T15:58:21.015Z</time></trkpt><trkpt lat="40.10811397537681" lon="9.180238240614036"><ele>815.0</ele><time>2026-04-30T15:58:22.015Z</time></trkpt><trkpt lat="40.10816230810287" lon="9.1804175799807"><ele>815.0</ele><time>2026-04-30T15:58:23.015Z</time></trkpt><trkpt lat="40.10824990350158" lon="9.18056435292306"><ele>815.6666666666667</ele><time>2026-04-30T15:58:24.015Z</time></trkpt><trkpt lat="40.10838497717381" lon="9.180590928363953"><ele>816.3333333333333</ele><time>2026-04-30T15:58:25.015Z</time></trkpt><trkpt lat="40.10852872400858" lon="9.180493390497015"><ele>817.0</ele><time>2026-04-30T15:58:26.015Z</time></trkpt><trkpt lat="40.10865222325621" lon="9.180299813600149"><ele>817.0</ele><time>2026-04-30T15:58:27.015Z</time></trkpt><trkpt lat="40.1087844500286" lon="9.180076699595338"><ele>817.0</ele><time>2026-04-30T15:58:28.015Z</time></trkpt><trkpt lat="40.108951301193194" lon="9.1798775075451"><ele>817.0</ele><time>2026-04-30T15:58:29.015Z</time></trkpt><trkpt lat="40.10914739291929" lon="9.179671126874464"><ele>813.5</ele><time>2026-04-30T15:58:30.015Z</time></trkpt><trkpt lat="40.109383674223906" lon="9.17945754831205"><ele>810.0</ele><time>2026-04-30T15:58:31.015Z</time></trkpt><trkpt lat="40.10964768223617" lon="9.17924318073448"><ele>807.5</ele><time>2026-04-30T15:58:32.015Z</time></trkpt><trkpt lat="40.10991166077177" lon="9.179030322401644"><ele>805.0</ele><time>2026-04-30T15:58:33.015Z</time></trkpt><trkpt lat="40.1101580587153" lon="9.178841417040207"><ele>805.0</ele><time>2026-04-30T15:58:34.015Z</time></trkpt><trkpt lat="40.110398454108115" lon="9.178688270084194"><ele>805.0</ele><time>2026-04-30T15:58:35.015Z</time></trkpt><trkpt lat="40.11067207137218" lon="9.178594265689979"><ele>813.0</ele><time>2026-04-30T15:58:36.015Z</time></trkpt><trkpt lat="40.110958256280504" lon="9.178534200040215"><ele>821.0</ele><time>2026-04-30T15:58:37.015Z</time></trkpt><trkpt lat="40.111225332081034" lon="9.178476460490934"><ele>821.0</ele><time>2026-04-30T15:58:38.015Z</time></trkpt><trkpt lat="40.11146065187939" lon="9.178460410749393"><ele>821.0</ele><time>2026-04-30T15:58:39.015Z</time></trkpt><trkpt lat="40.11166303687221" lon="9.178507807908042"><ele>821.0</ele><time>2026-04-30T15:58:40.015Z</time></trkpt><trkpt lat="40.11179172497089" lon="9.17864322020788"><ele>821.6666666666667</ele><time>2026-04-30T15:58:41.015Z</time></trkpt><trkpt lat="40.111783994191626" lon="9.1787964602777"><ele>822.3333333333333</ele><time>2026-04-30T15:58:43.015Z</time></trkpt><trkpt lat="40.11179324933041" lon="9.179003320980874"><ele>823.0</ele><time>2026-04-30T15:58:44.015Z</time></trkpt><trkpt lat="40.1118469377388" lon="9.179270047338155"><ele>824.3333333333333</ele><time>2026-04-30T15:58:45.015Z</time></trkpt><trkpt lat="40.11196166745124" lon="9.179428256805286"><ele>825.6666666666667</ele><time>2026-04-30T15:58:46.015Z</time></trkpt><trkpt lat="40.11208269755563" lon="9.179691070784207"><ele>827.0</ele><time>2026-04-30T15:58:47.015Z</time></trkpt><trkpt lat="40.11221795320619" lon="9.179928104339217"><ele>827.3333333333334</ele><time>2026-04-30T15:58:48.015Z</time></trkpt><trkpt lat="40.11233850831664" lon="9.180113514110838"><ele>827.6666666666667</ele><time>2026-04-30T15:58:49.015Z</time></trkpt><trkpt lat="40.112499425691844" lon="9.180225181772"><ele>828.0</ele><time>2026-04-30T15:58:50.015Z</time></trkpt><trkpt lat="40.11269875894791" lon="9.18025170701154"><ele>828.0</ele><time>2026-04-30T15:58:51.015Z</time></trkpt><trkpt lat="40.112901855499125" lon="9.180249014418623"><ele>828.0</ele><time>2026-04-30T15:58:52.015Z</time></trkpt><trkpt lat="40.11305564196781" lon="9.180314437997067"><ele>828.0</ele><time>2026-04-30T15:58:53.015Z</time></trkpt><trkpt lat="40.11316347277993" lon="9.180483870777426"><ele>827.3333333333333</ele><time>2026-04-30T15:58:54.015Z</time></trkpt><trkpt lat="40.113268157817934" lon="9.180703164713293"><ele>826.6666666666666</ele><time>2026-04-30T15:58:55.015Z</time></trkpt><trkpt lat="40.11337865516471" lon="9.180904253671189"><ele>826.0</ele><time>2026-04-30T15:58:56.015Z</time></trkpt><trkpt lat="40.113428773334" lon="9.18108603457022"><ele>826.0</ele><time>2026-04-30T15:58:57.015Z</time></trkpt><trkpt lat="40.11338995927592" lon="9.181285170285433"><ele>826.0</ele><time>2026-04-30T15:58:58.015Z</time></trkpt><trkpt lat="40.11330006989779" lon="9.18148413562562"><ele>826.0</ele><time>2026-04-30T15:58:59.015Z</time></trkpt><trkpt lat="40.11324212158982" lon="9.181695845450625"><ele>827.0</ele><time>2026-04-30T15:59:00.015Z</time></trkpt><trkpt lat="40.11326461947769" lon="9.181953465977058"><ele>828.0</ele><time>2026-04-30T15:59:01.015Z</time></trkpt><trkpt lat="40.11331443163079" lon="9.182222900350649"><ele>829.0</ele><time>2026-04-30T15:59:02.015Z</time></trkpt><trkpt lat="40.113402054638755" lon="9.182461972354591"><ele>832.3333333333333</ele><time>2026-04-30T15:59:03.015Z</time></trkpt><trkpt lat="40.11354205528919" lon="9.182660729169932"><ele>835.6666666666667</ele><time>2026-04-30T15:59:04.015Z</time></trkpt><trkpt lat="40.113726008480995" lon="9.182818307980702"><ele>839.0</ele><time>2026-04-30T15:59:05.015Z</time></trkpt><trkpt lat="40.11389981741086" lon="9.18298937828085"><ele>833.0</ele><time>2026-04-30T15:59:06.015Z</time></trkpt><trkpt lat="40.1140578343502" lon="9.183221181212996"><ele>827.0</ele><time>2026-04-30T15:59:07.015Z</time></trkpt><trkpt lat="40.1141941432344" lon="9.183438993629508"><ele>827.0</ele><time>2026-04-30T15:59:08.015Z</time></trkpt><trkpt lat="40.114319015914056" lon="9.183667163684754"><ele>827.0</ele><time>2026-04-30T15:59:09.015Z</time></trkpt><trkpt lat="40.11441649467794" lon="9.183926647118138"><ele>827.0</ele><time>2026-04-30T15:59:10.015Z</time></trkpt><trkpt lat="40.11446245894804" lon="9.18419393245552"><ele>830.0</ele><time>2026-04-30T15:59:11.015Z</time></trkpt><trkpt lat="40.1144817765749" lon="9.184447715546037"><ele>833.0</ele><time>2026-04-30T15:59:12.015Z</time></trkpt><trkpt lat="40.11449874595936" lon="9.184689061601334"><ele>836.0</ele><time>2026-04-30T15:59:13.015Z</time></trkpt><trkpt lat="40.11458154800455" lon="9.184869659664285"><ele>838.6666666666667</ele><time>2026-04-30T15:59:14.015Z</time></trkpt><trkpt lat="40.11472344595236" lon="9.184985974651601"><ele>841.3333333333333</ele><time>2026-04-30T15:59:15.015Z</time></trkpt><trkpt lat="40.11491200027914" lon="9.185028211967955"><ele>844.0</ele><time>2026-04-30T15:59:16.015Z</time></trkpt><trkpt lat="40.11513256667228" lon="9.18498872344253"><ele>835.5</ele><time>2026-04-30T15:59:17.015Z</time></trkpt><trkpt lat="40.11542525253651" lon="9.18488792065717"><ele>827.0</ele><time>2026-04-30T15:59:18.015Z</time></trkpt><trkpt lat="40.11564372038964" lon="9.184881723236446"><ele>827.0</ele><time>2026-04-30T15:59:19.015Z</time></trkpt><trkpt lat="40.1158397332291" lon="9.184866199105254"><ele>827.0</ele><time>2026-04-30T15:59:20.015Z</time></trkpt><trkpt lat="40.11602029600791" lon="9.184805424707207"><ele>827.0</ele><time>2026-04-30T15:59:21.015Z</time></trkpt><trkpt lat="40.11614972682352" lon="9.184651434464303"><ele>824.0</ele><time>2026-04-30T15:59:22.015Z</time></trkpt><trkpt lat="40.11626030231928" lon="9.18441986228822"><ele>821.0</ele><time>2026-04-30T15:59:23.015Z</time></trkpt><trkpt lat="40.11640137111851" lon="9.184186896483732"><ele>818.0</ele><time>2026-04-30T15:59:24.015Z</time></trkpt><trkpt lat="40.11660685028604" lon="9.184006782418317"><ele>818.0</ele><time>2026-04-30T15:59:25.015Z</time></trkpt><trkpt lat="40.116785442035436" lon="9.18383479342443"><ele>818.0</ele><time>2026-04-30T15:59:26.015Z</time></trkpt><trkpt lat="40.11692275163406" lon="9.18362547735491"><ele>818.0</ele><time>2026-04-30T15:59:27.015Z</time></trkpt><trkpt lat="40.117018512609285" lon="9.183370927177336"><ele>815.5</ele><time>2026-04-30T15:59:28.015Z</time></trkpt><trkpt lat="40.117070200971135" lon="9.18308712240694"><ele>813.0</ele><time>2026-04-30T15:59:29.015Z</time></trkpt><trkpt lat="40.1171039627052" lon="9.182794132929903"><ele>813.0</ele><time>2026-04-30T15:59:30.015Z</time></trkpt><trkpt lat="40.11714371494447" lon="9.18253537667581"><ele>813.0</ele><time>2026-04-30T15:59:31.015Z</time></trkpt><trkpt lat="40.117200817147264" lon="9.18229650363143"><ele>813.0</ele><time>2026-04-30T15:59:32.015Z</time></trkpt><trkpt lat="40.11726497933077" lon="9.18209115890907"><ele>813.0</ele><time>2026-04-30T15:59:33.015Z</time></trkpt><trkpt lat="40.117344343476226" lon="9.18189818570294"><ele>813.0</ele><time>2026-04-30T15:59:34.015Z</time></trkpt><trkpt lat="40.117466729674106" lon="9.181726324570871"><ele>813.0</ele><time>2026-04-30T15:59:35.015Z</time></trkpt><trkpt lat="40.117602197127226" lon="9.181573116575073"><ele>811.0</ele><time>2026-04-30T15:59:36.015Z</time></trkpt><trkpt lat="40.11775951184138" lon="9.18145089483038"><ele>809.0</ele><time>2026-04-30T15:59:37.015Z</time></trkpt><trkpt lat="40.11789810016908" lon="9.181349103428138"><ele>807.0</ele><time>2026-04-30T15:59:38.015Z</time></trkpt><trkpt lat="40.11803429790069" lon="9.181292941504292"><ele>807.0</ele><time>2026-04-30T15:59:39.015Z</time></trkpt><trkpt lat="40.11817560400385" lon="9.181323477482753"><ele>807.0</ele><time>2026-04-30T15:59:40.015Z</time></trkpt><trkpt lat="40.118310257500156" lon="9.181404070169183"><ele>807.0</ele><time>2026-04-30T15:59:41.015Z</time></trkpt><trkpt lat="40.11844709597504" lon="9.18146677778358"><ele>807.0</ele><time>2026-04-30T15:59:42.015Z</time></trkpt><trkpt lat="40.11859462422997" lon="9.18147428453165"><ele>807.3333333333333</ele><time>2026-04-30T15:59:43.015Z</time></trkpt><trkpt lat="40.118739280066904" lon="9.181400263464129"><ele>807.6666666666666</ele><time>2026-04-30T15:59:44.015Z</time></trkpt><trkpt lat="40.118850657227874" lon="9.181247622294933"><ele>808.0</ele><time>2026-04-30T15:59:45.015Z</time></trkpt><trkpt lat="40.118951759005945" lon="9.181061571753302"><ele>808.0</ele><time>2026-04-30T15:59:46.015Z</time></trkpt><trkpt lat="40.11906581179324" lon="9.180875838518585"><ele>808.0</ele><time>2026-04-30T15:59:47.015Z</time></trkpt><trkpt lat="40.11917507757724" lon="9.18068347269186"><ele>808.0</ele><time>2026-04-30T15:59:48.015Z</time></trkpt><trkpt lat="40.119275995511195" lon="9.180505140171626"><ele>806.0</ele><time>2026-04-30T15:59:49.015Z</time></trkpt><trkpt lat="40.11937676542941" lon="9.180344832284174"><ele>804.0</ele><time>2026-04-30T15:59:50.015Z</time></trkpt><trkpt lat="40.11953409248998" lon="9.180225087600078"><ele>802.0</ele><time>2026-04-30T15:59:51.015Z</time></trkpt><trkpt lat="40.11972662715736" lon="9.18011318695793"><ele>804.0</ele><time>2026-04-30T15:59:52.015Z</time></trkpt><trkpt lat="40.119927389290794" lon="9.18002428195743"><ele>806.0</ele><time>2026-04-30T15:59:53.015Z</time></trkpt><trkpt lat="40.12009342213272" lon="9.17993972847784"><ele>808.0</ele><time>2026-04-30T15:59:54.015Z</time></trkpt><trkpt lat="40.12021479037761" lon="9.179817690569768"><ele>808.0</ele><time>2026-04-30T15:59:55.015Z</time></trkpt><trkpt lat="40.12027257578345" lon="9.179630134421043"><ele>808.0</ele><time>2026-04-30T15:59:56.015Z</time></trkpt><trkpt lat="40.12025612007364" lon="9.179382027204822"><ele>808.0</ele><time>2026-04-30T15:59:57.015Z</time></trkpt><trkpt lat="40.120195881533355" lon="9.179126094173142"><ele>806.3333333333333</ele><time>2026-04-30T15:59:58.015Z</time></trkpt><trkpt lat="40.12016606173632" lon="9.178902647622277"><ele>804.6666666666667</ele><time>2026-04-30T15:59:59.015Z</time></trkpt><trkpt lat="40.12017379295573" lon="9.178672016103937"><ele>803.0</ele><time>2026-04-30T16:00:00.015Z</time></trkpt><trkpt lat="40.120266533418466" lon="9.178459890450304"><ele>803.0</ele><time>2026-04-30T16:00:01.015Z</time></trkpt><trkpt lat="40.12035564101182" lon="9.178242190645882"><ele>803.0</ele><time>2026-04-30T16:00:02.015Z</time></trkpt><trkpt lat="40.12043786259973" lon="9.17800275932475"><ele>803.0</ele><time>2026-04-30T16:00:03.015Z</time></trkpt><trkpt lat="40.120497967511916" lon="9.177750132952353"><ele>803.0</ele><time>2026-04-30T16:00:04.015Z</time></trkpt><trkpt lat="40.12052884330421" lon="9.17750657558293"><ele>803.0</ele><time>2026-04-30T16:00:05.015Z</time></trkpt><trkpt lat="40.12052713230281" lon="9.177268281518074"><ele>803.0</ele><time>2026-04-30T16:00:06.015Z</time></trkpt><trkpt lat="40.12046963744726" lon="9.176980502914924"><ele>803.0</ele><time>2026-04-30T16:00:07.015Z</time></trkpt><trkpt lat="40.12043715046701" lon="9.176733767294152"><ele>803.0</ele><time>2026-04-30T16:00:08.015Z</time></trkpt><trkpt lat="40.120408553080395" lon="9.17652216563948"><ele>803.0</ele><time>2026-04-30T16:00:09.015Z</time></trkpt><trkpt lat="40.12041592730783" lon="9.176335553827926"><ele>803.3333333333334</ele><time>2026-04-30T16:00:10.015Z</time></trkpt><trkpt lat="40.12049470801576" lon="9.17618923143276"><ele>803.6666666666667</ele><time>2026-04-30T16:00:11.015Z</time></trkpt><trkpt lat="40.12065228677766" lon="9.176117756826313"><ele>804.0</ele><time>2026-04-30T16:00:12.015Z</time></trkpt><trkpt lat="40.12082012128367" lon="9.176060027950394"><ele>804.0</ele><time>2026-04-30T16:00:13.015Z</time></trkpt><trkpt lat="40.1209990143109" lon="9.175993014144149"><ele>804.0</ele><time>2026-04-30T16:00:14.015Z</time></trkpt><trkpt lat="40.12116025318039" lon="9.175910352585015"><ele>804.0</ele><time>2026-04-30T16:00:15.015Z</time></trkpt><trkpt lat="40.121312317525195" lon="9.175808276178932"><ele>804.0</ele><time>2026-04-30T16:00:16.015Z</time></trkpt><trkpt lat="40.121441154435" lon="9.175698258899473"><ele>804.0</ele><time>2026-04-30T16:00:17.016Z</time></trkpt><trkpt lat="40.12158250449252" lon="9.175580490021094"><ele>804.0</ele><time>2026-04-30T16:00:18.015Z</time></trkpt><trkpt lat="40.12171977635191" lon="9.175472002864058"><ele>802.5</ele><time>2026-04-30T16:00:19.015Z</time></trkpt><trkpt lat="40.12187613503492" lon="9.175445611597796"><ele>801.0</ele><time>2026-04-30T16:00:20.016Z</time></trkpt><trkpt lat="40.12200564420334" lon="9.175514246176586"><ele>799.5</ele><time>2026-04-30T16:00:21.015Z</time></trkpt><trkpt lat="40.12206521132446" lon="9.175682480425055"><ele>798.0</ele><time>2026-04-30T16:00:22.015Z</time></trkpt><trkpt lat="40.12204510479608" lon="9.175918113089082"><ele>802.0</ele><time>2026-04-30T16:00:23.015Z</time></trkpt><trkpt lat="40.1220029579192" lon="9.176166327357961"><ele>806.0</ele><time>2026-04-30T16:00:24.015Z</time></trkpt><trkpt lat="40.12199546745034" lon="9.176390433413301"><ele>810.0</ele><time>2026-04-30T16:00:25.015Z</time></trkpt><trkpt lat="40.12207271590704" lon="9.176603897510269"><ele>812.3333333333333</ele><time>2026-04-30T16:00:26.016Z</time></trkpt><trkpt lat="40.122230576669786" lon="9.176769506777939"><ele>814.6666666666666</ele><time>2026-04-30T16:00:27.016Z</time></trkpt><trkpt lat="40.12242851407638" lon="9.176907636332142"><ele>817.0</ele><time>2026-04-30T16:00:28.016Z</time></trkpt><trkpt lat="40.12260757924652" lon="9.177045974967312"><ele>814.6666666666666</ele><time>2026-04-30T16:00:29.015Z</time></trkpt><trkpt lat="40.12274036460449" lon="9.177238212690002"><ele>812.3333333333333</ele><time>2026-04-30T16:00:30.016Z</time></trkpt><trkpt lat="40.12283453903938" lon="9.177477598272363"><ele>810.0</ele><time>2026-04-30T16:00:31.016Z</time></trkpt><trkpt lat="40.12291167349777" lon="9.177726231544222"><ele>810.0</ele><time>2026-04-30T16:00:32.016Z</time></trkpt><trkpt lat="40.12299428133679" lon="9.177961285612426"><ele>810.0</ele><time>2026-04-30T16:00:33.016Z</time></trkpt><trkpt lat="40.12308406641647" lon="9.178179496053191"><ele>810.0</ele><time>2026-04-30T16:00:34.016Z</time></trkpt><trkpt lat="40.12318186471127" lon="9.178380575244898"><ele>801.0</ele><time>2026-04-30T16:00:35.016Z</time></trkpt><trkpt lat="40.12327484185841" lon="9.178585489541396"><ele>792.0</ele><time>2026-04-30T16:00:36.016Z</time></trkpt><trkpt lat="40.12331787033517" lon="9.178785513515885"><ele>783.0</ele><time>2026-04-30T16:00:37.016Z</time></trkpt><trkpt lat="40.12331003344088" lon="9.17900856160433"><ele>793.6666666666667</ele><time>2026-04-30T16:00:38.016Z</time></trkpt><trkpt lat="40.123207784370386" lon="9.17923288308171"><ele>804.3333333333334</ele><time>2026-04-30T16:00:39.016Z</time></trkpt><trkpt lat="40.123139211681874" lon="9.179446319862096"><ele>815.0</ele><time>2026-04-30T16:00:40.016Z</time></trkpt><trkpt lat="40.12313956728597" lon="9.179658746089512"><ele>815.0</ele><time>2026-04-30T16:00:41.016Z</time></trkpt><trkpt lat="40.123195989261895" lon="9.179876761291155"><ele>815.0</ele><time>2026-04-30T16:00:42.016Z</time></trkpt><trkpt lat="40.12329872392088" lon="9.180080205442781"><ele>815.0</ele><time>2026-04-30T16:00:43.016Z</time></trkpt><trkpt lat="40.123460739780555" lon="9.180218858717172"><ele>805.3333333333334</ele><time>2026-04-30T16:00:44.016Z</time></trkpt><trkpt lat="40.12367083549562" lon="9.18029375846453"><ele>795.6666666666667</ele><time>2026-04-30T16:00:45.016Z</time></trkpt><trkpt lat="40.12388217445641" lon="9.180296579447377"><ele>786.0</ele><time>2026-04-30T16:00:46.016Z</time></trkpt><trkpt lat="40.12409078184375" lon="9.180335843672767"><ele>787.0</ele><time>2026-04-30T16:00:47.016Z</time></trkpt><trkpt lat="40.124272094027376" lon="9.180448931659406"><ele>788.0</ele><time>2026-04-30T16:00:48.016Z</time></trkpt><trkpt lat="40.12443320603284" lon="9.180613542325576"><ele>789.0</ele><time>2026-04-30T16:00:49.016Z</time></trkpt><trkpt lat="40.124594848764325" lon="9.180765057126418"><ele>789.0</ele><time>2026-04-30T16:00:50.016Z</time></trkpt><trkpt lat="40.12476204726639" lon="9.180895886590474"><ele>789.0</ele><time>2026-04-30T16:00:51.016Z</time></trkpt><trkpt lat="40.12492518295085" lon="9.181035730646913"><ele>789.0</ele><time>2026-04-30T16:00:52.016Z</time></trkpt><trkpt lat="40.125066426054076" lon="9.181223338573496"><ele>787.6666666666667</ele><time>2026-04-30T16:00:53.016Z</time></trkpt><trkpt lat="40.12519010414743" lon="9.181435459781616"><ele>786.3333333333334</ele><time>2026-04-30T16:00:54.016Z</time></trkpt><trkpt lat="40.125327030955006" lon="9.181619434849582"><ele>785.0</ele><time>2026-04-30T16:00:55.016Z</time></trkpt><trkpt lat="40.12547989772525" lon="9.18176589993608"><ele>785.0</ele><time>2026-04-30T16:00:56.016Z</time></trkpt><trkpt lat="40.12566028297746" lon="9.181890952824647"><ele>785.0</ele><time>2026-04-30T16:00:57.016Z</time></trkpt><trkpt lat="40.12584492538164" lon="9.181985328319998"><ele>785.0</ele><time>2026-04-30T16:00:58.016Z</time></trkpt><trkpt lat="40.12603689851384" lon="9.182067522721766"><ele>784.6666666666667</ele><time>2026-04-30T16:00:59.016Z</time></trkpt><trkpt lat="40.12621708256015" lon="9.182174034940774"><ele>784.3333333333333</ele><time>2026-04-30T16:01:00.016Z</time></trkpt><trkpt lat="40.126382058516704" lon="9.182333132019552"><ele>784.0</ele><time>2026-04-30T16:01:01.016Z</time></trkpt><trkpt lat="40.12654440508319" lon="9.18248817188573"><ele>769.0</ele><time>2026-04-30T16:01:02.016Z</time></trkpt><trkpt lat="40.126722358271785" lon="9.182607554487703"><ele>754.0</ele><time>2026-04-30T16:01:03.016Z</time></trkpt><trkpt lat="40.12710008864455" lon="9.182809542261822"><ele>754.0</ele><time>2026-04-30T16:01:05.016Z</time></trkpt><trkpt lat="40.12726480471372" lon="9.182950706127112"><ele>754.0</ele><time>2026-04-30T16:01:06.016Z</time></trkpt><trkpt lat="40.12740245087534" lon="9.183149625400016"><ele>754.0</ele><time>2026-04-30T16:01:07.016Z</time></trkpt><trkpt lat="40.127523172123446" lon="9.183364581260944"><ele>753.0</ele><time>2026-04-30T16:01:08.016Z</time></trkpt><trkpt lat="40.12763629139876" lon="9.18357066859032"><ele>752.0</ele><time>2026-04-30T16:01:09.016Z</time></trkpt><trkpt lat="40.12772864004614" lon="9.183758580845353"><ele>751.0</ele><time>2026-04-30T16:01:10.016Z</time></trkpt><trkpt lat="40.12777795710514" lon="9.183950636631282"><ele>753.3333333333334</ele><time>2026-04-30T16:01:11.016Z</time></trkpt><trkpt lat="40.127779123623164" lon="9.184176199757076"><ele>755.6666666666666</ele><time>2026-04-30T16:01:12.016Z</time></trkpt><trkpt lat="40.12775122812232" lon="9.184401705188156"><ele>758.0</ele><time>2026-04-30T16:01:13.016Z</time></trkpt><trkpt lat="40.12772256111322" lon="9.184631975490335"><ele>756.6666666666666</ele><time>2026-04-30T16:01:14.016Z</time></trkpt><trkpt lat="40.12771230537443" lon="9.184866551134668"><ele>755.3333333333334</ele><time>2026-04-30T16:01:15.016Z</time></trkpt><trkpt lat="40.127752981872646" lon="9.18509610730912"><ele>754.0</ele><time>2026-04-30T16:01:16.016Z</time></trkpt><trkpt lat="40.12785281371505" lon="9.185298081239678"><ele>754.0</ele><time>2026-04-30T16:01:17.016Z</time></trkpt><trkpt lat="40.12795041383442" lon="9.185476386070333"><ele>754.0</ele><time>2026-04-30T16:01:18.016Z</time></trkpt><trkpt lat="40.127987162298254" lon="9.185677453813694"><ele>754.0</ele><time>2026-04-30T16:01:19.016Z</time></trkpt><trkpt lat="40.12792715516405" lon="9.185878613935783"><ele>752.6666666666667</ele><time>2026-04-30T16:01:20.016Z</time></trkpt><trkpt lat="40.12780731318963" lon="9.186067063621897"><ele>751.3333333333334</ele><time>2026-04-30T16:01:21.016Z</time></trkpt><trkpt lat="40.12765408720272" lon="9.186208130959892"><ele>750.0</ele><time>2026-04-30T16:01:22.016Z</time></trkpt><trkpt lat="40.12757042174741" lon="9.186395715747919"><ele>748.3333333333334</ele><time>2026-04-30T16:01:23.016Z</time></trkpt><trkpt lat="40.12753351475811" lon="9.186631576701826"><ele>746.6666666666667</ele><time>2026-04-30T16:01:24.016Z</time></trkpt><trkpt lat="40.127447150857684" lon="9.18681885266838"><ele>745.0</ele><time>2026-04-30T16:01:25.016Z</time></trkpt><trkpt lat="40.12735403303279" lon="9.186968983378076"><ele>743.6666666666667</ele><time>2026-04-30T16:01:26.016Z</time></trkpt><trkpt lat="40.12729274725628" lon="9.187131848101929"><ele>742.3333333333334</ele><time>2026-04-30T16:01:27.016Z</time></trkpt><trkpt lat="40.12736533381265" lon="9.187357639586818"><ele>741.0</ele><time>2026-04-30T16:01:28.016Z</time></trkpt><trkpt lat="40.127444133569874" lon="9.187581784061907"><ele>741.0</ele><time>2026-04-30T16:01:29.016Z</time></trkpt><trkpt lat="40.12749114093277" lon="9.187818316182508"><ele>741.0</ele><time>2026-04-30T16:01:30.016Z</time></trkpt><trkpt lat="40.12751293329958" lon="9.188057076044702"><ele>741.0</ele><time>2026-04-30T16:01:31.016Z</time></trkpt><trkpt lat="40.12753905018091" lon="9.18830750853536"><ele>740.6666666666666</ele><time>2026-04-30T16:01:32.016Z</time></trkpt><trkpt lat="40.12755242900763" lon="9.188552810755974"><ele>740.3333333333333</ele><time>2026-04-30T16:01:33.016Z</time></trkpt><trkpt lat="40.12754791496911" lon="9.188803857822194"><ele>740.0</ele><time>2026-04-30T16:01:34.016Z</time></trkpt><trkpt lat="40.127530498091666" lon="9.189059295863727"><ele>739.6666666666666</ele><time>2026-04-30T16:01:35.016Z</time></trkpt><trkpt lat="40.12752744477131" lon="9.189318582900373"><ele>739.3333333333334</ele><time>2026-04-30T16:01:36.016Z</time></trkpt><trkpt lat="40.1275307313525" lon="9.189571137612731"><ele>739.0</ele><time>2026-04-30T16:01:37.016Z</time></trkpt><trkpt lat="40.12754019732212" lon="9.18982433154526"><ele>737.0</ele><time>2026-04-30T16:01:38.016Z</time></trkpt><trkpt lat="40.12753229350127" lon="9.190058370826685"><ele>735.0</ele><time>2026-04-30T16:01:39.016Z</time></trkpt><trkpt lat="40.12750548389625" lon="9.190276043784513"><ele>733.0</ele><time>2026-04-30T16:01:40.016Z</time></trkpt><trkpt lat="40.1275100416664" lon="9.19048897808269"><ele>733.3333333333334</ele><time>2026-04-30T16:01:41.016Z</time></trkpt><trkpt lat="40.12757633780984" lon="9.190682533563926"><ele>733.6666666666666</ele><time>2026-04-30T16:01:42.016Z</time></trkpt><trkpt lat="40.12771395646384" lon="9.19084498803313"><ele>734.0</ele><time>2026-04-30T16:01:43.016Z</time></trkpt><trkpt lat="40.12786171170038" lon="9.191016155651644"><ele>734.0</ele><time>2026-04-30T16:01:44.016Z</time></trkpt><trkpt lat="40.127982947280316" lon="9.191219834749912"><ele>734.0</ele><time>2026-04-30T16:01:45.016Z</time></trkpt><trkpt lat="40.12811700491101" lon="9.19143294954882"><ele>734.0</ele><time>2026-04-30T16:01:46.016Z</time></trkpt><trkpt lat="40.128262893345514" lon="9.191600576184962"><ele>729.3333333333333</ele><time>2026-04-30T16:01:47.016Z</time></trkpt><trkpt lat="40.128421446817214" lon="9.191741614951338"><ele>724.6666666666666</ele><time>2026-04-30T16:01:48.016Z</time></trkpt><trkpt lat="40.12856692183911" lon="9.19191954318722"><ele>720.0</ele><time>2026-04-30T16:01:49.016Z</time></trkpt><trkpt lat="40.128676496465346" lon="9.192143093944754"><ele>726.0</ele><time>2026-04-30T16:01:50.016Z</time></trkpt><trkpt lat="40.12879532903958" lon="9.192371878471384"><ele>732.0</ele><time>2026-04-30T16:01:51.016Z</time></trkpt><trkpt lat="40.12891921240168" lon="9.192577598928263"><ele>738.0</ele><time>2026-04-30T16:01:52.016Z</time></trkpt><trkpt lat="40.12905042313851" lon="9.192797383858593"><ele>731.0</ele><time>2026-04-30T16:01:53.016Z</time></trkpt><trkpt lat="40.129194091273234" lon="9.19300003748807"><ele>724.0</ele><time>2026-04-30T16:01:54.016Z</time></trkpt><trkpt lat="40.129316565979885" lon="9.193197198889369"><ele>717.0</ele><time>2026-04-30T16:01:55.016Z</time></trkpt><trkpt lat="40.12939130221322" lon="9.193414111550064"><ele>717.0</ele><time>2026-04-30T16:01:56.016Z</time></trkpt><trkpt lat="40.129376946508295" lon="9.193656791965648"><ele>717.0</ele><time>2026-04-30T16:01:57.016Z</time></trkpt><trkpt lat="40.12939211014564" lon="9.19389328076981"><ele>717.0</ele><time>2026-04-30T16:01:58.016Z</time></trkpt><trkpt lat="40.1294767933763" lon="9.19408858938672"><ele>719.0</ele><time>2026-04-30T16:01:59.016Z</time></trkpt><trkpt lat="40.129633371753755" lon="9.194214084676934"><ele>721.0</ele><time>2026-04-30T16:02:00.016Z</time></trkpt><trkpt lat="40.12983763015347" lon="9.194293182381603"><ele>723.0</ele><time>2026-04-30T16:02:01.016Z</time></trkpt><trkpt lat="40.130056391488786" lon="9.194375186597753"><ele>718.6666666666666</ele><time>2026-04-30T16:02:02.016Z</time></trkpt><trkpt lat="40.130240370290274" lon="9.194513191151351"><ele>714.3333333333333</ele><time>2026-04-30T16:02:03.016Z</time></trkpt><trkpt lat="40.130373104935735" lon="9.194717795085722"><ele>710.0</ele><time>2026-04-30T16:02:04.016Z</time></trkpt><trkpt lat="40.13048341577366" lon="9.194956423640152"><ele>710.0</ele><time>2026-04-30T16:02:05.016Z</time></trkpt><trkpt lat="40.13056877314871" lon="9.195201124370985"><ele>710.0</ele><time>2026-04-30T16:02:06.016Z</time></trkpt><trkpt lat="40.13061343315438" lon="9.195453126547596"><ele>710.0</ele><time>2026-04-30T16:02:07.016Z</time></trkpt><trkpt lat="40.13059408044592" lon="9.195697119240197"><ele>711.3333333333333</ele><time>2026-04-30T16:02:08.016Z</time></trkpt><trkpt lat="40.13051932518214" lon="9.195941391051074"><ele>712.6666666666666</ele><time>2026-04-30T16:02:09.016Z</time></trkpt><trkpt lat="40.13045876257082" lon="9.196198093343892"><ele>714.0</ele><time>2026-04-30T16:02:10.016Z</time></trkpt><trkpt lat="40.130440607184674" lon="9.196471455012064"><ele>712.0</ele><time>2026-04-30T16:02:11.016Z</time></trkpt><trkpt lat="40.130414813241046" lon="9.19673851490108"><ele>710.0</ele><time>2026-04-30T16:02:12.016Z</time></trkpt><trkpt lat="40.13036253748841" lon="9.197009040174843"><ele>708.0</ele><time>2026-04-30T16:02:13.016Z</time></trkpt><trkpt lat="40.130308927109525" lon="9.197285204994428"><ele>704.6666666666666</ele><time>2026-04-30T16:02:14.016Z</time></trkpt><trkpt lat="40.130245915948564" lon="9.197560569205823"><ele>701.3333333333333</ele><time>2026-04-30T16:02:15.016Z</time></trkpt><trkpt lat="40.13017414228534" lon="9.197828355178368"><ele>698.0</ele><time>2026-04-30T16:02:16.016Z</time></trkpt><trkpt lat="40.13010607322348" lon="9.198099770288978"><ele>694.3333333333333</ele><time>2026-04-30T16:02:17.016Z</time></trkpt><trkpt lat="40.13004180268316" lon="9.198365894565107"><ele>690.6666666666666</ele><time>2026-04-30T16:02:18.016Z</time></trkpt><trkpt lat="40.129980129595836" lon="9.198624391563323"><ele>687.0</ele><time>2026-04-30T16:02:19.016Z</time></trkpt><trkpt lat="40.12992935368878" lon="9.198879310044413"><ele>685.3333333333334</ele><time>2026-04-30T16:02:20.016Z</time></trkpt><trkpt lat="40.12992478602926" lon="9.199131632520514"><ele>683.6666666666667</ele><time>2026-04-30T16:02:21.016Z</time></trkpt><trkpt lat="40.12996345913569" lon="9.199381829342954"><ele>682.0</ele><time>2026-04-30T16:02:22.016Z</time></trkpt><trkpt lat="40.1300302217856" lon="9.199633738442962"><ele>683.0</ele><time>2026-04-30T16:02:23.017Z</time></trkpt><trkpt lat="40.130106022466705" lon="9.199886918808016"><ele>684.0</ele><time>2026-04-30T16:02:24.016Z</time></trkpt><trkpt lat="40.130178228916535" lon="9.2001458373545"><ele>685.0</ele><time>2026-04-30T16:02:25.016Z</time></trkpt><trkpt lat="40.13024711349075" lon="9.200393838548854"><ele>685.0</ele><time>2026-04-30T16:02:26.017Z</time></trkpt><trkpt lat="40.13029269994684" lon="9.200648879520722"><ele>685.0</ele><time>2026-04-30T16:02:27.016Z</time></trkpt><trkpt lat="40.13028494661505" lon="9.200915126688486"><ele>685.0</ele><time>2026-04-30T16:02:28.016Z</time></trkpt><trkpt lat="40.13021688868448" lon="9.201166074438959"><ele>684.3333333333334</ele><time>2026-04-30T16:02:29.017Z</time></trkpt><trkpt lat="40.13010148240773" lon="9.201387565529156"><ele>683.6666666666666</ele><time>2026-04-30T16:02:30.016Z</time></trkpt><trkpt lat="40.12994084857584" lon="9.201557023744805"><ele>683.0</ele><time>2026-04-30T16:02:31.016Z</time></trkpt><trkpt lat="40.1297484925403" lon="9.201666375816654"><ele>682.0</ele><time>2026-04-30T16:02:32.017Z</time></trkpt><trkpt lat="40.12954128790389" lon="9.201740093682945"><ele>681.0</ele><time>2026-04-30T16:02:33.017Z</time></trkpt><trkpt lat="40.12932722790909" lon="9.20181276141617"><ele>680.0</ele><time>2026-04-30T16:02:34.017Z</time></trkpt><trkpt lat="40.129113694578784" lon="9.201895307623538"><ele>684.0</ele><time>2026-04-30T16:02:35.017Z</time></trkpt><trkpt lat="40.12890196297443" lon="9.201985726438688"><ele>688.0</ele><time>2026-04-30T16:02:36.016Z</time></trkpt><trkpt lat="40.128694506384036" lon="9.202073438407789"><ele>692.0</ele><time>2026-04-30T16:02:37.016Z</time></trkpt><trkpt lat="40.128484396779584" lon="9.202155957556704"><ele>692.0</ele><time>2026-04-30T16:02:38.016Z</time></trkpt><trkpt lat="40.12827768477937" lon="9.202235215046318"><ele>692.0</ele><time>2026-04-30T16:02:39.016Z</time></trkpt><trkpt lat="40.12805778857734" lon="9.202308609153556"><ele>692.0</ele><time>2026-04-30T16:02:40.016Z</time></trkpt><trkpt lat="40.12783340539192" lon="9.202370910249508"><ele>683.5</ele><time>2026-04-30T16:02:41.016Z</time></trkpt><trkpt lat="40.1276052041081" lon="9.202434238263734"><ele>675.0</ele><time>2026-04-30T16:02:42.016Z</time></trkpt><trkpt lat="40.12736974279293" lon="9.202489588299835"><ele>675.0</ele><time>2026-04-30T16:02:43.016Z</time></trkpt><trkpt lat="40.12713225594052" lon="9.202548188648752"><ele>675.0</ele><time>2026-04-30T16:02:44.016Z</time></trkpt><trkpt lat="40.12689711214544" lon="9.202606652994875"><ele>675.0</ele><time>2026-04-30T16:02:45.016Z</time></trkpt><trkpt lat="40.12667027425635" lon="9.202667699154883"><ele>675.0</ele><time>2026-04-30T16:02:46.016Z</time></trkpt><trkpt lat="40.12644884143734" lon="9.20272054984341"><ele>674.5</ele><time>2026-04-30T16:02:47.016Z</time></trkpt><trkpt lat="40.12622593799739" lon="9.202717805539303"><ele>674.0</ele><time>2026-04-30T16:02:48.016Z</time></trkpt><trkpt lat="40.12600072323496" lon="9.202670832870224"><ele>674.0</ele><time>2026-04-30T16:02:49.016Z</time></trkpt><trkpt lat="40.12577452339474" lon="9.202594298875798"><ele>674.0</ele><time>2026-04-30T16:02:50.016Z</time></trkpt><trkpt lat="40.12555296505327" lon="9.202496308373652"><ele>670.5</ele><time>2026-04-30T16:02:51.016Z</time></trkpt><trkpt lat="40.12533680071868" lon="9.20239717732662"><ele>667.0</ele><time>2026-04-30T16:02:52.016Z</time></trkpt><trkpt lat="40.12511964794444" lon="9.202303503538134"><ele>672.0</ele><time>2026-04-30T16:02:53.016Z</time></trkpt><trkpt lat="40.124897539483946" lon="9.20222525363793"><ele>677.0</ele><time>2026-04-30T16:02:54.016Z</time></trkpt><trkpt lat="40.124678531928666" lon="9.202175810028832"><ele>677.0</ele><time>2026-04-30T16:02:55.016Z</time></trkpt><trkpt lat="40.12446411836" lon="9.202186390096529"><ele>677.0</ele><time>2026-04-30T16:02:56.016Z</time></trkpt><trkpt lat="40.124240422746425" lon="9.202229793198365"><ele>677.0</ele><time>2026-04-30T16:02:57.016Z</time></trkpt><trkpt lat="40.12403214390095" lon="9.20228674629171"><ele>672.0</ele><time>2026-04-30T16:02:58.016Z</time></trkpt><trkpt lat="40.12380556564859" lon="9.202348453469083"><ele>667.0</ele><time>2026-04-30T16:02:59.016Z</time></trkpt><trkpt lat="40.12357457196767" lon="9.202406609282951"><ele>667.0</ele><time>2026-04-30T16:03:00.016Z</time></trkpt><trkpt lat="40.12333911046533" lon="9.202450210049797"><ele>667.0</ele><time>2026-04-30T16:03:01.016Z</time></trkpt><trkpt lat="40.123102826228155" lon="9.202458477025738"><ele>667.5</ele><time>2026-04-30T16:03:02.016Z</time></trkpt><trkpt lat="40.12287043153136" lon="9.202430302798852"><ele>668.0</ele><time>2026-04-30T16:03:03.016Z</time></trkpt><trkpt lat="40.12264237635179" lon="9.202394662637532"><ele>668.0</ele><time>2026-04-30T16:03:04.016Z</time></trkpt><trkpt lat="40.12241418036652" lon="9.202385918063364"><ele>668.0</ele><time>2026-04-30T16:03:05.016Z</time></trkpt><trkpt lat="40.12218335458828" lon="9.202425155631726"><ele>669.0</ele><time>2026-04-30T16:03:06.016Z</time></trkpt><trkpt lat="40.12195876343771" lon="9.20251030762432"><ele>670.0</ele><time>2026-04-30T16:03:07.016Z</time></trkpt><trkpt lat="40.121741480800566" lon="9.202600918148505"><ele>669.0</ele><time>2026-04-30T16:03:08.016Z</time></trkpt><trkpt lat="40.121518443185785" lon="9.202620542020428"><ele>668.0</ele><time>2026-04-30T16:03:09.016Z</time></trkpt><trkpt lat="40.121291898906364" lon="9.20257944250945"><ele>668.0</ele><time>2026-04-30T16:03:10.016Z</time></trkpt><trkpt lat="40.12106219783656" lon="9.202500575632525"><ele>668.0</ele><time>2026-04-30T16:03:11.016Z</time></trkpt><trkpt lat="40.12083486810124" lon="9.202419193375302"><ele>671.0</ele><time>2026-04-30T16:03:12.016Z</time></trkpt><trkpt lat="40.120604520656336" lon="9.202397468560873"><ele>674.0</ele><time>2026-04-30T16:03:13.016Z</time></trkpt><trkpt lat="40.12037445774094" lon="9.202453684973918"><ele>674.0</ele><time>2026-04-30T16:03:14.016Z</time></trkpt><trkpt lat="40.12014071371475" lon="9.202539405678055"><ele>674.0</ele><time>2026-04-30T16:03:15.016Z</time></trkpt><trkpt lat="40.119911778207616" lon="9.202628343213593"><ele>680.5</ele><time>2026-04-30T16:03:16.016Z</time></trkpt><trkpt lat="40.119694872361876" lon="9.20274351904353"><ele>687.0</ele><time>2026-04-30T16:03:17.016Z</time></trkpt><trkpt lat="40.119489440489644" lon="9.202891071013163"><ele>687.0</ele><time>2026-04-30T16:03:18.016Z</time></trkpt><trkpt lat="40.11928778123081" lon="9.203051567090943"><ele>687.0</ele><time>2026-04-30T16:03:19.016Z</time></trkpt><trkpt lat="40.119081906651346" lon="9.203192879594365"><ele>675.0</ele><time>2026-04-30T16:03:20.016Z</time></trkpt><trkpt lat="40.11886055959039" lon="9.20328326997426"><ele>663.0</ele><time>2026-04-30T16:03:21.016Z</time></trkpt><trkpt lat="40.11862770491014" lon="9.203326601479006"><ele>663.0</ele><time>2026-04-30T16:03:22.016Z</time></trkpt><trkpt lat="40.11839554019895" lon="9.203339059861765"><ele>663.0</ele><time>2026-04-30T16:03:23.016Z</time></trkpt><trkpt lat="40.11816566587935" lon="9.203338571786999"><ele>664.0</ele><time>2026-04-30T16:03:24.016Z</time></trkpt><trkpt lat="40.117954650768695" lon="9.203340721623896"><ele>665.0</ele><time>2026-04-30T16:03:25.016Z</time></trkpt><trkpt lat="40.11776772304924" lon="9.203392993000266"><ele>666.0</ele><time>2026-04-30T16:03:26.016Z</time></trkpt><trkpt lat="40.117617943359015" lon="9.203541313162422"><ele>666.0</ele><time>2026-04-30T16:03:27.016Z</time></trkpt><trkpt lat="40.11749874320917" lon="9.203750296592508"><ele>666.0</ele><time>2026-04-30T16:03:28.016Z</time></trkpt><trkpt lat="40.11737477584634" lon="9.203970746150448"><ele>666.0</ele><time>2026-04-30T16:03:29.016Z</time></trkpt><trkpt lat="40.11725976200331" lon="9.20419690357315"><ele>667.3333333333334</ele><time>2026-04-30T16:03:30.016Z</time></trkpt><trkpt lat="40.117177259879774" lon="9.204398184255345"><ele>668.6666666666667</ele><time>2026-04-30T16:03:31.016Z</time></trkpt><trkpt lat="40.117152783481394" lon="9.20459950383226"><ele>670.0</ele><time>2026-04-30T16:03:32.016Z</time></trkpt><trkpt lat="40.11719339467364" lon="9.204826231953334"><ele>668.6666666666667</ele><time>2026-04-30T16:03:33.016Z</time></trkpt><trkpt lat="40.11728300519046" lon="9.20503419169665"><ele>667.3333333333334</ele><time>2026-04-30T16:03:34.016Z</time></trkpt><trkpt lat="40.1173869700764" lon="9.205241585751995"><ele>666.0</ele><time>2026-04-30T16:03:35.016Z</time></trkpt><trkpt lat="40.11749806797884" lon="9.205461515912095"><ele>656.6666666666666</ele><time>2026-04-30T16:03:36.016Z</time></trkpt><trkpt lat="40.11761454325138" lon="9.20569428047215"><ele>647.3333333333333</ele><time>2026-04-30T16:03:37.016Z</time></trkpt><trkpt lat="40.11773220089571" lon="9.205921572212905"><ele>638.0</ele><time>2026-04-30T16:03:38.016Z</time></trkpt><trkpt lat="40.11785651421096" lon="9.206150876959516"><ele>638.0</ele><time>2026-04-30T16:03:39.016Z</time></trkpt><trkpt lat="40.117977133316536" lon="9.206384702776798"><ele>638.0</ele><time>2026-04-30T16:03:40.016Z</time></trkpt><trkpt lat="40.11809810445615" lon="9.206614114764859"><ele>638.0</ele><time>2026-04-30T16:03:41.016Z</time></trkpt><trkpt lat="40.11821750918734" lon="9.206840922441392"><ele>640.6666666666666</ele><time>2026-04-30T16:03:42.016Z</time></trkpt><trkpt lat="40.1183341994237" lon="9.207059910058218"><ele>643.3333333333334</ele><time>2026-04-30T16:03:43.016Z</time></trkpt><trkpt lat="40.11845445727151" lon="9.207284964281323"><ele>646.0</ele><time>2026-04-30T16:03:44.016Z</time></trkpt><trkpt lat="40.11858500916897" lon="9.207506485620021"><ele>648.3333333333334</ele><time>2026-04-30T16:03:45.016Z</time></trkpt><trkpt lat="40.118733958679414" lon="9.207706208231857"><ele>650.6666666666666</ele><time>2026-04-30T16:03:46.016Z</time></trkpt><trkpt lat="40.11889622289453" lon="9.20789790919936"><ele>653.0</ele><time>2026-04-30T16:03:47.016Z</time></trkpt><trkpt lat="40.119052894987924" lon="9.208087264522943"><ele>655.3333333333333</ele><time>2026-04-30T16:03:48.016Z</time></trkpt><trkpt lat="40.11921515903495" lon="9.208245213726723"><ele>657.6666666666666</ele><time>2026-04-30T16:03:49.016Z</time></trkpt><trkpt lat="40.11939985321815" lon="9.20832902143007"><ele>660.0</ele><time>2026-04-30T16:03:50.016Z</time></trkpt><trkpt lat="40.119609076035744" lon="9.208351784168874"><ele>660.0</ele><time>2026-04-30T16:03:51.016Z</time></trkpt><trkpt lat="40.11983437509262" lon="9.208365625469956"><ele>660.0</ele><time>2026-04-30T16:03:52.016Z</time></trkpt><trkpt lat="40.120053531055824" lon="9.20842940610582"><ele>660.5</ele><time>2026-04-30T16:03:53.016Z</time></trkpt><trkpt lat="40.12027142474668" lon="9.208533000649204"><ele>661.0</ele><time>2026-04-30T16:03:54.016Z</time></trkpt><trkpt lat="40.1204893332009" lon="9.208652608925593"><ele>661.0</ele><time>2026-04-30T16:03:55.016Z</time></trkpt><trkpt lat="40.120713794406036" lon="9.208773875554723"><ele>661.0</ele><time>2026-04-30T16:03:56.016Z</time></trkpt><trkpt lat="40.12094338527776" lon="9.208886351412145"><ele>665.0</ele><time>2026-04-30T16:03:57.016Z</time></trkpt><trkpt lat="40.12116937111528" lon="9.208994532769749"><ele>669.0</ele><time>2026-04-30T16:03:58.016Z</time></trkpt><trkpt lat="40.12139294722817" lon="9.209116785652315"><ele>664.5</ele><time>2026-04-30T16:03:59.016Z</time></trkpt><trkpt lat="40.12161872625476" lon="9.209235618653624"><ele>660.0</ele><time>2026-04-30T16:04:00.016Z</time></trkpt><trkpt lat="40.12184302798171" lon="9.20935312238071"><ele>660.0</ele><time>2026-04-30T16:04:01.016Z</time></trkpt><trkpt lat="40.12204552576452" lon="9.209467921626231"><ele>660.0</ele><time>2026-04-30T16:04:02.016Z</time></trkpt><trkpt lat="40.12219941281512" lon="9.209625260037072"><ele>660.0</ele><time>2026-04-30T16:04:03.016Z</time></trkpt><trkpt lat="40.122288688813306" lon="9.2098620955917"><ele>670.0</ele><time>2026-04-30T16:04:04.016Z</time></trkpt><trkpt lat="40.12231197342778" lon="9.210152106045351"><ele>680.0</ele><time>2026-04-30T16:04:05.016Z</time></trkpt><trkpt lat="40.122314984428506" lon="9.210461960040478"><ele>676.3333333333333</ele><time>2026-04-30T16:04:06.016Z</time></trkpt><trkpt lat="40.12234957337703" lon="9.210742824645974"><ele>672.6666666666666</ele><time>2026-04-30T16:04:07.016Z</time></trkpt><trkpt lat="40.122442814306226" lon="9.210972508801715"><ele>669.0</ele><time>2026-04-30T16:04:08.016Z</time></trkpt><trkpt lat="40.12260062957456" lon="9.211115363986508"><ele>669.0</ele><time>2026-04-30T16:04:09.016Z</time></trkpt><trkpt lat="40.122807711740045" lon="9.211175157737276"><ele>669.0</ele><time>2026-04-30T16:04:10.016Z</time></trkpt><trkpt lat="40.12302050085206" lon="9.211135110249904"><ele>669.0</ele><time>2026-04-30T16:04:11.016Z</time></trkpt><trkpt lat="40.12322326024056" lon="9.210985138687885"><ele>666.5</ele><time>2026-04-30T16:04:12.016Z</time></trkpt><trkpt lat="40.12342236365216" lon="9.210754844893918"><ele>664.0</ele><time>2026-04-30T16:04:13.016Z</time></trkpt><trkpt lat="40.12364240152813" lon="9.210510362052975"><ele>660.0</ele><time>2026-04-30T16:04:14.016Z</time></trkpt><trkpt lat="40.12388958302498" lon="9.210284496390065"><ele>656.0</ele><time>2026-04-30T16:04:15.016Z</time></trkpt><trkpt lat="40.12412179753689" lon="9.210069122711188"><ele>656.0</ele><time>2026-04-30T16:04:16.016Z</time></trkpt><trkpt lat="40.12436376487307" lon="9.209948503728041"><ele>656.0</ele><time>2026-04-30T16:04:17.016Z</time></trkpt><trkpt lat="40.124645561345396" lon="9.209903786815214"><ele>661.0</ele><time>2026-04-30T16:04:18.016Z</time></trkpt><trkpt lat="40.12496446822219" lon="9.209884420379426"><ele>666.0</ele><time>2026-04-30T16:04:19.016Z</time></trkpt><trkpt lat="40.12533904152833" lon="9.209743602411804"><ele>660.0</ele><time>2026-04-30T16:04:20.016Z</time></trkpt><trkpt lat="40.12567282045925" lon="9.209471093561646"><ele>654.0</ele><time>2026-04-30T16:04:21.016Z</time></trkpt><trkpt lat="40.125978711215936" lon="9.209260362071738"><ele>654.0</ele><time>2026-04-30T16:04:22.016Z</time></trkpt><trkpt lat="40.12632509656639" lon="9.209115103559764"><ele>654.0</ele><time>2026-04-30T16:04:23.016Z</time></trkpt><trkpt lat="40.12669012363272" lon="9.209028421886178"><ele>648.0</ele><time>2026-04-30T16:04:24.016Z</time></trkpt><trkpt lat="40.12704632695383" lon="9.208942441509187"><ele>642.0</ele><time>2026-04-30T16:04:25.016Z</time></trkpt><trkpt lat="40.127372768026525" lon="9.20884535263356"><ele>645.0</ele><time>2026-04-30T16:04:26.016Z</time></trkpt><trkpt lat="40.1276241775261" lon="9.208790110680054"><ele>648.0</ele><time>2026-04-30T16:04:27.016Z</time></trkpt><trkpt lat="40.12784173620134" lon="9.208889974326468"><ele>653.5</ele><time>2026-04-30T16:04:28.016Z</time></trkpt><trkpt lat="40.1280819270787" lon="9.209057345657142"><ele>659.0</ele><time>2026-04-30T16:04:29.018Z</time></trkpt><trkpt lat="40.1283720030166" lon="9.209205181856678"><ele>659.0</ele><time>2026-04-30T16:04:30.017Z</time></trkpt><trkpt lat="40.12866822881827" lon="9.209344634229314"><ele>659.0</ele><time>2026-04-30T16:04:31.017Z</time></trkpt><trkpt lat="40.12892702506979" lon="9.209484548679074"><ele>659.0</ele><time>2026-04-30T16:04:32.017Z</time></trkpt><trkpt lat="40.129120697458795" lon="9.209527840573346"><ele>659.0</ele><time>2026-04-30T16:04:33.017Z</time></trkpt><trkpt lat="40.129264597377336" lon="9.209706342807022"><ele>659.0</ele><time>2026-04-30T16:04:34.017Z</time></trkpt><trkpt lat="40.12935805385967" lon="9.20996757229206"><ele>659.0</ele><time>2026-04-30T16:04:35.018Z</time></trkpt><trkpt lat="40.129433962376154" lon="9.2102462335519"><ele>659.0</ele><time>2026-04-30T16:04:36.017Z</time></trkpt><trkpt lat="40.129454886735495" lon="9.210589658113307"><ele>662.5</ele><time>2026-04-30T16:04:37.017Z</time></trkpt><trkpt lat="40.12934753501773" lon="9.2109966609391"><ele>666.0</ele><time>2026-04-30T16:04:38.017Z</time></trkpt><trkpt lat="40.129375712086656" lon="9.211282548142092"><ele>669.5</ele><time>2026-04-30T16:04:39.018Z</time></trkpt><trkpt lat="40.12948040012162" lon="9.211562571665132"><ele>673.0</ele><time>2026-04-30T16:04:40.017Z</time></trkpt><trkpt lat="40.12967561236683" lon="9.211812630359795"><ele>673.0</ele><time>2026-04-30T16:04:41.017Z</time></trkpt><trkpt lat="40.12983264830233" lon="9.212020830303668"><ele>673.0</ele><time>2026-04-30T16:04:42.018Z</time></trkpt><trkpt lat="40.1299942771436" lon="9.212141699017588"><ele>673.0</ele><time>2026-04-30T16:04:43.018Z</time></trkpt><trkpt lat="40.13021072868935" lon="9.212167441289543"><ele>663.5</ele><time>2026-04-30T16:04:44.018Z</time></trkpt><trkpt lat="40.13052115400359" lon="9.211941237723407"><ele>654.0</ele><time>2026-04-30T16:04:45.018Z</time></trkpt><trkpt lat="40.13077565383466" lon="9.21186495686602"><ele>653.5</ele><time>2026-04-30T16:04:46.018Z</time></trkpt><trkpt lat="40.131034837005245" lon="9.211962785912583"><ele>653.0</ele><time>2026-04-30T16:04:47.018Z</time></trkpt><trkpt lat="40.13126149216905" lon="9.212119091361219"><ele>654.0</ele><time>2026-04-30T16:04:48.018Z</time></trkpt><trkpt lat="40.13144260605208" lon="9.212346860818636"><ele>655.0</ele><time>2026-04-30T16:04:49.018Z</time></trkpt><trkpt lat="40.131604826591335" lon="9.212686976826006"><ele>655.0</ele><time>2026-04-30T16:04:50.018Z</time></trkpt><trkpt lat="40.131774988605585" lon="9.212916699797123"><ele>655.0</ele><time>2026-04-30T16:04:51.018Z</time></trkpt><trkpt lat="40.131941402953515" lon="9.213120982380085"><ele>657.6666666666667</ele><time>2026-04-30T16:04:52.018Z</time></trkpt><trkpt lat="40.13207650287587" lon="9.213217280283681"><ele>660.3333333333334</ele><time>2026-04-30T16:04:53.018Z</time></trkpt><trkpt lat="40.132235916443854" lon="9.213185453697726"><ele>663.0</ele><time>2026-04-30T16:04:54.018Z</time></trkpt><trkpt lat="40.132407972453535" lon="9.213192346365558"><ele>655.3333333333334</ele><time>2026-04-30T16:04:55.018Z</time></trkpt><trkpt lat="40.13257632654248" lon="9.2132138338143"><ele>647.6666666666667</ele><time>2026-04-30T16:04:56.018Z</time></trkpt><trkpt lat="40.13274139980122" lon="9.213256309964997"><ele>640.0</ele><time>2026-04-30T16:04:57.018Z</time></trkpt><trkpt lat="40.132900709517955" lon="9.213288569386899"><ele>640.0</ele><time>2026-04-30T16:04:58.018Z</time></trkpt><trkpt lat="40.13305275638603" lon="9.213323812837492"><ele>640.0</ele><time>2026-04-30T16:04:59.018Z</time></trkpt><trkpt lat="40.133207341494334" lon="9.213349428735855"><ele>640.0</ele><time>2026-04-30T16:05:00.018Z</time></trkpt><trkpt lat="40.133354290147714" lon="9.213371465781735"><ele>639.75</ele><time>2026-04-30T16:05:01.018Z</time></trkpt><trkpt lat="40.13349916262613" lon="9.213395729094351"><ele>639.5</ele><time>2026-04-30T16:05:02.018Z</time></trkpt><trkpt lat="40.13364442160166" lon="9.213420141434364"><ele>639.25</ele><time>2026-04-30T16:05:03.018Z</time></trkpt><trkpt lat="40.1337788672326" lon="9.21342604265511"><ele>639.0</ele><time>2026-04-30T16:05:04.018Z</time></trkpt><trkpt lat="40.13391434549268" lon="9.213374087402256"><ele>639.0</ele><time>2026-04-30T16:05:05.018Z</time></trkpt><trkpt lat="40.134027234383915" lon="9.213258826585195"><ele>639.0</ele><time>2026-04-30T16:05:06.018Z</time></trkpt><trkpt lat="40.13410548652044" lon="9.213084792917266"><ele>639.0</ele><time>2026-04-30T16:05:07.018Z</time></trkpt><trkpt lat="40.13412705802135" lon="9.2127561194447"><ele>642.0</ele><time>2026-04-30T16:05:08.018Z</time></trkpt><trkpt lat="40.134200682211564" lon="9.21248975071892"><ele>645.0</ele><time>2026-04-30T16:05:09.018Z</time></trkpt><trkpt lat="40.134309998685936" lon="9.212239075452027"><ele>648.0</ele><time>2026-04-30T16:05:10.017Z</time></trkpt><trkpt lat="40.13444402841719" lon="9.21200254786044"><ele>648.0</ele><time>2026-04-30T16:05:11.017Z</time></trkpt><trkpt lat="40.134608489350704" lon="9.21175968095484"><ele>648.0</ele><time>2026-04-30T16:05:12.017Z</time></trkpt><trkpt lat="40.13477089494939" lon="9.21152733528198"><ele>654.3333333333334</ele><time>2026-04-30T16:05:13.017Z</time></trkpt><trkpt lat="40.13490536145299" lon="9.211310636987285"><ele>660.6666666666667</ele><time>2026-04-30T16:05:14.017Z</time></trkpt><trkpt lat="40.13499086016527" lon="9.21108717847435"><ele>667.0</ele><time>2026-04-30T16:05:15.017Z</time></trkpt><trkpt lat="40.13500570273568" lon="9.210833809486909"><ele>671.0</ele><time>2026-04-30T16:05:16.017Z</time></trkpt><trkpt lat="40.13491501838003" lon="9.210555268444297"><ele>675.0</ele><time>2026-04-30T16:05:17.017Z</time></trkpt><trkpt lat="40.13477072756819" lon="9.210287377070355"><ele>665.0</ele><time>2026-04-30T16:05:18.017Z</time></trkpt><trkpt lat="40.1345920201765" lon="9.209993156354576"><ele>655.0</ele><time>2026-04-30T16:05:19.017Z</time></trkpt><trkpt lat="40.13444731614622" lon="9.209662832964687"><ele>655.0</ele><time>2026-04-30T16:05:20.017Z</time></trkpt><trkpt lat="40.13435353680475" lon="9.209295890061927"><ele>655.0</ele><time>2026-04-30T16:05:21.017Z</time></trkpt><trkpt lat="40.13426512069393" lon="9.208966742849901"><ele>654.3333333333334</ele><time>2026-04-30T16:05:22.017Z</time></trkpt><trkpt lat="40.13420007390724" lon="9.208692224748887"><ele>653.6666666666666</ele><time>2026-04-30T16:05:23.017Z</time></trkpt><trkpt lat="40.134175407891206" lon="9.208449874352256"><ele>653.0</ele><time>2026-04-30T16:05:24.017Z</time></trkpt><trkpt lat="40.13423210132177" lon="9.208234070071155"><ele>648.6666666666666</ele><time>2026-04-30T16:05:25.017Z</time></trkpt><trkpt lat="40.13437262008606" lon="9.208031928195252"><ele>644.3333333333334</ele><time>2026-04-30T16:05:26.017Z</time></trkpt><trkpt lat="40.13457798014704" lon="9.207891052863092"><ele>640.0</ele><time>2026-04-30T16:05:27.017Z</time></trkpt><trkpt lat="40.13482504960206" lon="9.20778426553111"><ele>646.0</ele><time>2026-04-30T16:05:28.017Z</time></trkpt><trkpt lat="40.1350820559868" lon="9.20765941890307"><ele>652.0</ele><time>2026-04-30T16:05:29.017Z</time></trkpt><trkpt lat="40.135331548540194" lon="9.207495324859151"><ele>652.0</ele><time>2026-04-30T16:05:30.017Z</time></trkpt><trkpt lat="40.13558081202795" lon="9.207331298401323"><ele>652.0</ele><time>2026-04-30T16:05:31.017Z</time></trkpt><trkpt lat="40.13580550100926" lon="9.207135868267931"><ele>652.0</ele><time>2026-04-30T16:05:32.017Z</time></trkpt><trkpt lat="40.13599425754713" lon="9.206880142031176"><ele>652.0</ele><time>2026-04-30T16:05:33.017Z</time></trkpt><trkpt lat="40.13615691377497" lon="9.206595177705639"><ele>649.0</ele><time>2026-04-30T16:05:34.017Z</time></trkpt><trkpt lat="40.13630006746612" lon="9.20634923770275"><ele>646.0</ele><time>2026-04-30T16:05:35.017Z</time></trkpt><trkpt lat="40.13638008650587" lon="9.20610215982802"><ele>643.0</ele><time>2026-04-30T16:05:36.017Z</time></trkpt><trkpt lat="40.13638590438127" lon="9.205789751324055"><ele>641.5</ele><time>2026-04-30T16:05:37.017Z</time></trkpt><trkpt lat="40.13638527601693" lon="9.205455034355392"><ele>640.0</ele><time>2026-04-30T16:05:38.017Z</time></trkpt><trkpt lat="40.13642514200502" lon="9.205181833028782"><ele>640.0</ele><time>2026-04-30T16:05:39.017Z</time></trkpt><trkpt lat="40.13652932669492" lon="9.204955679261184"><ele>640.0</ele><time>2026-04-30T16:05:40.017Z</time></trkpt><trkpt lat="40.136709272965014" lon="9.204772310702522"><ele>640.0</ele><time>2026-04-30T16:05:41.017Z</time></trkpt><trkpt lat="40.13694321805183" lon="9.204608119270382"><ele>641.5</ele><time>2026-04-30T16:05:42.017Z</time></trkpt><trkpt lat="40.13720708302672" lon="9.204437784310558"><ele>643.0</ele><time>2026-04-30T16:05:43.017Z</time></trkpt><trkpt lat="40.13748566047914" lon="9.204275583207654"><ele>641.5</ele><time>2026-04-30T16:05:44.017Z</time></trkpt><trkpt lat="40.13777471229642" lon="9.204124735162008"><ele>640.0</ele><time>2026-04-30T16:05:45.017Z</time></trkpt><trkpt lat="40.13807343656231" lon="9.203981045731284"><ele>644.0</ele><time>2026-04-30T16:05:46.017Z</time></trkpt><trkpt lat="40.138373551579306" lon="9.203824359079684"><ele>648.0</ele><time>2026-04-30T16:05:47.017Z</time></trkpt><trkpt lat="40.13867547610704" lon="9.203628954347197"><ele>648.0</ele><time>2026-04-30T16:05:48.017Z</time></trkpt><trkpt lat="40.13896197905325" lon="9.203422355882939"><ele>648.0</ele><time>2026-04-30T16:05:49.017Z</time></trkpt><trkpt lat="40.13921512571329" lon="9.203220473586398"><ele>649.5</ele><time>2026-04-30T16:05:50.017Z</time></trkpt><trkpt lat="40.13945126082398" lon="9.203050519019778"><ele>651.0</ele><time>2026-04-30T16:05:51.017Z</time></trkpt><trkpt lat="40.13968728326236" lon="9.20292848684907"><ele>651.0</ele><time>2026-04-30T16:05:52.017Z</time></trkpt><trkpt lat="40.13995197345556" lon="9.202860601861163"><ele>651.0</ele><time>2026-04-30T16:05:53.017Z</time></trkpt><trkpt lat="40.14024828345951" lon="9.202876888691861"><ele>651.0</ele><time>2026-04-30T16:05:54.017Z</time></trkpt><trkpt lat="40.14055475051707" lon="9.202897868742587"><ele>651.0</ele><time>2026-04-30T16:05:55.017Z</time></trkpt><trkpt lat="40.140871152417866" lon="9.202894662936325"><ele>648.0</ele><time>2026-04-30T16:05:56.017Z</time></trkpt><trkpt lat="40.14119151829189" lon="9.202877356985256"><ele>645.0</ele><time>2026-04-30T16:05:57.017Z</time></trkpt><trkpt lat="40.14151474950262" lon="9.20286465548566"><ele>646.0</ele><time>2026-04-30T16:05:58.017Z</time></trkpt><trkpt lat="40.141810621745236" lon="9.202868595846311"><ele>647.0</ele><time>2026-04-30T16:05:59.017Z</time></trkpt><trkpt lat="40.142078280840124" lon="9.202860655931257"><ele>647.0</ele><time>2026-04-30T16:06:00.017Z</time></trkpt><trkpt lat="40.14229563168015" lon="9.202892964846065"><ele>647.0</ele><time>2026-04-30T16:06:01.017Z</time></trkpt><trkpt lat="40.14247519015362" lon="9.202942216009152"><ele>647.0</ele><time>2026-04-30T16:06:02.017Z</time></trkpt><trkpt lat="40.14263668491856" lon="9.202942233042776"><ele>648.0</ele><time>2026-04-30T16:06:03.017Z</time></trkpt><trkpt lat="40.14278788240323" lon="9.20281632443361"><ele>649.0</ele><time>2026-04-30T16:06:04.017Z</time></trkpt><trkpt lat="40.14294092059969" lon="9.202592595903816"><ele>650.0</ele><time>2026-04-30T16:06:05.017Z</time></trkpt><trkpt lat="40.14312477237976" lon="9.202372368866042"><ele>650.3333333333333</ele><time>2026-04-30T16:06:06.017Z</time></trkpt><trkpt lat="40.143283102343695" lon="9.202184100854206"><ele>650.6666666666666</ele><time>2026-04-30T16:06:07.017Z</time></trkpt><trkpt lat="40.14340367994362" lon="9.20198396337386"><ele>651.0</ele><time>2026-04-30T16:06:08.017Z</time></trkpt><trkpt lat="40.14346225720606" lon="9.201716273112075"><ele>650.6666666666666</ele><time>2026-04-30T16:06:09.017Z</time></trkpt><trkpt lat="40.143490822583274" lon="9.201405195821843"><ele>650.3333333333333</ele><time>2026-04-30T16:06:10.017Z</time></trkpt><trkpt lat="40.143545157957" lon="9.201171378721991"><ele>650.0</ele><time>2026-04-30T16:06:11.017Z</time></trkpt><trkpt lat="40.143652607583675" lon="9.201032698007877"><ele>650.0</ele><time>2026-04-30T16:06:12.017Z</time></trkpt><trkpt lat="40.143845408409234" lon="9.200966657929808"><ele>650.0</ele><time>2026-04-30T16:06:13.017Z</time></trkpt><trkpt lat="40.144069399451205" lon="9.200914671778532"><ele>650.0</ele><time>2026-04-30T16:06:14.017Z</time></trkpt><trkpt lat="40.144302512215084" lon="9.200967568373583"><ele>651.0</ele><time>2026-04-30T16:06:15.017Z</time></trkpt><trkpt lat="40.14452929283288" lon="9.201108538295989"><ele>652.0</ele><time>2026-04-30T16:06:16.017Z</time></trkpt><trkpt lat="40.144720076936814" lon="9.201197364856187"><ele>651.0</ele><time>2026-04-30T16:06:17.017Z</time></trkpt><trkpt lat="40.14490689941218" lon="9.201265230449412"><ele>650.0</ele><time>2026-04-30T16:06:18.017Z</time></trkpt><trkpt lat="40.14503612299396" lon="9.20128419438242"><ele>649.0</ele><time>2026-04-30T16:06:19.017Z</time></trkpt><trkpt lat="40.14514064637263" lon="9.20121172039483"><ele>648.0</ele><time>2026-04-30T16:06:20.017Z</time></trkpt><trkpt lat="40.14520518280071" lon="9.201014070591334"><ele>648.0</ele><time>2026-04-30T16:06:21.017Z</time></trkpt><trkpt lat="40.14523905509802" lon="9.200744570695148"><ele>648.0</ele><time>2026-04-30T16:06:22.017Z</time></trkpt><trkpt lat="40.14527843419251" lon="9.200435658347264"><ele>648.0</ele><time>2026-04-30T16:06:23.017Z</time></trkpt><trkpt lat="40.145346409265095" lon="9.20013773248866"><ele>647.6666666666666</ele><time>2026-04-30T16:06:24.017Z</time></trkpt><trkpt lat="40.14541902854793" lon="9.199880493629829"><ele>647.3333333333333</ele><time>2026-04-30T16:06:25.017Z</time></trkpt><trkpt lat="40.1454973933066" lon="9.199668779974358"><ele>647.0</ele><time>2026-04-30T16:06:26.017Z</time></trkpt><trkpt lat="40.145654818715805" lon="9.199553936330224"><ele>654.0</ele><time>2026-04-30T16:06:27.017Z</time></trkpt><trkpt lat="40.14589399644062" lon="9.199502027147377"><ele>661.0</ele><time>2026-04-30T16:06:28.017Z</time></trkpt><trkpt lat="40.14612898659088" lon="9.199433631332981"><ele>661.0</ele><time>2026-04-30T16:06:29.017Z</time></trkpt><trkpt lat="40.1463583369878" lon="9.199381070353892"><ele>661.0</ele><time>2026-04-30T16:06:30.017Z</time></trkpt><trkpt lat="40.146587631729304" lon="9.199411489212475"><ele>662.0</ele><time>2026-04-30T16:06:31.017Z</time></trkpt><trkpt lat="40.146820309895894" lon="9.1994901819979"><ele>663.0</ele><time>2026-04-30T16:06:32.017Z</time></trkpt><trkpt lat="40.14702804496819" lon="9.19950337364482"><ele>664.0</ele><time>2026-04-30T16:06:33.017Z</time></trkpt><trkpt lat="40.147220197878475" lon="9.199407789153428"><ele>664.0</ele><time>2026-04-30T16:06:34.017Z</time></trkpt><trkpt lat="40.147369403711345" lon="9.199310759038045"><ele>664.0</ele><time>2026-04-30T16:06:35.019Z</time></trkpt><trkpt lat="40.14744806391154" lon="9.199194739579388"><ele>664.0</ele><time>2026-04-30T16:06:36.018Z</time></trkpt><trkpt lat="40.14743062032792" lon="9.199002100452502"><ele>664.0</ele><time>2026-04-30T16:06:37.018Z</time></trkpt><trkpt lat="40.14731807476174" lon="9.19875649646212"><ele>669.3333333333334</ele><time>2026-04-30T16:06:38.019Z</time></trkpt><trkpt lat="40.14721513558677" lon="9.198529002986689"><ele>674.6666666666666</ele><time>2026-04-30T16:06:39.019Z</time></trkpt><trkpt lat="40.147229577315514" lon="9.198344757307487"><ele>680.0</ele><time>2026-04-30T16:06:40.019Z</time></trkpt><trkpt lat="40.147357122020104" lon="9.198176255743007"><ele>682.6666666666666</ele><time>2026-04-30T16:06:41.019Z</time></trkpt><trkpt lat="40.14744761697642" lon="9.198001029539297"><ele>685.3333333333334</ele><time>2026-04-30T16:06:42.019Z</time></trkpt><trkpt lat="40.14745886139195" lon="9.197802301759221"><ele>688.0</ele><time>2026-04-30T16:06:43.019Z</time></trkpt><trkpt lat="40.14741106566886" lon="9.19761468329953"><ele>688.0</ele><time>2026-04-30T16:06:44.018Z</time></trkpt><trkpt lat="40.14749475116571" lon="9.197522882695548"><ele>688.0</ele><time>2026-04-30T16:06:45.019Z</time></trkpt><trkpt lat="40.14766682395712" lon="9.197528540767962"><ele>688.0</ele><time>2026-04-30T16:06:46.019Z</time></trkpt><trkpt lat="40.147843311409034" lon="9.19753562341865"><ele>688.0</ele><time>2026-04-30T16:06:47.018Z</time></trkpt><trkpt lat="40.147996073355245" lon="9.197449912645887"><ele>688.0</ele><time>2026-04-30T16:06:48.018Z</time></trkpt><trkpt lat="40.14818533307177" lon="9.197375376936138"><ele>688.0</ele><time>2026-04-30T16:06:49.018Z</time></trkpt><trkpt lat="40.14839834134892" lon="9.197425024234697"><ele>686.0</ele><time>2026-04-30T16:06:50.018Z</time></trkpt><trkpt lat="40.148626477503115" lon="9.197454354641254"><ele>684.0</ele><time>2026-04-30T16:06:51.018Z</time></trkpt><trkpt lat="40.14889161809876" lon="9.197438959355447"><ele>691.0</ele><time>2026-04-30T16:06:52.018Z</time></trkpt><trkpt lat="40.14915680935752" lon="9.19732952180214"><ele>698.0</ele><time>2026-04-30T16:06:53.018Z</time></trkpt><trkpt lat="40.14935782746737" lon="9.197203987321524"><ele>698.0</ele><time>2026-04-30T16:06:54.018Z</time></trkpt><trkpt lat="40.149459588960625" lon="9.197071787940407"><ele>698.0</ele><time>2026-04-30T16:06:55.018Z</time></trkpt><trkpt lat="40.149491596804914" lon="9.19691542911159"><ele>698.0</ele><time>2026-04-30T16:06:56.018Z</time></trkpt><trkpt lat="40.149449148241864" lon="9.196668672261266"><ele>700.6666666666666</ele><time>2026-04-30T16:06:57.018Z</time></trkpt><trkpt lat="40.149399290839064" lon="9.196365922457048"><ele>703.3333333333334</ele><time>2026-04-30T16:06:58.018Z</time></trkpt><trkpt lat="40.14941310022711" lon="9.19614021568516"><ele>706.0</ele><time>2026-04-30T16:06:59.018Z</time></trkpt><trkpt lat="40.14949665534665" lon="9.195924711588619"><ele>706.0</ele><time>2026-04-30T16:07:00.018Z</time></trkpt><trkpt lat="40.149672964670444" lon="9.195772258277811"><ele>706.0</ele><time>2026-04-30T16:07:01.018Z</time></trkpt><trkpt lat="40.14988484956357" lon="9.195713908478346"><ele>706.0</ele><time>2026-04-30T16:07:02.018Z</time></trkpt><trkpt lat="40.150082748548364" lon="9.195769072404081"><ele>703.0</ele><time>2026-04-30T16:07:03.018Z</time></trkpt><trkpt lat="40.15025540929029" lon="9.195896264307152"><ele>700.0</ele><time>2026-04-30T16:07:04.018Z</time></trkpt><trkpt lat="40.15043689471159" lon="9.196014701541577"><ele>697.0</ele><time>2026-04-30T16:07:05.018Z</time></trkpt><trkpt lat="40.1506174039366" lon="9.196008477661685"><ele>698.0</ele><time>2026-04-30T16:07:06.018Z</time></trkpt><trkpt lat="40.15078878740494" lon="9.195856414355617"><ele>699.0</ele><time>2026-04-30T16:07:07.018Z</time></trkpt><trkpt lat="40.1509577222167" lon="9.195721589562266"><ele>700.0</ele><time>2026-04-30T16:07:08.018Z</time></trkpt><trkpt lat="40.151136065690174" lon="9.1956521820749"><ele>706.0</ele><time>2026-04-30T16:07:09.018Z</time></trkpt><trkpt lat="40.1512716314497" lon="9.195557291684228"><ele>712.0</ele><time>2026-04-30T16:07:10.018Z</time></trkpt><trkpt lat="40.15138889161221" lon="9.195409294134981"><ele>718.0</ele><time>2026-04-30T16:07:11.018Z</time></trkpt><trkpt lat="40.15150627628521" lon="9.19530601473013"><ele>717.6666666666667</ele><time>2026-04-30T16:07:12.018Z</time></trkpt><trkpt lat="40.15164820791718" lon="9.19539069736125"><ele>717.3333333333334</ele><time>2026-04-30T16:07:13.018Z</time></trkpt><trkpt lat="40.151753201936685" lon="9.195598543476454"><ele>717.0</ele><time>2026-04-30T16:07:14.018Z</time></trkpt><trkpt lat="40.15176439213082" lon="9.195875305254157"><ele>714.0</ele><time>2026-04-30T16:07:15.018Z</time></trkpt><trkpt lat="40.151763028534326" lon="9.196143744485052"><ele>711.0</ele><time>2026-04-30T16:07:16.018Z</time></trkpt><trkpt lat="40.151788158830264" lon="9.196361298091658"><ele>708.0</ele><time>2026-04-30T16:07:17.018Z</time></trkpt><trkpt lat="40.151822728309504" lon="9.196524939822297"><ele>707.0</ele><time>2026-04-30T16:07:18.018Z</time></trkpt><trkpt lat="40.15187013295999" lon="9.19662687056884"><ele>706.0</ele><time>2026-04-30T16:07:19.018Z</time></trkpt><trkpt lat="40.15193148949659" lon="9.196712300114065"><ele>705.0</ele><time>2026-04-30T16:07:20.018Z</time></trkpt><trkpt lat="40.15201037351471" lon="9.196783738240628"><ele>704.0</ele><time>2026-04-30T16:07:21.018Z</time></trkpt><trkpt lat="40.15210160597649" lon="9.1968378081952"><ele>703.0</ele><time>2026-04-30T16:07:22.018Z</time></trkpt><trkpt lat="40.15220792340912" lon="9.196891408338713"><ele>703.0</ele><time>2026-04-30T16:07:23.018Z</time></trkpt><trkpt lat="40.1523228553297" lon="9.196925264216079"><ele>703.0</ele><time>2026-04-30T16:07:24.018Z</time></trkpt><trkpt lat="40.152451328964794" lon="9.196919082644072"><ele>703.0</ele><time>2026-04-30T16:07:25.018Z</time></trkpt><trkpt lat="40.1525787323128" lon="9.196889638885025"><ele>703.0</ele><time>2026-04-30T16:07:26.018Z</time></trkpt><trkpt lat="40.152713007350236" lon="9.19682295816059"><ele>707.0</ele><time>2026-04-30T16:07:27.018Z</time></trkpt><trkpt lat="40.15284065913381" lon="9.196721919372042"><ele>711.0</ele><time>2026-04-30T16:07:28.018Z</time></trkpt><trkpt lat="40.15295436840039" lon="9.19658568887186"><ele>715.0</ele><time>2026-04-30T16:07:29.018Z</time></trkpt><trkpt lat="40.15304870437223" lon="9.196447480324284"><ele>719.0</ele><time>2026-04-30T16:07:30.018Z</time></trkpt><trkpt lat="40.15313271568904" lon="9.196328620055256"><ele>722.6</ele><time>2026-04-30T16:07:31.018Z</time></trkpt><trkpt lat="40.15322909381815" lon="9.196255096968954"><ele>726.2</ele><time>2026-04-30T16:07:32.018Z</time></trkpt><trkpt lat="40.1533309153334" lon="9.196202059742737"><ele>729.8000000000001</ele><time>2026-04-30T16:07:33.018Z</time></trkpt><trkpt lat="40.1534357609408" lon="9.196148196806485"><ele>733.4000000000001</ele><time>2026-04-30T16:07:34.018Z</time></trkpt><trkpt lat="40.15352881196078" lon="9.196058298972002"><ele>737.0</ele><time>2026-04-30T16:07:35.018Z</time></trkpt><trkpt lat="40.153618888864955" lon="9.195971944270486"><ele>737.0</ele><time>2026-04-30T16:07:36.018Z</time></trkpt><trkpt lat="40.15371078343849" lon="9.195880325932034"><ele>737.0</ele><time>2026-04-30T16:07:37.018Z</time></trkpt><trkpt lat="40.153808212789855" lon="9.19580810411013"><ele>737.0</ele><time>2026-04-30T16:07:38.018Z</time></trkpt><trkpt lat="40.15390722007615" lon="9.195741903658883"><ele>737.0</ele><time>2026-04-30T16:07:39.018Z</time></trkpt><trkpt lat="40.15400515811043" lon="9.195684179188452"><ele>737.0</ele><time>2026-04-30T16:07:40.018Z</time></trkpt><trkpt lat="40.15410888992866" lon="9.195638959999119"><ele>737.8</ele><time>2026-04-30T16:07:41.018Z</time></trkpt><trkpt lat="40.15420291485804" lon="9.195577109162018"><ele>738.6</ele><time>2026-04-30T16:07:42.018Z</time></trkpt><trkpt lat="40.15428128050679" lon="9.195497032371573"><ele>739.4</ele><time>2026-04-30T16:07:43.018Z</time></trkpt><trkpt lat="40.15434645593977" lon="9.195403348328696"><ele>740.1999999999999</ele><time>2026-04-30T16:07:44.018Z</time></trkpt><trkpt lat="40.1543887700943" lon="9.195290237657174"><ele>741.0</ele><time>2026-04-30T16:07:45.018Z</time></trkpt><trkpt lat="40.15442680705834" lon="9.195166607810954"><ele>741.0</ele><time>2026-04-30T16:07:46.018Z</time></trkpt><trkpt lat="40.15444967318814" lon="9.195041773009455"><ele>741.0</ele><time>2026-04-30T16:07:47.018Z</time></trkpt><trkpt lat="40.154478607488585" lon="9.194927963986725"><ele>741.0</ele><time>2026-04-30T16:07:48.018Z</time></trkpt><trkpt lat="40.15452419898469" lon="9.194861346025018"><ele>741.0</ele><time>2026-04-30T16:07:49.018Z</time></trkpt><trkpt lat="40.154576157360275" lon="9.194794357617655"><ele>741.0</ele><time>2026-04-30T16:07:51.018Z</time></trkpt><trkpt lat="40.15459460899291" lon="9.194687234021272"><ele>741.0</ele><time>2026-04-30T16:08:12.018Z</time></trkpt><trkpt lat="40.154649679873565" lon="9.194629206176462"><ele>742.8</ele><time>2026-04-30T16:08:13.018Z</time></trkpt><trkpt lat="40.15473397337977" lon="9.194570642101349"><ele>744.5999999999999</ele><time>2026-04-30T16:08:14.018Z</time></trkpt><trkpt lat="40.15483406548425" lon="9.194516035262259"><ele>746.4</ele><time>2026-04-30T16:08:15.018Z</time></trkpt><trkpt lat="40.15494470816703" lon="9.19446804040404"><ele>748.2</ele><time>2026-04-30T16:08:16.018Z</time></trkpt><trkpt lat="40.155068098214144" lon="9.194440450655637"><ele>750.0</ele><time>2026-04-30T16:08:17.018Z</time></trkpt><trkpt lat="40.155192945038856" lon="9.194431184653526"><ele>750.0</ele><time>2026-04-30T16:08:18.018Z</time></trkpt><trkpt lat="40.155304038032426" lon="9.19441440254802"><ele>750.0</ele><time>2026-04-30T16:08:19.018Z</time></trkpt><trkpt lat="40.15540165268358" lon="9.194403249462196"><ele>750.0</ele><time>2026-04-30T16:08:20.018Z</time></trkpt><trkpt lat="40.15548895854353" lon="9.194385291336753"><ele>750.0</ele><time>2026-04-30T16:08:21.018Z</time></trkpt><trkpt lat="40.15556514881578" lon="9.194372961522188"><ele>750.0</ele><time>2026-04-30T16:08:22.018Z</time></trkpt><trkpt lat="40.155631362986874" lon="9.194369091236588"><ele>750.0</ele><time>2026-04-30T16:08:23.018Z</time></trkpt><trkpt lat="40.15569366628815" lon="9.194354575011035"><ele>749.6666666666666</ele><time>2026-04-30T16:08:24.018Z</time></trkpt><trkpt lat="40.155762380595654" lon="9.194344600414965"><ele>749.3333333333334</ele><time>2026-04-30T16:08:25.018Z</time></trkpt><trkpt lat="40.15584085676987" lon="9.194336435679332"><ele>749.0</ele><time>2026-04-30T16:08:26.018Z</time></trkpt><trkpt lat="40.155933112390834" lon="9.194333057035903"><ele>748.6666666666667</ele><time>2026-04-30T16:08:27.018Z</time></trkpt><trkpt lat="40.1560313211102" lon="9.19432882179885"><ele>748.3333333333334</ele><time>2026-04-30T16:08:28.018Z</time></trkpt><trkpt lat="40.15613354444145" lon="9.19431459673685"><ele>748.0</ele><time>2026-04-30T16:08:29.018Z</time></trkpt><trkpt lat="40.15622835720573" lon="9.194265874068876"><ele>748.0</ele><time>2026-04-30T16:08:30.018Z</time></trkpt><trkpt lat="40.15631743904753" lon="9.194186757220805"><ele>748.0</ele><time>2026-04-30T16:08:31.018Z</time></trkpt><trkpt lat="40.156394096878635" lon="9.194104557205645"><ele>748.0</ele><time>2026-04-30T16:08:32.018Z</time></trkpt><trkpt lat="40.15649038682951" lon="9.194025908009042"><ele>748.0</ele><time>2026-04-30T16:08:33.018Z</time></trkpt><trkpt lat="40.15658785690984" lon="9.193941791592675"><ele>748.0</ele><time>2026-04-30T16:08:34.018Z</time></trkpt><trkpt lat="40.15668432571917" lon="9.19385712874286"><ele>754.0</ele><time>2026-04-30T16:08:35.018Z</time></trkpt><trkpt lat="40.15677996033899" lon="9.193772187816531"><ele>760.0</ele><time>2026-04-30T16:08:36.018Z</time></trkpt><trkpt lat="40.156889959049664" lon="9.19370663907106"><ele>766.0</ele><time>2026-04-30T16:08:37.018Z</time></trkpt><trkpt lat="40.157020292190225" lon="9.193686610565608"><ele>772.0</ele><time>2026-04-30T16:08:38.018Z</time></trkpt><trkpt lat="40.15713676597669" lon="9.193670703015227"><ele>772.0</ele><time>2026-04-30T16:08:39.018Z</time></trkpt><trkpt lat="40.157247758091565" lon="9.193648893934888"><ele>772.0</ele><time>2026-04-30T16:08:40.018Z</time></trkpt><trkpt lat="40.157361686578774" lon="9.193638427085503"><ele>772.0</ele><time>2026-04-30T16:08:41.02Z</time></trkpt><trkpt lat="40.15747855913716" lon="9.193621353294638"><ele>772.0</ele><time>2026-04-30T16:08:42.019Z</time></trkpt><trkpt lat="40.157590558333396" lon="9.193607175057318"><ele>770.6666666666666</ele><time>2026-04-30T16:08:43.019Z</time></trkpt><trkpt lat="40.15769439394319" lon="9.193583993531957"><ele>769.3333333333333</ele><time>2026-04-30T16:08:44.019Z</time></trkpt><trkpt lat="40.15777859153626" lon="9.19355528634661"><ele>768.0</ele><time>2026-04-30T16:08:45.019Z</time></trkpt><trkpt lat="40.157852130760176" lon="9.193510903288319"><ele>766.6666666666666</ele><time>2026-04-30T16:08:46.019Z</time></trkpt><trkpt lat="40.15792597210246" lon="9.193454822053324"><ele>765.3333333333333</ele><time>2026-04-30T16:08:47.019Z</time></trkpt><trkpt lat="40.1579989270663" lon="9.193413076442027"><ele>764.0</ele><time>2026-04-30T16:08:48.019Z</time></trkpt><trkpt lat="40.15807670618123" lon="9.193375636915427"><ele>764.0</ele><time>2026-04-30T16:08:49.019Z</time></trkpt><trkpt lat="40.15814480962701" lon="9.193343384585145"><ele>764.0</ele><time>2026-04-30T16:08:50.019Z</time></trkpt><trkpt lat="40.15820867360789" lon="9.193329497197393"><ele>767.0</ele><time>2026-04-30T16:08:51.019Z</time></trkpt><trkpt lat="40.15827935643055" lon="9.193316911301137"><ele>767.0</ele><time>2026-04-30T16:08:53.019Z</time></trkpt><trkpt lat="40.15824221784179" lon="9.193248336490125"><ele>767.0</ele><time>2026-04-30T16:08:57.02Z</time></trkpt></trkseg></trk></gpx>